<?xml version="1.0" encoding="UTF-8" standalone="no" ?>
<gpx xmlns="http://www.topografix.com/GPX/1/1" xmlns:xsi="http://www.w3.org/2001/XMLSchema-instance" xsi:schemaLocation="http://www.topografix.com/GPX/1/1 http://www.topografix.com/GPX/1/1/gpx.xsd" version="1.1" creator="VisuGPX - https://www.visugpx.com">
  <metadata>
    <name>Saint-Caradec Rigole d'Hilvern</name>
    <desc><![CDATA[Au départ de Saint Caradec le long de la rigole d'Hilvern (V6) jusqu'à Merléac et retour par la route.
Un petit crochet en raison d'un arbre abattu par la tempête à Le Quillio]]></desc>
  </metadata>
  <trk>
    <name><![CDATA[Saint-Caradec vélo]]></name>
    <trkseg>
      <trkpt lat="48.19347" lon="-2.86339">
        <ele>133.19999694824</ele>
        <time>2020-10-16T12:14:56.000Z</time>
      </trkpt>
      <trkpt lat="48.19347" lon="-2.86339">
        <ele>133.19999694824</ele>
        <time>2020-10-16T12:14:58.000Z</time>
      </trkpt>
      <trkpt lat="48.19347" lon="-2.86339">
        <ele>133.19999694824</ele>
        <time>2020-10-16T12:14:59.000Z</time>
      </trkpt>
      <trkpt lat="48.19347" lon="-2.86339">
        <ele>133.19999694824</ele>
        <time>2020-10-16T12:15:00.000Z</time>
      </trkpt>
      <trkpt lat="48.19347" lon="-2.86338">
        <ele>133.19999694824</ele>
        <time>2020-10-16T12:15:01.000Z</time>
      </trkpt>
      <trkpt lat="48.19347" lon="-2.86338">
        <ele>133.19999694824</ele>
        <time>2020-10-16T12:15:02.000Z</time>
      </trkpt>
      <trkpt lat="48.19347" lon="-2.86338">
        <ele>133.19999694824</ele>
        <time>2020-10-16T12:15:03.000Z</time>
      </trkpt>
      <trkpt lat="48.19347" lon="-2.86337">
        <ele>133.19999694824</ele>
        <time>2020-10-16T12:15:04.000Z</time>
      </trkpt>
      <trkpt lat="48.19347" lon="-2.86337">
        <ele>133.19999694824</ele>
        <time>2020-10-16T12:15:05.000Z</time>
      </trkpt>
      <trkpt lat="48.19347" lon="-2.86337">
        <ele>133.19999694824</ele>
        <time>2020-10-16T12:15:06.000Z</time>
      </trkpt>
      <trkpt lat="48.19347" lon="-2.86337">
        <ele>133.19999694824</ele>
        <time>2020-10-16T12:15:07.000Z</time>
      </trkpt>
      <trkpt lat="48.19346" lon="-2.86337">
        <ele>133.19999694824</ele>
        <time>2020-10-16T12:15:08.000Z</time>
      </trkpt>
      <trkpt lat="48.19346" lon="-2.86337">
        <ele>133.19999694824</ele>
        <time>2020-10-16T12:15:09.000Z</time>
      </trkpt>
      <trkpt lat="48.19346" lon="-2.86337">
        <ele>133</ele>
        <time>2020-10-16T12:15:10.000Z</time>
      </trkpt>
      <trkpt lat="48.19346" lon="-2.86336">
        <ele>133</ele>
        <time>2020-10-16T12:15:11.000Z</time>
      </trkpt>
      <trkpt lat="48.19346" lon="-2.86336">
        <ele>133</ele>
        <time>2020-10-16T12:15:12.000Z</time>
      </trkpt>
      <trkpt lat="48.19345" lon="-2.86336">
        <ele>133</ele>
        <time>2020-10-16T12:15:13.000Z</time>
      </trkpt>
      <trkpt lat="48.19345" lon="-2.86336">
        <ele>133</ele>
        <time>2020-10-16T12:15:14.000Z</time>
      </trkpt>
      <trkpt lat="48.19345" lon="-2.86335">
        <ele>133</ele>
        <time>2020-10-16T12:15:15.000Z</time>
      </trkpt>
      <trkpt lat="48.19345" lon="-2.86335">
        <ele>133</ele>
        <time>2020-10-16T12:15:16.000Z</time>
      </trkpt>
      <trkpt lat="48.19345" lon="-2.86335">
        <ele>133</ele>
        <time>2020-10-16T12:15:17.000Z</time>
      </trkpt>
      <trkpt lat="48.19345" lon="-2.86335">
        <ele>133</ele>
        <time>2020-10-16T12:15:18.000Z</time>
      </trkpt>
      <trkpt lat="48.19345" lon="-2.86335">
        <ele>133</ele>
        <time>2020-10-16T12:15:19.000Z</time>
      </trkpt>
      <trkpt lat="48.19345" lon="-2.86335">
        <ele>133</ele>
        <time>2020-10-16T12:15:20.000Z</time>
      </trkpt>
      <trkpt lat="48.19345" lon="-2.86335">
        <ele>133</ele>
        <time>2020-10-16T12:15:21.000Z</time>
      </trkpt>
      <trkpt lat="48.19345" lon="-2.86335">
        <ele>133</ele>
        <time>2020-10-16T12:15:22.000Z</time>
      </trkpt>
      <trkpt lat="48.19345" lon="-2.86335">
        <ele>133</ele>
        <time>2020-10-16T12:15:23.000Z</time>
      </trkpt>
      <trkpt lat="48.19345" lon="-2.86335">
        <ele>133</ele>
        <time>2020-10-16T12:15:24.000Z</time>
      </trkpt>
      <trkpt lat="48.19345" lon="-2.86335">
        <ele>133</ele>
        <time>2020-10-16T12:15:25.000Z</time>
      </trkpt>
      <trkpt lat="48.19345" lon="-2.86335">
        <ele>133</ele>
        <time>2020-10-16T12:15:26.000Z</time>
      </trkpt>
      <trkpt lat="48.19345" lon="-2.86336">
        <ele>133</ele>
        <time>2020-10-16T12:15:27.000Z</time>
      </trkpt>
      <trkpt lat="48.19345" lon="-2.86336">
        <ele>133</ele>
        <time>2020-10-16T12:15:28.000Z</time>
      </trkpt>
      <trkpt lat="48.19345" lon="-2.86337">
        <ele>133</ele>
        <time>2020-10-16T12:15:29.000Z</time>
      </trkpt>
      <trkpt lat="48.19346" lon="-2.86338">
        <ele>133</ele>
        <time>2020-10-16T12:15:30.000Z</time>
      </trkpt>
      <trkpt lat="48.19346" lon="-2.86338">
        <ele>133</ele>
        <time>2020-10-16T12:15:31.000Z</time>
      </trkpt>
      <trkpt lat="48.19346" lon="-2.86338">
        <ele>133</ele>
        <time>2020-10-16T12:15:32.000Z</time>
      </trkpt>
      <trkpt lat="48.19346" lon="-2.86338">
        <ele>133</ele>
        <time>2020-10-16T12:15:33.000Z</time>
      </trkpt>
      <trkpt lat="48.19346" lon="-2.86338">
        <ele>133</ele>
        <time>2020-10-16T12:15:34.000Z</time>
      </trkpt>
      <trkpt lat="48.19346" lon="-2.86339">
        <ele>133</ele>
        <time>2020-10-16T12:15:35.000Z</time>
      </trkpt>
      <trkpt lat="48.19346" lon="-2.86339">
        <ele>133</ele>
        <time>2020-10-16T12:15:36.000Z</time>
      </trkpt>
      <trkpt lat="48.19346" lon="-2.8634">
        <ele>133</ele>
        <time>2020-10-16T12:15:37.000Z</time>
      </trkpt>
      <trkpt lat="48.19346" lon="-2.8634">
        <ele>133</ele>
        <time>2020-10-16T12:15:38.000Z</time>
      </trkpt>
      <trkpt lat="48.19346" lon="-2.8634">
        <ele>133</ele>
        <time>2020-10-16T12:15:39.000Z</time>
      </trkpt>
      <trkpt lat="48.19346" lon="-2.86341">
        <ele>133</ele>
        <time>2020-10-16T12:15:40.000Z</time>
      </trkpt>
      <trkpt lat="48.19346" lon="-2.86341">
        <ele>133</ele>
        <time>2020-10-16T12:15:41.000Z</time>
      </trkpt>
      <trkpt lat="48.19346" lon="-2.86341">
        <ele>133</ele>
        <time>2020-10-16T12:15:42.000Z</time>
      </trkpt>
      <trkpt lat="48.19346" lon="-2.86341">
        <ele>133</ele>
        <time>2020-10-16T12:15:43.000Z</time>
      </trkpt>
      <trkpt lat="48.19346" lon="-2.86341">
        <ele>133</ele>
        <time>2020-10-16T12:15:44.000Z</time>
      </trkpt>
      <trkpt lat="48.19346" lon="-2.86341">
        <ele>133</ele>
        <time>2020-10-16T12:15:45.000Z</time>
      </trkpt>
      <trkpt lat="48.19346" lon="-2.86341">
        <ele>133</ele>
        <time>2020-10-16T12:15:46.000Z</time>
      </trkpt>
      <trkpt lat="48.19346" lon="-2.86341">
        <ele>133</ele>
        <time>2020-10-16T12:15:47.000Z</time>
      </trkpt>
      <trkpt lat="48.19346" lon="-2.86341">
        <ele>133</ele>
        <time>2020-10-16T12:15:48.000Z</time>
      </trkpt>
      <trkpt lat="48.19346" lon="-2.86341">
        <ele>133</ele>
        <time>2020-10-16T12:15:49.000Z</time>
      </trkpt>
      <trkpt lat="48.19346" lon="-2.86341">
        <ele>133</ele>
        <time>2020-10-16T12:15:50.000Z</time>
      </trkpt>
      <trkpt lat="48.19345" lon="-2.8634">
        <ele>133</ele>
        <time>2020-10-16T12:15:51.000Z</time>
      </trkpt>
      <trkpt lat="48.19346" lon="-2.8634">
        <ele>133</ele>
        <time>2020-10-16T12:15:52.000Z</time>
      </trkpt>
      <trkpt lat="48.19346" lon="-2.8634">
        <ele>133</ele>
        <time>2020-10-16T12:15:53.000Z</time>
      </trkpt>
      <trkpt lat="48.19346" lon="-2.8634">
        <ele>133</ele>
        <time>2020-10-16T12:15:54.000Z</time>
      </trkpt>
      <trkpt lat="48.19346" lon="-2.8634">
        <ele>133</ele>
        <time>2020-10-16T12:15:55.000Z</time>
      </trkpt>
      <trkpt lat="48.19346" lon="-2.8634">
        <ele>133</ele>
        <time>2020-10-16T12:15:56.000Z</time>
      </trkpt>
      <trkpt lat="48.19346" lon="-2.86341">
        <ele>133</ele>
        <time>2020-10-16T12:15:57.000Z</time>
      </trkpt>
      <trkpt lat="48.19345" lon="-2.86341">
        <ele>133</ele>
        <time>2020-10-16T12:15:58.000Z</time>
      </trkpt>
      <trkpt lat="48.19345" lon="-2.86341">
        <ele>133</ele>
        <time>2020-10-16T12:15:59.000Z</time>
      </trkpt>
      <trkpt lat="48.19345" lon="-2.86341">
        <ele>133</ele>
        <time>2020-10-16T12:16:00.000Z</time>
      </trkpt>
      <trkpt lat="48.19345" lon="-2.86341">
        <ele>133</ele>
        <time>2020-10-16T12:16:01.000Z</time>
      </trkpt>
      <trkpt lat="48.19345" lon="-2.86341">
        <ele>133</ele>
        <time>2020-10-16T12:16:02.000Z</time>
      </trkpt>
      <trkpt lat="48.19346" lon="-2.86341">
        <ele>133</ele>
        <time>2020-10-16T12:16:03.000Z</time>
      </trkpt>
      <trkpt lat="48.19346" lon="-2.86341">
        <ele>133</ele>
        <time>2020-10-16T12:16:04.000Z</time>
      </trkpt>
      <trkpt lat="48.19345" lon="-2.86341">
        <ele>133</ele>
        <time>2020-10-16T12:16:05.000Z</time>
      </trkpt>
      <trkpt lat="48.19346" lon="-2.8634">
        <ele>133</ele>
        <time>2020-10-16T12:16:06.000Z</time>
      </trkpt>
      <trkpt lat="48.19346" lon="-2.8634">
        <ele>133</ele>
        <time>2020-10-16T12:16:07.000Z</time>
      </trkpt>
      <trkpt lat="48.19346" lon="-2.8634">
        <ele>133.19999694824</ele>
        <time>2020-10-16T12:16:08.000Z</time>
      </trkpt>
      <trkpt lat="48.19346" lon="-2.8634">
        <ele>133.19999694824</ele>
        <time>2020-10-16T12:16:09.000Z</time>
      </trkpt>
      <trkpt lat="48.19346" lon="-2.8634">
        <ele>133.19999694824</ele>
        <time>2020-10-16T12:16:10.000Z</time>
      </trkpt>
      <trkpt lat="48.19346" lon="-2.8634">
        <ele>133.19999694824</ele>
        <time>2020-10-16T12:16:11.000Z</time>
      </trkpt>
      <trkpt lat="48.19346" lon="-2.8634">
        <ele>133.19999694824</ele>
        <time>2020-10-16T12:16:12.000Z</time>
      </trkpt>
      <trkpt lat="48.19346" lon="-2.8634">
        <ele>133.19999694824</ele>
        <time>2020-10-16T12:16:13.000Z</time>
      </trkpt>
      <trkpt lat="48.19346" lon="-2.8634">
        <ele>133.19999694824</ele>
        <time>2020-10-16T12:16:14.000Z</time>
      </trkpt>
      <trkpt lat="48.19346" lon="-2.86341">
        <ele>133</ele>
        <time>2020-10-16T12:16:15.000Z</time>
      </trkpt>
      <trkpt lat="48.19346" lon="-2.86341">
        <ele>133</ele>
        <time>2020-10-16T12:16:16.000Z</time>
      </trkpt>
      <trkpt lat="48.19346" lon="-2.86341">
        <ele>133.19999694824</ele>
        <time>2020-10-16T12:16:17.000Z</time>
      </trkpt>
      <trkpt lat="48.19346" lon="-2.86341">
        <ele>133</ele>
        <time>2020-10-16T12:16:18.000Z</time>
      </trkpt>
      <trkpt lat="48.19346" lon="-2.86341">
        <ele>133</ele>
        <time>2020-10-16T12:16:19.000Z</time>
      </trkpt>
      <trkpt lat="48.19346" lon="-2.86341">
        <ele>133</ele>
        <time>2020-10-16T12:16:20.000Z</time>
      </trkpt>
      <trkpt lat="48.19346" lon="-2.86341">
        <ele>133</ele>
        <time>2020-10-16T12:16:21.000Z</time>
      </trkpt>
      <trkpt lat="48.19346" lon="-2.86341">
        <ele>133</ele>
        <time>2020-10-16T12:16:22.000Z</time>
      </trkpt>
      <trkpt lat="48.19346" lon="-2.86341">
        <ele>133</ele>
        <time>2020-10-16T12:16:23.000Z</time>
      </trkpt>
      <trkpt lat="48.19346" lon="-2.86342">
        <ele>133</ele>
        <time>2020-10-16T12:16:24.000Z</time>
      </trkpt>
      <trkpt lat="48.19346" lon="-2.86342">
        <ele>133</ele>
        <time>2020-10-16T12:16:25.000Z</time>
      </trkpt>
      <trkpt lat="48.19346" lon="-2.86342">
        <ele>133</ele>
        <time>2020-10-16T12:16:26.000Z</time>
      </trkpt>
      <trkpt lat="48.19346" lon="-2.86342">
        <ele>133</ele>
        <time>2020-10-16T12:16:27.000Z</time>
      </trkpt>
      <trkpt lat="48.19346" lon="-2.86342">
        <ele>133</ele>
        <time>2020-10-16T12:16:28.000Z</time>
      </trkpt>
      <trkpt lat="48.19346" lon="-2.86342">
        <ele>133</ele>
        <time>2020-10-16T12:16:29.000Z</time>
      </trkpt>
      <trkpt lat="48.19346" lon="-2.86342">
        <ele>133</ele>
        <time>2020-10-16T12:16:30.000Z</time>
      </trkpt>
      <trkpt lat="48.19346" lon="-2.86342">
        <ele>133</ele>
        <time>2020-10-16T12:16:31.000Z</time>
      </trkpt>
      <trkpt lat="48.19346" lon="-2.86342">
        <ele>133</ele>
        <time>2020-10-16T12:16:32.000Z</time>
      </trkpt>
      <trkpt lat="48.19346" lon="-2.86341">
        <ele>133</ele>
        <time>2020-10-16T12:16:33.000Z</time>
      </trkpt>
      <trkpt lat="48.19346" lon="-2.86341">
        <ele>133</ele>
        <time>2020-10-16T12:16:34.000Z</time>
      </trkpt>
      <trkpt lat="48.19346" lon="-2.8634">
        <ele>133</ele>
        <time>2020-10-16T12:16:35.000Z</time>
      </trkpt>
      <trkpt lat="48.19346" lon="-2.8634">
        <ele>133</ele>
        <time>2020-10-16T12:16:36.000Z</time>
      </trkpt>
      <trkpt lat="48.19346" lon="-2.8634">
        <ele>133</ele>
        <time>2020-10-16T12:16:37.000Z</time>
      </trkpt>
      <trkpt lat="48.19345" lon="-2.8634">
        <ele>133</ele>
        <time>2020-10-16T12:16:38.000Z</time>
      </trkpt>
      <trkpt lat="48.19345" lon="-2.8634">
        <ele>133</ele>
        <time>2020-10-16T12:16:39.000Z</time>
      </trkpt>
      <trkpt lat="48.19345" lon="-2.8634">
        <ele>133</ele>
        <time>2020-10-16T12:16:40.000Z</time>
      </trkpt>
      <trkpt lat="48.19345" lon="-2.86341">
        <ele>133</ele>
        <time>2020-10-16T12:16:41.000Z</time>
      </trkpt>
      <trkpt lat="48.19345" lon="-2.86341">
        <ele>133</ele>
        <time>2020-10-16T12:16:42.000Z</time>
      </trkpt>
      <trkpt lat="48.19345" lon="-2.86341">
        <ele>133</ele>
        <time>2020-10-16T12:16:43.000Z</time>
      </trkpt>
      <trkpt lat="48.19345" lon="-2.86341">
        <ele>133</ele>
        <time>2020-10-16T12:16:44.000Z</time>
      </trkpt>
      <trkpt lat="48.19345" lon="-2.86341">
        <ele>133</ele>
        <time>2020-10-16T12:16:45.000Z</time>
      </trkpt>
      <trkpt lat="48.19345" lon="-2.86341">
        <ele>133</ele>
        <time>2020-10-16T12:16:46.000Z</time>
      </trkpt>
      <trkpt lat="48.19345" lon="-2.86341">
        <ele>133</ele>
        <time>2020-10-16T12:16:47.000Z</time>
      </trkpt>
      <trkpt lat="48.19345" lon="-2.86341">
        <ele>133</ele>
        <time>2020-10-16T12:16:48.000Z</time>
      </trkpt>
      <trkpt lat="48.19345" lon="-2.86341">
        <ele>133</ele>
        <time>2020-10-16T12:16:49.000Z</time>
      </trkpt>
      <trkpt lat="48.19345" lon="-2.86341">
        <ele>133</ele>
        <time>2020-10-16T12:16:50.000Z</time>
      </trkpt>
      <trkpt lat="48.19345" lon="-2.8634">
        <ele>133</ele>
        <time>2020-10-16T12:16:51.000Z</time>
      </trkpt>
      <trkpt lat="48.19345" lon="-2.86338">
        <ele>133</ele>
        <time>2020-10-16T12:16:52.000Z</time>
      </trkpt>
      <trkpt lat="48.19345" lon="-2.86338">
        <ele>133</ele>
        <time>2020-10-16T12:16:53.000Z</time>
      </trkpt>
      <trkpt lat="48.19344" lon="-2.86337">
        <ele>133</ele>
        <time>2020-10-16T12:16:54.000Z</time>
      </trkpt>
      <trkpt lat="48.19344" lon="-2.86336">
        <ele>132.80000305176</ele>
        <time>2020-10-16T12:16:55.000Z</time>
      </trkpt>
      <trkpt lat="48.19344" lon="-2.86336">
        <ele>132.80000305176</ele>
        <time>2020-10-16T12:16:56.000Z</time>
      </trkpt>
      <trkpt lat="48.19344" lon="-2.86336">
        <ele>132.80000305176</ele>
        <time>2020-10-16T12:16:57.000Z</time>
      </trkpt>
      <trkpt lat="48.19344" lon="-2.86336">
        <ele>132.80000305176</ele>
        <time>2020-10-16T12:16:58.000Z</time>
      </trkpt>
      <trkpt lat="48.19344" lon="-2.86336">
        <ele>132.80000305176</ele>
        <time>2020-10-16T12:16:59.000Z</time>
      </trkpt>
      <trkpt lat="48.19344" lon="-2.86336">
        <ele>132.80000305176</ele>
        <time>2020-10-16T12:17:00.000Z</time>
      </trkpt>
      <trkpt lat="48.19344" lon="-2.86336">
        <ele>132.80000305176</ele>
        <time>2020-10-16T12:17:01.000Z</time>
      </trkpt>
      <trkpt lat="48.19344" lon="-2.86336">
        <ele>133</ele>
        <time>2020-10-16T12:17:02.000Z</time>
      </trkpt>
      <trkpt lat="48.19344" lon="-2.86336">
        <ele>133</ele>
        <time>2020-10-16T12:17:03.000Z</time>
      </trkpt>
      <trkpt lat="48.19344" lon="-2.86336">
        <ele>133</ele>
        <time>2020-10-16T12:17:04.000Z</time>
      </trkpt>
      <trkpt lat="48.19344" lon="-2.86336">
        <ele>133</ele>
        <time>2020-10-16T12:17:05.000Z</time>
      </trkpt>
      <trkpt lat="48.19345" lon="-2.86336">
        <ele>133</ele>
        <time>2020-10-16T12:17:06.000Z</time>
      </trkpt>
      <trkpt lat="48.19345" lon="-2.86336">
        <ele>133</ele>
        <time>2020-10-16T12:17:07.000Z</time>
      </trkpt>
      <trkpt lat="48.19345" lon="-2.86338">
        <ele>133</ele>
        <time>2020-10-16T12:17:08.000Z</time>
      </trkpt>
      <trkpt lat="48.19345" lon="-2.86339">
        <ele>133</ele>
        <time>2020-10-16T12:17:09.000Z</time>
      </trkpt>
      <trkpt lat="48.19345" lon="-2.86341">
        <ele>133</ele>
        <time>2020-10-16T12:17:10.000Z</time>
      </trkpt>
      <trkpt lat="48.19345" lon="-2.86343">
        <ele>133</ele>
        <time>2020-10-16T12:17:11.000Z</time>
      </trkpt>
      <trkpt lat="48.19345" lon="-2.86343">
        <ele>133</ele>
        <time>2020-10-16T12:17:12.000Z</time>
      </trkpt>
      <trkpt lat="48.19346" lon="-2.86344">
        <ele>133</ele>
        <time>2020-10-16T12:17:13.000Z</time>
      </trkpt>
      <trkpt lat="48.19346" lon="-2.86344">
        <ele>133</ele>
        <time>2020-10-16T12:17:14.000Z</time>
      </trkpt>
      <trkpt lat="48.19346" lon="-2.86345">
        <ele>133</ele>
        <time>2020-10-16T12:17:15.000Z</time>
      </trkpt>
      <trkpt lat="48.19346" lon="-2.86346">
        <ele>133</ele>
        <time>2020-10-16T12:17:16.000Z</time>
      </trkpt>
      <trkpt lat="48.19346" lon="-2.86346">
        <ele>133</ele>
        <time>2020-10-16T12:17:17.000Z</time>
      </trkpt>
      <trkpt lat="48.19346" lon="-2.86346">
        <ele>133</ele>
        <time>2020-10-16T12:17:18.000Z</time>
      </trkpt>
      <trkpt lat="48.19346" lon="-2.86346">
        <ele>133</ele>
        <time>2020-10-16T12:17:19.000Z</time>
      </trkpt>
      <trkpt lat="48.19346" lon="-2.86347">
        <ele>133</ele>
        <time>2020-10-16T12:17:20.000Z</time>
      </trkpt>
      <trkpt lat="48.19346" lon="-2.86347">
        <ele>133</ele>
        <time>2020-10-16T12:17:21.000Z</time>
      </trkpt>
      <trkpt lat="48.19346" lon="-2.86347">
        <ele>133</ele>
        <time>2020-10-16T12:17:22.000Z</time>
      </trkpt>
      <trkpt lat="48.19346" lon="-2.86347">
        <ele>133</ele>
        <time>2020-10-16T12:17:23.000Z</time>
      </trkpt>
      <trkpt lat="48.19346" lon="-2.86347">
        <ele>133</ele>
        <time>2020-10-16T12:17:24.000Z</time>
      </trkpt>
      <trkpt lat="48.19346" lon="-2.86347">
        <ele>133</ele>
        <time>2020-10-16T12:17:25.000Z</time>
      </trkpt>
      <trkpt lat="48.19346" lon="-2.86348">
        <ele>133</ele>
        <time>2020-10-16T12:17:26.000Z</time>
      </trkpt>
      <trkpt lat="48.19346" lon="-2.86348">
        <ele>133</ele>
        <time>2020-10-16T12:17:27.000Z</time>
      </trkpt>
      <trkpt lat="48.19346" lon="-2.86348">
        <ele>133</ele>
        <time>2020-10-16T12:17:28.000Z</time>
      </trkpt>
      <trkpt lat="48.19346" lon="-2.86348">
        <ele>133</ele>
        <time>2020-10-16T12:17:29.000Z</time>
      </trkpt>
      <trkpt lat="48.19346" lon="-2.86348">
        <ele>133</ele>
        <time>2020-10-16T12:17:30.000Z</time>
      </trkpt>
      <trkpt lat="48.19346" lon="-2.86347">
        <ele>133</ele>
        <time>2020-10-16T12:17:31.000Z</time>
      </trkpt>
      <trkpt lat="48.19346" lon="-2.86348">
        <ele>133</ele>
        <time>2020-10-16T12:17:32.000Z</time>
      </trkpt>
      <trkpt lat="48.19347" lon="-2.86348">
        <ele>133</ele>
        <time>2020-10-16T12:17:33.000Z</time>
      </trkpt>
      <trkpt lat="48.19347" lon="-2.86348">
        <ele>133</ele>
        <time>2020-10-16T12:17:34.000Z</time>
      </trkpt>
      <trkpt lat="48.19347" lon="-2.86348">
        <ele>133</ele>
        <time>2020-10-16T12:17:35.000Z</time>
      </trkpt>
      <trkpt lat="48.19347" lon="-2.86348">
        <ele>133</ele>
        <time>2020-10-16T12:17:36.000Z</time>
      </trkpt>
      <trkpt lat="48.19347" lon="-2.86348">
        <ele>133</ele>
        <time>2020-10-16T12:17:37.000Z</time>
      </trkpt>
      <trkpt lat="48.19347" lon="-2.86347">
        <ele>133</ele>
        <time>2020-10-16T12:17:38.000Z</time>
      </trkpt>
      <trkpt lat="48.19347" lon="-2.86347">
        <ele>133</ele>
        <time>2020-10-16T12:17:39.000Z</time>
      </trkpt>
      <trkpt lat="48.19347" lon="-2.86346">
        <ele>133</ele>
        <time>2020-10-16T12:17:40.000Z</time>
      </trkpt>
      <trkpt lat="48.19347" lon="-2.86346">
        <ele>133</ele>
        <time>2020-10-16T12:17:41.000Z</time>
      </trkpt>
      <trkpt lat="48.19346" lon="-2.86345">
        <ele>133</ele>
        <time>2020-10-16T12:17:42.000Z</time>
      </trkpt>
      <trkpt lat="48.19346" lon="-2.86344">
        <ele>133</ele>
        <time>2020-10-16T12:17:43.000Z</time>
      </trkpt>
      <trkpt lat="48.19346" lon="-2.86344">
        <ele>133</ele>
        <time>2020-10-16T12:17:44.000Z</time>
      </trkpt>
      <trkpt lat="48.19346" lon="-2.86343">
        <ele>133</ele>
        <time>2020-10-16T12:17:45.000Z</time>
      </trkpt>
      <trkpt lat="48.19346" lon="-2.86342">
        <ele>133</ele>
        <time>2020-10-16T12:17:46.000Z</time>
      </trkpt>
      <trkpt lat="48.19346" lon="-2.8634">
        <ele>133.19999694824</ele>
        <time>2020-10-16T12:17:47.000Z</time>
      </trkpt>
      <trkpt lat="48.19346" lon="-2.86339">
        <ele>133.19999694824</ele>
        <time>2020-10-16T12:17:48.000Z</time>
      </trkpt>
      <trkpt lat="48.19346" lon="-2.86338">
        <ele>133.19999694824</ele>
        <time>2020-10-16T12:17:49.000Z</time>
      </trkpt>
      <trkpt lat="48.19346" lon="-2.86337">
        <ele>133</ele>
        <time>2020-10-16T12:17:50.000Z</time>
      </trkpt>
      <trkpt lat="48.19345" lon="-2.86337">
        <ele>133</ele>
        <time>2020-10-16T12:17:51.000Z</time>
      </trkpt>
      <trkpt lat="48.19345" lon="-2.86337">
        <ele>133</ele>
        <time>2020-10-16T12:17:52.000Z</time>
      </trkpt>
      <trkpt lat="48.19345" lon="-2.86337">
        <ele>133</ele>
        <time>2020-10-16T12:17:53.000Z</time>
      </trkpt>
      <trkpt lat="48.19345" lon="-2.86337">
        <ele>133</ele>
        <time>2020-10-16T12:17:54.000Z</time>
      </trkpt>
      <trkpt lat="48.19345" lon="-2.86337">
        <ele>133</ele>
        <time>2020-10-16T12:17:55.000Z</time>
      </trkpt>
      <trkpt lat="48.19345" lon="-2.86337">
        <ele>133</ele>
        <time>2020-10-16T12:17:56.000Z</time>
      </trkpt>
      <trkpt lat="48.19345" lon="-2.86337">
        <ele>133</ele>
        <time>2020-10-16T12:17:57.000Z</time>
      </trkpt>
      <trkpt lat="48.19345" lon="-2.86337">
        <ele>133</ele>
        <time>2020-10-16T12:17:58.000Z</time>
      </trkpt>
      <trkpt lat="48.19346" lon="-2.86337">
        <ele>133</ele>
        <time>2020-10-16T12:17:59.000Z</time>
      </trkpt>
      <trkpt lat="48.19345" lon="-2.86337">
        <ele>133</ele>
        <time>2020-10-16T12:18:00.000Z</time>
      </trkpt>
      <trkpt lat="48.19346" lon="-2.86337">
        <ele>133</ele>
        <time>2020-10-16T12:18:01.000Z</time>
      </trkpt>
      <trkpt lat="48.19347" lon="-2.86338">
        <ele>133.19999694824</ele>
        <time>2020-10-16T12:18:02.000Z</time>
      </trkpt>
      <trkpt lat="48.19347" lon="-2.86338">
        <ele>133.19999694824</ele>
        <time>2020-10-16T12:18:03.000Z</time>
      </trkpt>
      <trkpt lat="48.19347" lon="-2.86338">
        <ele>133.19999694824</ele>
        <time>2020-10-16T12:18:04.000Z</time>
      </trkpt>
      <trkpt lat="48.19347" lon="-2.86339">
        <ele>133.19999694824</ele>
        <time>2020-10-16T12:18:05.000Z</time>
      </trkpt>
      <trkpt lat="48.19347" lon="-2.86339">
        <ele>133.19999694824</ele>
        <time>2020-10-16T12:18:06.000Z</time>
      </trkpt>
      <trkpt lat="48.19347" lon="-2.8634">
        <ele>133.19999694824</ele>
        <time>2020-10-16T12:18:07.000Z</time>
      </trkpt>
      <trkpt lat="48.19347" lon="-2.8634">
        <ele>133.19999694824</ele>
        <time>2020-10-16T12:18:08.000Z</time>
      </trkpt>
      <trkpt lat="48.19347" lon="-2.8634">
        <ele>133.19999694824</ele>
        <time>2020-10-16T12:18:09.000Z</time>
      </trkpt>
      <trkpt lat="48.19347" lon="-2.8634">
        <ele>133.19999694824</ele>
        <time>2020-10-16T12:18:10.000Z</time>
      </trkpt>
      <trkpt lat="48.19347" lon="-2.8634">
        <ele>133.19999694824</ele>
        <time>2020-10-16T12:18:11.000Z</time>
      </trkpt>
      <trkpt lat="48.19348" lon="-2.86341">
        <ele>133.19999694824</ele>
        <time>2020-10-16T12:18:12.000Z</time>
      </trkpt>
      <trkpt lat="48.19348" lon="-2.86341">
        <ele>133.19999694824</ele>
        <time>2020-10-16T12:18:13.000Z</time>
      </trkpt>
      <trkpt lat="48.19348" lon="-2.86341">
        <ele>133.39999389648</ele>
        <time>2020-10-16T12:18:14.000Z</time>
      </trkpt>
      <trkpt lat="48.19348" lon="-2.86341">
        <ele>133.39999389648</ele>
        <time>2020-10-16T12:18:15.000Z</time>
      </trkpt>
      <trkpt lat="48.19348" lon="-2.86342">
        <ele>133.39999389648</ele>
        <time>2020-10-16T12:18:16.000Z</time>
      </trkpt>
      <trkpt lat="48.19348" lon="-2.86342">
        <ele>133.39999389648</ele>
        <time>2020-10-16T12:18:17.000Z</time>
      </trkpt>
      <trkpt lat="48.19348" lon="-2.86341">
        <ele>133.19999694824</ele>
        <time>2020-10-16T12:18:18.000Z</time>
      </trkpt>
      <trkpt lat="48.19348" lon="-2.86342">
        <ele>133.19999694824</ele>
        <time>2020-10-16T12:18:19.000Z</time>
      </trkpt>
      <trkpt lat="48.19348" lon="-2.86342">
        <ele>133.19999694824</ele>
        <time>2020-10-16T12:18:20.000Z</time>
      </trkpt>
      <trkpt lat="48.19348" lon="-2.86342">
        <ele>133.19999694824</ele>
        <time>2020-10-16T12:18:21.000Z</time>
      </trkpt>
      <trkpt lat="48.19347" lon="-2.86342">
        <ele>133.19999694824</ele>
        <time>2020-10-16T12:18:22.000Z</time>
      </trkpt>
      <trkpt lat="48.19347" lon="-2.86342">
        <ele>133.19999694824</ele>
        <time>2020-10-16T12:18:23.000Z</time>
      </trkpt>
      <trkpt lat="48.19347" lon="-2.86342">
        <ele>133.19999694824</ele>
        <time>2020-10-16T12:18:24.000Z</time>
      </trkpt>
      <trkpt lat="48.19347" lon="-2.86343">
        <ele>133.19999694824</ele>
        <time>2020-10-16T12:18:25.000Z</time>
      </trkpt>
      <trkpt lat="48.19347" lon="-2.86343">
        <ele>133.19999694824</ele>
        <time>2020-10-16T12:18:26.000Z</time>
      </trkpt>
      <trkpt lat="48.19347" lon="-2.86344">
        <ele>133.19999694824</ele>
        <time>2020-10-16T12:18:27.000Z</time>
      </trkpt>
      <trkpt lat="48.19347" lon="-2.86344">
        <ele>133.19999694824</ele>
        <time>2020-10-16T12:18:28.000Z</time>
      </trkpt>
      <trkpt lat="48.19347" lon="-2.86344">
        <ele>133.19999694824</ele>
        <time>2020-10-16T12:18:29.000Z</time>
      </trkpt>
      <trkpt lat="48.19347" lon="-2.86344">
        <ele>133</ele>
        <time>2020-10-16T12:18:30.000Z</time>
      </trkpt>
      <trkpt lat="48.19347" lon="-2.86344">
        <ele>133</ele>
        <time>2020-10-16T12:18:31.000Z</time>
      </trkpt>
      <trkpt lat="48.19347" lon="-2.86344">
        <ele>133.19999694824</ele>
        <time>2020-10-16T12:18:32.000Z</time>
      </trkpt>
      <trkpt lat="48.19347" lon="-2.86344">
        <ele>133.19999694824</ele>
        <time>2020-10-16T12:18:33.000Z</time>
      </trkpt>
      <trkpt lat="48.19347" lon="-2.86344">
        <ele>133.19999694824</ele>
        <time>2020-10-16T12:18:34.000Z</time>
      </trkpt>
      <trkpt lat="48.19347" lon="-2.86343">
        <ele>133.19999694824</ele>
        <time>2020-10-16T12:18:35.000Z</time>
      </trkpt>
      <trkpt lat="48.19347" lon="-2.86343">
        <ele>133.19999694824</ele>
        <time>2020-10-16T12:18:36.000Z</time>
      </trkpt>
      <trkpt lat="48.19347" lon="-2.86343">
        <ele>133.19999694824</ele>
        <time>2020-10-16T12:18:37.000Z</time>
      </trkpt>
      <trkpt lat="48.19347" lon="-2.86343">
        <ele>133.19999694824</ele>
        <time>2020-10-16T12:18:38.000Z</time>
      </trkpt>
      <trkpt lat="48.19347" lon="-2.86343">
        <ele>133.19999694824</ele>
        <time>2020-10-16T12:18:39.000Z</time>
      </trkpt>
      <trkpt lat="48.19347" lon="-2.86344">
        <ele>133.19999694824</ele>
        <time>2020-10-16T12:18:40.000Z</time>
      </trkpt>
      <trkpt lat="48.19347" lon="-2.86344">
        <ele>133.19999694824</ele>
        <time>2020-10-16T12:18:41.000Z</time>
      </trkpt>
      <trkpt lat="48.19347" lon="-2.86345">
        <ele>133.19999694824</ele>
        <time>2020-10-16T12:18:42.000Z</time>
      </trkpt>
      <trkpt lat="48.19348" lon="-2.86347">
        <ele>133.19999694824</ele>
        <time>2020-10-16T12:18:43.000Z</time>
      </trkpt>
      <trkpt lat="48.19349" lon="-2.86348">
        <ele>133.39999389648</ele>
        <time>2020-10-16T12:18:44.000Z</time>
      </trkpt>
      <trkpt lat="48.19351" lon="-2.86349">
        <ele>133.39999389648</ele>
        <time>2020-10-16T12:18:45.000Z</time>
      </trkpt>
      <trkpt lat="48.19353" lon="-2.8635">
        <ele>133.60000610352</ele>
        <time>2020-10-16T12:18:46.000Z</time>
      </trkpt>
      <trkpt lat="48.19355" lon="-2.86351">
        <ele>133.80000305176</ele>
        <time>2020-10-16T12:18:47.000Z</time>
      </trkpt>
      <trkpt lat="48.19359" lon="-2.86358">
        <ele>134.19999694824</ele>
        <time>2020-10-16T12:18:48.000Z</time>
      </trkpt>
      <trkpt lat="48.19359" lon="-2.86358">
        <ele>134.19999694824</ele>
        <time>2020-10-16T12:18:49.000Z</time>
      </trkpt>
      <trkpt lat="48.1936" lon="-2.86362">
        <ele>134.19999694824</ele>
        <time>2020-10-16T12:18:50.000Z</time>
      </trkpt>
      <trkpt lat="48.19361" lon="-2.86367">
        <ele>134.19999694824</ele>
        <time>2020-10-16T12:18:51.000Z</time>
      </trkpt>
      <trkpt lat="48.19361" lon="-2.86372">
        <ele>134.19999694824</ele>
        <time>2020-10-16T12:18:52.000Z</time>
      </trkpt>
      <trkpt lat="48.19362" lon="-2.86377">
        <ele>134.19999694824</ele>
        <time>2020-10-16T12:18:53.000Z</time>
      </trkpt>
      <trkpt lat="48.19363" lon="-2.86382">
        <ele>134.19999694824</ele>
        <time>2020-10-16T12:18:54.000Z</time>
      </trkpt>
      <trkpt lat="48.19364" lon="-2.86387">
        <ele>134.19999694824</ele>
        <time>2020-10-16T12:18:55.000Z</time>
      </trkpt>
      <trkpt lat="48.19365" lon="-2.86392">
        <ele>134.19999694824</ele>
        <time>2020-10-16T12:18:56.000Z</time>
      </trkpt>
      <trkpt lat="48.19366" lon="-2.86396">
        <ele>134.19999694824</ele>
        <time>2020-10-16T12:18:57.000Z</time>
      </trkpt>
      <trkpt lat="48.19367" lon="-2.864">
        <ele>134.19999694824</ele>
        <time>2020-10-16T12:18:58.000Z</time>
      </trkpt>
      <trkpt lat="48.19369" lon="-2.86404">
        <ele>134.39999389648</ele>
        <time>2020-10-16T12:18:59.000Z</time>
      </trkpt>
      <trkpt lat="48.19371" lon="-2.86408">
        <ele>134.60000610352</ele>
        <time>2020-10-16T12:19:00.000Z</time>
      </trkpt>
      <trkpt lat="48.19373" lon="-2.86411">
        <ele>134.80000305176</ele>
        <time>2020-10-16T12:19:01.000Z</time>
      </trkpt>
      <trkpt lat="48.19375" lon="-2.86413">
        <ele>135</ele>
        <time>2020-10-16T12:19:02.000Z</time>
      </trkpt>
      <trkpt lat="48.19376" lon="-2.86416">
        <ele>135.19999694824</ele>
        <time>2020-10-16T12:19:03.000Z</time>
      </trkpt>
      <trkpt lat="48.19379" lon="-2.86418">
        <ele>135.60000610352</ele>
        <time>2020-10-16T12:19:04.000Z</time>
      </trkpt>
      <trkpt lat="48.19381" lon="-2.8642">
        <ele>135.80000305176</ele>
        <time>2020-10-16T12:19:05.000Z</time>
      </trkpt>
      <trkpt lat="48.19385" lon="-2.86425">
        <ele>136.19999694824</ele>
        <time>2020-10-16T12:19:06.000Z</time>
      </trkpt>
      <trkpt lat="48.19385" lon="-2.86425">
        <ele>136.19999694824</ele>
        <time>2020-10-16T12:19:07.000Z</time>
      </trkpt>
      <trkpt lat="48.19387" lon="-2.86427">
        <ele>136.39999389648</ele>
        <time>2020-10-16T12:19:08.000Z</time>
      </trkpt>
      <trkpt lat="48.19388" lon="-2.86429">
        <ele>136.60000610352</ele>
        <time>2020-10-16T12:19:09.000Z</time>
      </trkpt>
      <trkpt lat="48.1939" lon="-2.86432">
        <ele>136.80000305176</ele>
        <time>2020-10-16T12:19:10.000Z</time>
      </trkpt>
      <trkpt lat="48.19392" lon="-2.86434">
        <ele>137.19999694824</ele>
        <time>2020-10-16T12:19:11.000Z</time>
      </trkpt>
      <trkpt lat="48.19395" lon="-2.86436">
        <ele>137.39999389648</ele>
        <time>2020-10-16T12:19:12.000Z</time>
      </trkpt>
      <trkpt lat="48.19397" lon="-2.86439">
        <ele>137.60000610352</ele>
        <time>2020-10-16T12:19:13.000Z</time>
      </trkpt>
      <trkpt lat="48.19398" lon="-2.86441">
        <ele>137.80000305176</ele>
        <time>2020-10-16T12:19:14.000Z</time>
      </trkpt>
      <trkpt lat="48.194" lon="-2.86443">
        <ele>138</ele>
        <time>2020-10-16T12:19:15.000Z</time>
      </trkpt>
      <trkpt lat="48.19402" lon="-2.86446">
        <ele>138.39999389648</ele>
        <time>2020-10-16T12:19:16.000Z</time>
      </trkpt>
      <trkpt lat="48.19404" lon="-2.86448">
        <ele>138.60000610352</ele>
        <time>2020-10-16T12:19:17.000Z</time>
      </trkpt>
      <trkpt lat="48.19406" lon="-2.8645">
        <ele>138.80000305176</ele>
        <time>2020-10-16T12:19:18.000Z</time>
      </trkpt>
      <trkpt lat="48.19408" lon="-2.86452">
        <ele>139</ele>
        <time>2020-10-16T12:19:19.000Z</time>
      </trkpt>
      <trkpt lat="48.19411" lon="-2.86454">
        <ele>139.19999694824</ele>
        <time>2020-10-16T12:19:20.000Z</time>
      </trkpt>
      <trkpt lat="48.19413" lon="-2.86457">
        <ele>139.39999389648</ele>
        <time>2020-10-16T12:19:21.000Z</time>
      </trkpt>
      <trkpt lat="48.19414" lon="-2.86459">
        <ele>139.39999389648</ele>
        <time>2020-10-16T12:19:22.000Z</time>
      </trkpt>
      <trkpt lat="48.19416" lon="-2.86462">
        <ele>139.60000610352</ele>
        <time>2020-10-16T12:19:23.000Z</time>
      </trkpt>
      <trkpt lat="48.19418" lon="-2.86464">
        <ele>139.80000305176</ele>
        <time>2020-10-16T12:19:24.000Z</time>
      </trkpt>
      <trkpt lat="48.1942" lon="-2.86467">
        <ele>140</ele>
        <time>2020-10-16T12:19:25.000Z</time>
      </trkpt>
      <trkpt lat="48.19422" lon="-2.8647">
        <ele>140.19999694824</ele>
        <time>2020-10-16T12:19:26.000Z</time>
      </trkpt>
      <trkpt lat="48.19427" lon="-2.86475">
        <ele>140.60000610352</ele>
        <time>2020-10-16T12:19:27.000Z</time>
      </trkpt>
      <trkpt lat="48.19427" lon="-2.86475">
        <ele>140.60000610352</ele>
        <time>2020-10-16T12:19:28.000Z</time>
      </trkpt>
      <trkpt lat="48.19429" lon="-2.86478">
        <ele>140.80000305176</ele>
        <time>2020-10-16T12:19:29.000Z</time>
      </trkpt>
      <trkpt lat="48.19431" lon="-2.86481">
        <ele>140.80000305176</ele>
        <time>2020-10-16T12:19:30.000Z</time>
      </trkpt>
      <trkpt lat="48.19434" lon="-2.86484">
        <ele>140.80000305176</ele>
        <time>2020-10-16T12:19:31.000Z</time>
      </trkpt>
      <trkpt lat="48.19436" lon="-2.86486">
        <ele>141</ele>
        <time>2020-10-16T12:19:32.000Z</time>
      </trkpt>
      <trkpt lat="48.19438" lon="-2.86489">
        <ele>141</ele>
        <time>2020-10-16T12:19:33.000Z</time>
      </trkpt>
      <trkpt lat="48.19441" lon="-2.86492">
        <ele>141</ele>
        <time>2020-10-16T12:19:34.000Z</time>
      </trkpt>
      <trkpt lat="48.19443" lon="-2.86495">
        <ele>141.19999694824</ele>
        <time>2020-10-16T12:19:35.000Z</time>
      </trkpt>
      <trkpt lat="48.19445" lon="-2.86497">
        <ele>141.19999694824</ele>
        <time>2020-10-16T12:19:36.000Z</time>
      </trkpt>
      <trkpt lat="48.19447" lon="-2.865">
        <ele>141.19999694824</ele>
        <time>2020-10-16T12:19:37.000Z</time>
      </trkpt>
      <trkpt lat="48.19449" lon="-2.86503">
        <ele>141.39999389648</ele>
        <time>2020-10-16T12:19:38.000Z</time>
      </trkpt>
      <trkpt lat="48.19451" lon="-2.86506">
        <ele>141.39999389648</ele>
        <time>2020-10-16T12:19:39.000Z</time>
      </trkpt>
      <trkpt lat="48.19453" lon="-2.86509">
        <ele>141.60000610352</ele>
        <time>2020-10-16T12:19:40.000Z</time>
      </trkpt>
      <trkpt lat="48.19456" lon="-2.86513">
        <ele>141.60000610352</ele>
        <time>2020-10-16T12:19:41.000Z</time>
      </trkpt>
      <trkpt lat="48.19458" lon="-2.86517">
        <ele>141.80000305176</ele>
        <time>2020-10-16T12:19:42.000Z</time>
      </trkpt>
      <trkpt lat="48.1946" lon="-2.86521">
        <ele>142</ele>
        <time>2020-10-16T12:19:43.000Z</time>
      </trkpt>
      <trkpt lat="48.19463" lon="-2.86525">
        <ele>142</ele>
        <time>2020-10-16T12:19:44.000Z</time>
      </trkpt>
      <trkpt lat="48.19465" lon="-2.86528">
        <ele>142.19999694824</ele>
        <time>2020-10-16T12:19:45.000Z</time>
      </trkpt>
      <trkpt lat="48.19467" lon="-2.86532">
        <ele>142.39999389648</ele>
        <time>2020-10-16T12:19:46.000Z</time>
      </trkpt>
      <trkpt lat="48.1947" lon="-2.8654">
        <ele>142.60000610352</ele>
        <time>2020-10-16T12:19:47.000Z</time>
      </trkpt>
      <trkpt lat="48.1947" lon="-2.8654">
        <ele>142.60000610352</ele>
        <time>2020-10-16T12:19:48.000Z</time>
      </trkpt>
      <trkpt lat="48.19473" lon="-2.86543">
        <ele>142.60000610352</ele>
        <time>2020-10-16T12:19:49.000Z</time>
      </trkpt>
      <trkpt lat="48.19475" lon="-2.86544">
        <ele>142.80000305176</ele>
        <time>2020-10-16T12:19:50.000Z</time>
      </trkpt>
      <trkpt lat="48.19477" lon="-2.86543">
        <ele>143</ele>
        <time>2020-10-16T12:19:51.000Z</time>
      </trkpt>
      <trkpt lat="48.19479" lon="-2.8654">
        <ele>143</ele>
        <time>2020-10-16T12:19:52.000Z</time>
      </trkpt>
      <trkpt lat="48.1948" lon="-2.86537">
        <ele>143.19999694824</ele>
        <time>2020-10-16T12:19:53.000Z</time>
      </trkpt>
      <trkpt lat="48.19482" lon="-2.86533">
        <ele>143.19999694824</ele>
        <time>2020-10-16T12:19:54.000Z</time>
      </trkpt>
      <trkpt lat="48.19482" lon="-2.86528">
        <ele>143.19999694824</ele>
        <time>2020-10-16T12:19:55.000Z</time>
      </trkpt>
      <trkpt lat="48.19482" lon="-2.86523">
        <ele>143.19999694824</ele>
        <time>2020-10-16T12:19:56.000Z</time>
      </trkpt>
      <trkpt lat="48.19481" lon="-2.86517">
        <ele>143.19999694824</ele>
        <time>2020-10-16T12:19:57.000Z</time>
      </trkpt>
      <trkpt lat="48.19479" lon="-2.86511">
        <ele>143</ele>
        <time>2020-10-16T12:19:58.000Z</time>
      </trkpt>
      <trkpt lat="48.19477" lon="-2.86505">
        <ele>143</ele>
        <time>2020-10-16T12:19:59.000Z</time>
      </trkpt>
      <trkpt lat="48.19472" lon="-2.86495">
        <ele>142.80000305176</ele>
        <time>2020-10-16T12:20:00.000Z</time>
      </trkpt>
      <trkpt lat="48.19472" lon="-2.86495">
        <ele>142.80000305176</ele>
        <time>2020-10-16T12:20:01.000Z</time>
      </trkpt>
      <trkpt lat="48.19467" lon="-2.86486">
        <ele>142.80000305176</ele>
        <time>2020-10-16T12:20:02.000Z</time>
      </trkpt>
      <trkpt lat="48.19466" lon="-2.86481">
        <ele>142.80000305176</ele>
        <time>2020-10-16T12:20:03.000Z</time>
      </trkpt>
      <trkpt lat="48.19466" lon="-2.86481">
        <ele>142.80000305176</ele>
        <time>2020-10-16T12:20:04.000Z</time>
      </trkpt>
      <trkpt lat="48.19464" lon="-2.86476">
        <ele>142.80000305176</ele>
        <time>2020-10-16T12:20:05.000Z</time>
      </trkpt>
      <trkpt lat="48.19461" lon="-2.86466">
        <ele>143</ele>
        <time>2020-10-16T12:20:06.000Z</time>
      </trkpt>
      <trkpt lat="48.19461" lon="-2.86466">
        <ele>143</ele>
        <time>2020-10-16T12:20:07.000Z</time>
      </trkpt>
      <trkpt lat="48.19461" lon="-2.86461">
        <ele>143</ele>
        <time>2020-10-16T12:20:08.000Z</time>
      </trkpt>
      <trkpt lat="48.19461" lon="-2.86455">
        <ele>143.19999694824</ele>
        <time>2020-10-16T12:20:09.000Z</time>
      </trkpt>
      <trkpt lat="48.1946" lon="-2.86449">
        <ele>143.19999694824</ele>
        <time>2020-10-16T12:20:10.000Z</time>
      </trkpt>
      <trkpt lat="48.19459" lon="-2.86444">
        <ele>143.39999389648</ele>
        <time>2020-10-16T12:20:11.000Z</time>
      </trkpt>
      <trkpt lat="48.19458" lon="-2.86439">
        <ele>143.39999389648</ele>
        <time>2020-10-16T12:20:12.000Z</time>
      </trkpt>
      <trkpt lat="48.19457" lon="-2.86434">
        <ele>143.39999389648</ele>
        <time>2020-10-16T12:20:13.000Z</time>
      </trkpt>
      <trkpt lat="48.19455" lon="-2.8643">
        <ele>143.39999389648</ele>
        <time>2020-10-16T12:20:14.000Z</time>
      </trkpt>
      <trkpt lat="48.19453" lon="-2.86427">
        <ele>143.39999389648</ele>
        <time>2020-10-16T12:20:15.000Z</time>
      </trkpt>
      <trkpt lat="48.1945" lon="-2.86424">
        <ele>143.39999389648</ele>
        <time>2020-10-16T12:20:16.000Z</time>
      </trkpt>
      <trkpt lat="48.19447" lon="-2.86421">
        <ele>143.19999694824</ele>
        <time>2020-10-16T12:20:17.000Z</time>
      </trkpt>
      <trkpt lat="48.19444" lon="-2.86418">
        <ele>143</ele>
        <time>2020-10-16T12:20:18.000Z</time>
      </trkpt>
      <trkpt lat="48.19441" lon="-2.86415">
        <ele>142.80000305176</ele>
        <time>2020-10-16T12:20:19.000Z</time>
      </trkpt>
      <trkpt lat="48.19437" lon="-2.86412">
        <ele>142.60000610352</ele>
        <time>2020-10-16T12:20:20.000Z</time>
      </trkpt>
      <trkpt lat="48.19434" lon="-2.8641">
        <ele>142.39999389648</ele>
        <time>2020-10-16T12:20:21.000Z</time>
      </trkpt>
      <trkpt lat="48.1943" lon="-2.86406">
        <ele>142.19999694824</ele>
        <time>2020-10-16T12:20:22.000Z</time>
      </trkpt>
      <trkpt lat="48.19428" lon="-2.86402">
        <ele>142.19999694824</ele>
        <time>2020-10-16T12:20:23.000Z</time>
      </trkpt>
      <trkpt lat="48.19425" lon="-2.86398">
        <ele>142</ele>
        <time>2020-10-16T12:20:24.000Z</time>
      </trkpt>
      <trkpt lat="48.19423" lon="-2.86393">
        <ele>141.80000305176</ele>
        <time>2020-10-16T12:20:25.000Z</time>
      </trkpt>
      <trkpt lat="48.19422" lon="-2.86382">
        <ele>141.60000610352</ele>
        <time>2020-10-16T12:20:26.000Z</time>
      </trkpt>
      <trkpt lat="48.19422" lon="-2.86382">
        <ele>141.60000610352</ele>
        <time>2020-10-16T12:20:27.000Z</time>
      </trkpt>
      <trkpt lat="48.19422" lon="-2.86377">
        <ele>141.80000305176</ele>
        <time>2020-10-16T12:20:28.000Z</time>
      </trkpt>
      <trkpt lat="48.19423" lon="-2.86371">
        <ele>141.80000305176</ele>
        <time>2020-10-16T12:20:29.000Z</time>
      </trkpt>
      <trkpt lat="48.19423" lon="-2.86365">
        <ele>142</ele>
        <time>2020-10-16T12:20:30.000Z</time>
      </trkpt>
      <trkpt lat="48.19424" lon="-2.86358">
        <ele>142.19999694824</ele>
        <time>2020-10-16T12:20:31.000Z</time>
      </trkpt>
      <trkpt lat="48.19424" lon="-2.86352">
        <ele>142.19999694824</ele>
        <time>2020-10-16T12:20:32.000Z</time>
      </trkpt>
      <trkpt lat="48.19425" lon="-2.86344">
        <ele>142.39999389648</ele>
        <time>2020-10-16T12:20:33.000Z</time>
      </trkpt>
      <trkpt lat="48.19425" lon="-2.86338">
        <ele>142.60000610352</ele>
        <time>2020-10-16T12:20:34.000Z</time>
      </trkpt>
      <trkpt lat="48.19427" lon="-2.86331">
        <ele>142.60000610352</ele>
        <time>2020-10-16T12:20:35.000Z</time>
      </trkpt>
      <trkpt lat="48.19429" lon="-2.86325">
        <ele>142.60000610352</ele>
        <time>2020-10-16T12:20:36.000Z</time>
      </trkpt>
      <trkpt lat="48.19432" lon="-2.86319">
        <ele>142.60000610352</ele>
        <time>2020-10-16T12:20:37.000Z</time>
      </trkpt>
      <trkpt lat="48.19435" lon="-2.86314">
        <ele>142.60000610352</ele>
        <time>2020-10-16T12:20:38.000Z</time>
      </trkpt>
      <trkpt lat="48.19437" lon="-2.8631">
        <ele>142.80000305176</ele>
        <time>2020-10-16T12:20:39.000Z</time>
      </trkpt>
      <trkpt lat="48.1944" lon="-2.86306">
        <ele>142.80000305176</ele>
        <time>2020-10-16T12:20:40.000Z</time>
      </trkpt>
      <trkpt lat="48.19443" lon="-2.86302">
        <ele>142.80000305176</ele>
        <time>2020-10-16T12:20:41.000Z</time>
      </trkpt>
      <trkpt lat="48.19445" lon="-2.86297">
        <ele>142.80000305176</ele>
        <time>2020-10-16T12:20:42.000Z</time>
      </trkpt>
      <trkpt lat="48.19448" lon="-2.86293">
        <ele>142.80000305176</ele>
        <time>2020-10-16T12:20:43.000Z</time>
      </trkpt>
      <trkpt lat="48.1945" lon="-2.8629">
        <ele>142.80000305176</ele>
        <time>2020-10-16T12:20:44.000Z</time>
      </trkpt>
      <trkpt lat="48.19452" lon="-2.86285">
        <ele>142.80000305176</ele>
        <time>2020-10-16T12:20:45.000Z</time>
      </trkpt>
      <trkpt lat="48.19457" lon="-2.86276">
        <ele>142.80000305176</ele>
        <time>2020-10-16T12:20:46.000Z</time>
      </trkpt>
      <trkpt lat="48.19457" lon="-2.86276">
        <ele>142.80000305176</ele>
        <time>2020-10-16T12:20:47.000Z</time>
      </trkpt>
      <trkpt lat="48.1946" lon="-2.86271">
        <ele>142.80000305176</ele>
        <time>2020-10-16T12:20:48.000Z</time>
      </trkpt>
      <trkpt lat="48.19463" lon="-2.86266">
        <ele>142.80000305176</ele>
        <time>2020-10-16T12:20:49.000Z</time>
      </trkpt>
      <trkpt lat="48.19465" lon="-2.86261">
        <ele>143</ele>
        <time>2020-10-16T12:20:50.000Z</time>
      </trkpt>
      <trkpt lat="48.19468" lon="-2.86256">
        <ele>142.80000305176</ele>
        <time>2020-10-16T12:20:51.000Z</time>
      </trkpt>
      <trkpt lat="48.19469" lon="-2.86252">
        <ele>142.80000305176</ele>
        <time>2020-10-16T12:20:52.000Z</time>
      </trkpt>
      <trkpt lat="48.19471" lon="-2.86247">
        <ele>142.60000610352</ele>
        <time>2020-10-16T12:20:53.000Z</time>
      </trkpt>
      <trkpt lat="48.19472" lon="-2.86241">
        <ele>142.60000610352</ele>
        <time>2020-10-16T12:20:54.000Z</time>
      </trkpt>
      <trkpt lat="48.19474" lon="-2.86234">
        <ele>142.39999389648</ele>
        <time>2020-10-16T12:20:55.000Z</time>
      </trkpt>
      <trkpt lat="48.19475" lon="-2.86228">
        <ele>142.19999694824</ele>
        <time>2020-10-16T12:20:56.000Z</time>
      </trkpt>
      <trkpt lat="48.19477" lon="-2.86222">
        <ele>142</ele>
        <time>2020-10-16T12:20:57.000Z</time>
      </trkpt>
      <trkpt lat="48.19478" lon="-2.86215">
        <ele>142</ele>
        <time>2020-10-16T12:20:58.000Z</time>
      </trkpt>
      <trkpt lat="48.19479" lon="-2.86209">
        <ele>141.80000305176</ele>
        <time>2020-10-16T12:20:59.000Z</time>
      </trkpt>
      <trkpt lat="48.19479" lon="-2.86201">
        <ele>141.39999389648</ele>
        <time>2020-10-16T12:21:00.000Z</time>
      </trkpt>
      <trkpt lat="48.1948" lon="-2.86194">
        <ele>141.19999694824</ele>
        <time>2020-10-16T12:21:01.000Z</time>
      </trkpt>
      <trkpt lat="48.19482" lon="-2.8618">
        <ele>140.80000305176</ele>
        <time>2020-10-16T12:21:02.000Z</time>
      </trkpt>
      <trkpt lat="48.19482" lon="-2.8618">
        <ele>140.80000305176</ele>
        <time>2020-10-16T12:21:03.000Z</time>
      </trkpt>
      <trkpt lat="48.19482" lon="-2.86173">
        <ele>140.60000610352</ele>
        <time>2020-10-16T12:21:04.000Z</time>
      </trkpt>
      <trkpt lat="48.19483" lon="-2.86165">
        <ele>140.60000610352</ele>
        <time>2020-10-16T12:21:05.000Z</time>
      </trkpt>
      <trkpt lat="48.19484" lon="-2.86158">
        <ele>140.60000610352</ele>
        <time>2020-10-16T12:21:06.000Z</time>
      </trkpt>
      <trkpt lat="48.19487" lon="-2.86142">
        <ele>140.80000305176</ele>
        <time>2020-10-16T12:21:07.000Z</time>
      </trkpt>
      <trkpt lat="48.19487" lon="-2.86142">
        <ele>140.80000305176</ele>
        <time>2020-10-16T12:21:08.000Z</time>
      </trkpt>
      <trkpt lat="48.19488" lon="-2.86135">
        <ele>140.80000305176</ele>
        <time>2020-10-16T12:21:09.000Z</time>
      </trkpt>
      <trkpt lat="48.19489" lon="-2.86127">
        <ele>141</ele>
        <time>2020-10-16T12:21:10.000Z</time>
      </trkpt>
      <trkpt lat="48.19491" lon="-2.8612">
        <ele>141</ele>
        <time>2020-10-16T12:21:11.000Z</time>
      </trkpt>
      <trkpt lat="48.19493" lon="-2.86112">
        <ele>141</ele>
        <time>2020-10-16T12:21:12.000Z</time>
      </trkpt>
      <trkpt lat="48.19494" lon="-2.86105">
        <ele>141.19999694824</ele>
        <time>2020-10-16T12:21:13.000Z</time>
      </trkpt>
      <trkpt lat="48.19496" lon="-2.86097">
        <ele>141.19999694824</ele>
        <time>2020-10-16T12:21:14.000Z</time>
      </trkpt>
      <trkpt lat="48.19498" lon="-2.8609">
        <ele>141.19999694824</ele>
        <time>2020-10-16T12:21:15.000Z</time>
      </trkpt>
      <trkpt lat="48.195" lon="-2.86082">
        <ele>141.39999389648</ele>
        <time>2020-10-16T12:21:16.000Z</time>
      </trkpt>
      <trkpt lat="48.19502" lon="-2.86076">
        <ele>141.60000610352</ele>
        <time>2020-10-16T12:21:17.000Z</time>
      </trkpt>
      <trkpt lat="48.19503" lon="-2.86069">
        <ele>141.80000305176</ele>
        <time>2020-10-16T12:21:18.000Z</time>
      </trkpt>
      <trkpt lat="48.19505" lon="-2.86062">
        <ele>142</ele>
        <time>2020-10-16T12:21:19.000Z</time>
      </trkpt>
      <trkpt lat="48.19505" lon="-2.86055">
        <ele>142</ele>
        <time>2020-10-16T12:21:20.000Z</time>
      </trkpt>
      <trkpt lat="48.19506" lon="-2.86049">
        <ele>142.19999694824</ele>
        <time>2020-10-16T12:21:21.000Z</time>
      </trkpt>
      <trkpt lat="48.19506" lon="-2.86043">
        <ele>142.19999694824</ele>
        <time>2020-10-16T12:21:22.000Z</time>
      </trkpt>
      <trkpt lat="48.19505" lon="-2.86037">
        <ele>142.19999694824</ele>
        <time>2020-10-16T12:21:23.000Z</time>
      </trkpt>
      <trkpt lat="48.19505" lon="-2.86031">
        <ele>142.39999389648</ele>
        <time>2020-10-16T12:21:24.000Z</time>
      </trkpt>
      <trkpt lat="48.19505" lon="-2.86025">
        <ele>142.39999389648</ele>
        <time>2020-10-16T12:21:25.000Z</time>
      </trkpt>
      <trkpt lat="48.19505" lon="-2.86018">
        <ele>142.39999389648</ele>
        <time>2020-10-16T12:21:26.000Z</time>
      </trkpt>
      <trkpt lat="48.19505" lon="-2.86011">
        <ele>142.39999389648</ele>
        <time>2020-10-16T12:21:27.000Z</time>
      </trkpt>
      <trkpt lat="48.19504" lon="-2.86005">
        <ele>142.19999694824</ele>
        <time>2020-10-16T12:21:28.000Z</time>
      </trkpt>
      <trkpt lat="48.19504" lon="-2.85998">
        <ele>142.19999694824</ele>
        <time>2020-10-16T12:21:29.000Z</time>
      </trkpt>
      <trkpt lat="48.19504" lon="-2.85991">
        <ele>142</ele>
        <time>2020-10-16T12:21:30.000Z</time>
      </trkpt>
      <trkpt lat="48.19503" lon="-2.85985">
        <ele>141.80000305176</ele>
        <time>2020-10-16T12:21:31.000Z</time>
      </trkpt>
      <trkpt lat="48.19503" lon="-2.85978">
        <ele>141.80000305176</ele>
        <time>2020-10-16T12:21:32.000Z</time>
      </trkpt>
      <trkpt lat="48.19503" lon="-2.85972">
        <ele>141.60000610352</ele>
        <time>2020-10-16T12:21:33.000Z</time>
      </trkpt>
      <trkpt lat="48.19503" lon="-2.85966">
        <ele>141.60000610352</ele>
        <time>2020-10-16T12:21:34.000Z</time>
      </trkpt>
      <trkpt lat="48.19503" lon="-2.8596">
        <ele>141.39999389648</ele>
        <time>2020-10-16T12:21:35.000Z</time>
      </trkpt>
      <trkpt lat="48.19503" lon="-2.85955">
        <ele>141.39999389648</ele>
        <time>2020-10-16T12:21:36.000Z</time>
      </trkpt>
      <trkpt lat="48.19503" lon="-2.8595">
        <ele>141.39999389648</ele>
        <time>2020-10-16T12:21:37.000Z</time>
      </trkpt>
      <trkpt lat="48.19503" lon="-2.85944">
        <ele>141.19999694824</ele>
        <time>2020-10-16T12:21:38.000Z</time>
      </trkpt>
      <trkpt lat="48.19502" lon="-2.85939">
        <ele>141.19999694824</ele>
        <time>2020-10-16T12:21:39.000Z</time>
      </trkpt>
      <trkpt lat="48.19502" lon="-2.85933">
        <ele>141</ele>
        <time>2020-10-16T12:21:40.000Z</time>
      </trkpt>
      <trkpt lat="48.19502" lon="-2.85926">
        <ele>141</ele>
        <time>2020-10-16T12:21:41.000Z</time>
      </trkpt>
      <trkpt lat="48.19501" lon="-2.8592">
        <ele>140.80000305176</ele>
        <time>2020-10-16T12:21:42.000Z</time>
      </trkpt>
      <trkpt lat="48.19501" lon="-2.85912">
        <ele>140.39999389648</ele>
        <time>2020-10-16T12:21:43.000Z</time>
      </trkpt>
      <trkpt lat="48.19501" lon="-2.85906">
        <ele>140</ele>
        <time>2020-10-16T12:21:44.000Z</time>
      </trkpt>
      <trkpt lat="48.19501" lon="-2.85893">
        <ele>139.39999389648</ele>
        <time>2020-10-16T12:21:45.000Z</time>
      </trkpt>
      <trkpt lat="48.19501" lon="-2.85893">
        <ele>139.39999389648</ele>
        <time>2020-10-16T12:21:46.000Z</time>
      </trkpt>
      <trkpt lat="48.19501" lon="-2.85886">
        <ele>139</ele>
        <time>2020-10-16T12:21:47.000Z</time>
      </trkpt>
      <trkpt lat="48.19501" lon="-2.8588">
        <ele>138.80000305176</ele>
        <time>2020-10-16T12:21:48.000Z</time>
      </trkpt>
      <trkpt lat="48.19503" lon="-2.85869">
        <ele>138.39999389648</ele>
        <time>2020-10-16T12:21:49.000Z</time>
      </trkpt>
      <trkpt lat="48.19503" lon="-2.85869">
        <ele>138.39999389648</ele>
        <time>2020-10-16T12:21:50.000Z</time>
      </trkpt>
      <trkpt lat="48.19504" lon="-2.85864">
        <ele>138.39999389648</ele>
        <time>2020-10-16T12:21:51.000Z</time>
      </trkpt>
      <trkpt lat="48.19506" lon="-2.85858">
        <ele>138.19999694824</ele>
        <time>2020-10-16T12:21:52.000Z</time>
      </trkpt>
      <trkpt lat="48.19507" lon="-2.85853">
        <ele>138.19999694824</ele>
        <time>2020-10-16T12:21:53.000Z</time>
      </trkpt>
      <trkpt lat="48.19508" lon="-2.85847">
        <ele>138</ele>
        <time>2020-10-16T12:21:54.000Z</time>
      </trkpt>
      <trkpt lat="48.19509" lon="-2.85841">
        <ele>137.80000305176</ele>
        <time>2020-10-16T12:21:55.000Z</time>
      </trkpt>
      <trkpt lat="48.1951" lon="-2.85836">
        <ele>137.80000305176</ele>
        <time>2020-10-16T12:21:56.000Z</time>
      </trkpt>
      <trkpt lat="48.19512" lon="-2.8583">
        <ele>138</ele>
        <time>2020-10-16T12:21:57.000Z</time>
      </trkpt>
      <trkpt lat="48.19513" lon="-2.85824">
        <ele>137.80000305176</ele>
        <time>2020-10-16T12:21:58.000Z</time>
      </trkpt>
      <trkpt lat="48.19513" lon="-2.85819">
        <ele>137.80000305176</ele>
        <time>2020-10-16T12:21:59.000Z</time>
      </trkpt>
      <trkpt lat="48.19516" lon="-2.85807">
        <ele>137.80000305176</ele>
        <time>2020-10-16T12:22:00.000Z</time>
      </trkpt>
      <trkpt lat="48.19516" lon="-2.85807">
        <ele>137.80000305176</ele>
        <time>2020-10-16T12:22:01.000Z</time>
      </trkpt>
      <trkpt lat="48.19518" lon="-2.85801">
        <ele>137.80000305176</ele>
        <time>2020-10-16T12:22:02.000Z</time>
      </trkpt>
      <trkpt lat="48.19522" lon="-2.85795">
        <ele>138</ele>
        <time>2020-10-16T12:22:03.000Z</time>
      </trkpt>
      <trkpt lat="48.19524" lon="-2.8579">
        <ele>138.19999694824</ele>
        <time>2020-10-16T12:22:04.000Z</time>
      </trkpt>
      <trkpt lat="48.19527" lon="-2.85784">
        <ele>138.19999694824</ele>
        <time>2020-10-16T12:22:05.000Z</time>
      </trkpt>
      <trkpt lat="48.1953" lon="-2.8578">
        <ele>138.39999389648</ele>
        <time>2020-10-16T12:22:06.000Z</time>
      </trkpt>
      <trkpt lat="48.19533" lon="-2.85776">
        <ele>138.60000610352</ele>
        <time>2020-10-16T12:22:07.000Z</time>
      </trkpt>
      <trkpt lat="48.19536" lon="-2.85771">
        <ele>138.60000610352</ele>
        <time>2020-10-16T12:22:08.000Z</time>
      </trkpt>
      <trkpt lat="48.19538" lon="-2.85767">
        <ele>138.80000305176</ele>
        <time>2020-10-16T12:22:09.000Z</time>
      </trkpt>
      <trkpt lat="48.19541" lon="-2.85763">
        <ele>138.80000305176</ele>
        <time>2020-10-16T12:22:10.000Z</time>
      </trkpt>
      <trkpt lat="48.19544" lon="-2.85758">
        <ele>139</ele>
        <time>2020-10-16T12:22:11.000Z</time>
      </trkpt>
      <trkpt lat="48.19547" lon="-2.85754">
        <ele>139</ele>
        <time>2020-10-16T12:22:12.000Z</time>
      </trkpt>
      <trkpt lat="48.1955" lon="-2.8575">
        <ele>139</ele>
        <time>2020-10-16T12:22:13.000Z</time>
      </trkpt>
      <trkpt lat="48.19553" lon="-2.85746">
        <ele>139.19999694824</ele>
        <time>2020-10-16T12:22:14.000Z</time>
      </trkpt>
      <trkpt lat="48.19556" lon="-2.85741">
        <ele>139.19999694824</ele>
        <time>2020-10-16T12:22:15.000Z</time>
      </trkpt>
      <trkpt lat="48.1956" lon="-2.85738">
        <ele>139.19999694824</ele>
        <time>2020-10-16T12:22:16.000Z</time>
      </trkpt>
      <trkpt lat="48.19563" lon="-2.85734">
        <ele>139.39999389648</ele>
        <time>2020-10-16T12:22:17.000Z</time>
      </trkpt>
      <trkpt lat="48.19567" lon="-2.85731">
        <ele>139.39999389648</ele>
        <time>2020-10-16T12:22:18.000Z</time>
      </trkpt>
      <trkpt lat="48.1957" lon="-2.85728">
        <ele>139.60000610352</ele>
        <time>2020-10-16T12:22:19.000Z</time>
      </trkpt>
      <trkpt lat="48.19573" lon="-2.85726">
        <ele>139.60000610352</ele>
        <time>2020-10-16T12:22:20.000Z</time>
      </trkpt>
      <trkpt lat="48.19576" lon="-2.85723">
        <ele>139.60000610352</ele>
        <time>2020-10-16T12:22:21.000Z</time>
      </trkpt>
      <trkpt lat="48.1958" lon="-2.8572">
        <ele>139.80000305176</ele>
        <time>2020-10-16T12:22:22.000Z</time>
      </trkpt>
      <trkpt lat="48.19583" lon="-2.85718">
        <ele>140</ele>
        <time>2020-10-16T12:22:23.000Z</time>
      </trkpt>
      <trkpt lat="48.19586" lon="-2.85716">
        <ele>140</ele>
        <time>2020-10-16T12:22:24.000Z</time>
      </trkpt>
      <trkpt lat="48.19591" lon="-2.85712">
        <ele>140.19999694824</ele>
        <time>2020-10-16T12:22:25.000Z</time>
      </trkpt>
      <trkpt lat="48.19591" lon="-2.85712">
        <ele>140.19999694824</ele>
        <time>2020-10-16T12:22:26.000Z</time>
      </trkpt>
      <trkpt lat="48.19593" lon="-2.85711">
        <ele>140.19999694824</ele>
        <time>2020-10-16T12:22:27.000Z</time>
      </trkpt>
      <trkpt lat="48.19594" lon="-2.85711">
        <ele>140.19999694824</ele>
        <time>2020-10-16T12:22:28.000Z</time>
      </trkpt>
      <trkpt lat="48.19595" lon="-2.8571">
        <ele>140.39999389648</ele>
        <time>2020-10-16T12:22:29.000Z</time>
      </trkpt>
      <trkpt lat="48.19595" lon="-2.8571">
        <ele>140.39999389648</ele>
        <time>2020-10-16T12:22:30.000Z</time>
      </trkpt>
      <trkpt lat="48.19595" lon="-2.8571">
        <ele>140.39999389648</ele>
        <time>2020-10-16T12:22:31.000Z</time>
      </trkpt>
      <trkpt lat="48.19595" lon="-2.8571">
        <ele>140.39999389648</ele>
        <time>2020-10-16T12:22:32.000Z</time>
      </trkpt>
      <trkpt lat="48.19596" lon="-2.8571">
        <ele>140.39999389648</ele>
        <time>2020-10-16T12:22:33.000Z</time>
      </trkpt>
      <trkpt lat="48.19596" lon="-2.85709">
        <ele>140.39999389648</ele>
        <time>2020-10-16T12:22:34.000Z</time>
      </trkpt>
      <trkpt lat="48.19596" lon="-2.85708">
        <ele>140.19999694824</ele>
        <time>2020-10-16T12:22:35.000Z</time>
      </trkpt>
      <trkpt lat="48.19596" lon="-2.85708">
        <ele>140.19999694824</ele>
        <time>2020-10-16T12:22:36.000Z</time>
      </trkpt>
      <trkpt lat="48.19596" lon="-2.85708">
        <ele>140.19999694824</ele>
        <time>2020-10-16T12:22:37.000Z</time>
      </trkpt>
      <trkpt lat="48.19596" lon="-2.85708">
        <ele>140.19999694824</ele>
        <time>2020-10-16T12:22:38.000Z</time>
      </trkpt>
      <trkpt lat="48.19596" lon="-2.85708">
        <ele>140.19999694824</ele>
        <time>2020-10-16T12:22:39.000Z</time>
      </trkpt>
      <trkpt lat="48.19596" lon="-2.85708">
        <ele>140.19999694824</ele>
        <time>2020-10-16T12:22:40.000Z</time>
      </trkpt>
      <trkpt lat="48.19596" lon="-2.85708">
        <ele>140.19999694824</ele>
        <time>2020-10-16T12:22:41.000Z</time>
      </trkpt>
      <trkpt lat="48.19596" lon="-2.85708">
        <ele>140.19999694824</ele>
        <time>2020-10-16T12:22:42.000Z</time>
      </trkpt>
      <trkpt lat="48.19597" lon="-2.85708">
        <ele>140.19999694824</ele>
        <time>2020-10-16T12:22:43.000Z</time>
      </trkpt>
      <trkpt lat="48.19596" lon="-2.85708">
        <ele>140.19999694824</ele>
        <time>2020-10-16T12:22:44.000Z</time>
      </trkpt>
      <trkpt lat="48.19596" lon="-2.85708">
        <ele>140.19999694824</ele>
        <time>2020-10-16T12:22:45.000Z</time>
      </trkpt>
      <trkpt lat="48.19596" lon="-2.85708">
        <ele>140.19999694824</ele>
        <time>2020-10-16T12:22:46.000Z</time>
      </trkpt>
      <trkpt lat="48.19596" lon="-2.85708">
        <ele>140.19999694824</ele>
        <time>2020-10-16T12:22:47.000Z</time>
      </trkpt>
      <trkpt lat="48.19596" lon="-2.85708">
        <ele>140.19999694824</ele>
        <time>2020-10-16T12:22:48.000Z</time>
      </trkpt>
      <trkpt lat="48.19596" lon="-2.85708">
        <ele>140.19999694824</ele>
        <time>2020-10-16T12:22:49.000Z</time>
      </trkpt>
      <trkpt lat="48.19596" lon="-2.85708">
        <ele>140.19999694824</ele>
        <time>2020-10-16T12:22:50.000Z</time>
      </trkpt>
      <trkpt lat="48.19596" lon="-2.85708">
        <ele>140.19999694824</ele>
        <time>2020-10-16T12:22:51.000Z</time>
      </trkpt>
      <trkpt lat="48.19596" lon="-2.85708">
        <ele>140.19999694824</ele>
        <time>2020-10-16T12:22:52.000Z</time>
      </trkpt>
      <trkpt lat="48.19596" lon="-2.85708">
        <ele>140.19999694824</ele>
        <time>2020-10-16T12:22:53.000Z</time>
      </trkpt>
      <trkpt lat="48.19596" lon="-2.85708">
        <ele>140.19999694824</ele>
        <time>2020-10-16T12:22:54.000Z</time>
      </trkpt>
      <trkpt lat="48.19596" lon="-2.85708">
        <ele>140.19999694824</ele>
        <time>2020-10-16T12:22:55.000Z</time>
      </trkpt>
      <trkpt lat="48.19596" lon="-2.85708">
        <ele>140.19999694824</ele>
        <time>2020-10-16T12:22:56.000Z</time>
      </trkpt>
      <trkpt lat="48.19596" lon="-2.85708">
        <ele>140.19999694824</ele>
        <time>2020-10-16T12:22:57.000Z</time>
      </trkpt>
      <trkpt lat="48.19597" lon="-2.85708">
        <ele>140.19999694824</ele>
        <time>2020-10-16T12:22:58.000Z</time>
      </trkpt>
      <trkpt lat="48.19597" lon="-2.85708">
        <ele>140.19999694824</ele>
        <time>2020-10-16T12:22:59.000Z</time>
      </trkpt>
      <trkpt lat="48.19597" lon="-2.85708">
        <ele>140.19999694824</ele>
        <time>2020-10-16T12:23:00.000Z</time>
      </trkpt>
      <trkpt lat="48.19597" lon="-2.85708">
        <ele>140.19999694824</ele>
        <time>2020-10-16T12:23:01.000Z</time>
      </trkpt>
      <trkpt lat="48.19597" lon="-2.85708">
        <ele>140.19999694824</ele>
        <time>2020-10-16T12:23:02.000Z</time>
      </trkpt>
      <trkpt lat="48.19597" lon="-2.85708">
        <ele>140.19999694824</ele>
        <time>2020-10-16T12:23:03.000Z</time>
      </trkpt>
      <trkpt lat="48.19597" lon="-2.85708">
        <ele>140.19999694824</ele>
        <time>2020-10-16T12:23:04.000Z</time>
      </trkpt>
      <trkpt lat="48.19597" lon="-2.85708">
        <ele>140.19999694824</ele>
        <time>2020-10-16T12:23:05.000Z</time>
      </trkpt>
      <trkpt lat="48.19596" lon="-2.85708">
        <ele>140.19999694824</ele>
        <time>2020-10-16T12:23:06.000Z</time>
      </trkpt>
      <trkpt lat="48.19596" lon="-2.85709">
        <ele>140.19999694824</ele>
        <time>2020-10-16T12:23:07.000Z</time>
      </trkpt>
      <trkpt lat="48.19597" lon="-2.85709">
        <ele>140.19999694824</ele>
        <time>2020-10-16T12:23:08.000Z</time>
      </trkpt>
      <trkpt lat="48.19596" lon="-2.85709">
        <ele>140.19999694824</ele>
        <time>2020-10-16T12:23:09.000Z</time>
      </trkpt>
      <trkpt lat="48.19596" lon="-2.85709">
        <ele>140.19999694824</ele>
        <time>2020-10-16T12:23:10.000Z</time>
      </trkpt>
      <trkpt lat="48.19596" lon="-2.85709">
        <ele>140.19999694824</ele>
        <time>2020-10-16T12:23:11.000Z</time>
      </trkpt>
      <trkpt lat="48.19596" lon="-2.85709">
        <ele>140.19999694824</ele>
        <time>2020-10-16T12:23:12.000Z</time>
      </trkpt>
      <trkpt lat="48.19596" lon="-2.85709">
        <ele>140.19999694824</ele>
        <time>2020-10-16T12:23:13.000Z</time>
      </trkpt>
      <trkpt lat="48.19596" lon="-2.85709">
        <ele>140.19999694824</ele>
        <time>2020-10-16T12:23:14.000Z</time>
      </trkpt>
      <trkpt lat="48.19596" lon="-2.85709">
        <ele>140.19999694824</ele>
        <time>2020-10-16T12:23:15.000Z</time>
      </trkpt>
      <trkpt lat="48.19596" lon="-2.8571">
        <ele>140.19999694824</ele>
        <time>2020-10-16T12:23:16.000Z</time>
      </trkpt>
      <trkpt lat="48.19596" lon="-2.8571">
        <ele>140.19999694824</ele>
        <time>2020-10-16T12:23:17.000Z</time>
      </trkpt>
      <trkpt lat="48.19596" lon="-2.8571">
        <ele>140.19999694824</ele>
        <time>2020-10-16T12:23:18.000Z</time>
      </trkpt>
      <trkpt lat="48.19596" lon="-2.8571">
        <ele>140.19999694824</ele>
        <time>2020-10-16T12:23:19.000Z</time>
      </trkpt>
      <trkpt lat="48.19596" lon="-2.8571">
        <ele>140.19999694824</ele>
        <time>2020-10-16T12:23:20.000Z</time>
      </trkpt>
      <trkpt lat="48.19596" lon="-2.8571">
        <ele>140.19999694824</ele>
        <time>2020-10-16T12:23:21.000Z</time>
      </trkpt>
      <trkpt lat="48.19596" lon="-2.85709">
        <ele>140.19999694824</ele>
        <time>2020-10-16T12:23:22.000Z</time>
      </trkpt>
      <trkpt lat="48.19596" lon="-2.85709">
        <ele>140.19999694824</ele>
        <time>2020-10-16T12:23:23.000Z</time>
      </trkpt>
      <trkpt lat="48.19596" lon="-2.85709">
        <ele>140.19999694824</ele>
        <time>2020-10-16T12:23:24.000Z</time>
      </trkpt>
      <trkpt lat="48.19596" lon="-2.85709">
        <ele>140.19999694824</ele>
        <time>2020-10-16T12:23:25.000Z</time>
      </trkpt>
      <trkpt lat="48.19596" lon="-2.85709">
        <ele>140.19999694824</ele>
        <time>2020-10-16T12:23:26.000Z</time>
      </trkpt>
      <trkpt lat="48.19596" lon="-2.85709">
        <ele>140.19999694824</ele>
        <time>2020-10-16T12:23:27.000Z</time>
      </trkpt>
      <trkpt lat="48.19596" lon="-2.85708">
        <ele>140.19999694824</ele>
        <time>2020-10-16T12:23:28.000Z</time>
      </trkpt>
      <trkpt lat="48.19596" lon="-2.85709">
        <ele>140.19999694824</ele>
        <time>2020-10-16T12:23:29.000Z</time>
      </trkpt>
      <trkpt lat="48.19596" lon="-2.85708">
        <ele>140.19999694824</ele>
        <time>2020-10-16T12:23:30.000Z</time>
      </trkpt>
      <trkpt lat="48.19596" lon="-2.85708">
        <ele>140.19999694824</ele>
        <time>2020-10-16T12:23:31.000Z</time>
      </trkpt>
      <trkpt lat="48.19597" lon="-2.85708">
        <ele>140.19999694824</ele>
        <time>2020-10-16T12:23:32.000Z</time>
      </trkpt>
      <trkpt lat="48.19597" lon="-2.85708">
        <ele>140.19999694824</ele>
        <time>2020-10-16T12:23:33.000Z</time>
      </trkpt>
      <trkpt lat="48.19597" lon="-2.85708">
        <ele>140.19999694824</ele>
        <time>2020-10-16T12:23:34.000Z</time>
      </trkpt>
      <trkpt lat="48.19597" lon="-2.85708">
        <ele>140.19999694824</ele>
        <time>2020-10-16T12:23:35.000Z</time>
      </trkpt>
      <trkpt lat="48.19597" lon="-2.85708">
        <ele>140.19999694824</ele>
        <time>2020-10-16T12:23:36.000Z</time>
      </trkpt>
      <trkpt lat="48.19597" lon="-2.85708">
        <ele>140.19999694824</ele>
        <time>2020-10-16T12:23:37.000Z</time>
      </trkpt>
      <trkpt lat="48.19597" lon="-2.85708">
        <ele>140.19999694824</ele>
        <time>2020-10-16T12:23:38.000Z</time>
      </trkpt>
      <trkpt lat="48.19597" lon="-2.85708">
        <ele>140.19999694824</ele>
        <time>2020-10-16T12:23:39.000Z</time>
      </trkpt>
      <trkpt lat="48.19597" lon="-2.85708">
        <ele>140.19999694824</ele>
        <time>2020-10-16T12:23:40.000Z</time>
      </trkpt>
      <trkpt lat="48.19597" lon="-2.85708">
        <ele>140.19999694824</ele>
        <time>2020-10-16T12:23:41.000Z</time>
      </trkpt>
      <trkpt lat="48.19598" lon="-2.85708">
        <ele>140.19999694824</ele>
        <time>2020-10-16T12:23:42.000Z</time>
      </trkpt>
      <trkpt lat="48.19598" lon="-2.85708">
        <ele>140.19999694824</ele>
        <time>2020-10-16T12:23:43.000Z</time>
      </trkpt>
      <trkpt lat="48.19598" lon="-2.85708">
        <ele>140.19999694824</ele>
        <time>2020-10-16T12:23:44.000Z</time>
      </trkpt>
      <trkpt lat="48.19598" lon="-2.85708">
        <ele>140.19999694824</ele>
        <time>2020-10-16T12:23:45.000Z</time>
      </trkpt>
      <trkpt lat="48.19598" lon="-2.85708">
        <ele>140.19999694824</ele>
        <time>2020-10-16T12:23:46.000Z</time>
      </trkpt>
      <trkpt lat="48.19598" lon="-2.85708">
        <ele>140.19999694824</ele>
        <time>2020-10-16T12:23:47.000Z</time>
      </trkpt>
      <trkpt lat="48.19598" lon="-2.85708">
        <ele>140.19999694824</ele>
        <time>2020-10-16T12:23:48.000Z</time>
      </trkpt>
      <trkpt lat="48.19598" lon="-2.85708">
        <ele>140.19999694824</ele>
        <time>2020-10-16T12:23:49.000Z</time>
      </trkpt>
      <trkpt lat="48.19598" lon="-2.85708">
        <ele>140.19999694824</ele>
        <time>2020-10-16T12:23:50.000Z</time>
      </trkpt>
      <trkpt lat="48.19598" lon="-2.85707">
        <ele>140.19999694824</ele>
        <time>2020-10-16T12:23:51.000Z</time>
      </trkpt>
      <trkpt lat="48.19598" lon="-2.85707">
        <ele>140.19999694824</ele>
        <time>2020-10-16T12:23:52.000Z</time>
      </trkpt>
      <trkpt lat="48.19598" lon="-2.85707">
        <ele>140.19999694824</ele>
        <time>2020-10-16T12:23:53.000Z</time>
      </trkpt>
      <trkpt lat="48.19598" lon="-2.85707">
        <ele>140.19999694824</ele>
        <time>2020-10-16T12:23:54.000Z</time>
      </trkpt>
      <trkpt lat="48.19599" lon="-2.85707">
        <ele>140.19999694824</ele>
        <time>2020-10-16T12:23:55.000Z</time>
      </trkpt>
      <trkpt lat="48.19599" lon="-2.85707">
        <ele>140.19999694824</ele>
        <time>2020-10-16T12:23:56.000Z</time>
      </trkpt>
      <trkpt lat="48.19599" lon="-2.85707">
        <ele>140.19999694824</ele>
        <time>2020-10-16T12:23:57.000Z</time>
      </trkpt>
      <trkpt lat="48.19599" lon="-2.85707">
        <ele>140.19999694824</ele>
        <time>2020-10-16T12:23:58.000Z</time>
      </trkpt>
      <trkpt lat="48.19599" lon="-2.85707">
        <ele>140.19999694824</ele>
        <time>2020-10-16T12:23:59.000Z</time>
      </trkpt>
      <trkpt lat="48.19599" lon="-2.85707">
        <ele>140.19999694824</ele>
        <time>2020-10-16T12:24:00.000Z</time>
      </trkpt>
      <trkpt lat="48.19599" lon="-2.85707">
        <ele>140.19999694824</ele>
        <time>2020-10-16T12:24:01.000Z</time>
      </trkpt>
      <trkpt lat="48.19599" lon="-2.85707">
        <ele>140.19999694824</ele>
        <time>2020-10-16T12:24:02.000Z</time>
      </trkpt>
      <trkpt lat="48.196" lon="-2.85706">
        <ele>140</ele>
        <time>2020-10-16T12:24:03.000Z</time>
      </trkpt>
      <trkpt lat="48.196" lon="-2.85706">
        <ele>140</ele>
        <time>2020-10-16T12:24:04.000Z</time>
      </trkpt>
      <trkpt lat="48.19601" lon="-2.85704">
        <ele>140</ele>
        <time>2020-10-16T12:24:05.000Z</time>
      </trkpt>
      <trkpt lat="48.19603" lon="-2.85702">
        <ele>139.80000305176</ele>
        <time>2020-10-16T12:24:06.000Z</time>
      </trkpt>
      <trkpt lat="48.19604" lon="-2.85701">
        <ele>139.80000305176</ele>
        <time>2020-10-16T12:24:07.000Z</time>
      </trkpt>
      <trkpt lat="48.19606" lon="-2.85699">
        <ele>139.60000610352</ele>
        <time>2020-10-16T12:24:08.000Z</time>
      </trkpt>
      <trkpt lat="48.19608" lon="-2.85697">
        <ele>139.60000610352</ele>
        <time>2020-10-16T12:24:09.000Z</time>
      </trkpt>
      <trkpt lat="48.1961" lon="-2.85694">
        <ele>139.39999389648</ele>
        <time>2020-10-16T12:24:10.000Z</time>
      </trkpt>
      <trkpt lat="48.19613" lon="-2.85692">
        <ele>139.19999694824</ele>
        <time>2020-10-16T12:24:11.000Z</time>
      </trkpt>
      <trkpt lat="48.19615" lon="-2.8569">
        <ele>139.19999694824</ele>
        <time>2020-10-16T12:24:12.000Z</time>
      </trkpt>
      <trkpt lat="48.19618" lon="-2.85688">
        <ele>139</ele>
        <time>2020-10-16T12:24:13.000Z</time>
      </trkpt>
      <trkpt lat="48.19623" lon="-2.85687">
        <ele>138.80000305176</ele>
        <time>2020-10-16T12:24:14.000Z</time>
      </trkpt>
      <trkpt lat="48.19623" lon="-2.85687">
        <ele>138.80000305176</ele>
        <time>2020-10-16T12:24:15.000Z</time>
      </trkpt>
      <trkpt lat="48.19625" lon="-2.85687">
        <ele>138.80000305176</ele>
        <time>2020-10-16T12:24:16.000Z</time>
      </trkpt>
      <trkpt lat="48.19627" lon="-2.85688">
        <ele>138.80000305176</ele>
        <time>2020-10-16T12:24:17.000Z</time>
      </trkpt>
      <trkpt lat="48.1963" lon="-2.85689">
        <ele>138.80000305176</ele>
        <time>2020-10-16T12:24:18.000Z</time>
      </trkpt>
      <trkpt lat="48.19633" lon="-2.8569">
        <ele>138.80000305176</ele>
        <time>2020-10-16T12:24:19.000Z</time>
      </trkpt>
      <trkpt lat="48.19635" lon="-2.85692">
        <ele>138.80000305176</ele>
        <time>2020-10-16T12:24:20.000Z</time>
      </trkpt>
      <trkpt lat="48.19638" lon="-2.85694">
        <ele>138.80000305176</ele>
        <time>2020-10-16T12:24:21.000Z</time>
      </trkpt>
      <trkpt lat="48.19642" lon="-2.85698">
        <ele>138.80000305176</ele>
        <time>2020-10-16T12:24:22.000Z</time>
      </trkpt>
      <trkpt lat="48.19642" lon="-2.85698">
        <ele>138.80000305176</ele>
        <time>2020-10-16T12:24:23.000Z</time>
      </trkpt>
      <trkpt lat="48.19645" lon="-2.857">
        <ele>138.80000305176</ele>
        <time>2020-10-16T12:24:24.000Z</time>
      </trkpt>
      <trkpt lat="48.19649" lon="-2.85704">
        <ele>138.80000305176</ele>
        <time>2020-10-16T12:24:25.000Z</time>
      </trkpt>
      <trkpt lat="48.19653" lon="-2.85707">
        <ele>139</ele>
        <time>2020-10-16T12:24:26.000Z</time>
      </trkpt>
      <trkpt lat="48.19656" lon="-2.85711">
        <ele>139</ele>
        <time>2020-10-16T12:24:27.000Z</time>
      </trkpt>
      <trkpt lat="48.19659" lon="-2.85715">
        <ele>139.19999694824</ele>
        <time>2020-10-16T12:24:28.000Z</time>
      </trkpt>
      <trkpt lat="48.19662" lon="-2.85719">
        <ele>139.39999389648</ele>
        <time>2020-10-16T12:24:29.000Z</time>
      </trkpt>
      <trkpt lat="48.19665" lon="-2.85724">
        <ele>139.60000610352</ele>
        <time>2020-10-16T12:24:30.000Z</time>
      </trkpt>
      <trkpt lat="48.19669" lon="-2.85729">
        <ele>139.80000305176</ele>
        <time>2020-10-16T12:24:31.000Z</time>
      </trkpt>
      <trkpt lat="48.19671" lon="-2.85733">
        <ele>140</ele>
        <time>2020-10-16T12:24:32.000Z</time>
      </trkpt>
      <trkpt lat="48.19675" lon="-2.85738">
        <ele>140.19999694824</ele>
        <time>2020-10-16T12:24:33.000Z</time>
      </trkpt>
      <trkpt lat="48.19679" lon="-2.85742">
        <ele>140.19999694824</ele>
        <time>2020-10-16T12:24:34.000Z</time>
      </trkpt>
      <trkpt lat="48.19682" lon="-2.85747">
        <ele>140.19999694824</ele>
        <time>2020-10-16T12:24:35.000Z</time>
      </trkpt>
      <trkpt lat="48.19685" lon="-2.85751">
        <ele>140</ele>
        <time>2020-10-16T12:24:36.000Z</time>
      </trkpt>
      <trkpt lat="48.19688" lon="-2.85757">
        <ele>139.80000305176</ele>
        <time>2020-10-16T12:24:37.000Z</time>
      </trkpt>
      <trkpt lat="48.19691" lon="-2.85762">
        <ele>139.60000610352</ele>
        <time>2020-10-16T12:24:38.000Z</time>
      </trkpt>
      <trkpt lat="48.19694" lon="-2.85768">
        <ele>139.39999389648</ele>
        <time>2020-10-16T12:24:39.000Z</time>
      </trkpt>
      <trkpt lat="48.19697" lon="-2.85772">
        <ele>139.19999694824</ele>
        <time>2020-10-16T12:24:40.000Z</time>
      </trkpt>
      <trkpt lat="48.19699" lon="-2.85778">
        <ele>139</ele>
        <time>2020-10-16T12:24:41.000Z</time>
      </trkpt>
      <trkpt lat="48.19701" lon="-2.85784">
        <ele>139</ele>
        <time>2020-10-16T12:24:42.000Z</time>
      </trkpt>
      <trkpt lat="48.19702" lon="-2.8579">
        <ele>139</ele>
        <time>2020-10-16T12:24:43.000Z</time>
      </trkpt>
      <trkpt lat="48.19704" lon="-2.85795">
        <ele>139</ele>
        <time>2020-10-16T12:24:44.000Z</time>
      </trkpt>
      <trkpt lat="48.19705" lon="-2.85802">
        <ele>139</ele>
        <time>2020-10-16T12:24:45.000Z</time>
      </trkpt>
      <trkpt lat="48.19705" lon="-2.85809">
        <ele>139</ele>
        <time>2020-10-16T12:24:46.000Z</time>
      </trkpt>
      <trkpt lat="48.19706" lon="-2.85816">
        <ele>139.39999389648</ele>
        <time>2020-10-16T12:24:47.000Z</time>
      </trkpt>
      <trkpt lat="48.19707" lon="-2.85822">
        <ele>139.80000305176</ele>
        <time>2020-10-16T12:24:48.000Z</time>
      </trkpt>
      <trkpt lat="48.19708" lon="-2.85828">
        <ele>140</ele>
        <time>2020-10-16T12:24:49.000Z</time>
      </trkpt>
      <trkpt lat="48.19708" lon="-2.85835">
        <ele>140.60000610352</ele>
        <time>2020-10-16T12:24:50.000Z</time>
      </trkpt>
      <trkpt lat="48.19708" lon="-2.8584">
        <ele>140.80000305176</ele>
        <time>2020-10-16T12:24:51.000Z</time>
      </trkpt>
      <trkpt lat="48.19709" lon="-2.85845">
        <ele>141</ele>
        <time>2020-10-16T12:24:52.000Z</time>
      </trkpt>
      <trkpt lat="48.19708" lon="-2.85849">
        <ele>141</ele>
        <time>2020-10-16T12:24:53.000Z</time>
      </trkpt>
      <trkpt lat="48.19709" lon="-2.85852">
        <ele>141</ele>
        <time>2020-10-16T12:24:54.000Z</time>
      </trkpt>
      <trkpt lat="48.19709" lon="-2.85853">
        <ele>141</ele>
        <time>2020-10-16T12:24:55.000Z</time>
      </trkpt>
      <trkpt lat="48.1971" lon="-2.85853">
        <ele>141</ele>
        <time>2020-10-16T12:24:56.000Z</time>
      </trkpt>
      <trkpt lat="48.1971" lon="-2.85853">
        <ele>141</ele>
        <time>2020-10-16T12:24:57.000Z</time>
      </trkpt>
      <trkpt lat="48.1971" lon="-2.85854">
        <ele>141</ele>
        <time>2020-10-16T12:24:58.000Z</time>
      </trkpt>
      <trkpt lat="48.1971" lon="-2.85854">
        <ele>141</ele>
        <time>2020-10-16T12:24:59.000Z</time>
      </trkpt>
      <trkpt lat="48.1971" lon="-2.85854">
        <ele>141.19999694824</ele>
        <time>2020-10-16T12:25:00.000Z</time>
      </trkpt>
      <trkpt lat="48.19709" lon="-2.85855">
        <ele>141.19999694824</ele>
        <time>2020-10-16T12:25:01.000Z</time>
      </trkpt>
      <trkpt lat="48.19709" lon="-2.85855">
        <ele>141.19999694824</ele>
        <time>2020-10-16T12:25:02.000Z</time>
      </trkpt>
      <trkpt lat="48.19709" lon="-2.85855">
        <ele>141.19999694824</ele>
        <time>2020-10-16T12:25:03.000Z</time>
      </trkpt>
      <trkpt lat="48.19708" lon="-2.85855">
        <ele>141.19999694824</ele>
        <time>2020-10-16T12:25:04.000Z</time>
      </trkpt>
      <trkpt lat="48.19708" lon="-2.85855">
        <ele>141.19999694824</ele>
        <time>2020-10-16T12:25:05.000Z</time>
      </trkpt>
      <trkpt lat="48.19708" lon="-2.85857">
        <ele>141.19999694824</ele>
        <time>2020-10-16T12:25:06.000Z</time>
      </trkpt>
      <trkpt lat="48.19708" lon="-2.85859">
        <ele>141.39999389648</ele>
        <time>2020-10-16T12:25:07.000Z</time>
      </trkpt>
      <trkpt lat="48.19709" lon="-2.85861">
        <ele>141.39999389648</ele>
        <time>2020-10-16T12:25:08.000Z</time>
      </trkpt>
      <trkpt lat="48.19709" lon="-2.85863">
        <ele>141.39999389648</ele>
        <time>2020-10-16T12:25:09.000Z</time>
      </trkpt>
      <trkpt lat="48.1971" lon="-2.85866">
        <ele>141.39999389648</ele>
        <time>2020-10-16T12:25:10.000Z</time>
      </trkpt>
      <trkpt lat="48.19711" lon="-2.85869">
        <ele>141.39999389648</ele>
        <time>2020-10-16T12:25:11.000Z</time>
      </trkpt>
      <trkpt lat="48.19712" lon="-2.85872">
        <ele>141.39999389648</ele>
        <time>2020-10-16T12:25:12.000Z</time>
      </trkpt>
      <trkpt lat="48.19713" lon="-2.85876">
        <ele>141.39999389648</ele>
        <time>2020-10-16T12:25:13.000Z</time>
      </trkpt>
      <trkpt lat="48.19714" lon="-2.8588">
        <ele>141.39999389648</ele>
        <time>2020-10-16T12:25:14.000Z</time>
      </trkpt>
      <trkpt lat="48.19714" lon="-2.85884">
        <ele>141.39999389648</ele>
        <time>2020-10-16T12:25:15.000Z</time>
      </trkpt>
      <trkpt lat="48.19715" lon="-2.85889">
        <ele>141.60000610352</ele>
        <time>2020-10-16T12:25:16.000Z</time>
      </trkpt>
      <trkpt lat="48.19715" lon="-2.85893">
        <ele>141.80000305176</ele>
        <time>2020-10-16T12:25:17.000Z</time>
      </trkpt>
      <trkpt lat="48.19716" lon="-2.85898">
        <ele>142</ele>
        <time>2020-10-16T12:25:18.000Z</time>
      </trkpt>
      <trkpt lat="48.19716" lon="-2.85903">
        <ele>142.19999694824</ele>
        <time>2020-10-16T12:25:19.000Z</time>
      </trkpt>
      <trkpt lat="48.19715" lon="-2.85908">
        <ele>142.60000610352</ele>
        <time>2020-10-16T12:25:20.000Z</time>
      </trkpt>
      <trkpt lat="48.19715" lon="-2.8592">
        <ele>143.19999694824</ele>
        <time>2020-10-16T12:25:21.000Z</time>
      </trkpt>
      <trkpt lat="48.19715" lon="-2.8592">
        <ele>143.19999694824</ele>
        <time>2020-10-16T12:25:22.000Z</time>
      </trkpt>
      <trkpt lat="48.19715" lon="-2.85925">
        <ele>143.19999694824</ele>
        <time>2020-10-16T12:25:23.000Z</time>
      </trkpt>
      <trkpt lat="48.19716" lon="-2.85931">
        <ele>143.39999389648</ele>
        <time>2020-10-16T12:25:24.000Z</time>
      </trkpt>
      <trkpt lat="48.19717" lon="-2.85937">
        <ele>143.39999389648</ele>
        <time>2020-10-16T12:25:25.000Z</time>
      </trkpt>
      <trkpt lat="48.19718" lon="-2.85943">
        <ele>143.39999389648</ele>
        <time>2020-10-16T12:25:26.000Z</time>
      </trkpt>
      <trkpt lat="48.1972" lon="-2.85948">
        <ele>143.39999389648</ele>
        <time>2020-10-16T12:25:27.000Z</time>
      </trkpt>
      <trkpt lat="48.19722" lon="-2.85953">
        <ele>143.19999694824</ele>
        <time>2020-10-16T12:25:28.000Z</time>
      </trkpt>
      <trkpt lat="48.19725" lon="-2.85959">
        <ele>143.19999694824</ele>
        <time>2020-10-16T12:25:29.000Z</time>
      </trkpt>
      <trkpt lat="48.19728" lon="-2.85964">
        <ele>143.19999694824</ele>
        <time>2020-10-16T12:25:30.000Z</time>
      </trkpt>
      <trkpt lat="48.19732" lon="-2.85969">
        <ele>143</ele>
        <time>2020-10-16T12:25:31.000Z</time>
      </trkpt>
      <trkpt lat="48.19735" lon="-2.85975">
        <ele>143</ele>
        <time>2020-10-16T12:25:32.000Z</time>
      </trkpt>
      <trkpt lat="48.19738" lon="-2.85981">
        <ele>142.80000305176</ele>
        <time>2020-10-16T12:25:33.000Z</time>
      </trkpt>
      <trkpt lat="48.19741" lon="-2.85988">
        <ele>142.80000305176</ele>
        <time>2020-10-16T12:25:34.000Z</time>
      </trkpt>
      <trkpt lat="48.19745" lon="-2.85993">
        <ele>142.60000610352</ele>
        <time>2020-10-16T12:25:35.000Z</time>
      </trkpt>
      <trkpt lat="48.19747" lon="-2.85999">
        <ele>142.60000610352</ele>
        <time>2020-10-16T12:25:36.000Z</time>
      </trkpt>
      <trkpt lat="48.1975" lon="-2.86004">
        <ele>142.60000610352</ele>
        <time>2020-10-16T12:25:37.000Z</time>
      </trkpt>
      <trkpt lat="48.19753" lon="-2.86009">
        <ele>142.39999389648</ele>
        <time>2020-10-16T12:25:38.000Z</time>
      </trkpt>
      <trkpt lat="48.19756" lon="-2.86012">
        <ele>142.19999694824</ele>
        <time>2020-10-16T12:25:39.000Z</time>
      </trkpt>
      <trkpt lat="48.19759" lon="-2.86015">
        <ele>142.19999694824</ele>
        <time>2020-10-16T12:25:40.000Z</time>
      </trkpt>
      <trkpt lat="48.19766" lon="-2.8602">
        <ele>142.39999389648</ele>
        <time>2020-10-16T12:25:41.000Z</time>
      </trkpt>
      <trkpt lat="48.19766" lon="-2.8602">
        <ele>142.39999389648</ele>
        <time>2020-10-16T12:25:42.000Z</time>
      </trkpt>
      <trkpt lat="48.19769" lon="-2.86021">
        <ele>142.39999389648</ele>
        <time>2020-10-16T12:25:43.000Z</time>
      </trkpt>
      <trkpt lat="48.19773" lon="-2.86021">
        <ele>142.39999389648</ele>
        <time>2020-10-16T12:25:44.000Z</time>
      </trkpt>
      <trkpt lat="48.19776" lon="-2.86022">
        <ele>142.39999389648</ele>
        <time>2020-10-16T12:25:45.000Z</time>
      </trkpt>
      <trkpt lat="48.1978" lon="-2.86022">
        <ele>142.39999389648</ele>
        <time>2020-10-16T12:25:46.000Z</time>
      </trkpt>
      <trkpt lat="48.19785" lon="-2.86022">
        <ele>142.39999389648</ele>
        <time>2020-10-16T12:25:47.000Z</time>
      </trkpt>
      <trkpt lat="48.19789" lon="-2.86023">
        <ele>142.39999389648</ele>
        <time>2020-10-16T12:25:48.000Z</time>
      </trkpt>
      <trkpt lat="48.19793" lon="-2.86025">
        <ele>142.39999389648</ele>
        <time>2020-10-16T12:25:49.000Z</time>
      </trkpt>
      <trkpt lat="48.19797" lon="-2.86026">
        <ele>142.39999389648</ele>
        <time>2020-10-16T12:25:50.000Z</time>
      </trkpt>
      <trkpt lat="48.19802" lon="-2.86026">
        <ele>142.39999389648</ele>
        <time>2020-10-16T12:25:51.000Z</time>
      </trkpt>
      <trkpt lat="48.19806" lon="-2.86027">
        <ele>142.60000610352</ele>
        <time>2020-10-16T12:25:52.000Z</time>
      </trkpt>
      <trkpt lat="48.1981" lon="-2.86028">
        <ele>142.60000610352</ele>
        <time>2020-10-16T12:25:53.000Z</time>
      </trkpt>
      <trkpt lat="48.19814" lon="-2.86029">
        <ele>142.60000610352</ele>
        <time>2020-10-16T12:25:54.000Z</time>
      </trkpt>
      <trkpt lat="48.19818" lon="-2.86031">
        <ele>142.60000610352</ele>
        <time>2020-10-16T12:25:55.000Z</time>
      </trkpt>
      <trkpt lat="48.19821" lon="-2.86033">
        <ele>142.80000305176</ele>
        <time>2020-10-16T12:25:56.000Z</time>
      </trkpt>
      <trkpt lat="48.19825" lon="-2.86034">
        <ele>143</ele>
        <time>2020-10-16T12:25:57.000Z</time>
      </trkpt>
      <trkpt lat="48.19829" lon="-2.86035">
        <ele>143.19999694824</ele>
        <time>2020-10-16T12:25:58.000Z</time>
      </trkpt>
      <trkpt lat="48.19833" lon="-2.86036">
        <ele>143.39999389648</ele>
        <time>2020-10-16T12:25:59.000Z</time>
      </trkpt>
      <trkpt lat="48.19841" lon="-2.86037">
        <ele>143.80000305176</ele>
        <time>2020-10-16T12:26:00.000Z</time>
      </trkpt>
      <trkpt lat="48.19845" lon="-2.86036">
        <ele>143.80000305176</ele>
        <time>2020-10-16T12:26:01.000Z</time>
      </trkpt>
      <trkpt lat="48.19845" lon="-2.86036">
        <ele>143.80000305176</ele>
        <time>2020-10-16T12:26:02.000Z</time>
      </trkpt>
      <trkpt lat="48.19848" lon="-2.86036">
        <ele>143.60000610352</ele>
        <time>2020-10-16T12:26:03.000Z</time>
      </trkpt>
      <trkpt lat="48.19852" lon="-2.86035">
        <ele>143.60000610352</ele>
        <time>2020-10-16T12:26:04.000Z</time>
      </trkpt>
      <trkpt lat="48.19859" lon="-2.86035">
        <ele>143.19999694824</ele>
        <time>2020-10-16T12:26:05.000Z</time>
      </trkpt>
      <trkpt lat="48.19859" lon="-2.86035">
        <ele>143.19999694824</ele>
        <time>2020-10-16T12:26:06.000Z</time>
      </trkpt>
      <trkpt lat="48.19862" lon="-2.86035">
        <ele>143.19999694824</ele>
        <time>2020-10-16T12:26:07.000Z</time>
      </trkpt>
      <trkpt lat="48.19865" lon="-2.86035">
        <ele>143</ele>
        <time>2020-10-16T12:26:08.000Z</time>
      </trkpt>
      <trkpt lat="48.19869" lon="-2.86035">
        <ele>142.80000305176</ele>
        <time>2020-10-16T12:26:09.000Z</time>
      </trkpt>
      <trkpt lat="48.19873" lon="-2.86034">
        <ele>142.60000610352</ele>
        <time>2020-10-16T12:26:10.000Z</time>
      </trkpt>
      <trkpt lat="48.19877" lon="-2.86034">
        <ele>142.60000610352</ele>
        <time>2020-10-16T12:26:11.000Z</time>
      </trkpt>
      <trkpt lat="48.1988" lon="-2.86033">
        <ele>142.39999389648</ele>
        <time>2020-10-16T12:26:12.000Z</time>
      </trkpt>
      <trkpt lat="48.19883" lon="-2.86033">
        <ele>142.19999694824</ele>
        <time>2020-10-16T12:26:13.000Z</time>
      </trkpt>
      <trkpt lat="48.19886" lon="-2.86032">
        <ele>142.19999694824</ele>
        <time>2020-10-16T12:26:14.000Z</time>
      </trkpt>
      <trkpt lat="48.19889" lon="-2.86032">
        <ele>142</ele>
        <time>2020-10-16T12:26:15.000Z</time>
      </trkpt>
      <trkpt lat="48.19893" lon="-2.86032">
        <ele>141.80000305176</ele>
        <time>2020-10-16T12:26:16.000Z</time>
      </trkpt>
      <trkpt lat="48.19897" lon="-2.86032">
        <ele>141.60000610352</ele>
        <time>2020-10-16T12:26:17.000Z</time>
      </trkpt>
      <trkpt lat="48.199" lon="-2.86032">
        <ele>141.60000610352</ele>
        <time>2020-10-16T12:26:18.000Z</time>
      </trkpt>
      <trkpt lat="48.19904" lon="-2.86031">
        <ele>141.39999389648</ele>
        <time>2020-10-16T12:26:19.000Z</time>
      </trkpt>
      <trkpt lat="48.19908" lon="-2.86031">
        <ele>141.19999694824</ele>
        <time>2020-10-16T12:26:20.000Z</time>
      </trkpt>
      <trkpt lat="48.19912" lon="-2.8603">
        <ele>141</ele>
        <time>2020-10-16T12:26:21.000Z</time>
      </trkpt>
      <trkpt lat="48.19916" lon="-2.8603">
        <ele>140.80000305176</ele>
        <time>2020-10-16T12:26:22.000Z</time>
      </trkpt>
      <trkpt lat="48.1992" lon="-2.86029">
        <ele>140.60000610352</ele>
        <time>2020-10-16T12:26:23.000Z</time>
      </trkpt>
      <trkpt lat="48.19923" lon="-2.86029">
        <ele>140.39999389648</ele>
        <time>2020-10-16T12:26:24.000Z</time>
      </trkpt>
      <trkpt lat="48.19927" lon="-2.86029">
        <ele>140.19999694824</ele>
        <time>2020-10-16T12:26:25.000Z</time>
      </trkpt>
      <trkpt lat="48.1993" lon="-2.86028">
        <ele>140</ele>
        <time>2020-10-16T12:26:26.000Z</time>
      </trkpt>
      <trkpt lat="48.19934" lon="-2.86029">
        <ele>140.19999694824</ele>
        <time>2020-10-16T12:26:27.000Z</time>
      </trkpt>
      <trkpt lat="48.19938" lon="-2.8603">
        <ele>140.19999694824</ele>
        <time>2020-10-16T12:26:28.000Z</time>
      </trkpt>
      <trkpt lat="48.19942" lon="-2.86032">
        <ele>140.19999694824</ele>
        <time>2020-10-16T12:26:29.000Z</time>
      </trkpt>
      <trkpt lat="48.19945" lon="-2.86034">
        <ele>140.39999389648</ele>
        <time>2020-10-16T12:26:30.000Z</time>
      </trkpt>
      <trkpt lat="48.19949" lon="-2.86035">
        <ele>140.39999389648</ele>
        <time>2020-10-16T12:26:31.000Z</time>
      </trkpt>
      <trkpt lat="48.19952" lon="-2.86036">
        <ele>140.39999389648</ele>
        <time>2020-10-16T12:26:32.000Z</time>
      </trkpt>
      <trkpt lat="48.19956" lon="-2.86038">
        <ele>140.60000610352</ele>
        <time>2020-10-16T12:26:33.000Z</time>
      </trkpt>
      <trkpt lat="48.19959" lon="-2.86039">
        <ele>140.60000610352</ele>
        <time>2020-10-16T12:26:34.000Z</time>
      </trkpt>
      <trkpt lat="48.19963" lon="-2.86041">
        <ele>140.60000610352</ele>
        <time>2020-10-16T12:26:35.000Z</time>
      </trkpt>
      <trkpt lat="48.19967" lon="-2.86042">
        <ele>140.80000305176</ele>
        <time>2020-10-16T12:26:36.000Z</time>
      </trkpt>
      <trkpt lat="48.19971" lon="-2.86044">
        <ele>140.80000305176</ele>
        <time>2020-10-16T12:26:37.000Z</time>
      </trkpt>
      <trkpt lat="48.19975" lon="-2.86046">
        <ele>141</ele>
        <time>2020-10-16T12:26:38.000Z</time>
      </trkpt>
      <trkpt lat="48.1998" lon="-2.86048">
        <ele>141.19999694824</ele>
        <time>2020-10-16T12:26:39.000Z</time>
      </trkpt>
      <trkpt lat="48.19988" lon="-2.86051">
        <ele>141.60000610352</ele>
        <time>2020-10-16T12:26:40.000Z</time>
      </trkpt>
      <trkpt lat="48.19988" lon="-2.86051">
        <ele>141.60000610352</ele>
        <time>2020-10-16T12:26:41.000Z</time>
      </trkpt>
      <trkpt lat="48.19992" lon="-2.86053">
        <ele>141.80000305176</ele>
        <time>2020-10-16T12:26:42.000Z</time>
      </trkpt>
      <trkpt lat="48.19996" lon="-2.86054">
        <ele>142.19999694824</ele>
        <time>2020-10-16T12:26:43.000Z</time>
      </trkpt>
      <trkpt lat="48.2" lon="-2.86056">
        <ele>142.39999389648</ele>
        <time>2020-10-16T12:26:44.000Z</time>
      </trkpt>
      <trkpt lat="48.20004" lon="-2.86058">
        <ele>142.60000610352</ele>
        <time>2020-10-16T12:26:45.000Z</time>
      </trkpt>
      <trkpt lat="48.20008" lon="-2.86059">
        <ele>142.80000305176</ele>
        <time>2020-10-16T12:26:46.000Z</time>
      </trkpt>
      <trkpt lat="48.20012" lon="-2.86061">
        <ele>143</ele>
        <time>2020-10-16T12:26:47.000Z</time>
      </trkpt>
      <trkpt lat="48.20016" lon="-2.86063">
        <ele>143</ele>
        <time>2020-10-16T12:26:48.000Z</time>
      </trkpt>
      <trkpt lat="48.20019" lon="-2.86064">
        <ele>143.19999694824</ele>
        <time>2020-10-16T12:26:49.000Z</time>
      </trkpt>
      <trkpt lat="48.20023" lon="-2.86065">
        <ele>143.19999694824</ele>
        <time>2020-10-16T12:26:50.000Z</time>
      </trkpt>
      <trkpt lat="48.20026" lon="-2.86067">
        <ele>143.39999389648</ele>
        <time>2020-10-16T12:26:51.000Z</time>
      </trkpt>
      <trkpt lat="48.2003" lon="-2.86069">
        <ele>143.60000610352</ele>
        <time>2020-10-16T12:26:52.000Z</time>
      </trkpt>
      <trkpt lat="48.20034" lon="-2.86071">
        <ele>143.60000610352</ele>
        <time>2020-10-16T12:26:53.000Z</time>
      </trkpt>
      <trkpt lat="48.20039" lon="-2.86073">
        <ele>143.39999389648</ele>
        <time>2020-10-16T12:26:54.000Z</time>
      </trkpt>
      <trkpt lat="48.20043" lon="-2.86075">
        <ele>143.39999389648</ele>
        <time>2020-10-16T12:26:55.000Z</time>
      </trkpt>
      <trkpt lat="48.20047" lon="-2.86077">
        <ele>143.19999694824</ele>
        <time>2020-10-16T12:26:56.000Z</time>
      </trkpt>
      <trkpt lat="48.20052" lon="-2.86079">
        <ele>143.19999694824</ele>
        <time>2020-10-16T12:26:57.000Z</time>
      </trkpt>
      <trkpt lat="48.20056" lon="-2.86082">
        <ele>143.19999694824</ele>
        <time>2020-10-16T12:26:58.000Z</time>
      </trkpt>
      <trkpt lat="48.20061" lon="-2.86084">
        <ele>143</ele>
        <time>2020-10-16T12:26:59.000Z</time>
      </trkpt>
      <trkpt lat="48.20065" lon="-2.86086">
        <ele>143</ele>
        <time>2020-10-16T12:27:00.000Z</time>
      </trkpt>
      <trkpt lat="48.20069" lon="-2.86087">
        <ele>142.80000305176</ele>
        <time>2020-10-16T12:27:01.000Z</time>
      </trkpt>
      <trkpt lat="48.20077" lon="-2.86091">
        <ele>142.80000305176</ele>
        <time>2020-10-16T12:27:02.000Z</time>
      </trkpt>
      <trkpt lat="48.20077" lon="-2.86091">
        <ele>142.80000305176</ele>
        <time>2020-10-16T12:27:03.000Z</time>
      </trkpt>
      <trkpt lat="48.20082" lon="-2.86092">
        <ele>142.60000610352</ele>
        <time>2020-10-16T12:27:04.000Z</time>
      </trkpt>
      <trkpt lat="48.20087" lon="-2.86093">
        <ele>142.39999389648</ele>
        <time>2020-10-16T12:27:05.000Z</time>
      </trkpt>
      <trkpt lat="48.20091" lon="-2.86093">
        <ele>142.19999694824</ele>
        <time>2020-10-16T12:27:06.000Z</time>
      </trkpt>
      <trkpt lat="48.20095" lon="-2.86092">
        <ele>142</ele>
        <time>2020-10-16T12:27:07.000Z</time>
      </trkpt>
      <trkpt lat="48.20099" lon="-2.8609">
        <ele>142.19999694824</ele>
        <time>2020-10-16T12:27:08.000Z</time>
      </trkpt>
      <trkpt lat="48.20102" lon="-2.86088">
        <ele>142.19999694824</ele>
        <time>2020-10-16T12:27:09.000Z</time>
      </trkpt>
      <trkpt lat="48.20105" lon="-2.86086">
        <ele>142.39999389648</ele>
        <time>2020-10-16T12:27:10.000Z</time>
      </trkpt>
      <trkpt lat="48.20107" lon="-2.86083">
        <ele>142.39999389648</ele>
        <time>2020-10-16T12:27:11.000Z</time>
      </trkpt>
      <trkpt lat="48.2011" lon="-2.8608">
        <ele>142.39999389648</ele>
        <time>2020-10-16T12:27:12.000Z</time>
      </trkpt>
      <trkpt lat="48.20112" lon="-2.86077">
        <ele>142.39999389648</ele>
        <time>2020-10-16T12:27:13.000Z</time>
      </trkpt>
      <trkpt lat="48.20114" lon="-2.86074">
        <ele>142.60000610352</ele>
        <time>2020-10-16T12:27:14.000Z</time>
      </trkpt>
      <trkpt lat="48.20116" lon="-2.8607">
        <ele>142.60000610352</ele>
        <time>2020-10-16T12:27:15.000Z</time>
      </trkpt>
      <trkpt lat="48.20118" lon="-2.86067">
        <ele>142.60000610352</ele>
        <time>2020-10-16T12:27:16.000Z</time>
      </trkpt>
      <trkpt lat="48.2012" lon="-2.86064">
        <ele>142.60000610352</ele>
        <time>2020-10-16T12:27:17.000Z</time>
      </trkpt>
      <trkpt lat="48.20121" lon="-2.86061">
        <ele>142.60000610352</ele>
        <time>2020-10-16T12:27:18.000Z</time>
      </trkpt>
      <trkpt lat="48.20123" lon="-2.86059">
        <ele>142.60000610352</ele>
        <time>2020-10-16T12:27:19.000Z</time>
      </trkpt>
      <trkpt lat="48.20126" lon="-2.86052">
        <ele>142.60000610352</ele>
        <time>2020-10-16T12:27:20.000Z</time>
      </trkpt>
      <trkpt lat="48.20126" lon="-2.86052">
        <ele>142.60000610352</ele>
        <time>2020-10-16T12:27:21.000Z</time>
      </trkpt>
      <trkpt lat="48.20127" lon="-2.86048">
        <ele>142.39999389648</ele>
        <time>2020-10-16T12:27:22.000Z</time>
      </trkpt>
      <trkpt lat="48.20129" lon="-2.86044">
        <ele>142.39999389648</ele>
        <time>2020-10-16T12:27:23.000Z</time>
      </trkpt>
      <trkpt lat="48.2013" lon="-2.8604">
        <ele>142.19999694824</ele>
        <time>2020-10-16T12:27:24.000Z</time>
      </trkpt>
      <trkpt lat="48.20131" lon="-2.86036">
        <ele>142.19999694824</ele>
        <time>2020-10-16T12:27:25.000Z</time>
      </trkpt>
      <trkpt lat="48.20132" lon="-2.86031">
        <ele>142.19999694824</ele>
        <time>2020-10-16T12:27:26.000Z</time>
      </trkpt>
      <trkpt lat="48.20133" lon="-2.86027">
        <ele>142</ele>
        <time>2020-10-16T12:27:27.000Z</time>
      </trkpt>
      <trkpt lat="48.20133" lon="-2.86022">
        <ele>142</ele>
        <time>2020-10-16T12:27:28.000Z</time>
      </trkpt>
      <trkpt lat="48.20134" lon="-2.86017">
        <ele>141.80000305176</ele>
        <time>2020-10-16T12:27:29.000Z</time>
      </trkpt>
      <trkpt lat="48.20135" lon="-2.86012">
        <ele>141.60000610352</ele>
        <time>2020-10-16T12:27:30.000Z</time>
      </trkpt>
      <trkpt lat="48.20137" lon="-2.86007">
        <ele>141.60000610352</ele>
        <time>2020-10-16T12:27:31.000Z</time>
      </trkpt>
      <trkpt lat="48.20138" lon="-2.86001">
        <ele>141.39999389648</ele>
        <time>2020-10-16T12:27:32.000Z</time>
      </trkpt>
      <trkpt lat="48.20139" lon="-2.85996">
        <ele>141.19999694824</ele>
        <time>2020-10-16T12:27:33.000Z</time>
      </trkpt>
      <trkpt lat="48.2014" lon="-2.8599">
        <ele>141.19999694824</ele>
        <time>2020-10-16T12:27:34.000Z</time>
      </trkpt>
      <trkpt lat="48.20141" lon="-2.85985">
        <ele>141</ele>
        <time>2020-10-16T12:27:35.000Z</time>
      </trkpt>
      <trkpt lat="48.20142" lon="-2.85979">
        <ele>140.80000305176</ele>
        <time>2020-10-16T12:27:36.000Z</time>
      </trkpt>
      <trkpt lat="48.20144" lon="-2.85974">
        <ele>140.80000305176</ele>
        <time>2020-10-16T12:27:37.000Z</time>
      </trkpt>
      <trkpt lat="48.20146" lon="-2.85969">
        <ele>140.60000610352</ele>
        <time>2020-10-16T12:27:38.000Z</time>
      </trkpt>
      <trkpt lat="48.2015" lon="-2.85959">
        <ele>140.60000610352</ele>
        <time>2020-10-16T12:27:39.000Z</time>
      </trkpt>
      <trkpt lat="48.2015" lon="-2.85959">
        <ele>140.60000610352</ele>
        <time>2020-10-16T12:27:40.000Z</time>
      </trkpt>
      <trkpt lat="48.20152" lon="-2.85954">
        <ele>140.60000610352</ele>
        <time>2020-10-16T12:27:41.000Z</time>
      </trkpt>
      <trkpt lat="48.20154" lon="-2.8595">
        <ele>140.60000610352</ele>
        <time>2020-10-16T12:27:42.000Z</time>
      </trkpt>
      <trkpt lat="48.20157" lon="-2.85946">
        <ele>140.60000610352</ele>
        <time>2020-10-16T12:27:43.000Z</time>
      </trkpt>
      <trkpt lat="48.20159" lon="-2.85942">
        <ele>140.60000610352</ele>
        <time>2020-10-16T12:27:44.000Z</time>
      </trkpt>
      <trkpt lat="48.20162" lon="-2.85937">
        <ele>140.39999389648</ele>
        <time>2020-10-16T12:27:45.000Z</time>
      </trkpt>
      <trkpt lat="48.20164" lon="-2.85932">
        <ele>140.39999389648</ele>
        <time>2020-10-16T12:27:46.000Z</time>
      </trkpt>
      <trkpt lat="48.20166" lon="-2.85928">
        <ele>140.19999694824</ele>
        <time>2020-10-16T12:27:47.000Z</time>
      </trkpt>
      <trkpt lat="48.20169" lon="-2.85922">
        <ele>140.19999694824</ele>
        <time>2020-10-16T12:27:48.000Z</time>
      </trkpt>
      <trkpt lat="48.20171" lon="-2.85917">
        <ele>140</ele>
        <time>2020-10-16T12:27:49.000Z</time>
      </trkpt>
      <trkpt lat="48.20174" lon="-2.85912">
        <ele>139.80000305176</ele>
        <time>2020-10-16T12:27:50.000Z</time>
      </trkpt>
      <trkpt lat="48.20176" lon="-2.85907">
        <ele>139.80000305176</ele>
        <time>2020-10-16T12:27:51.000Z</time>
      </trkpt>
      <trkpt lat="48.20179" lon="-2.85902">
        <ele>139.60000610352</ele>
        <time>2020-10-16T12:27:52.000Z</time>
      </trkpt>
      <trkpt lat="48.20181" lon="-2.85898">
        <ele>139.39999389648</ele>
        <time>2020-10-16T12:27:53.000Z</time>
      </trkpt>
      <trkpt lat="48.20184" lon="-2.85894">
        <ele>139.19999694824</ele>
        <time>2020-10-16T12:27:54.000Z</time>
      </trkpt>
      <trkpt lat="48.20186" lon="-2.85891">
        <ele>139.19999694824</ele>
        <time>2020-10-16T12:27:55.000Z</time>
      </trkpt>
      <trkpt lat="48.20189" lon="-2.85888">
        <ele>139.19999694824</ele>
        <time>2020-10-16T12:27:56.000Z</time>
      </trkpt>
      <trkpt lat="48.20192" lon="-2.85885">
        <ele>139.19999694824</ele>
        <time>2020-10-16T12:27:57.000Z</time>
      </trkpt>
      <trkpt lat="48.20195" lon="-2.85883">
        <ele>139</ele>
        <time>2020-10-16T12:27:58.000Z</time>
      </trkpt>
      <trkpt lat="48.20198" lon="-2.8588">
        <ele>139.19999694824</ele>
        <time>2020-10-16T12:27:59.000Z</time>
      </trkpt>
      <trkpt lat="48.20201" lon="-2.85878">
        <ele>139.19999694824</ele>
        <time>2020-10-16T12:28:00.000Z</time>
      </trkpt>
      <trkpt lat="48.20205" lon="-2.85875">
        <ele>139.19999694824</ele>
        <time>2020-10-16T12:28:01.000Z</time>
      </trkpt>
      <trkpt lat="48.20208" lon="-2.85873">
        <ele>139.19999694824</ele>
        <time>2020-10-16T12:28:02.000Z</time>
      </trkpt>
      <trkpt lat="48.20211" lon="-2.8587">
        <ele>139.19999694824</ele>
        <time>2020-10-16T12:28:03.000Z</time>
      </trkpt>
      <trkpt lat="48.20215" lon="-2.85867">
        <ele>139.19999694824</ele>
        <time>2020-10-16T12:28:04.000Z</time>
      </trkpt>
      <trkpt lat="48.20219" lon="-2.85864">
        <ele>139.19999694824</ele>
        <time>2020-10-16T12:28:05.000Z</time>
      </trkpt>
      <trkpt lat="48.20222" lon="-2.85861">
        <ele>139.19999694824</ele>
        <time>2020-10-16T12:28:06.000Z</time>
      </trkpt>
      <trkpt lat="48.20226" lon="-2.85859">
        <ele>139.19999694824</ele>
        <time>2020-10-16T12:28:07.000Z</time>
      </trkpt>
      <trkpt lat="48.20229" lon="-2.85856">
        <ele>139.19999694824</ele>
        <time>2020-10-16T12:28:08.000Z</time>
      </trkpt>
      <trkpt lat="48.20233" lon="-2.85853">
        <ele>139.19999694824</ele>
        <time>2020-10-16T12:28:09.000Z</time>
      </trkpt>
      <trkpt lat="48.20237" lon="-2.85851">
        <ele>139.39999389648</ele>
        <time>2020-10-16T12:28:10.000Z</time>
      </trkpt>
      <trkpt lat="48.20241" lon="-2.85849">
        <ele>139.39999389648</ele>
        <time>2020-10-16T12:28:11.000Z</time>
      </trkpt>
      <trkpt lat="48.20244" lon="-2.85848">
        <ele>139.60000610352</ele>
        <time>2020-10-16T12:28:12.000Z</time>
      </trkpt>
      <trkpt lat="48.20248" lon="-2.85846">
        <ele>139.60000610352</ele>
        <time>2020-10-16T12:28:13.000Z</time>
      </trkpt>
      <trkpt lat="48.20251" lon="-2.85845">
        <ele>139.80000305176</ele>
        <time>2020-10-16T12:28:14.000Z</time>
      </trkpt>
      <trkpt lat="48.20254" lon="-2.85843">
        <ele>139.80000305176</ele>
        <time>2020-10-16T12:28:15.000Z</time>
      </trkpt>
      <trkpt lat="48.20258" lon="-2.85842">
        <ele>140</ele>
        <time>2020-10-16T12:28:16.000Z</time>
      </trkpt>
      <trkpt lat="48.20261" lon="-2.85841">
        <ele>140</ele>
        <time>2020-10-16T12:28:17.000Z</time>
      </trkpt>
      <trkpt lat="48.20265" lon="-2.8584">
        <ele>140.19999694824</ele>
        <time>2020-10-16T12:28:18.000Z</time>
      </trkpt>
      <trkpt lat="48.20268" lon="-2.8584">
        <ele>140.39999389648</ele>
        <time>2020-10-16T12:28:19.000Z</time>
      </trkpt>
      <trkpt lat="48.20272" lon="-2.85839">
        <ele>140.39999389648</ele>
        <time>2020-10-16T12:28:20.000Z</time>
      </trkpt>
      <trkpt lat="48.20276" lon="-2.85838">
        <ele>140.60000610352</ele>
        <time>2020-10-16T12:28:21.000Z</time>
      </trkpt>
      <trkpt lat="48.20279" lon="-2.85838">
        <ele>140.60000610352</ele>
        <time>2020-10-16T12:28:22.000Z</time>
      </trkpt>
      <trkpt lat="48.20282" lon="-2.85837">
        <ele>140.80000305176</ele>
        <time>2020-10-16T12:28:23.000Z</time>
      </trkpt>
      <trkpt lat="48.20286" lon="-2.85837">
        <ele>141</ele>
        <time>2020-10-16T12:28:24.000Z</time>
      </trkpt>
      <trkpt lat="48.20289" lon="-2.85837">
        <ele>141</ele>
        <time>2020-10-16T12:28:25.000Z</time>
      </trkpt>
      <trkpt lat="48.20293" lon="-2.85836">
        <ele>141.19999694824</ele>
        <time>2020-10-16T12:28:26.000Z</time>
      </trkpt>
      <trkpt lat="48.20297" lon="-2.85836">
        <ele>141.39999389648</ele>
        <time>2020-10-16T12:28:27.000Z</time>
      </trkpt>
      <trkpt lat="48.20301" lon="-2.85835">
        <ele>141.39999389648</ele>
        <time>2020-10-16T12:28:28.000Z</time>
      </trkpt>
      <trkpt lat="48.20305" lon="-2.85835">
        <ele>141.60000610352</ele>
        <time>2020-10-16T12:28:29.000Z</time>
      </trkpt>
      <trkpt lat="48.20309" lon="-2.85835">
        <ele>141.80000305176</ele>
        <time>2020-10-16T12:28:30.000Z</time>
      </trkpt>
      <trkpt lat="48.20313" lon="-2.85835">
        <ele>142</ele>
        <time>2020-10-16T12:28:31.000Z</time>
      </trkpt>
      <trkpt lat="48.20318" lon="-2.85834">
        <ele>142.19999694824</ele>
        <time>2020-10-16T12:28:32.000Z</time>
      </trkpt>
      <trkpt lat="48.20321" lon="-2.85834">
        <ele>142.39999389648</ele>
        <time>2020-10-16T12:28:33.000Z</time>
      </trkpt>
      <trkpt lat="48.20324" lon="-2.85834">
        <ele>142.39999389648</ele>
        <time>2020-10-16T12:28:34.000Z</time>
      </trkpt>
      <trkpt lat="48.20327" lon="-2.85834">
        <ele>142.60000610352</ele>
        <time>2020-10-16T12:28:35.000Z</time>
      </trkpt>
      <trkpt lat="48.20331" lon="-2.85833">
        <ele>142.80000305176</ele>
        <time>2020-10-16T12:28:36.000Z</time>
      </trkpt>
      <trkpt lat="48.20334" lon="-2.85833">
        <ele>142.80000305176</ele>
        <time>2020-10-16T12:28:37.000Z</time>
      </trkpt>
      <trkpt lat="48.20341" lon="-2.85832">
        <ele>143</ele>
        <time>2020-10-16T12:28:38.000Z</time>
      </trkpt>
      <trkpt lat="48.20341" lon="-2.85832">
        <ele>143</ele>
        <time>2020-10-16T12:28:39.000Z</time>
      </trkpt>
      <trkpt lat="48.20344" lon="-2.85831">
        <ele>143.19999694824</ele>
        <time>2020-10-16T12:28:40.000Z</time>
      </trkpt>
      <trkpt lat="48.20348" lon="-2.85831">
        <ele>143.19999694824</ele>
        <time>2020-10-16T12:28:41.000Z</time>
      </trkpt>
      <trkpt lat="48.20351" lon="-2.85831">
        <ele>143.19999694824</ele>
        <time>2020-10-16T12:28:42.000Z</time>
      </trkpt>
      <trkpt lat="48.20355" lon="-2.85831">
        <ele>143.19999694824</ele>
        <time>2020-10-16T12:28:43.000Z</time>
      </trkpt>
      <trkpt lat="48.20358" lon="-2.85831">
        <ele>143.19999694824</ele>
        <time>2020-10-16T12:28:44.000Z</time>
      </trkpt>
      <trkpt lat="48.20361" lon="-2.8583">
        <ele>143</ele>
        <time>2020-10-16T12:28:45.000Z</time>
      </trkpt>
      <trkpt lat="48.20365" lon="-2.8583">
        <ele>143.19999694824</ele>
        <time>2020-10-16T12:28:46.000Z</time>
      </trkpt>
      <trkpt lat="48.20368" lon="-2.8583">
        <ele>143.19999694824</ele>
        <time>2020-10-16T12:28:47.000Z</time>
      </trkpt>
      <trkpt lat="48.20372" lon="-2.85829">
        <ele>143.19999694824</ele>
        <time>2020-10-16T12:28:48.000Z</time>
      </trkpt>
      <trkpt lat="48.20375" lon="-2.85829">
        <ele>143.19999694824</ele>
        <time>2020-10-16T12:28:49.000Z</time>
      </trkpt>
      <trkpt lat="48.20378" lon="-2.85828">
        <ele>143</ele>
        <time>2020-10-16T12:28:50.000Z</time>
      </trkpt>
      <trkpt lat="48.20382" lon="-2.85828">
        <ele>143</ele>
        <time>2020-10-16T12:28:51.000Z</time>
      </trkpt>
      <trkpt lat="48.20385" lon="-2.85827">
        <ele>143</ele>
        <time>2020-10-16T12:28:52.000Z</time>
      </trkpt>
      <trkpt lat="48.20389" lon="-2.85827">
        <ele>143</ele>
        <time>2020-10-16T12:28:53.000Z</time>
      </trkpt>
      <trkpt lat="48.20392" lon="-2.85827">
        <ele>143</ele>
        <time>2020-10-16T12:28:54.000Z</time>
      </trkpt>
      <trkpt lat="48.20396" lon="-2.85827">
        <ele>143.19999694824</ele>
        <time>2020-10-16T12:28:55.000Z</time>
      </trkpt>
      <trkpt lat="48.20399" lon="-2.85826">
        <ele>143.19999694824</ele>
        <time>2020-10-16T12:28:56.000Z</time>
      </trkpt>
      <trkpt lat="48.20403" lon="-2.85826">
        <ele>143</ele>
        <time>2020-10-16T12:28:57.000Z</time>
      </trkpt>
      <trkpt lat="48.20407" lon="-2.85825">
        <ele>143</ele>
        <time>2020-10-16T12:28:58.000Z</time>
      </trkpt>
      <trkpt lat="48.20409" lon="-2.85825">
        <ele>143</ele>
        <time>2020-10-16T12:28:59.000Z</time>
      </trkpt>
      <trkpt lat="48.20413" lon="-2.85825">
        <ele>143.19999694824</ele>
        <time>2020-10-16T12:29:00.000Z</time>
      </trkpt>
      <trkpt lat="48.20416" lon="-2.85825">
        <ele>143.19999694824</ele>
        <time>2020-10-16T12:29:01.000Z</time>
      </trkpt>
      <trkpt lat="48.20419" lon="-2.85826">
        <ele>143.19999694824</ele>
        <time>2020-10-16T12:29:02.000Z</time>
      </trkpt>
      <trkpt lat="48.20422" lon="-2.85827">
        <ele>143.39999389648</ele>
        <time>2020-10-16T12:29:03.000Z</time>
      </trkpt>
      <trkpt lat="48.20429" lon="-2.85829">
        <ele>143.80000305176</ele>
        <time>2020-10-16T12:29:04.000Z</time>
      </trkpt>
      <trkpt lat="48.20429" lon="-2.85829">
        <ele>143.80000305176</ele>
        <time>2020-10-16T12:29:05.000Z</time>
      </trkpt>
      <trkpt lat="48.20432" lon="-2.8583">
        <ele>144</ele>
        <time>2020-10-16T12:29:06.000Z</time>
      </trkpt>
      <trkpt lat="48.20435" lon="-2.85831">
        <ele>144</ele>
        <time>2020-10-16T12:29:07.000Z</time>
      </trkpt>
      <trkpt lat="48.20438" lon="-2.85831">
        <ele>144.19999694824</ele>
        <time>2020-10-16T12:29:08.000Z</time>
      </trkpt>
      <trkpt lat="48.2044" lon="-2.85832">
        <ele>144.19999694824</ele>
        <time>2020-10-16T12:29:09.000Z</time>
      </trkpt>
      <trkpt lat="48.20443" lon="-2.85833">
        <ele>144.39999389648</ele>
        <time>2020-10-16T12:29:10.000Z</time>
      </trkpt>
      <trkpt lat="48.20446" lon="-2.85833">
        <ele>144.39999389648</ele>
        <time>2020-10-16T12:29:11.000Z</time>
      </trkpt>
      <trkpt lat="48.20449" lon="-2.85834">
        <ele>144.60000610352</ele>
        <time>2020-10-16T12:29:12.000Z</time>
      </trkpt>
      <trkpt lat="48.20451" lon="-2.85835">
        <ele>144.80000305176</ele>
        <time>2020-10-16T12:29:13.000Z</time>
      </trkpt>
      <trkpt lat="48.20453" lon="-2.85836">
        <ele>144.80000305176</ele>
        <time>2020-10-16T12:29:14.000Z</time>
      </trkpt>
      <trkpt lat="48.20455" lon="-2.85837">
        <ele>145</ele>
        <time>2020-10-16T12:29:15.000Z</time>
      </trkpt>
      <trkpt lat="48.20458" lon="-2.8584">
        <ele>145.39999389648</ele>
        <time>2020-10-16T12:29:16.000Z</time>
      </trkpt>
      <trkpt lat="48.20464" lon="-2.85845">
        <ele>145.39999389648</ele>
        <time>2020-10-16T12:29:17.000Z</time>
      </trkpt>
      <trkpt lat="48.20464" lon="-2.85845">
        <ele>145.39999389648</ele>
        <time>2020-10-16T12:29:18.000Z</time>
      </trkpt>
      <trkpt lat="48.20467" lon="-2.85848">
        <ele>145.60000610352</ele>
        <time>2020-10-16T12:29:19.000Z</time>
      </trkpt>
      <trkpt lat="48.20471" lon="-2.8585">
        <ele>145.60000610352</ele>
        <time>2020-10-16T12:29:20.000Z</time>
      </trkpt>
      <trkpt lat="48.20474" lon="-2.85852">
        <ele>145.60000610352</ele>
        <time>2020-10-16T12:29:21.000Z</time>
      </trkpt>
      <trkpt lat="48.20478" lon="-2.85853">
        <ele>145.80000305176</ele>
        <time>2020-10-16T12:29:22.000Z</time>
      </trkpt>
      <trkpt lat="48.20482" lon="-2.85852">
        <ele>145.80000305176</ele>
        <time>2020-10-16T12:29:23.000Z</time>
      </trkpt>
      <trkpt lat="48.20486" lon="-2.85851">
        <ele>145.80000305176</ele>
        <time>2020-10-16T12:29:24.000Z</time>
      </trkpt>
      <trkpt lat="48.20489" lon="-2.85849">
        <ele>145.80000305176</ele>
        <time>2020-10-16T12:29:25.000Z</time>
      </trkpt>
      <trkpt lat="48.20493" lon="-2.85848">
        <ele>145.80000305176</ele>
        <time>2020-10-16T12:29:26.000Z</time>
      </trkpt>
      <trkpt lat="48.20497" lon="-2.85846">
        <ele>145.80000305176</ele>
        <time>2020-10-16T12:29:27.000Z</time>
      </trkpt>
      <trkpt lat="48.20501" lon="-2.85843">
        <ele>146</ele>
        <time>2020-10-16T12:29:28.000Z</time>
      </trkpt>
      <trkpt lat="48.20505" lon="-2.85841">
        <ele>146</ele>
        <time>2020-10-16T12:29:29.000Z</time>
      </trkpt>
      <trkpt lat="48.20509" lon="-2.85839">
        <ele>146</ele>
        <time>2020-10-16T12:29:30.000Z</time>
      </trkpt>
      <trkpt lat="48.20514" lon="-2.85838">
        <ele>145.80000305176</ele>
        <time>2020-10-16T12:29:31.000Z</time>
      </trkpt>
      <trkpt lat="48.20519" lon="-2.85837">
        <ele>145.80000305176</ele>
        <time>2020-10-16T12:29:32.000Z</time>
      </trkpt>
      <trkpt lat="48.20523" lon="-2.85837">
        <ele>145.60000610352</ele>
        <time>2020-10-16T12:29:33.000Z</time>
      </trkpt>
      <trkpt lat="48.20527" lon="-2.85836">
        <ele>145.60000610352</ele>
        <time>2020-10-16T12:29:34.000Z</time>
      </trkpt>
      <trkpt lat="48.20531" lon="-2.85836">
        <ele>145.39999389648</ele>
        <time>2020-10-16T12:29:35.000Z</time>
      </trkpt>
      <trkpt lat="48.20534" lon="-2.85835">
        <ele>145.39999389648</ele>
        <time>2020-10-16T12:29:36.000Z</time>
      </trkpt>
      <trkpt lat="48.20543" lon="-2.85833">
        <ele>145</ele>
        <time>2020-10-16T12:29:37.000Z</time>
      </trkpt>
      <trkpt lat="48.20543" lon="-2.85833">
        <ele>145</ele>
        <time>2020-10-16T12:29:38.000Z</time>
      </trkpt>
      <trkpt lat="48.20547" lon="-2.85832">
        <ele>145</ele>
        <time>2020-10-16T12:29:39.000Z</time>
      </trkpt>
      <trkpt lat="48.20551" lon="-2.85832">
        <ele>145</ele>
        <time>2020-10-16T12:29:40.000Z</time>
      </trkpt>
      <trkpt lat="48.20556" lon="-2.85832">
        <ele>144.80000305176</ele>
        <time>2020-10-16T12:29:41.000Z</time>
      </trkpt>
      <trkpt lat="48.20559" lon="-2.85833">
        <ele>145</ele>
        <time>2020-10-16T12:29:42.000Z</time>
      </trkpt>
      <trkpt lat="48.20562" lon="-2.85835">
        <ele>145</ele>
        <time>2020-10-16T12:29:43.000Z</time>
      </trkpt>
      <trkpt lat="48.20565" lon="-2.85837">
        <ele>145.19999694824</ele>
        <time>2020-10-16T12:29:44.000Z</time>
      </trkpt>
      <trkpt lat="48.20568" lon="-2.85839">
        <ele>145.39999389648</ele>
        <time>2020-10-16T12:29:45.000Z</time>
      </trkpt>
      <trkpt lat="48.20571" lon="-2.85842">
        <ele>145.19999694824</ele>
        <time>2020-10-16T12:29:46.000Z</time>
      </trkpt>
      <trkpt lat="48.20574" lon="-2.85844">
        <ele>145.19999694824</ele>
        <time>2020-10-16T12:29:47.000Z</time>
      </trkpt>
      <trkpt lat="48.20577" lon="-2.85846">
        <ele>145.19999694824</ele>
        <time>2020-10-16T12:29:48.000Z</time>
      </trkpt>
      <trkpt lat="48.20579" lon="-2.85848">
        <ele>145</ele>
        <time>2020-10-16T12:29:49.000Z</time>
      </trkpt>
      <trkpt lat="48.20582" lon="-2.8585">
        <ele>145</ele>
        <time>2020-10-16T12:29:50.000Z</time>
      </trkpt>
      <trkpt lat="48.20584" lon="-2.85852">
        <ele>145</ele>
        <time>2020-10-16T12:29:51.000Z</time>
      </trkpt>
      <trkpt lat="48.20586" lon="-2.85854">
        <ele>145</ele>
        <time>2020-10-16T12:29:52.000Z</time>
      </trkpt>
      <trkpt lat="48.20588" lon="-2.85856">
        <ele>145.19999694824</ele>
        <time>2020-10-16T12:29:53.000Z</time>
      </trkpt>
      <trkpt lat="48.20592" lon="-2.85859">
        <ele>145.19999694824</ele>
        <time>2020-10-16T12:29:54.000Z</time>
      </trkpt>
      <trkpt lat="48.20595" lon="-2.85862">
        <ele>145.19999694824</ele>
        <time>2020-10-16T12:29:55.000Z</time>
      </trkpt>
      <trkpt lat="48.20597" lon="-2.85866">
        <ele>145.19999694824</ele>
        <time>2020-10-16T12:29:56.000Z</time>
      </trkpt>
      <trkpt lat="48.20599" lon="-2.85871">
        <ele>145</ele>
        <time>2020-10-16T12:29:57.000Z</time>
      </trkpt>
      <trkpt lat="48.20602" lon="-2.85876">
        <ele>145</ele>
        <time>2020-10-16T12:29:58.000Z</time>
      </trkpt>
      <trkpt lat="48.20605" lon="-2.85881">
        <ele>144.80000305176</ele>
        <time>2020-10-16T12:29:59.000Z</time>
      </trkpt>
      <trkpt lat="48.20611" lon="-2.85892">
        <ele>144.60000610352</ele>
        <time>2020-10-16T12:30:00.000Z</time>
      </trkpt>
      <trkpt lat="48.20611" lon="-2.85892">
        <ele>144.60000610352</ele>
        <time>2020-10-16T12:30:01.000Z</time>
      </trkpt>
      <trkpt lat="48.20613" lon="-2.85898">
        <ele>144.39999389648</ele>
        <time>2020-10-16T12:30:02.000Z</time>
      </trkpt>
      <trkpt lat="48.20616" lon="-2.85904">
        <ele>144.39999389648</ele>
        <time>2020-10-16T12:30:03.000Z</time>
      </trkpt>
      <trkpt lat="48.20621" lon="-2.85914">
        <ele>144.39999389648</ele>
        <time>2020-10-16T12:30:04.000Z</time>
      </trkpt>
      <trkpt lat="48.20621" lon="-2.85914">
        <ele>144.39999389648</ele>
        <time>2020-10-16T12:30:05.000Z</time>
      </trkpt>
      <trkpt lat="48.20624" lon="-2.8592">
        <ele>144.60000610352</ele>
        <time>2020-10-16T12:30:06.000Z</time>
      </trkpt>
      <trkpt lat="48.20626" lon="-2.85926">
        <ele>144.60000610352</ele>
        <time>2020-10-16T12:30:07.000Z</time>
      </trkpt>
      <trkpt lat="48.20629" lon="-2.85932">
        <ele>144.39999389648</ele>
        <time>2020-10-16T12:30:08.000Z</time>
      </trkpt>
      <trkpt lat="48.20631" lon="-2.85938">
        <ele>144.19999694824</ele>
        <time>2020-10-16T12:30:09.000Z</time>
      </trkpt>
      <trkpt lat="48.20633" lon="-2.85944">
        <ele>144.19999694824</ele>
        <time>2020-10-16T12:30:10.000Z</time>
      </trkpt>
      <trkpt lat="48.20633" lon="-2.85951">
        <ele>144.19999694824</ele>
        <time>2020-10-16T12:30:11.000Z</time>
      </trkpt>
      <trkpt lat="48.20634" lon="-2.85958">
        <ele>144.19999694824</ele>
        <time>2020-10-16T12:30:12.000Z</time>
      </trkpt>
      <trkpt lat="48.20634" lon="-2.85965">
        <ele>144.19999694824</ele>
        <time>2020-10-16T12:30:13.000Z</time>
      </trkpt>
      <trkpt lat="48.20633" lon="-2.85971">
        <ele>144.19999694824</ele>
        <time>2020-10-16T12:30:14.000Z</time>
      </trkpt>
      <trkpt lat="48.20632" lon="-2.85979">
        <ele>144.39999389648</ele>
        <time>2020-10-16T12:30:15.000Z</time>
      </trkpt>
      <trkpt lat="48.20632" lon="-2.85986">
        <ele>144.60000610352</ele>
        <time>2020-10-16T12:30:16.000Z</time>
      </trkpt>
      <trkpt lat="48.20631" lon="-2.85993">
        <ele>144.80000305176</ele>
        <time>2020-10-16T12:30:17.000Z</time>
      </trkpt>
      <trkpt lat="48.2063" lon="-2.85999">
        <ele>145</ele>
        <time>2020-10-16T12:30:18.000Z</time>
      </trkpt>
      <trkpt lat="48.2063" lon="-2.86006">
        <ele>145.19999694824</ele>
        <time>2020-10-16T12:30:19.000Z</time>
      </trkpt>
      <trkpt lat="48.20629" lon="-2.86013">
        <ele>145.19999694824</ele>
        <time>2020-10-16T12:30:20.000Z</time>
      </trkpt>
      <trkpt lat="48.20629" lon="-2.8602">
        <ele>145.39999389648</ele>
        <time>2020-10-16T12:30:21.000Z</time>
      </trkpt>
      <trkpt lat="48.20628" lon="-2.86027">
        <ele>145.39999389648</ele>
        <time>2020-10-16T12:30:22.000Z</time>
      </trkpt>
      <trkpt lat="48.20628" lon="-2.86034">
        <ele>145.60000610352</ele>
        <time>2020-10-16T12:30:23.000Z</time>
      </trkpt>
      <trkpt lat="48.20627" lon="-2.8604">
        <ele>145.60000610352</ele>
        <time>2020-10-16T12:30:24.000Z</time>
      </trkpt>
      <trkpt lat="48.20626" lon="-2.86047">
        <ele>145.80000305176</ele>
        <time>2020-10-16T12:30:25.000Z</time>
      </trkpt>
      <trkpt lat="48.20626" lon="-2.86053">
        <ele>145.80000305176</ele>
        <time>2020-10-16T12:30:26.000Z</time>
      </trkpt>
      <trkpt lat="48.20625" lon="-2.86059">
        <ele>146</ele>
        <time>2020-10-16T12:30:27.000Z</time>
      </trkpt>
      <trkpt lat="48.20624" lon="-2.86064">
        <ele>145.80000305176</ele>
        <time>2020-10-16T12:30:28.000Z</time>
      </trkpt>
      <trkpt lat="48.20622" lon="-2.86069">
        <ele>145.80000305176</ele>
        <time>2020-10-16T12:30:29.000Z</time>
      </trkpt>
      <trkpt lat="48.20621" lon="-2.86075">
        <ele>145.60000610352</ele>
        <time>2020-10-16T12:30:30.000Z</time>
      </trkpt>
      <trkpt lat="48.20619" lon="-2.8608">
        <ele>145.60000610352</ele>
        <time>2020-10-16T12:30:31.000Z</time>
      </trkpt>
      <trkpt lat="48.20618" lon="-2.86085">
        <ele>145.60000610352</ele>
        <time>2020-10-16T12:30:32.000Z</time>
      </trkpt>
      <trkpt lat="48.20616" lon="-2.86089">
        <ele>145.60000610352</ele>
        <time>2020-10-16T12:30:33.000Z</time>
      </trkpt>
      <trkpt lat="48.20614" lon="-2.86094">
        <ele>145.80000305176</ele>
        <time>2020-10-16T12:30:34.000Z</time>
      </trkpt>
      <trkpt lat="48.20613" lon="-2.86098">
        <ele>146</ele>
        <time>2020-10-16T12:30:35.000Z</time>
      </trkpt>
      <trkpt lat="48.20608" lon="-2.86106">
        <ele>146.39999389648</ele>
        <time>2020-10-16T12:30:36.000Z</time>
      </trkpt>
      <trkpt lat="48.20608" lon="-2.86106">
        <ele>146.39999389648</ele>
        <time>2020-10-16T12:30:37.000Z</time>
      </trkpt>
      <trkpt lat="48.20606" lon="-2.86111">
        <ele>146.80000305176</ele>
        <time>2020-10-16T12:30:38.000Z</time>
      </trkpt>
      <trkpt lat="48.20604" lon="-2.86115">
        <ele>147</ele>
        <time>2020-10-16T12:30:39.000Z</time>
      </trkpt>
      <trkpt lat="48.20601" lon="-2.8612">
        <ele>147.39999389648</ele>
        <time>2020-10-16T12:30:40.000Z</time>
      </trkpt>
      <trkpt lat="48.20599" lon="-2.86125">
        <ele>147.60000610352</ele>
        <time>2020-10-16T12:30:41.000Z</time>
      </trkpt>
      <trkpt lat="48.20596" lon="-2.86129">
        <ele>147.80000305176</ele>
        <time>2020-10-16T12:30:42.000Z</time>
      </trkpt>
      <trkpt lat="48.20594" lon="-2.86134">
        <ele>148</ele>
        <time>2020-10-16T12:30:43.000Z</time>
      </trkpt>
      <trkpt lat="48.20592" lon="-2.86138">
        <ele>148.19999694824</ele>
        <time>2020-10-16T12:30:44.000Z</time>
      </trkpt>
      <trkpt lat="48.20589" lon="-2.86142">
        <ele>148.19999694824</ele>
        <time>2020-10-16T12:30:45.000Z</time>
      </trkpt>
      <trkpt lat="48.20587" lon="-2.86146">
        <ele>148.19999694824</ele>
        <time>2020-10-16T12:30:46.000Z</time>
      </trkpt>
      <trkpt lat="48.20584" lon="-2.8615">
        <ele>148.39999389648</ele>
        <time>2020-10-16T12:30:47.000Z</time>
      </trkpt>
      <trkpt lat="48.20582" lon="-2.86153">
        <ele>148.39999389648</ele>
        <time>2020-10-16T12:30:48.000Z</time>
      </trkpt>
      <trkpt lat="48.20581" lon="-2.86156">
        <ele>148.39999389648</ele>
        <time>2020-10-16T12:30:49.000Z</time>
      </trkpt>
      <trkpt lat="48.20579" lon="-2.8616">
        <ele>148.60000610352</ele>
        <time>2020-10-16T12:30:50.000Z</time>
      </trkpt>
      <trkpt lat="48.20577" lon="-2.86164">
        <ele>148.60000610352</ele>
        <time>2020-10-16T12:30:51.000Z</time>
      </trkpt>
      <trkpt lat="48.20574" lon="-2.86169">
        <ele>148.60000610352</ele>
        <time>2020-10-16T12:30:52.000Z</time>
      </trkpt>
      <trkpt lat="48.20572" lon="-2.86175">
        <ele>148.80000305176</ele>
        <time>2020-10-16T12:30:53.000Z</time>
      </trkpt>
      <trkpt lat="48.2057" lon="-2.8618">
        <ele>148.80000305176</ele>
        <time>2020-10-16T12:30:54.000Z</time>
      </trkpt>
      <trkpt lat="48.20569" lon="-2.86186">
        <ele>148.60000610352</ele>
        <time>2020-10-16T12:30:55.000Z</time>
      </trkpt>
      <trkpt lat="48.20568" lon="-2.86198">
        <ele>148.60000610352</ele>
        <time>2020-10-16T12:30:56.000Z</time>
      </trkpt>
      <trkpt lat="48.20568" lon="-2.86198">
        <ele>148.60000610352</ele>
        <time>2020-10-16T12:30:57.000Z</time>
      </trkpt>
      <trkpt lat="48.20567" lon="-2.86205">
        <ele>148.39999389648</ele>
        <time>2020-10-16T12:30:58.000Z</time>
      </trkpt>
      <trkpt lat="48.20566" lon="-2.86211">
        <ele>148.19999694824</ele>
        <time>2020-10-16T12:30:59.000Z</time>
      </trkpt>
      <trkpt lat="48.20565" lon="-2.86216">
        <ele>148</ele>
        <time>2020-10-16T12:31:00.000Z</time>
      </trkpt>
      <trkpt lat="48.20563" lon="-2.86222">
        <ele>147.80000305176</ele>
        <time>2020-10-16T12:31:01.000Z</time>
      </trkpt>
      <trkpt lat="48.20561" lon="-2.86228">
        <ele>147.60000610352</ele>
        <time>2020-10-16T12:31:02.000Z</time>
      </trkpt>
      <trkpt lat="48.20559" lon="-2.86234">
        <ele>147.39999389648</ele>
        <time>2020-10-16T12:31:03.000Z</time>
      </trkpt>
      <trkpt lat="48.20556" lon="-2.86239">
        <ele>147.19999694824</ele>
        <time>2020-10-16T12:31:04.000Z</time>
      </trkpt>
      <trkpt lat="48.2055" lon="-2.86251">
        <ele>146.80000305176</ele>
        <time>2020-10-16T12:31:05.000Z</time>
      </trkpt>
      <trkpt lat="48.2055" lon="-2.86251">
        <ele>146.80000305176</ele>
        <time>2020-10-16T12:31:06.000Z</time>
      </trkpt>
      <trkpt lat="48.20547" lon="-2.86258">
        <ele>146.80000305176</ele>
        <time>2020-10-16T12:31:07.000Z</time>
      </trkpt>
      <trkpt lat="48.20544" lon="-2.86263">
        <ele>146.80000305176</ele>
        <time>2020-10-16T12:31:08.000Z</time>
      </trkpt>
      <trkpt lat="48.20541" lon="-2.86269">
        <ele>147</ele>
        <time>2020-10-16T12:31:09.000Z</time>
      </trkpt>
      <trkpt lat="48.20539" lon="-2.86274">
        <ele>147</ele>
        <time>2020-10-16T12:31:10.000Z</time>
      </trkpt>
      <trkpt lat="48.20536" lon="-2.86279">
        <ele>147.19999694824</ele>
        <time>2020-10-16T12:31:11.000Z</time>
      </trkpt>
      <trkpt lat="48.20534" lon="-2.86285">
        <ele>147.19999694824</ele>
        <time>2020-10-16T12:31:12.000Z</time>
      </trkpt>
      <trkpt lat="48.20531" lon="-2.8629">
        <ele>147.39999389648</ele>
        <time>2020-10-16T12:31:13.000Z</time>
      </trkpt>
      <trkpt lat="48.20528" lon="-2.86296">
        <ele>147.39999389648</ele>
        <time>2020-10-16T12:31:14.000Z</time>
      </trkpt>
      <trkpt lat="48.20523" lon="-2.86306">
        <ele>147.60000610352</ele>
        <time>2020-10-16T12:31:15.000Z</time>
      </trkpt>
      <trkpt lat="48.20523" lon="-2.86306">
        <ele>147.60000610352</ele>
        <time>2020-10-16T12:31:16.000Z</time>
      </trkpt>
      <trkpt lat="48.20521" lon="-2.86311">
        <ele>147.60000610352</ele>
        <time>2020-10-16T12:31:17.000Z</time>
      </trkpt>
      <trkpt lat="48.20519" lon="-2.86317">
        <ele>147.80000305176</ele>
        <time>2020-10-16T12:31:18.000Z</time>
      </trkpt>
      <trkpt lat="48.20516" lon="-2.86322">
        <ele>147.80000305176</ele>
        <time>2020-10-16T12:31:19.000Z</time>
      </trkpt>
      <trkpt lat="48.20514" lon="-2.86328">
        <ele>148</ele>
        <time>2020-10-16T12:31:20.000Z</time>
      </trkpt>
      <trkpt lat="48.20511" lon="-2.86334">
        <ele>148</ele>
        <time>2020-10-16T12:31:21.000Z</time>
      </trkpt>
      <trkpt lat="48.2051" lon="-2.86339">
        <ele>148</ele>
        <time>2020-10-16T12:31:22.000Z</time>
      </trkpt>
      <trkpt lat="48.20508" lon="-2.86345">
        <ele>148</ele>
        <time>2020-10-16T12:31:23.000Z</time>
      </trkpt>
      <trkpt lat="48.20505" lon="-2.86351">
        <ele>148</ele>
        <time>2020-10-16T12:31:24.000Z</time>
      </trkpt>
      <trkpt lat="48.20503" lon="-2.86357">
        <ele>148</ele>
        <time>2020-10-16T12:31:25.000Z</time>
      </trkpt>
      <trkpt lat="48.20501" lon="-2.86363">
        <ele>148</ele>
        <time>2020-10-16T12:31:26.000Z</time>
      </trkpt>
      <trkpt lat="48.20499" lon="-2.86369">
        <ele>148</ele>
        <time>2020-10-16T12:31:27.000Z</time>
      </trkpt>
      <trkpt lat="48.20497" lon="-2.86374">
        <ele>147.80000305176</ele>
        <time>2020-10-16T12:31:28.000Z</time>
      </trkpt>
      <trkpt lat="48.20495" lon="-2.8638">
        <ele>147.80000305176</ele>
        <time>2020-10-16T12:31:29.000Z</time>
      </trkpt>
      <trkpt lat="48.20493" lon="-2.86384">
        <ele>147.80000305176</ele>
        <time>2020-10-16T12:31:30.000Z</time>
      </trkpt>
      <trkpt lat="48.20491" lon="-2.8639">
        <ele>147.80000305176</ele>
        <time>2020-10-16T12:31:31.000Z</time>
      </trkpt>
      <trkpt lat="48.20489" lon="-2.86396">
        <ele>147.80000305176</ele>
        <time>2020-10-16T12:31:32.000Z</time>
      </trkpt>
      <trkpt lat="48.20487" lon="-2.86402">
        <ele>147.60000610352</ele>
        <time>2020-10-16T12:31:33.000Z</time>
      </trkpt>
      <trkpt lat="48.20485" lon="-2.86409">
        <ele>147.60000610352</ele>
        <time>2020-10-16T12:31:34.000Z</time>
      </trkpt>
      <trkpt lat="48.20483" lon="-2.86416">
        <ele>147.60000610352</ele>
        <time>2020-10-16T12:31:35.000Z</time>
      </trkpt>
      <trkpt lat="48.20481" lon="-2.86423">
        <ele>147.39999389648</ele>
        <time>2020-10-16T12:31:36.000Z</time>
      </trkpt>
      <trkpt lat="48.2048" lon="-2.86429">
        <ele>147.39999389648</ele>
        <time>2020-10-16T12:31:37.000Z</time>
      </trkpt>
      <trkpt lat="48.20478" lon="-2.86436">
        <ele>147.19999694824</ele>
        <time>2020-10-16T12:31:38.000Z</time>
      </trkpt>
      <trkpt lat="48.20478" lon="-2.86442">
        <ele>147.19999694824</ele>
        <time>2020-10-16T12:31:39.000Z</time>
      </trkpt>
      <trkpt lat="48.20479" lon="-2.86449">
        <ele>147</ele>
        <time>2020-10-16T12:31:40.000Z</time>
      </trkpt>
      <trkpt lat="48.20479" lon="-2.86456">
        <ele>146.80000305176</ele>
        <time>2020-10-16T12:31:41.000Z</time>
      </trkpt>
      <trkpt lat="48.20479" lon="-2.86463">
        <ele>146.39999389648</ele>
        <time>2020-10-16T12:31:42.000Z</time>
      </trkpt>
      <trkpt lat="48.20479" lon="-2.8647">
        <ele>146</ele>
        <time>2020-10-16T12:31:43.000Z</time>
      </trkpt>
      <trkpt lat="48.20478" lon="-2.86476">
        <ele>145.60000610352</ele>
        <time>2020-10-16T12:31:44.000Z</time>
      </trkpt>
      <trkpt lat="48.20477" lon="-2.86482">
        <ele>145.39999389648</ele>
        <time>2020-10-16T12:31:45.000Z</time>
      </trkpt>
      <trkpt lat="48.20475" lon="-2.86488">
        <ele>145.19999694824</ele>
        <time>2020-10-16T12:31:46.000Z</time>
      </trkpt>
      <trkpt lat="48.20474" lon="-2.86494">
        <ele>145</ele>
        <time>2020-10-16T12:31:47.000Z</time>
      </trkpt>
      <trkpt lat="48.20472" lon="-2.86499">
        <ele>144.80000305176</ele>
        <time>2020-10-16T12:31:48.000Z</time>
      </trkpt>
      <trkpt lat="48.20471" lon="-2.86505">
        <ele>144.60000610352</ele>
        <time>2020-10-16T12:31:49.000Z</time>
      </trkpt>
      <trkpt lat="48.20469" lon="-2.8651">
        <ele>144.39999389648</ele>
        <time>2020-10-16T12:31:50.000Z</time>
      </trkpt>
      <trkpt lat="48.20468" lon="-2.86515">
        <ele>144.39999389648</ele>
        <time>2020-10-16T12:31:51.000Z</time>
      </trkpt>
      <trkpt lat="48.20466" lon="-2.86521">
        <ele>144.39999389648</ele>
        <time>2020-10-16T12:31:52.000Z</time>
      </trkpt>
      <trkpt lat="48.20465" lon="-2.86527">
        <ele>144.39999389648</ele>
        <time>2020-10-16T12:31:53.000Z</time>
      </trkpt>
      <trkpt lat="48.20464" lon="-2.86533">
        <ele>144.39999389648</ele>
        <time>2020-10-16T12:31:54.000Z</time>
      </trkpt>
      <trkpt lat="48.20462" lon="-2.86539">
        <ele>144.39999389648</ele>
        <time>2020-10-16T12:31:55.000Z</time>
      </trkpt>
      <trkpt lat="48.2046" lon="-2.86545">
        <ele>144.39999389648</ele>
        <time>2020-10-16T12:31:56.000Z</time>
      </trkpt>
      <trkpt lat="48.20458" lon="-2.86551">
        <ele>144.39999389648</ele>
        <time>2020-10-16T12:31:57.000Z</time>
      </trkpt>
      <trkpt lat="48.20457" lon="-2.86556">
        <ele>144.39999389648</ele>
        <time>2020-10-16T12:31:58.000Z</time>
      </trkpt>
      <trkpt lat="48.20455" lon="-2.86561">
        <ele>144.39999389648</ele>
        <time>2020-10-16T12:31:59.000Z</time>
      </trkpt>
      <trkpt lat="48.2045" lon="-2.8657">
        <ele>144.60000610352</ele>
        <time>2020-10-16T12:32:00.000Z</time>
      </trkpt>
      <trkpt lat="48.2045" lon="-2.8657">
        <ele>144.60000610352</ele>
        <time>2020-10-16T12:32:01.000Z</time>
      </trkpt>
      <trkpt lat="48.20448" lon="-2.86575">
        <ele>144.60000610352</ele>
        <time>2020-10-16T12:32:02.000Z</time>
      </trkpt>
      <trkpt lat="48.20446" lon="-2.8658">
        <ele>144.60000610352</ele>
        <time>2020-10-16T12:32:03.000Z</time>
      </trkpt>
      <trkpt lat="48.20445" lon="-2.86585">
        <ele>144.60000610352</ele>
        <time>2020-10-16T12:32:04.000Z</time>
      </trkpt>
      <trkpt lat="48.20444" lon="-2.8659">
        <ele>144.60000610352</ele>
        <time>2020-10-16T12:32:05.000Z</time>
      </trkpt>
      <trkpt lat="48.20442" lon="-2.86595">
        <ele>144.80000305176</ele>
        <time>2020-10-16T12:32:06.000Z</time>
      </trkpt>
      <trkpt lat="48.2044" lon="-2.86606">
        <ele>145.19999694824</ele>
        <time>2020-10-16T12:32:07.000Z</time>
      </trkpt>
      <trkpt lat="48.2044" lon="-2.86606">
        <ele>145.19999694824</ele>
        <time>2020-10-16T12:32:08.000Z</time>
      </trkpt>
      <trkpt lat="48.20438" lon="-2.86611">
        <ele>145.39999389648</ele>
        <time>2020-10-16T12:32:09.000Z</time>
      </trkpt>
      <trkpt lat="48.20437" lon="-2.86616">
        <ele>145.39999389648</ele>
        <time>2020-10-16T12:32:10.000Z</time>
      </trkpt>
      <trkpt lat="48.20436" lon="-2.86621">
        <ele>145.60000610352</ele>
        <time>2020-10-16T12:32:11.000Z</time>
      </trkpt>
      <trkpt lat="48.20435" lon="-2.86627">
        <ele>145.80000305176</ele>
        <time>2020-10-16T12:32:12.000Z</time>
      </trkpt>
      <trkpt lat="48.20433" lon="-2.86637">
        <ele>146.19999694824</ele>
        <time>2020-10-16T12:32:13.000Z</time>
      </trkpt>
      <trkpt lat="48.20433" lon="-2.86637">
        <ele>146.19999694824</ele>
        <time>2020-10-16T12:32:14.000Z</time>
      </trkpt>
      <trkpt lat="48.20431" lon="-2.86643">
        <ele>146.39999389648</ele>
        <time>2020-10-16T12:32:15.000Z</time>
      </trkpt>
      <trkpt lat="48.2043" lon="-2.86648">
        <ele>146.60000610352</ele>
        <time>2020-10-16T12:32:16.000Z</time>
      </trkpt>
      <trkpt lat="48.20428" lon="-2.86653">
        <ele>146.80000305176</ele>
        <time>2020-10-16T12:32:17.000Z</time>
      </trkpt>
      <trkpt lat="48.20426" lon="-2.86658">
        <ele>147</ele>
        <time>2020-10-16T12:32:18.000Z</time>
      </trkpt>
      <trkpt lat="48.20424" lon="-2.86663">
        <ele>147</ele>
        <time>2020-10-16T12:32:19.000Z</time>
      </trkpt>
      <trkpt lat="48.20423" lon="-2.86668">
        <ele>147.19999694824</ele>
        <time>2020-10-16T12:32:20.000Z</time>
      </trkpt>
      <trkpt lat="48.20421" lon="-2.86673">
        <ele>147.19999694824</ele>
        <time>2020-10-16T12:32:21.000Z</time>
      </trkpt>
      <trkpt lat="48.20419" lon="-2.86678">
        <ele>147.19999694824</ele>
        <time>2020-10-16T12:32:22.000Z</time>
      </trkpt>
      <trkpt lat="48.20417" lon="-2.86683">
        <ele>147.19999694824</ele>
        <time>2020-10-16T12:32:23.000Z</time>
      </trkpt>
      <trkpt lat="48.20416" lon="-2.86689">
        <ele>147.19999694824</ele>
        <time>2020-10-16T12:32:24.000Z</time>
      </trkpt>
      <trkpt lat="48.20414" lon="-2.86694">
        <ele>147.19999694824</ele>
        <time>2020-10-16T12:32:25.000Z</time>
      </trkpt>
      <trkpt lat="48.20412" lon="-2.86698">
        <ele>147</ele>
        <time>2020-10-16T12:32:26.000Z</time>
      </trkpt>
      <trkpt lat="48.20409" lon="-2.86703">
        <ele>147</ele>
        <time>2020-10-16T12:32:27.000Z</time>
      </trkpt>
      <trkpt lat="48.20407" lon="-2.86708">
        <ele>147</ele>
        <time>2020-10-16T12:32:28.000Z</time>
      </trkpt>
      <trkpt lat="48.20404" lon="-2.86711">
        <ele>147</ele>
        <time>2020-10-16T12:32:29.000Z</time>
      </trkpt>
      <trkpt lat="48.20401" lon="-2.86714">
        <ele>147.19999694824</ele>
        <time>2020-10-16T12:32:30.000Z</time>
      </trkpt>
      <trkpt lat="48.20397" lon="-2.86717">
        <ele>147.19999694824</ele>
        <time>2020-10-16T12:32:31.000Z</time>
      </trkpt>
      <trkpt lat="48.20394" lon="-2.8672">
        <ele>147.39999389648</ele>
        <time>2020-10-16T12:32:32.000Z</time>
      </trkpt>
      <trkpt lat="48.2039" lon="-2.86721">
        <ele>147.60000610352</ele>
        <time>2020-10-16T12:32:33.000Z</time>
      </trkpt>
      <trkpt lat="48.20386" lon="-2.86722">
        <ele>147.80000305176</ele>
        <time>2020-10-16T12:32:34.000Z</time>
      </trkpt>
      <trkpt lat="48.20382" lon="-2.86722">
        <ele>148</ele>
        <time>2020-10-16T12:32:35.000Z</time>
      </trkpt>
      <trkpt lat="48.20378" lon="-2.86722">
        <ele>148.19999694824</ele>
        <time>2020-10-16T12:32:36.000Z</time>
      </trkpt>
      <trkpt lat="48.20375" lon="-2.86723">
        <ele>148.39999389648</ele>
        <time>2020-10-16T12:32:37.000Z</time>
      </trkpt>
      <trkpt lat="48.20371" lon="-2.86724">
        <ele>148.39999389648</ele>
        <time>2020-10-16T12:32:38.000Z</time>
      </trkpt>
      <trkpt lat="48.20367" lon="-2.86725">
        <ele>148.60000610352</ele>
        <time>2020-10-16T12:32:39.000Z</time>
      </trkpt>
      <trkpt lat="48.20364" lon="-2.86727">
        <ele>148.60000610352</ele>
        <time>2020-10-16T12:32:40.000Z</time>
      </trkpt>
      <trkpt lat="48.2036" lon="-2.86728">
        <ele>148.80000305176</ele>
        <time>2020-10-16T12:32:41.000Z</time>
      </trkpt>
      <trkpt lat="48.20357" lon="-2.8673">
        <ele>148.80000305176</ele>
        <time>2020-10-16T12:32:42.000Z</time>
      </trkpt>
      <trkpt lat="48.20354" lon="-2.86732">
        <ele>149</ele>
        <time>2020-10-16T12:32:43.000Z</time>
      </trkpt>
      <trkpt lat="48.20351" lon="-2.86734">
        <ele>149</ele>
        <time>2020-10-16T12:32:44.000Z</time>
      </trkpt>
      <trkpt lat="48.20347" lon="-2.86736">
        <ele>149.19999694824</ele>
        <time>2020-10-16T12:32:45.000Z</time>
      </trkpt>
      <trkpt lat="48.20344" lon="-2.86737">
        <ele>149.19999694824</ele>
        <time>2020-10-16T12:32:46.000Z</time>
      </trkpt>
      <trkpt lat="48.20341" lon="-2.86739">
        <ele>149.19999694824</ele>
        <time>2020-10-16T12:32:47.000Z</time>
      </trkpt>
      <trkpt lat="48.20339" lon="-2.86741">
        <ele>149.19999694824</ele>
        <time>2020-10-16T12:32:48.000Z</time>
      </trkpt>
      <trkpt lat="48.20336" lon="-2.86744">
        <ele>149.19999694824</ele>
        <time>2020-10-16T12:32:49.000Z</time>
      </trkpt>
      <trkpt lat="48.20334" lon="-2.86746">
        <ele>149.19999694824</ele>
        <time>2020-10-16T12:32:50.000Z</time>
      </trkpt>
      <trkpt lat="48.20332" lon="-2.86748">
        <ele>149</ele>
        <time>2020-10-16T12:32:51.000Z</time>
      </trkpt>
      <trkpt lat="48.2033" lon="-2.86751">
        <ele>149</ele>
        <time>2020-10-16T12:32:52.000Z</time>
      </trkpt>
      <trkpt lat="48.20329" lon="-2.86754">
        <ele>149</ele>
        <time>2020-10-16T12:32:53.000Z</time>
      </trkpt>
      <trkpt lat="48.20327" lon="-2.86759">
        <ele>149</ele>
        <time>2020-10-16T12:32:54.000Z</time>
      </trkpt>
      <trkpt lat="48.20327" lon="-2.86759">
        <ele>149</ele>
        <time>2020-10-16T12:32:55.000Z</time>
      </trkpt>
      <trkpt lat="48.20326" lon="-2.86762">
        <ele>149</ele>
        <time>2020-10-16T12:32:56.000Z</time>
      </trkpt>
      <trkpt lat="48.20325" lon="-2.86765">
        <ele>149</ele>
        <time>2020-10-16T12:32:57.000Z</time>
      </trkpt>
      <trkpt lat="48.20324" lon="-2.86767">
        <ele>149</ele>
        <time>2020-10-16T12:32:58.000Z</time>
      </trkpt>
      <trkpt lat="48.20323" lon="-2.86769">
        <ele>149</ele>
        <time>2020-10-16T12:32:59.000Z</time>
      </trkpt>
      <trkpt lat="48.20322" lon="-2.86771">
        <ele>149</ele>
        <time>2020-10-16T12:33:00.000Z</time>
      </trkpt>
      <trkpt lat="48.20321" lon="-2.86773">
        <ele>149</ele>
        <time>2020-10-16T12:33:01.000Z</time>
      </trkpt>
      <trkpt lat="48.20319" lon="-2.86779">
        <ele>149</ele>
        <time>2020-10-16T12:33:02.000Z</time>
      </trkpt>
      <trkpt lat="48.20319" lon="-2.86782">
        <ele>149</ele>
        <time>2020-10-16T12:33:03.000Z</time>
      </trkpt>
      <trkpt lat="48.20319" lon="-2.86782">
        <ele>149</ele>
        <time>2020-10-16T12:33:04.000Z</time>
      </trkpt>
      <trkpt lat="48.20318" lon="-2.86784">
        <ele>149</ele>
        <time>2020-10-16T12:33:05.000Z</time>
      </trkpt>
      <trkpt lat="48.20317" lon="-2.86785">
        <ele>148.80000305176</ele>
        <time>2020-10-16T12:33:06.000Z</time>
      </trkpt>
      <trkpt lat="48.20317" lon="-2.86786">
        <ele>148.80000305176</ele>
        <time>2020-10-16T12:33:07.000Z</time>
      </trkpt>
      <trkpt lat="48.20317" lon="-2.86786">
        <ele>148.80000305176</ele>
        <time>2020-10-16T12:33:08.000Z</time>
      </trkpt>
      <trkpt lat="48.20317" lon="-2.86787">
        <ele>148.80000305176</ele>
        <time>2020-10-16T12:33:09.000Z</time>
      </trkpt>
      <trkpt lat="48.20317" lon="-2.86787">
        <ele>148.80000305176</ele>
        <time>2020-10-16T12:33:10.000Z</time>
      </trkpt>
      <trkpt lat="48.20317" lon="-2.86787">
        <ele>148.80000305176</ele>
        <time>2020-10-16T12:33:11.000Z</time>
      </trkpt>
      <trkpt lat="48.20317" lon="-2.86787">
        <ele>148.60000610352</ele>
        <time>2020-10-16T12:33:12.000Z</time>
      </trkpt>
      <trkpt lat="48.20317" lon="-2.86788">
        <ele>148.60000610352</ele>
        <time>2020-10-16T12:33:13.000Z</time>
      </trkpt>
      <trkpt lat="48.20317" lon="-2.86788">
        <ele>148.60000610352</ele>
        <time>2020-10-16T12:33:14.000Z</time>
      </trkpt>
      <trkpt lat="48.20317" lon="-2.86788">
        <ele>148.60000610352</ele>
        <time>2020-10-16T12:33:15.000Z</time>
      </trkpt>
      <trkpt lat="48.20317" lon="-2.86788">
        <ele>148.60000610352</ele>
        <time>2020-10-16T12:33:16.000Z</time>
      </trkpt>
      <trkpt lat="48.20317" lon="-2.86788">
        <ele>148.60000610352</ele>
        <time>2020-10-16T12:33:17.000Z</time>
      </trkpt>
      <trkpt lat="48.20317" lon="-2.86788">
        <ele>148.60000610352</ele>
        <time>2020-10-16T12:33:18.000Z</time>
      </trkpt>
      <trkpt lat="48.20317" lon="-2.86788">
        <ele>148.60000610352</ele>
        <time>2020-10-16T12:33:19.000Z</time>
      </trkpt>
      <trkpt lat="48.20317" lon="-2.86788">
        <ele>148.60000610352</ele>
        <time>2020-10-16T12:33:20.000Z</time>
      </trkpt>
      <trkpt lat="48.20317" lon="-2.86788">
        <ele>148.60000610352</ele>
        <time>2020-10-16T12:33:21.000Z</time>
      </trkpt>
      <trkpt lat="48.20317" lon="-2.86788">
        <ele>148.60000610352</ele>
        <time>2020-10-16T12:33:22.000Z</time>
      </trkpt>
      <trkpt lat="48.20317" lon="-2.86788">
        <ele>148.60000610352</ele>
        <time>2020-10-16T12:33:23.000Z</time>
      </trkpt>
      <trkpt lat="48.20317" lon="-2.86788">
        <ele>148.60000610352</ele>
        <time>2020-10-16T12:33:24.000Z</time>
      </trkpt>
      <trkpt lat="48.20317" lon="-2.86788">
        <ele>148.60000610352</ele>
        <time>2020-10-16T12:33:25.000Z</time>
      </trkpt>
      <trkpt lat="48.20318" lon="-2.86788">
        <ele>148.39999389648</ele>
        <time>2020-10-16T12:33:26.000Z</time>
      </trkpt>
      <trkpt lat="48.20318" lon="-2.86788">
        <ele>148.39999389648</ele>
        <time>2020-10-16T12:33:27.000Z</time>
      </trkpt>
      <trkpt lat="48.20318" lon="-2.86789">
        <ele>148.39999389648</ele>
        <time>2020-10-16T12:33:28.000Z</time>
      </trkpt>
      <trkpt lat="48.20318" lon="-2.86789">
        <ele>148.39999389648</ele>
        <time>2020-10-16T12:33:29.000Z</time>
      </trkpt>
      <trkpt lat="48.20318" lon="-2.86789">
        <ele>148.39999389648</ele>
        <time>2020-10-16T12:33:30.000Z</time>
      </trkpt>
      <trkpt lat="48.20318" lon="-2.86789">
        <ele>148.39999389648</ele>
        <time>2020-10-16T12:33:31.000Z</time>
      </trkpt>
      <trkpt lat="48.20318" lon="-2.86789">
        <ele>148.39999389648</ele>
        <time>2020-10-16T12:33:32.000Z</time>
      </trkpt>
      <trkpt lat="48.20318" lon="-2.86789">
        <ele>148.39999389648</ele>
        <time>2020-10-16T12:33:33.000Z</time>
      </trkpt>
      <trkpt lat="48.20318" lon="-2.86789">
        <ele>148.39999389648</ele>
        <time>2020-10-16T12:33:34.000Z</time>
      </trkpt>
      <trkpt lat="48.20318" lon="-2.86789">
        <ele>148.39999389648</ele>
        <time>2020-10-16T12:33:35.000Z</time>
      </trkpt>
      <trkpt lat="48.20319" lon="-2.86789">
        <ele>148.39999389648</ele>
        <time>2020-10-16T12:33:36.000Z</time>
      </trkpt>
      <trkpt lat="48.20319" lon="-2.86789">
        <ele>148.39999389648</ele>
        <time>2020-10-16T12:33:37.000Z</time>
      </trkpt>
      <trkpt lat="48.20319" lon="-2.86789">
        <ele>148.19999694824</ele>
        <time>2020-10-16T12:33:38.000Z</time>
      </trkpt>
      <trkpt lat="48.20319" lon="-2.86789">
        <ele>148.19999694824</ele>
        <time>2020-10-16T12:33:39.000Z</time>
      </trkpt>
      <trkpt lat="48.20319" lon="-2.86789">
        <ele>148.19999694824</ele>
        <time>2020-10-16T12:33:40.000Z</time>
      </trkpt>
      <trkpt lat="48.20319" lon="-2.86789">
        <ele>148.19999694824</ele>
        <time>2020-10-16T12:33:41.000Z</time>
      </trkpt>
      <trkpt lat="48.20319" lon="-2.86789">
        <ele>148.19999694824</ele>
        <time>2020-10-16T12:33:42.000Z</time>
      </trkpt>
      <trkpt lat="48.20319" lon="-2.86789">
        <ele>148.19999694824</ele>
        <time>2020-10-16T12:33:43.000Z</time>
      </trkpt>
      <trkpt lat="48.20319" lon="-2.86789">
        <ele>148.19999694824</ele>
        <time>2020-10-16T12:33:44.000Z</time>
      </trkpt>
      <trkpt lat="48.20319" lon="-2.86789">
        <ele>148.19999694824</ele>
        <time>2020-10-16T12:33:45.000Z</time>
      </trkpt>
      <trkpt lat="48.20319" lon="-2.86789">
        <ele>148.19999694824</ele>
        <time>2020-10-16T12:33:46.000Z</time>
      </trkpt>
      <trkpt lat="48.20319" lon="-2.86789">
        <ele>148.19999694824</ele>
        <time>2020-10-16T12:33:47.000Z</time>
      </trkpt>
      <trkpt lat="48.20319" lon="-2.86789">
        <ele>148.19999694824</ele>
        <time>2020-10-16T12:33:48.000Z</time>
      </trkpt>
      <trkpt lat="48.20319" lon="-2.86789">
        <ele>148.19999694824</ele>
        <time>2020-10-16T12:33:49.000Z</time>
      </trkpt>
      <trkpt lat="48.20319" lon="-2.86789">
        <ele>148.19999694824</ele>
        <time>2020-10-16T12:33:50.000Z</time>
      </trkpt>
      <trkpt lat="48.20319" lon="-2.86789">
        <ele>148.19999694824</ele>
        <time>2020-10-16T12:33:51.000Z</time>
      </trkpt>
      <trkpt lat="48.20319" lon="-2.86789">
        <ele>148.19999694824</ele>
        <time>2020-10-16T12:33:52.000Z</time>
      </trkpt>
      <trkpt lat="48.20319" lon="-2.86789">
        <ele>148.19999694824</ele>
        <time>2020-10-16T12:33:53.000Z</time>
      </trkpt>
      <trkpt lat="48.20319" lon="-2.86789">
        <ele>148.19999694824</ele>
        <time>2020-10-16T12:33:54.000Z</time>
      </trkpt>
      <trkpt lat="48.20319" lon="-2.86789">
        <ele>148.19999694824</ele>
        <time>2020-10-16T12:33:55.000Z</time>
      </trkpt>
      <trkpt lat="48.20319" lon="-2.86789">
        <ele>148.19999694824</ele>
        <time>2020-10-16T12:33:56.000Z</time>
      </trkpt>
      <trkpt lat="48.20319" lon="-2.86789">
        <ele>148.19999694824</ele>
        <time>2020-10-16T12:33:57.000Z</time>
      </trkpt>
      <trkpt lat="48.20319" lon="-2.86789">
        <ele>148.19999694824</ele>
        <time>2020-10-16T12:33:58.000Z</time>
      </trkpt>
      <trkpt lat="48.20319" lon="-2.86789">
        <ele>148.19999694824</ele>
        <time>2020-10-16T12:33:59.000Z</time>
      </trkpt>
      <trkpt lat="48.20319" lon="-2.86789">
        <ele>148.19999694824</ele>
        <time>2020-10-16T12:34:00.000Z</time>
      </trkpt>
      <trkpt lat="48.20319" lon="-2.86789">
        <ele>148.19999694824</ele>
        <time>2020-10-16T12:34:01.000Z</time>
      </trkpt>
      <trkpt lat="48.20319" lon="-2.86789">
        <ele>148.19999694824</ele>
        <time>2020-10-16T12:34:02.000Z</time>
      </trkpt>
      <trkpt lat="48.20319" lon="-2.86789">
        <ele>148.19999694824</ele>
        <time>2020-10-16T12:34:03.000Z</time>
      </trkpt>
      <trkpt lat="48.20319" lon="-2.86789">
        <ele>148.19999694824</ele>
        <time>2020-10-16T12:34:04.000Z</time>
      </trkpt>
      <trkpt lat="48.2032" lon="-2.86789">
        <ele>148.19999694824</ele>
        <time>2020-10-16T12:34:05.000Z</time>
      </trkpt>
      <trkpt lat="48.2032" lon="-2.86789">
        <ele>148.19999694824</ele>
        <time>2020-10-16T12:34:06.000Z</time>
      </trkpt>
      <trkpt lat="48.2032" lon="-2.86789">
        <ele>148.19999694824</ele>
        <time>2020-10-16T12:34:07.000Z</time>
      </trkpt>
      <trkpt lat="48.2032" lon="-2.86789">
        <ele>148.19999694824</ele>
        <time>2020-10-16T12:34:08.000Z</time>
      </trkpt>
      <trkpt lat="48.2032" lon="-2.86789">
        <ele>148.19999694824</ele>
        <time>2020-10-16T12:34:09.000Z</time>
      </trkpt>
      <trkpt lat="48.2032" lon="-2.8679">
        <ele>148</ele>
        <time>2020-10-16T12:34:10.000Z</time>
      </trkpt>
      <trkpt lat="48.20319" lon="-2.8679">
        <ele>148</ele>
        <time>2020-10-16T12:34:11.000Z</time>
      </trkpt>
      <trkpt lat="48.20319" lon="-2.8679">
        <ele>148</ele>
        <time>2020-10-16T12:34:12.000Z</time>
      </trkpt>
      <trkpt lat="48.20319" lon="-2.8679">
        <ele>148</ele>
        <time>2020-10-16T12:34:13.000Z</time>
      </trkpt>
      <trkpt lat="48.20319" lon="-2.86791">
        <ele>148</ele>
        <time>2020-10-16T12:34:14.000Z</time>
      </trkpt>
      <trkpt lat="48.20319" lon="-2.86791">
        <ele>148</ele>
        <time>2020-10-16T12:34:15.000Z</time>
      </trkpt>
      <trkpt lat="48.20319" lon="-2.86791">
        <ele>148</ele>
        <time>2020-10-16T12:34:16.000Z</time>
      </trkpt>
      <trkpt lat="48.20319" lon="-2.86791">
        <ele>148</ele>
        <time>2020-10-16T12:34:17.000Z</time>
      </trkpt>
      <trkpt lat="48.20319" lon="-2.86791">
        <ele>148</ele>
        <time>2020-10-16T12:34:18.000Z</time>
      </trkpt>
      <trkpt lat="48.20319" lon="-2.86791">
        <ele>148</ele>
        <time>2020-10-16T12:34:19.000Z</time>
      </trkpt>
      <trkpt lat="48.20319" lon="-2.86791">
        <ele>148</ele>
        <time>2020-10-16T12:34:20.000Z</time>
      </trkpt>
      <trkpt lat="48.20319" lon="-2.86791">
        <ele>148</ele>
        <time>2020-10-16T12:34:21.000Z</time>
      </trkpt>
      <trkpt lat="48.20319" lon="-2.86791">
        <ele>148</ele>
        <time>2020-10-16T12:34:22.000Z</time>
      </trkpt>
      <trkpt lat="48.20319" lon="-2.86791">
        <ele>148</ele>
        <time>2020-10-16T12:34:23.000Z</time>
      </trkpt>
      <trkpt lat="48.20319" lon="-2.86791">
        <ele>148</ele>
        <time>2020-10-16T12:34:24.000Z</time>
      </trkpt>
      <trkpt lat="48.20319" lon="-2.86791">
        <ele>148</ele>
        <time>2020-10-16T12:34:25.000Z</time>
      </trkpt>
      <trkpt lat="48.20319" lon="-2.86791">
        <ele>148</ele>
        <time>2020-10-16T12:34:26.000Z</time>
      </trkpt>
      <trkpt lat="48.20319" lon="-2.86791">
        <ele>148</ele>
        <time>2020-10-16T12:34:27.000Z</time>
      </trkpt>
      <trkpt lat="48.2032" lon="-2.86791">
        <ele>148</ele>
        <time>2020-10-16T12:34:28.000Z</time>
      </trkpt>
      <trkpt lat="48.2032" lon="-2.86791">
        <ele>148</ele>
        <time>2020-10-16T12:34:29.000Z</time>
      </trkpt>
      <trkpt lat="48.2032" lon="-2.86791">
        <ele>148</ele>
        <time>2020-10-16T12:34:30.000Z</time>
      </trkpt>
      <trkpt lat="48.2032" lon="-2.8679">
        <ele>148</ele>
        <time>2020-10-16T12:34:31.000Z</time>
      </trkpt>
      <trkpt lat="48.20319" lon="-2.86791">
        <ele>148</ele>
        <time>2020-10-16T12:34:32.000Z</time>
      </trkpt>
      <trkpt lat="48.20319" lon="-2.86791">
        <ele>148</ele>
        <time>2020-10-16T12:34:33.000Z</time>
      </trkpt>
      <trkpt lat="48.20318" lon="-2.86793">
        <ele>148</ele>
        <time>2020-10-16T12:34:34.000Z</time>
      </trkpt>
      <trkpt lat="48.20318" lon="-2.86794">
        <ele>147.80000305176</ele>
        <time>2020-10-16T12:34:35.000Z</time>
      </trkpt>
      <trkpt lat="48.20317" lon="-2.86796">
        <ele>147.60000610352</ele>
        <time>2020-10-16T12:34:36.000Z</time>
      </trkpt>
      <trkpt lat="48.20316" lon="-2.86799">
        <ele>147.39999389648</ele>
        <time>2020-10-16T12:34:37.000Z</time>
      </trkpt>
      <trkpt lat="48.20315" lon="-2.86802">
        <ele>147.39999389648</ele>
        <time>2020-10-16T12:34:38.000Z</time>
      </trkpt>
      <trkpt lat="48.20313" lon="-2.86807">
        <ele>147</ele>
        <time>2020-10-16T12:34:39.000Z</time>
      </trkpt>
      <trkpt lat="48.20313" lon="-2.86807">
        <ele>147</ele>
        <time>2020-10-16T12:34:40.000Z</time>
      </trkpt>
      <trkpt lat="48.20312" lon="-2.86809">
        <ele>146.80000305176</ele>
        <time>2020-10-16T12:34:41.000Z</time>
      </trkpt>
      <trkpt lat="48.20312" lon="-2.86812">
        <ele>146.60000610352</ele>
        <time>2020-10-16T12:34:42.000Z</time>
      </trkpt>
      <trkpt lat="48.2031" lon="-2.86815">
        <ele>146.39999389648</ele>
        <time>2020-10-16T12:34:43.000Z</time>
      </trkpt>
      <trkpt lat="48.2031" lon="-2.86817">
        <ele>146.19999694824</ele>
        <time>2020-10-16T12:34:44.000Z</time>
      </trkpt>
      <trkpt lat="48.20309" lon="-2.8682">
        <ele>146</ele>
        <time>2020-10-16T12:34:45.000Z</time>
      </trkpt>
      <trkpt lat="48.20308" lon="-2.86822">
        <ele>146</ele>
        <time>2020-10-16T12:34:46.000Z</time>
      </trkpt>
      <trkpt lat="48.20307" lon="-2.86824">
        <ele>145.80000305176</ele>
        <time>2020-10-16T12:34:47.000Z</time>
      </trkpt>
      <trkpt lat="48.20306" lon="-2.86825">
        <ele>145.80000305176</ele>
        <time>2020-10-16T12:34:48.000Z</time>
      </trkpt>
      <trkpt lat="48.20305" lon="-2.86827">
        <ele>145.80000305176</ele>
        <time>2020-10-16T12:34:49.000Z</time>
      </trkpt>
      <trkpt lat="48.20304" lon="-2.86828">
        <ele>145.60000610352</ele>
        <time>2020-10-16T12:34:50.000Z</time>
      </trkpt>
      <trkpt lat="48.20303" lon="-2.8683">
        <ele>145.60000610352</ele>
        <time>2020-10-16T12:34:51.000Z</time>
      </trkpt>
      <trkpt lat="48.20303" lon="-2.86832">
        <ele>145.39999389648</ele>
        <time>2020-10-16T12:34:52.000Z</time>
      </trkpt>
      <trkpt lat="48.20302" lon="-2.86833">
        <ele>145.39999389648</ele>
        <time>2020-10-16T12:34:53.000Z</time>
      </trkpt>
      <trkpt lat="48.20301" lon="-2.86835">
        <ele>145.19999694824</ele>
        <time>2020-10-16T12:34:54.000Z</time>
      </trkpt>
      <trkpt lat="48.20301" lon="-2.86836">
        <ele>145.19999694824</ele>
        <time>2020-10-16T12:34:55.000Z</time>
      </trkpt>
      <trkpt lat="48.203" lon="-2.86836">
        <ele>145.19999694824</ele>
        <time>2020-10-16T12:34:56.000Z</time>
      </trkpt>
      <trkpt lat="48.203" lon="-2.86836">
        <ele>145.19999694824</ele>
        <time>2020-10-16T12:34:57.000Z</time>
      </trkpt>
      <trkpt lat="48.20299" lon="-2.86837">
        <ele>145.19999694824</ele>
        <time>2020-10-16T12:34:58.000Z</time>
      </trkpt>
      <trkpt lat="48.20299" lon="-2.86838">
        <ele>145.19999694824</ele>
        <time>2020-10-16T12:34:59.000Z</time>
      </trkpt>
      <trkpt lat="48.20299" lon="-2.86838">
        <ele>145.19999694824</ele>
        <time>2020-10-16T12:35:00.000Z</time>
      </trkpt>
      <trkpt lat="48.20299" lon="-2.86838">
        <ele>145.19999694824</ele>
        <time>2020-10-16T12:35:01.000Z</time>
      </trkpt>
      <trkpt lat="48.20299" lon="-2.86838">
        <ele>145.19999694824</ele>
        <time>2020-10-16T12:35:02.000Z</time>
      </trkpt>
      <trkpt lat="48.20299" lon="-2.86837">
        <ele>145.19999694824</ele>
        <time>2020-10-16T12:35:03.000Z</time>
      </trkpt>
      <trkpt lat="48.20298" lon="-2.86837">
        <ele>145.39999389648</ele>
        <time>2020-10-16T12:35:04.000Z</time>
      </trkpt>
      <trkpt lat="48.20298" lon="-2.86836">
        <ele>145.39999389648</ele>
        <time>2020-10-16T12:35:05.000Z</time>
      </trkpt>
      <trkpt lat="48.20298" lon="-2.86836">
        <ele>145.39999389648</ele>
        <time>2020-10-16T12:35:06.000Z</time>
      </trkpt>
      <trkpt lat="48.20298" lon="-2.86837">
        <ele>145.39999389648</ele>
        <time>2020-10-16T12:35:07.000Z</time>
      </trkpt>
      <trkpt lat="48.20298" lon="-2.86837">
        <ele>145.39999389648</ele>
        <time>2020-10-16T12:35:08.000Z</time>
      </trkpt>
      <trkpt lat="48.20297" lon="-2.86839">
        <ele>145.19999694824</ele>
        <time>2020-10-16T12:35:09.000Z</time>
      </trkpt>
      <trkpt lat="48.20296" lon="-2.86841">
        <ele>145.19999694824</ele>
        <time>2020-10-16T12:35:10.000Z</time>
      </trkpt>
      <trkpt lat="48.20294" lon="-2.86847">
        <ele>145.19999694824</ele>
        <time>2020-10-16T12:35:11.000Z</time>
      </trkpt>
      <trkpt lat="48.20294" lon="-2.86847">
        <ele>145.19999694824</ele>
        <time>2020-10-16T12:35:12.000Z</time>
      </trkpt>
      <trkpt lat="48.20293" lon="-2.86851">
        <ele>145.39999389648</ele>
        <time>2020-10-16T12:35:13.000Z</time>
      </trkpt>
      <trkpt lat="48.20292" lon="-2.86854">
        <ele>145.39999389648</ele>
        <time>2020-10-16T12:35:14.000Z</time>
      </trkpt>
      <trkpt lat="48.20291" lon="-2.86858">
        <ele>145.39999389648</ele>
        <time>2020-10-16T12:35:15.000Z</time>
      </trkpt>
      <trkpt lat="48.20291" lon="-2.86861">
        <ele>145.39999389648</ele>
        <time>2020-10-16T12:35:16.000Z</time>
      </trkpt>
      <trkpt lat="48.2029" lon="-2.86864">
        <ele>145.39999389648</ele>
        <time>2020-10-16T12:35:17.000Z</time>
      </trkpt>
      <trkpt lat="48.20289" lon="-2.86868">
        <ele>145.39999389648</ele>
        <time>2020-10-16T12:35:18.000Z</time>
      </trkpt>
      <trkpt lat="48.20288" lon="-2.86872">
        <ele>145.39999389648</ele>
        <time>2020-10-16T12:35:19.000Z</time>
      </trkpt>
      <trkpt lat="48.20286" lon="-2.86876">
        <ele>145.39999389648</ele>
        <time>2020-10-16T12:35:20.000Z</time>
      </trkpt>
      <trkpt lat="48.20285" lon="-2.86882">
        <ele>145.39999389648</ele>
        <time>2020-10-16T12:35:21.000Z</time>
      </trkpt>
      <trkpt lat="48.20283" lon="-2.86887">
        <ele>145.60000610352</ele>
        <time>2020-10-16T12:35:22.000Z</time>
      </trkpt>
      <trkpt lat="48.20282" lon="-2.86892">
        <ele>145.60000610352</ele>
        <time>2020-10-16T12:35:23.000Z</time>
      </trkpt>
      <trkpt lat="48.2028" lon="-2.86898">
        <ele>145.60000610352</ele>
        <time>2020-10-16T12:35:24.000Z</time>
      </trkpt>
      <trkpt lat="48.20278" lon="-2.86903">
        <ele>145.80000305176</ele>
        <time>2020-10-16T12:35:25.000Z</time>
      </trkpt>
      <trkpt lat="48.20276" lon="-2.86908">
        <ele>145.80000305176</ele>
        <time>2020-10-16T12:35:26.000Z</time>
      </trkpt>
      <trkpt lat="48.20274" lon="-2.86913">
        <ele>145.80000305176</ele>
        <time>2020-10-16T12:35:27.000Z</time>
      </trkpt>
      <trkpt lat="48.20272" lon="-2.86917">
        <ele>145.80000305176</ele>
        <time>2020-10-16T12:35:28.000Z</time>
      </trkpt>
      <trkpt lat="48.20271" lon="-2.86921">
        <ele>145.60000610352</ele>
        <time>2020-10-16T12:35:29.000Z</time>
      </trkpt>
      <trkpt lat="48.20269" lon="-2.86925">
        <ele>145.60000610352</ele>
        <time>2020-10-16T12:35:30.000Z</time>
      </trkpt>
      <trkpt lat="48.20267" lon="-2.86933">
        <ele>145.80000305176</ele>
        <time>2020-10-16T12:35:31.000Z</time>
      </trkpt>
      <trkpt lat="48.20267" lon="-2.86933">
        <ele>145.80000305176</ele>
        <time>2020-10-16T12:35:32.000Z</time>
      </trkpt>
      <trkpt lat="48.20265" lon="-2.86938">
        <ele>146</ele>
        <time>2020-10-16T12:35:33.000Z</time>
      </trkpt>
      <trkpt lat="48.20264" lon="-2.86943">
        <ele>146</ele>
        <time>2020-10-16T12:35:34.000Z</time>
      </trkpt>
      <trkpt lat="48.20262" lon="-2.86947">
        <ele>146</ele>
        <time>2020-10-16T12:35:35.000Z</time>
      </trkpt>
      <trkpt lat="48.20261" lon="-2.86952">
        <ele>146</ele>
        <time>2020-10-16T12:35:36.000Z</time>
      </trkpt>
      <trkpt lat="48.20259" lon="-2.86956">
        <ele>146</ele>
        <time>2020-10-16T12:35:37.000Z</time>
      </trkpt>
      <trkpt lat="48.20258" lon="-2.86961">
        <ele>146</ele>
        <time>2020-10-16T12:35:38.000Z</time>
      </trkpt>
      <trkpt lat="48.20256" lon="-2.86966">
        <ele>146</ele>
        <time>2020-10-16T12:35:39.000Z</time>
      </trkpt>
      <trkpt lat="48.20255" lon="-2.86971">
        <ele>146</ele>
        <time>2020-10-16T12:35:40.000Z</time>
      </trkpt>
      <trkpt lat="48.20253" lon="-2.86976">
        <ele>145.80000305176</ele>
        <time>2020-10-16T12:35:41.000Z</time>
      </trkpt>
      <trkpt lat="48.20252" lon="-2.86981">
        <ele>145.80000305176</ele>
        <time>2020-10-16T12:35:42.000Z</time>
      </trkpt>
      <trkpt lat="48.20251" lon="-2.86986">
        <ele>145.80000305176</ele>
        <time>2020-10-16T12:35:43.000Z</time>
      </trkpt>
      <trkpt lat="48.2025" lon="-2.86991">
        <ele>145.60000610352</ele>
        <time>2020-10-16T12:35:44.000Z</time>
      </trkpt>
      <trkpt lat="48.20249" lon="-2.86996">
        <ele>145.60000610352</ele>
        <time>2020-10-16T12:35:45.000Z</time>
      </trkpt>
      <trkpt lat="48.20248" lon="-2.87001">
        <ele>145.39999389648</ele>
        <time>2020-10-16T12:35:46.000Z</time>
      </trkpt>
      <trkpt lat="48.20248" lon="-2.87005">
        <ele>145.39999389648</ele>
        <time>2020-10-16T12:35:47.000Z</time>
      </trkpt>
      <trkpt lat="48.20246" lon="-2.8701">
        <ele>145.39999389648</ele>
        <time>2020-10-16T12:35:48.000Z</time>
      </trkpt>
      <trkpt lat="48.20245" lon="-2.87015">
        <ele>145.19999694824</ele>
        <time>2020-10-16T12:35:49.000Z</time>
      </trkpt>
      <trkpt lat="48.20244" lon="-2.87019">
        <ele>145.19999694824</ele>
        <time>2020-10-16T12:35:50.000Z</time>
      </trkpt>
      <trkpt lat="48.20243" lon="-2.87024">
        <ele>145.19999694824</ele>
        <time>2020-10-16T12:35:51.000Z</time>
      </trkpt>
      <trkpt lat="48.20242" lon="-2.87029">
        <ele>145</ele>
        <time>2020-10-16T12:35:52.000Z</time>
      </trkpt>
      <trkpt lat="48.20241" lon="-2.87034">
        <ele>145</ele>
        <time>2020-10-16T12:35:53.000Z</time>
      </trkpt>
      <trkpt lat="48.2024" lon="-2.87039">
        <ele>145</ele>
        <time>2020-10-16T12:35:54.000Z</time>
      </trkpt>
      <trkpt lat="48.20239" lon="-2.87043">
        <ele>145</ele>
        <time>2020-10-16T12:35:55.000Z</time>
      </trkpt>
      <trkpt lat="48.20237" lon="-2.87047">
        <ele>145</ele>
        <time>2020-10-16T12:35:56.000Z</time>
      </trkpt>
      <trkpt lat="48.20235" lon="-2.87052">
        <ele>145.19999694824</ele>
        <time>2020-10-16T12:35:57.000Z</time>
      </trkpt>
      <trkpt lat="48.20234" lon="-2.87055">
        <ele>145.19999694824</ele>
        <time>2020-10-16T12:35:58.000Z</time>
      </trkpt>
      <trkpt lat="48.20233" lon="-2.87059">
        <ele>145.19999694824</ele>
        <time>2020-10-16T12:35:59.000Z</time>
      </trkpt>
      <trkpt lat="48.20232" lon="-2.87062">
        <ele>145.19999694824</ele>
        <time>2020-10-16T12:36:00.000Z</time>
      </trkpt>
      <trkpt lat="48.2023" lon="-2.87066">
        <ele>145.19999694824</ele>
        <time>2020-10-16T12:36:01.000Z</time>
      </trkpt>
      <trkpt lat="48.20227" lon="-2.87076">
        <ele>145.19999694824</ele>
        <time>2020-10-16T12:36:02.000Z</time>
      </trkpt>
      <trkpt lat="48.20227" lon="-2.87076">
        <ele>145.19999694824</ele>
        <time>2020-10-16T12:36:03.000Z</time>
      </trkpt>
      <trkpt lat="48.20225" lon="-2.87081">
        <ele>145.19999694824</ele>
        <time>2020-10-16T12:36:04.000Z</time>
      </trkpt>
      <trkpt lat="48.20223" lon="-2.87087">
        <ele>145.39999389648</ele>
        <time>2020-10-16T12:36:05.000Z</time>
      </trkpt>
      <trkpt lat="48.20221" lon="-2.87093">
        <ele>145.39999389648</ele>
        <time>2020-10-16T12:36:06.000Z</time>
      </trkpt>
      <trkpt lat="48.2022" lon="-2.87099">
        <ele>145.39999389648</ele>
        <time>2020-10-16T12:36:07.000Z</time>
      </trkpt>
      <trkpt lat="48.20218" lon="-2.87104">
        <ele>145.19999694824</ele>
        <time>2020-10-16T12:36:08.000Z</time>
      </trkpt>
      <trkpt lat="48.20218" lon="-2.8711">
        <ele>145.19999694824</ele>
        <time>2020-10-16T12:36:09.000Z</time>
      </trkpt>
      <trkpt lat="48.20216" lon="-2.87122">
        <ele>145</ele>
        <time>2020-10-16T12:36:10.000Z</time>
      </trkpt>
      <trkpt lat="48.20216" lon="-2.87122">
        <ele>145</ele>
        <time>2020-10-16T12:36:11.000Z</time>
      </trkpt>
      <trkpt lat="48.20216" lon="-2.87128">
        <ele>145</ele>
        <time>2020-10-16T12:36:12.000Z</time>
      </trkpt>
      <trkpt lat="48.20215" lon="-2.87135">
        <ele>144.80000305176</ele>
        <time>2020-10-16T12:36:13.000Z</time>
      </trkpt>
      <trkpt lat="48.20214" lon="-2.87142">
        <ele>145</ele>
        <time>2020-10-16T12:36:14.000Z</time>
      </trkpt>
      <trkpt lat="48.20213" lon="-2.87148">
        <ele>145</ele>
        <time>2020-10-16T12:36:15.000Z</time>
      </trkpt>
      <trkpt lat="48.20213" lon="-2.87155">
        <ele>145.19999694824</ele>
        <time>2020-10-16T12:36:16.000Z</time>
      </trkpt>
      <trkpt lat="48.20212" lon="-2.87161">
        <ele>145.19999694824</ele>
        <time>2020-10-16T12:36:17.000Z</time>
      </trkpt>
      <trkpt lat="48.20212" lon="-2.87168">
        <ele>145.39999389648</ele>
        <time>2020-10-16T12:36:18.000Z</time>
      </trkpt>
      <trkpt lat="48.20211" lon="-2.87174">
        <ele>145.39999389648</ele>
        <time>2020-10-16T12:36:19.000Z</time>
      </trkpt>
      <trkpt lat="48.2021" lon="-2.8718">
        <ele>145.39999389648</ele>
        <time>2020-10-16T12:36:20.000Z</time>
      </trkpt>
      <trkpt lat="48.2021" lon="-2.87186">
        <ele>145.39999389648</ele>
        <time>2020-10-16T12:36:21.000Z</time>
      </trkpt>
      <trkpt lat="48.20209" lon="-2.87192">
        <ele>145.19999694824</ele>
        <time>2020-10-16T12:36:22.000Z</time>
      </trkpt>
      <trkpt lat="48.20208" lon="-2.87198">
        <ele>145.19999694824</ele>
        <time>2020-10-16T12:36:23.000Z</time>
      </trkpt>
      <trkpt lat="48.20207" lon="-2.87204">
        <ele>145.19999694824</ele>
        <time>2020-10-16T12:36:24.000Z</time>
      </trkpt>
      <trkpt lat="48.20206" lon="-2.87209">
        <ele>145.19999694824</ele>
        <time>2020-10-16T12:36:25.000Z</time>
      </trkpt>
      <trkpt lat="48.20205" lon="-2.87215">
        <ele>145.19999694824</ele>
        <time>2020-10-16T12:36:26.000Z</time>
      </trkpt>
      <trkpt lat="48.20204" lon="-2.8722">
        <ele>145.19999694824</ele>
        <time>2020-10-16T12:36:27.000Z</time>
      </trkpt>
      <trkpt lat="48.20203" lon="-2.87226">
        <ele>145.19999694824</ele>
        <time>2020-10-16T12:36:28.000Z</time>
      </trkpt>
      <trkpt lat="48.20201" lon="-2.87232">
        <ele>145.19999694824</ele>
        <time>2020-10-16T12:36:29.000Z</time>
      </trkpt>
      <trkpt lat="48.202" lon="-2.87238">
        <ele>145.19999694824</ele>
        <time>2020-10-16T12:36:30.000Z</time>
      </trkpt>
      <trkpt lat="48.20199" lon="-2.87244">
        <ele>145.39999389648</ele>
        <time>2020-10-16T12:36:31.000Z</time>
      </trkpt>
      <trkpt lat="48.20198" lon="-2.8725">
        <ele>145.39999389648</ele>
        <time>2020-10-16T12:36:32.000Z</time>
      </trkpt>
      <trkpt lat="48.20197" lon="-2.87257">
        <ele>145.60000610352</ele>
        <time>2020-10-16T12:36:33.000Z</time>
      </trkpt>
      <trkpt lat="48.20196" lon="-2.87263">
        <ele>145.60000610352</ele>
        <time>2020-10-16T12:36:34.000Z</time>
      </trkpt>
      <trkpt lat="48.20195" lon="-2.87269">
        <ele>145.39999389648</ele>
        <time>2020-10-16T12:36:35.000Z</time>
      </trkpt>
      <trkpt lat="48.20194" lon="-2.87274">
        <ele>145.39999389648</ele>
        <time>2020-10-16T12:36:36.000Z</time>
      </trkpt>
      <trkpt lat="48.20194" lon="-2.8728">
        <ele>145.39999389648</ele>
        <time>2020-10-16T12:36:37.000Z</time>
      </trkpt>
      <trkpt lat="48.20193" lon="-2.87286">
        <ele>145.19999694824</ele>
        <time>2020-10-16T12:36:38.000Z</time>
      </trkpt>
      <trkpt lat="48.20193" lon="-2.87292">
        <ele>145.19999694824</ele>
        <time>2020-10-16T12:36:39.000Z</time>
      </trkpt>
      <trkpt lat="48.20192" lon="-2.87298">
        <ele>145.19999694824</ele>
        <time>2020-10-16T12:36:40.000Z</time>
      </trkpt>
      <trkpt lat="48.20191" lon="-2.87304">
        <ele>145.19999694824</ele>
        <time>2020-10-16T12:36:41.000Z</time>
      </trkpt>
      <trkpt lat="48.20189" lon="-2.8731">
        <ele>145</ele>
        <time>2020-10-16T12:36:42.000Z</time>
      </trkpt>
      <trkpt lat="48.20188" lon="-2.87315">
        <ele>145</ele>
        <time>2020-10-16T12:36:43.000Z</time>
      </trkpt>
      <trkpt lat="48.20187" lon="-2.8732">
        <ele>145</ele>
        <time>2020-10-16T12:36:44.000Z</time>
      </trkpt>
      <trkpt lat="48.20185" lon="-2.87325">
        <ele>145</ele>
        <time>2020-10-16T12:36:45.000Z</time>
      </trkpt>
      <trkpt lat="48.20183" lon="-2.87329">
        <ele>145</ele>
        <time>2020-10-16T12:36:46.000Z</time>
      </trkpt>
      <trkpt lat="48.20181" lon="-2.87335">
        <ele>145</ele>
        <time>2020-10-16T12:36:47.000Z</time>
      </trkpt>
      <trkpt lat="48.20179" lon="-2.8734">
        <ele>145</ele>
        <time>2020-10-16T12:36:48.000Z</time>
      </trkpt>
      <trkpt lat="48.20177" lon="-2.87346">
        <ele>145</ele>
        <time>2020-10-16T12:36:49.000Z</time>
      </trkpt>
      <trkpt lat="48.20174" lon="-2.87358">
        <ele>145.39999389648</ele>
        <time>2020-10-16T12:36:50.000Z</time>
      </trkpt>
      <trkpt lat="48.20174" lon="-2.87358">
        <ele>145.39999389648</ele>
        <time>2020-10-16T12:36:51.000Z</time>
      </trkpt>
      <trkpt lat="48.20173" lon="-2.87365">
        <ele>145.39999389648</ele>
        <time>2020-10-16T12:36:52.000Z</time>
      </trkpt>
      <trkpt lat="48.20172" lon="-2.87372">
        <ele>145.60000610352</ele>
        <time>2020-10-16T12:36:53.000Z</time>
      </trkpt>
      <trkpt lat="48.20172" lon="-2.87379">
        <ele>145.60000610352</ele>
        <time>2020-10-16T12:36:54.000Z</time>
      </trkpt>
      <trkpt lat="48.20173" lon="-2.87385">
        <ele>145.60000610352</ele>
        <time>2020-10-16T12:36:55.000Z</time>
      </trkpt>
      <trkpt lat="48.20173" lon="-2.87391">
        <ele>145.80000305176</ele>
        <time>2020-10-16T12:36:56.000Z</time>
      </trkpt>
      <trkpt lat="48.20174" lon="-2.87397">
        <ele>145.80000305176</ele>
        <time>2020-10-16T12:36:57.000Z</time>
      </trkpt>
      <trkpt lat="48.20174" lon="-2.87403">
        <ele>145.80000305176</ele>
        <time>2020-10-16T12:36:58.000Z</time>
      </trkpt>
      <trkpt lat="48.20174" lon="-2.87409">
        <ele>146</ele>
        <time>2020-10-16T12:36:59.000Z</time>
      </trkpt>
      <trkpt lat="48.20174" lon="-2.87415">
        <ele>146</ele>
        <time>2020-10-16T12:37:00.000Z</time>
      </trkpt>
      <trkpt lat="48.20175" lon="-2.87422">
        <ele>146</ele>
        <time>2020-10-16T12:37:01.000Z</time>
      </trkpt>
      <trkpt lat="48.20176" lon="-2.87435">
        <ele>146.39999389648</ele>
        <time>2020-10-16T12:37:02.000Z</time>
      </trkpt>
      <trkpt lat="48.20176" lon="-2.87435">
        <ele>146.39999389648</ele>
        <time>2020-10-16T12:37:03.000Z</time>
      </trkpt>
      <trkpt lat="48.20177" lon="-2.8744">
        <ele>146.39999389648</ele>
        <time>2020-10-16T12:37:04.000Z</time>
      </trkpt>
      <trkpt lat="48.20178" lon="-2.87446">
        <ele>146.60000610352</ele>
        <time>2020-10-16T12:37:05.000Z</time>
      </trkpt>
      <trkpt lat="48.2018" lon="-2.87451">
        <ele>146.60000610352</ele>
        <time>2020-10-16T12:37:06.000Z</time>
      </trkpt>
      <trkpt lat="48.20183" lon="-2.87455">
        <ele>146.80000305176</ele>
        <time>2020-10-16T12:37:07.000Z</time>
      </trkpt>
      <trkpt lat="48.20186" lon="-2.87458">
        <ele>147</ele>
        <time>2020-10-16T12:37:08.000Z</time>
      </trkpt>
      <trkpt lat="48.20189" lon="-2.87461">
        <ele>147</ele>
        <time>2020-10-16T12:37:09.000Z</time>
      </trkpt>
      <trkpt lat="48.20192" lon="-2.87463">
        <ele>147.19999694824</ele>
        <time>2020-10-16T12:37:10.000Z</time>
      </trkpt>
      <trkpt lat="48.20196" lon="-2.87464">
        <ele>147.19999694824</ele>
        <time>2020-10-16T12:37:11.000Z</time>
      </trkpt>
      <trkpt lat="48.20199" lon="-2.87464">
        <ele>147.19999694824</ele>
        <time>2020-10-16T12:37:12.000Z</time>
      </trkpt>
      <trkpt lat="48.20203" lon="-2.87462">
        <ele>147.19999694824</ele>
        <time>2020-10-16T12:37:13.000Z</time>
      </trkpt>
      <trkpt lat="48.20206" lon="-2.8746">
        <ele>147.19999694824</ele>
        <time>2020-10-16T12:37:14.000Z</time>
      </trkpt>
      <trkpt lat="48.20209" lon="-2.87458">
        <ele>147.19999694824</ele>
        <time>2020-10-16T12:37:15.000Z</time>
      </trkpt>
      <trkpt lat="48.20212" lon="-2.87455">
        <ele>147.19999694824</ele>
        <time>2020-10-16T12:37:16.000Z</time>
      </trkpt>
      <trkpt lat="48.20214" lon="-2.87452">
        <ele>147.19999694824</ele>
        <time>2020-10-16T12:37:17.000Z</time>
      </trkpt>
      <trkpt lat="48.20216" lon="-2.87448">
        <ele>147</ele>
        <time>2020-10-16T12:37:18.000Z</time>
      </trkpt>
      <trkpt lat="48.20219" lon="-2.87444">
        <ele>147</ele>
        <time>2020-10-16T12:37:19.000Z</time>
      </trkpt>
      <trkpt lat="48.20221" lon="-2.87439">
        <ele>147</ele>
        <time>2020-10-16T12:37:20.000Z</time>
      </trkpt>
      <trkpt lat="48.20222" lon="-2.87434">
        <ele>146.80000305176</ele>
        <time>2020-10-16T12:37:21.000Z</time>
      </trkpt>
      <trkpt lat="48.20224" lon="-2.87429">
        <ele>146.60000610352</ele>
        <time>2020-10-16T12:37:22.000Z</time>
      </trkpt>
      <trkpt lat="48.20226" lon="-2.87423">
        <ele>146.60000610352</ele>
        <time>2020-10-16T12:37:23.000Z</time>
      </trkpt>
      <trkpt lat="48.20227" lon="-2.87418">
        <ele>146.39999389648</ele>
        <time>2020-10-16T12:37:24.000Z</time>
      </trkpt>
      <trkpt lat="48.20228" lon="-2.87412">
        <ele>146.39999389648</ele>
        <time>2020-10-16T12:37:25.000Z</time>
      </trkpt>
      <trkpt lat="48.20229" lon="-2.87406">
        <ele>146.19999694824</ele>
        <time>2020-10-16T12:37:26.000Z</time>
      </trkpt>
      <trkpt lat="48.2023" lon="-2.874">
        <ele>146</ele>
        <time>2020-10-16T12:37:27.000Z</time>
      </trkpt>
      <trkpt lat="48.20231" lon="-2.87394">
        <ele>146</ele>
        <time>2020-10-16T12:37:28.000Z</time>
      </trkpt>
      <trkpt lat="48.20235" lon="-2.87383">
        <ele>145.80000305176</ele>
        <time>2020-10-16T12:37:29.000Z</time>
      </trkpt>
      <trkpt lat="48.20235" lon="-2.87383">
        <ele>145.80000305176</ele>
        <time>2020-10-16T12:37:30.000Z</time>
      </trkpt>
      <trkpt lat="48.20237" lon="-2.87378">
        <ele>145.60000610352</ele>
        <time>2020-10-16T12:37:31.000Z</time>
      </trkpt>
      <trkpt lat="48.20239" lon="-2.87374">
        <ele>145.60000610352</ele>
        <time>2020-10-16T12:37:32.000Z</time>
      </trkpt>
      <trkpt lat="48.20241" lon="-2.8737">
        <ele>145.39999389648</ele>
        <time>2020-10-16T12:37:33.000Z</time>
      </trkpt>
      <trkpt lat="48.20244" lon="-2.87366">
        <ele>145.39999389648</ele>
        <time>2020-10-16T12:37:34.000Z</time>
      </trkpt>
      <trkpt lat="48.20247" lon="-2.87362">
        <ele>145.39999389648</ele>
        <time>2020-10-16T12:37:35.000Z</time>
      </trkpt>
      <trkpt lat="48.20249" lon="-2.87358">
        <ele>145.19999694824</ele>
        <time>2020-10-16T12:37:36.000Z</time>
      </trkpt>
      <trkpt lat="48.20252" lon="-2.87353">
        <ele>145.19999694824</ele>
        <time>2020-10-16T12:37:37.000Z</time>
      </trkpt>
      <trkpt lat="48.20254" lon="-2.8735">
        <ele>145.19999694824</ele>
        <time>2020-10-16T12:37:38.000Z</time>
      </trkpt>
      <trkpt lat="48.20257" lon="-2.87345">
        <ele>145</ele>
        <time>2020-10-16T12:37:39.000Z</time>
      </trkpt>
      <trkpt lat="48.20259" lon="-2.8734">
        <ele>145</ele>
        <time>2020-10-16T12:37:40.000Z</time>
      </trkpt>
      <trkpt lat="48.20262" lon="-2.87336">
        <ele>145</ele>
        <time>2020-10-16T12:37:41.000Z</time>
      </trkpt>
      <trkpt lat="48.20264" lon="-2.87331">
        <ele>145</ele>
        <time>2020-10-16T12:37:42.000Z</time>
      </trkpt>
      <trkpt lat="48.20266" lon="-2.87327">
        <ele>145</ele>
        <time>2020-10-16T12:37:43.000Z</time>
      </trkpt>
      <trkpt lat="48.20269" lon="-2.87323">
        <ele>145</ele>
        <time>2020-10-16T12:37:44.000Z</time>
      </trkpt>
      <trkpt lat="48.20271" lon="-2.87318">
        <ele>145</ele>
        <time>2020-10-16T12:37:45.000Z</time>
      </trkpt>
      <trkpt lat="48.20273" lon="-2.87313">
        <ele>145</ele>
        <time>2020-10-16T12:37:46.000Z</time>
      </trkpt>
      <trkpt lat="48.20274" lon="-2.87307">
        <ele>145</ele>
        <time>2020-10-16T12:37:47.000Z</time>
      </trkpt>
      <trkpt lat="48.20275" lon="-2.87302">
        <ele>144.80000305176</ele>
        <time>2020-10-16T12:37:48.000Z</time>
      </trkpt>
      <trkpt lat="48.20276" lon="-2.87289">
        <ele>144.80000305176</ele>
        <time>2020-10-16T12:37:49.000Z</time>
      </trkpt>
      <trkpt lat="48.20276" lon="-2.87289">
        <ele>144.80000305176</ele>
        <time>2020-10-16T12:37:50.000Z</time>
      </trkpt>
      <trkpt lat="48.20277" lon="-2.87283">
        <ele>144.60000610352</ele>
        <time>2020-10-16T12:37:51.000Z</time>
      </trkpt>
      <trkpt lat="48.20277" lon="-2.87277">
        <ele>144.60000610352</ele>
        <time>2020-10-16T12:37:52.000Z</time>
      </trkpt>
      <trkpt lat="48.20277" lon="-2.87271">
        <ele>144.60000610352</ele>
        <time>2020-10-16T12:37:53.000Z</time>
      </trkpt>
      <trkpt lat="48.20278" lon="-2.87265">
        <ele>144.39999389648</ele>
        <time>2020-10-16T12:37:54.000Z</time>
      </trkpt>
      <trkpt lat="48.20279" lon="-2.87258">
        <ele>144.39999389648</ele>
        <time>2020-10-16T12:37:55.000Z</time>
      </trkpt>
      <trkpt lat="48.20279" lon="-2.87251">
        <ele>144.39999389648</ele>
        <time>2020-10-16T12:37:56.000Z</time>
      </trkpt>
      <trkpt lat="48.2028" lon="-2.87245">
        <ele>144.19999694824</ele>
        <time>2020-10-16T12:37:57.000Z</time>
      </trkpt>
      <trkpt lat="48.2028" lon="-2.87239">
        <ele>144.19999694824</ele>
        <time>2020-10-16T12:37:58.000Z</time>
      </trkpt>
      <trkpt lat="48.2028" lon="-2.87233">
        <ele>144.19999694824</ele>
        <time>2020-10-16T12:37:59.000Z</time>
      </trkpt>
      <trkpt lat="48.20281" lon="-2.87227">
        <ele>144.19999694824</ele>
        <time>2020-10-16T12:38:00.000Z</time>
      </trkpt>
      <trkpt lat="48.20282" lon="-2.87222">
        <ele>144</ele>
        <time>2020-10-16T12:38:01.000Z</time>
      </trkpt>
      <trkpt lat="48.20283" lon="-2.87217">
        <ele>144</ele>
        <time>2020-10-16T12:38:02.000Z</time>
      </trkpt>
      <trkpt lat="48.20287" lon="-2.87208">
        <ele>144</ele>
        <time>2020-10-16T12:38:03.000Z</time>
      </trkpt>
      <trkpt lat="48.20287" lon="-2.87208">
        <ele>144</ele>
        <time>2020-10-16T12:38:04.000Z</time>
      </trkpt>
      <trkpt lat="48.2029" lon="-2.87204">
        <ele>144</ele>
        <time>2020-10-16T12:38:05.000Z</time>
      </trkpt>
      <trkpt lat="48.20292" lon="-2.87199">
        <ele>144</ele>
        <time>2020-10-16T12:38:06.000Z</time>
      </trkpt>
      <trkpt lat="48.20295" lon="-2.87194">
        <ele>144</ele>
        <time>2020-10-16T12:38:07.000Z</time>
      </trkpt>
      <trkpt lat="48.20298" lon="-2.8719">
        <ele>144</ele>
        <time>2020-10-16T12:38:08.000Z</time>
      </trkpt>
      <trkpt lat="48.203" lon="-2.87186">
        <ele>144</ele>
        <time>2020-10-16T12:38:09.000Z</time>
      </trkpt>
      <trkpt lat="48.20302" lon="-2.87182">
        <ele>144</ele>
        <time>2020-10-16T12:38:10.000Z</time>
      </trkpt>
      <trkpt lat="48.20305" lon="-2.87178">
        <ele>144</ele>
        <time>2020-10-16T12:38:11.000Z</time>
      </trkpt>
      <trkpt lat="48.20307" lon="-2.87174">
        <ele>144</ele>
        <time>2020-10-16T12:38:12.000Z</time>
      </trkpt>
      <trkpt lat="48.20309" lon="-2.8717">
        <ele>144</ele>
        <time>2020-10-16T12:38:13.000Z</time>
      </trkpt>
      <trkpt lat="48.20312" lon="-2.87165">
        <ele>144</ele>
        <time>2020-10-16T12:38:14.000Z</time>
      </trkpt>
      <trkpt lat="48.20315" lon="-2.87161">
        <ele>143.80000305176</ele>
        <time>2020-10-16T12:38:15.000Z</time>
      </trkpt>
      <trkpt lat="48.20318" lon="-2.87156">
        <ele>143.80000305176</ele>
        <time>2020-10-16T12:38:16.000Z</time>
      </trkpt>
      <trkpt lat="48.20321" lon="-2.87152">
        <ele>143.60000610352</ele>
        <time>2020-10-16T12:38:17.000Z</time>
      </trkpt>
      <trkpt lat="48.20324" lon="-2.87149">
        <ele>143.60000610352</ele>
        <time>2020-10-16T12:38:18.000Z</time>
      </trkpt>
      <trkpt lat="48.20326" lon="-2.87145">
        <ele>143.60000610352</ele>
        <time>2020-10-16T12:38:19.000Z</time>
      </trkpt>
      <trkpt lat="48.20329" lon="-2.87141">
        <ele>143.39999389648</ele>
        <time>2020-10-16T12:38:20.000Z</time>
      </trkpt>
      <trkpt lat="48.20332" lon="-2.87137">
        <ele>143.39999389648</ele>
        <time>2020-10-16T12:38:21.000Z</time>
      </trkpt>
      <trkpt lat="48.20335" lon="-2.87133">
        <ele>143.39999389648</ele>
        <time>2020-10-16T12:38:22.000Z</time>
      </trkpt>
      <trkpt lat="48.20338" lon="-2.87129">
        <ele>143.19999694824</ele>
        <time>2020-10-16T12:38:23.000Z</time>
      </trkpt>
      <trkpt lat="48.20341" lon="-2.87125">
        <ele>143.19999694824</ele>
        <time>2020-10-16T12:38:24.000Z</time>
      </trkpt>
      <trkpt lat="48.20344" lon="-2.8712">
        <ele>143</ele>
        <time>2020-10-16T12:38:25.000Z</time>
      </trkpt>
      <trkpt lat="48.20347" lon="-2.87116">
        <ele>143</ele>
        <time>2020-10-16T12:38:26.000Z</time>
      </trkpt>
      <trkpt lat="48.2035" lon="-2.87112">
        <ele>143.19999694824</ele>
        <time>2020-10-16T12:38:27.000Z</time>
      </trkpt>
      <trkpt lat="48.20355" lon="-2.87105">
        <ele>143.19999694824</ele>
        <time>2020-10-16T12:38:28.000Z</time>
      </trkpt>
      <trkpt lat="48.20355" lon="-2.87105">
        <ele>143.19999694824</ele>
        <time>2020-10-16T12:38:29.000Z</time>
      </trkpt>
      <trkpt lat="48.20358" lon="-2.87101">
        <ele>143.19999694824</ele>
        <time>2020-10-16T12:38:30.000Z</time>
      </trkpt>
      <trkpt lat="48.2036" lon="-2.87097">
        <ele>143.19999694824</ele>
        <time>2020-10-16T12:38:31.000Z</time>
      </trkpt>
      <trkpt lat="48.20363" lon="-2.87093">
        <ele>143.19999694824</ele>
        <time>2020-10-16T12:38:32.000Z</time>
      </trkpt>
      <trkpt lat="48.20365" lon="-2.87089">
        <ele>143.19999694824</ele>
        <time>2020-10-16T12:38:33.000Z</time>
      </trkpt>
      <trkpt lat="48.20368" lon="-2.87086">
        <ele>143.19999694824</ele>
        <time>2020-10-16T12:38:34.000Z</time>
      </trkpt>
      <trkpt lat="48.20371" lon="-2.87082">
        <ele>143</ele>
        <time>2020-10-16T12:38:35.000Z</time>
      </trkpt>
      <trkpt lat="48.20373" lon="-2.87078">
        <ele>143</ele>
        <time>2020-10-16T12:38:36.000Z</time>
      </trkpt>
      <trkpt lat="48.20376" lon="-2.87074">
        <ele>142.80000305176</ele>
        <time>2020-10-16T12:38:37.000Z</time>
      </trkpt>
      <trkpt lat="48.20378" lon="-2.8707">
        <ele>142.80000305176</ele>
        <time>2020-10-16T12:38:38.000Z</time>
      </trkpt>
      <trkpt lat="48.20381" lon="-2.87066">
        <ele>142.80000305176</ele>
        <time>2020-10-16T12:38:39.000Z</time>
      </trkpt>
      <trkpt lat="48.20383" lon="-2.87061">
        <ele>142.60000610352</ele>
        <time>2020-10-16T12:38:40.000Z</time>
      </trkpt>
      <trkpt lat="48.20386" lon="-2.87057">
        <ele>142.60000610352</ele>
        <time>2020-10-16T12:38:41.000Z</time>
      </trkpt>
      <trkpt lat="48.20389" lon="-2.87053">
        <ele>142.39999389648</ele>
        <time>2020-10-16T12:38:42.000Z</time>
      </trkpt>
      <trkpt lat="48.20392" lon="-2.87048">
        <ele>142.39999389648</ele>
        <time>2020-10-16T12:38:43.000Z</time>
      </trkpt>
      <trkpt lat="48.20395" lon="-2.87045">
        <ele>142.19999694824</ele>
        <time>2020-10-16T12:38:44.000Z</time>
      </trkpt>
      <trkpt lat="48.20398" lon="-2.87041">
        <ele>142.19999694824</ele>
        <time>2020-10-16T12:38:45.000Z</time>
      </trkpt>
      <trkpt lat="48.20401" lon="-2.87038">
        <ele>142.19999694824</ele>
        <time>2020-10-16T12:38:46.000Z</time>
      </trkpt>
      <trkpt lat="48.20405" lon="-2.87035">
        <ele>142.39999389648</ele>
        <time>2020-10-16T12:38:47.000Z</time>
      </trkpt>
      <trkpt lat="48.20412" lon="-2.8703">
        <ele>142.39999389648</ele>
        <time>2020-10-16T12:38:48.000Z</time>
      </trkpt>
      <trkpt lat="48.20412" lon="-2.8703">
        <ele>142.39999389648</ele>
        <time>2020-10-16T12:38:49.000Z</time>
      </trkpt>
      <trkpt lat="48.20416" lon="-2.87027">
        <ele>142.39999389648</ele>
        <time>2020-10-16T12:38:50.000Z</time>
      </trkpt>
      <trkpt lat="48.20419" lon="-2.87024">
        <ele>142.60000610352</ele>
        <time>2020-10-16T12:38:51.000Z</time>
      </trkpt>
      <trkpt lat="48.20423" lon="-2.87022">
        <ele>142.60000610352</ele>
        <time>2020-10-16T12:38:52.000Z</time>
      </trkpt>
      <trkpt lat="48.20427" lon="-2.87019">
        <ele>142.60000610352</ele>
        <time>2020-10-16T12:38:53.000Z</time>
      </trkpt>
      <trkpt lat="48.2043" lon="-2.87016">
        <ele>142.60000610352</ele>
        <time>2020-10-16T12:38:54.000Z</time>
      </trkpt>
      <trkpt lat="48.20434" lon="-2.87013">
        <ele>142.60000610352</ele>
        <time>2020-10-16T12:38:55.000Z</time>
      </trkpt>
      <trkpt lat="48.20438" lon="-2.8701">
        <ele>142.60000610352</ele>
        <time>2020-10-16T12:38:56.000Z</time>
      </trkpt>
      <trkpt lat="48.20442" lon="-2.87006">
        <ele>142.60000610352</ele>
        <time>2020-10-16T12:38:57.000Z</time>
      </trkpt>
      <trkpt lat="48.20447" lon="-2.87003">
        <ele>142.60000610352</ele>
        <time>2020-10-16T12:38:58.000Z</time>
      </trkpt>
      <trkpt lat="48.20451" lon="-2.86999">
        <ele>142.39999389648</ele>
        <time>2020-10-16T12:38:59.000Z</time>
      </trkpt>
      <trkpt lat="48.20455" lon="-2.86996">
        <ele>142.39999389648</ele>
        <time>2020-10-16T12:39:00.000Z</time>
      </trkpt>
      <trkpt lat="48.20459" lon="-2.86992">
        <ele>142.19999694824</ele>
        <time>2020-10-16T12:39:01.000Z</time>
      </trkpt>
      <trkpt lat="48.20462" lon="-2.86989">
        <ele>142.19999694824</ele>
        <time>2020-10-16T12:39:02.000Z</time>
      </trkpt>
      <trkpt lat="48.20466" lon="-2.86985">
        <ele>142</ele>
        <time>2020-10-16T12:39:03.000Z</time>
      </trkpt>
      <trkpt lat="48.20474" lon="-2.86979">
        <ele>141.80000305176</ele>
        <time>2020-10-16T12:39:04.000Z</time>
      </trkpt>
      <trkpt lat="48.20474" lon="-2.86979">
        <ele>141.80000305176</ele>
        <time>2020-10-16T12:39:05.000Z</time>
      </trkpt>
      <trkpt lat="48.20477" lon="-2.86976">
        <ele>141.80000305176</ele>
        <time>2020-10-16T12:39:06.000Z</time>
      </trkpt>
      <trkpt lat="48.20481" lon="-2.86974">
        <ele>141.80000305176</ele>
        <time>2020-10-16T12:39:07.000Z</time>
      </trkpt>
      <trkpt lat="48.20484" lon="-2.86972">
        <ele>141.80000305176</ele>
        <time>2020-10-16T12:39:08.000Z</time>
      </trkpt>
      <trkpt lat="48.20488" lon="-2.8697">
        <ele>141.80000305176</ele>
        <time>2020-10-16T12:39:09.000Z</time>
      </trkpt>
      <trkpt lat="48.20492" lon="-2.86968">
        <ele>141.80000305176</ele>
        <time>2020-10-16T12:39:10.000Z</time>
      </trkpt>
      <trkpt lat="48.20495" lon="-2.86967">
        <ele>142</ele>
        <time>2020-10-16T12:39:11.000Z</time>
      </trkpt>
      <trkpt lat="48.20499" lon="-2.86966">
        <ele>142</ele>
        <time>2020-10-16T12:39:12.000Z</time>
      </trkpt>
      <trkpt lat="48.20502" lon="-2.86965">
        <ele>142.19999694824</ele>
        <time>2020-10-16T12:39:13.000Z</time>
      </trkpt>
      <trkpt lat="48.20506" lon="-2.86965">
        <ele>142.19999694824</ele>
        <time>2020-10-16T12:39:14.000Z</time>
      </trkpt>
      <trkpt lat="48.2051" lon="-2.86964">
        <ele>142.39999389648</ele>
        <time>2020-10-16T12:39:15.000Z</time>
      </trkpt>
      <trkpt lat="48.20513" lon="-2.86964">
        <ele>142.39999389648</ele>
        <time>2020-10-16T12:39:16.000Z</time>
      </trkpt>
      <trkpt lat="48.20517" lon="-2.86964">
        <ele>142.60000610352</ele>
        <time>2020-10-16T12:39:17.000Z</time>
      </trkpt>
      <trkpt lat="48.20521" lon="-2.86964">
        <ele>142.80000305176</ele>
        <time>2020-10-16T12:39:18.000Z</time>
      </trkpt>
      <trkpt lat="48.20524" lon="-2.86965">
        <ele>143</ele>
        <time>2020-10-16T12:39:19.000Z</time>
      </trkpt>
      <trkpt lat="48.20528" lon="-2.86966">
        <ele>143.19999694824</ele>
        <time>2020-10-16T12:39:20.000Z</time>
      </trkpt>
      <trkpt lat="48.20532" lon="-2.86966">
        <ele>143.39999389648</ele>
        <time>2020-10-16T12:39:21.000Z</time>
      </trkpt>
      <trkpt lat="48.20536" lon="-2.86966">
        <ele>143.39999389648</ele>
        <time>2020-10-16T12:39:22.000Z</time>
      </trkpt>
      <trkpt lat="48.20539" lon="-2.86966">
        <ele>143.60000610352</ele>
        <time>2020-10-16T12:39:23.000Z</time>
      </trkpt>
      <trkpt lat="48.20542" lon="-2.86965">
        <ele>143.60000610352</ele>
        <time>2020-10-16T12:39:24.000Z</time>
      </trkpt>
      <trkpt lat="48.20545" lon="-2.86965">
        <ele>143.80000305176</ele>
        <time>2020-10-16T12:39:25.000Z</time>
      </trkpt>
      <trkpt lat="48.20548" lon="-2.86964">
        <ele>143.80000305176</ele>
        <time>2020-10-16T12:39:26.000Z</time>
      </trkpt>
      <trkpt lat="48.2055" lon="-2.86962">
        <ele>143.60000610352</ele>
        <time>2020-10-16T12:39:27.000Z</time>
      </trkpt>
      <trkpt lat="48.20551" lon="-2.8696">
        <ele>143.60000610352</ele>
        <time>2020-10-16T12:39:28.000Z</time>
      </trkpt>
      <trkpt lat="48.20553" lon="-2.86957">
        <ele>143.39999389648</ele>
        <time>2020-10-16T12:39:29.000Z</time>
      </trkpt>
      <trkpt lat="48.20555" lon="-2.86954">
        <ele>143.19999694824</ele>
        <time>2020-10-16T12:39:30.000Z</time>
      </trkpt>
      <trkpt lat="48.20558" lon="-2.86952">
        <ele>143</ele>
        <time>2020-10-16T12:39:31.000Z</time>
      </trkpt>
      <trkpt lat="48.20561" lon="-2.86949">
        <ele>143</ele>
        <time>2020-10-16T12:39:32.000Z</time>
      </trkpt>
      <trkpt lat="48.20564" lon="-2.86947">
        <ele>142.80000305176</ele>
        <time>2020-10-16T12:39:33.000Z</time>
      </trkpt>
      <trkpt lat="48.20568" lon="-2.86944">
        <ele>142.80000305176</ele>
        <time>2020-10-16T12:39:34.000Z</time>
      </trkpt>
      <trkpt lat="48.20572" lon="-2.86943">
        <ele>142.80000305176</ele>
        <time>2020-10-16T12:39:35.000Z</time>
      </trkpt>
      <trkpt lat="48.20577" lon="-2.86942">
        <ele>143</ele>
        <time>2020-10-16T12:39:36.000Z</time>
      </trkpt>
      <trkpt lat="48.20581" lon="-2.86942">
        <ele>143</ele>
        <time>2020-10-16T12:39:37.000Z</time>
      </trkpt>
      <trkpt lat="48.20586" lon="-2.86942">
        <ele>143</ele>
        <time>2020-10-16T12:39:38.000Z</time>
      </trkpt>
      <trkpt lat="48.20591" lon="-2.86943">
        <ele>143.19999694824</ele>
        <time>2020-10-16T12:39:39.000Z</time>
      </trkpt>
      <trkpt lat="48.20595" lon="-2.86943">
        <ele>143.19999694824</ele>
        <time>2020-10-16T12:39:40.000Z</time>
      </trkpt>
      <trkpt lat="48.20599" lon="-2.86944">
        <ele>143.39999389648</ele>
        <time>2020-10-16T12:39:41.000Z</time>
      </trkpt>
      <trkpt lat="48.20604" lon="-2.86945">
        <ele>143.80000305176</ele>
        <time>2020-10-16T12:39:42.000Z</time>
      </trkpt>
      <trkpt lat="48.20608" lon="-2.86946">
        <ele>144</ele>
        <time>2020-10-16T12:39:43.000Z</time>
      </trkpt>
      <trkpt lat="48.20612" lon="-2.86947">
        <ele>144.19999694824</ele>
        <time>2020-10-16T12:39:44.000Z</time>
      </trkpt>
      <trkpt lat="48.20616" lon="-2.86949">
        <ele>144.60000610352</ele>
        <time>2020-10-16T12:39:45.000Z</time>
      </trkpt>
      <trkpt lat="48.2062" lon="-2.86951">
        <ele>145</ele>
        <time>2020-10-16T12:39:46.000Z</time>
      </trkpt>
      <trkpt lat="48.20624" lon="-2.86953">
        <ele>145.19999694824</ele>
        <time>2020-10-16T12:39:47.000Z</time>
      </trkpt>
      <trkpt lat="48.20628" lon="-2.86956">
        <ele>145.60000610352</ele>
        <time>2020-10-16T12:39:48.000Z</time>
      </trkpt>
      <trkpt lat="48.20631" lon="-2.86958">
        <ele>145.80000305176</ele>
        <time>2020-10-16T12:39:49.000Z</time>
      </trkpt>
      <trkpt lat="48.20634" lon="-2.86959">
        <ele>146</ele>
        <time>2020-10-16T12:39:50.000Z</time>
      </trkpt>
      <trkpt lat="48.20637" lon="-2.86961">
        <ele>146.39999389648</ele>
        <time>2020-10-16T12:39:51.000Z</time>
      </trkpt>
      <trkpt lat="48.2064" lon="-2.86963">
        <ele>146.60000610352</ele>
        <time>2020-10-16T12:39:52.000Z</time>
      </trkpt>
      <trkpt lat="48.20643" lon="-2.86964">
        <ele>146.60000610352</ele>
        <time>2020-10-16T12:39:53.000Z</time>
      </trkpt>
      <trkpt lat="48.20645" lon="-2.86966">
        <ele>146.80000305176</ele>
        <time>2020-10-16T12:39:54.000Z</time>
      </trkpt>
      <trkpt lat="48.20647" lon="-2.86968">
        <ele>146.80000305176</ele>
        <time>2020-10-16T12:39:55.000Z</time>
      </trkpt>
      <trkpt lat="48.2065" lon="-2.8697">
        <ele>147</ele>
        <time>2020-10-16T12:39:56.000Z</time>
      </trkpt>
      <trkpt lat="48.20654" lon="-2.86972">
        <ele>147.19999694824</ele>
        <time>2020-10-16T12:39:57.000Z</time>
      </trkpt>
      <trkpt lat="48.20657" lon="-2.86973">
        <ele>147.19999694824</ele>
        <time>2020-10-16T12:39:58.000Z</time>
      </trkpt>
      <trkpt lat="48.20666" lon="-2.86974">
        <ele>147.60000610352</ele>
        <time>2020-10-16T12:39:59.000Z</time>
      </trkpt>
      <trkpt lat="48.20666" lon="-2.86974">
        <ele>147.60000610352</ele>
        <time>2020-10-16T12:40:00.000Z</time>
      </trkpt>
      <trkpt lat="48.2067" lon="-2.86973">
        <ele>147.60000610352</ele>
        <time>2020-10-16T12:40:01.000Z</time>
      </trkpt>
      <trkpt lat="48.20676" lon="-2.86969">
        <ele>147.60000610352</ele>
        <time>2020-10-16T12:40:02.000Z</time>
      </trkpt>
      <trkpt lat="48.20676" lon="-2.86969">
        <ele>147.60000610352</ele>
        <time>2020-10-16T12:40:03.000Z</time>
      </trkpt>
      <trkpt lat="48.20679" lon="-2.86967">
        <ele>147.60000610352</ele>
        <time>2020-10-16T12:40:04.000Z</time>
      </trkpt>
      <trkpt lat="48.20681" lon="-2.86964">
        <ele>147.60000610352</ele>
        <time>2020-10-16T12:40:05.000Z</time>
      </trkpt>
      <trkpt lat="48.20684" lon="-2.86961">
        <ele>147.60000610352</ele>
        <time>2020-10-16T12:40:06.000Z</time>
      </trkpt>
      <trkpt lat="48.20686" lon="-2.86958">
        <ele>147.39999389648</ele>
        <time>2020-10-16T12:40:07.000Z</time>
      </trkpt>
      <trkpt lat="48.20689" lon="-2.86955">
        <ele>147.39999389648</ele>
        <time>2020-10-16T12:40:08.000Z</time>
      </trkpt>
      <trkpt lat="48.20691" lon="-2.86952">
        <ele>147.39999389648</ele>
        <time>2020-10-16T12:40:09.000Z</time>
      </trkpt>
      <trkpt lat="48.20695" lon="-2.8695">
        <ele>147.39999389648</ele>
        <time>2020-10-16T12:40:10.000Z</time>
      </trkpt>
      <trkpt lat="48.20697" lon="-2.86947">
        <ele>147.39999389648</ele>
        <time>2020-10-16T12:40:11.000Z</time>
      </trkpt>
      <trkpt lat="48.207" lon="-2.86944">
        <ele>147.19999694824</ele>
        <time>2020-10-16T12:40:12.000Z</time>
      </trkpt>
      <trkpt lat="48.20703" lon="-2.86941">
        <ele>147.19999694824</ele>
        <time>2020-10-16T12:40:13.000Z</time>
      </trkpt>
      <trkpt lat="48.20705" lon="-2.86938">
        <ele>147.19999694824</ele>
        <time>2020-10-16T12:40:14.000Z</time>
      </trkpt>
      <trkpt lat="48.20708" lon="-2.86934">
        <ele>147.19999694824</ele>
        <time>2020-10-16T12:40:15.000Z</time>
      </trkpt>
      <trkpt lat="48.20711" lon="-2.86931">
        <ele>147</ele>
        <time>2020-10-16T12:40:16.000Z</time>
      </trkpt>
      <trkpt lat="48.20714" lon="-2.86927">
        <ele>147</ele>
        <time>2020-10-16T12:40:17.000Z</time>
      </trkpt>
      <trkpt lat="48.20717" lon="-2.86923">
        <ele>147</ele>
        <time>2020-10-16T12:40:18.000Z</time>
      </trkpt>
      <trkpt lat="48.2072" lon="-2.86919">
        <ele>147</ele>
        <time>2020-10-16T12:40:19.000Z</time>
      </trkpt>
      <trkpt lat="48.20723" lon="-2.86916">
        <ele>147</ele>
        <time>2020-10-16T12:40:20.000Z</time>
      </trkpt>
      <trkpt lat="48.20726" lon="-2.86912">
        <ele>146.80000305176</ele>
        <time>2020-10-16T12:40:21.000Z</time>
      </trkpt>
      <trkpt lat="48.20728" lon="-2.86908">
        <ele>146.80000305176</ele>
        <time>2020-10-16T12:40:22.000Z</time>
      </trkpt>
      <trkpt lat="48.2073" lon="-2.86903">
        <ele>146.80000305176</ele>
        <time>2020-10-16T12:40:23.000Z</time>
      </trkpt>
      <trkpt lat="48.20732" lon="-2.86899">
        <ele>146.60000610352</ele>
        <time>2020-10-16T12:40:24.000Z</time>
      </trkpt>
      <trkpt lat="48.20733" lon="-2.86893">
        <ele>146.60000610352</ele>
        <time>2020-10-16T12:40:25.000Z</time>
      </trkpt>
      <trkpt lat="48.20734" lon="-2.86882">
        <ele>146.39999389648</ele>
        <time>2020-10-16T12:40:26.000Z</time>
      </trkpt>
      <trkpt lat="48.20734" lon="-2.86882">
        <ele>146.39999389648</ele>
        <time>2020-10-16T12:40:27.000Z</time>
      </trkpt>
      <trkpt lat="48.20734" lon="-2.86877">
        <ele>146.19999694824</ele>
        <time>2020-10-16T12:40:28.000Z</time>
      </trkpt>
      <trkpt lat="48.20735" lon="-2.86871">
        <ele>146.19999694824</ele>
        <time>2020-10-16T12:40:29.000Z</time>
      </trkpt>
      <trkpt lat="48.20734" lon="-2.86866">
        <ele>146</ele>
        <time>2020-10-16T12:40:30.000Z</time>
      </trkpt>
      <trkpt lat="48.20734" lon="-2.8686">
        <ele>145.39999389648</ele>
        <time>2020-10-16T12:40:31.000Z</time>
      </trkpt>
      <trkpt lat="48.20733" lon="-2.86854">
        <ele>144.80000305176</ele>
        <time>2020-10-16T12:40:32.000Z</time>
      </trkpt>
      <trkpt lat="48.20732" lon="-2.86847">
        <ele>144.19999694824</ele>
        <time>2020-10-16T12:40:33.000Z</time>
      </trkpt>
      <trkpt lat="48.20731" lon="-2.86842">
        <ele>143.60000610352</ele>
        <time>2020-10-16T12:40:34.000Z</time>
      </trkpt>
      <trkpt lat="48.2073" lon="-2.86836">
        <ele>143.19999694824</ele>
        <time>2020-10-16T12:40:35.000Z</time>
      </trkpt>
      <trkpt lat="48.20729" lon="-2.86831">
        <ele>143</ele>
        <time>2020-10-16T12:40:36.000Z</time>
      </trkpt>
      <trkpt lat="48.20729" lon="-2.86825">
        <ele>142.80000305176</ele>
        <time>2020-10-16T12:40:37.000Z</time>
      </trkpt>
      <trkpt lat="48.20729" lon="-2.86818">
        <ele>142.80000305176</ele>
        <time>2020-10-16T12:40:38.000Z</time>
      </trkpt>
      <trkpt lat="48.20729" lon="-2.86812">
        <ele>142.60000610352</ele>
        <time>2020-10-16T12:40:39.000Z</time>
      </trkpt>
      <trkpt lat="48.20729" lon="-2.86806">
        <ele>142.39999389648</ele>
        <time>2020-10-16T12:40:40.000Z</time>
      </trkpt>
      <trkpt lat="48.20729" lon="-2.86801">
        <ele>142.39999389648</ele>
        <time>2020-10-16T12:40:41.000Z</time>
      </trkpt>
      <trkpt lat="48.20729" lon="-2.86796">
        <ele>142.19999694824</ele>
        <time>2020-10-16T12:40:42.000Z</time>
      </trkpt>
      <trkpt lat="48.20729" lon="-2.86792">
        <ele>142.19999694824</ele>
        <time>2020-10-16T12:40:43.000Z</time>
      </trkpt>
      <trkpt lat="48.2073" lon="-2.86788">
        <ele>142</ele>
        <time>2020-10-16T12:40:44.000Z</time>
      </trkpt>
      <trkpt lat="48.20731" lon="-2.86784">
        <ele>142</ele>
        <time>2020-10-16T12:40:45.000Z</time>
      </trkpt>
      <trkpt lat="48.20735" lon="-2.86775">
        <ele>142.19999694824</ele>
        <time>2020-10-16T12:40:46.000Z</time>
      </trkpt>
      <trkpt lat="48.20735" lon="-2.86775">
        <ele>142.19999694824</ele>
        <time>2020-10-16T12:40:47.000Z</time>
      </trkpt>
      <trkpt lat="48.20738" lon="-2.86771">
        <ele>142.39999389648</ele>
        <time>2020-10-16T12:40:48.000Z</time>
      </trkpt>
      <trkpt lat="48.2074" lon="-2.86767">
        <ele>142.39999389648</ele>
        <time>2020-10-16T12:40:49.000Z</time>
      </trkpt>
      <trkpt lat="48.20743" lon="-2.86763">
        <ele>142.60000610352</ele>
        <time>2020-10-16T12:40:50.000Z</time>
      </trkpt>
      <trkpt lat="48.20746" lon="-2.86757">
        <ele>142.60000610352</ele>
        <time>2020-10-16T12:40:51.000Z</time>
      </trkpt>
      <trkpt lat="48.20748" lon="-2.86753">
        <ele>142.80000305176</ele>
        <time>2020-10-16T12:40:52.000Z</time>
      </trkpt>
      <trkpt lat="48.20751" lon="-2.86748">
        <ele>142.80000305176</ele>
        <time>2020-10-16T12:40:53.000Z</time>
      </trkpt>
      <trkpt lat="48.20753" lon="-2.86744">
        <ele>142.80000305176</ele>
        <time>2020-10-16T12:40:54.000Z</time>
      </trkpt>
      <trkpt lat="48.20756" lon="-2.86738">
        <ele>142.80000305176</ele>
        <time>2020-10-16T12:40:55.000Z</time>
      </trkpt>
      <trkpt lat="48.20759" lon="-2.86733">
        <ele>143</ele>
        <time>2020-10-16T12:40:56.000Z</time>
      </trkpt>
      <trkpt lat="48.20762" lon="-2.86727">
        <ele>143</ele>
        <time>2020-10-16T12:40:57.000Z</time>
      </trkpt>
      <trkpt lat="48.20765" lon="-2.86722">
        <ele>143</ele>
        <time>2020-10-16T12:40:58.000Z</time>
      </trkpt>
      <trkpt lat="48.20768" lon="-2.86717">
        <ele>143</ele>
        <time>2020-10-16T12:40:59.000Z</time>
      </trkpt>
      <trkpt lat="48.20771" lon="-2.86712">
        <ele>143</ele>
        <time>2020-10-16T12:41:00.000Z</time>
      </trkpt>
      <trkpt lat="48.20774" lon="-2.86708">
        <ele>143.19999694824</ele>
        <time>2020-10-16T12:41:01.000Z</time>
      </trkpt>
      <trkpt lat="48.20776" lon="-2.86703">
        <ele>143.19999694824</ele>
        <time>2020-10-16T12:41:02.000Z</time>
      </trkpt>
      <trkpt lat="48.20779" lon="-2.86698">
        <ele>143.19999694824</ele>
        <time>2020-10-16T12:41:03.000Z</time>
      </trkpt>
      <trkpt lat="48.20785" lon="-2.86689">
        <ele>143.19999694824</ele>
        <time>2020-10-16T12:41:04.000Z</time>
      </trkpt>
      <trkpt lat="48.20785" lon="-2.86689">
        <ele>143.19999694824</ele>
        <time>2020-10-16T12:41:05.000Z</time>
      </trkpt>
      <trkpt lat="48.20787" lon="-2.86684">
        <ele>143.19999694824</ele>
        <time>2020-10-16T12:41:06.000Z</time>
      </trkpt>
      <trkpt lat="48.2079" lon="-2.8668">
        <ele>143.19999694824</ele>
        <time>2020-10-16T12:41:07.000Z</time>
      </trkpt>
      <trkpt lat="48.20792" lon="-2.86676">
        <ele>143.19999694824</ele>
        <time>2020-10-16T12:41:08.000Z</time>
      </trkpt>
      <trkpt lat="48.20794" lon="-2.86673">
        <ele>143.39999389648</ele>
        <time>2020-10-16T12:41:09.000Z</time>
      </trkpt>
      <trkpt lat="48.20797" lon="-2.86669">
        <ele>143.39999389648</ele>
        <time>2020-10-16T12:41:10.000Z</time>
      </trkpt>
      <trkpt lat="48.20799" lon="-2.86665">
        <ele>143.60000610352</ele>
        <time>2020-10-16T12:41:11.000Z</time>
      </trkpt>
      <trkpt lat="48.20801" lon="-2.86662">
        <ele>143.60000610352</ele>
        <time>2020-10-16T12:41:12.000Z</time>
      </trkpt>
      <trkpt lat="48.20803" lon="-2.86658">
        <ele>143.80000305176</ele>
        <time>2020-10-16T12:41:13.000Z</time>
      </trkpt>
      <trkpt lat="48.20805" lon="-2.86654">
        <ele>143.80000305176</ele>
        <time>2020-10-16T12:41:14.000Z</time>
      </trkpt>
      <trkpt lat="48.20807" lon="-2.8665">
        <ele>144</ele>
        <time>2020-10-16T12:41:15.000Z</time>
      </trkpt>
      <trkpt lat="48.2081" lon="-2.86646">
        <ele>144.19999694824</ele>
        <time>2020-10-16T12:41:16.000Z</time>
      </trkpt>
      <trkpt lat="48.20812" lon="-2.86643">
        <ele>144.19999694824</ele>
        <time>2020-10-16T12:41:17.000Z</time>
      </trkpt>
      <trkpt lat="48.20814" lon="-2.8664">
        <ele>144.39999389648</ele>
        <time>2020-10-16T12:41:18.000Z</time>
      </trkpt>
      <trkpt lat="48.20816" lon="-2.86637">
        <ele>144.39999389648</ele>
        <time>2020-10-16T12:41:19.000Z</time>
      </trkpt>
      <trkpt lat="48.20819" lon="-2.86633">
        <ele>144.60000610352</ele>
        <time>2020-10-16T12:41:20.000Z</time>
      </trkpt>
      <trkpt lat="48.20821" lon="-2.86627">
        <ele>144.80000305176</ele>
        <time>2020-10-16T12:41:21.000Z</time>
      </trkpt>
      <trkpt lat="48.20823" lon="-2.86622">
        <ele>144.80000305176</ele>
        <time>2020-10-16T12:41:22.000Z</time>
      </trkpt>
      <trkpt lat="48.20824" lon="-2.86618">
        <ele>144.80000305176</ele>
        <time>2020-10-16T12:41:23.000Z</time>
      </trkpt>
      <trkpt lat="48.20826" lon="-2.86613">
        <ele>144.80000305176</ele>
        <time>2020-10-16T12:41:24.000Z</time>
      </trkpt>
      <trkpt lat="48.20829" lon="-2.86601">
        <ele>144.80000305176</ele>
        <time>2020-10-16T12:41:25.000Z</time>
      </trkpt>
      <trkpt lat="48.20829" lon="-2.86601">
        <ele>144.80000305176</ele>
        <time>2020-10-16T12:41:26.000Z</time>
      </trkpt>
      <trkpt lat="48.2083" lon="-2.86595">
        <ele>144.80000305176</ele>
        <time>2020-10-16T12:41:27.000Z</time>
      </trkpt>
      <trkpt lat="48.20832" lon="-2.86589">
        <ele>144.60000610352</ele>
        <time>2020-10-16T12:41:28.000Z</time>
      </trkpt>
      <trkpt lat="48.20833" lon="-2.86583">
        <ele>144.60000610352</ele>
        <time>2020-10-16T12:41:29.000Z</time>
      </trkpt>
      <trkpt lat="48.20835" lon="-2.86577">
        <ele>144.60000610352</ele>
        <time>2020-10-16T12:41:30.000Z</time>
      </trkpt>
      <trkpt lat="48.20836" lon="-2.86572">
        <ele>144.39999389648</ele>
        <time>2020-10-16T12:41:31.000Z</time>
      </trkpt>
      <trkpt lat="48.20837" lon="-2.86567">
        <ele>144.39999389648</ele>
        <time>2020-10-16T12:41:32.000Z</time>
      </trkpt>
      <trkpt lat="48.20838" lon="-2.86562">
        <ele>144.39999389648</ele>
        <time>2020-10-16T12:41:33.000Z</time>
      </trkpt>
      <trkpt lat="48.20839" lon="-2.86557">
        <ele>144.19999694824</ele>
        <time>2020-10-16T12:41:34.000Z</time>
      </trkpt>
      <trkpt lat="48.2084" lon="-2.86551">
        <ele>144.19999694824</ele>
        <time>2020-10-16T12:41:35.000Z</time>
      </trkpt>
      <trkpt lat="48.20841" lon="-2.86546">
        <ele>144</ele>
        <time>2020-10-16T12:41:36.000Z</time>
      </trkpt>
      <trkpt lat="48.20842" lon="-2.8654">
        <ele>144</ele>
        <time>2020-10-16T12:41:37.000Z</time>
      </trkpt>
      <trkpt lat="48.20844" lon="-2.86536">
        <ele>144</ele>
        <time>2020-10-16T12:41:38.000Z</time>
      </trkpt>
      <trkpt lat="48.20846" lon="-2.86532">
        <ele>144</ele>
        <time>2020-10-16T12:41:39.000Z</time>
      </trkpt>
      <trkpt lat="48.20848" lon="-2.86528">
        <ele>143.80000305176</ele>
        <time>2020-10-16T12:41:40.000Z</time>
      </trkpt>
      <trkpt lat="48.2085" lon="-2.86523">
        <ele>143.80000305176</ele>
        <time>2020-10-16T12:41:41.000Z</time>
      </trkpt>
      <trkpt lat="48.20852" lon="-2.8652">
        <ele>143.80000305176</ele>
        <time>2020-10-16T12:41:42.000Z</time>
      </trkpt>
      <trkpt lat="48.20855" lon="-2.86516">
        <ele>143.80000305176</ele>
        <time>2020-10-16T12:41:43.000Z</time>
      </trkpt>
      <trkpt lat="48.20857" lon="-2.86512">
        <ele>143.80000305176</ele>
        <time>2020-10-16T12:41:44.000Z</time>
      </trkpt>
      <trkpt lat="48.20863" lon="-2.86503">
        <ele>143.80000305176</ele>
        <time>2020-10-16T12:41:45.000Z</time>
      </trkpt>
      <trkpt lat="48.20863" lon="-2.86503">
        <ele>143.80000305176</ele>
        <time>2020-10-16T12:41:46.000Z</time>
      </trkpt>
      <trkpt lat="48.20865" lon="-2.86499">
        <ele>143.80000305176</ele>
        <time>2020-10-16T12:41:47.000Z</time>
      </trkpt>
      <trkpt lat="48.20868" lon="-2.86494">
        <ele>144</ele>
        <time>2020-10-16T12:41:48.000Z</time>
      </trkpt>
      <trkpt lat="48.20871" lon="-2.8649">
        <ele>144</ele>
        <time>2020-10-16T12:41:49.000Z</time>
      </trkpt>
      <trkpt lat="48.20873" lon="-2.86485">
        <ele>144.19999694824</ele>
        <time>2020-10-16T12:41:50.000Z</time>
      </trkpt>
      <trkpt lat="48.20876" lon="-2.86481">
        <ele>144.19999694824</ele>
        <time>2020-10-16T12:41:51.000Z</time>
      </trkpt>
      <trkpt lat="48.20877" lon="-2.86476">
        <ele>144.19999694824</ele>
        <time>2020-10-16T12:41:52.000Z</time>
      </trkpt>
      <trkpt lat="48.20879" lon="-2.86471">
        <ele>144.19999694824</ele>
        <time>2020-10-16T12:41:53.000Z</time>
      </trkpt>
      <trkpt lat="48.2088" lon="-2.86466">
        <ele>144</ele>
        <time>2020-10-16T12:41:54.000Z</time>
      </trkpt>
      <trkpt lat="48.20881" lon="-2.86461">
        <ele>143.80000305176</ele>
        <time>2020-10-16T12:41:55.000Z</time>
      </trkpt>
      <trkpt lat="48.20883" lon="-2.86457">
        <ele>143.60000610352</ele>
        <time>2020-10-16T12:41:56.000Z</time>
      </trkpt>
      <trkpt lat="48.20884" lon="-2.86454">
        <ele>143.60000610352</ele>
        <time>2020-10-16T12:41:57.000Z</time>
      </trkpt>
      <trkpt lat="48.20885" lon="-2.86452">
        <ele>143.60000610352</ele>
        <time>2020-10-16T12:41:58.000Z</time>
      </trkpt>
      <trkpt lat="48.20886" lon="-2.86451">
        <ele>143.60000610352</ele>
        <time>2020-10-16T12:41:59.000Z</time>
      </trkpt>
      <trkpt lat="48.20886" lon="-2.86451">
        <ele>143.60000610352</ele>
        <time>2020-10-16T12:42:00.000Z</time>
      </trkpt>
      <trkpt lat="48.20886" lon="-2.86451">
        <ele>143.60000610352</ele>
        <time>2020-10-16T12:42:01.000Z</time>
      </trkpt>
      <trkpt lat="48.20886" lon="-2.8645">
        <ele>143.60000610352</ele>
        <time>2020-10-16T12:42:02.000Z</time>
      </trkpt>
      <trkpt lat="48.20886" lon="-2.8645">
        <ele>143.60000610352</ele>
        <time>2020-10-16T12:42:03.000Z</time>
      </trkpt>
      <trkpt lat="48.20887" lon="-2.8645">
        <ele>143.60000610352</ele>
        <time>2020-10-16T12:42:04.000Z</time>
      </trkpt>
      <trkpt lat="48.20887" lon="-2.8645">
        <ele>143.60000610352</ele>
        <time>2020-10-16T12:42:05.000Z</time>
      </trkpt>
      <trkpt lat="48.20887" lon="-2.86449">
        <ele>143.60000610352</ele>
        <time>2020-10-16T12:42:06.000Z</time>
      </trkpt>
      <trkpt lat="48.20888" lon="-2.86449">
        <ele>143.60000610352</ele>
        <time>2020-10-16T12:42:07.000Z</time>
      </trkpt>
      <trkpt lat="48.20888" lon="-2.86449">
        <ele>143.60000610352</ele>
        <time>2020-10-16T12:42:08.000Z</time>
      </trkpt>
      <trkpt lat="48.20888" lon="-2.86449">
        <ele>143.60000610352</ele>
        <time>2020-10-16T12:42:09.000Z</time>
      </trkpt>
      <trkpt lat="48.20888" lon="-2.86449">
        <ele>143.60000610352</ele>
        <time>2020-10-16T12:42:10.000Z</time>
      </trkpt>
      <trkpt lat="48.20888" lon="-2.86449">
        <ele>143.60000610352</ele>
        <time>2020-10-16T12:42:11.000Z</time>
      </trkpt>
      <trkpt lat="48.20888" lon="-2.86448">
        <ele>143.60000610352</ele>
        <time>2020-10-16T12:42:12.000Z</time>
      </trkpt>
      <trkpt lat="48.20888" lon="-2.86448">
        <ele>143.60000610352</ele>
        <time>2020-10-16T12:42:13.000Z</time>
      </trkpt>
      <trkpt lat="48.20888" lon="-2.86448">
        <ele>143.60000610352</ele>
        <time>2020-10-16T12:42:14.000Z</time>
      </trkpt>
      <trkpt lat="48.20888" lon="-2.86448">
        <ele>143.60000610352</ele>
        <time>2020-10-16T12:42:15.000Z</time>
      </trkpt>
      <trkpt lat="48.20888" lon="-2.86448">
        <ele>143.60000610352</ele>
        <time>2020-10-16T12:42:16.000Z</time>
      </trkpt>
      <trkpt lat="48.20888" lon="-2.86448">
        <ele>143.60000610352</ele>
        <time>2020-10-16T12:42:17.000Z</time>
      </trkpt>
      <trkpt lat="48.20888" lon="-2.86447">
        <ele>143.60000610352</ele>
        <time>2020-10-16T12:42:18.000Z</time>
      </trkpt>
      <trkpt lat="48.20888" lon="-2.86446">
        <ele>143.60000610352</ele>
        <time>2020-10-16T12:42:19.000Z</time>
      </trkpt>
      <trkpt lat="48.20888" lon="-2.86446">
        <ele>143.60000610352</ele>
        <time>2020-10-16T12:42:20.000Z</time>
      </trkpt>
      <trkpt lat="48.20888" lon="-2.86446">
        <ele>143.60000610352</ele>
        <time>2020-10-16T12:42:21.000Z</time>
      </trkpt>
      <trkpt lat="48.20889" lon="-2.86445">
        <ele>143.60000610352</ele>
        <time>2020-10-16T12:42:22.000Z</time>
      </trkpt>
      <trkpt lat="48.20889" lon="-2.86445">
        <ele>143.60000610352</ele>
        <time>2020-10-16T12:42:23.000Z</time>
      </trkpt>
      <trkpt lat="48.20889" lon="-2.86445">
        <ele>143.60000610352</ele>
        <time>2020-10-16T12:42:24.000Z</time>
      </trkpt>
      <trkpt lat="48.20889" lon="-2.86445">
        <ele>143.60000610352</ele>
        <time>2020-10-16T12:42:25.000Z</time>
      </trkpt>
      <trkpt lat="48.20889" lon="-2.86445">
        <ele>143.60000610352</ele>
        <time>2020-10-16T12:42:26.000Z</time>
      </trkpt>
      <trkpt lat="48.20889" lon="-2.86444">
        <ele>143.60000610352</ele>
        <time>2020-10-16T12:42:27.000Z</time>
      </trkpt>
      <trkpt lat="48.20889" lon="-2.86444">
        <ele>143.60000610352</ele>
        <time>2020-10-16T12:42:28.000Z</time>
      </trkpt>
      <trkpt lat="48.20889" lon="-2.86444">
        <ele>143.60000610352</ele>
        <time>2020-10-16T12:42:29.000Z</time>
      </trkpt>
      <trkpt lat="48.20889" lon="-2.86444">
        <ele>143.60000610352</ele>
        <time>2020-10-16T12:42:30.000Z</time>
      </trkpt>
      <trkpt lat="48.20889" lon="-2.86444">
        <ele>143.39999389648</ele>
        <time>2020-10-16T12:42:31.000Z</time>
      </trkpt>
      <trkpt lat="48.20889" lon="-2.86444">
        <ele>143.39999389648</ele>
        <time>2020-10-16T12:42:32.000Z</time>
      </trkpt>
      <trkpt lat="48.20889" lon="-2.86444">
        <ele>143.39999389648</ele>
        <time>2020-10-16T12:42:33.000Z</time>
      </trkpt>
      <trkpt lat="48.20889" lon="-2.86443">
        <ele>143.39999389648</ele>
        <time>2020-10-16T12:42:34.000Z</time>
      </trkpt>
      <trkpt lat="48.20889" lon="-2.86443">
        <ele>143.39999389648</ele>
        <time>2020-10-16T12:42:35.000Z</time>
      </trkpt>
      <trkpt lat="48.20889" lon="-2.86443">
        <ele>143.39999389648</ele>
        <time>2020-10-16T12:42:36.000Z</time>
      </trkpt>
      <trkpt lat="48.20889" lon="-2.86443">
        <ele>143.39999389648</ele>
        <time>2020-10-16T12:42:37.000Z</time>
      </trkpt>
      <trkpt lat="48.20889" lon="-2.86443">
        <ele>143.39999389648</ele>
        <time>2020-10-16T12:42:38.000Z</time>
      </trkpt>
      <trkpt lat="48.20889" lon="-2.86443">
        <ele>143.39999389648</ele>
        <time>2020-10-16T12:42:39.000Z</time>
      </trkpt>
      <trkpt lat="48.20889" lon="-2.86443">
        <ele>143.39999389648</ele>
        <time>2020-10-16T12:42:40.000Z</time>
      </trkpt>
      <trkpt lat="48.20889" lon="-2.86443">
        <ele>143.39999389648</ele>
        <time>2020-10-16T12:42:41.000Z</time>
      </trkpt>
      <trkpt lat="48.20889" lon="-2.86443">
        <ele>143.39999389648</ele>
        <time>2020-10-16T12:42:42.000Z</time>
      </trkpt>
      <trkpt lat="48.20889" lon="-2.86443">
        <ele>143.39999389648</ele>
        <time>2020-10-16T12:42:43.000Z</time>
      </trkpt>
      <trkpt lat="48.20889" lon="-2.86443">
        <ele>143.39999389648</ele>
        <time>2020-10-16T12:42:44.000Z</time>
      </trkpt>
      <trkpt lat="48.20889" lon="-2.86443">
        <ele>143.39999389648</ele>
        <time>2020-10-16T12:42:45.000Z</time>
      </trkpt>
      <trkpt lat="48.20889" lon="-2.86443">
        <ele>143.39999389648</ele>
        <time>2020-10-16T12:42:46.000Z</time>
      </trkpt>
      <trkpt lat="48.20889" lon="-2.86443">
        <ele>143.39999389648</ele>
        <time>2020-10-16T12:42:47.000Z</time>
      </trkpt>
      <trkpt lat="48.20889" lon="-2.86443">
        <ele>143.39999389648</ele>
        <time>2020-10-16T12:42:48.000Z</time>
      </trkpt>
      <trkpt lat="48.20889" lon="-2.86443">
        <ele>143.39999389648</ele>
        <time>2020-10-16T12:42:49.000Z</time>
      </trkpt>
      <trkpt lat="48.20889" lon="-2.86443">
        <ele>143.39999389648</ele>
        <time>2020-10-16T12:42:50.000Z</time>
      </trkpt>
      <trkpt lat="48.20889" lon="-2.86443">
        <ele>143.39999389648</ele>
        <time>2020-10-16T12:42:51.000Z</time>
      </trkpt>
      <trkpt lat="48.20889" lon="-2.86443">
        <ele>143.39999389648</ele>
        <time>2020-10-16T12:42:52.000Z</time>
      </trkpt>
      <trkpt lat="48.20889" lon="-2.86443">
        <ele>143.39999389648</ele>
        <time>2020-10-16T12:42:53.000Z</time>
      </trkpt>
      <trkpt lat="48.20889" lon="-2.86443">
        <ele>143.39999389648</ele>
        <time>2020-10-16T12:42:54.000Z</time>
      </trkpt>
      <trkpt lat="48.20889" lon="-2.86443">
        <ele>143.39999389648</ele>
        <time>2020-10-16T12:42:55.000Z</time>
      </trkpt>
      <trkpt lat="48.20889" lon="-2.86443">
        <ele>143.39999389648</ele>
        <time>2020-10-16T12:42:56.000Z</time>
      </trkpt>
      <trkpt lat="48.20889" lon="-2.86443">
        <ele>143.39999389648</ele>
        <time>2020-10-16T12:42:57.000Z</time>
      </trkpt>
      <trkpt lat="48.20889" lon="-2.86443">
        <ele>143.39999389648</ele>
        <time>2020-10-16T12:42:58.000Z</time>
      </trkpt>
      <trkpt lat="48.20889" lon="-2.86443">
        <ele>143.39999389648</ele>
        <time>2020-10-16T12:42:59.000Z</time>
      </trkpt>
      <trkpt lat="48.20889" lon="-2.86443">
        <ele>143.39999389648</ele>
        <time>2020-10-16T12:43:00.000Z</time>
      </trkpt>
      <trkpt lat="48.20888" lon="-2.86443">
        <ele>143.39999389648</ele>
        <time>2020-10-16T12:43:01.000Z</time>
      </trkpt>
      <trkpt lat="48.20888" lon="-2.86443">
        <ele>143.39999389648</ele>
        <time>2020-10-16T12:43:02.000Z</time>
      </trkpt>
      <trkpt lat="48.20888" lon="-2.86443">
        <ele>143.39999389648</ele>
        <time>2020-10-16T12:43:03.000Z</time>
      </trkpt>
      <trkpt lat="48.20888" lon="-2.86442">
        <ele>143.39999389648</ele>
        <time>2020-10-16T12:43:04.000Z</time>
      </trkpt>
      <trkpt lat="48.20888" lon="-2.86442">
        <ele>143.39999389648</ele>
        <time>2020-10-16T12:43:05.000Z</time>
      </trkpt>
      <trkpt lat="48.20888" lon="-2.86442">
        <ele>143.19999694824</ele>
        <time>2020-10-16T12:43:06.000Z</time>
      </trkpt>
      <trkpt lat="48.20888" lon="-2.86442">
        <ele>143.19999694824</ele>
        <time>2020-10-16T12:43:07.000Z</time>
      </trkpt>
      <trkpt lat="48.20888" lon="-2.86442">
        <ele>143.39999389648</ele>
        <time>2020-10-16T12:43:08.000Z</time>
      </trkpt>
      <trkpt lat="48.20888" lon="-2.86442">
        <ele>143.39999389648</ele>
        <time>2020-10-16T12:43:09.000Z</time>
      </trkpt>
      <trkpt lat="48.20889" lon="-2.86443">
        <ele>143.39999389648</ele>
        <time>2020-10-16T12:43:10.000Z</time>
      </trkpt>
      <trkpt lat="48.20889" lon="-2.86443">
        <ele>143.39999389648</ele>
        <time>2020-10-16T12:43:11.000Z</time>
      </trkpt>
      <trkpt lat="48.20889" lon="-2.86443">
        <ele>143.39999389648</ele>
        <time>2020-10-16T12:43:12.000Z</time>
      </trkpt>
      <trkpt lat="48.20889" lon="-2.86443">
        <ele>143.39999389648</ele>
        <time>2020-10-16T12:43:13.000Z</time>
      </trkpt>
      <trkpt lat="48.20889" lon="-2.86442">
        <ele>143.39999389648</ele>
        <time>2020-10-16T12:43:14.000Z</time>
      </trkpt>
      <trkpt lat="48.20888" lon="-2.86442">
        <ele>143.39999389648</ele>
        <time>2020-10-16T12:43:15.000Z</time>
      </trkpt>
      <trkpt lat="48.20888" lon="-2.86442">
        <ele>143.39999389648</ele>
        <time>2020-10-16T12:43:16.000Z</time>
      </trkpt>
      <trkpt lat="48.20888" lon="-2.86443">
        <ele>143.39999389648</ele>
        <time>2020-10-16T12:43:17.000Z</time>
      </trkpt>
      <trkpt lat="48.20889" lon="-2.86443">
        <ele>143.39999389648</ele>
        <time>2020-10-16T12:43:18.000Z</time>
      </trkpt>
      <trkpt lat="48.20888" lon="-2.86443">
        <ele>143.39999389648</ele>
        <time>2020-10-16T12:43:19.000Z</time>
      </trkpt>
      <trkpt lat="48.20888" lon="-2.86443">
        <ele>143.39999389648</ele>
        <time>2020-10-16T12:43:20.000Z</time>
      </trkpt>
      <trkpt lat="48.20888" lon="-2.86443">
        <ele>143.39999389648</ele>
        <time>2020-10-16T12:43:21.000Z</time>
      </trkpt>
      <trkpt lat="48.20888" lon="-2.86443">
        <ele>143.39999389648</ele>
        <time>2020-10-16T12:43:22.000Z</time>
      </trkpt>
      <trkpt lat="48.20888" lon="-2.86443">
        <ele>143.39999389648</ele>
        <time>2020-10-16T12:43:23.000Z</time>
      </trkpt>
      <trkpt lat="48.20888" lon="-2.86443">
        <ele>143.39999389648</ele>
        <time>2020-10-16T12:43:24.000Z</time>
      </trkpt>
      <trkpt lat="48.20888" lon="-2.86443">
        <ele>143.39999389648</ele>
        <time>2020-10-16T12:43:25.000Z</time>
      </trkpt>
      <trkpt lat="48.20888" lon="-2.86443">
        <ele>143.39999389648</ele>
        <time>2020-10-16T12:43:26.000Z</time>
      </trkpt>
      <trkpt lat="48.20888" lon="-2.86443">
        <ele>143.19999694824</ele>
        <time>2020-10-16T12:43:27.000Z</time>
      </trkpt>
      <trkpt lat="48.20887" lon="-2.86443">
        <ele>143.19999694824</ele>
        <time>2020-10-16T12:43:28.000Z</time>
      </trkpt>
      <trkpt lat="48.20887" lon="-2.86443">
        <ele>143.19999694824</ele>
        <time>2020-10-16T12:43:29.000Z</time>
      </trkpt>
      <trkpt lat="48.20887" lon="-2.86443">
        <ele>143.19999694824</ele>
        <time>2020-10-16T12:43:30.000Z</time>
      </trkpt>
      <trkpt lat="48.20887" lon="-2.86443">
        <ele>143.19999694824</ele>
        <time>2020-10-16T12:43:31.000Z</time>
      </trkpt>
      <trkpt lat="48.20888" lon="-2.86443">
        <ele>143.19999694824</ele>
        <time>2020-10-16T12:43:32.000Z</time>
      </trkpt>
      <trkpt lat="48.20888" lon="-2.86443">
        <ele>143.19999694824</ele>
        <time>2020-10-16T12:43:33.000Z</time>
      </trkpt>
      <trkpt lat="48.20887" lon="-2.86443">
        <ele>143.19999694824</ele>
        <time>2020-10-16T12:43:34.000Z</time>
      </trkpt>
      <trkpt lat="48.20887" lon="-2.86442">
        <ele>143.19999694824</ele>
        <time>2020-10-16T12:43:35.000Z</time>
      </trkpt>
      <trkpt lat="48.20887" lon="-2.8644">
        <ele>143</ele>
        <time>2020-10-16T12:43:36.000Z</time>
      </trkpt>
      <trkpt lat="48.20887" lon="-2.86439">
        <ele>143</ele>
        <time>2020-10-16T12:43:37.000Z</time>
      </trkpt>
      <trkpt lat="48.20887" lon="-2.86437">
        <ele>142.80000305176</ele>
        <time>2020-10-16T12:43:38.000Z</time>
      </trkpt>
      <trkpt lat="48.20887" lon="-2.86436">
        <ele>142.80000305176</ele>
        <time>2020-10-16T12:43:39.000Z</time>
      </trkpt>
      <trkpt lat="48.20887" lon="-2.86434">
        <ele>142.80000305176</ele>
        <time>2020-10-16T12:43:40.000Z</time>
      </trkpt>
      <trkpt lat="48.20888" lon="-2.86433">
        <ele>142.60000610352</ele>
        <time>2020-10-16T12:43:41.000Z</time>
      </trkpt>
      <trkpt lat="48.20888" lon="-2.86431">
        <ele>142.60000610352</ele>
        <time>2020-10-16T12:43:42.000Z</time>
      </trkpt>
      <trkpt lat="48.20889" lon="-2.86429">
        <ele>142.60000610352</ele>
        <time>2020-10-16T12:43:43.000Z</time>
      </trkpt>
      <trkpt lat="48.20889" lon="-2.86426">
        <ele>142.39999389648</ele>
        <time>2020-10-16T12:43:44.000Z</time>
      </trkpt>
      <trkpt lat="48.20889" lon="-2.86424">
        <ele>142.19999694824</ele>
        <time>2020-10-16T12:43:45.000Z</time>
      </trkpt>
      <trkpt lat="48.20889" lon="-2.86422">
        <ele>142.19999694824</ele>
        <time>2020-10-16T12:43:46.000Z</time>
      </trkpt>
      <trkpt lat="48.2089" lon="-2.86419">
        <ele>142.19999694824</ele>
        <time>2020-10-16T12:43:47.000Z</time>
      </trkpt>
      <trkpt lat="48.20891" lon="-2.86416">
        <ele>142.19999694824</ele>
        <time>2020-10-16T12:43:48.000Z</time>
      </trkpt>
      <trkpt lat="48.20891" lon="-2.86413">
        <ele>142.19999694824</ele>
        <time>2020-10-16T12:43:49.000Z</time>
      </trkpt>
      <trkpt lat="48.20892" lon="-2.8641">
        <ele>142.19999694824</ele>
        <time>2020-10-16T12:43:50.000Z</time>
      </trkpt>
      <trkpt lat="48.20893" lon="-2.86406">
        <ele>142.19999694824</ele>
        <time>2020-10-16T12:43:51.000Z</time>
      </trkpt>
      <trkpt lat="48.20894" lon="-2.86403">
        <ele>142.19999694824</ele>
        <time>2020-10-16T12:43:52.000Z</time>
      </trkpt>
      <trkpt lat="48.20895" lon="-2.86399">
        <ele>142.19999694824</ele>
        <time>2020-10-16T12:43:53.000Z</time>
      </trkpt>
      <trkpt lat="48.20896" lon="-2.86396">
        <ele>142.19999694824</ele>
        <time>2020-10-16T12:43:54.000Z</time>
      </trkpt>
      <trkpt lat="48.20897" lon="-2.86392">
        <ele>142.19999694824</ele>
        <time>2020-10-16T12:43:55.000Z</time>
      </trkpt>
      <trkpt lat="48.20898" lon="-2.86387">
        <ele>142.19999694824</ele>
        <time>2020-10-16T12:43:56.000Z</time>
      </trkpt>
      <trkpt lat="48.209" lon="-2.86383">
        <ele>142.19999694824</ele>
        <time>2020-10-16T12:43:57.000Z</time>
      </trkpt>
      <trkpt lat="48.209" lon="-2.86379">
        <ele>142.19999694824</ele>
        <time>2020-10-16T12:43:58.000Z</time>
      </trkpt>
      <trkpt lat="48.20901" lon="-2.86375">
        <ele>142.19999694824</ele>
        <time>2020-10-16T12:43:59.000Z</time>
      </trkpt>
      <trkpt lat="48.20903" lon="-2.86371">
        <ele>142.19999694824</ele>
        <time>2020-10-16T12:44:00.000Z</time>
      </trkpt>
      <trkpt lat="48.20904" lon="-2.86367">
        <ele>142.39999389648</ele>
        <time>2020-10-16T12:44:01.000Z</time>
      </trkpt>
      <trkpt lat="48.20906" lon="-2.86362">
        <ele>142.39999389648</ele>
        <time>2020-10-16T12:44:02.000Z</time>
      </trkpt>
      <trkpt lat="48.20907" lon="-2.86357">
        <ele>142.19999694824</ele>
        <time>2020-10-16T12:44:03.000Z</time>
      </trkpt>
      <trkpt lat="48.20908" lon="-2.86353">
        <ele>142</ele>
        <time>2020-10-16T12:44:04.000Z</time>
      </trkpt>
      <trkpt lat="48.20909" lon="-2.8635">
        <ele>141.80000305176</ele>
        <time>2020-10-16T12:44:05.000Z</time>
      </trkpt>
      <trkpt lat="48.2091" lon="-2.86346">
        <ele>141.80000305176</ele>
        <time>2020-10-16T12:44:06.000Z</time>
      </trkpt>
      <trkpt lat="48.20911" lon="-2.86342">
        <ele>141.60000610352</ele>
        <time>2020-10-16T12:44:07.000Z</time>
      </trkpt>
      <trkpt lat="48.20912" lon="-2.86338">
        <ele>141.60000610352</ele>
        <time>2020-10-16T12:44:08.000Z</time>
      </trkpt>
      <trkpt lat="48.20917" lon="-2.86327">
        <ele>141.60000610352</ele>
        <time>2020-10-16T12:44:09.000Z</time>
      </trkpt>
      <trkpt lat="48.20917" lon="-2.86327">
        <ele>141.60000610352</ele>
        <time>2020-10-16T12:44:10.000Z</time>
      </trkpt>
      <trkpt lat="48.20921" lon="-2.86322">
        <ele>141.80000305176</ele>
        <time>2020-10-16T12:44:11.000Z</time>
      </trkpt>
      <trkpt lat="48.20924" lon="-2.86316">
        <ele>142</ele>
        <time>2020-10-16T12:44:12.000Z</time>
      </trkpt>
      <trkpt lat="48.20927" lon="-2.86311">
        <ele>142.19999694824</ele>
        <time>2020-10-16T12:44:13.000Z</time>
      </trkpt>
      <trkpt lat="48.2093" lon="-2.86307">
        <ele>142.19999694824</ele>
        <time>2020-10-16T12:44:14.000Z</time>
      </trkpt>
      <trkpt lat="48.20933" lon="-2.86303">
        <ele>142.19999694824</ele>
        <time>2020-10-16T12:44:15.000Z</time>
      </trkpt>
      <trkpt lat="48.20936" lon="-2.86298">
        <ele>142.19999694824</ele>
        <time>2020-10-16T12:44:16.000Z</time>
      </trkpt>
      <trkpt lat="48.20939" lon="-2.86293">
        <ele>142.19999694824</ele>
        <time>2020-10-16T12:44:17.000Z</time>
      </trkpt>
      <trkpt lat="48.20941" lon="-2.86289">
        <ele>142.19999694824</ele>
        <time>2020-10-16T12:44:18.000Z</time>
      </trkpt>
      <trkpt lat="48.20944" lon="-2.86284">
        <ele>142.19999694824</ele>
        <time>2020-10-16T12:44:19.000Z</time>
      </trkpt>
      <trkpt lat="48.20946" lon="-2.8628">
        <ele>142.19999694824</ele>
        <time>2020-10-16T12:44:20.000Z</time>
      </trkpt>
      <trkpt lat="48.20948" lon="-2.86275">
        <ele>142</ele>
        <time>2020-10-16T12:44:21.000Z</time>
      </trkpt>
      <trkpt lat="48.20953" lon="-2.86265">
        <ele>141.80000305176</ele>
        <time>2020-10-16T12:44:22.000Z</time>
      </trkpt>
      <trkpt lat="48.20953" lon="-2.86265">
        <ele>141.80000305176</ele>
        <time>2020-10-16T12:44:23.000Z</time>
      </trkpt>
      <trkpt lat="48.20956" lon="-2.8626">
        <ele>141.80000305176</ele>
        <time>2020-10-16T12:44:24.000Z</time>
      </trkpt>
      <trkpt lat="48.20959" lon="-2.86255">
        <ele>142</ele>
        <time>2020-10-16T12:44:25.000Z</time>
      </trkpt>
      <trkpt lat="48.20963" lon="-2.86251">
        <ele>142.19999694824</ele>
        <time>2020-10-16T12:44:26.000Z</time>
      </trkpt>
      <trkpt lat="48.20966" lon="-2.86247">
        <ele>142.39999389648</ele>
        <time>2020-10-16T12:44:27.000Z</time>
      </trkpt>
      <trkpt lat="48.20969" lon="-2.86243">
        <ele>142.80000305176</ele>
        <time>2020-10-16T12:44:28.000Z</time>
      </trkpt>
      <trkpt lat="48.20972" lon="-2.8624">
        <ele>143</ele>
        <time>2020-10-16T12:44:29.000Z</time>
      </trkpt>
      <trkpt lat="48.20975" lon="-2.86236">
        <ele>143.19999694824</ele>
        <time>2020-10-16T12:44:30.000Z</time>
      </trkpt>
      <trkpt lat="48.20978" lon="-2.86233">
        <ele>143.39999389648</ele>
        <time>2020-10-16T12:44:31.000Z</time>
      </trkpt>
      <trkpt lat="48.20981" lon="-2.86229">
        <ele>143.80000305176</ele>
        <time>2020-10-16T12:44:32.000Z</time>
      </trkpt>
      <trkpt lat="48.20985" lon="-2.86226">
        <ele>144</ele>
        <time>2020-10-16T12:44:33.000Z</time>
      </trkpt>
      <trkpt lat="48.20988" lon="-2.86222">
        <ele>144.19999694824</ele>
        <time>2020-10-16T12:44:34.000Z</time>
      </trkpt>
      <trkpt lat="48.20991" lon="-2.86219">
        <ele>144.60000610352</ele>
        <time>2020-10-16T12:44:35.000Z</time>
      </trkpt>
      <trkpt lat="48.20995" lon="-2.86215">
        <ele>144.80000305176</ele>
        <time>2020-10-16T12:44:36.000Z</time>
      </trkpt>
      <trkpt lat="48.20998" lon="-2.86211">
        <ele>145</ele>
        <time>2020-10-16T12:44:37.000Z</time>
      </trkpt>
      <trkpt lat="48.21001" lon="-2.86207">
        <ele>145.39999389648</ele>
        <time>2020-10-16T12:44:38.000Z</time>
      </trkpt>
      <trkpt lat="48.21004" lon="-2.86203">
        <ele>145.60000610352</ele>
        <time>2020-10-16T12:44:39.000Z</time>
      </trkpt>
      <trkpt lat="48.21006" lon="-2.862">
        <ele>145.80000305176</ele>
        <time>2020-10-16T12:44:40.000Z</time>
      </trkpt>
      <trkpt lat="48.21009" lon="-2.86197">
        <ele>146</ele>
        <time>2020-10-16T12:44:41.000Z</time>
      </trkpt>
      <trkpt lat="48.21011" lon="-2.86194">
        <ele>146.19999694824</ele>
        <time>2020-10-16T12:44:42.000Z</time>
      </trkpt>
      <trkpt lat="48.21014" lon="-2.86191">
        <ele>146.19999694824</ele>
        <time>2020-10-16T12:44:43.000Z</time>
      </trkpt>
      <trkpt lat="48.21017" lon="-2.86189">
        <ele>146.19999694824</ele>
        <time>2020-10-16T12:44:44.000Z</time>
      </trkpt>
      <trkpt lat="48.21019" lon="-2.86186">
        <ele>146.19999694824</ele>
        <time>2020-10-16T12:44:45.000Z</time>
      </trkpt>
      <trkpt lat="48.21022" lon="-2.86184">
        <ele>146.19999694824</ele>
        <time>2020-10-16T12:44:46.000Z</time>
      </trkpt>
      <trkpt lat="48.21024" lon="-2.86181">
        <ele>146.19999694824</ele>
        <time>2020-10-16T12:44:47.000Z</time>
      </trkpt>
      <trkpt lat="48.21027" lon="-2.86179">
        <ele>146.19999694824</ele>
        <time>2020-10-16T12:44:48.000Z</time>
      </trkpt>
      <trkpt lat="48.2103" lon="-2.86175">
        <ele>146.19999694824</ele>
        <time>2020-10-16T12:44:49.000Z</time>
      </trkpt>
      <trkpt lat="48.21033" lon="-2.86172">
        <ele>146.19999694824</ele>
        <time>2020-10-16T12:44:50.000Z</time>
      </trkpt>
      <trkpt lat="48.21036" lon="-2.86168">
        <ele>146</ele>
        <time>2020-10-16T12:44:51.000Z</time>
      </trkpt>
      <trkpt lat="48.21039" lon="-2.86165">
        <ele>145.80000305176</ele>
        <time>2020-10-16T12:44:52.000Z</time>
      </trkpt>
      <trkpt lat="48.21041" lon="-2.86162">
        <ele>145.80000305176</ele>
        <time>2020-10-16T12:44:53.000Z</time>
      </trkpt>
      <trkpt lat="48.21045" lon="-2.86158">
        <ele>145.60000610352</ele>
        <time>2020-10-16T12:44:54.000Z</time>
      </trkpt>
      <trkpt lat="48.21048" lon="-2.86155">
        <ele>145.39999389648</ele>
        <time>2020-10-16T12:44:55.000Z</time>
      </trkpt>
      <trkpt lat="48.21051" lon="-2.86153">
        <ele>145.19999694824</ele>
        <time>2020-10-16T12:44:56.000Z</time>
      </trkpt>
      <trkpt lat="48.21053" lon="-2.86151">
        <ele>145.19999694824</ele>
        <time>2020-10-16T12:44:57.000Z</time>
      </trkpt>
      <trkpt lat="48.21054" lon="-2.86148">
        <ele>145</ele>
        <time>2020-10-16T12:44:58.000Z</time>
      </trkpt>
      <trkpt lat="48.21056" lon="-2.86146">
        <ele>145</ele>
        <time>2020-10-16T12:44:59.000Z</time>
      </trkpt>
      <trkpt lat="48.21057" lon="-2.86143">
        <ele>144.80000305176</ele>
        <time>2020-10-16T12:45:00.000Z</time>
      </trkpt>
      <trkpt lat="48.2106" lon="-2.86139">
        <ele>144.60000610352</ele>
        <time>2020-10-16T12:45:01.000Z</time>
      </trkpt>
      <trkpt lat="48.21061" lon="-2.86135">
        <ele>144.39999389648</ele>
        <time>2020-10-16T12:45:02.000Z</time>
      </trkpt>
      <trkpt lat="48.21063" lon="-2.86132">
        <ele>144.19999694824</ele>
        <time>2020-10-16T12:45:03.000Z</time>
      </trkpt>
      <trkpt lat="48.21065" lon="-2.86129">
        <ele>144</ele>
        <time>2020-10-16T12:45:04.000Z</time>
      </trkpt>
      <trkpt lat="48.21067" lon="-2.86126">
        <ele>143.80000305176</ele>
        <time>2020-10-16T12:45:05.000Z</time>
      </trkpt>
      <trkpt lat="48.21069" lon="-2.86123">
        <ele>143.80000305176</ele>
        <time>2020-10-16T12:45:06.000Z</time>
      </trkpt>
      <trkpt lat="48.21071" lon="-2.86119">
        <ele>143.60000610352</ele>
        <time>2020-10-16T12:45:07.000Z</time>
      </trkpt>
      <trkpt lat="48.21073" lon="-2.86116">
        <ele>143.39999389648</ele>
        <time>2020-10-16T12:45:08.000Z</time>
      </trkpt>
      <trkpt lat="48.21075" lon="-2.86113">
        <ele>143.19999694824</ele>
        <time>2020-10-16T12:45:09.000Z</time>
      </trkpt>
      <trkpt lat="48.21077" lon="-2.86109">
        <ele>143</ele>
        <time>2020-10-16T12:45:10.000Z</time>
      </trkpt>
      <trkpt lat="48.21079" lon="-2.86106">
        <ele>142.80000305176</ele>
        <time>2020-10-16T12:45:11.000Z</time>
      </trkpt>
      <trkpt lat="48.21082" lon="-2.86102">
        <ele>142.39999389648</ele>
        <time>2020-10-16T12:45:12.000Z</time>
      </trkpt>
      <trkpt lat="48.21085" lon="-2.86097">
        <ele>142.19999694824</ele>
        <time>2020-10-16T12:45:13.000Z</time>
      </trkpt>
      <trkpt lat="48.21088" lon="-2.86093">
        <ele>141.80000305176</ele>
        <time>2020-10-16T12:45:14.000Z</time>
      </trkpt>
      <trkpt lat="48.21091" lon="-2.8609">
        <ele>141.60000610352</ele>
        <time>2020-10-16T12:45:15.000Z</time>
      </trkpt>
      <trkpt lat="48.21095" lon="-2.86086">
        <ele>141.60000610352</ele>
        <time>2020-10-16T12:45:16.000Z</time>
      </trkpt>
      <trkpt lat="48.21099" lon="-2.86082">
        <ele>141.60000610352</ele>
        <time>2020-10-16T12:45:17.000Z</time>
      </trkpt>
      <trkpt lat="48.21102" lon="-2.86079">
        <ele>141.60000610352</ele>
        <time>2020-10-16T12:45:18.000Z</time>
      </trkpt>
      <trkpt lat="48.21106" lon="-2.86076">
        <ele>141.60000610352</ele>
        <time>2020-10-16T12:45:19.000Z</time>
      </trkpt>
      <trkpt lat="48.21108" lon="-2.86074">
        <ele>141.60000610352</ele>
        <time>2020-10-16T12:45:20.000Z</time>
      </trkpt>
      <trkpt lat="48.21115" lon="-2.86068">
        <ele>141.60000610352</ele>
        <time>2020-10-16T12:45:21.000Z</time>
      </trkpt>
      <trkpt lat="48.21115" lon="-2.86068">
        <ele>141.60000610352</ele>
        <time>2020-10-16T12:45:22.000Z</time>
      </trkpt>
      <trkpt lat="48.21119" lon="-2.86065">
        <ele>141.80000305176</ele>
        <time>2020-10-16T12:45:23.000Z</time>
      </trkpt>
      <trkpt lat="48.21123" lon="-2.86063">
        <ele>141.80000305176</ele>
        <time>2020-10-16T12:45:24.000Z</time>
      </trkpt>
      <trkpt lat="48.21127" lon="-2.8606">
        <ele>141.80000305176</ele>
        <time>2020-10-16T12:45:25.000Z</time>
      </trkpt>
      <trkpt lat="48.2113" lon="-2.86058">
        <ele>141.80000305176</ele>
        <time>2020-10-16T12:45:26.000Z</time>
      </trkpt>
      <trkpt lat="48.21134" lon="-2.86056">
        <ele>141.80000305176</ele>
        <time>2020-10-16T12:45:27.000Z</time>
      </trkpt>
      <trkpt lat="48.21137" lon="-2.86054">
        <ele>141.80000305176</ele>
        <time>2020-10-16T12:45:28.000Z</time>
      </trkpt>
      <trkpt lat="48.21142" lon="-2.86051">
        <ele>141.80000305176</ele>
        <time>2020-10-16T12:45:29.000Z</time>
      </trkpt>
      <trkpt lat="48.21145" lon="-2.86049">
        <ele>141.80000305176</ele>
        <time>2020-10-16T12:45:30.000Z</time>
      </trkpt>
      <trkpt lat="48.21149" lon="-2.86047">
        <ele>142</ele>
        <time>2020-10-16T12:45:31.000Z</time>
      </trkpt>
      <trkpt lat="48.21153" lon="-2.86046">
        <ele>142</ele>
        <time>2020-10-16T12:45:32.000Z</time>
      </trkpt>
      <trkpt lat="48.21156" lon="-2.86044">
        <ele>142</ele>
        <time>2020-10-16T12:45:33.000Z</time>
      </trkpt>
      <trkpt lat="48.2116" lon="-2.86044">
        <ele>142.19999694824</ele>
        <time>2020-10-16T12:45:34.000Z</time>
      </trkpt>
      <trkpt lat="48.21164" lon="-2.86044">
        <ele>142.19999694824</ele>
        <time>2020-10-16T12:45:35.000Z</time>
      </trkpt>
      <trkpt lat="48.21168" lon="-2.86044">
        <ele>142.39999389648</ele>
        <time>2020-10-16T12:45:36.000Z</time>
      </trkpt>
      <trkpt lat="48.21172" lon="-2.86045">
        <ele>142.60000610352</ele>
        <time>2020-10-16T12:45:37.000Z</time>
      </trkpt>
      <trkpt lat="48.21176" lon="-2.86045">
        <ele>142.80000305176</ele>
        <time>2020-10-16T12:45:38.000Z</time>
      </trkpt>
      <trkpt lat="48.2118" lon="-2.86046">
        <ele>142.80000305176</ele>
        <time>2020-10-16T12:45:39.000Z</time>
      </trkpt>
      <trkpt lat="48.21186" lon="-2.86048">
        <ele>142.80000305176</ele>
        <time>2020-10-16T12:45:40.000Z</time>
      </trkpt>
      <trkpt lat="48.21186" lon="-2.86048">
        <ele>142.80000305176</ele>
        <time>2020-10-16T12:45:41.000Z</time>
      </trkpt>
      <trkpt lat="48.2119" lon="-2.86049">
        <ele>142.60000610352</ele>
        <time>2020-10-16T12:45:42.000Z</time>
      </trkpt>
      <trkpt lat="48.21193" lon="-2.8605">
        <ele>142.60000610352</ele>
        <time>2020-10-16T12:45:43.000Z</time>
      </trkpt>
      <trkpt lat="48.21197" lon="-2.86051">
        <ele>142.60000610352</ele>
        <time>2020-10-16T12:45:44.000Z</time>
      </trkpt>
      <trkpt lat="48.21201" lon="-2.86052">
        <ele>142.39999389648</ele>
        <time>2020-10-16T12:45:45.000Z</time>
      </trkpt>
      <trkpt lat="48.21205" lon="-2.86053">
        <ele>142.39999389648</ele>
        <time>2020-10-16T12:45:46.000Z</time>
      </trkpt>
      <trkpt lat="48.21209" lon="-2.86055">
        <ele>142.19999694824</ele>
        <time>2020-10-16T12:45:47.000Z</time>
      </trkpt>
      <trkpt lat="48.21213" lon="-2.86056">
        <ele>142.19999694824</ele>
        <time>2020-10-16T12:45:48.000Z</time>
      </trkpt>
      <trkpt lat="48.21217" lon="-2.86057">
        <ele>142</ele>
        <time>2020-10-16T12:45:49.000Z</time>
      </trkpt>
      <trkpt lat="48.21221" lon="-2.86058">
        <ele>142</ele>
        <time>2020-10-16T12:45:50.000Z</time>
      </trkpt>
      <trkpt lat="48.21225" lon="-2.86059">
        <ele>141.80000305176</ele>
        <time>2020-10-16T12:45:51.000Z</time>
      </trkpt>
      <trkpt lat="48.2123" lon="-2.8606">
        <ele>141.80000305176</ele>
        <time>2020-10-16T12:45:52.000Z</time>
      </trkpt>
      <trkpt lat="48.21234" lon="-2.86061">
        <ele>141.60000610352</ele>
        <time>2020-10-16T12:45:53.000Z</time>
      </trkpt>
      <trkpt lat="48.21238" lon="-2.86062">
        <ele>141.60000610352</ele>
        <time>2020-10-16T12:45:54.000Z</time>
      </trkpt>
      <trkpt lat="48.21243" lon="-2.86064">
        <ele>141.39999389648</ele>
        <time>2020-10-16T12:45:55.000Z</time>
      </trkpt>
      <trkpt lat="48.21247" lon="-2.86066">
        <ele>141.39999389648</ele>
        <time>2020-10-16T12:45:56.000Z</time>
      </trkpt>
      <trkpt lat="48.21251" lon="-2.86069">
        <ele>141.39999389648</ele>
        <time>2020-10-16T12:45:57.000Z</time>
      </trkpt>
      <trkpt lat="48.21255" lon="-2.86072">
        <ele>141.39999389648</ele>
        <time>2020-10-16T12:45:58.000Z</time>
      </trkpt>
      <trkpt lat="48.21259" lon="-2.86075">
        <ele>141.39999389648</ele>
        <time>2020-10-16T12:45:59.000Z</time>
      </trkpt>
      <trkpt lat="48.21263" lon="-2.86079">
        <ele>141.39999389648</ele>
        <time>2020-10-16T12:46:00.000Z</time>
      </trkpt>
      <trkpt lat="48.21266" lon="-2.86083">
        <ele>141.19999694824</ele>
        <time>2020-10-16T12:46:01.000Z</time>
      </trkpt>
      <trkpt lat="48.21273" lon="-2.86092">
        <ele>140.80000305176</ele>
        <time>2020-10-16T12:46:02.000Z</time>
      </trkpt>
      <trkpt lat="48.21275" lon="-2.86097">
        <ele>140.60000610352</ele>
        <time>2020-10-16T12:46:03.000Z</time>
      </trkpt>
      <trkpt lat="48.21275" lon="-2.86097">
        <ele>140.60000610352</ele>
        <time>2020-10-16T12:46:04.000Z</time>
      </trkpt>
      <trkpt lat="48.21278" lon="-2.86102">
        <ele>140.60000610352</ele>
        <time>2020-10-16T12:46:05.000Z</time>
      </trkpt>
      <trkpt lat="48.2128" lon="-2.86107">
        <ele>140.60000610352</ele>
        <time>2020-10-16T12:46:06.000Z</time>
      </trkpt>
      <trkpt lat="48.21283" lon="-2.86112">
        <ele>140.60000610352</ele>
        <time>2020-10-16T12:46:07.000Z</time>
      </trkpt>
      <trkpt lat="48.21284" lon="-2.86117">
        <ele>140.80000305176</ele>
        <time>2020-10-16T12:46:08.000Z</time>
      </trkpt>
      <trkpt lat="48.21286" lon="-2.86123">
        <ele>140.80000305176</ele>
        <time>2020-10-16T12:46:09.000Z</time>
      </trkpt>
      <trkpt lat="48.21287" lon="-2.8613">
        <ele>141</ele>
        <time>2020-10-16T12:46:10.000Z</time>
      </trkpt>
      <trkpt lat="48.21288" lon="-2.86136">
        <ele>141.19999694824</ele>
        <time>2020-10-16T12:46:11.000Z</time>
      </trkpt>
      <trkpt lat="48.21289" lon="-2.86142">
        <ele>141.60000610352</ele>
        <time>2020-10-16T12:46:12.000Z</time>
      </trkpt>
      <trkpt lat="48.21289" lon="-2.86149">
        <ele>142</ele>
        <time>2020-10-16T12:46:13.000Z</time>
      </trkpt>
      <trkpt lat="48.2129" lon="-2.86163">
        <ele>142.39999389648</ele>
        <time>2020-10-16T12:46:14.000Z</time>
      </trkpt>
      <trkpt lat="48.2129" lon="-2.86163">
        <ele>142.39999389648</ele>
        <time>2020-10-16T12:46:15.000Z</time>
      </trkpt>
      <trkpt lat="48.2129" lon="-2.8617">
        <ele>142.60000610352</ele>
        <time>2020-10-16T12:46:16.000Z</time>
      </trkpt>
      <trkpt lat="48.2129" lon="-2.86177">
        <ele>142.80000305176</ele>
        <time>2020-10-16T12:46:17.000Z</time>
      </trkpt>
      <trkpt lat="48.21289" lon="-2.86184">
        <ele>143.19999694824</ele>
        <time>2020-10-16T12:46:18.000Z</time>
      </trkpt>
      <trkpt lat="48.21289" lon="-2.86192">
        <ele>143.39999389648</ele>
        <time>2020-10-16T12:46:19.000Z</time>
      </trkpt>
      <trkpt lat="48.21288" lon="-2.86198">
        <ele>143.80000305176</ele>
        <time>2020-10-16T12:46:20.000Z</time>
      </trkpt>
      <trkpt lat="48.21287" lon="-2.86205">
        <ele>144.19999694824</ele>
        <time>2020-10-16T12:46:21.000Z</time>
      </trkpt>
      <trkpt lat="48.21287" lon="-2.86211">
        <ele>144.60000610352</ele>
        <time>2020-10-16T12:46:22.000Z</time>
      </trkpt>
      <trkpt lat="48.21286" lon="-2.86217">
        <ele>144.80000305176</ele>
        <time>2020-10-16T12:46:23.000Z</time>
      </trkpt>
      <trkpt lat="48.21284" lon="-2.86223">
        <ele>145.19999694824</ele>
        <time>2020-10-16T12:46:24.000Z</time>
      </trkpt>
      <trkpt lat="48.21283" lon="-2.86228">
        <ele>145.80000305176</ele>
        <time>2020-10-16T12:46:25.000Z</time>
      </trkpt>
      <trkpt lat="48.21281" lon="-2.86233">
        <ele>146.19999694824</ele>
        <time>2020-10-16T12:46:26.000Z</time>
      </trkpt>
      <trkpt lat="48.2128" lon="-2.86238">
        <ele>146.60000610352</ele>
        <time>2020-10-16T12:46:27.000Z</time>
      </trkpt>
      <trkpt lat="48.21279" lon="-2.86243">
        <ele>146.80000305176</ele>
        <time>2020-10-16T12:46:28.000Z</time>
      </trkpt>
      <trkpt lat="48.21278" lon="-2.86248">
        <ele>147.19999694824</ele>
        <time>2020-10-16T12:46:29.000Z</time>
      </trkpt>
      <trkpt lat="48.21278" lon="-2.86253">
        <ele>147.39999389648</ele>
        <time>2020-10-16T12:46:30.000Z</time>
      </trkpt>
      <trkpt lat="48.21279" lon="-2.86258">
        <ele>147.39999389648</ele>
        <time>2020-10-16T12:46:31.000Z</time>
      </trkpt>
      <trkpt lat="48.21279" lon="-2.86263">
        <ele>147.39999389648</ele>
        <time>2020-10-16T12:46:32.000Z</time>
      </trkpt>
      <trkpt lat="48.2128" lon="-2.86267">
        <ele>147.39999389648</ele>
        <time>2020-10-16T12:46:33.000Z</time>
      </trkpt>
      <trkpt lat="48.21281" lon="-2.86272">
        <ele>147.19999694824</ele>
        <time>2020-10-16T12:46:34.000Z</time>
      </trkpt>
      <trkpt lat="48.21282" lon="-2.86276">
        <ele>147</ele>
        <time>2020-10-16T12:46:35.000Z</time>
      </trkpt>
      <trkpt lat="48.21284" lon="-2.86281">
        <ele>146.80000305176</ele>
        <time>2020-10-16T12:46:36.000Z</time>
      </trkpt>
      <trkpt lat="48.21287" lon="-2.86286">
        <ele>146.39999389648</ele>
        <time>2020-10-16T12:46:37.000Z</time>
      </trkpt>
      <trkpt lat="48.21289" lon="-2.86291">
        <ele>146.19999694824</ele>
        <time>2020-10-16T12:46:38.000Z</time>
      </trkpt>
      <trkpt lat="48.21291" lon="-2.86296">
        <ele>145.80000305176</ele>
        <time>2020-10-16T12:46:39.000Z</time>
      </trkpt>
      <trkpt lat="48.21296" lon="-2.86307">
        <ele>145.39999389648</ele>
        <time>2020-10-16T12:46:40.000Z</time>
      </trkpt>
      <trkpt lat="48.21296" lon="-2.86307">
        <ele>145.39999389648</ele>
        <time>2020-10-16T12:46:41.000Z</time>
      </trkpt>
      <trkpt lat="48.21298" lon="-2.86312">
        <ele>145.39999389648</ele>
        <time>2020-10-16T12:46:42.000Z</time>
      </trkpt>
      <trkpt lat="48.213" lon="-2.86317">
        <ele>145.39999389648</ele>
        <time>2020-10-16T12:46:43.000Z</time>
      </trkpt>
      <trkpt lat="48.21301" lon="-2.86322">
        <ele>145.39999389648</ele>
        <time>2020-10-16T12:46:44.000Z</time>
      </trkpt>
      <trkpt lat="48.21303" lon="-2.86328">
        <ele>145.39999389648</ele>
        <time>2020-10-16T12:46:45.000Z</time>
      </trkpt>
      <trkpt lat="48.21305" lon="-2.86333">
        <ele>145.39999389648</ele>
        <time>2020-10-16T12:46:46.000Z</time>
      </trkpt>
      <trkpt lat="48.21308" lon="-2.86337">
        <ele>145.39999389648</ele>
        <time>2020-10-16T12:46:47.000Z</time>
      </trkpt>
      <trkpt lat="48.21311" lon="-2.86348">
        <ele>145.19999694824</ele>
        <time>2020-10-16T12:46:48.000Z</time>
      </trkpt>
      <trkpt lat="48.21311" lon="-2.86348">
        <ele>145.19999694824</ele>
        <time>2020-10-16T12:46:49.000Z</time>
      </trkpt>
      <trkpt lat="48.21312" lon="-2.86353">
        <ele>145.19999694824</ele>
        <time>2020-10-16T12:46:50.000Z</time>
      </trkpt>
      <trkpt lat="48.21313" lon="-2.86359">
        <ele>145.19999694824</ele>
        <time>2020-10-16T12:46:51.000Z</time>
      </trkpt>
      <trkpt lat="48.21314" lon="-2.86365">
        <ele>145.19999694824</ele>
        <time>2020-10-16T12:46:52.000Z</time>
      </trkpt>
      <trkpt lat="48.21315" lon="-2.86371">
        <ele>145</ele>
        <time>2020-10-16T12:46:53.000Z</time>
      </trkpt>
      <trkpt lat="48.21316" lon="-2.86376">
        <ele>145.39999389648</ele>
        <time>2020-10-16T12:46:54.000Z</time>
      </trkpt>
      <trkpt lat="48.21317" lon="-2.86381">
        <ele>145.60000610352</ele>
        <time>2020-10-16T12:46:55.000Z</time>
      </trkpt>
      <trkpt lat="48.21318" lon="-2.86386">
        <ele>145.80000305176</ele>
        <time>2020-10-16T12:46:56.000Z</time>
      </trkpt>
      <trkpt lat="48.21322" lon="-2.86394">
        <ele>146</ele>
        <time>2020-10-16T12:46:57.000Z</time>
      </trkpt>
      <trkpt lat="48.21322" lon="-2.86394">
        <ele>146</ele>
        <time>2020-10-16T12:46:58.000Z</time>
      </trkpt>
      <trkpt lat="48.21324" lon="-2.86397">
        <ele>146</ele>
        <time>2020-10-16T12:46:59.000Z</time>
      </trkpt>
      <trkpt lat="48.21326" lon="-2.86401">
        <ele>146</ele>
        <time>2020-10-16T12:47:00.000Z</time>
      </trkpt>
      <trkpt lat="48.21329" lon="-2.86405">
        <ele>146</ele>
        <time>2020-10-16T12:47:01.000Z</time>
      </trkpt>
      <trkpt lat="48.21332" lon="-2.86409">
        <ele>146.19999694824</ele>
        <time>2020-10-16T12:47:02.000Z</time>
      </trkpt>
      <trkpt lat="48.21335" lon="-2.86412">
        <ele>146</ele>
        <time>2020-10-16T12:47:03.000Z</time>
      </trkpt>
      <trkpt lat="48.21338" lon="-2.86415">
        <ele>146</ele>
        <time>2020-10-16T12:47:04.000Z</time>
      </trkpt>
      <trkpt lat="48.21341" lon="-2.86418">
        <ele>146</ele>
        <time>2020-10-16T12:47:05.000Z</time>
      </trkpt>
      <trkpt lat="48.21344" lon="-2.8642">
        <ele>146</ele>
        <time>2020-10-16T12:47:06.000Z</time>
      </trkpt>
      <trkpt lat="48.21347" lon="-2.86422">
        <ele>146</ele>
        <time>2020-10-16T12:47:07.000Z</time>
      </trkpt>
      <trkpt lat="48.21351" lon="-2.86424">
        <ele>146</ele>
        <time>2020-10-16T12:47:08.000Z</time>
      </trkpt>
      <trkpt lat="48.21355" lon="-2.86426">
        <ele>146</ele>
        <time>2020-10-16T12:47:09.000Z</time>
      </trkpt>
      <trkpt lat="48.21358" lon="-2.86428">
        <ele>146</ele>
        <time>2020-10-16T12:47:10.000Z</time>
      </trkpt>
      <trkpt lat="48.21361" lon="-2.86429">
        <ele>146</ele>
        <time>2020-10-16T12:47:11.000Z</time>
      </trkpt>
      <trkpt lat="48.21364" lon="-2.8643">
        <ele>146</ele>
        <time>2020-10-16T12:47:12.000Z</time>
      </trkpt>
      <trkpt lat="48.21368" lon="-2.8643">
        <ele>146</ele>
        <time>2020-10-16T12:47:13.000Z</time>
      </trkpt>
      <trkpt lat="48.21371" lon="-2.8643">
        <ele>145.80000305176</ele>
        <time>2020-10-16T12:47:14.000Z</time>
      </trkpt>
      <trkpt lat="48.21374" lon="-2.8643">
        <ele>145.80000305176</ele>
        <time>2020-10-16T12:47:15.000Z</time>
      </trkpt>
      <trkpt lat="48.21377" lon="-2.86431">
        <ele>145.80000305176</ele>
        <time>2020-10-16T12:47:16.000Z</time>
      </trkpt>
      <trkpt lat="48.21381" lon="-2.86431">
        <ele>145.80000305176</ele>
        <time>2020-10-16T12:47:17.000Z</time>
      </trkpt>
      <trkpt lat="48.21384" lon="-2.86431">
        <ele>145.80000305176</ele>
        <time>2020-10-16T12:47:18.000Z</time>
      </trkpt>
      <trkpt lat="48.21388" lon="-2.8643">
        <ele>145.60000610352</ele>
        <time>2020-10-16T12:47:19.000Z</time>
      </trkpt>
      <trkpt lat="48.21391" lon="-2.86429">
        <ele>145.60000610352</ele>
        <time>2020-10-16T12:47:20.000Z</time>
      </trkpt>
      <trkpt lat="48.21395" lon="-2.86427">
        <ele>145.60000610352</ele>
        <time>2020-10-16T12:47:21.000Z</time>
      </trkpt>
      <trkpt lat="48.21398" lon="-2.86424">
        <ele>145.39999389648</ele>
        <time>2020-10-16T12:47:22.000Z</time>
      </trkpt>
      <trkpt lat="48.214" lon="-2.86421">
        <ele>145.19999694824</ele>
        <time>2020-10-16T12:47:23.000Z</time>
      </trkpt>
      <trkpt lat="48.21403" lon="-2.86417">
        <ele>145</ele>
        <time>2020-10-16T12:47:24.000Z</time>
      </trkpt>
      <trkpt lat="48.21406" lon="-2.86413">
        <ele>144.80000305176</ele>
        <time>2020-10-16T12:47:25.000Z</time>
      </trkpt>
      <trkpt lat="48.21409" lon="-2.86409">
        <ele>144.39999389648</ele>
        <time>2020-10-16T12:47:26.000Z</time>
      </trkpt>
      <trkpt lat="48.21411" lon="-2.86405">
        <ele>144.19999694824</ele>
        <time>2020-10-16T12:47:27.000Z</time>
      </trkpt>
      <trkpt lat="48.21414" lon="-2.86401">
        <ele>143.80000305176</ele>
        <time>2020-10-16T12:47:28.000Z</time>
      </trkpt>
      <trkpt lat="48.21417" lon="-2.86396">
        <ele>143.60000610352</ele>
        <time>2020-10-16T12:47:29.000Z</time>
      </trkpt>
      <trkpt lat="48.2142" lon="-2.86392">
        <ele>143.19999694824</ele>
        <time>2020-10-16T12:47:30.000Z</time>
      </trkpt>
      <trkpt lat="48.21423" lon="-2.86388">
        <ele>143</ele>
        <time>2020-10-16T12:47:31.000Z</time>
      </trkpt>
      <trkpt lat="48.21425" lon="-2.86384">
        <ele>142.80000305176</ele>
        <time>2020-10-16T12:47:32.000Z</time>
      </trkpt>
      <trkpt lat="48.21428" lon="-2.8638">
        <ele>142.39999389648</ele>
        <time>2020-10-16T12:47:33.000Z</time>
      </trkpt>
      <trkpt lat="48.21431" lon="-2.86376">
        <ele>142.39999389648</ele>
        <time>2020-10-16T12:47:34.000Z</time>
      </trkpt>
      <trkpt lat="48.21434" lon="-2.86373">
        <ele>142.39999389648</ele>
        <time>2020-10-16T12:47:35.000Z</time>
      </trkpt>
      <trkpt lat="48.21437" lon="-2.86369">
        <ele>142.39999389648</ele>
        <time>2020-10-16T12:47:36.000Z</time>
      </trkpt>
      <trkpt lat="48.2144" lon="-2.86365">
        <ele>142.39999389648</ele>
        <time>2020-10-16T12:47:37.000Z</time>
      </trkpt>
      <trkpt lat="48.21443" lon="-2.8636">
        <ele>142.39999389648</ele>
        <time>2020-10-16T12:47:38.000Z</time>
      </trkpt>
      <trkpt lat="48.21448" lon="-2.86351">
        <ele>142.39999389648</ele>
        <time>2020-10-16T12:47:39.000Z</time>
      </trkpt>
      <trkpt lat="48.21448" lon="-2.86351">
        <ele>142.39999389648</ele>
        <time>2020-10-16T12:47:40.000Z</time>
      </trkpt>
      <trkpt lat="48.21451" lon="-2.86347">
        <ele>142.39999389648</ele>
        <time>2020-10-16T12:47:41.000Z</time>
      </trkpt>
      <trkpt lat="48.21454" lon="-2.86343">
        <ele>142.39999389648</ele>
        <time>2020-10-16T12:47:42.000Z</time>
      </trkpt>
      <trkpt lat="48.21458" lon="-2.86339">
        <ele>142.39999389648</ele>
        <time>2020-10-16T12:47:43.000Z</time>
      </trkpt>
      <trkpt lat="48.21461" lon="-2.86335">
        <ele>142.19999694824</ele>
        <time>2020-10-16T12:47:44.000Z</time>
      </trkpt>
      <trkpt lat="48.21464" lon="-2.86332">
        <ele>142.19999694824</ele>
        <time>2020-10-16T12:47:45.000Z</time>
      </trkpt>
      <trkpt lat="48.21468" lon="-2.86329">
        <ele>142.19999694824</ele>
        <time>2020-10-16T12:47:46.000Z</time>
      </trkpt>
      <trkpt lat="48.21471" lon="-2.86327">
        <ele>142.39999389648</ele>
        <time>2020-10-16T12:47:47.000Z</time>
      </trkpt>
      <trkpt lat="48.21474" lon="-2.86325">
        <ele>142.60000610352</ele>
        <time>2020-10-16T12:47:48.000Z</time>
      </trkpt>
      <trkpt lat="48.21478" lon="-2.86324">
        <ele>142.60000610352</ele>
        <time>2020-10-16T12:47:49.000Z</time>
      </trkpt>
      <trkpt lat="48.21482" lon="-2.86323">
        <ele>142.80000305176</ele>
        <time>2020-10-16T12:47:50.000Z</time>
      </trkpt>
      <trkpt lat="48.21486" lon="-2.86321">
        <ele>143</ele>
        <time>2020-10-16T12:47:51.000Z</time>
      </trkpt>
      <trkpt lat="48.2149" lon="-2.8632">
        <ele>143.19999694824</ele>
        <time>2020-10-16T12:47:52.000Z</time>
      </trkpt>
      <trkpt lat="48.21495" lon="-2.86317">
        <ele>143.39999389648</ele>
        <time>2020-10-16T12:47:53.000Z</time>
      </trkpt>
      <trkpt lat="48.21499" lon="-2.86316">
        <ele>143.60000610352</ele>
        <time>2020-10-16T12:47:54.000Z</time>
      </trkpt>
      <trkpt lat="48.21503" lon="-2.86314">
        <ele>143.80000305176</ele>
        <time>2020-10-16T12:47:55.000Z</time>
      </trkpt>
      <trkpt lat="48.2151" lon="-2.86311">
        <ele>144.19999694824</ele>
        <time>2020-10-16T12:47:56.000Z</time>
      </trkpt>
      <trkpt lat="48.2151" lon="-2.86311">
        <ele>144.19999694824</ele>
        <time>2020-10-16T12:47:57.000Z</time>
      </trkpt>
      <trkpt lat="48.21514" lon="-2.86309">
        <ele>144.19999694824</ele>
        <time>2020-10-16T12:47:58.000Z</time>
      </trkpt>
      <trkpt lat="48.21517" lon="-2.86307">
        <ele>144</ele>
        <time>2020-10-16T12:47:59.000Z</time>
      </trkpt>
      <trkpt lat="48.21525" lon="-2.86304">
        <ele>143.80000305176</ele>
        <time>2020-10-16T12:48:00.000Z</time>
      </trkpt>
      <trkpt lat="48.21525" lon="-2.86304">
        <ele>143.80000305176</ele>
        <time>2020-10-16T12:48:01.000Z</time>
      </trkpt>
      <trkpt lat="48.21529" lon="-2.86302">
        <ele>143.80000305176</ele>
        <time>2020-10-16T12:48:02.000Z</time>
      </trkpt>
      <trkpt lat="48.21533" lon="-2.86301">
        <ele>143.80000305176</ele>
        <time>2020-10-16T12:48:03.000Z</time>
      </trkpt>
      <trkpt lat="48.21537" lon="-2.863">
        <ele>143.80000305176</ele>
        <time>2020-10-16T12:48:04.000Z</time>
      </trkpt>
      <trkpt lat="48.21542" lon="-2.86298">
        <ele>143.80000305176</ele>
        <time>2020-10-16T12:48:05.000Z</time>
      </trkpt>
      <trkpt lat="48.21547" lon="-2.86296">
        <ele>143.80000305176</ele>
        <time>2020-10-16T12:48:06.000Z</time>
      </trkpt>
      <trkpt lat="48.21551" lon="-2.86295">
        <ele>143.60000610352</ele>
        <time>2020-10-16T12:48:07.000Z</time>
      </trkpt>
      <trkpt lat="48.21555" lon="-2.86293">
        <ele>143.60000610352</ele>
        <time>2020-10-16T12:48:08.000Z</time>
      </trkpt>
      <trkpt lat="48.21563" lon="-2.86292">
        <ele>143.60000610352</ele>
        <time>2020-10-16T12:48:09.000Z</time>
      </trkpt>
      <trkpt lat="48.21563" lon="-2.86292">
        <ele>143.60000610352</ele>
        <time>2020-10-16T12:48:10.000Z</time>
      </trkpt>
      <trkpt lat="48.21567" lon="-2.86291">
        <ele>143.60000610352</ele>
        <time>2020-10-16T12:48:11.000Z</time>
      </trkpt>
      <trkpt lat="48.21571" lon="-2.86291">
        <ele>143.39999389648</ele>
        <time>2020-10-16T12:48:12.000Z</time>
      </trkpt>
      <trkpt lat="48.21575" lon="-2.8629">
        <ele>143.39999389648</ele>
        <time>2020-10-16T12:48:13.000Z</time>
      </trkpt>
      <trkpt lat="48.21578" lon="-2.8629">
        <ele>143.39999389648</ele>
        <time>2020-10-16T12:48:14.000Z</time>
      </trkpt>
      <trkpt lat="48.21581" lon="-2.8629">
        <ele>143.39999389648</ele>
        <time>2020-10-16T12:48:15.000Z</time>
      </trkpt>
      <trkpt lat="48.21584" lon="-2.8629">
        <ele>143.39999389648</ele>
        <time>2020-10-16T12:48:16.000Z</time>
      </trkpt>
      <trkpt lat="48.21587" lon="-2.8629">
        <ele>143.39999389648</ele>
        <time>2020-10-16T12:48:17.000Z</time>
      </trkpt>
      <trkpt lat="48.21593" lon="-2.86291">
        <ele>143.60000610352</ele>
        <time>2020-10-16T12:48:18.000Z</time>
      </trkpt>
      <trkpt lat="48.21593" lon="-2.86291">
        <ele>143.60000610352</ele>
        <time>2020-10-16T12:48:19.000Z</time>
      </trkpt>
      <trkpt lat="48.21597" lon="-2.86292">
        <ele>143.60000610352</ele>
        <time>2020-10-16T12:48:20.000Z</time>
      </trkpt>
      <trkpt lat="48.216" lon="-2.86292">
        <ele>143.60000610352</ele>
        <time>2020-10-16T12:48:21.000Z</time>
      </trkpt>
      <trkpt lat="48.21603" lon="-2.86293">
        <ele>143.80000305176</ele>
        <time>2020-10-16T12:48:22.000Z</time>
      </trkpt>
      <trkpt lat="48.21606" lon="-2.86293">
        <ele>143.80000305176</ele>
        <time>2020-10-16T12:48:23.000Z</time>
      </trkpt>
      <trkpt lat="48.2161" lon="-2.86294">
        <ele>144</ele>
        <time>2020-10-16T12:48:24.000Z</time>
      </trkpt>
      <trkpt lat="48.21613" lon="-2.86294">
        <ele>144</ele>
        <time>2020-10-16T12:48:25.000Z</time>
      </trkpt>
      <trkpt lat="48.21617" lon="-2.86295">
        <ele>144</ele>
        <time>2020-10-16T12:48:26.000Z</time>
      </trkpt>
      <trkpt lat="48.2162" lon="-2.86295">
        <ele>144.19999694824</ele>
        <time>2020-10-16T12:48:27.000Z</time>
      </trkpt>
      <trkpt lat="48.21623" lon="-2.86295">
        <ele>144.19999694824</ele>
        <time>2020-10-16T12:48:28.000Z</time>
      </trkpt>
      <trkpt lat="48.21626" lon="-2.86296">
        <ele>144.19999694824</ele>
        <time>2020-10-16T12:48:29.000Z</time>
      </trkpt>
      <trkpt lat="48.21629" lon="-2.86296">
        <ele>144.19999694824</ele>
        <time>2020-10-16T12:48:30.000Z</time>
      </trkpt>
      <trkpt lat="48.21632" lon="-2.86297">
        <ele>144.39999389648</ele>
        <time>2020-10-16T12:48:31.000Z</time>
      </trkpt>
      <trkpt lat="48.21635" lon="-2.86297">
        <ele>144.39999389648</ele>
        <time>2020-10-16T12:48:32.000Z</time>
      </trkpt>
      <trkpt lat="48.21639" lon="-2.86297">
        <ele>144.39999389648</ele>
        <time>2020-10-16T12:48:33.000Z</time>
      </trkpt>
      <trkpt lat="48.21642" lon="-2.86297">
        <ele>144.39999389648</ele>
        <time>2020-10-16T12:48:34.000Z</time>
      </trkpt>
      <trkpt lat="48.21644" lon="-2.86296">
        <ele>144.39999389648</ele>
        <time>2020-10-16T12:48:35.000Z</time>
      </trkpt>
      <trkpt lat="48.21646" lon="-2.86294">
        <ele>144.19999694824</ele>
        <time>2020-10-16T12:48:36.000Z</time>
      </trkpt>
      <trkpt lat="48.21648" lon="-2.86292">
        <ele>144.19999694824</ele>
        <time>2020-10-16T12:48:37.000Z</time>
      </trkpt>
      <trkpt lat="48.21649" lon="-2.8629">
        <ele>144</ele>
        <time>2020-10-16T12:48:38.000Z</time>
      </trkpt>
      <trkpt lat="48.21651" lon="-2.86287">
        <ele>143.80000305176</ele>
        <time>2020-10-16T12:48:39.000Z</time>
      </trkpt>
      <trkpt lat="48.21652" lon="-2.86285">
        <ele>143.80000305176</ele>
        <time>2020-10-16T12:48:40.000Z</time>
      </trkpt>
      <trkpt lat="48.21654" lon="-2.86283">
        <ele>143.60000610352</ele>
        <time>2020-10-16T12:48:41.000Z</time>
      </trkpt>
      <trkpt lat="48.21655" lon="-2.86281">
        <ele>143.60000610352</ele>
        <time>2020-10-16T12:48:42.000Z</time>
      </trkpt>
      <trkpt lat="48.21658" lon="-2.86278">
        <ele>143.39999389648</ele>
        <time>2020-10-16T12:48:43.000Z</time>
      </trkpt>
      <trkpt lat="48.21658" lon="-2.86278">
        <ele>143.39999389648</ele>
        <time>2020-10-16T12:48:44.000Z</time>
      </trkpt>
      <trkpt lat="48.2166" lon="-2.86277">
        <ele>143.19999694824</ele>
        <time>2020-10-16T12:48:45.000Z</time>
      </trkpt>
      <trkpt lat="48.21662" lon="-2.86277">
        <ele>143.19999694824</ele>
        <time>2020-10-16T12:48:46.000Z</time>
      </trkpt>
      <trkpt lat="48.21665" lon="-2.86277">
        <ele>143.19999694824</ele>
        <time>2020-10-16T12:48:47.000Z</time>
      </trkpt>
      <trkpt lat="48.21667" lon="-2.86278">
        <ele>143.19999694824</ele>
        <time>2020-10-16T12:48:48.000Z</time>
      </trkpt>
      <trkpt lat="48.2167" lon="-2.86278">
        <ele>143.39999389648</ele>
        <time>2020-10-16T12:48:49.000Z</time>
      </trkpt>
      <trkpt lat="48.21672" lon="-2.86279">
        <ele>143.39999389648</ele>
        <time>2020-10-16T12:48:50.000Z</time>
      </trkpt>
      <trkpt lat="48.21675" lon="-2.8628">
        <ele>143.39999389648</ele>
        <time>2020-10-16T12:48:51.000Z</time>
      </trkpt>
      <trkpt lat="48.21678" lon="-2.8628">
        <ele>143.39999389648</ele>
        <time>2020-10-16T12:48:52.000Z</time>
      </trkpt>
      <trkpt lat="48.21681" lon="-2.86282">
        <ele>143.60000610352</ele>
        <time>2020-10-16T12:48:53.000Z</time>
      </trkpt>
      <trkpt lat="48.21685" lon="-2.86283">
        <ele>143.60000610352</ele>
        <time>2020-10-16T12:48:54.000Z</time>
      </trkpt>
      <trkpt lat="48.21688" lon="-2.86284">
        <ele>143.80000305176</ele>
        <time>2020-10-16T12:48:55.000Z</time>
      </trkpt>
      <trkpt lat="48.21692" lon="-2.86286">
        <ele>143.80000305176</ele>
        <time>2020-10-16T12:48:56.000Z</time>
      </trkpt>
      <trkpt lat="48.21696" lon="-2.86289">
        <ele>144</ele>
        <time>2020-10-16T12:48:57.000Z</time>
      </trkpt>
      <trkpt lat="48.217" lon="-2.8629">
        <ele>144</ele>
        <time>2020-10-16T12:48:58.000Z</time>
      </trkpt>
      <trkpt lat="48.21704" lon="-2.86291">
        <ele>144.19999694824</ele>
        <time>2020-10-16T12:48:59.000Z</time>
      </trkpt>
      <trkpt lat="48.21707" lon="-2.86292">
        <ele>144.19999694824</ele>
        <time>2020-10-16T12:49:00.000Z</time>
      </trkpt>
      <trkpt lat="48.21711" lon="-2.86292">
        <ele>144.19999694824</ele>
        <time>2020-10-16T12:49:01.000Z</time>
      </trkpt>
      <trkpt lat="48.21714" lon="-2.86291">
        <ele>144.19999694824</ele>
        <time>2020-10-16T12:49:02.000Z</time>
      </trkpt>
      <trkpt lat="48.21717" lon="-2.86291">
        <ele>144</ele>
        <time>2020-10-16T12:49:03.000Z</time>
      </trkpt>
      <trkpt lat="48.2172" lon="-2.8629">
        <ele>144</ele>
        <time>2020-10-16T12:49:04.000Z</time>
      </trkpt>
      <trkpt lat="48.21723" lon="-2.8629">
        <ele>144</ele>
        <time>2020-10-16T12:49:05.000Z</time>
      </trkpt>
      <trkpt lat="48.21727" lon="-2.86289">
        <ele>144</ele>
        <time>2020-10-16T12:49:06.000Z</time>
      </trkpt>
      <trkpt lat="48.2173" lon="-2.86289">
        <ele>144</ele>
        <time>2020-10-16T12:49:07.000Z</time>
      </trkpt>
      <trkpt lat="48.21735" lon="-2.86289">
        <ele>144</ele>
        <time>2020-10-16T12:49:08.000Z</time>
      </trkpt>
      <trkpt lat="48.21738" lon="-2.86288">
        <ele>144</ele>
        <time>2020-10-16T12:49:09.000Z</time>
      </trkpt>
      <trkpt lat="48.21742" lon="-2.86288">
        <ele>144</ele>
        <time>2020-10-16T12:49:10.000Z</time>
      </trkpt>
      <trkpt lat="48.21745" lon="-2.86288">
        <ele>144.19999694824</ele>
        <time>2020-10-16T12:49:11.000Z</time>
      </trkpt>
      <trkpt lat="48.21748" lon="-2.86288">
        <ele>144.19999694824</ele>
        <time>2020-10-16T12:49:12.000Z</time>
      </trkpt>
      <trkpt lat="48.21751" lon="-2.86287">
        <ele>144.19999694824</ele>
        <time>2020-10-16T12:49:13.000Z</time>
      </trkpt>
      <trkpt lat="48.21755" lon="-2.86286">
        <ele>144.19999694824</ele>
        <time>2020-10-16T12:49:14.000Z</time>
      </trkpt>
      <trkpt lat="48.21759" lon="-2.86286">
        <ele>144.19999694824</ele>
        <time>2020-10-16T12:49:15.000Z</time>
      </trkpt>
      <trkpt lat="48.21763" lon="-2.86284">
        <ele>144</ele>
        <time>2020-10-16T12:49:16.000Z</time>
      </trkpt>
      <trkpt lat="48.21769" lon="-2.8628">
        <ele>144</ele>
        <time>2020-10-16T12:49:17.000Z</time>
      </trkpt>
      <trkpt lat="48.21769" lon="-2.8628">
        <ele>144</ele>
        <time>2020-10-16T12:49:18.000Z</time>
      </trkpt>
      <trkpt lat="48.21774" lon="-2.86278">
        <ele>144.19999694824</ele>
        <time>2020-10-16T12:49:19.000Z</time>
      </trkpt>
      <trkpt lat="48.21778" lon="-2.86275">
        <ele>144.19999694824</ele>
        <time>2020-10-16T12:49:20.000Z</time>
      </trkpt>
      <trkpt lat="48.21782" lon="-2.86273">
        <ele>144.19999694824</ele>
        <time>2020-10-16T12:49:21.000Z</time>
      </trkpt>
      <trkpt lat="48.21785" lon="-2.86271">
        <ele>144.19999694824</ele>
        <time>2020-10-16T12:49:22.000Z</time>
      </trkpt>
      <trkpt lat="48.21788" lon="-2.86269">
        <ele>144.19999694824</ele>
        <time>2020-10-16T12:49:23.000Z</time>
      </trkpt>
      <trkpt lat="48.21792" lon="-2.86268">
        <ele>144.39999389648</ele>
        <time>2020-10-16T12:49:24.000Z</time>
      </trkpt>
      <trkpt lat="48.21795" lon="-2.86267">
        <ele>144.39999389648</ele>
        <time>2020-10-16T12:49:25.000Z</time>
      </trkpt>
      <trkpt lat="48.21798" lon="-2.86265">
        <ele>144.39999389648</ele>
        <time>2020-10-16T12:49:26.000Z</time>
      </trkpt>
      <trkpt lat="48.21801" lon="-2.86263">
        <ele>144.39999389648</ele>
        <time>2020-10-16T12:49:27.000Z</time>
      </trkpt>
      <trkpt lat="48.21804" lon="-2.86262">
        <ele>144.39999389648</ele>
        <time>2020-10-16T12:49:28.000Z</time>
      </trkpt>
      <trkpt lat="48.21807" lon="-2.8626">
        <ele>144.39999389648</ele>
        <time>2020-10-16T12:49:29.000Z</time>
      </trkpt>
      <trkpt lat="48.2181" lon="-2.86257">
        <ele>144.39999389648</ele>
        <time>2020-10-16T12:49:30.000Z</time>
      </trkpt>
      <trkpt lat="48.21814" lon="-2.86256">
        <ele>144.39999389648</ele>
        <time>2020-10-16T12:49:31.000Z</time>
      </trkpt>
      <trkpt lat="48.21817" lon="-2.86255">
        <ele>144.60000610352</ele>
        <time>2020-10-16T12:49:32.000Z</time>
      </trkpt>
      <trkpt lat="48.21821" lon="-2.86255">
        <ele>144.80000305176</ele>
        <time>2020-10-16T12:49:33.000Z</time>
      </trkpt>
      <trkpt lat="48.21825" lon="-2.86253">
        <ele>144.80000305176</ele>
        <time>2020-10-16T12:49:34.000Z</time>
      </trkpt>
      <trkpt lat="48.21829" lon="-2.86252">
        <ele>144.80000305176</ele>
        <time>2020-10-16T12:49:35.000Z</time>
      </trkpt>
      <trkpt lat="48.21833" lon="-2.8625">
        <ele>145</ele>
        <time>2020-10-16T12:49:36.000Z</time>
      </trkpt>
      <trkpt lat="48.21836" lon="-2.86249">
        <ele>145</ele>
        <time>2020-10-16T12:49:37.000Z</time>
      </trkpt>
      <trkpt lat="48.2184" lon="-2.86248">
        <ele>145</ele>
        <time>2020-10-16T12:49:38.000Z</time>
      </trkpt>
      <trkpt lat="48.21843" lon="-2.86247">
        <ele>145.19999694824</ele>
        <time>2020-10-16T12:49:39.000Z</time>
      </trkpt>
      <trkpt lat="48.21847" lon="-2.86245">
        <ele>145</ele>
        <time>2020-10-16T12:49:40.000Z</time>
      </trkpt>
      <trkpt lat="48.21851" lon="-2.86244">
        <ele>145</ele>
        <time>2020-10-16T12:49:41.000Z</time>
      </trkpt>
      <trkpt lat="48.21854" lon="-2.86244">
        <ele>145</ele>
        <time>2020-10-16T12:49:42.000Z</time>
      </trkpt>
      <trkpt lat="48.21857" lon="-2.86243">
        <ele>145</ele>
        <time>2020-10-16T12:49:43.000Z</time>
      </trkpt>
      <trkpt lat="48.2186" lon="-2.86244">
        <ele>144.80000305176</ele>
        <time>2020-10-16T12:49:44.000Z</time>
      </trkpt>
      <trkpt lat="48.21863" lon="-2.86244">
        <ele>144.80000305176</ele>
        <time>2020-10-16T12:49:45.000Z</time>
      </trkpt>
      <trkpt lat="48.21866" lon="-2.86246">
        <ele>144.60000610352</ele>
        <time>2020-10-16T12:49:46.000Z</time>
      </trkpt>
      <trkpt lat="48.21869" lon="-2.86248">
        <ele>144.60000610352</ele>
        <time>2020-10-16T12:49:47.000Z</time>
      </trkpt>
      <trkpt lat="48.21873" lon="-2.86251">
        <ele>144.60000610352</ele>
        <time>2020-10-16T12:49:48.000Z</time>
      </trkpt>
      <trkpt lat="48.21875" lon="-2.86254">
        <ele>144.60000610352</ele>
        <time>2020-10-16T12:49:49.000Z</time>
      </trkpt>
      <trkpt lat="48.21878" lon="-2.86258">
        <ele>144.39999389648</ele>
        <time>2020-10-16T12:49:50.000Z</time>
      </trkpt>
      <trkpt lat="48.2188" lon="-2.86261">
        <ele>144.39999389648</ele>
        <time>2020-10-16T12:49:51.000Z</time>
      </trkpt>
      <trkpt lat="48.21882" lon="-2.86263">
        <ele>144.19999694824</ele>
        <time>2020-10-16T12:49:52.000Z</time>
      </trkpt>
      <trkpt lat="48.21884" lon="-2.86266">
        <ele>144.19999694824</ele>
        <time>2020-10-16T12:49:53.000Z</time>
      </trkpt>
      <trkpt lat="48.21886" lon="-2.86267">
        <ele>144</ele>
        <time>2020-10-16T12:49:54.000Z</time>
      </trkpt>
      <trkpt lat="48.21888" lon="-2.8627">
        <ele>144</ele>
        <time>2020-10-16T12:49:55.000Z</time>
      </trkpt>
      <trkpt lat="48.21892" lon="-2.86277">
        <ele>143.80000305176</ele>
        <time>2020-10-16T12:49:56.000Z</time>
      </trkpt>
      <trkpt lat="48.21892" lon="-2.86277">
        <ele>143.80000305176</ele>
        <time>2020-10-16T12:49:57.000Z</time>
      </trkpt>
      <trkpt lat="48.21894" lon="-2.86281">
        <ele>143.60000610352</ele>
        <time>2020-10-16T12:49:58.000Z</time>
      </trkpt>
      <trkpt lat="48.21896" lon="-2.86286">
        <ele>143.60000610352</ele>
        <time>2020-10-16T12:49:59.000Z</time>
      </trkpt>
      <trkpt lat="48.21896" lon="-2.86294">
        <ele>143.39999389648</ele>
        <time>2020-10-16T12:50:00.000Z</time>
      </trkpt>
      <trkpt lat="48.21896" lon="-2.86299">
        <ele>143.19999694824</ele>
        <time>2020-10-16T12:50:01.000Z</time>
      </trkpt>
      <trkpt lat="48.21896" lon="-2.86305">
        <ele>143</ele>
        <time>2020-10-16T12:50:02.000Z</time>
      </trkpt>
      <trkpt lat="48.21896" lon="-2.8631">
        <ele>142.80000305176</ele>
        <time>2020-10-16T12:50:03.000Z</time>
      </trkpt>
      <trkpt lat="48.21896" lon="-2.86315">
        <ele>142.60000610352</ele>
        <time>2020-10-16T12:50:04.000Z</time>
      </trkpt>
      <trkpt lat="48.21896" lon="-2.86324">
        <ele>142.39999389648</ele>
        <time>2020-10-16T12:50:05.000Z</time>
      </trkpt>
      <trkpt lat="48.21896" lon="-2.86324">
        <ele>142.39999389648</ele>
        <time>2020-10-16T12:50:06.000Z</time>
      </trkpt>
      <trkpt lat="48.21895" lon="-2.86329">
        <ele>142.19999694824</ele>
        <time>2020-10-16T12:50:07.000Z</time>
      </trkpt>
      <trkpt lat="48.21895" lon="-2.86334">
        <ele>142</ele>
        <time>2020-10-16T12:50:08.000Z</time>
      </trkpt>
      <trkpt lat="48.21894" lon="-2.86338">
        <ele>142</ele>
        <time>2020-10-16T12:50:09.000Z</time>
      </trkpt>
      <trkpt lat="48.21893" lon="-2.86344">
        <ele>142</ele>
        <time>2020-10-16T12:50:10.000Z</time>
      </trkpt>
      <trkpt lat="48.21892" lon="-2.8635">
        <ele>142.19999694824</ele>
        <time>2020-10-16T12:50:11.000Z</time>
      </trkpt>
      <trkpt lat="48.21891" lon="-2.86355">
        <ele>142.39999389648</ele>
        <time>2020-10-16T12:50:12.000Z</time>
      </trkpt>
      <trkpt lat="48.2189" lon="-2.86361">
        <ele>142.60000610352</ele>
        <time>2020-10-16T12:50:13.000Z</time>
      </trkpt>
      <trkpt lat="48.21889" lon="-2.86366">
        <ele>142.60000610352</ele>
        <time>2020-10-16T12:50:14.000Z</time>
      </trkpt>
      <trkpt lat="48.21888" lon="-2.86371">
        <ele>142.80000305176</ele>
        <time>2020-10-16T12:50:15.000Z</time>
      </trkpt>
      <trkpt lat="48.21887" lon="-2.86383">
        <ele>143</ele>
        <time>2020-10-16T12:50:16.000Z</time>
      </trkpt>
      <trkpt lat="48.21887" lon="-2.86383">
        <ele>143</ele>
        <time>2020-10-16T12:50:17.000Z</time>
      </trkpt>
      <trkpt lat="48.21886" lon="-2.86388">
        <ele>143</ele>
        <time>2020-10-16T12:50:18.000Z</time>
      </trkpt>
      <trkpt lat="48.21885" lon="-2.86394">
        <ele>142.80000305176</ele>
        <time>2020-10-16T12:50:19.000Z</time>
      </trkpt>
      <trkpt lat="48.21885" lon="-2.864">
        <ele>142.80000305176</ele>
        <time>2020-10-16T12:50:20.000Z</time>
      </trkpt>
      <trkpt lat="48.21884" lon="-2.86405">
        <ele>142.80000305176</ele>
        <time>2020-10-16T12:50:21.000Z</time>
      </trkpt>
      <trkpt lat="48.21883" lon="-2.86411">
        <ele>142.80000305176</ele>
        <time>2020-10-16T12:50:22.000Z</time>
      </trkpt>
      <trkpt lat="48.21882" lon="-2.86416">
        <ele>142.80000305176</ele>
        <time>2020-10-16T12:50:23.000Z</time>
      </trkpt>
      <trkpt lat="48.21881" lon="-2.86422">
        <ele>142.80000305176</ele>
        <time>2020-10-16T12:50:24.000Z</time>
      </trkpt>
      <trkpt lat="48.2188" lon="-2.86427">
        <ele>142.80000305176</ele>
        <time>2020-10-16T12:50:25.000Z</time>
      </trkpt>
      <trkpt lat="48.2188" lon="-2.86432">
        <ele>142.80000305176</ele>
        <time>2020-10-16T12:50:26.000Z</time>
      </trkpt>
      <trkpt lat="48.21879" lon="-2.86437">
        <ele>142.80000305176</ele>
        <time>2020-10-16T12:50:27.000Z</time>
      </trkpt>
      <trkpt lat="48.21878" lon="-2.86442">
        <ele>142.80000305176</ele>
        <time>2020-10-16T12:50:28.000Z</time>
      </trkpt>
      <trkpt lat="48.21877" lon="-2.86449">
        <ele>143</ele>
        <time>2020-10-16T12:50:29.000Z</time>
      </trkpt>
      <trkpt lat="48.21875" lon="-2.86455">
        <ele>143</ele>
        <time>2020-10-16T12:50:30.000Z</time>
      </trkpt>
      <trkpt lat="48.21874" lon="-2.86461">
        <ele>143</ele>
        <time>2020-10-16T12:50:31.000Z</time>
      </trkpt>
      <trkpt lat="48.21873" lon="-2.86467">
        <ele>143.19999694824</ele>
        <time>2020-10-16T12:50:32.000Z</time>
      </trkpt>
      <trkpt lat="48.21872" lon="-2.86473">
        <ele>143.19999694824</ele>
        <time>2020-10-16T12:50:33.000Z</time>
      </trkpt>
      <trkpt lat="48.21871" lon="-2.86479">
        <ele>143.19999694824</ele>
        <time>2020-10-16T12:50:34.000Z</time>
      </trkpt>
      <trkpt lat="48.2187" lon="-2.86485">
        <ele>143.19999694824</ele>
        <time>2020-10-16T12:50:35.000Z</time>
      </trkpt>
      <trkpt lat="48.21869" lon="-2.86491">
        <ele>143</ele>
        <time>2020-10-16T12:50:36.000Z</time>
      </trkpt>
      <trkpt lat="48.21868" lon="-2.86497">
        <ele>143</ele>
        <time>2020-10-16T12:50:37.000Z</time>
      </trkpt>
      <trkpt lat="48.21867" lon="-2.86502">
        <ele>142.80000305176</ele>
        <time>2020-10-16T12:50:38.000Z</time>
      </trkpt>
      <trkpt lat="48.21865" lon="-2.86508">
        <ele>142.80000305176</ele>
        <time>2020-10-16T12:50:39.000Z</time>
      </trkpt>
      <trkpt lat="48.21864" lon="-2.86513">
        <ele>143.19999694824</ele>
        <time>2020-10-16T12:50:40.000Z</time>
      </trkpt>
      <trkpt lat="48.21863" lon="-2.86518">
        <ele>143.39999389648</ele>
        <time>2020-10-16T12:50:41.000Z</time>
      </trkpt>
      <trkpt lat="48.21863" lon="-2.86523">
        <ele>143.80000305176</ele>
        <time>2020-10-16T12:50:42.000Z</time>
      </trkpt>
      <trkpt lat="48.2186" lon="-2.86534">
        <ele>144.39999389648</ele>
        <time>2020-10-16T12:50:43.000Z</time>
      </trkpt>
      <trkpt lat="48.2186" lon="-2.86534">
        <ele>144.39999389648</ele>
        <time>2020-10-16T12:50:44.000Z</time>
      </trkpt>
      <trkpt lat="48.21858" lon="-2.86539">
        <ele>144.80000305176</ele>
        <time>2020-10-16T12:50:45.000Z</time>
      </trkpt>
      <trkpt lat="48.21857" lon="-2.86544">
        <ele>145.19999694824</ele>
        <time>2020-10-16T12:50:46.000Z</time>
      </trkpt>
      <trkpt lat="48.21855" lon="-2.8655">
        <ele>145.60000610352</ele>
        <time>2020-10-16T12:50:47.000Z</time>
      </trkpt>
      <trkpt lat="48.21853" lon="-2.86554">
        <ele>146</ele>
        <time>2020-10-16T12:50:48.000Z</time>
      </trkpt>
      <trkpt lat="48.21851" lon="-2.86558">
        <ele>146.39999389648</ele>
        <time>2020-10-16T12:50:49.000Z</time>
      </trkpt>
      <trkpt lat="48.21849" lon="-2.86563">
        <ele>146.80000305176</ele>
        <time>2020-10-16T12:50:50.000Z</time>
      </trkpt>
      <trkpt lat="48.21848" lon="-2.86569">
        <ele>147.19999694824</ele>
        <time>2020-10-16T12:50:51.000Z</time>
      </trkpt>
      <trkpt lat="48.21846" lon="-2.86574">
        <ele>147.60000610352</ele>
        <time>2020-10-16T12:50:52.000Z</time>
      </trkpt>
      <trkpt lat="48.21844" lon="-2.8658">
        <ele>147.80000305176</ele>
        <time>2020-10-16T12:50:53.000Z</time>
      </trkpt>
      <trkpt lat="48.21842" lon="-2.86585">
        <ele>148</ele>
        <time>2020-10-16T12:50:54.000Z</time>
      </trkpt>
      <trkpt lat="48.21837" lon="-2.86595">
        <ele>148.19999694824</ele>
        <time>2020-10-16T12:50:55.000Z</time>
      </trkpt>
      <trkpt lat="48.21837" lon="-2.86595">
        <ele>148.19999694824</ele>
        <time>2020-10-16T12:50:56.000Z</time>
      </trkpt>
      <trkpt lat="48.21835" lon="-2.866">
        <ele>148</ele>
        <time>2020-10-16T12:50:57.000Z</time>
      </trkpt>
      <trkpt lat="48.21833" lon="-2.86605">
        <ele>148</ele>
        <time>2020-10-16T12:50:58.000Z</time>
      </trkpt>
      <trkpt lat="48.21831" lon="-2.86611">
        <ele>148</ele>
        <time>2020-10-16T12:50:59.000Z</time>
      </trkpt>
      <trkpt lat="48.2183" lon="-2.86616">
        <ele>148</ele>
        <time>2020-10-16T12:51:00.000Z</time>
      </trkpt>
      <trkpt lat="48.21828" lon="-2.86621">
        <ele>147.80000305176</ele>
        <time>2020-10-16T12:51:01.000Z</time>
      </trkpt>
      <trkpt lat="48.21826" lon="-2.86626">
        <ele>147.80000305176</ele>
        <time>2020-10-16T12:51:02.000Z</time>
      </trkpt>
      <trkpt lat="48.21823" lon="-2.86636">
        <ele>147.60000610352</ele>
        <time>2020-10-16T12:51:03.000Z</time>
      </trkpt>
      <trkpt lat="48.21823" lon="-2.86636">
        <ele>147.60000610352</ele>
        <time>2020-10-16T12:51:04.000Z</time>
      </trkpt>
      <trkpt lat="48.21821" lon="-2.86641">
        <ele>147.60000610352</ele>
        <time>2020-10-16T12:51:05.000Z</time>
      </trkpt>
      <trkpt lat="48.21819" lon="-2.86646">
        <ele>147.60000610352</ele>
        <time>2020-10-16T12:51:06.000Z</time>
      </trkpt>
      <trkpt lat="48.21818" lon="-2.86651">
        <ele>147.60000610352</ele>
        <time>2020-10-16T12:51:07.000Z</time>
      </trkpt>
      <trkpt lat="48.21816" lon="-2.86656">
        <ele>147.39999389648</ele>
        <time>2020-10-16T12:51:08.000Z</time>
      </trkpt>
      <trkpt lat="48.21814" lon="-2.86662">
        <ele>147.39999389648</ele>
        <time>2020-10-16T12:51:09.000Z</time>
      </trkpt>
      <trkpt lat="48.21812" lon="-2.86668">
        <ele>147.39999389648</ele>
        <time>2020-10-16T12:51:10.000Z</time>
      </trkpt>
      <trkpt lat="48.2181" lon="-2.86673">
        <ele>147.19999694824</ele>
        <time>2020-10-16T12:51:11.000Z</time>
      </trkpt>
      <trkpt lat="48.21808" lon="-2.86679">
        <ele>147.19999694824</ele>
        <time>2020-10-16T12:51:12.000Z</time>
      </trkpt>
      <trkpt lat="48.21807" lon="-2.86684">
        <ele>147</ele>
        <time>2020-10-16T12:51:13.000Z</time>
      </trkpt>
      <trkpt lat="48.21804" lon="-2.8669">
        <ele>146.80000305176</ele>
        <time>2020-10-16T12:51:14.000Z</time>
      </trkpt>
      <trkpt lat="48.21802" lon="-2.86695">
        <ele>146.80000305176</ele>
        <time>2020-10-16T12:51:15.000Z</time>
      </trkpt>
      <trkpt lat="48.218" lon="-2.86699">
        <ele>146.60000610352</ele>
        <time>2020-10-16T12:51:16.000Z</time>
      </trkpt>
      <trkpt lat="48.21798" lon="-2.86704">
        <ele>146.60000610352</ele>
        <time>2020-10-16T12:51:17.000Z</time>
      </trkpt>
      <trkpt lat="48.21796" lon="-2.8671">
        <ele>146.39999389648</ele>
        <time>2020-10-16T12:51:18.000Z</time>
      </trkpt>
      <trkpt lat="48.21795" lon="-2.86715">
        <ele>146.19999694824</ele>
        <time>2020-10-16T12:51:19.000Z</time>
      </trkpt>
      <trkpt lat="48.21793" lon="-2.8672">
        <ele>146.19999694824</ele>
        <time>2020-10-16T12:51:20.000Z</time>
      </trkpt>
      <trkpt lat="48.21791" lon="-2.86725">
        <ele>146</ele>
        <time>2020-10-16T12:51:21.000Z</time>
      </trkpt>
      <trkpt lat="48.2179" lon="-2.8673">
        <ele>145.80000305176</ele>
        <time>2020-10-16T12:51:22.000Z</time>
      </trkpt>
      <trkpt lat="48.21789" lon="-2.86735">
        <ele>145.39999389648</ele>
        <time>2020-10-16T12:51:23.000Z</time>
      </trkpt>
      <trkpt lat="48.21787" lon="-2.8674">
        <ele>145</ele>
        <time>2020-10-16T12:51:24.000Z</time>
      </trkpt>
      <trkpt lat="48.21786" lon="-2.86745">
        <ele>144.39999389648</ele>
        <time>2020-10-16T12:51:25.000Z</time>
      </trkpt>
      <trkpt lat="48.21785" lon="-2.86751">
        <ele>144</ele>
        <time>2020-10-16T12:51:26.000Z</time>
      </trkpt>
      <trkpt lat="48.21783" lon="-2.86756">
        <ele>143.60000610352</ele>
        <time>2020-10-16T12:51:27.000Z</time>
      </trkpt>
      <trkpt lat="48.21781" lon="-2.86761">
        <ele>143.60000610352</ele>
        <time>2020-10-16T12:51:28.000Z</time>
      </trkpt>
      <trkpt lat="48.21779" lon="-2.86767">
        <ele>143.80000305176</ele>
        <time>2020-10-16T12:51:29.000Z</time>
      </trkpt>
      <trkpt lat="48.21777" lon="-2.86772">
        <ele>144</ele>
        <time>2020-10-16T12:51:30.000Z</time>
      </trkpt>
      <trkpt lat="48.21776" lon="-2.86778">
        <ele>144.19999694824</ele>
        <time>2020-10-16T12:51:31.000Z</time>
      </trkpt>
      <trkpt lat="48.21773" lon="-2.86784">
        <ele>144.19999694824</ele>
        <time>2020-10-16T12:51:32.000Z</time>
      </trkpt>
      <trkpt lat="48.21772" lon="-2.86789">
        <ele>144.39999389648</ele>
        <time>2020-10-16T12:51:33.000Z</time>
      </trkpt>
      <trkpt lat="48.2177" lon="-2.86796">
        <ele>144.60000610352</ele>
        <time>2020-10-16T12:51:34.000Z</time>
      </trkpt>
      <trkpt lat="48.21768" lon="-2.86801">
        <ele>144.80000305176</ele>
        <time>2020-10-16T12:51:35.000Z</time>
      </trkpt>
      <trkpt lat="48.21766" lon="-2.86806">
        <ele>144.80000305176</ele>
        <time>2020-10-16T12:51:36.000Z</time>
      </trkpt>
      <trkpt lat="48.21764" lon="-2.86812">
        <ele>145</ele>
        <time>2020-10-16T12:51:37.000Z</time>
      </trkpt>
      <trkpt lat="48.21762" lon="-2.86817">
        <ele>145.19999694824</ele>
        <time>2020-10-16T12:51:38.000Z</time>
      </trkpt>
      <trkpt lat="48.21759" lon="-2.86822">
        <ele>145.39999389648</ele>
        <time>2020-10-16T12:51:39.000Z</time>
      </trkpt>
      <trkpt lat="48.21757" lon="-2.86827">
        <ele>145.39999389648</ele>
        <time>2020-10-16T12:51:40.000Z</time>
      </trkpt>
      <trkpt lat="48.21755" lon="-2.8683">
        <ele>145.39999389648</ele>
        <time>2020-10-16T12:51:41.000Z</time>
      </trkpt>
      <trkpt lat="48.21752" lon="-2.86833">
        <ele>145.60000610352</ele>
        <time>2020-10-16T12:51:42.000Z</time>
      </trkpt>
      <trkpt lat="48.2175" lon="-2.86836">
        <ele>145.60000610352</ele>
        <time>2020-10-16T12:51:43.000Z</time>
      </trkpt>
      <trkpt lat="48.21749" lon="-2.86839">
        <ele>145.60000610352</ele>
        <time>2020-10-16T12:51:44.000Z</time>
      </trkpt>
      <trkpt lat="48.21747" lon="-2.86843">
        <ele>145.60000610352</ele>
        <time>2020-10-16T12:51:45.000Z</time>
      </trkpt>
      <trkpt lat="48.21746" lon="-2.86846">
        <ele>145.60000610352</ele>
        <time>2020-10-16T12:51:46.000Z</time>
      </trkpt>
      <trkpt lat="48.21744" lon="-2.8685">
        <ele>145.60000610352</ele>
        <time>2020-10-16T12:51:47.000Z</time>
      </trkpt>
      <trkpt lat="48.21742" lon="-2.86853">
        <ele>145.39999389648</ele>
        <time>2020-10-16T12:51:48.000Z</time>
      </trkpt>
      <trkpt lat="48.2174" lon="-2.86858">
        <ele>145.39999389648</ele>
        <time>2020-10-16T12:51:49.000Z</time>
      </trkpt>
      <trkpt lat="48.21738" lon="-2.86862">
        <ele>145.39999389648</ele>
        <time>2020-10-16T12:51:50.000Z</time>
      </trkpt>
      <trkpt lat="48.21735" lon="-2.86866">
        <ele>145.39999389648</ele>
        <time>2020-10-16T12:51:51.000Z</time>
      </trkpt>
      <trkpt lat="48.21733" lon="-2.86871">
        <ele>145.19999694824</ele>
        <time>2020-10-16T12:51:52.000Z</time>
      </trkpt>
      <trkpt lat="48.2173" lon="-2.86876">
        <ele>145.19999694824</ele>
        <time>2020-10-16T12:51:53.000Z</time>
      </trkpt>
      <trkpt lat="48.21725" lon="-2.86887">
        <ele>145</ele>
        <time>2020-10-16T12:51:54.000Z</time>
      </trkpt>
      <trkpt lat="48.21725" lon="-2.86887">
        <ele>145</ele>
        <time>2020-10-16T12:51:55.000Z</time>
      </trkpt>
      <trkpt lat="48.21722" lon="-2.86891">
        <ele>145</ele>
        <time>2020-10-16T12:51:56.000Z</time>
      </trkpt>
      <trkpt lat="48.21719" lon="-2.86896">
        <ele>145</ele>
        <time>2020-10-16T12:51:57.000Z</time>
      </trkpt>
      <trkpt lat="48.21717" lon="-2.86901">
        <ele>145</ele>
        <time>2020-10-16T12:51:58.000Z</time>
      </trkpt>
      <trkpt lat="48.21714" lon="-2.86906">
        <ele>145</ele>
        <time>2020-10-16T12:51:59.000Z</time>
      </trkpt>
      <trkpt lat="48.2171" lon="-2.86915">
        <ele>144.80000305176</ele>
        <time>2020-10-16T12:52:00.000Z</time>
      </trkpt>
      <trkpt lat="48.2171" lon="-2.86915">
        <ele>144.80000305176</ele>
        <time>2020-10-16T12:52:01.000Z</time>
      </trkpt>
      <trkpt lat="48.21707" lon="-2.86919">
        <ele>144.80000305176</ele>
        <time>2020-10-16T12:52:02.000Z</time>
      </trkpt>
      <trkpt lat="48.21705" lon="-2.86923">
        <ele>144.80000305176</ele>
        <time>2020-10-16T12:52:03.000Z</time>
      </trkpt>
      <trkpt lat="48.217" lon="-2.86932">
        <ele>144.39999389648</ele>
        <time>2020-10-16T12:52:04.000Z</time>
      </trkpt>
      <trkpt lat="48.217" lon="-2.86932">
        <ele>144.39999389648</ele>
        <time>2020-10-16T12:52:05.000Z</time>
      </trkpt>
      <trkpt lat="48.21697" lon="-2.86937">
        <ele>144.19999694824</ele>
        <time>2020-10-16T12:52:06.000Z</time>
      </trkpt>
      <trkpt lat="48.21695" lon="-2.86942">
        <ele>144.19999694824</ele>
        <time>2020-10-16T12:52:07.000Z</time>
      </trkpt>
      <trkpt lat="48.21692" lon="-2.86945">
        <ele>144</ele>
        <time>2020-10-16T12:52:08.000Z</time>
      </trkpt>
      <trkpt lat="48.2169" lon="-2.86949">
        <ele>144</ele>
        <time>2020-10-16T12:52:09.000Z</time>
      </trkpt>
      <trkpt lat="48.21687" lon="-2.86952">
        <ele>143.80000305176</ele>
        <time>2020-10-16T12:52:10.000Z</time>
      </trkpt>
      <trkpt lat="48.21684" lon="-2.86955">
        <ele>143.80000305176</ele>
        <time>2020-10-16T12:52:11.000Z</time>
      </trkpt>
      <trkpt lat="48.21681" lon="-2.86957">
        <ele>143.80000305176</ele>
        <time>2020-10-16T12:52:12.000Z</time>
      </trkpt>
      <trkpt lat="48.21679" lon="-2.86959">
        <ele>143.80000305176</ele>
        <time>2020-10-16T12:52:13.000Z</time>
      </trkpt>
      <trkpt lat="48.21673" lon="-2.86961">
        <ele>144</ele>
        <time>2020-10-16T12:52:14.000Z</time>
      </trkpt>
      <trkpt lat="48.21673" lon="-2.86961">
        <ele>144</ele>
        <time>2020-10-16T12:52:15.000Z</time>
      </trkpt>
      <trkpt lat="48.21669" lon="-2.86963">
        <ele>144.19999694824</ele>
        <time>2020-10-16T12:52:16.000Z</time>
      </trkpt>
      <trkpt lat="48.21666" lon="-2.86964">
        <ele>144.19999694824</ele>
        <time>2020-10-16T12:52:17.000Z</time>
      </trkpt>
      <trkpt lat="48.21663" lon="-2.86965">
        <ele>144.39999389648</ele>
        <time>2020-10-16T12:52:18.000Z</time>
      </trkpt>
      <trkpt lat="48.21659" lon="-2.86966">
        <ele>144.60000610352</ele>
        <time>2020-10-16T12:52:19.000Z</time>
      </trkpt>
      <trkpt lat="48.21655" lon="-2.86967">
        <ele>144.80000305176</ele>
        <time>2020-10-16T12:52:20.000Z</time>
      </trkpt>
      <trkpt lat="48.21652" lon="-2.86969">
        <ele>144.80000305176</ele>
        <time>2020-10-16T12:52:21.000Z</time>
      </trkpt>
      <trkpt lat="48.21649" lon="-2.8697">
        <ele>145</ele>
        <time>2020-10-16T12:52:22.000Z</time>
      </trkpt>
      <trkpt lat="48.21646" lon="-2.86972">
        <ele>145</ele>
        <time>2020-10-16T12:52:23.000Z</time>
      </trkpt>
      <trkpt lat="48.21642" lon="-2.86973">
        <ele>145.19999694824</ele>
        <time>2020-10-16T12:52:24.000Z</time>
      </trkpt>
      <trkpt lat="48.21637" lon="-2.86973">
        <ele>145.39999389648</ele>
        <time>2020-10-16T12:52:25.000Z</time>
      </trkpt>
      <trkpt lat="48.21634" lon="-2.86974">
        <ele>145.60000610352</ele>
        <time>2020-10-16T12:52:26.000Z</time>
      </trkpt>
      <trkpt lat="48.21629" lon="-2.86974">
        <ele>145.80000305176</ele>
        <time>2020-10-16T12:52:27.000Z</time>
      </trkpt>
      <trkpt lat="48.21626" lon="-2.86974">
        <ele>146</ele>
        <time>2020-10-16T12:52:28.000Z</time>
      </trkpt>
      <trkpt lat="48.21621" lon="-2.86974">
        <ele>146.19999694824</ele>
        <time>2020-10-16T12:52:29.000Z</time>
      </trkpt>
      <trkpt lat="48.21617" lon="-2.86975">
        <ele>146.19999694824</ele>
        <time>2020-10-16T12:52:30.000Z</time>
      </trkpt>
      <trkpt lat="48.21613" lon="-2.86976">
        <ele>146.39999389648</ele>
        <time>2020-10-16T12:52:31.000Z</time>
      </trkpt>
      <trkpt lat="48.21609" lon="-2.86978">
        <ele>146.39999389648</ele>
        <time>2020-10-16T12:52:32.000Z</time>
      </trkpt>
      <trkpt lat="48.21605" lon="-2.86979">
        <ele>146.39999389648</ele>
        <time>2020-10-16T12:52:33.000Z</time>
      </trkpt>
      <trkpt lat="48.21599" lon="-2.86982">
        <ele>146.39999389648</ele>
        <time>2020-10-16T12:52:34.000Z</time>
      </trkpt>
      <trkpt lat="48.21599" lon="-2.86982">
        <ele>146.39999389648</ele>
        <time>2020-10-16T12:52:35.000Z</time>
      </trkpt>
      <trkpt lat="48.21597" lon="-2.86984">
        <ele>146.60000610352</ele>
        <time>2020-10-16T12:52:36.000Z</time>
      </trkpt>
      <trkpt lat="48.21591" lon="-2.86985">
        <ele>146.60000610352</ele>
        <time>2020-10-16T12:52:37.000Z</time>
      </trkpt>
      <trkpt lat="48.21584" lon="-2.86986">
        <ele>146.80000305176</ele>
        <time>2020-10-16T12:52:38.000Z</time>
      </trkpt>
      <trkpt lat="48.21578" lon="-2.86987">
        <ele>147</ele>
        <time>2020-10-16T12:52:39.000Z</time>
      </trkpt>
      <trkpt lat="48.21572" lon="-2.86987">
        <ele>147.19999694824</ele>
        <time>2020-10-16T12:52:40.000Z</time>
      </trkpt>
      <trkpt lat="48.21566" lon="-2.86988">
        <ele>147.39999389648</ele>
        <time>2020-10-16T12:52:41.000Z</time>
      </trkpt>
      <trkpt lat="48.21561" lon="-2.86991">
        <ele>147.60000610352</ele>
        <time>2020-10-16T12:52:42.000Z</time>
      </trkpt>
      <trkpt lat="48.21557" lon="-2.86993">
        <ele>147.60000610352</ele>
        <time>2020-10-16T12:52:43.000Z</time>
      </trkpt>
      <trkpt lat="48.21548" lon="-2.87">
        <ele>147.80000305176</ele>
        <time>2020-10-16T12:52:44.000Z</time>
      </trkpt>
      <trkpt lat="48.21548" lon="-2.87">
        <ele>147.80000305176</ele>
        <time>2020-10-16T12:52:45.000Z</time>
      </trkpt>
      <trkpt lat="48.21543" lon="-2.87002">
        <ele>148</ele>
        <time>2020-10-16T12:52:46.000Z</time>
      </trkpt>
      <trkpt lat="48.21539" lon="-2.87006">
        <ele>148</ele>
        <time>2020-10-16T12:52:47.000Z</time>
      </trkpt>
      <trkpt lat="48.21534" lon="-2.87008">
        <ele>148.19999694824</ele>
        <time>2020-10-16T12:52:48.000Z</time>
      </trkpt>
      <trkpt lat="48.21529" lon="-2.87011">
        <ele>148.19999694824</ele>
        <time>2020-10-16T12:52:49.000Z</time>
      </trkpt>
      <trkpt lat="48.21525" lon="-2.87014">
        <ele>148.19999694824</ele>
        <time>2020-10-16T12:52:50.000Z</time>
      </trkpt>
      <trkpt lat="48.21521" lon="-2.87018">
        <ele>148.19999694824</ele>
        <time>2020-10-16T12:52:51.000Z</time>
      </trkpt>
      <trkpt lat="48.21517" lon="-2.87021">
        <ele>148.19999694824</ele>
        <time>2020-10-16T12:52:52.000Z</time>
      </trkpt>
      <trkpt lat="48.21513" lon="-2.87025">
        <ele>148.19999694824</ele>
        <time>2020-10-16T12:52:53.000Z</time>
      </trkpt>
      <trkpt lat="48.2151" lon="-2.87029">
        <ele>148.39999389648</ele>
        <time>2020-10-16T12:52:54.000Z</time>
      </trkpt>
      <trkpt lat="48.21507" lon="-2.87034">
        <ele>148.39999389648</ele>
        <time>2020-10-16T12:52:55.000Z</time>
      </trkpt>
      <trkpt lat="48.21506" lon="-2.8704">
        <ele>148.19999694824</ele>
        <time>2020-10-16T12:52:56.000Z</time>
      </trkpt>
      <trkpt lat="48.21504" lon="-2.87045">
        <ele>148.19999694824</ele>
        <time>2020-10-16T12:52:57.000Z</time>
      </trkpt>
      <trkpt lat="48.21503" lon="-2.87049">
        <ele>148.19999694824</ele>
        <time>2020-10-16T12:52:58.000Z</time>
      </trkpt>
      <trkpt lat="48.21501" lon="-2.87053">
        <ele>148.19999694824</ele>
        <time>2020-10-16T12:52:59.000Z</time>
      </trkpt>
      <trkpt lat="48.21499" lon="-2.87057">
        <ele>148.19999694824</ele>
        <time>2020-10-16T12:53:00.000Z</time>
      </trkpt>
      <trkpt lat="48.21497" lon="-2.8706">
        <ele>148.39999389648</ele>
        <time>2020-10-16T12:53:01.000Z</time>
      </trkpt>
      <trkpt lat="48.21496" lon="-2.87063">
        <ele>148.19999694824</ele>
        <time>2020-10-16T12:53:02.000Z</time>
      </trkpt>
      <trkpt lat="48.21494" lon="-2.87067">
        <ele>148.39999389648</ele>
        <time>2020-10-16T12:53:03.000Z</time>
      </trkpt>
      <trkpt lat="48.21492" lon="-2.87071">
        <ele>148.39999389648</ele>
        <time>2020-10-16T12:53:04.000Z</time>
      </trkpt>
      <trkpt lat="48.21489" lon="-2.87078">
        <ele>148.39999389648</ele>
        <time>2020-10-16T12:53:05.000Z</time>
      </trkpt>
      <trkpt lat="48.21489" lon="-2.87078">
        <ele>148.39999389648</ele>
        <time>2020-10-16T12:53:06.000Z</time>
      </trkpt>
      <trkpt lat="48.21487" lon="-2.87082">
        <ele>148.39999389648</ele>
        <time>2020-10-16T12:53:07.000Z</time>
      </trkpt>
      <trkpt lat="48.21486" lon="-2.87087">
        <ele>148.19999694824</ele>
        <time>2020-10-16T12:53:08.000Z</time>
      </trkpt>
      <trkpt lat="48.21485" lon="-2.87092">
        <ele>148.19999694824</ele>
        <time>2020-10-16T12:53:09.000Z</time>
      </trkpt>
      <trkpt lat="48.21483" lon="-2.87097">
        <ele>148.19999694824</ele>
        <time>2020-10-16T12:53:10.000Z</time>
      </trkpt>
      <trkpt lat="48.21481" lon="-2.87102">
        <ele>148.19999694824</ele>
        <time>2020-10-16T12:53:11.000Z</time>
      </trkpt>
      <trkpt lat="48.2148" lon="-2.87106">
        <ele>148.19999694824</ele>
        <time>2020-10-16T12:53:12.000Z</time>
      </trkpt>
      <trkpt lat="48.21479" lon="-2.87112">
        <ele>148.19999694824</ele>
        <time>2020-10-16T12:53:13.000Z</time>
      </trkpt>
      <trkpt lat="48.21479" lon="-2.87117">
        <ele>148.19999694824</ele>
        <time>2020-10-16T12:53:14.000Z</time>
      </trkpt>
      <trkpt lat="48.21478" lon="-2.87122">
        <ele>148</ele>
        <time>2020-10-16T12:53:15.000Z</time>
      </trkpt>
      <trkpt lat="48.21478" lon="-2.87128">
        <ele>147.80000305176</ele>
        <time>2020-10-16T12:53:16.000Z</time>
      </trkpt>
      <trkpt lat="48.21478" lon="-2.87133">
        <ele>147.60000610352</ele>
        <time>2020-10-16T12:53:17.000Z</time>
      </trkpt>
      <trkpt lat="48.21478" lon="-2.87137">
        <ele>147.60000610352</ele>
        <time>2020-10-16T12:53:18.000Z</time>
      </trkpt>
      <trkpt lat="48.21477" lon="-2.87143">
        <ele>147.39999389648</ele>
        <time>2020-10-16T12:53:19.000Z</time>
      </trkpt>
      <trkpt lat="48.21477" lon="-2.87148">
        <ele>147.19999694824</ele>
        <time>2020-10-16T12:53:20.000Z</time>
      </trkpt>
      <trkpt lat="48.21476" lon="-2.87154">
        <ele>147.19999694824</ele>
        <time>2020-10-16T12:53:21.000Z</time>
      </trkpt>
      <trkpt lat="48.21475" lon="-2.87159">
        <ele>147</ele>
        <time>2020-10-16T12:53:22.000Z</time>
      </trkpt>
      <trkpt lat="48.21473" lon="-2.87164">
        <ele>147</ele>
        <time>2020-10-16T12:53:23.000Z</time>
      </trkpt>
      <trkpt lat="48.21471" lon="-2.87169">
        <ele>147</ele>
        <time>2020-10-16T12:53:24.000Z</time>
      </trkpt>
      <trkpt lat="48.2147" lon="-2.87174">
        <ele>147</ele>
        <time>2020-10-16T12:53:25.000Z</time>
      </trkpt>
      <trkpt lat="48.21468" lon="-2.87179">
        <ele>147.19999694824</ele>
        <time>2020-10-16T12:53:26.000Z</time>
      </trkpt>
      <trkpt lat="48.21465" lon="-2.87184">
        <ele>147.39999389648</ele>
        <time>2020-10-16T12:53:27.000Z</time>
      </trkpt>
      <trkpt lat="48.21463" lon="-2.87188">
        <ele>147.60000610352</ele>
        <time>2020-10-16T12:53:28.000Z</time>
      </trkpt>
      <trkpt lat="48.2146" lon="-2.87193">
        <ele>147.80000305176</ele>
        <time>2020-10-16T12:53:29.000Z</time>
      </trkpt>
      <trkpt lat="48.21457" lon="-2.87199">
        <ele>148</ele>
        <time>2020-10-16T12:53:30.000Z</time>
      </trkpt>
      <trkpt lat="48.21455" lon="-2.87204">
        <ele>148</ele>
        <time>2020-10-16T12:53:31.000Z</time>
      </trkpt>
      <trkpt lat="48.21452" lon="-2.87214">
        <ele>148.19999694824</ele>
        <time>2020-10-16T12:53:32.000Z</time>
      </trkpt>
      <trkpt lat="48.21452" lon="-2.87214">
        <ele>148.19999694824</ele>
        <time>2020-10-16T12:53:33.000Z</time>
      </trkpt>
      <trkpt lat="48.2145" lon="-2.8722">
        <ele>148.39999389648</ele>
        <time>2020-10-16T12:53:34.000Z</time>
      </trkpt>
      <trkpt lat="48.21449" lon="-2.87225">
        <ele>148.39999389648</ele>
        <time>2020-10-16T12:53:35.000Z</time>
      </trkpt>
      <trkpt lat="48.21448" lon="-2.8723">
        <ele>148.39999389648</ele>
        <time>2020-10-16T12:53:36.000Z</time>
      </trkpt>
      <trkpt lat="48.21446" lon="-2.87236">
        <ele>148.60000610352</ele>
        <time>2020-10-16T12:53:37.000Z</time>
      </trkpt>
      <trkpt lat="48.21444" lon="-2.87242">
        <ele>148.80000305176</ele>
        <time>2020-10-16T12:53:38.000Z</time>
      </trkpt>
      <trkpt lat="48.21443" lon="-2.87248">
        <ele>148.80000305176</ele>
        <time>2020-10-16T12:53:39.000Z</time>
      </trkpt>
      <trkpt lat="48.21441" lon="-2.87254">
        <ele>148.80000305176</ele>
        <time>2020-10-16T12:53:40.000Z</time>
      </trkpt>
      <trkpt lat="48.2144" lon="-2.87261">
        <ele>148.80000305176</ele>
        <time>2020-10-16T12:53:41.000Z</time>
      </trkpt>
      <trkpt lat="48.2144" lon="-2.87268">
        <ele>148.80000305176</ele>
        <time>2020-10-16T12:53:42.000Z</time>
      </trkpt>
      <trkpt lat="48.21439" lon="-2.87275">
        <ele>148.80000305176</ele>
        <time>2020-10-16T12:53:43.000Z</time>
      </trkpt>
      <trkpt lat="48.21439" lon="-2.87282">
        <ele>148.80000305176</ele>
        <time>2020-10-16T12:53:44.000Z</time>
      </trkpt>
      <trkpt lat="48.21438" lon="-2.87288">
        <ele>148.80000305176</ele>
        <time>2020-10-16T12:53:45.000Z</time>
      </trkpt>
      <trkpt lat="48.21437" lon="-2.87293">
        <ele>148.80000305176</ele>
        <time>2020-10-16T12:53:46.000Z</time>
      </trkpt>
      <trkpt lat="48.21436" lon="-2.87299">
        <ele>148.80000305176</ele>
        <time>2020-10-16T12:53:47.000Z</time>
      </trkpt>
      <trkpt lat="48.21434" lon="-2.87305">
        <ele>148.80000305176</ele>
        <time>2020-10-16T12:53:48.000Z</time>
      </trkpt>
      <trkpt lat="48.21432" lon="-2.8731">
        <ele>149</ele>
        <time>2020-10-16T12:53:49.000Z</time>
      </trkpt>
      <trkpt lat="48.2143" lon="-2.87316">
        <ele>149.19999694824</ele>
        <time>2020-10-16T12:53:50.000Z</time>
      </trkpt>
      <trkpt lat="48.21428" lon="-2.87323">
        <ele>149.19999694824</ele>
        <time>2020-10-16T12:53:51.000Z</time>
      </trkpt>
      <trkpt lat="48.21424" lon="-2.87335">
        <ele>149.19999694824</ele>
        <time>2020-10-16T12:53:52.000Z</time>
      </trkpt>
      <trkpt lat="48.21424" lon="-2.87335">
        <ele>149.19999694824</ele>
        <time>2020-10-16T12:53:53.000Z</time>
      </trkpt>
      <trkpt lat="48.21422" lon="-2.8734">
        <ele>149.19999694824</ele>
        <time>2020-10-16T12:53:54.000Z</time>
      </trkpt>
      <trkpt lat="48.2142" lon="-2.87345">
        <ele>149.19999694824</ele>
        <time>2020-10-16T12:53:55.000Z</time>
      </trkpt>
      <trkpt lat="48.21419" lon="-2.87351">
        <ele>149.19999694824</ele>
        <time>2020-10-16T12:53:56.000Z</time>
      </trkpt>
      <trkpt lat="48.21417" lon="-2.87356">
        <ele>149.19999694824</ele>
        <time>2020-10-16T12:53:57.000Z</time>
      </trkpt>
      <trkpt lat="48.21416" lon="-2.87362">
        <ele>149.19999694824</ele>
        <time>2020-10-16T12:53:58.000Z</time>
      </trkpt>
      <trkpt lat="48.21416" lon="-2.87368">
        <ele>149.19999694824</ele>
        <time>2020-10-16T12:53:59.000Z</time>
      </trkpt>
      <trkpt lat="48.21417" lon="-2.87374">
        <ele>149</ele>
        <time>2020-10-16T12:54:00.000Z</time>
      </trkpt>
      <trkpt lat="48.21418" lon="-2.87381">
        <ele>148.80000305176</ele>
        <time>2020-10-16T12:54:01.000Z</time>
      </trkpt>
      <trkpt lat="48.21419" lon="-2.87387">
        <ele>148.80000305176</ele>
        <time>2020-10-16T12:54:02.000Z</time>
      </trkpt>
      <trkpt lat="48.21421" lon="-2.87393">
        <ele>148.60000610352</ele>
        <time>2020-10-16T12:54:03.000Z</time>
      </trkpt>
      <trkpt lat="48.21423" lon="-2.87398">
        <ele>148.60000610352</ele>
        <time>2020-10-16T12:54:04.000Z</time>
      </trkpt>
      <trkpt lat="48.21424" lon="-2.87402">
        <ele>148.39999389648</ele>
        <time>2020-10-16T12:54:05.000Z</time>
      </trkpt>
      <trkpt lat="48.21426" lon="-2.87407">
        <ele>148.19999694824</ele>
        <time>2020-10-16T12:54:06.000Z</time>
      </trkpt>
      <trkpt lat="48.21428" lon="-2.8741">
        <ele>148.19999694824</ele>
        <time>2020-10-16T12:54:07.000Z</time>
      </trkpt>
      <trkpt lat="48.21431" lon="-2.87414">
        <ele>148</ele>
        <time>2020-10-16T12:54:08.000Z</time>
      </trkpt>
      <trkpt lat="48.21434" lon="-2.87417">
        <ele>147.80000305176</ele>
        <time>2020-10-16T12:54:09.000Z</time>
      </trkpt>
      <trkpt lat="48.21437" lon="-2.87419">
        <ele>147.80000305176</ele>
        <time>2020-10-16T12:54:10.000Z</time>
      </trkpt>
      <trkpt lat="48.2144" lon="-2.87421">
        <ele>148</ele>
        <time>2020-10-16T12:54:11.000Z</time>
      </trkpt>
      <trkpt lat="48.21442" lon="-2.87421">
        <ele>148</ele>
        <time>2020-10-16T12:54:12.000Z</time>
      </trkpt>
      <trkpt lat="48.21445" lon="-2.87421">
        <ele>148</ele>
        <time>2020-10-16T12:54:13.000Z</time>
      </trkpt>
      <trkpt lat="48.21448" lon="-2.87419">
        <ele>147.80000305176</ele>
        <time>2020-10-16T12:54:14.000Z</time>
      </trkpt>
      <trkpt lat="48.2145" lon="-2.87417">
        <ele>147.80000305176</ele>
        <time>2020-10-16T12:54:15.000Z</time>
      </trkpt>
      <trkpt lat="48.21452" lon="-2.87415">
        <ele>147.80000305176</ele>
        <time>2020-10-16T12:54:16.000Z</time>
      </trkpt>
      <trkpt lat="48.21454" lon="-2.87412">
        <ele>147.60000610352</ele>
        <time>2020-10-16T12:54:17.000Z</time>
      </trkpt>
      <trkpt lat="48.21455" lon="-2.8741">
        <ele>147.60000610352</ele>
        <time>2020-10-16T12:54:18.000Z</time>
      </trkpt>
      <trkpt lat="48.21457" lon="-2.87407">
        <ele>147.39999389648</ele>
        <time>2020-10-16T12:54:19.000Z</time>
      </trkpt>
      <trkpt lat="48.21458" lon="-2.87404">
        <ele>147.39999389648</ele>
        <time>2020-10-16T12:54:20.000Z</time>
      </trkpt>
      <trkpt lat="48.2146" lon="-2.87401">
        <ele>147.19999694824</ele>
        <time>2020-10-16T12:54:21.000Z</time>
      </trkpt>
      <trkpt lat="48.21461" lon="-2.87397">
        <ele>147</ele>
        <time>2020-10-16T12:54:22.000Z</time>
      </trkpt>
      <trkpt lat="48.21465" lon="-2.8739">
        <ele>146.80000305176</ele>
        <time>2020-10-16T12:54:23.000Z</time>
      </trkpt>
      <trkpt lat="48.21465" lon="-2.8739">
        <ele>146.80000305176</ele>
        <time>2020-10-16T12:54:24.000Z</time>
      </trkpt>
      <trkpt lat="48.21466" lon="-2.87387">
        <ele>146.80000305176</ele>
        <time>2020-10-16T12:54:25.000Z</time>
      </trkpt>
      <trkpt lat="48.21467" lon="-2.87384">
        <ele>146.60000610352</ele>
        <time>2020-10-16T12:54:26.000Z</time>
      </trkpt>
      <trkpt lat="48.21469" lon="-2.8738">
        <ele>146.60000610352</ele>
        <time>2020-10-16T12:54:27.000Z</time>
      </trkpt>
      <trkpt lat="48.2147" lon="-2.87377">
        <ele>146.60000610352</ele>
        <time>2020-10-16T12:54:28.000Z</time>
      </trkpt>
      <trkpt lat="48.21472" lon="-2.87373">
        <ele>146.60000610352</ele>
        <time>2020-10-16T12:54:29.000Z</time>
      </trkpt>
      <trkpt lat="48.21474" lon="-2.87369">
        <ele>146.39999389648</ele>
        <time>2020-10-16T12:54:30.000Z</time>
      </trkpt>
      <trkpt lat="48.21477" lon="-2.87366">
        <ele>146.39999389648</ele>
        <time>2020-10-16T12:54:31.000Z</time>
      </trkpt>
      <trkpt lat="48.21479" lon="-2.87362">
        <ele>146.39999389648</ele>
        <time>2020-10-16T12:54:32.000Z</time>
      </trkpt>
      <trkpt lat="48.21482" lon="-2.87358">
        <ele>146.19999694824</ele>
        <time>2020-10-16T12:54:33.000Z</time>
      </trkpt>
      <trkpt lat="48.21484" lon="-2.87355">
        <ele>146.19999694824</ele>
        <time>2020-10-16T12:54:34.000Z</time>
      </trkpt>
      <trkpt lat="48.21486" lon="-2.87352">
        <ele>146</ele>
        <time>2020-10-16T12:54:35.000Z</time>
      </trkpt>
      <trkpt lat="48.21489" lon="-2.87349">
        <ele>146</ele>
        <time>2020-10-16T12:54:36.000Z</time>
      </trkpt>
      <trkpt lat="48.21491" lon="-2.87345">
        <ele>146</ele>
        <time>2020-10-16T12:54:37.000Z</time>
      </trkpt>
      <trkpt lat="48.21493" lon="-2.87343">
        <ele>145.80000305176</ele>
        <time>2020-10-16T12:54:38.000Z</time>
      </trkpt>
      <trkpt lat="48.21495" lon="-2.8734">
        <ele>145.80000305176</ele>
        <time>2020-10-16T12:54:39.000Z</time>
      </trkpt>
      <trkpt lat="48.21498" lon="-2.87338">
        <ele>145.60000610352</ele>
        <time>2020-10-16T12:54:40.000Z</time>
      </trkpt>
      <trkpt lat="48.21501" lon="-2.87336">
        <ele>145.39999389648</ele>
        <time>2020-10-16T12:54:41.000Z</time>
      </trkpt>
      <trkpt lat="48.21504" lon="-2.87335">
        <ele>145.19999694824</ele>
        <time>2020-10-16T12:54:42.000Z</time>
      </trkpt>
      <trkpt lat="48.21507" lon="-2.87333">
        <ele>145</ele>
        <time>2020-10-16T12:54:43.000Z</time>
      </trkpt>
      <trkpt lat="48.2151" lon="-2.87333">
        <ele>144.80000305176</ele>
        <time>2020-10-16T12:54:44.000Z</time>
      </trkpt>
      <trkpt lat="48.21517" lon="-2.87331">
        <ele>144.60000610352</ele>
        <time>2020-10-16T12:54:45.000Z</time>
      </trkpt>
      <trkpt lat="48.21517" lon="-2.87331">
        <ele>144.60000610352</ele>
        <time>2020-10-16T12:54:46.000Z</time>
      </trkpt>
      <trkpt lat="48.21521" lon="-2.8733">
        <ele>144.60000610352</ele>
        <time>2020-10-16T12:54:47.000Z</time>
      </trkpt>
      <trkpt lat="48.21524" lon="-2.87329">
        <ele>144.39999389648</ele>
        <time>2020-10-16T12:54:48.000Z</time>
      </trkpt>
      <trkpt lat="48.21527" lon="-2.87328">
        <ele>144.60000610352</ele>
        <time>2020-10-16T12:54:49.000Z</time>
      </trkpt>
      <trkpt lat="48.21531" lon="-2.87328">
        <ele>144.60000610352</ele>
        <time>2020-10-16T12:54:50.000Z</time>
      </trkpt>
      <trkpt lat="48.21534" lon="-2.87327">
        <ele>144.60000610352</ele>
        <time>2020-10-16T12:54:51.000Z</time>
      </trkpt>
      <trkpt lat="48.21538" lon="-2.87326">
        <ele>144.39999389648</ele>
        <time>2020-10-16T12:54:52.000Z</time>
      </trkpt>
      <trkpt lat="48.21541" lon="-2.87325">
        <ele>144.39999389648</ele>
        <time>2020-10-16T12:54:53.000Z</time>
      </trkpt>
      <trkpt lat="48.21544" lon="-2.87324">
        <ele>144.39999389648</ele>
        <time>2020-10-16T12:54:54.000Z</time>
      </trkpt>
      <trkpt lat="48.21548" lon="-2.87323">
        <ele>144.39999389648</ele>
        <time>2020-10-16T12:54:55.000Z</time>
      </trkpt>
      <trkpt lat="48.21552" lon="-2.87323">
        <ele>144.60000610352</ele>
        <time>2020-10-16T12:54:56.000Z</time>
      </trkpt>
      <trkpt lat="48.21556" lon="-2.87323">
        <ele>144.60000610352</ele>
        <time>2020-10-16T12:54:57.000Z</time>
      </trkpt>
      <trkpt lat="48.2156" lon="-2.87322">
        <ele>144.60000610352</ele>
        <time>2020-10-16T12:54:58.000Z</time>
      </trkpt>
      <trkpt lat="48.21563" lon="-2.87321">
        <ele>144.39999389648</ele>
        <time>2020-10-16T12:54:59.000Z</time>
      </trkpt>
      <trkpt lat="48.21567" lon="-2.87319">
        <ele>144.39999389648</ele>
        <time>2020-10-16T12:55:00.000Z</time>
      </trkpt>
      <trkpt lat="48.2157" lon="-2.87317">
        <ele>144.39999389648</ele>
        <time>2020-10-16T12:55:01.000Z</time>
      </trkpt>
      <trkpt lat="48.21574" lon="-2.87314">
        <ele>144.19999694824</ele>
        <time>2020-10-16T12:55:02.000Z</time>
      </trkpt>
      <trkpt lat="48.21577" lon="-2.87311">
        <ele>144</ele>
        <time>2020-10-16T12:55:03.000Z</time>
      </trkpt>
      <trkpt lat="48.21579" lon="-2.87307">
        <ele>143.80000305176</ele>
        <time>2020-10-16T12:55:04.000Z</time>
      </trkpt>
      <trkpt lat="48.21582" lon="-2.87303">
        <ele>143.60000610352</ele>
        <time>2020-10-16T12:55:05.000Z</time>
      </trkpt>
      <trkpt lat="48.21584" lon="-2.87299">
        <ele>143.39999389648</ele>
        <time>2020-10-16T12:55:06.000Z</time>
      </trkpt>
      <trkpt lat="48.21589" lon="-2.87291">
        <ele>143</ele>
        <time>2020-10-16T12:55:07.000Z</time>
      </trkpt>
      <trkpt lat="48.21589" lon="-2.87291">
        <ele>143</ele>
        <time>2020-10-16T12:55:08.000Z</time>
      </trkpt>
      <trkpt lat="48.21592" lon="-2.87287">
        <ele>142.80000305176</ele>
        <time>2020-10-16T12:55:09.000Z</time>
      </trkpt>
      <trkpt lat="48.21596" lon="-2.87283">
        <ele>142.60000610352</ele>
        <time>2020-10-16T12:55:10.000Z</time>
      </trkpt>
      <trkpt lat="48.216" lon="-2.8728">
        <ele>142.60000610352</ele>
        <time>2020-10-16T12:55:11.000Z</time>
      </trkpt>
      <trkpt lat="48.21604" lon="-2.87279">
        <ele>142.60000610352</ele>
        <time>2020-10-16T12:55:12.000Z</time>
      </trkpt>
      <trkpt lat="48.21607" lon="-2.87278">
        <ele>142.60000610352</ele>
        <time>2020-10-16T12:55:13.000Z</time>
      </trkpt>
      <trkpt lat="48.21611" lon="-2.87278">
        <ele>142.60000610352</ele>
        <time>2020-10-16T12:55:14.000Z</time>
      </trkpt>
      <trkpt lat="48.21614" lon="-2.87278">
        <ele>142.80000305176</ele>
        <time>2020-10-16T12:55:15.000Z</time>
      </trkpt>
      <trkpt lat="48.21618" lon="-2.87278">
        <ele>142.80000305176</ele>
        <time>2020-10-16T12:55:16.000Z</time>
      </trkpt>
      <trkpt lat="48.21621" lon="-2.87278">
        <ele>143</ele>
        <time>2020-10-16T12:55:17.000Z</time>
      </trkpt>
      <trkpt lat="48.21625" lon="-2.87279">
        <ele>143</ele>
        <time>2020-10-16T12:55:18.000Z</time>
      </trkpt>
      <trkpt lat="48.21629" lon="-2.87279">
        <ele>143.19999694824</ele>
        <time>2020-10-16T12:55:19.000Z</time>
      </trkpt>
      <trkpt lat="48.21633" lon="-2.87279">
        <ele>143.19999694824</ele>
        <time>2020-10-16T12:55:20.000Z</time>
      </trkpt>
      <trkpt lat="48.21637" lon="-2.87279">
        <ele>143.39999389648</ele>
        <time>2020-10-16T12:55:21.000Z</time>
      </trkpt>
      <trkpt lat="48.21641" lon="-2.8728">
        <ele>143.60000610352</ele>
        <time>2020-10-16T12:55:22.000Z</time>
      </trkpt>
      <trkpt lat="48.21644" lon="-2.87282">
        <ele>143.60000610352</ele>
        <time>2020-10-16T12:55:23.000Z</time>
      </trkpt>
      <trkpt lat="48.21647" lon="-2.87283">
        <ele>143.80000305176</ele>
        <time>2020-10-16T12:55:24.000Z</time>
      </trkpt>
      <trkpt lat="48.2165" lon="-2.87283">
        <ele>144</ele>
        <time>2020-10-16T12:55:25.000Z</time>
      </trkpt>
      <trkpt lat="48.21653" lon="-2.87284">
        <ele>144</ele>
        <time>2020-10-16T12:55:26.000Z</time>
      </trkpt>
      <trkpt lat="48.21657" lon="-2.87284">
        <ele>144.19999694824</ele>
        <time>2020-10-16T12:55:27.000Z</time>
      </trkpt>
      <trkpt lat="48.2166" lon="-2.87285">
        <ele>144.19999694824</ele>
        <time>2020-10-16T12:55:28.000Z</time>
      </trkpt>
      <trkpt lat="48.21664" lon="-2.87286">
        <ele>144.39999389648</ele>
        <time>2020-10-16T12:55:29.000Z</time>
      </trkpt>
      <trkpt lat="48.21667" lon="-2.87287">
        <ele>144.60000610352</ele>
        <time>2020-10-16T12:55:30.000Z</time>
      </trkpt>
      <trkpt lat="48.21675" lon="-2.87291">
        <ele>145</ele>
        <time>2020-10-16T12:55:31.000Z</time>
      </trkpt>
      <trkpt lat="48.21675" lon="-2.87291">
        <ele>145</ele>
        <time>2020-10-16T12:55:32.000Z</time>
      </trkpt>
      <trkpt lat="48.21678" lon="-2.87293">
        <ele>145.19999694824</ele>
        <time>2020-10-16T12:55:33.000Z</time>
      </trkpt>
      <trkpt lat="48.21681" lon="-2.87296">
        <ele>145.19999694824</ele>
        <time>2020-10-16T12:55:34.000Z</time>
      </trkpt>
      <trkpt lat="48.21683" lon="-2.87299">
        <ele>145</ele>
        <time>2020-10-16T12:55:35.000Z</time>
      </trkpt>
      <trkpt lat="48.21686" lon="-2.87302">
        <ele>145</ele>
        <time>2020-10-16T12:55:36.000Z</time>
      </trkpt>
      <trkpt lat="48.21688" lon="-2.87305">
        <ele>145</ele>
        <time>2020-10-16T12:55:37.000Z</time>
      </trkpt>
      <trkpt lat="48.21691" lon="-2.87309">
        <ele>145</ele>
        <time>2020-10-16T12:55:38.000Z</time>
      </trkpt>
      <trkpt lat="48.21693" lon="-2.87311">
        <ele>145</ele>
        <time>2020-10-16T12:55:39.000Z</time>
      </trkpt>
      <trkpt lat="48.21696" lon="-2.87314">
        <ele>144.80000305176</ele>
        <time>2020-10-16T12:55:40.000Z</time>
      </trkpt>
      <trkpt lat="48.21698" lon="-2.87318">
        <ele>144.80000305176</ele>
        <time>2020-10-16T12:55:41.000Z</time>
      </trkpt>
      <trkpt lat="48.21701" lon="-2.87321">
        <ele>144.80000305176</ele>
        <time>2020-10-16T12:55:42.000Z</time>
      </trkpt>
      <trkpt lat="48.21703" lon="-2.87324">
        <ele>145</ele>
        <time>2020-10-16T12:55:43.000Z</time>
      </trkpt>
      <trkpt lat="48.21706" lon="-2.87326">
        <ele>145</ele>
        <time>2020-10-16T12:55:44.000Z</time>
      </trkpt>
      <trkpt lat="48.21708" lon="-2.87329">
        <ele>145</ele>
        <time>2020-10-16T12:55:45.000Z</time>
      </trkpt>
      <trkpt lat="48.21711" lon="-2.87333">
        <ele>145</ele>
        <time>2020-10-16T12:55:46.000Z</time>
      </trkpt>
      <trkpt lat="48.21714" lon="-2.87336">
        <ele>145.19999694824</ele>
        <time>2020-10-16T12:55:47.000Z</time>
      </trkpt>
      <trkpt lat="48.21716" lon="-2.8734">
        <ele>145.39999389648</ele>
        <time>2020-10-16T12:55:48.000Z</time>
      </trkpt>
      <trkpt lat="48.21718" lon="-2.87343">
        <ele>145.19999694824</ele>
        <time>2020-10-16T12:55:49.000Z</time>
      </trkpt>
      <trkpt lat="48.21722" lon="-2.87349">
        <ele>145</ele>
        <time>2020-10-16T12:55:50.000Z</time>
      </trkpt>
      <trkpt lat="48.21722" lon="-2.87349">
        <ele>145</ele>
        <time>2020-10-16T12:55:51.000Z</time>
      </trkpt>
      <trkpt lat="48.21724" lon="-2.87352">
        <ele>145</ele>
        <time>2020-10-16T12:55:52.000Z</time>
      </trkpt>
      <trkpt lat="48.21726" lon="-2.87355">
        <ele>145</ele>
        <time>2020-10-16T12:55:53.000Z</time>
      </trkpt>
      <trkpt lat="48.21729" lon="-2.87359">
        <ele>144.80000305176</ele>
        <time>2020-10-16T12:55:54.000Z</time>
      </trkpt>
      <trkpt lat="48.21731" lon="-2.87363">
        <ele>144.80000305176</ele>
        <time>2020-10-16T12:55:55.000Z</time>
      </trkpt>
      <trkpt lat="48.21733" lon="-2.87366">
        <ele>144.60000610352</ele>
        <time>2020-10-16T12:55:56.000Z</time>
      </trkpt>
      <trkpt lat="48.21736" lon="-2.8737">
        <ele>144.80000305176</ele>
        <time>2020-10-16T12:55:57.000Z</time>
      </trkpt>
      <trkpt lat="48.21739" lon="-2.87374">
        <ele>145.19999694824</ele>
        <time>2020-10-16T12:55:58.000Z</time>
      </trkpt>
      <trkpt lat="48.21742" lon="-2.87377">
        <ele>145.60000610352</ele>
        <time>2020-10-16T12:55:59.000Z</time>
      </trkpt>
      <trkpt lat="48.21745" lon="-2.8738">
        <ele>145.80000305176</ele>
        <time>2020-10-16T12:56:00.000Z</time>
      </trkpt>
      <trkpt lat="48.21748" lon="-2.87382">
        <ele>146.19999694824</ele>
        <time>2020-10-16T12:56:01.000Z</time>
      </trkpt>
      <trkpt lat="48.2175" lon="-2.87384">
        <ele>146.19999694824</ele>
        <time>2020-10-16T12:56:02.000Z</time>
      </trkpt>
      <trkpt lat="48.21753" lon="-2.87387">
        <ele>146.60000610352</ele>
        <time>2020-10-16T12:56:03.000Z</time>
      </trkpt>
      <trkpt lat="48.21755" lon="-2.87389">
        <ele>146.80000305176</ele>
        <time>2020-10-16T12:56:04.000Z</time>
      </trkpt>
      <trkpt lat="48.21757" lon="-2.8739">
        <ele>146.80000305176</ele>
        <time>2020-10-16T12:56:05.000Z</time>
      </trkpt>
      <trkpt lat="48.21759" lon="-2.87391">
        <ele>147</ele>
        <time>2020-10-16T12:56:06.000Z</time>
      </trkpt>
      <trkpt lat="48.21765" lon="-2.87396">
        <ele>147.19999694824</ele>
        <time>2020-10-16T12:56:07.000Z</time>
      </trkpt>
      <trkpt lat="48.21765" lon="-2.87396">
        <ele>147.19999694824</ele>
        <time>2020-10-16T12:56:08.000Z</time>
      </trkpt>
      <trkpt lat="48.21769" lon="-2.87399">
        <ele>147.19999694824</ele>
        <time>2020-10-16T12:56:09.000Z</time>
      </trkpt>
      <trkpt lat="48.21773" lon="-2.87402">
        <ele>147.39999389648</ele>
        <time>2020-10-16T12:56:10.000Z</time>
      </trkpt>
      <trkpt lat="48.21777" lon="-2.87404">
        <ele>147.39999389648</ele>
        <time>2020-10-16T12:56:11.000Z</time>
      </trkpt>
      <trkpt lat="48.21782" lon="-2.87407">
        <ele>147.39999389648</ele>
        <time>2020-10-16T12:56:12.000Z</time>
      </trkpt>
      <trkpt lat="48.21786" lon="-2.8741">
        <ele>147.19999694824</ele>
        <time>2020-10-16T12:56:13.000Z</time>
      </trkpt>
      <trkpt lat="48.21791" lon="-2.87412">
        <ele>147.19999694824</ele>
        <time>2020-10-16T12:56:14.000Z</time>
      </trkpt>
      <trkpt lat="48.21795" lon="-2.87413">
        <ele>147</ele>
        <time>2020-10-16T12:56:15.000Z</time>
      </trkpt>
      <trkpt lat="48.21799" lon="-2.87414">
        <ele>147</ele>
        <time>2020-10-16T12:56:16.000Z</time>
      </trkpt>
      <trkpt lat="48.21802" lon="-2.87415">
        <ele>146.80000305176</ele>
        <time>2020-10-16T12:56:17.000Z</time>
      </trkpt>
      <trkpt lat="48.21805" lon="-2.87416">
        <ele>146.80000305176</ele>
        <time>2020-10-16T12:56:18.000Z</time>
      </trkpt>
      <trkpt lat="48.21808" lon="-2.87418">
        <ele>146.80000305176</ele>
        <time>2020-10-16T12:56:19.000Z</time>
      </trkpt>
      <trkpt lat="48.21812" lon="-2.8742">
        <ele>146.80000305176</ele>
        <time>2020-10-16T12:56:20.000Z</time>
      </trkpt>
      <trkpt lat="48.21815" lon="-2.87424">
        <ele>146.80000305176</ele>
        <time>2020-10-16T12:56:21.000Z</time>
      </trkpt>
      <trkpt lat="48.21817" lon="-2.87428">
        <ele>146.80000305176</ele>
        <time>2020-10-16T12:56:22.000Z</time>
      </trkpt>
      <trkpt lat="48.21819" lon="-2.87433">
        <ele>146.60000610352</ele>
        <time>2020-10-16T12:56:23.000Z</time>
      </trkpt>
      <trkpt lat="48.21822" lon="-2.87443">
        <ele>146.60000610352</ele>
        <time>2020-10-16T12:56:24.000Z</time>
      </trkpt>
      <trkpt lat="48.21822" lon="-2.87443">
        <ele>146.60000610352</ele>
        <time>2020-10-16T12:56:25.000Z</time>
      </trkpt>
      <trkpt lat="48.21823" lon="-2.87448">
        <ele>146.80000305176</ele>
        <time>2020-10-16T12:56:26.000Z</time>
      </trkpt>
      <trkpt lat="48.21824" lon="-2.87453">
        <ele>146.80000305176</ele>
        <time>2020-10-16T12:56:27.000Z</time>
      </trkpt>
      <trkpt lat="48.21824" lon="-2.87457">
        <ele>147</ele>
        <time>2020-10-16T12:56:28.000Z</time>
      </trkpt>
      <trkpt lat="48.21826" lon="-2.87463">
        <ele>147.19999694824</ele>
        <time>2020-10-16T12:56:29.000Z</time>
      </trkpt>
      <trkpt lat="48.21826" lon="-2.87468">
        <ele>147.19999694824</ele>
        <time>2020-10-16T12:56:30.000Z</time>
      </trkpt>
      <trkpt lat="48.21827" lon="-2.87472">
        <ele>147.39999389648</ele>
        <time>2020-10-16T12:56:31.000Z</time>
      </trkpt>
      <trkpt lat="48.21827" lon="-2.87477">
        <ele>147.60000610352</ele>
        <time>2020-10-16T12:56:32.000Z</time>
      </trkpt>
      <trkpt lat="48.21828" lon="-2.87484">
        <ele>147.80000305176</ele>
        <time>2020-10-16T12:56:33.000Z</time>
      </trkpt>
      <trkpt lat="48.2183" lon="-2.8749">
        <ele>148</ele>
        <time>2020-10-16T12:56:34.000Z</time>
      </trkpt>
      <trkpt lat="48.21831" lon="-2.87496">
        <ele>148.19999694824</ele>
        <time>2020-10-16T12:56:35.000Z</time>
      </trkpt>
      <trkpt lat="48.21832" lon="-2.87502">
        <ele>148.19999694824</ele>
        <time>2020-10-16T12:56:36.000Z</time>
      </trkpt>
      <trkpt lat="48.21834" lon="-2.87507">
        <ele>148.39999389648</ele>
        <time>2020-10-16T12:56:37.000Z</time>
      </trkpt>
      <trkpt lat="48.21836" lon="-2.87511">
        <ele>148.39999389648</ele>
        <time>2020-10-16T12:56:38.000Z</time>
      </trkpt>
      <trkpt lat="48.21838" lon="-2.87515">
        <ele>148.19999694824</ele>
        <time>2020-10-16T12:56:39.000Z</time>
      </trkpt>
      <trkpt lat="48.2184" lon="-2.87519">
        <ele>148</ele>
        <time>2020-10-16T12:56:40.000Z</time>
      </trkpt>
      <trkpt lat="48.21842" lon="-2.87522">
        <ele>147.80000305176</ele>
        <time>2020-10-16T12:56:41.000Z</time>
      </trkpt>
      <trkpt lat="48.21844" lon="-2.87524">
        <ele>147.60000610352</ele>
        <time>2020-10-16T12:56:42.000Z</time>
      </trkpt>
      <trkpt lat="48.21846" lon="-2.87526">
        <ele>147.60000610352</ele>
        <time>2020-10-16T12:56:43.000Z</time>
      </trkpt>
      <trkpt lat="48.21848" lon="-2.87527">
        <ele>147.39999389648</ele>
        <time>2020-10-16T12:56:44.000Z</time>
      </trkpt>
      <trkpt lat="48.21851" lon="-2.87528">
        <ele>147.39999389648</ele>
        <time>2020-10-16T12:56:45.000Z</time>
      </trkpt>
      <trkpt lat="48.21853" lon="-2.87529">
        <ele>147.39999389648</ele>
        <time>2020-10-16T12:56:46.000Z</time>
      </trkpt>
      <trkpt lat="48.21859" lon="-2.87531">
        <ele>147.19999694824</ele>
        <time>2020-10-16T12:56:47.000Z</time>
      </trkpt>
      <trkpt lat="48.21859" lon="-2.87531">
        <ele>147.19999694824</ele>
        <time>2020-10-16T12:56:48.000Z</time>
      </trkpt>
      <trkpt lat="48.21863" lon="-2.87531">
        <ele>147.19999694824</ele>
        <time>2020-10-16T12:56:49.000Z</time>
      </trkpt>
      <trkpt lat="48.21866" lon="-2.8753">
        <ele>147.19999694824</ele>
        <time>2020-10-16T12:56:50.000Z</time>
      </trkpt>
      <trkpt lat="48.21869" lon="-2.87527">
        <ele>147.19999694824</ele>
        <time>2020-10-16T12:56:51.000Z</time>
      </trkpt>
      <trkpt lat="48.21871" lon="-2.87525">
        <ele>147.19999694824</ele>
        <time>2020-10-16T12:56:52.000Z</time>
      </trkpt>
      <trkpt lat="48.21872" lon="-2.87522">
        <ele>147.19999694824</ele>
        <time>2020-10-16T12:56:53.000Z</time>
      </trkpt>
      <trkpt lat="48.21874" lon="-2.87519">
        <ele>147.39999389648</ele>
        <time>2020-10-16T12:56:54.000Z</time>
      </trkpt>
      <trkpt lat="48.21876" lon="-2.87515">
        <ele>147.39999389648</ele>
        <time>2020-10-16T12:56:55.000Z</time>
      </trkpt>
      <trkpt lat="48.21878" lon="-2.87511">
        <ele>147.39999389648</ele>
        <time>2020-10-16T12:56:56.000Z</time>
      </trkpt>
      <trkpt lat="48.21879" lon="-2.87508">
        <ele>147.60000610352</ele>
        <time>2020-10-16T12:56:57.000Z</time>
      </trkpt>
      <trkpt lat="48.2188" lon="-2.87504">
        <ele>147.60000610352</ele>
        <time>2020-10-16T12:56:58.000Z</time>
      </trkpt>
      <trkpt lat="48.21882" lon="-2.875">
        <ele>147.39999389648</ele>
        <time>2020-10-16T12:56:59.000Z</time>
      </trkpt>
      <trkpt lat="48.21883" lon="-2.87495">
        <ele>147.19999694824</ele>
        <time>2020-10-16T12:57:00.000Z</time>
      </trkpt>
      <trkpt lat="48.21885" lon="-2.87491">
        <ele>147.19999694824</ele>
        <time>2020-10-16T12:57:01.000Z</time>
      </trkpt>
      <trkpt lat="48.21889" lon="-2.87481">
        <ele>146.80000305176</ele>
        <time>2020-10-16T12:57:02.000Z</time>
      </trkpt>
      <trkpt lat="48.21889" lon="-2.87481">
        <ele>146.80000305176</ele>
        <time>2020-10-16T12:57:03.000Z</time>
      </trkpt>
      <trkpt lat="48.21891" lon="-2.87476">
        <ele>146.80000305176</ele>
        <time>2020-10-16T12:57:04.000Z</time>
      </trkpt>
      <trkpt lat="48.21893" lon="-2.87471">
        <ele>146.60000610352</ele>
        <time>2020-10-16T12:57:05.000Z</time>
      </trkpt>
      <trkpt lat="48.21894" lon="-2.87467">
        <ele>146.39999389648</ele>
        <time>2020-10-16T12:57:06.000Z</time>
      </trkpt>
      <trkpt lat="48.21896" lon="-2.87463">
        <ele>146.39999389648</ele>
        <time>2020-10-16T12:57:07.000Z</time>
      </trkpt>
      <trkpt lat="48.21898" lon="-2.87459">
        <ele>146.19999694824</ele>
        <time>2020-10-16T12:57:08.000Z</time>
      </trkpt>
      <trkpt lat="48.21902" lon="-2.87452">
        <ele>146</ele>
        <time>2020-10-16T12:57:09.000Z</time>
      </trkpt>
      <trkpt lat="48.21902" lon="-2.87452">
        <ele>146</ele>
        <time>2020-10-16T12:57:10.000Z</time>
      </trkpt>
      <trkpt lat="48.21904" lon="-2.87448">
        <ele>145.80000305176</ele>
        <time>2020-10-16T12:57:11.000Z</time>
      </trkpt>
      <trkpt lat="48.21907" lon="-2.87445">
        <ele>145.80000305176</ele>
        <time>2020-10-16T12:57:12.000Z</time>
      </trkpt>
      <trkpt lat="48.2191" lon="-2.87442">
        <ele>145.60000610352</ele>
        <time>2020-10-16T12:57:13.000Z</time>
      </trkpt>
      <trkpt lat="48.21912" lon="-2.8744">
        <ele>145.60000610352</ele>
        <time>2020-10-16T12:57:14.000Z</time>
      </trkpt>
      <trkpt lat="48.21914" lon="-2.87438">
        <ele>145.60000610352</ele>
        <time>2020-10-16T12:57:15.000Z</time>
      </trkpt>
      <trkpt lat="48.21917" lon="-2.87435">
        <ele>145.39999389648</ele>
        <time>2020-10-16T12:57:16.000Z</time>
      </trkpt>
      <trkpt lat="48.21919" lon="-2.87432">
        <ele>145.39999389648</ele>
        <time>2020-10-16T12:57:17.000Z</time>
      </trkpt>
      <trkpt lat="48.21922" lon="-2.8743">
        <ele>145.19999694824</ele>
        <time>2020-10-16T12:57:18.000Z</time>
      </trkpt>
      <trkpt lat="48.21926" lon="-2.87427">
        <ele>145.19999694824</ele>
        <time>2020-10-16T12:57:19.000Z</time>
      </trkpt>
      <trkpt lat="48.21929" lon="-2.87424">
        <ele>145</ele>
        <time>2020-10-16T12:57:20.000Z</time>
      </trkpt>
      <trkpt lat="48.21932" lon="-2.8742">
        <ele>145</ele>
        <time>2020-10-16T12:57:21.000Z</time>
      </trkpt>
      <trkpt lat="48.21936" lon="-2.87417">
        <ele>144.80000305176</ele>
        <time>2020-10-16T12:57:22.000Z</time>
      </trkpt>
      <trkpt lat="48.21939" lon="-2.87414">
        <ele>144.80000305176</ele>
        <time>2020-10-16T12:57:23.000Z</time>
      </trkpt>
      <trkpt lat="48.21941" lon="-2.87412">
        <ele>144.80000305176</ele>
        <time>2020-10-16T12:57:24.000Z</time>
      </trkpt>
      <trkpt lat="48.21944" lon="-2.87409">
        <ele>144.60000610352</ele>
        <time>2020-10-16T12:57:25.000Z</time>
      </trkpt>
      <trkpt lat="48.21948" lon="-2.87405">
        <ele>144.60000610352</ele>
        <time>2020-10-16T12:57:26.000Z</time>
      </trkpt>
      <trkpt lat="48.21951" lon="-2.87401">
        <ele>144.39999389648</ele>
        <time>2020-10-16T12:57:27.000Z</time>
      </trkpt>
      <trkpt lat="48.21954" lon="-2.87398">
        <ele>144.39999389648</ele>
        <time>2020-10-16T12:57:28.000Z</time>
      </trkpt>
      <trkpt lat="48.21957" lon="-2.87395">
        <ele>144.39999389648</ele>
        <time>2020-10-16T12:57:29.000Z</time>
      </trkpt>
      <trkpt lat="48.2196" lon="-2.87392">
        <ele>144.19999694824</ele>
        <time>2020-10-16T12:57:30.000Z</time>
      </trkpt>
      <trkpt lat="48.21964" lon="-2.87388">
        <ele>144.19999694824</ele>
        <time>2020-10-16T12:57:31.000Z</time>
      </trkpt>
      <trkpt lat="48.21967" lon="-2.87383">
        <ele>144</ele>
        <time>2020-10-16T12:57:32.000Z</time>
      </trkpt>
      <trkpt lat="48.2197" lon="-2.87379">
        <ele>143.80000305176</ele>
        <time>2020-10-16T12:57:33.000Z</time>
      </trkpt>
      <trkpt lat="48.21973" lon="-2.87376">
        <ele>143.80000305176</ele>
        <time>2020-10-16T12:57:34.000Z</time>
      </trkpt>
      <trkpt lat="48.21976" lon="-2.87372">
        <ele>143.60000610352</ele>
        <time>2020-10-16T12:57:35.000Z</time>
      </trkpt>
      <trkpt lat="48.21979" lon="-2.8737">
        <ele>143.60000610352</ele>
        <time>2020-10-16T12:57:36.000Z</time>
      </trkpt>
      <trkpt lat="48.21981" lon="-2.87368">
        <ele>143.60000610352</ele>
        <time>2020-10-16T12:57:37.000Z</time>
      </trkpt>
      <trkpt lat="48.21984" lon="-2.87365">
        <ele>143.60000610352</ele>
        <time>2020-10-16T12:57:38.000Z</time>
      </trkpt>
      <trkpt lat="48.21985" lon="-2.87364">
        <ele>143.39999389648</ele>
        <time>2020-10-16T12:57:39.000Z</time>
      </trkpt>
      <trkpt lat="48.21987" lon="-2.87362">
        <ele>143.39999389648</ele>
        <time>2020-10-16T12:57:40.000Z</time>
      </trkpt>
      <trkpt lat="48.21989" lon="-2.87361">
        <ele>143.39999389648</ele>
        <time>2020-10-16T12:57:41.000Z</time>
      </trkpt>
      <trkpt lat="48.21991" lon="-2.87359">
        <ele>143.39999389648</ele>
        <time>2020-10-16T12:57:42.000Z</time>
      </trkpt>
      <trkpt lat="48.21992" lon="-2.87359">
        <ele>143.39999389648</ele>
        <time>2020-10-16T12:57:43.000Z</time>
      </trkpt>
      <trkpt lat="48.21994" lon="-2.87358">
        <ele>143.39999389648</ele>
        <time>2020-10-16T12:57:44.000Z</time>
      </trkpt>
      <trkpt lat="48.21996" lon="-2.87357">
        <ele>143.39999389648</ele>
        <time>2020-10-16T12:57:45.000Z</time>
      </trkpt>
      <trkpt lat="48.21997" lon="-2.87356">
        <ele>143.39999389648</ele>
        <time>2020-10-16T12:57:46.000Z</time>
      </trkpt>
      <trkpt lat="48.21998" lon="-2.87355">
        <ele>143.39999389648</ele>
        <time>2020-10-16T12:57:47.000Z</time>
      </trkpt>
      <trkpt lat="48.22001" lon="-2.87355">
        <ele>143.39999389648</ele>
        <time>2020-10-16T12:57:48.000Z</time>
      </trkpt>
      <trkpt lat="48.22001" lon="-2.87355">
        <ele>143.39999389648</ele>
        <time>2020-10-16T12:57:49.000Z</time>
      </trkpt>
      <trkpt lat="48.22002" lon="-2.87354">
        <ele>143.39999389648</ele>
        <time>2020-10-16T12:57:50.000Z</time>
      </trkpt>
      <trkpt lat="48.22003" lon="-2.87354">
        <ele>143.39999389648</ele>
        <time>2020-10-16T12:57:51.000Z</time>
      </trkpt>
      <trkpt lat="48.22004" lon="-2.87353">
        <ele>143.39999389648</ele>
        <time>2020-10-16T12:57:52.000Z</time>
      </trkpt>
      <trkpt lat="48.22004" lon="-2.87353">
        <ele>143.39999389648</ele>
        <time>2020-10-16T12:57:53.000Z</time>
      </trkpt>
      <trkpt lat="48.22004" lon="-2.87353">
        <ele>143.39999389648</ele>
        <time>2020-10-16T12:57:54.000Z</time>
      </trkpt>
      <trkpt lat="48.22005" lon="-2.87352">
        <ele>143.39999389648</ele>
        <time>2020-10-16T12:57:55.000Z</time>
      </trkpt>
      <trkpt lat="48.22005" lon="-2.87353">
        <ele>143.39999389648</ele>
        <time>2020-10-16T12:57:56.000Z</time>
      </trkpt>
      <trkpt lat="48.22005" lon="-2.87352">
        <ele>143.39999389648</ele>
        <time>2020-10-16T12:57:57.000Z</time>
      </trkpt>
      <trkpt lat="48.22006" lon="-2.87352">
        <ele>143.39999389648</ele>
        <time>2020-10-16T12:57:58.000Z</time>
      </trkpt>
      <trkpt lat="48.22006" lon="-2.87351">
        <ele>143.39999389648</ele>
        <time>2020-10-16T12:57:59.000Z</time>
      </trkpt>
      <trkpt lat="48.22006" lon="-2.87351">
        <ele>143.39999389648</ele>
        <time>2020-10-16T12:58:00.000Z</time>
      </trkpt>
      <trkpt lat="48.22006" lon="-2.87351">
        <ele>143.39999389648</ele>
        <time>2020-10-16T12:58:01.000Z</time>
      </trkpt>
      <trkpt lat="48.22007" lon="-2.8735">
        <ele>143.39999389648</ele>
        <time>2020-10-16T12:58:02.000Z</time>
      </trkpt>
      <trkpt lat="48.22007" lon="-2.8735">
        <ele>143.39999389648</ele>
        <time>2020-10-16T12:58:03.000Z</time>
      </trkpt>
      <trkpt lat="48.22007" lon="-2.8735">
        <ele>143.39999389648</ele>
        <time>2020-10-16T12:58:04.000Z</time>
      </trkpt>
      <trkpt lat="48.22007" lon="-2.8735">
        <ele>143.39999389648</ele>
        <time>2020-10-16T12:58:05.000Z</time>
      </trkpt>
      <trkpt lat="48.22007" lon="-2.87351">
        <ele>143.39999389648</ele>
        <time>2020-10-16T12:58:06.000Z</time>
      </trkpt>
      <trkpt lat="48.22007" lon="-2.87351">
        <ele>143.39999389648</ele>
        <time>2020-10-16T12:58:07.000Z</time>
      </trkpt>
      <trkpt lat="48.22007" lon="-2.8735">
        <ele>143.39999389648</ele>
        <time>2020-10-16T12:58:08.000Z</time>
      </trkpt>
      <trkpt lat="48.22006" lon="-2.8735">
        <ele>143.39999389648</ele>
        <time>2020-10-16T12:58:09.000Z</time>
      </trkpt>
      <trkpt lat="48.22006" lon="-2.8735">
        <ele>143.39999389648</ele>
        <time>2020-10-16T12:58:10.000Z</time>
      </trkpt>
      <trkpt lat="48.22006" lon="-2.8735">
        <ele>143.39999389648</ele>
        <time>2020-10-16T12:58:11.000Z</time>
      </trkpt>
      <trkpt lat="48.22006" lon="-2.8735">
        <ele>143.39999389648</ele>
        <time>2020-10-16T12:58:12.000Z</time>
      </trkpt>
      <trkpt lat="48.22006" lon="-2.8735">
        <ele>143.39999389648</ele>
        <time>2020-10-16T12:58:13.000Z</time>
      </trkpt>
      <trkpt lat="48.22006" lon="-2.8735">
        <ele>143.39999389648</ele>
        <time>2020-10-16T12:58:14.000Z</time>
      </trkpt>
      <trkpt lat="48.22006" lon="-2.8735">
        <ele>143.39999389648</ele>
        <time>2020-10-16T12:58:15.000Z</time>
      </trkpt>
      <trkpt lat="48.22006" lon="-2.8735">
        <ele>143.39999389648</ele>
        <time>2020-10-16T12:58:16.000Z</time>
      </trkpt>
      <trkpt lat="48.22006" lon="-2.8735">
        <ele>143.39999389648</ele>
        <time>2020-10-16T12:58:17.000Z</time>
      </trkpt>
      <trkpt lat="48.22007" lon="-2.87349">
        <ele>143.19999694824</ele>
        <time>2020-10-16T12:58:18.000Z</time>
      </trkpt>
      <trkpt lat="48.22007" lon="-2.87349">
        <ele>143.19999694824</ele>
        <time>2020-10-16T12:58:19.000Z</time>
      </trkpt>
      <trkpt lat="48.22006" lon="-2.8735">
        <ele>143.19999694824</ele>
        <time>2020-10-16T12:58:20.000Z</time>
      </trkpt>
      <trkpt lat="48.22006" lon="-2.8735">
        <ele>143.19999694824</ele>
        <time>2020-10-16T12:58:21.000Z</time>
      </trkpt>
      <trkpt lat="48.22006" lon="-2.8735">
        <ele>143.19999694824</ele>
        <time>2020-10-16T12:58:22.000Z</time>
      </trkpt>
      <trkpt lat="48.22007" lon="-2.87349">
        <ele>143.19999694824</ele>
        <time>2020-10-16T12:58:23.000Z</time>
      </trkpt>
      <trkpt lat="48.22007" lon="-2.87349">
        <ele>143.19999694824</ele>
        <time>2020-10-16T12:58:24.000Z</time>
      </trkpt>
      <trkpt lat="48.22007" lon="-2.87349">
        <ele>143.19999694824</ele>
        <time>2020-10-16T12:58:25.000Z</time>
      </trkpt>
      <trkpt lat="48.22006" lon="-2.87349">
        <ele>143.19999694824</ele>
        <time>2020-10-16T12:58:26.000Z</time>
      </trkpt>
      <trkpt lat="48.22006" lon="-2.87349">
        <ele>143.19999694824</ele>
        <time>2020-10-16T12:58:27.000Z</time>
      </trkpt>
      <trkpt lat="48.22006" lon="-2.87349">
        <ele>143.19999694824</ele>
        <time>2020-10-16T12:58:28.000Z</time>
      </trkpt>
      <trkpt lat="48.22007" lon="-2.87349">
        <ele>143.19999694824</ele>
        <time>2020-10-16T12:58:29.000Z</time>
      </trkpt>
      <trkpt lat="48.22007" lon="-2.87349">
        <ele>143.19999694824</ele>
        <time>2020-10-16T12:58:30.000Z</time>
      </trkpt>
      <trkpt lat="48.22007" lon="-2.87348">
        <ele>143.19999694824</ele>
        <time>2020-10-16T12:58:31.000Z</time>
      </trkpt>
      <trkpt lat="48.22007" lon="-2.87348">
        <ele>143.19999694824</ele>
        <time>2020-10-16T12:58:32.000Z</time>
      </trkpt>
      <trkpt lat="48.22007" lon="-2.87348">
        <ele>143.19999694824</ele>
        <time>2020-10-16T12:58:33.000Z</time>
      </trkpt>
      <trkpt lat="48.22007" lon="-2.87347">
        <ele>143.19999694824</ele>
        <time>2020-10-16T12:58:34.000Z</time>
      </trkpt>
      <trkpt lat="48.22007" lon="-2.87347">
        <ele>143.19999694824</ele>
        <time>2020-10-16T12:58:35.000Z</time>
      </trkpt>
      <trkpt lat="48.22007" lon="-2.87347">
        <ele>143.19999694824</ele>
        <time>2020-10-16T12:58:36.000Z</time>
      </trkpt>
      <trkpt lat="48.22007" lon="-2.87347">
        <ele>143.19999694824</ele>
        <time>2020-10-16T12:58:37.000Z</time>
      </trkpt>
      <trkpt lat="48.22008" lon="-2.87347">
        <ele>143.19999694824</ele>
        <time>2020-10-16T12:58:38.000Z</time>
      </trkpt>
      <trkpt lat="48.22008" lon="-2.87347">
        <ele>143.19999694824</ele>
        <time>2020-10-16T12:58:39.000Z</time>
      </trkpt>
      <trkpt lat="48.22008" lon="-2.87347">
        <ele>143.19999694824</ele>
        <time>2020-10-16T12:58:40.000Z</time>
      </trkpt>
      <trkpt lat="48.22008" lon="-2.87347">
        <ele>143.19999694824</ele>
        <time>2020-10-16T12:58:41.000Z</time>
      </trkpt>
      <trkpt lat="48.22008" lon="-2.87347">
        <ele>143.19999694824</ele>
        <time>2020-10-16T12:58:42.000Z</time>
      </trkpt>
      <trkpt lat="48.22008" lon="-2.87347">
        <ele>143.19999694824</ele>
        <time>2020-10-16T12:58:43.000Z</time>
      </trkpt>
      <trkpt lat="48.22008" lon="-2.87347">
        <ele>143.19999694824</ele>
        <time>2020-10-16T12:58:44.000Z</time>
      </trkpt>
      <trkpt lat="48.22008" lon="-2.87347">
        <ele>143.19999694824</ele>
        <time>2020-10-16T12:58:45.000Z</time>
      </trkpt>
      <trkpt lat="48.22008" lon="-2.87347">
        <ele>143.19999694824</ele>
        <time>2020-10-16T12:58:46.000Z</time>
      </trkpt>
      <trkpt lat="48.22008" lon="-2.87347">
        <ele>143.19999694824</ele>
        <time>2020-10-16T12:58:47.000Z</time>
      </trkpt>
      <trkpt lat="48.22008" lon="-2.87347">
        <ele>143.19999694824</ele>
        <time>2020-10-16T12:58:48.000Z</time>
      </trkpt>
      <trkpt lat="48.22008" lon="-2.87347">
        <ele>143.19999694824</ele>
        <time>2020-10-16T12:58:49.000Z</time>
      </trkpt>
      <trkpt lat="48.22008" lon="-2.87347">
        <ele>143.19999694824</ele>
        <time>2020-10-16T12:58:50.000Z</time>
      </trkpt>
      <trkpt lat="48.22008" lon="-2.87347">
        <ele>143.19999694824</ele>
        <time>2020-10-16T12:58:51.000Z</time>
      </trkpt>
      <trkpt lat="48.22008" lon="-2.87347">
        <ele>143.19999694824</ele>
        <time>2020-10-16T12:58:52.000Z</time>
      </trkpt>
      <trkpt lat="48.22008" lon="-2.87347">
        <ele>143.19999694824</ele>
        <time>2020-10-16T12:58:53.000Z</time>
      </trkpt>
      <trkpt lat="48.22008" lon="-2.87347">
        <ele>143.19999694824</ele>
        <time>2020-10-16T12:58:54.000Z</time>
      </trkpt>
      <trkpt lat="48.22009" lon="-2.87347">
        <ele>143.19999694824</ele>
        <time>2020-10-16T12:58:55.000Z</time>
      </trkpt>
      <trkpt lat="48.22009" lon="-2.87346">
        <ele>143.19999694824</ele>
        <time>2020-10-16T12:58:56.000Z</time>
      </trkpt>
      <trkpt lat="48.22009" lon="-2.87346">
        <ele>143.19999694824</ele>
        <time>2020-10-16T12:58:57.000Z</time>
      </trkpt>
      <trkpt lat="48.22009" lon="-2.87345">
        <ele>143.19999694824</ele>
        <time>2020-10-16T12:58:58.000Z</time>
      </trkpt>
      <trkpt lat="48.22009" lon="-2.87345">
        <ele>143.19999694824</ele>
        <time>2020-10-16T12:58:59.000Z</time>
      </trkpt>
      <trkpt lat="48.22009" lon="-2.87345">
        <ele>143.19999694824</ele>
        <time>2020-10-16T12:59:00.000Z</time>
      </trkpt>
      <trkpt lat="48.22009" lon="-2.87345">
        <ele>143.19999694824</ele>
        <time>2020-10-16T12:59:01.000Z</time>
      </trkpt>
      <trkpt lat="48.22009" lon="-2.87345">
        <ele>143.19999694824</ele>
        <time>2020-10-16T12:59:02.000Z</time>
      </trkpt>
      <trkpt lat="48.22009" lon="-2.87345">
        <ele>143.19999694824</ele>
        <time>2020-10-16T12:59:03.000Z</time>
      </trkpt>
      <trkpt lat="48.22009" lon="-2.87345">
        <ele>143.19999694824</ele>
        <time>2020-10-16T12:59:04.000Z</time>
      </trkpt>
      <trkpt lat="48.22009" lon="-2.87345">
        <ele>143.19999694824</ele>
        <time>2020-10-16T12:59:05.000Z</time>
      </trkpt>
      <trkpt lat="48.22009" lon="-2.87345">
        <ele>143.19999694824</ele>
        <time>2020-10-16T12:59:06.000Z</time>
      </trkpt>
      <trkpt lat="48.22009" lon="-2.87345">
        <ele>143.19999694824</ele>
        <time>2020-10-16T12:59:07.000Z</time>
      </trkpt>
      <trkpt lat="48.22009" lon="-2.87345">
        <ele>143.19999694824</ele>
        <time>2020-10-16T12:59:08.000Z</time>
      </trkpt>
      <trkpt lat="48.22009" lon="-2.87345">
        <ele>143.19999694824</ele>
        <time>2020-10-16T12:59:09.000Z</time>
      </trkpt>
      <trkpt lat="48.22009" lon="-2.87345">
        <ele>143.19999694824</ele>
        <time>2020-10-16T12:59:10.000Z</time>
      </trkpt>
      <trkpt lat="48.22009" lon="-2.87345">
        <ele>143.19999694824</ele>
        <time>2020-10-16T12:59:11.000Z</time>
      </trkpt>
      <trkpt lat="48.22009" lon="-2.87346">
        <ele>143.19999694824</ele>
        <time>2020-10-16T12:59:12.000Z</time>
      </trkpt>
      <trkpt lat="48.22009" lon="-2.87346">
        <ele>143.19999694824</ele>
        <time>2020-10-16T12:59:13.000Z</time>
      </trkpt>
      <trkpt lat="48.22009" lon="-2.87346">
        <ele>143.19999694824</ele>
        <time>2020-10-16T12:59:14.000Z</time>
      </trkpt>
      <trkpt lat="48.22009" lon="-2.87346">
        <ele>143.19999694824</ele>
        <time>2020-10-16T12:59:15.000Z</time>
      </trkpt>
      <trkpt lat="48.22009" lon="-2.87346">
        <ele>143.19999694824</ele>
        <time>2020-10-16T12:59:16.000Z</time>
      </trkpt>
      <trkpt lat="48.22009" lon="-2.87346">
        <ele>143.19999694824</ele>
        <time>2020-10-16T12:59:17.000Z</time>
      </trkpt>
      <trkpt lat="48.22009" lon="-2.87346">
        <ele>143.19999694824</ele>
        <time>2020-10-16T12:59:18.000Z</time>
      </trkpt>
      <trkpt lat="48.22009" lon="-2.87346">
        <ele>143.19999694824</ele>
        <time>2020-10-16T12:59:19.000Z</time>
      </trkpt>
      <trkpt lat="48.22009" lon="-2.87346">
        <ele>143.19999694824</ele>
        <time>2020-10-16T12:59:20.000Z</time>
      </trkpt>
      <trkpt lat="48.22009" lon="-2.87346">
        <ele>143.19999694824</ele>
        <time>2020-10-16T12:59:21.000Z</time>
      </trkpt>
      <trkpt lat="48.22009" lon="-2.87346">
        <ele>143.19999694824</ele>
        <time>2020-10-16T12:59:22.000Z</time>
      </trkpt>
      <trkpt lat="48.22009" lon="-2.87346">
        <ele>143.19999694824</ele>
        <time>2020-10-16T12:59:23.000Z</time>
      </trkpt>
      <trkpt lat="48.22009" lon="-2.87346">
        <ele>143.19999694824</ele>
        <time>2020-10-16T12:59:24.000Z</time>
      </trkpt>
      <trkpt lat="48.22009" lon="-2.87346">
        <ele>143.19999694824</ele>
        <time>2020-10-16T12:59:25.000Z</time>
      </trkpt>
      <trkpt lat="48.22009" lon="-2.87345">
        <ele>143.19999694824</ele>
        <time>2020-10-16T12:59:26.000Z</time>
      </trkpt>
      <trkpt lat="48.22009" lon="-2.87345">
        <ele>143.19999694824</ele>
        <time>2020-10-16T12:59:27.000Z</time>
      </trkpt>
      <trkpt lat="48.22009" lon="-2.87345">
        <ele>143.19999694824</ele>
        <time>2020-10-16T12:59:28.000Z</time>
      </trkpt>
      <trkpt lat="48.2201" lon="-2.87344">
        <ele>143.19999694824</ele>
        <time>2020-10-16T12:59:29.000Z</time>
      </trkpt>
      <trkpt lat="48.2201" lon="-2.87344">
        <ele>143.19999694824</ele>
        <time>2020-10-16T12:59:30.000Z</time>
      </trkpt>
      <trkpt lat="48.22011" lon="-2.87342">
        <ele>143</ele>
        <time>2020-10-16T12:59:31.000Z</time>
      </trkpt>
      <trkpt lat="48.22012" lon="-2.87341">
        <ele>143</ele>
        <time>2020-10-16T12:59:32.000Z</time>
      </trkpt>
      <trkpt lat="48.22013" lon="-2.8734">
        <ele>143</ele>
        <time>2020-10-16T12:59:33.000Z</time>
      </trkpt>
      <trkpt lat="48.22015" lon="-2.8734">
        <ele>143.19999694824</ele>
        <time>2020-10-16T12:59:34.000Z</time>
      </trkpt>
      <trkpt lat="48.22016" lon="-2.87339">
        <ele>143.19999694824</ele>
        <time>2020-10-16T12:59:35.000Z</time>
      </trkpt>
      <trkpt lat="48.22018" lon="-2.87338">
        <ele>143.19999694824</ele>
        <time>2020-10-16T12:59:36.000Z</time>
      </trkpt>
      <trkpt lat="48.22019" lon="-2.87336">
        <ele>143.19999694824</ele>
        <time>2020-10-16T12:59:37.000Z</time>
      </trkpt>
      <trkpt lat="48.22021" lon="-2.87335">
        <ele>143</ele>
        <time>2020-10-16T12:59:38.000Z</time>
      </trkpt>
      <trkpt lat="48.22023" lon="-2.87333">
        <ele>143</ele>
        <time>2020-10-16T12:59:39.000Z</time>
      </trkpt>
      <trkpt lat="48.22025" lon="-2.87332">
        <ele>143.19999694824</ele>
        <time>2020-10-16T12:59:40.000Z</time>
      </trkpt>
      <trkpt lat="48.22027" lon="-2.87331">
        <ele>143.19999694824</ele>
        <time>2020-10-16T12:59:41.000Z</time>
      </trkpt>
      <trkpt lat="48.22029" lon="-2.8733">
        <ele>143.19999694824</ele>
        <time>2020-10-16T12:59:42.000Z</time>
      </trkpt>
      <trkpt lat="48.22031" lon="-2.87328">
        <ele>143.19999694824</ele>
        <time>2020-10-16T12:59:43.000Z</time>
      </trkpt>
      <trkpt lat="48.22034" lon="-2.87327">
        <ele>143.19999694824</ele>
        <time>2020-10-16T12:59:44.000Z</time>
      </trkpt>
      <trkpt lat="48.22037" lon="-2.87326">
        <ele>143.19999694824</ele>
        <time>2020-10-16T12:59:45.000Z</time>
      </trkpt>
      <trkpt lat="48.22043" lon="-2.87323">
        <ele>143.39999389648</ele>
        <time>2020-10-16T12:59:46.000Z</time>
      </trkpt>
      <trkpt lat="48.22043" lon="-2.87323">
        <ele>143.39999389648</ele>
        <time>2020-10-16T12:59:47.000Z</time>
      </trkpt>
      <trkpt lat="48.22047" lon="-2.87322">
        <ele>143.39999389648</ele>
        <time>2020-10-16T12:59:48.000Z</time>
      </trkpt>
      <trkpt lat="48.2205" lon="-2.8732">
        <ele>143.39999389648</ele>
        <time>2020-10-16T12:59:49.000Z</time>
      </trkpt>
      <trkpt lat="48.22053" lon="-2.87319">
        <ele>143.39999389648</ele>
        <time>2020-10-16T12:59:50.000Z</time>
      </trkpt>
      <trkpt lat="48.22056" lon="-2.87317">
        <ele>143.60000610352</ele>
        <time>2020-10-16T12:59:51.000Z</time>
      </trkpt>
      <trkpt lat="48.22059" lon="-2.87316">
        <ele>143.60000610352</ele>
        <time>2020-10-16T12:59:52.000Z</time>
      </trkpt>
      <trkpt lat="48.22063" lon="-2.87314">
        <ele>143.60000610352</ele>
        <time>2020-10-16T12:59:53.000Z</time>
      </trkpt>
      <trkpt lat="48.22067" lon="-2.87312">
        <ele>143.60000610352</ele>
        <time>2020-10-16T12:59:54.000Z</time>
      </trkpt>
      <trkpt lat="48.2207" lon="-2.8731">
        <ele>143.60000610352</ele>
        <time>2020-10-16T12:59:55.000Z</time>
      </trkpt>
      <trkpt lat="48.22074" lon="-2.87308">
        <ele>143.80000305176</ele>
        <time>2020-10-16T12:59:56.000Z</time>
      </trkpt>
      <trkpt lat="48.22077" lon="-2.87306">
        <ele>143.80000305176</ele>
        <time>2020-10-16T12:59:57.000Z</time>
      </trkpt>
      <trkpt lat="48.2208" lon="-2.87305">
        <ele>143.80000305176</ele>
        <time>2020-10-16T12:59:58.000Z</time>
      </trkpt>
      <trkpt lat="48.22083" lon="-2.87304">
        <ele>143.80000305176</ele>
        <time>2020-10-16T12:59:59.000Z</time>
      </trkpt>
      <trkpt lat="48.22086" lon="-2.87302">
        <ele>143.80000305176</ele>
        <time>2020-10-16T13:00:00.000Z</time>
      </trkpt>
      <trkpt lat="48.22088" lon="-2.87301">
        <ele>143.80000305176</ele>
        <time>2020-10-16T13:00:01.000Z</time>
      </trkpt>
      <trkpt lat="48.22095" lon="-2.87298">
        <ele>144</ele>
        <time>2020-10-16T13:00:02.000Z</time>
      </trkpt>
      <trkpt lat="48.22095" lon="-2.87298">
        <ele>144</ele>
        <time>2020-10-16T13:00:03.000Z</time>
      </trkpt>
      <trkpt lat="48.22098" lon="-2.87298">
        <ele>144</ele>
        <time>2020-10-16T13:00:04.000Z</time>
      </trkpt>
      <trkpt lat="48.22102" lon="-2.87297">
        <ele>143.80000305176</ele>
        <time>2020-10-16T13:00:05.000Z</time>
      </trkpt>
      <trkpt lat="48.22105" lon="-2.87296">
        <ele>143.60000610352</ele>
        <time>2020-10-16T13:00:06.000Z</time>
      </trkpt>
      <trkpt lat="48.22109" lon="-2.87295">
        <ele>143.60000610352</ele>
        <time>2020-10-16T13:00:07.000Z</time>
      </trkpt>
      <trkpt lat="48.22113" lon="-2.87294">
        <ele>143.39999389648</ele>
        <time>2020-10-16T13:00:08.000Z</time>
      </trkpt>
      <trkpt lat="48.22117" lon="-2.87294">
        <ele>143.19999694824</ele>
        <time>2020-10-16T13:00:09.000Z</time>
      </trkpt>
      <trkpt lat="48.22121" lon="-2.87294">
        <ele>143.19999694824</ele>
        <time>2020-10-16T13:00:10.000Z</time>
      </trkpt>
      <trkpt lat="48.22125" lon="-2.87295">
        <ele>143.19999694824</ele>
        <time>2020-10-16T13:00:11.000Z</time>
      </trkpt>
      <trkpt lat="48.22128" lon="-2.87296">
        <ele>143.19999694824</ele>
        <time>2020-10-16T13:00:12.000Z</time>
      </trkpt>
      <trkpt lat="48.22132" lon="-2.87297">
        <ele>143.19999694824</ele>
        <time>2020-10-16T13:00:13.000Z</time>
      </trkpt>
      <trkpt lat="48.22136" lon="-2.873">
        <ele>143.19999694824</ele>
        <time>2020-10-16T13:00:14.000Z</time>
      </trkpt>
      <trkpt lat="48.2214" lon="-2.87303">
        <ele>143.19999694824</ele>
        <time>2020-10-16T13:00:15.000Z</time>
      </trkpt>
      <trkpt lat="48.22143" lon="-2.87305">
        <ele>143.39999389648</ele>
        <time>2020-10-16T13:00:16.000Z</time>
      </trkpt>
      <trkpt lat="48.22146" lon="-2.87308">
        <ele>143.60000610352</ele>
        <time>2020-10-16T13:00:17.000Z</time>
      </trkpt>
      <trkpt lat="48.2215" lon="-2.8731">
        <ele>143.60000610352</ele>
        <time>2020-10-16T13:00:18.000Z</time>
      </trkpt>
      <trkpt lat="48.22153" lon="-2.87313">
        <ele>143.80000305176</ele>
        <time>2020-10-16T13:00:19.000Z</time>
      </trkpt>
      <trkpt lat="48.22156" lon="-2.87315">
        <ele>143.80000305176</ele>
        <time>2020-10-16T13:00:20.000Z</time>
      </trkpt>
      <trkpt lat="48.22159" lon="-2.87317">
        <ele>143.80000305176</ele>
        <time>2020-10-16T13:00:21.000Z</time>
      </trkpt>
      <trkpt lat="48.22163" lon="-2.8732">
        <ele>144</ele>
        <time>2020-10-16T13:00:22.000Z</time>
      </trkpt>
      <trkpt lat="48.22166" lon="-2.87324">
        <ele>144.19999694824</ele>
        <time>2020-10-16T13:00:23.000Z</time>
      </trkpt>
      <trkpt lat="48.22169" lon="-2.87327">
        <ele>144.39999389648</ele>
        <time>2020-10-16T13:00:24.000Z</time>
      </trkpt>
      <trkpt lat="48.22175" lon="-2.87336">
        <ele>144.80000305176</ele>
        <time>2020-10-16T13:00:25.000Z</time>
      </trkpt>
      <trkpt lat="48.22175" lon="-2.87336">
        <ele>144.80000305176</ele>
        <time>2020-10-16T13:00:26.000Z</time>
      </trkpt>
      <trkpt lat="48.22177" lon="-2.87341">
        <ele>145</ele>
        <time>2020-10-16T13:00:27.000Z</time>
      </trkpt>
      <trkpt lat="48.2218" lon="-2.87346">
        <ele>145.19999694824</ele>
        <time>2020-10-16T13:00:28.000Z</time>
      </trkpt>
      <trkpt lat="48.22183" lon="-2.8735">
        <ele>145.39999389648</ele>
        <time>2020-10-16T13:00:29.000Z</time>
      </trkpt>
      <trkpt lat="48.22186" lon="-2.87354">
        <ele>145.39999389648</ele>
        <time>2020-10-16T13:00:30.000Z</time>
      </trkpt>
      <trkpt lat="48.2219" lon="-2.87359">
        <ele>145.60000610352</ele>
        <time>2020-10-16T13:00:31.000Z</time>
      </trkpt>
      <trkpt lat="48.22193" lon="-2.87364">
        <ele>145.80000305176</ele>
        <time>2020-10-16T13:00:32.000Z</time>
      </trkpt>
      <trkpt lat="48.22197" lon="-2.87369">
        <ele>146</ele>
        <time>2020-10-16T13:00:33.000Z</time>
      </trkpt>
      <trkpt lat="48.22201" lon="-2.87375">
        <ele>146.19999694824</ele>
        <time>2020-10-16T13:00:34.000Z</time>
      </trkpt>
      <trkpt lat="48.22205" lon="-2.8738">
        <ele>146.19999694824</ele>
        <time>2020-10-16T13:00:35.000Z</time>
      </trkpt>
      <trkpt lat="48.22208" lon="-2.87385">
        <ele>146.39999389648</ele>
        <time>2020-10-16T13:00:36.000Z</time>
      </trkpt>
      <trkpt lat="48.22212" lon="-2.8739">
        <ele>146.60000610352</ele>
        <time>2020-10-16T13:00:37.000Z</time>
      </trkpt>
      <trkpt lat="48.22215" lon="-2.87395">
        <ele>146.60000610352</ele>
        <time>2020-10-16T13:00:38.000Z</time>
      </trkpt>
      <trkpt lat="48.22219" lon="-2.87399">
        <ele>146.60000610352</ele>
        <time>2020-10-16T13:00:39.000Z</time>
      </trkpt>
      <trkpt lat="48.22223" lon="-2.87403">
        <ele>146.39999389648</ele>
        <time>2020-10-16T13:00:40.000Z</time>
      </trkpt>
      <trkpt lat="48.22231" lon="-2.87408">
        <ele>146.39999389648</ele>
        <time>2020-10-16T13:00:41.000Z</time>
      </trkpt>
      <trkpt lat="48.22231" lon="-2.87408">
        <ele>146.39999389648</ele>
        <time>2020-10-16T13:00:42.000Z</time>
      </trkpt>
      <trkpt lat="48.22236" lon="-2.87409">
        <ele>146.39999389648</ele>
        <time>2020-10-16T13:00:43.000Z</time>
      </trkpt>
      <trkpt lat="48.22239" lon="-2.87409">
        <ele>146.19999694824</ele>
        <time>2020-10-16T13:00:44.000Z</time>
      </trkpt>
      <trkpt lat="48.22243" lon="-2.87408">
        <ele>146.19999694824</ele>
        <time>2020-10-16T13:00:45.000Z</time>
      </trkpt>
      <trkpt lat="48.22247" lon="-2.87406">
        <ele>146.19999694824</ele>
        <time>2020-10-16T13:00:46.000Z</time>
      </trkpt>
      <trkpt lat="48.2225" lon="-2.87403">
        <ele>146.19999694824</ele>
        <time>2020-10-16T13:00:47.000Z</time>
      </trkpt>
      <trkpt lat="48.22253" lon="-2.874">
        <ele>146.19999694824</ele>
        <time>2020-10-16T13:00:48.000Z</time>
      </trkpt>
      <trkpt lat="48.22256" lon="-2.87396">
        <ele>146</ele>
        <time>2020-10-16T13:00:49.000Z</time>
      </trkpt>
      <trkpt lat="48.22259" lon="-2.87392">
        <ele>146</ele>
        <time>2020-10-16T13:00:50.000Z</time>
      </trkpt>
      <trkpt lat="48.22261" lon="-2.87389">
        <ele>146</ele>
        <time>2020-10-16T13:00:51.000Z</time>
      </trkpt>
      <trkpt lat="48.22263" lon="-2.87385">
        <ele>146</ele>
        <time>2020-10-16T13:00:52.000Z</time>
      </trkpt>
      <trkpt lat="48.22265" lon="-2.8738">
        <ele>146.19999694824</ele>
        <time>2020-10-16T13:00:53.000Z</time>
      </trkpt>
      <trkpt lat="48.22266" lon="-2.87375">
        <ele>146.19999694824</ele>
        <time>2020-10-16T13:00:54.000Z</time>
      </trkpt>
      <trkpt lat="48.22267" lon="-2.87369">
        <ele>146.19999694824</ele>
        <time>2020-10-16T13:00:55.000Z</time>
      </trkpt>
      <trkpt lat="48.22267" lon="-2.87363">
        <ele>146.19999694824</ele>
        <time>2020-10-16T13:00:56.000Z</time>
      </trkpt>
      <trkpt lat="48.22267" lon="-2.87357">
        <ele>146.19999694824</ele>
        <time>2020-10-16T13:00:57.000Z</time>
      </trkpt>
      <trkpt lat="48.22267" lon="-2.8735">
        <ele>146.19999694824</ele>
        <time>2020-10-16T13:00:58.000Z</time>
      </trkpt>
      <trkpt lat="48.22266" lon="-2.87343">
        <ele>146.19999694824</ele>
        <time>2020-10-16T13:00:59.000Z</time>
      </trkpt>
      <trkpt lat="48.22266" lon="-2.87337">
        <ele>146.19999694824</ele>
        <time>2020-10-16T13:01:00.000Z</time>
      </trkpt>
      <trkpt lat="48.22265" lon="-2.8733">
        <ele>146</ele>
        <time>2020-10-16T13:01:01.000Z</time>
      </trkpt>
      <trkpt lat="48.22264" lon="-2.87316">
        <ele>145.60000610352</ele>
        <time>2020-10-16T13:01:02.000Z</time>
      </trkpt>
      <trkpt lat="48.22264" lon="-2.8731">
        <ele>145.39999389648</ele>
        <time>2020-10-16T13:01:03.000Z</time>
      </trkpt>
      <trkpt lat="48.22264" lon="-2.8731">
        <ele>145.39999389648</ele>
        <time>2020-10-16T13:01:04.000Z</time>
      </trkpt>
      <trkpt lat="48.22263" lon="-2.87303">
        <ele>145.19999694824</ele>
        <time>2020-10-16T13:01:05.000Z</time>
      </trkpt>
      <trkpt lat="48.22263" lon="-2.87296">
        <ele>145</ele>
        <time>2020-10-16T13:01:06.000Z</time>
      </trkpt>
      <trkpt lat="48.22263" lon="-2.87289">
        <ele>144.80000305176</ele>
        <time>2020-10-16T13:01:07.000Z</time>
      </trkpt>
      <trkpt lat="48.22262" lon="-2.87282">
        <ele>144.60000610352</ele>
        <time>2020-10-16T13:01:08.000Z</time>
      </trkpt>
      <trkpt lat="48.22262" lon="-2.87276">
        <ele>144.39999389648</ele>
        <time>2020-10-16T13:01:09.000Z</time>
      </trkpt>
      <trkpt lat="48.22261" lon="-2.8727">
        <ele>144.39999389648</ele>
        <time>2020-10-16T13:01:10.000Z</time>
      </trkpt>
      <trkpt lat="48.22261" lon="-2.87264">
        <ele>144.19999694824</ele>
        <time>2020-10-16T13:01:11.000Z</time>
      </trkpt>
      <trkpt lat="48.2226" lon="-2.87258">
        <ele>144</ele>
        <time>2020-10-16T13:01:12.000Z</time>
      </trkpt>
      <trkpt lat="48.22258" lon="-2.87253">
        <ele>143.80000305176</ele>
        <time>2020-10-16T13:01:13.000Z</time>
      </trkpt>
      <trkpt lat="48.22255" lon="-2.87247">
        <ele>143.80000305176</ele>
        <time>2020-10-16T13:01:14.000Z</time>
      </trkpt>
      <trkpt lat="48.22253" lon="-2.87241">
        <ele>143.80000305176</ele>
        <time>2020-10-16T13:01:15.000Z</time>
      </trkpt>
      <trkpt lat="48.2225" lon="-2.87236">
        <ele>143.60000610352</ele>
        <time>2020-10-16T13:01:16.000Z</time>
      </trkpt>
      <trkpt lat="48.22248" lon="-2.8723">
        <ele>143.60000610352</ele>
        <time>2020-10-16T13:01:17.000Z</time>
      </trkpt>
      <trkpt lat="48.22246" lon="-2.87225">
        <ele>143.60000610352</ele>
        <time>2020-10-16T13:01:18.000Z</time>
      </trkpt>
      <trkpt lat="48.22244" lon="-2.87219">
        <ele>143.60000610352</ele>
        <time>2020-10-16T13:01:19.000Z</time>
      </trkpt>
      <trkpt lat="48.22242" lon="-2.87213">
        <ele>143.60000610352</ele>
        <time>2020-10-16T13:01:20.000Z</time>
      </trkpt>
      <trkpt lat="48.2224" lon="-2.87208">
        <ele>143.60000610352</ele>
        <time>2020-10-16T13:01:21.000Z</time>
      </trkpt>
      <trkpt lat="48.22238" lon="-2.87203">
        <ele>143.39999389648</ele>
        <time>2020-10-16T13:01:22.000Z</time>
      </trkpt>
      <trkpt lat="48.22237" lon="-2.87198">
        <ele>143.39999389648</ele>
        <time>2020-10-16T13:01:23.000Z</time>
      </trkpt>
      <trkpt lat="48.22235" lon="-2.87193">
        <ele>143.19999694824</ele>
        <time>2020-10-16T13:01:24.000Z</time>
      </trkpt>
      <trkpt lat="48.2223" lon="-2.87184">
        <ele>142.80000305176</ele>
        <time>2020-10-16T13:01:25.000Z</time>
      </trkpt>
      <trkpt lat="48.2223" lon="-2.87184">
        <ele>142.80000305176</ele>
        <time>2020-10-16T13:01:26.000Z</time>
      </trkpt>
      <trkpt lat="48.22227" lon="-2.87179">
        <ele>142.60000610352</ele>
        <time>2020-10-16T13:01:27.000Z</time>
      </trkpt>
      <trkpt lat="48.22224" lon="-2.87175">
        <ele>142.19999694824</ele>
        <time>2020-10-16T13:01:28.000Z</time>
      </trkpt>
      <trkpt lat="48.22221" lon="-2.8717">
        <ele>142</ele>
        <time>2020-10-16T13:01:29.000Z</time>
      </trkpt>
      <trkpt lat="48.22218" lon="-2.87166">
        <ele>142</ele>
        <time>2020-10-16T13:01:30.000Z</time>
      </trkpt>
      <trkpt lat="48.22215" lon="-2.87161">
        <ele>141.80000305176</ele>
        <time>2020-10-16T13:01:31.000Z</time>
      </trkpt>
      <trkpt lat="48.22213" lon="-2.87156">
        <ele>141.60000610352</ele>
        <time>2020-10-16T13:01:32.000Z</time>
      </trkpt>
      <trkpt lat="48.22211" lon="-2.87151">
        <ele>141.60000610352</ele>
        <time>2020-10-16T13:01:33.000Z</time>
      </trkpt>
      <trkpt lat="48.2221" lon="-2.87145">
        <ele>141.60000610352</ele>
        <time>2020-10-16T13:01:34.000Z</time>
      </trkpt>
      <trkpt lat="48.22209" lon="-2.87139">
        <ele>141.60000610352</ele>
        <time>2020-10-16T13:01:35.000Z</time>
      </trkpt>
      <trkpt lat="48.22207" lon="-2.87133">
        <ele>141.39999389648</ele>
        <time>2020-10-16T13:01:36.000Z</time>
      </trkpt>
      <trkpt lat="48.22207" lon="-2.87127">
        <ele>141.39999389648</ele>
        <time>2020-10-16T13:01:37.000Z</time>
      </trkpt>
      <trkpt lat="48.22206" lon="-2.87121">
        <ele>141.19999694824</ele>
        <time>2020-10-16T13:01:38.000Z</time>
      </trkpt>
      <trkpt lat="48.22205" lon="-2.87115">
        <ele>141.19999694824</ele>
        <time>2020-10-16T13:01:39.000Z</time>
      </trkpt>
      <trkpt lat="48.22204" lon="-2.87108">
        <ele>141.19999694824</ele>
        <time>2020-10-16T13:01:40.000Z</time>
      </trkpt>
      <trkpt lat="48.22203" lon="-2.87101">
        <ele>141</ele>
        <time>2020-10-16T13:01:41.000Z</time>
      </trkpt>
      <trkpt lat="48.22201" lon="-2.87095">
        <ele>141</ele>
        <time>2020-10-16T13:01:42.000Z</time>
      </trkpt>
      <trkpt lat="48.222" lon="-2.87089">
        <ele>140.80000305176</ele>
        <time>2020-10-16T13:01:43.000Z</time>
      </trkpt>
      <trkpt lat="48.22199" lon="-2.87075">
        <ele>140.60000610352</ele>
        <time>2020-10-16T13:01:44.000Z</time>
      </trkpt>
      <trkpt lat="48.22199" lon="-2.87075">
        <ele>140.60000610352</ele>
        <time>2020-10-16T13:01:45.000Z</time>
      </trkpt>
      <trkpt lat="48.22199" lon="-2.87069">
        <ele>140.39999389648</ele>
        <time>2020-10-16T13:01:46.000Z</time>
      </trkpt>
      <trkpt lat="48.22198" lon="-2.87062">
        <ele>140.39999389648</ele>
        <time>2020-10-16T13:01:47.000Z</time>
      </trkpt>
      <trkpt lat="48.22197" lon="-2.87055">
        <ele>140.19999694824</ele>
        <time>2020-10-16T13:01:48.000Z</time>
      </trkpt>
      <trkpt lat="48.22196" lon="-2.87048">
        <ele>140.19999694824</ele>
        <time>2020-10-16T13:01:49.000Z</time>
      </trkpt>
      <trkpt lat="48.22196" lon="-2.87042">
        <ele>140.19999694824</ele>
        <time>2020-10-16T13:01:50.000Z</time>
      </trkpt>
      <trkpt lat="48.22196" lon="-2.87036">
        <ele>140.19999694824</ele>
        <time>2020-10-16T13:01:51.000Z</time>
      </trkpt>
      <trkpt lat="48.22196" lon="-2.87031">
        <ele>140.19999694824</ele>
        <time>2020-10-16T13:01:52.000Z</time>
      </trkpt>
      <trkpt lat="48.22196" lon="-2.87025">
        <ele>140.19999694824</ele>
        <time>2020-10-16T13:01:53.000Z</time>
      </trkpt>
      <trkpt lat="48.22197" lon="-2.8702">
        <ele>140.39999389648</ele>
        <time>2020-10-16T13:01:54.000Z</time>
      </trkpt>
      <trkpt lat="48.22198" lon="-2.87016">
        <ele>140.39999389648</ele>
        <time>2020-10-16T13:01:55.000Z</time>
      </trkpt>
      <trkpt lat="48.22199" lon="-2.87012">
        <ele>140.39999389648</ele>
        <time>2020-10-16T13:01:56.000Z</time>
      </trkpt>
      <trkpt lat="48.22199" lon="-2.87008">
        <ele>140.39999389648</ele>
        <time>2020-10-16T13:01:57.000Z</time>
      </trkpt>
      <trkpt lat="48.222" lon="-2.87005">
        <ele>140.60000610352</ele>
        <time>2020-10-16T13:01:58.000Z</time>
      </trkpt>
      <trkpt lat="48.222" lon="-2.87001">
        <ele>140.60000610352</ele>
        <time>2020-10-16T13:01:59.000Z</time>
      </trkpt>
      <trkpt lat="48.22202" lon="-2.86992">
        <ele>140.60000610352</ele>
        <time>2020-10-16T13:02:00.000Z</time>
      </trkpt>
      <trkpt lat="48.22202" lon="-2.86992">
        <ele>140.60000610352</ele>
        <time>2020-10-16T13:02:01.000Z</time>
      </trkpt>
      <trkpt lat="48.22203" lon="-2.86982">
        <ele>140.80000305176</ele>
        <time>2020-10-16T13:02:02.000Z</time>
      </trkpt>
      <trkpt lat="48.22203" lon="-2.86982">
        <ele>140.80000305176</ele>
        <time>2020-10-16T13:02:03.000Z</time>
      </trkpt>
      <trkpt lat="48.22204" lon="-2.86977">
        <ele>140.80000305176</ele>
        <time>2020-10-16T13:02:04.000Z</time>
      </trkpt>
      <trkpt lat="48.22204" lon="-2.86972">
        <ele>140.80000305176</ele>
        <time>2020-10-16T13:02:05.000Z</time>
      </trkpt>
      <trkpt lat="48.22205" lon="-2.86966">
        <ele>140.80000305176</ele>
        <time>2020-10-16T13:02:06.000Z</time>
      </trkpt>
      <trkpt lat="48.22206" lon="-2.86961">
        <ele>140.80000305176</ele>
        <time>2020-10-16T13:02:07.000Z</time>
      </trkpt>
      <trkpt lat="48.22207" lon="-2.86955">
        <ele>140.80000305176</ele>
        <time>2020-10-16T13:02:08.000Z</time>
      </trkpt>
      <trkpt lat="48.22208" lon="-2.86949">
        <ele>140.80000305176</ele>
        <time>2020-10-16T13:02:09.000Z</time>
      </trkpt>
      <trkpt lat="48.22209" lon="-2.86944">
        <ele>140.80000305176</ele>
        <time>2020-10-16T13:02:10.000Z</time>
      </trkpt>
      <trkpt lat="48.22209" lon="-2.86938">
        <ele>140.80000305176</ele>
        <time>2020-10-16T13:02:11.000Z</time>
      </trkpt>
      <trkpt lat="48.2221" lon="-2.86932">
        <ele>140.80000305176</ele>
        <time>2020-10-16T13:02:12.000Z</time>
      </trkpt>
      <trkpt lat="48.22211" lon="-2.86926">
        <ele>140.80000305176</ele>
        <time>2020-10-16T13:02:13.000Z</time>
      </trkpt>
      <trkpt lat="48.22211" lon="-2.8692">
        <ele>140.80000305176</ele>
        <time>2020-10-16T13:02:14.000Z</time>
      </trkpt>
      <trkpt lat="48.22212" lon="-2.86915">
        <ele>141</ele>
        <time>2020-10-16T13:02:15.000Z</time>
      </trkpt>
      <trkpt lat="48.22213" lon="-2.86909">
        <ele>141</ele>
        <time>2020-10-16T13:02:16.000Z</time>
      </trkpt>
      <trkpt lat="48.22214" lon="-2.86904">
        <ele>141.19999694824</ele>
        <time>2020-10-16T13:02:17.000Z</time>
      </trkpt>
      <trkpt lat="48.22215" lon="-2.86898">
        <ele>141.39999389648</ele>
        <time>2020-10-16T13:02:18.000Z</time>
      </trkpt>
      <trkpt lat="48.22216" lon="-2.86893">
        <ele>141.39999389648</ele>
        <time>2020-10-16T13:02:19.000Z</time>
      </trkpt>
      <trkpt lat="48.22216" lon="-2.86889">
        <ele>141.60000610352</ele>
        <time>2020-10-16T13:02:20.000Z</time>
      </trkpt>
      <trkpt lat="48.22217" lon="-2.86884">
        <ele>141.60000610352</ele>
        <time>2020-10-16T13:02:21.000Z</time>
      </trkpt>
      <trkpt lat="48.22218" lon="-2.8688">
        <ele>141.80000305176</ele>
        <time>2020-10-16T13:02:22.000Z</time>
      </trkpt>
      <trkpt lat="48.22219" lon="-2.86875">
        <ele>141.80000305176</ele>
        <time>2020-10-16T13:02:23.000Z</time>
      </trkpt>
      <trkpt lat="48.22222" lon="-2.86866">
        <ele>142</ele>
        <time>2020-10-16T13:02:24.000Z</time>
      </trkpt>
      <trkpt lat="48.22222" lon="-2.86866">
        <ele>142</ele>
        <time>2020-10-16T13:02:25.000Z</time>
      </trkpt>
      <trkpt lat="48.22223" lon="-2.86862">
        <ele>142</ele>
        <time>2020-10-16T13:02:26.000Z</time>
      </trkpt>
      <trkpt lat="48.22225" lon="-2.86858">
        <ele>142.19999694824</ele>
        <time>2020-10-16T13:02:27.000Z</time>
      </trkpt>
      <trkpt lat="48.22226" lon="-2.86853">
        <ele>142.19999694824</ele>
        <time>2020-10-16T13:02:28.000Z</time>
      </trkpt>
      <trkpt lat="48.22228" lon="-2.86848">
        <ele>142.39999389648</ele>
        <time>2020-10-16T13:02:29.000Z</time>
      </trkpt>
      <trkpt lat="48.2223" lon="-2.86843">
        <ele>142.60000610352</ele>
        <time>2020-10-16T13:02:30.000Z</time>
      </trkpt>
      <trkpt lat="48.22232" lon="-2.86838">
        <ele>142.60000610352</ele>
        <time>2020-10-16T13:02:31.000Z</time>
      </trkpt>
      <trkpt lat="48.22234" lon="-2.86831">
        <ele>142.80000305176</ele>
        <time>2020-10-16T13:02:32.000Z</time>
      </trkpt>
      <trkpt lat="48.22235" lon="-2.86824">
        <ele>142.80000305176</ele>
        <time>2020-10-16T13:02:33.000Z</time>
      </trkpt>
      <trkpt lat="48.22237" lon="-2.86818">
        <ele>142.80000305176</ele>
        <time>2020-10-16T13:02:34.000Z</time>
      </trkpt>
      <trkpt lat="48.22237" lon="-2.86811">
        <ele>142.60000610352</ele>
        <time>2020-10-16T13:02:35.000Z</time>
      </trkpt>
      <trkpt lat="48.22238" lon="-2.86804">
        <ele>142.60000610352</ele>
        <time>2020-10-16T13:02:36.000Z</time>
      </trkpt>
      <trkpt lat="48.2224" lon="-2.86797">
        <ele>142.60000610352</ele>
        <time>2020-10-16T13:02:37.000Z</time>
      </trkpt>
      <trkpt lat="48.2224" lon="-2.8679">
        <ele>142.39999389648</ele>
        <time>2020-10-16T13:02:38.000Z</time>
      </trkpt>
      <trkpt lat="48.22241" lon="-2.86783">
        <ele>142.39999389648</ele>
        <time>2020-10-16T13:02:39.000Z</time>
      </trkpt>
      <trkpt lat="48.22241" lon="-2.86776">
        <ele>142.19999694824</ele>
        <time>2020-10-16T13:02:40.000Z</time>
      </trkpt>
      <trkpt lat="48.22242" lon="-2.86769">
        <ele>142.19999694824</ele>
        <time>2020-10-16T13:02:41.000Z</time>
      </trkpt>
      <trkpt lat="48.22242" lon="-2.86762">
        <ele>142</ele>
        <time>2020-10-16T13:02:42.000Z</time>
      </trkpt>
      <trkpt lat="48.22242" lon="-2.86755">
        <ele>141.80000305176</ele>
        <time>2020-10-16T13:02:43.000Z</time>
      </trkpt>
      <trkpt lat="48.22242" lon="-2.86749">
        <ele>141.80000305176</ele>
        <time>2020-10-16T13:02:44.000Z</time>
      </trkpt>
      <trkpt lat="48.22242" lon="-2.86742">
        <ele>141.60000610352</ele>
        <time>2020-10-16T13:02:45.000Z</time>
      </trkpt>
      <trkpt lat="48.22242" lon="-2.86736">
        <ele>141.39999389648</ele>
        <time>2020-10-16T13:02:46.000Z</time>
      </trkpt>
      <trkpt lat="48.22242" lon="-2.8673">
        <ele>141.19999694824</ele>
        <time>2020-10-16T13:02:47.000Z</time>
      </trkpt>
      <trkpt lat="48.22243" lon="-2.86723">
        <ele>141.19999694824</ele>
        <time>2020-10-16T13:02:48.000Z</time>
      </trkpt>
      <trkpt lat="48.22244" lon="-2.86716">
        <ele>141</ele>
        <time>2020-10-16T13:02:49.000Z</time>
      </trkpt>
      <trkpt lat="48.22244" lon="-2.8671">
        <ele>141</ele>
        <time>2020-10-16T13:02:50.000Z</time>
      </trkpt>
      <trkpt lat="48.22244" lon="-2.86703">
        <ele>140.80000305176</ele>
        <time>2020-10-16T13:02:51.000Z</time>
      </trkpt>
      <trkpt lat="48.22245" lon="-2.86696">
        <ele>140.80000305176</ele>
        <time>2020-10-16T13:02:52.000Z</time>
      </trkpt>
      <trkpt lat="48.22246" lon="-2.86688">
        <ele>140.60000610352</ele>
        <time>2020-10-16T13:02:53.000Z</time>
      </trkpt>
      <trkpt lat="48.22247" lon="-2.8668">
        <ele>140.60000610352</ele>
        <time>2020-10-16T13:02:54.000Z</time>
      </trkpt>
      <trkpt lat="48.22248" lon="-2.86674">
        <ele>140.60000610352</ele>
        <time>2020-10-16T13:02:55.000Z</time>
      </trkpt>
      <trkpt lat="48.22249" lon="-2.86667">
        <ele>140.80000305176</ele>
        <time>2020-10-16T13:02:56.000Z</time>
      </trkpt>
      <trkpt lat="48.22251" lon="-2.86661">
        <ele>140.80000305176</ele>
        <time>2020-10-16T13:02:57.000Z</time>
      </trkpt>
      <trkpt lat="48.22252" lon="-2.86655">
        <ele>141</ele>
        <time>2020-10-16T13:02:58.000Z</time>
      </trkpt>
      <trkpt lat="48.22253" lon="-2.86649">
        <ele>141.19999694824</ele>
        <time>2020-10-16T13:02:59.000Z</time>
      </trkpt>
      <trkpt lat="48.22254" lon="-2.86643">
        <ele>141.19999694824</ele>
        <time>2020-10-16T13:03:00.000Z</time>
      </trkpt>
      <trkpt lat="48.22255" lon="-2.86637">
        <ele>141.39999389648</ele>
        <time>2020-10-16T13:03:01.000Z</time>
      </trkpt>
      <trkpt lat="48.22257" lon="-2.86627">
        <ele>141.60000610352</ele>
        <time>2020-10-16T13:03:02.000Z</time>
      </trkpt>
      <trkpt lat="48.22258" lon="-2.86622">
        <ele>141.60000610352</ele>
        <time>2020-10-16T13:03:03.000Z</time>
      </trkpt>
      <trkpt lat="48.22258" lon="-2.86622">
        <ele>141.60000610352</ele>
        <time>2020-10-16T13:03:04.000Z</time>
      </trkpt>
      <trkpt lat="48.22259" lon="-2.86617">
        <ele>141.80000305176</ele>
        <time>2020-10-16T13:03:05.000Z</time>
      </trkpt>
      <trkpt lat="48.22261" lon="-2.86611">
        <ele>141.80000305176</ele>
        <time>2020-10-16T13:03:06.000Z</time>
      </trkpt>
      <trkpt lat="48.22262" lon="-2.86605">
        <ele>142</ele>
        <time>2020-10-16T13:03:07.000Z</time>
      </trkpt>
      <trkpt lat="48.22264" lon="-2.86598">
        <ele>142</ele>
        <time>2020-10-16T13:03:08.000Z</time>
      </trkpt>
      <trkpt lat="48.22265" lon="-2.86592">
        <ele>142.19999694824</ele>
        <time>2020-10-16T13:03:09.000Z</time>
      </trkpt>
      <trkpt lat="48.22267" lon="-2.86586">
        <ele>142</ele>
        <time>2020-10-16T13:03:10.000Z</time>
      </trkpt>
      <trkpt lat="48.22269" lon="-2.86579">
        <ele>142</ele>
        <time>2020-10-16T13:03:11.000Z</time>
      </trkpt>
      <trkpt lat="48.2227" lon="-2.86573">
        <ele>142</ele>
        <time>2020-10-16T13:03:12.000Z</time>
      </trkpt>
      <trkpt lat="48.22271" lon="-2.86569">
        <ele>141.80000305176</ele>
        <time>2020-10-16T13:03:13.000Z</time>
      </trkpt>
      <trkpt lat="48.22272" lon="-2.86564">
        <ele>141.80000305176</ele>
        <time>2020-10-16T13:03:14.000Z</time>
      </trkpt>
      <trkpt lat="48.22273" lon="-2.86559">
        <ele>141.60000610352</ele>
        <time>2020-10-16T13:03:15.000Z</time>
      </trkpt>
      <trkpt lat="48.22275" lon="-2.86554">
        <ele>141.60000610352</ele>
        <time>2020-10-16T13:03:16.000Z</time>
      </trkpt>
      <trkpt lat="48.22277" lon="-2.86549">
        <ele>141.60000610352</ele>
        <time>2020-10-16T13:03:17.000Z</time>
      </trkpt>
      <trkpt lat="48.22278" lon="-2.86544">
        <ele>141.39999389648</ele>
        <time>2020-10-16T13:03:18.000Z</time>
      </trkpt>
      <trkpt lat="48.22279" lon="-2.8654">
        <ele>141.39999389648</ele>
        <time>2020-10-16T13:03:19.000Z</time>
      </trkpt>
      <trkpt lat="48.22281" lon="-2.86535">
        <ele>141.39999389648</ele>
        <time>2020-10-16T13:03:20.000Z</time>
      </trkpt>
      <trkpt lat="48.22282" lon="-2.86531">
        <ele>141.39999389648</ele>
        <time>2020-10-16T13:03:21.000Z</time>
      </trkpt>
      <trkpt lat="48.22283" lon="-2.86527">
        <ele>141.19999694824</ele>
        <time>2020-10-16T13:03:22.000Z</time>
      </trkpt>
      <trkpt lat="48.22285" lon="-2.86523">
        <ele>141.19999694824</ele>
        <time>2020-10-16T13:03:23.000Z</time>
      </trkpt>
      <trkpt lat="48.22286" lon="-2.8652">
        <ele>141.19999694824</ele>
        <time>2020-10-16T13:03:24.000Z</time>
      </trkpt>
      <trkpt lat="48.22286" lon="-2.86516">
        <ele>141.19999694824</ele>
        <time>2020-10-16T13:03:25.000Z</time>
      </trkpt>
      <trkpt lat="48.22287" lon="-2.86513">
        <ele>141</ele>
        <time>2020-10-16T13:03:26.000Z</time>
      </trkpt>
      <trkpt lat="48.22287" lon="-2.8651">
        <ele>141</ele>
        <time>2020-10-16T13:03:27.000Z</time>
      </trkpt>
      <trkpt lat="48.22287" lon="-2.86507">
        <ele>141</ele>
        <time>2020-10-16T13:03:28.000Z</time>
      </trkpt>
      <trkpt lat="48.22288" lon="-2.86504">
        <ele>141</ele>
        <time>2020-10-16T13:03:29.000Z</time>
      </trkpt>
      <trkpt lat="48.22289" lon="-2.86501">
        <ele>141</ele>
        <time>2020-10-16T13:03:30.000Z</time>
      </trkpt>
      <trkpt lat="48.2229" lon="-2.86496">
        <ele>141</ele>
        <time>2020-10-16T13:03:31.000Z</time>
      </trkpt>
      <trkpt lat="48.22291" lon="-2.86493">
        <ele>141</ele>
        <time>2020-10-16T13:03:32.000Z</time>
      </trkpt>
      <trkpt lat="48.22292" lon="-2.86489">
        <ele>141</ele>
        <time>2020-10-16T13:03:33.000Z</time>
      </trkpt>
      <trkpt lat="48.22294" lon="-2.86485">
        <ele>141.19999694824</ele>
        <time>2020-10-16T13:03:34.000Z</time>
      </trkpt>
      <trkpt lat="48.22296" lon="-2.86482">
        <ele>141.19999694824</ele>
        <time>2020-10-16T13:03:35.000Z</time>
      </trkpt>
      <trkpt lat="48.22299" lon="-2.86475">
        <ele>141.39999389648</ele>
        <time>2020-10-16T13:03:36.000Z</time>
      </trkpt>
      <trkpt lat="48.22299" lon="-2.86475">
        <ele>141.39999389648</ele>
        <time>2020-10-16T13:03:37.000Z</time>
      </trkpt>
      <trkpt lat="48.22301" lon="-2.86472">
        <ele>141.39999389648</ele>
        <time>2020-10-16T13:03:38.000Z</time>
      </trkpt>
      <trkpt lat="48.22303" lon="-2.86469">
        <ele>141.39999389648</ele>
        <time>2020-10-16T13:03:39.000Z</time>
      </trkpt>
      <trkpt lat="48.22305" lon="-2.86466">
        <ele>141.60000610352</ele>
        <time>2020-10-16T13:03:40.000Z</time>
      </trkpt>
      <trkpt lat="48.22307" lon="-2.86462">
        <ele>141.60000610352</ele>
        <time>2020-10-16T13:03:41.000Z</time>
      </trkpt>
      <trkpt lat="48.22309" lon="-2.86459">
        <ele>141.60000610352</ele>
        <time>2020-10-16T13:03:42.000Z</time>
      </trkpt>
      <trkpt lat="48.22311" lon="-2.86456">
        <ele>141.60000610352</ele>
        <time>2020-10-16T13:03:43.000Z</time>
      </trkpt>
      <trkpt lat="48.22313" lon="-2.86452">
        <ele>141.60000610352</ele>
        <time>2020-10-16T13:03:44.000Z</time>
      </trkpt>
      <trkpt lat="48.22315" lon="-2.86448">
        <ele>141.80000305176</ele>
        <time>2020-10-16T13:03:45.000Z</time>
      </trkpt>
      <trkpt lat="48.22318" lon="-2.86444">
        <ele>141.80000305176</ele>
        <time>2020-10-16T13:03:46.000Z</time>
      </trkpt>
      <trkpt lat="48.22321" lon="-2.86439">
        <ele>141.80000305176</ele>
        <time>2020-10-16T13:03:47.000Z</time>
      </trkpt>
      <trkpt lat="48.22324" lon="-2.86435">
        <ele>141.80000305176</ele>
        <time>2020-10-16T13:03:48.000Z</time>
      </trkpt>
      <trkpt lat="48.22326" lon="-2.8643">
        <ele>141.80000305176</ele>
        <time>2020-10-16T13:03:49.000Z</time>
      </trkpt>
      <trkpt lat="48.2233" lon="-2.86425">
        <ele>141.80000305176</ele>
        <time>2020-10-16T13:03:50.000Z</time>
      </trkpt>
      <trkpt lat="48.22333" lon="-2.86421">
        <ele>141.80000305176</ele>
        <time>2020-10-16T13:03:51.000Z</time>
      </trkpt>
      <trkpt lat="48.22336" lon="-2.86418">
        <ele>142</ele>
        <time>2020-10-16T13:03:52.000Z</time>
      </trkpt>
      <trkpt lat="48.2234" lon="-2.86415">
        <ele>142</ele>
        <time>2020-10-16T13:03:53.000Z</time>
      </trkpt>
      <trkpt lat="48.22344" lon="-2.86413">
        <ele>142.19999694824</ele>
        <time>2020-10-16T13:03:54.000Z</time>
      </trkpt>
      <trkpt lat="48.22347" lon="-2.86412">
        <ele>142.19999694824</ele>
        <time>2020-10-16T13:03:55.000Z</time>
      </trkpt>
      <trkpt lat="48.22351" lon="-2.86412">
        <ele>141.80000305176</ele>
        <time>2020-10-16T13:03:56.000Z</time>
      </trkpt>
      <trkpt lat="48.22356" lon="-2.86411">
        <ele>141.39999389648</ele>
        <time>2020-10-16T13:03:57.000Z</time>
      </trkpt>
      <trkpt lat="48.22359" lon="-2.8641">
        <ele>141</ele>
        <time>2020-10-16T13:03:58.000Z</time>
      </trkpt>
      <trkpt lat="48.22365" lon="-2.86411">
        <ele>140.60000610352</ele>
        <time>2020-10-16T13:03:59.000Z</time>
      </trkpt>
      <trkpt lat="48.22368" lon="-2.86412">
        <ele>140.60000610352</ele>
        <time>2020-10-16T13:04:00.000Z</time>
      </trkpt>
      <trkpt lat="48.22368" lon="-2.86412">
        <ele>140.60000610352</ele>
        <time>2020-10-16T13:04:01.000Z</time>
      </trkpt>
      <trkpt lat="48.22372" lon="-2.86418">
        <ele>140.60000610352</ele>
        <time>2020-10-16T13:04:02.000Z</time>
      </trkpt>
      <trkpt lat="48.22372" lon="-2.86418">
        <ele>140.60000610352</ele>
        <time>2020-10-16T13:04:03.000Z</time>
      </trkpt>
      <trkpt lat="48.22374" lon="-2.86422">
        <ele>140.80000305176</ele>
        <time>2020-10-16T13:04:04.000Z</time>
      </trkpt>
      <trkpt lat="48.22376" lon="-2.86426">
        <ele>140.80000305176</ele>
        <time>2020-10-16T13:04:05.000Z</time>
      </trkpt>
      <trkpt lat="48.22379" lon="-2.8643">
        <ele>140.60000610352</ele>
        <time>2020-10-16T13:04:06.000Z</time>
      </trkpt>
      <trkpt lat="48.22381" lon="-2.86435">
        <ele>140.39999389648</ele>
        <time>2020-10-16T13:04:07.000Z</time>
      </trkpt>
      <trkpt lat="48.22383" lon="-2.8644">
        <ele>140.19999694824</ele>
        <time>2020-10-16T13:04:08.000Z</time>
      </trkpt>
      <trkpt lat="48.22386" lon="-2.86446">
        <ele>140.19999694824</ele>
        <time>2020-10-16T13:04:09.000Z</time>
      </trkpt>
      <trkpt lat="48.22388" lon="-2.86451">
        <ele>140</ele>
        <time>2020-10-16T13:04:10.000Z</time>
      </trkpt>
      <trkpt lat="48.2239" lon="-2.86457">
        <ele>139.80000305176</ele>
        <time>2020-10-16T13:04:11.000Z</time>
      </trkpt>
      <trkpt lat="48.22392" lon="-2.86462">
        <ele>140</ele>
        <time>2020-10-16T13:04:12.000Z</time>
      </trkpt>
      <trkpt lat="48.22394" lon="-2.86468">
        <ele>140.39999389648</ele>
        <time>2020-10-16T13:04:13.000Z</time>
      </trkpt>
      <trkpt lat="48.22396" lon="-2.86473">
        <ele>141</ele>
        <time>2020-10-16T13:04:14.000Z</time>
      </trkpt>
      <trkpt lat="48.22398" lon="-2.86478">
        <ele>141.60000610352</ele>
        <time>2020-10-16T13:04:15.000Z</time>
      </trkpt>
      <trkpt lat="48.224" lon="-2.86483">
        <ele>142.19999694824</ele>
        <time>2020-10-16T13:04:16.000Z</time>
      </trkpt>
      <trkpt lat="48.22401" lon="-2.86488">
        <ele>142.60000610352</ele>
        <time>2020-10-16T13:04:17.000Z</time>
      </trkpt>
      <trkpt lat="48.22403" lon="-2.86493">
        <ele>143.19999694824</ele>
        <time>2020-10-16T13:04:18.000Z</time>
      </trkpt>
      <trkpt lat="48.22405" lon="-2.86498">
        <ele>143.60000610352</ele>
        <time>2020-10-16T13:04:19.000Z</time>
      </trkpt>
      <trkpt lat="48.22407" lon="-2.86503">
        <ele>144.19999694824</ele>
        <time>2020-10-16T13:04:20.000Z</time>
      </trkpt>
      <trkpt lat="48.22409" lon="-2.86507">
        <ele>144.60000610352</ele>
        <time>2020-10-16T13:04:21.000Z</time>
      </trkpt>
      <trkpt lat="48.22411" lon="-2.86512">
        <ele>144.80000305176</ele>
        <time>2020-10-16T13:04:22.000Z</time>
      </trkpt>
      <trkpt lat="48.22413" lon="-2.86517">
        <ele>145</ele>
        <time>2020-10-16T13:04:23.000Z</time>
      </trkpt>
      <trkpt lat="48.22414" lon="-2.86521">
        <ele>145.19999694824</ele>
        <time>2020-10-16T13:04:24.000Z</time>
      </trkpt>
      <trkpt lat="48.22417" lon="-2.86526">
        <ele>145.39999389648</ele>
        <time>2020-10-16T13:04:25.000Z</time>
      </trkpt>
      <trkpt lat="48.22418" lon="-2.8653">
        <ele>145.60000610352</ele>
        <time>2020-10-16T13:04:26.000Z</time>
      </trkpt>
      <trkpt lat="48.22419" lon="-2.86535">
        <ele>145.80000305176</ele>
        <time>2020-10-16T13:04:27.000Z</time>
      </trkpt>
      <trkpt lat="48.22421" lon="-2.8654">
        <ele>146</ele>
        <time>2020-10-16T13:04:28.000Z</time>
      </trkpt>
      <trkpt lat="48.22422" lon="-2.86545">
        <ele>146.19999694824</ele>
        <time>2020-10-16T13:04:29.000Z</time>
      </trkpt>
      <trkpt lat="48.22424" lon="-2.8655">
        <ele>146.39999389648</ele>
        <time>2020-10-16T13:04:30.000Z</time>
      </trkpt>
      <trkpt lat="48.22426" lon="-2.86554">
        <ele>146.60000610352</ele>
        <time>2020-10-16T13:04:31.000Z</time>
      </trkpt>
      <trkpt lat="48.22427" lon="-2.86558">
        <ele>146.80000305176</ele>
        <time>2020-10-16T13:04:32.000Z</time>
      </trkpt>
      <trkpt lat="48.22429" lon="-2.86562">
        <ele>147</ele>
        <time>2020-10-16T13:04:33.000Z</time>
      </trkpt>
      <trkpt lat="48.2243" lon="-2.86567">
        <ele>147</ele>
        <time>2020-10-16T13:04:34.000Z</time>
      </trkpt>
      <trkpt lat="48.22431" lon="-2.86571">
        <ele>147</ele>
        <time>2020-10-16T13:04:35.000Z</time>
      </trkpt>
      <trkpt lat="48.22432" lon="-2.86576">
        <ele>147</ele>
        <time>2020-10-16T13:04:36.000Z</time>
      </trkpt>
      <trkpt lat="48.22434" lon="-2.86581">
        <ele>146.80000305176</ele>
        <time>2020-10-16T13:04:37.000Z</time>
      </trkpt>
      <trkpt lat="48.22436" lon="-2.86585">
        <ele>146.80000305176</ele>
        <time>2020-10-16T13:04:38.000Z</time>
      </trkpt>
      <trkpt lat="48.22438" lon="-2.86589">
        <ele>147.19999694824</ele>
        <time>2020-10-16T13:04:39.000Z</time>
      </trkpt>
      <trkpt lat="48.2244" lon="-2.86592">
        <ele>147</ele>
        <time>2020-10-16T13:04:40.000Z</time>
      </trkpt>
      <trkpt lat="48.22444" lon="-2.86599">
        <ele>146.60000610352</ele>
        <time>2020-10-16T13:04:41.000Z</time>
      </trkpt>
      <trkpt lat="48.22444" lon="-2.86599">
        <ele>146.60000610352</ele>
        <time>2020-10-16T13:04:42.000Z</time>
      </trkpt>
      <trkpt lat="48.22447" lon="-2.86602">
        <ele>146.19999694824</ele>
        <time>2020-10-16T13:04:43.000Z</time>
      </trkpt>
      <trkpt lat="48.2245" lon="-2.86606">
        <ele>146</ele>
        <time>2020-10-16T13:04:44.000Z</time>
      </trkpt>
      <trkpt lat="48.22452" lon="-2.8661">
        <ele>145.80000305176</ele>
        <time>2020-10-16T13:04:45.000Z</time>
      </trkpt>
      <trkpt lat="48.22453" lon="-2.86614">
        <ele>145.60000610352</ele>
        <time>2020-10-16T13:04:46.000Z</time>
      </trkpt>
      <trkpt lat="48.22454" lon="-2.86618">
        <ele>145.39999389648</ele>
        <time>2020-10-16T13:04:47.000Z</time>
      </trkpt>
      <trkpt lat="48.22456" lon="-2.86624">
        <ele>145.39999389648</ele>
        <time>2020-10-16T13:04:48.000Z</time>
      </trkpt>
      <trkpt lat="48.22457" lon="-2.86629">
        <ele>145.19999694824</ele>
        <time>2020-10-16T13:04:49.000Z</time>
      </trkpt>
      <trkpt lat="48.22459" lon="-2.86634">
        <ele>145</ele>
        <time>2020-10-16T13:04:50.000Z</time>
      </trkpt>
      <trkpt lat="48.22461" lon="-2.86638">
        <ele>144.80000305176</ele>
        <time>2020-10-16T13:04:51.000Z</time>
      </trkpt>
      <trkpt lat="48.22462" lon="-2.86643">
        <ele>144.80000305176</ele>
        <time>2020-10-16T13:04:52.000Z</time>
      </trkpt>
      <trkpt lat="48.22463" lon="-2.86649">
        <ele>144.80000305176</ele>
        <time>2020-10-16T13:04:53.000Z</time>
      </trkpt>
      <trkpt lat="48.22465" lon="-2.86653">
        <ele>144.80000305176</ele>
        <time>2020-10-16T13:04:54.000Z</time>
      </trkpt>
      <trkpt lat="48.22466" lon="-2.86658">
        <ele>144.80000305176</ele>
        <time>2020-10-16T13:04:55.000Z</time>
      </trkpt>
      <trkpt lat="48.22467" lon="-2.86662">
        <ele>145</ele>
        <time>2020-10-16T13:04:56.000Z</time>
      </trkpt>
      <trkpt lat="48.22469" lon="-2.86668">
        <ele>145</ele>
        <time>2020-10-16T13:04:57.000Z</time>
      </trkpt>
      <trkpt lat="48.22471" lon="-2.86673">
        <ele>145</ele>
        <time>2020-10-16T13:04:58.000Z</time>
      </trkpt>
      <trkpt lat="48.22478" lon="-2.86682">
        <ele>144.60000610352</ele>
        <time>2020-10-16T13:04:59.000Z</time>
      </trkpt>
      <trkpt lat="48.22478" lon="-2.86682">
        <ele>144.60000610352</ele>
        <time>2020-10-16T13:05:00.000Z</time>
      </trkpt>
      <trkpt lat="48.22486" lon="-2.8669">
        <ele>144.19999694824</ele>
        <time>2020-10-16T13:05:01.000Z</time>
      </trkpt>
      <trkpt lat="48.22486" lon="-2.8669">
        <ele>144.19999694824</ele>
        <time>2020-10-16T13:05:02.000Z</time>
      </trkpt>
      <trkpt lat="48.22489" lon="-2.86694">
        <ele>144</ele>
        <time>2020-10-16T13:05:03.000Z</time>
      </trkpt>
      <trkpt lat="48.22492" lon="-2.86698">
        <ele>144.19999694824</ele>
        <time>2020-10-16T13:05:04.000Z</time>
      </trkpt>
      <trkpt lat="48.22495" lon="-2.86701">
        <ele>144.39999389648</ele>
        <time>2020-10-16T13:05:05.000Z</time>
      </trkpt>
      <trkpt lat="48.22497" lon="-2.86704">
        <ele>144.60000610352</ele>
        <time>2020-10-16T13:05:06.000Z</time>
      </trkpt>
      <trkpt lat="48.22498" lon="-2.86707">
        <ele>144.60000610352</ele>
        <time>2020-10-16T13:05:07.000Z</time>
      </trkpt>
      <trkpt lat="48.225" lon="-2.86711">
        <ele>144.80000305176</ele>
        <time>2020-10-16T13:05:08.000Z</time>
      </trkpt>
      <trkpt lat="48.22502" lon="-2.86716">
        <ele>145</ele>
        <time>2020-10-16T13:05:09.000Z</time>
      </trkpt>
      <trkpt lat="48.22505" lon="-2.86721">
        <ele>145.39999389648</ele>
        <time>2020-10-16T13:05:10.000Z</time>
      </trkpt>
      <trkpt lat="48.22507" lon="-2.86726">
        <ele>145.60000610352</ele>
        <time>2020-10-16T13:05:11.000Z</time>
      </trkpt>
      <trkpt lat="48.2251" lon="-2.86732">
        <ele>145.80000305176</ele>
        <time>2020-10-16T13:05:12.000Z</time>
      </trkpt>
      <trkpt lat="48.22512" lon="-2.86736">
        <ele>146</ele>
        <time>2020-10-16T13:05:13.000Z</time>
      </trkpt>
      <trkpt lat="48.22515" lon="-2.86741">
        <ele>146</ele>
        <time>2020-10-16T13:05:14.000Z</time>
      </trkpt>
      <trkpt lat="48.22517" lon="-2.86745">
        <ele>146</ele>
        <time>2020-10-16T13:05:15.000Z</time>
      </trkpt>
      <trkpt lat="48.22519" lon="-2.86749">
        <ele>146.19999694824</ele>
        <time>2020-10-16T13:05:16.000Z</time>
      </trkpt>
      <trkpt lat="48.22521" lon="-2.86753">
        <ele>146.19999694824</ele>
        <time>2020-10-16T13:05:17.000Z</time>
      </trkpt>
      <trkpt lat="48.22523" lon="-2.86757">
        <ele>146.19999694824</ele>
        <time>2020-10-16T13:05:18.000Z</time>
      </trkpt>
      <trkpt lat="48.22524" lon="-2.86759">
        <ele>146</ele>
        <time>2020-10-16T13:05:19.000Z</time>
      </trkpt>
      <trkpt lat="48.22526" lon="-2.86762">
        <ele>146</ele>
        <time>2020-10-16T13:05:20.000Z</time>
      </trkpt>
      <trkpt lat="48.22527" lon="-2.86764">
        <ele>146</ele>
        <time>2020-10-16T13:05:21.000Z</time>
      </trkpt>
      <trkpt lat="48.22529" lon="-2.86767">
        <ele>145.80000305176</ele>
        <time>2020-10-16T13:05:22.000Z</time>
      </trkpt>
      <trkpt lat="48.2253" lon="-2.8677">
        <ele>145.80000305176</ele>
        <time>2020-10-16T13:05:23.000Z</time>
      </trkpt>
      <trkpt lat="48.22531" lon="-2.86773">
        <ele>145.80000305176</ele>
        <time>2020-10-16T13:05:24.000Z</time>
      </trkpt>
      <trkpt lat="48.22532" lon="-2.86776">
        <ele>145.80000305176</ele>
        <time>2020-10-16T13:05:25.000Z</time>
      </trkpt>
      <trkpt lat="48.22533" lon="-2.86779">
        <ele>145.80000305176</ele>
        <time>2020-10-16T13:05:26.000Z</time>
      </trkpt>
      <trkpt lat="48.22534" lon="-2.86782">
        <ele>145.80000305176</ele>
        <time>2020-10-16T13:05:27.000Z</time>
      </trkpt>
      <trkpt lat="48.22534" lon="-2.86785">
        <ele>145.80000305176</ele>
        <time>2020-10-16T13:05:28.000Z</time>
      </trkpt>
      <trkpt lat="48.22534" lon="-2.86788">
        <ele>146</ele>
        <time>2020-10-16T13:05:29.000Z</time>
      </trkpt>
      <trkpt lat="48.22534" lon="-2.86791">
        <ele>146</ele>
        <time>2020-10-16T13:05:30.000Z</time>
      </trkpt>
      <trkpt lat="48.22534" lon="-2.86794">
        <ele>146</ele>
        <time>2020-10-16T13:05:31.000Z</time>
      </trkpt>
      <trkpt lat="48.22534" lon="-2.86797">
        <ele>146.19999694824</ele>
        <time>2020-10-16T13:05:32.000Z</time>
      </trkpt>
      <trkpt lat="48.22534" lon="-2.86801">
        <ele>146.19999694824</ele>
        <time>2020-10-16T13:05:33.000Z</time>
      </trkpt>
      <trkpt lat="48.22533" lon="-2.86804">
        <ele>146.39999389648</ele>
        <time>2020-10-16T13:05:34.000Z</time>
      </trkpt>
      <trkpt lat="48.22533" lon="-2.86808">
        <ele>146.60000610352</ele>
        <time>2020-10-16T13:05:35.000Z</time>
      </trkpt>
      <trkpt lat="48.22532" lon="-2.86811">
        <ele>146.60000610352</ele>
        <time>2020-10-16T13:05:36.000Z</time>
      </trkpt>
      <trkpt lat="48.22531" lon="-2.86819">
        <ele>147</ele>
        <time>2020-10-16T13:05:37.000Z</time>
      </trkpt>
      <trkpt lat="48.22531" lon="-2.86819">
        <ele>147</ele>
        <time>2020-10-16T13:05:38.000Z</time>
      </trkpt>
      <trkpt lat="48.22529" lon="-2.86825">
        <ele>147.19999694824</ele>
        <time>2020-10-16T13:05:39.000Z</time>
      </trkpt>
      <trkpt lat="48.22528" lon="-2.8683">
        <ele>147.60000610352</ele>
        <time>2020-10-16T13:05:40.000Z</time>
      </trkpt>
      <trkpt lat="48.22527" lon="-2.86835">
        <ele>147.80000305176</ele>
        <time>2020-10-16T13:05:41.000Z</time>
      </trkpt>
      <trkpt lat="48.22525" lon="-2.86841">
        <ele>148</ele>
        <time>2020-10-16T13:05:42.000Z</time>
      </trkpt>
      <trkpt lat="48.22523" lon="-2.86847">
        <ele>148.19999694824</ele>
        <time>2020-10-16T13:05:43.000Z</time>
      </trkpt>
      <trkpt lat="48.22521" lon="-2.86853">
        <ele>148.19999694824</ele>
        <time>2020-10-16T13:05:44.000Z</time>
      </trkpt>
      <trkpt lat="48.22519" lon="-2.86858">
        <ele>148.39999389648</ele>
        <time>2020-10-16T13:05:45.000Z</time>
      </trkpt>
      <trkpt lat="48.22517" lon="-2.86862">
        <ele>148.39999389648</ele>
        <time>2020-10-16T13:05:46.000Z</time>
      </trkpt>
      <trkpt lat="48.22515" lon="-2.86865">
        <ele>148.60000610352</ele>
        <time>2020-10-16T13:05:47.000Z</time>
      </trkpt>
      <trkpt lat="48.22513" lon="-2.86871">
        <ele>148.60000610352</ele>
        <time>2020-10-16T13:05:48.000Z</time>
      </trkpt>
      <trkpt lat="48.2251" lon="-2.86876">
        <ele>148.60000610352</ele>
        <time>2020-10-16T13:05:49.000Z</time>
      </trkpt>
      <trkpt lat="48.22509" lon="-2.86881">
        <ele>148.60000610352</ele>
        <time>2020-10-16T13:05:50.000Z</time>
      </trkpt>
      <trkpt lat="48.22507" lon="-2.86886">
        <ele>148.60000610352</ele>
        <time>2020-10-16T13:05:51.000Z</time>
      </trkpt>
      <trkpt lat="48.22505" lon="-2.86891">
        <ele>148.60000610352</ele>
        <time>2020-10-16T13:05:52.000Z</time>
      </trkpt>
      <trkpt lat="48.22502" lon="-2.86897">
        <ele>148.60000610352</ele>
        <time>2020-10-16T13:05:53.000Z</time>
      </trkpt>
      <trkpt lat="48.225" lon="-2.86903">
        <ele>148.60000610352</ele>
        <time>2020-10-16T13:05:54.000Z</time>
      </trkpt>
      <trkpt lat="48.22498" lon="-2.86909">
        <ele>148.60000610352</ele>
        <time>2020-10-16T13:05:55.000Z</time>
      </trkpt>
      <trkpt lat="48.22497" lon="-2.86915">
        <ele>148.60000610352</ele>
        <time>2020-10-16T13:05:56.000Z</time>
      </trkpt>
      <trkpt lat="48.22496" lon="-2.86921">
        <ele>148.60000610352</ele>
        <time>2020-10-16T13:05:57.000Z</time>
      </trkpt>
      <trkpt lat="48.22495" lon="-2.86927">
        <ele>148.60000610352</ele>
        <time>2020-10-16T13:05:58.000Z</time>
      </trkpt>
      <trkpt lat="48.22493" lon="-2.86938">
        <ele>148.60000610352</ele>
        <time>2020-10-16T13:05:59.000Z</time>
      </trkpt>
      <trkpt lat="48.22493" lon="-2.86944">
        <ele>148.80000305176</ele>
        <time>2020-10-16T13:06:00.000Z</time>
      </trkpt>
      <trkpt lat="48.22493" lon="-2.86944">
        <ele>148.80000305176</ele>
        <time>2020-10-16T13:06:01.000Z</time>
      </trkpt>
      <trkpt lat="48.22492" lon="-2.86953">
        <ele>149</ele>
        <time>2020-10-16T13:06:02.000Z</time>
      </trkpt>
      <trkpt lat="48.22492" lon="-2.86953">
        <ele>149</ele>
        <time>2020-10-16T13:06:03.000Z</time>
      </trkpt>
      <trkpt lat="48.22491" lon="-2.86957">
        <ele>149.19999694824</ele>
        <time>2020-10-16T13:06:04.000Z</time>
      </trkpt>
      <trkpt lat="48.22491" lon="-2.86961">
        <ele>149.39999389648</ele>
        <time>2020-10-16T13:06:05.000Z</time>
      </trkpt>
      <trkpt lat="48.2249" lon="-2.86965">
        <ele>149.60000610352</ele>
        <time>2020-10-16T13:06:06.000Z</time>
      </trkpt>
      <trkpt lat="48.22491" lon="-2.86969">
        <ele>149.60000610352</ele>
        <time>2020-10-16T13:06:07.000Z</time>
      </trkpt>
      <trkpt lat="48.22492" lon="-2.86974">
        <ele>149.80000305176</ele>
        <time>2020-10-16T13:06:08.000Z</time>
      </trkpt>
      <trkpt lat="48.22493" lon="-2.8698">
        <ele>150</ele>
        <time>2020-10-16T13:06:09.000Z</time>
      </trkpt>
      <trkpt lat="48.22495" lon="-2.86987">
        <ele>150.39999389648</ele>
        <time>2020-10-16T13:06:10.000Z</time>
      </trkpt>
      <trkpt lat="48.22497" lon="-2.86993">
        <ele>150.60000610352</ele>
        <time>2020-10-16T13:06:11.000Z</time>
      </trkpt>
      <trkpt lat="48.22499" lon="-2.86998">
        <ele>150.80000305176</ele>
        <time>2020-10-16T13:06:12.000Z</time>
      </trkpt>
      <trkpt lat="48.22501" lon="-2.87003">
        <ele>150.80000305176</ele>
        <time>2020-10-16T13:06:13.000Z</time>
      </trkpt>
      <trkpt lat="48.22503" lon="-2.87008">
        <ele>151</ele>
        <time>2020-10-16T13:06:14.000Z</time>
      </trkpt>
      <trkpt lat="48.22505" lon="-2.87013">
        <ele>151</ele>
        <time>2020-10-16T13:06:15.000Z</time>
      </trkpt>
      <trkpt lat="48.22508" lon="-2.87018">
        <ele>151</ele>
        <time>2020-10-16T13:06:16.000Z</time>
      </trkpt>
      <trkpt lat="48.2251" lon="-2.87023">
        <ele>151</ele>
        <time>2020-10-16T13:06:17.000Z</time>
      </trkpt>
      <trkpt lat="48.22514" lon="-2.87028">
        <ele>150.80000305176</ele>
        <time>2020-10-16T13:06:18.000Z</time>
      </trkpt>
      <trkpt lat="48.22516" lon="-2.87034">
        <ele>150.19999694824</ele>
        <time>2020-10-16T13:06:19.000Z</time>
      </trkpt>
      <trkpt lat="48.2252" lon="-2.87044">
        <ele>149.39999389648</ele>
        <time>2020-10-16T13:06:20.000Z</time>
      </trkpt>
      <trkpt lat="48.2252" lon="-2.87044">
        <ele>149.39999389648</ele>
        <time>2020-10-16T13:06:21.000Z</time>
      </trkpt>
      <trkpt lat="48.22522" lon="-2.87049">
        <ele>149</ele>
        <time>2020-10-16T13:06:22.000Z</time>
      </trkpt>
      <trkpt lat="48.22525" lon="-2.87054">
        <ele>148.60000610352</ele>
        <time>2020-10-16T13:06:23.000Z</time>
      </trkpt>
      <trkpt lat="48.22526" lon="-2.87059">
        <ele>148.19999694824</ele>
        <time>2020-10-16T13:06:24.000Z</time>
      </trkpt>
      <trkpt lat="48.22529" lon="-2.87064">
        <ele>147.80000305176</ele>
        <time>2020-10-16T13:06:25.000Z</time>
      </trkpt>
      <trkpt lat="48.22531" lon="-2.87069">
        <ele>147.39999389648</ele>
        <time>2020-10-16T13:06:26.000Z</time>
      </trkpt>
      <trkpt lat="48.22533" lon="-2.87074">
        <ele>147.39999389648</ele>
        <time>2020-10-16T13:06:27.000Z</time>
      </trkpt>
      <trkpt lat="48.22534" lon="-2.8708">
        <ele>147.39999389648</ele>
        <time>2020-10-16T13:06:28.000Z</time>
      </trkpt>
      <trkpt lat="48.22536" lon="-2.87087">
        <ele>147.39999389648</ele>
        <time>2020-10-16T13:06:29.000Z</time>
      </trkpt>
      <trkpt lat="48.22537" lon="-2.87093">
        <ele>147.39999389648</ele>
        <time>2020-10-16T13:06:30.000Z</time>
      </trkpt>
      <trkpt lat="48.22538" lon="-2.87099">
        <ele>147.19999694824</ele>
        <time>2020-10-16T13:06:31.000Z</time>
      </trkpt>
      <trkpt lat="48.22539" lon="-2.87106">
        <ele>147.19999694824</ele>
        <time>2020-10-16T13:06:32.000Z</time>
      </trkpt>
      <trkpt lat="48.22539" lon="-2.87112">
        <ele>147.19999694824</ele>
        <time>2020-10-16T13:06:33.000Z</time>
      </trkpt>
      <trkpt lat="48.22539" lon="-2.87118">
        <ele>147.19999694824</ele>
        <time>2020-10-16T13:06:34.000Z</time>
      </trkpt>
      <trkpt lat="48.22539" lon="-2.87124">
        <ele>147.19999694824</ele>
        <time>2020-10-16T13:06:35.000Z</time>
      </trkpt>
      <trkpt lat="48.22538" lon="-2.8713">
        <ele>147.19999694824</ele>
        <time>2020-10-16T13:06:36.000Z</time>
      </trkpt>
      <trkpt lat="48.22538" lon="-2.87136">
        <ele>147.19999694824</ele>
        <time>2020-10-16T13:06:37.000Z</time>
      </trkpt>
      <trkpt lat="48.22537" lon="-2.87144">
        <ele>147.39999389648</ele>
        <time>2020-10-16T13:06:38.000Z</time>
      </trkpt>
      <trkpt lat="48.22535" lon="-2.87158">
        <ele>148</ele>
        <time>2020-10-16T13:06:39.000Z</time>
      </trkpt>
      <trkpt lat="48.22535" lon="-2.87158">
        <ele>148</ele>
        <time>2020-10-16T13:06:40.000Z</time>
      </trkpt>
      <trkpt lat="48.22533" lon="-2.87166">
        <ele>148.19999694824</ele>
        <time>2020-10-16T13:06:41.000Z</time>
      </trkpt>
      <trkpt lat="48.22532" lon="-2.87171">
        <ele>148.60000610352</ele>
        <time>2020-10-16T13:06:42.000Z</time>
      </trkpt>
      <trkpt lat="48.22532" lon="-2.87177">
        <ele>148.60000610352</ele>
        <time>2020-10-16T13:06:43.000Z</time>
      </trkpt>
      <trkpt lat="48.22532" lon="-2.87182">
        <ele>148.80000305176</ele>
        <time>2020-10-16T13:06:44.000Z</time>
      </trkpt>
      <trkpt lat="48.22531" lon="-2.87187">
        <ele>148.80000305176</ele>
        <time>2020-10-16T13:06:45.000Z</time>
      </trkpt>
      <trkpt lat="48.22531" lon="-2.87193">
        <ele>149</ele>
        <time>2020-10-16T13:06:46.000Z</time>
      </trkpt>
      <trkpt lat="48.22531" lon="-2.87198">
        <ele>149</ele>
        <time>2020-10-16T13:06:47.000Z</time>
      </trkpt>
      <trkpt lat="48.22532" lon="-2.87205">
        <ele>149</ele>
        <time>2020-10-16T13:06:48.000Z</time>
      </trkpt>
      <trkpt lat="48.22531" lon="-2.87211">
        <ele>149.19999694824</ele>
        <time>2020-10-16T13:06:49.000Z</time>
      </trkpt>
      <trkpt lat="48.2253" lon="-2.87217">
        <ele>149.39999389648</ele>
        <time>2020-10-16T13:06:50.000Z</time>
      </trkpt>
      <trkpt lat="48.2253" lon="-2.87222">
        <ele>149.39999389648</ele>
        <time>2020-10-16T13:06:51.000Z</time>
      </trkpt>
      <trkpt lat="48.2253" lon="-2.87227">
        <ele>149.39999389648</ele>
        <time>2020-10-16T13:06:52.000Z</time>
      </trkpt>
      <trkpt lat="48.2253" lon="-2.87233">
        <ele>149.60000610352</ele>
        <time>2020-10-16T13:06:53.000Z</time>
      </trkpt>
      <trkpt lat="48.22529" lon="-2.87238">
        <ele>149.80000305176</ele>
        <time>2020-10-16T13:06:54.000Z</time>
      </trkpt>
      <trkpt lat="48.22528" lon="-2.87243">
        <ele>149.80000305176</ele>
        <time>2020-10-16T13:06:55.000Z</time>
      </trkpt>
      <trkpt lat="48.22528" lon="-2.87248">
        <ele>149.80000305176</ele>
        <time>2020-10-16T13:06:56.000Z</time>
      </trkpt>
      <trkpt lat="48.22527" lon="-2.87254">
        <ele>149.60000610352</ele>
        <time>2020-10-16T13:06:57.000Z</time>
      </trkpt>
      <trkpt lat="48.22526" lon="-2.8726">
        <ele>149.60000610352</ele>
        <time>2020-10-16T13:06:58.000Z</time>
      </trkpt>
      <trkpt lat="48.22526" lon="-2.87272">
        <ele>150</ele>
        <time>2020-10-16T13:06:59.000Z</time>
      </trkpt>
      <trkpt lat="48.22526" lon="-2.87272">
        <ele>150</ele>
        <time>2020-10-16T13:07:00.000Z</time>
      </trkpt>
      <trkpt lat="48.22526" lon="-2.87278">
        <ele>150</ele>
        <time>2020-10-16T13:07:01.000Z</time>
      </trkpt>
      <trkpt lat="48.22526" lon="-2.87283">
        <ele>150</ele>
        <time>2020-10-16T13:07:02.000Z</time>
      </trkpt>
      <trkpt lat="48.22526" lon="-2.87289">
        <ele>150</ele>
        <time>2020-10-16T13:07:03.000Z</time>
      </trkpt>
      <trkpt lat="48.22526" lon="-2.87294">
        <ele>150</ele>
        <time>2020-10-16T13:07:04.000Z</time>
      </trkpt>
      <trkpt lat="48.22527" lon="-2.87298">
        <ele>150</ele>
        <time>2020-10-16T13:07:05.000Z</time>
      </trkpt>
      <trkpt lat="48.22527" lon="-2.87302">
        <ele>150</ele>
        <time>2020-10-16T13:07:06.000Z</time>
      </trkpt>
      <trkpt lat="48.22528" lon="-2.87306">
        <ele>150</ele>
        <time>2020-10-16T13:07:07.000Z</time>
      </trkpt>
      <trkpt lat="48.22529" lon="-2.87311">
        <ele>149.80000305176</ele>
        <time>2020-10-16T13:07:08.000Z</time>
      </trkpt>
      <trkpt lat="48.2253" lon="-2.87316">
        <ele>149.60000610352</ele>
        <time>2020-10-16T13:07:09.000Z</time>
      </trkpt>
      <trkpt lat="48.22532" lon="-2.87321">
        <ele>149.39999389648</ele>
        <time>2020-10-16T13:07:10.000Z</time>
      </trkpt>
      <trkpt lat="48.22533" lon="-2.87327">
        <ele>149.19999694824</ele>
        <time>2020-10-16T13:07:11.000Z</time>
      </trkpt>
      <trkpt lat="48.22536" lon="-2.87333">
        <ele>148.80000305176</ele>
        <time>2020-10-16T13:07:12.000Z</time>
      </trkpt>
      <trkpt lat="48.22538" lon="-2.87338">
        <ele>148.39999389648</ele>
        <time>2020-10-16T13:07:13.000Z</time>
      </trkpt>
      <trkpt lat="48.2254" lon="-2.87344">
        <ele>148</ele>
        <time>2020-10-16T13:07:14.000Z</time>
      </trkpt>
      <trkpt lat="48.22543" lon="-2.8735">
        <ele>147.39999389648</ele>
        <time>2020-10-16T13:07:15.000Z</time>
      </trkpt>
      <trkpt lat="48.22545" lon="-2.87356">
        <ele>147</ele>
        <time>2020-10-16T13:07:16.000Z</time>
      </trkpt>
      <trkpt lat="48.22547" lon="-2.87361">
        <ele>146.60000610352</ele>
        <time>2020-10-16T13:07:17.000Z</time>
      </trkpt>
      <trkpt lat="48.22549" lon="-2.87368">
        <ele>146.39999389648</ele>
        <time>2020-10-16T13:07:18.000Z</time>
      </trkpt>
      <trkpt lat="48.22553" lon="-2.87379">
        <ele>145.60000610352</ele>
        <time>2020-10-16T13:07:19.000Z</time>
      </trkpt>
      <trkpt lat="48.22553" lon="-2.87379">
        <ele>145.60000610352</ele>
        <time>2020-10-16T13:07:20.000Z</time>
      </trkpt>
      <trkpt lat="48.22555" lon="-2.87386">
        <ele>145.39999389648</ele>
        <time>2020-10-16T13:07:21.000Z</time>
      </trkpt>
      <trkpt lat="48.22557" lon="-2.87392">
        <ele>145</ele>
        <time>2020-10-16T13:07:22.000Z</time>
      </trkpt>
      <trkpt lat="48.22558" lon="-2.87398">
        <ele>144.60000610352</ele>
        <time>2020-10-16T13:07:23.000Z</time>
      </trkpt>
      <trkpt lat="48.2256" lon="-2.87405">
        <ele>144.39999389648</ele>
        <time>2020-10-16T13:07:24.000Z</time>
      </trkpt>
      <trkpt lat="48.22561" lon="-2.87412">
        <ele>144.19999694824</ele>
        <time>2020-10-16T13:07:25.000Z</time>
      </trkpt>
      <trkpt lat="48.22561" lon="-2.87418">
        <ele>144.19999694824</ele>
        <time>2020-10-16T13:07:26.000Z</time>
      </trkpt>
      <trkpt lat="48.22562" lon="-2.87424">
        <ele>144.19999694824</ele>
        <time>2020-10-16T13:07:27.000Z</time>
      </trkpt>
      <trkpt lat="48.22561" lon="-2.87431">
        <ele>144.60000610352</ele>
        <time>2020-10-16T13:07:28.000Z</time>
      </trkpt>
      <trkpt lat="48.22561" lon="-2.87437">
        <ele>144.80000305176</ele>
        <time>2020-10-16T13:07:29.000Z</time>
      </trkpt>
      <trkpt lat="48.22561" lon="-2.87444">
        <ele>145</ele>
        <time>2020-10-16T13:07:30.000Z</time>
      </trkpt>
      <trkpt lat="48.22559" lon="-2.87457">
        <ele>145.80000305176</ele>
        <time>2020-10-16T13:07:31.000Z</time>
      </trkpt>
      <trkpt lat="48.22559" lon="-2.87457">
        <ele>145.80000305176</ele>
        <time>2020-10-16T13:07:32.000Z</time>
      </trkpt>
      <trkpt lat="48.22559" lon="-2.87471">
        <ele>146.19999694824</ele>
        <time>2020-10-16T13:07:33.000Z</time>
      </trkpt>
      <trkpt lat="48.22559" lon="-2.87471">
        <ele>146.19999694824</ele>
        <time>2020-10-16T13:07:34.000Z</time>
      </trkpt>
      <trkpt lat="48.22559" lon="-2.87478">
        <ele>146.60000610352</ele>
        <time>2020-10-16T13:07:35.000Z</time>
      </trkpt>
      <trkpt lat="48.22559" lon="-2.8749">
        <ele>146.80000305176</ele>
        <time>2020-10-16T13:07:36.000Z</time>
      </trkpt>
      <trkpt lat="48.22559" lon="-2.8749">
        <ele>146.80000305176</ele>
        <time>2020-10-16T13:07:37.000Z</time>
      </trkpt>
      <trkpt lat="48.22559" lon="-2.87495">
        <ele>147</ele>
        <time>2020-10-16T13:07:38.000Z</time>
      </trkpt>
      <trkpt lat="48.22559" lon="-2.87507">
        <ele>147.60000610352</ele>
        <time>2020-10-16T13:07:39.000Z</time>
      </trkpt>
      <trkpt lat="48.22559" lon="-2.87507">
        <ele>147.60000610352</ele>
        <time>2020-10-16T13:07:40.000Z</time>
      </trkpt>
      <trkpt lat="48.22558" lon="-2.8752">
        <ele>147.80000305176</ele>
        <time>2020-10-16T13:07:41.000Z</time>
      </trkpt>
      <trkpt lat="48.22558" lon="-2.8752">
        <ele>147.80000305176</ele>
        <time>2020-10-16T13:07:42.000Z</time>
      </trkpt>
      <trkpt lat="48.22558" lon="-2.87528">
        <ele>147.60000610352</ele>
        <time>2020-10-16T13:07:43.000Z</time>
      </trkpt>
      <trkpt lat="48.22559" lon="-2.8754">
        <ele>147.60000610352</ele>
        <time>2020-10-16T13:07:44.000Z</time>
      </trkpt>
      <trkpt lat="48.22559" lon="-2.8754">
        <ele>147.60000610352</ele>
        <time>2020-10-16T13:07:45.000Z</time>
      </trkpt>
      <trkpt lat="48.22559" lon="-2.87552">
        <ele>147.80000305176</ele>
        <time>2020-10-16T13:07:46.000Z</time>
      </trkpt>
      <trkpt lat="48.22559" lon="-2.87552">
        <ele>147.80000305176</ele>
        <time>2020-10-16T13:07:47.000Z</time>
      </trkpt>
      <trkpt lat="48.22559" lon="-2.87565">
        <ele>148.39999389648</ele>
        <time>2020-10-16T13:07:48.000Z</time>
      </trkpt>
      <trkpt lat="48.22559" lon="-2.87565">
        <ele>148.39999389648</ele>
        <time>2020-10-16T13:07:49.000Z</time>
      </trkpt>
      <trkpt lat="48.2256" lon="-2.87571">
        <ele>148.60000610352</ele>
        <time>2020-10-16T13:07:50.000Z</time>
      </trkpt>
      <trkpt lat="48.22561" lon="-2.87584">
        <ele>148.80000305176</ele>
        <time>2020-10-16T13:07:51.000Z</time>
      </trkpt>
      <trkpt lat="48.22561" lon="-2.87584">
        <ele>148.80000305176</ele>
        <time>2020-10-16T13:07:52.000Z</time>
      </trkpt>
      <trkpt lat="48.22562" lon="-2.87597">
        <ele>148.80000305176</ele>
        <time>2020-10-16T13:07:53.000Z</time>
      </trkpt>
      <trkpt lat="48.22562" lon="-2.87597">
        <ele>148.80000305176</ele>
        <time>2020-10-16T13:07:54.000Z</time>
      </trkpt>
      <trkpt lat="48.22562" lon="-2.87602">
        <ele>148.80000305176</ele>
        <time>2020-10-16T13:07:55.000Z</time>
      </trkpt>
      <trkpt lat="48.22561" lon="-2.87614">
        <ele>149</ele>
        <time>2020-10-16T13:07:56.000Z</time>
      </trkpt>
      <trkpt lat="48.22561" lon="-2.87614">
        <ele>149</ele>
        <time>2020-10-16T13:07:57.000Z</time>
      </trkpt>
      <trkpt lat="48.2256" lon="-2.8762">
        <ele>149.19999694824</ele>
        <time>2020-10-16T13:07:58.000Z</time>
      </trkpt>
      <trkpt lat="48.22557" lon="-2.87634">
        <ele>149.39999389648</ele>
        <time>2020-10-16T13:07:59.000Z</time>
      </trkpt>
      <trkpt lat="48.22555" lon="-2.87641">
        <ele>149.60000610352</ele>
        <time>2020-10-16T13:08:00.000Z</time>
      </trkpt>
      <trkpt lat="48.22555" lon="-2.87641">
        <ele>149.60000610352</ele>
        <time>2020-10-16T13:08:01.000Z</time>
      </trkpt>
      <trkpt lat="48.22553" lon="-2.87651">
        <ele>149.60000610352</ele>
        <time>2020-10-16T13:08:02.000Z</time>
      </trkpt>
      <trkpt lat="48.22553" lon="-2.87651">
        <ele>149.60000610352</ele>
        <time>2020-10-16T13:08:03.000Z</time>
      </trkpt>
      <trkpt lat="48.22553" lon="-2.87658">
        <ele>149.60000610352</ele>
        <time>2020-10-16T13:08:04.000Z</time>
      </trkpt>
      <trkpt lat="48.22553" lon="-2.87658">
        <ele>149.60000610352</ele>
        <time>2020-10-16T13:08:05.000Z</time>
      </trkpt>
      <trkpt lat="48.22551" lon="-2.87664">
        <ele>149.60000610352</ele>
        <time>2020-10-16T13:08:06.000Z</time>
      </trkpt>
      <trkpt lat="48.22551" lon="-2.87664">
        <ele>149.60000610352</ele>
        <time>2020-10-16T13:08:07.000Z</time>
      </trkpt>
      <trkpt lat="48.2255" lon="-2.87668">
        <ele>149.60000610352</ele>
        <time>2020-10-16T13:08:08.000Z</time>
      </trkpt>
      <trkpt lat="48.22549" lon="-2.87677">
        <ele>149.80000305176</ele>
        <time>2020-10-16T13:08:09.000Z</time>
      </trkpt>
      <trkpt lat="48.22549" lon="-2.87677">
        <ele>149.80000305176</ele>
        <time>2020-10-16T13:08:10.000Z</time>
      </trkpt>
      <trkpt lat="48.22548" lon="-2.87681">
        <ele>150</ele>
        <time>2020-10-16T13:08:11.000Z</time>
      </trkpt>
      <trkpt lat="48.22547" lon="-2.87688">
        <ele>150.19999694824</ele>
        <time>2020-10-16T13:08:12.000Z</time>
      </trkpt>
      <trkpt lat="48.22547" lon="-2.87688">
        <ele>150.19999694824</ele>
        <time>2020-10-16T13:08:13.000Z</time>
      </trkpt>
      <trkpt lat="48.22546" lon="-2.87696">
        <ele>150.19999694824</ele>
        <time>2020-10-16T13:08:14.000Z</time>
      </trkpt>
      <trkpt lat="48.22546" lon="-2.87696">
        <ele>150.19999694824</ele>
        <time>2020-10-16T13:08:15.000Z</time>
      </trkpt>
      <trkpt lat="48.22546" lon="-2.877">
        <ele>150.39999389648</ele>
        <time>2020-10-16T13:08:16.000Z</time>
      </trkpt>
      <trkpt lat="48.22546" lon="-2.87704">
        <ele>150.19999694824</ele>
        <time>2020-10-16T13:08:17.000Z</time>
      </trkpt>
      <trkpt lat="48.22546" lon="-2.87713">
        <ele>150.39999389648</ele>
        <time>2020-10-16T13:08:18.000Z</time>
      </trkpt>
      <trkpt lat="48.22546" lon="-2.87717">
        <ele>150.39999389648</ele>
        <time>2020-10-16T13:08:19.000Z</time>
      </trkpt>
      <trkpt lat="48.22546" lon="-2.87717">
        <ele>150.39999389648</ele>
        <time>2020-10-16T13:08:20.000Z</time>
      </trkpt>
      <trkpt lat="48.22547" lon="-2.87723">
        <ele>150.19999694824</ele>
        <time>2020-10-16T13:08:21.000Z</time>
      </trkpt>
      <trkpt lat="48.22547" lon="-2.87734">
        <ele>150</ele>
        <time>2020-10-16T13:08:22.000Z</time>
      </trkpt>
      <trkpt lat="48.22547" lon="-2.87734">
        <ele>150</ele>
        <time>2020-10-16T13:08:23.000Z</time>
      </trkpt>
      <trkpt lat="48.22547" lon="-2.87739">
        <ele>150</ele>
        <time>2020-10-16T13:08:24.000Z</time>
      </trkpt>
      <trkpt lat="48.22547" lon="-2.87749">
        <ele>149.80000305176</ele>
        <time>2020-10-16T13:08:25.000Z</time>
      </trkpt>
      <trkpt lat="48.22547" lon="-2.87749">
        <ele>149.80000305176</ele>
        <time>2020-10-16T13:08:26.000Z</time>
      </trkpt>
      <trkpt lat="48.22546" lon="-2.87754">
        <ele>149.80000305176</ele>
        <time>2020-10-16T13:08:27.000Z</time>
      </trkpt>
      <trkpt lat="48.22547" lon="-2.87765">
        <ele>149.80000305176</ele>
        <time>2020-10-16T13:08:28.000Z</time>
      </trkpt>
      <trkpt lat="48.22547" lon="-2.87765">
        <ele>149.80000305176</ele>
        <time>2020-10-16T13:08:29.000Z</time>
      </trkpt>
      <trkpt lat="48.22546" lon="-2.8777">
        <ele>149.60000610352</ele>
        <time>2020-10-16T13:08:30.000Z</time>
      </trkpt>
      <trkpt lat="48.22544" lon="-2.87781">
        <ele>150</ele>
        <time>2020-10-16T13:08:31.000Z</time>
      </trkpt>
      <trkpt lat="48.22544" lon="-2.87781">
        <ele>150</ele>
        <time>2020-10-16T13:08:32.000Z</time>
      </trkpt>
      <trkpt lat="48.22543" lon="-2.87786">
        <ele>150</ele>
        <time>2020-10-16T13:08:33.000Z</time>
      </trkpt>
      <trkpt lat="48.22541" lon="-2.87797">
        <ele>150.19999694824</ele>
        <time>2020-10-16T13:08:34.000Z</time>
      </trkpt>
      <trkpt lat="48.22541" lon="-2.87797">
        <ele>150.19999694824</ele>
        <time>2020-10-16T13:08:35.000Z</time>
      </trkpt>
      <trkpt lat="48.2254" lon="-2.87803">
        <ele>150.39999389648</ele>
        <time>2020-10-16T13:08:36.000Z</time>
      </trkpt>
      <trkpt lat="48.22538" lon="-2.87813">
        <ele>150.60000610352</ele>
        <time>2020-10-16T13:08:37.000Z</time>
      </trkpt>
      <trkpt lat="48.22538" lon="-2.87817">
        <ele>150.80000305176</ele>
        <time>2020-10-16T13:08:38.000Z</time>
      </trkpt>
      <trkpt lat="48.22538" lon="-2.87817">
        <ele>150.80000305176</ele>
        <time>2020-10-16T13:08:39.000Z</time>
      </trkpt>
      <trkpt lat="48.22537" lon="-2.87822">
        <ele>150.80000305176</ele>
        <time>2020-10-16T13:08:40.000Z</time>
      </trkpt>
      <trkpt lat="48.22537" lon="-2.87832">
        <ele>151</ele>
        <time>2020-10-16T13:08:41.000Z</time>
      </trkpt>
      <trkpt lat="48.22537" lon="-2.87832">
        <ele>151</ele>
        <time>2020-10-16T13:08:42.000Z</time>
      </trkpt>
      <trkpt lat="48.22537" lon="-2.87837">
        <ele>151</ele>
        <time>2020-10-16T13:08:43.000Z</time>
      </trkpt>
      <trkpt lat="48.22538" lon="-2.87849">
        <ele>151.19999694824</ele>
        <time>2020-10-16T13:08:44.000Z</time>
      </trkpt>
      <trkpt lat="48.22538" lon="-2.87849">
        <ele>151.19999694824</ele>
        <time>2020-10-16T13:08:45.000Z</time>
      </trkpt>
      <trkpt lat="48.22539" lon="-2.87855">
        <ele>151</ele>
        <time>2020-10-16T13:08:46.000Z</time>
      </trkpt>
      <trkpt lat="48.22542" lon="-2.87867">
        <ele>150.60000610352</ele>
        <time>2020-10-16T13:08:47.000Z</time>
      </trkpt>
      <trkpt lat="48.22542" lon="-2.87867">
        <ele>150.60000610352</ele>
        <time>2020-10-16T13:08:48.000Z</time>
      </trkpt>
      <trkpt lat="48.22543" lon="-2.87873">
        <ele>150.60000610352</ele>
        <time>2020-10-16T13:08:49.000Z</time>
      </trkpt>
      <trkpt lat="48.22544" lon="-2.87885">
        <ele>150.39999389648</ele>
        <time>2020-10-16T13:08:50.000Z</time>
      </trkpt>
      <trkpt lat="48.22544" lon="-2.87885">
        <ele>150.39999389648</ele>
        <time>2020-10-16T13:08:51.000Z</time>
      </trkpt>
      <trkpt lat="48.22545" lon="-2.8789">
        <ele>150.39999389648</ele>
        <time>2020-10-16T13:08:52.000Z</time>
      </trkpt>
      <trkpt lat="48.22545" lon="-2.87904">
        <ele>150.60000610352</ele>
        <time>2020-10-16T13:08:53.000Z</time>
      </trkpt>
      <trkpt lat="48.22545" lon="-2.87904">
        <ele>150.60000610352</ele>
        <time>2020-10-16T13:08:54.000Z</time>
      </trkpt>
      <trkpt lat="48.22545" lon="-2.8791">
        <ele>150.60000610352</ele>
        <time>2020-10-16T13:08:55.000Z</time>
      </trkpt>
      <trkpt lat="48.22545" lon="-2.87921">
        <ele>150.60000610352</ele>
        <time>2020-10-16T13:08:56.000Z</time>
      </trkpt>
      <trkpt lat="48.22545" lon="-2.87921">
        <ele>150.60000610352</ele>
        <time>2020-10-16T13:08:57.000Z</time>
      </trkpt>
      <trkpt lat="48.22543" lon="-2.87928">
        <ele>151</ele>
        <time>2020-10-16T13:08:58.000Z</time>
      </trkpt>
      <trkpt lat="48.22541" lon="-2.87942">
        <ele>151.80000305176</ele>
        <time>2020-10-16T13:08:59.000Z</time>
      </trkpt>
      <trkpt lat="48.22541" lon="-2.87942">
        <ele>151.80000305176</ele>
        <time>2020-10-16T13:09:00.000Z</time>
      </trkpt>
      <trkpt lat="48.22541" lon="-2.87957">
        <ele>152.39999389648</ele>
        <time>2020-10-16T13:09:01.000Z</time>
      </trkpt>
      <trkpt lat="48.22543" lon="-2.87964">
        <ele>152.19999694824</ele>
        <time>2020-10-16T13:09:02.000Z</time>
      </trkpt>
      <trkpt lat="48.22543" lon="-2.87964">
        <ele>152.19999694824</ele>
        <time>2020-10-16T13:09:03.000Z</time>
      </trkpt>
      <trkpt lat="48.22547" lon="-2.87978">
        <ele>152.39999389648</ele>
        <time>2020-10-16T13:09:04.000Z</time>
      </trkpt>
      <trkpt lat="48.22547" lon="-2.87978">
        <ele>152.39999389648</ele>
        <time>2020-10-16T13:09:05.000Z</time>
      </trkpt>
      <trkpt lat="48.22548" lon="-2.87984">
        <ele>153</ele>
        <time>2020-10-16T13:09:06.000Z</time>
      </trkpt>
      <trkpt lat="48.2255" lon="-2.87995">
        <ele>153.80000305176</ele>
        <time>2020-10-16T13:09:07.000Z</time>
      </trkpt>
      <trkpt lat="48.2255" lon="-2.87995">
        <ele>153.80000305176</ele>
        <time>2020-10-16T13:09:08.000Z</time>
      </trkpt>
      <trkpt lat="48.2255" lon="-2.88001">
        <ele>154.39999389648</ele>
        <time>2020-10-16T13:09:09.000Z</time>
      </trkpt>
      <trkpt lat="48.2255" lon="-2.88013">
        <ele>155</ele>
        <time>2020-10-16T13:09:10.000Z</time>
      </trkpt>
      <trkpt lat="48.2255" lon="-2.88013">
        <ele>155</ele>
        <time>2020-10-16T13:09:11.000Z</time>
      </trkpt>
      <trkpt lat="48.2255" lon="-2.8802">
        <ele>155.19999694824</ele>
        <time>2020-10-16T13:09:12.000Z</time>
      </trkpt>
      <trkpt lat="48.2255" lon="-2.88034">
        <ele>155.19999694824</ele>
        <time>2020-10-16T13:09:13.000Z</time>
      </trkpt>
      <trkpt lat="48.2255" lon="-2.88034">
        <ele>155.19999694824</ele>
        <time>2020-10-16T13:09:14.000Z</time>
      </trkpt>
      <trkpt lat="48.2255" lon="-2.8804">
        <ele>155.19999694824</ele>
        <time>2020-10-16T13:09:15.000Z</time>
      </trkpt>
      <trkpt lat="48.22551" lon="-2.88052">
        <ele>155.39999389648</ele>
        <time>2020-10-16T13:09:16.000Z</time>
      </trkpt>
      <trkpt lat="48.2255" lon="-2.88058">
        <ele>155.60000610352</ele>
        <time>2020-10-16T13:09:17.000Z</time>
      </trkpt>
      <trkpt lat="48.2255" lon="-2.88058">
        <ele>155.60000610352</ele>
        <time>2020-10-16T13:09:18.000Z</time>
      </trkpt>
      <trkpt lat="48.22549" lon="-2.88064">
        <ele>155.60000610352</ele>
        <time>2020-10-16T13:09:19.000Z</time>
      </trkpt>
      <trkpt lat="48.22549" lon="-2.88074">
        <ele>155.80000305176</ele>
        <time>2020-10-16T13:09:20.000Z</time>
      </trkpt>
      <trkpt lat="48.22549" lon="-2.88074">
        <ele>155.80000305176</ele>
        <time>2020-10-16T13:09:21.000Z</time>
      </trkpt>
      <trkpt lat="48.22549" lon="-2.88079">
        <ele>155.80000305176</ele>
        <time>2020-10-16T13:09:22.000Z</time>
      </trkpt>
      <trkpt lat="48.22549" lon="-2.88087">
        <ele>156</ele>
        <time>2020-10-16T13:09:23.000Z</time>
      </trkpt>
      <trkpt lat="48.22549" lon="-2.88087">
        <ele>156</ele>
        <time>2020-10-16T13:09:24.000Z</time>
      </trkpt>
      <trkpt lat="48.2255" lon="-2.88093">
        <ele>155.80000305176</ele>
        <time>2020-10-16T13:09:25.000Z</time>
      </trkpt>
      <trkpt lat="48.22553" lon="-2.88105">
        <ele>155</ele>
        <time>2020-10-16T13:09:26.000Z</time>
      </trkpt>
      <trkpt lat="48.22553" lon="-2.88105">
        <ele>155</ele>
        <time>2020-10-16T13:09:27.000Z</time>
      </trkpt>
      <trkpt lat="48.22555" lon="-2.88113">
        <ele>154.60000610352</ele>
        <time>2020-10-16T13:09:28.000Z</time>
      </trkpt>
      <trkpt lat="48.2256" lon="-2.88126">
        <ele>153.60000610352</ele>
        <time>2020-10-16T13:09:29.000Z</time>
      </trkpt>
      <trkpt lat="48.2256" lon="-2.88126">
        <ele>153.60000610352</ele>
        <time>2020-10-16T13:09:30.000Z</time>
      </trkpt>
      <trkpt lat="48.22564" lon="-2.88132">
        <ele>153.19999694824</ele>
        <time>2020-10-16T13:09:31.000Z</time>
      </trkpt>
      <trkpt lat="48.22569" lon="-2.88143">
        <ele>152.80000305176</ele>
        <time>2020-10-16T13:09:32.000Z</time>
      </trkpt>
      <trkpt lat="48.22569" lon="-2.88143">
        <ele>152.80000305176</ele>
        <time>2020-10-16T13:09:33.000Z</time>
      </trkpt>
      <trkpt lat="48.22572" lon="-2.8815">
        <ele>152.60000610352</ele>
        <time>2020-10-16T13:09:34.000Z</time>
      </trkpt>
      <trkpt lat="48.22579" lon="-2.88159">
        <ele>152.19999694824</ele>
        <time>2020-10-16T13:09:35.000Z</time>
      </trkpt>
      <trkpt lat="48.22579" lon="-2.88159">
        <ele>152.19999694824</ele>
        <time>2020-10-16T13:09:36.000Z</time>
      </trkpt>
      <trkpt lat="48.22582" lon="-2.88162">
        <ele>152</ele>
        <time>2020-10-16T13:09:37.000Z</time>
      </trkpt>
      <trkpt lat="48.22588" lon="-2.88164">
        <ele>151.60000610352</ele>
        <time>2020-10-16T13:09:38.000Z</time>
      </trkpt>
      <trkpt lat="48.22588" lon="-2.88164">
        <ele>151.60000610352</ele>
        <time>2020-10-16T13:09:39.000Z</time>
      </trkpt>
      <trkpt lat="48.22592" lon="-2.88163">
        <ele>151.19999694824</ele>
        <time>2020-10-16T13:09:40.000Z</time>
      </trkpt>
      <trkpt lat="48.22597" lon="-2.88157">
        <ele>151</ele>
        <time>2020-10-16T13:09:41.000Z</time>
      </trkpt>
      <trkpt lat="48.22597" lon="-2.88157">
        <ele>151</ele>
        <time>2020-10-16T13:09:42.000Z</time>
      </trkpt>
      <trkpt lat="48.22601" lon="-2.8815">
        <ele>151.19999694824</ele>
        <time>2020-10-16T13:09:43.000Z</time>
      </trkpt>
      <trkpt lat="48.22601" lon="-2.8815">
        <ele>151.19999694824</ele>
        <time>2020-10-16T13:09:44.000Z</time>
      </trkpt>
      <trkpt lat="48.22603" lon="-2.88146">
        <ele>151.39999389648</ele>
        <time>2020-10-16T13:09:45.000Z</time>
      </trkpt>
      <trkpt lat="48.22606" lon="-2.88138">
        <ele>151.39999389648</ele>
        <time>2020-10-16T13:09:46.000Z</time>
      </trkpt>
      <trkpt lat="48.22606" lon="-2.88138">
        <ele>151.39999389648</ele>
        <time>2020-10-16T13:09:47.000Z</time>
      </trkpt>
      <trkpt lat="48.22607" lon="-2.88134">
        <ele>151.60000610352</ele>
        <time>2020-10-16T13:09:48.000Z</time>
      </trkpt>
      <trkpt lat="48.2261" lon="-2.88124">
        <ele>151.60000610352</ele>
        <time>2020-10-16T13:09:49.000Z</time>
      </trkpt>
      <trkpt lat="48.2261" lon="-2.88124">
        <ele>151.60000610352</ele>
        <time>2020-10-16T13:09:50.000Z</time>
      </trkpt>
      <trkpt lat="48.22612" lon="-2.88114">
        <ele>151.80000305176</ele>
        <time>2020-10-16T13:09:51.000Z</time>
      </trkpt>
      <trkpt lat="48.22612" lon="-2.88114">
        <ele>151.80000305176</ele>
        <time>2020-10-16T13:09:52.000Z</time>
      </trkpt>
      <trkpt lat="48.22615" lon="-2.88105">
        <ele>152</ele>
        <time>2020-10-16T13:09:53.000Z</time>
      </trkpt>
      <trkpt lat="48.22615" lon="-2.88105">
        <ele>152</ele>
        <time>2020-10-16T13:09:54.000Z</time>
      </trkpt>
      <trkpt lat="48.22616" lon="-2.881">
        <ele>152</ele>
        <time>2020-10-16T13:09:55.000Z</time>
      </trkpt>
      <trkpt lat="48.22617" lon="-2.88091">
        <ele>152</ele>
        <time>2020-10-16T13:09:56.000Z</time>
      </trkpt>
      <trkpt lat="48.22617" lon="-2.88086">
        <ele>151.80000305176</ele>
        <time>2020-10-16T13:09:57.000Z</time>
      </trkpt>
      <trkpt lat="48.22617" lon="-2.88086">
        <ele>151.80000305176</ele>
        <time>2020-10-16T13:09:58.000Z</time>
      </trkpt>
      <trkpt lat="48.22618" lon="-2.88075">
        <ele>151.39999389648</ele>
        <time>2020-10-16T13:09:59.000Z</time>
      </trkpt>
      <trkpt lat="48.22619" lon="-2.88069">
        <ele>151.19999694824</ele>
        <time>2020-10-16T13:10:00.000Z</time>
      </trkpt>
      <trkpt lat="48.2262" lon="-2.88062">
        <ele>151</ele>
        <time>2020-10-16T13:10:01.000Z</time>
      </trkpt>
      <trkpt lat="48.2262" lon="-2.88062">
        <ele>151</ele>
        <time>2020-10-16T13:10:02.000Z</time>
      </trkpt>
      <trkpt lat="48.22621" lon="-2.88057">
        <ele>151</ele>
        <time>2020-10-16T13:10:03.000Z</time>
      </trkpt>
      <trkpt lat="48.22622" lon="-2.88048">
        <ele>150.80000305176</ele>
        <time>2020-10-16T13:10:04.000Z</time>
      </trkpt>
      <trkpt lat="48.22622" lon="-2.88048">
        <ele>150.80000305176</ele>
        <time>2020-10-16T13:10:05.000Z</time>
      </trkpt>
      <trkpt lat="48.22622" lon="-2.88044">
        <ele>150.80000305176</ele>
        <time>2020-10-16T13:10:06.000Z</time>
      </trkpt>
      <trkpt lat="48.22624" lon="-2.88038">
        <ele>150.80000305176</ele>
        <time>2020-10-16T13:10:07.000Z</time>
      </trkpt>
      <trkpt lat="48.22624" lon="-2.88038">
        <ele>150.80000305176</ele>
        <time>2020-10-16T13:10:08.000Z</time>
      </trkpt>
      <trkpt lat="48.22625" lon="-2.88035">
        <ele>150.80000305176</ele>
        <time>2020-10-16T13:10:09.000Z</time>
      </trkpt>
      <trkpt lat="48.22626" lon="-2.88026">
        <ele>150.60000610352</ele>
        <time>2020-10-16T13:10:10.000Z</time>
      </trkpt>
      <trkpt lat="48.22626" lon="-2.88026">
        <ele>150.60000610352</ele>
        <time>2020-10-16T13:10:11.000Z</time>
      </trkpt>
      <trkpt lat="48.22627" lon="-2.88022">
        <ele>150.60000610352</ele>
        <time>2020-10-16T13:10:12.000Z</time>
      </trkpt>
      <trkpt lat="48.22631" lon="-2.88013">
        <ele>150.39999389648</ele>
        <time>2020-10-16T13:10:13.000Z</time>
      </trkpt>
      <trkpt lat="48.22631" lon="-2.88013">
        <ele>150.39999389648</ele>
        <time>2020-10-16T13:10:14.000Z</time>
      </trkpt>
      <trkpt lat="48.22632" lon="-2.88008">
        <ele>150.39999389648</ele>
        <time>2020-10-16T13:10:15.000Z</time>
      </trkpt>
      <trkpt lat="48.22637" lon="-2.87997">
        <ele>149.60000610352</ele>
        <time>2020-10-16T13:10:16.000Z</time>
      </trkpt>
      <trkpt lat="48.22637" lon="-2.87997">
        <ele>149.60000610352</ele>
        <time>2020-10-16T13:10:17.000Z</time>
      </trkpt>
      <trkpt lat="48.2264" lon="-2.87991">
        <ele>149</ele>
        <time>2020-10-16T13:10:18.000Z</time>
      </trkpt>
      <trkpt lat="48.22645" lon="-2.87981">
        <ele>148.19999694824</ele>
        <time>2020-10-16T13:10:19.000Z</time>
      </trkpt>
      <trkpt lat="48.22645" lon="-2.87981">
        <ele>148.19999694824</ele>
        <time>2020-10-16T13:10:20.000Z</time>
      </trkpt>
      <trkpt lat="48.22647" lon="-2.87976">
        <ele>147.80000305176</ele>
        <time>2020-10-16T13:10:21.000Z</time>
      </trkpt>
      <trkpt lat="48.22652" lon="-2.87968">
        <ele>147</ele>
        <time>2020-10-16T13:10:22.000Z</time>
      </trkpt>
      <trkpt lat="48.22652" lon="-2.87968">
        <ele>147</ele>
        <time>2020-10-16T13:10:23.000Z</time>
      </trkpt>
      <trkpt lat="48.22658" lon="-2.87961">
        <ele>146.39999389648</ele>
        <time>2020-10-16T13:10:24.000Z</time>
      </trkpt>
      <trkpt lat="48.22658" lon="-2.87961">
        <ele>146.39999389648</ele>
        <time>2020-10-16T13:10:25.000Z</time>
      </trkpt>
      <trkpt lat="48.2266" lon="-2.87958">
        <ele>146.19999694824</ele>
        <time>2020-10-16T13:10:26.000Z</time>
      </trkpt>
      <trkpt lat="48.22667" lon="-2.87951">
        <ele>145.60000610352</ele>
        <time>2020-10-16T13:10:27.000Z</time>
      </trkpt>
      <trkpt lat="48.22667" lon="-2.87951">
        <ele>145.60000610352</ele>
        <time>2020-10-16T13:10:28.000Z</time>
      </trkpt>
      <trkpt lat="48.2267" lon="-2.87947">
        <ele>145.19999694824</ele>
        <time>2020-10-16T13:10:29.000Z</time>
      </trkpt>
      <trkpt lat="48.22676" lon="-2.87943">
        <ele>144.80000305176</ele>
        <time>2020-10-16T13:10:30.000Z</time>
      </trkpt>
      <trkpt lat="48.22676" lon="-2.87943">
        <ele>144.80000305176</ele>
        <time>2020-10-16T13:10:31.000Z</time>
      </trkpt>
      <trkpt lat="48.22679" lon="-2.87942">
        <ele>144.80000305176</ele>
        <time>2020-10-16T13:10:32.000Z</time>
      </trkpt>
      <trkpt lat="48.22684" lon="-2.8794">
        <ele>144.60000610352</ele>
        <time>2020-10-16T13:10:33.000Z</time>
      </trkpt>
      <trkpt lat="48.22684" lon="-2.8794">
        <ele>144.60000610352</ele>
        <time>2020-10-16T13:10:34.000Z</time>
      </trkpt>
      <trkpt lat="48.22689" lon="-2.87937">
        <ele>144.19999694824</ele>
        <time>2020-10-16T13:10:35.000Z</time>
      </trkpt>
      <trkpt lat="48.22691" lon="-2.87936">
        <ele>144.19999694824</ele>
        <time>2020-10-16T13:10:36.000Z</time>
      </trkpt>
      <trkpt lat="48.22691" lon="-2.87936">
        <ele>144.19999694824</ele>
        <time>2020-10-16T13:10:37.000Z</time>
      </trkpt>
      <trkpt lat="48.22698" lon="-2.87935">
        <ele>144</ele>
        <time>2020-10-16T13:10:38.000Z</time>
      </trkpt>
      <trkpt lat="48.22698" lon="-2.87935">
        <ele>144</ele>
        <time>2020-10-16T13:10:39.000Z</time>
      </trkpt>
      <trkpt lat="48.22705" lon="-2.87935">
        <ele>143.80000305176</ele>
        <time>2020-10-16T13:10:40.000Z</time>
      </trkpt>
      <trkpt lat="48.22705" lon="-2.87935">
        <ele>143.80000305176</ele>
        <time>2020-10-16T13:10:41.000Z</time>
      </trkpt>
      <trkpt lat="48.22712" lon="-2.87937">
        <ele>144</ele>
        <time>2020-10-16T13:10:42.000Z</time>
      </trkpt>
      <trkpt lat="48.22712" lon="-2.87937">
        <ele>144</ele>
        <time>2020-10-16T13:10:43.000Z</time>
      </trkpt>
      <trkpt lat="48.22718" lon="-2.87941">
        <ele>144.19999694824</ele>
        <time>2020-10-16T13:10:44.000Z</time>
      </trkpt>
      <trkpt lat="48.22718" lon="-2.87941">
        <ele>144.19999694824</ele>
        <time>2020-10-16T13:10:45.000Z</time>
      </trkpt>
      <trkpt lat="48.22725" lon="-2.87946">
        <ele>144.60000610352</ele>
        <time>2020-10-16T13:10:46.000Z</time>
      </trkpt>
      <trkpt lat="48.22725" lon="-2.87946">
        <ele>144.60000610352</ele>
        <time>2020-10-16T13:10:47.000Z</time>
      </trkpt>
      <trkpt lat="48.22731" lon="-2.87953">
        <ele>145.19999694824</ele>
        <time>2020-10-16T13:10:48.000Z</time>
      </trkpt>
      <trkpt lat="48.22731" lon="-2.87953">
        <ele>145.19999694824</ele>
        <time>2020-10-16T13:10:49.000Z</time>
      </trkpt>
      <trkpt lat="48.22734" lon="-2.87956">
        <ele>145.80000305176</ele>
        <time>2020-10-16T13:10:50.000Z</time>
      </trkpt>
      <trkpt lat="48.2274" lon="-2.87961">
        <ele>147</ele>
        <time>2020-10-16T13:10:51.000Z</time>
      </trkpt>
      <trkpt lat="48.2274" lon="-2.87961">
        <ele>147</ele>
        <time>2020-10-16T13:10:52.000Z</time>
      </trkpt>
      <trkpt lat="48.22747" lon="-2.87968">
        <ele>148.39999389648</ele>
        <time>2020-10-16T13:10:53.000Z</time>
      </trkpt>
      <trkpt lat="48.22747" lon="-2.87968">
        <ele>148.39999389648</ele>
        <time>2020-10-16T13:10:54.000Z</time>
      </trkpt>
      <trkpt lat="48.22749" lon="-2.87971">
        <ele>149</ele>
        <time>2020-10-16T13:10:55.000Z</time>
      </trkpt>
      <trkpt lat="48.22754" lon="-2.87977">
        <ele>150</ele>
        <time>2020-10-16T13:10:56.000Z</time>
      </trkpt>
      <trkpt lat="48.22754" lon="-2.87977">
        <ele>150</ele>
        <time>2020-10-16T13:10:57.000Z</time>
      </trkpt>
      <trkpt lat="48.2276" lon="-2.87983">
        <ele>151.39999389648</ele>
        <time>2020-10-16T13:10:58.000Z</time>
      </trkpt>
      <trkpt lat="48.2276" lon="-2.87983">
        <ele>151.39999389648</ele>
        <time>2020-10-16T13:10:59.000Z</time>
      </trkpt>
      <trkpt lat="48.22763" lon="-2.87986">
        <ele>151.80000305176</ele>
        <time>2020-10-16T13:11:00.000Z</time>
      </trkpt>
      <trkpt lat="48.22767" lon="-2.87988">
        <ele>151.80000305176</ele>
        <time>2020-10-16T13:11:01.000Z</time>
      </trkpt>
      <trkpt lat="48.22774" lon="-2.87993">
        <ele>152</ele>
        <time>2020-10-16T13:11:02.000Z</time>
      </trkpt>
      <trkpt lat="48.22774" lon="-2.87993">
        <ele>152</ele>
        <time>2020-10-16T13:11:03.000Z</time>
      </trkpt>
      <trkpt lat="48.22782" lon="-2.87998">
        <ele>151.80000305176</ele>
        <time>2020-10-16T13:11:04.000Z</time>
      </trkpt>
      <trkpt lat="48.22782" lon="-2.87998">
        <ele>151.80000305176</ele>
        <time>2020-10-16T13:11:05.000Z</time>
      </trkpt>
      <trkpt lat="48.22786" lon="-2.87999">
        <ele>151.60000610352</ele>
        <time>2020-10-16T13:11:06.000Z</time>
      </trkpt>
      <trkpt lat="48.22795" lon="-2.88003">
        <ele>151.39999389648</ele>
        <time>2020-10-16T13:11:07.000Z</time>
      </trkpt>
      <trkpt lat="48.22795" lon="-2.88003">
        <ele>151.39999389648</ele>
        <time>2020-10-16T13:11:08.000Z</time>
      </trkpt>
      <trkpt lat="48.22799" lon="-2.88005">
        <ele>151.19999694824</ele>
        <time>2020-10-16T13:11:09.000Z</time>
      </trkpt>
      <trkpt lat="48.22807" lon="-2.8801">
        <ele>150.80000305176</ele>
        <time>2020-10-16T13:11:10.000Z</time>
      </trkpt>
      <trkpt lat="48.22807" lon="-2.8801">
        <ele>150.80000305176</ele>
        <time>2020-10-16T13:11:11.000Z</time>
      </trkpt>
      <trkpt lat="48.22812" lon="-2.88012">
        <ele>150.39999389648</ele>
        <time>2020-10-16T13:11:12.000Z</time>
      </trkpt>
      <trkpt lat="48.2282" lon="-2.88015">
        <ele>149.80000305176</ele>
        <time>2020-10-16T13:11:13.000Z</time>
      </trkpt>
      <trkpt lat="48.2282" lon="-2.88015">
        <ele>149.80000305176</ele>
        <time>2020-10-16T13:11:14.000Z</time>
      </trkpt>
      <trkpt lat="48.22824" lon="-2.88016">
        <ele>149.39999389648</ele>
        <time>2020-10-16T13:11:15.000Z</time>
      </trkpt>
      <trkpt lat="48.22832" lon="-2.88017">
        <ele>148.60000610352</ele>
        <time>2020-10-16T13:11:16.000Z</time>
      </trkpt>
      <trkpt lat="48.22832" lon="-2.88017">
        <ele>148.60000610352</ele>
        <time>2020-10-16T13:11:17.000Z</time>
      </trkpt>
      <trkpt lat="48.22839" lon="-2.88019">
        <ele>148.19999694824</ele>
        <time>2020-10-16T13:11:18.000Z</time>
      </trkpt>
      <trkpt lat="48.22839" lon="-2.88019">
        <ele>148.19999694824</ele>
        <time>2020-10-16T13:11:19.000Z</time>
      </trkpt>
      <trkpt lat="48.22846" lon="-2.88022">
        <ele>147.80000305176</ele>
        <time>2020-10-16T13:11:20.000Z</time>
      </trkpt>
      <trkpt lat="48.22846" lon="-2.88022">
        <ele>147.80000305176</ele>
        <time>2020-10-16T13:11:21.000Z</time>
      </trkpt>
      <trkpt lat="48.22854" lon="-2.88027">
        <ele>147.19999694824</ele>
        <time>2020-10-16T13:11:22.000Z</time>
      </trkpt>
      <trkpt lat="48.22854" lon="-2.88027">
        <ele>147.19999694824</ele>
        <time>2020-10-16T13:11:23.000Z</time>
      </trkpt>
      <trkpt lat="48.22862" lon="-2.88032">
        <ele>146.80000305176</ele>
        <time>2020-10-16T13:11:24.000Z</time>
      </trkpt>
      <trkpt lat="48.22862" lon="-2.88032">
        <ele>146.80000305176</ele>
        <time>2020-10-16T13:11:25.000Z</time>
      </trkpt>
      <trkpt lat="48.22869" lon="-2.88037">
        <ele>146.39999389648</ele>
        <time>2020-10-16T13:11:26.000Z</time>
      </trkpt>
      <trkpt lat="48.22869" lon="-2.88037">
        <ele>146.39999389648</ele>
        <time>2020-10-16T13:11:27.000Z</time>
      </trkpt>
      <trkpt lat="48.22876" lon="-2.88042">
        <ele>146.19999694824</ele>
        <time>2020-10-16T13:11:28.000Z</time>
      </trkpt>
      <trkpt lat="48.22876" lon="-2.88042">
        <ele>146.19999694824</ele>
        <time>2020-10-16T13:11:29.000Z</time>
      </trkpt>
      <trkpt lat="48.2288" lon="-2.88045">
        <ele>146</ele>
        <time>2020-10-16T13:11:30.000Z</time>
      </trkpt>
      <trkpt lat="48.22884" lon="-2.88047">
        <ele>145.60000610352</ele>
        <time>2020-10-16T13:11:31.000Z</time>
      </trkpt>
      <trkpt lat="48.22892" lon="-2.8805">
        <ele>145.60000610352</ele>
        <time>2020-10-16T13:11:32.000Z</time>
      </trkpt>
      <trkpt lat="48.22892" lon="-2.8805">
        <ele>145.60000610352</ele>
        <time>2020-10-16T13:11:33.000Z</time>
      </trkpt>
      <trkpt lat="48.229" lon="-2.88053">
        <ele>146</ele>
        <time>2020-10-16T13:11:34.000Z</time>
      </trkpt>
      <trkpt lat="48.22904" lon="-2.88054">
        <ele>146</ele>
        <time>2020-10-16T13:11:35.000Z</time>
      </trkpt>
      <trkpt lat="48.22904" lon="-2.88054">
        <ele>146</ele>
        <time>2020-10-16T13:11:36.000Z</time>
      </trkpt>
      <trkpt lat="48.22912" lon="-2.88055">
        <ele>146</ele>
        <time>2020-10-16T13:11:37.000Z</time>
      </trkpt>
      <trkpt lat="48.22912" lon="-2.88055">
        <ele>146</ele>
        <time>2020-10-16T13:11:38.000Z</time>
      </trkpt>
      <trkpt lat="48.2292" lon="-2.88058">
        <ele>146.39999389648</ele>
        <time>2020-10-16T13:11:39.000Z</time>
      </trkpt>
      <trkpt lat="48.2292" lon="-2.88058">
        <ele>146.39999389648</ele>
        <time>2020-10-16T13:11:40.000Z</time>
      </trkpt>
      <trkpt lat="48.22928" lon="-2.8806">
        <ele>146.39999389648</ele>
        <time>2020-10-16T13:11:41.000Z</time>
      </trkpt>
      <trkpt lat="48.22928" lon="-2.8806">
        <ele>146.39999389648</ele>
        <time>2020-10-16T13:11:42.000Z</time>
      </trkpt>
      <trkpt lat="48.22936" lon="-2.88062">
        <ele>146.39999389648</ele>
        <time>2020-10-16T13:11:43.000Z</time>
      </trkpt>
      <trkpt lat="48.22936" lon="-2.88062">
        <ele>146.39999389648</ele>
        <time>2020-10-16T13:11:44.000Z</time>
      </trkpt>
      <trkpt lat="48.22944" lon="-2.88064">
        <ele>146.19999694824</ele>
        <time>2020-10-16T13:11:45.000Z</time>
      </trkpt>
      <trkpt lat="48.22944" lon="-2.88064">
        <ele>146.19999694824</ele>
        <time>2020-10-16T13:11:46.000Z</time>
      </trkpt>
      <trkpt lat="48.22953" lon="-2.88066">
        <ele>146</ele>
        <time>2020-10-16T13:11:47.000Z</time>
      </trkpt>
      <trkpt lat="48.22953" lon="-2.88066">
        <ele>146</ele>
        <time>2020-10-16T13:11:48.000Z</time>
      </trkpt>
      <trkpt lat="48.22962" lon="-2.88069">
        <ele>145.80000305176</ele>
        <time>2020-10-16T13:11:49.000Z</time>
      </trkpt>
      <trkpt lat="48.22962" lon="-2.88069">
        <ele>145.80000305176</ele>
        <time>2020-10-16T13:11:50.000Z</time>
      </trkpt>
      <trkpt lat="48.22969" lon="-2.88074">
        <ele>146</ele>
        <time>2020-10-16T13:11:51.000Z</time>
      </trkpt>
      <trkpt lat="48.22969" lon="-2.88074">
        <ele>146</ele>
        <time>2020-10-16T13:11:52.000Z</time>
      </trkpt>
      <trkpt lat="48.22976" lon="-2.88082">
        <ele>146.39999389648</ele>
        <time>2020-10-16T13:11:53.000Z</time>
      </trkpt>
      <trkpt lat="48.22976" lon="-2.88082">
        <ele>146.39999389648</ele>
        <time>2020-10-16T13:11:54.000Z</time>
      </trkpt>
      <trkpt lat="48.22982" lon="-2.88091">
        <ele>146.80000305176</ele>
        <time>2020-10-16T13:11:55.000Z</time>
      </trkpt>
      <trkpt lat="48.22982" lon="-2.88091">
        <ele>146.80000305176</ele>
        <time>2020-10-16T13:11:56.000Z</time>
      </trkpt>
      <trkpt lat="48.22986" lon="-2.88102">
        <ele>147.19999694824</ele>
        <time>2020-10-16T13:11:57.000Z</time>
      </trkpt>
      <trkpt lat="48.22986" lon="-2.88102">
        <ele>147.19999694824</ele>
        <time>2020-10-16T13:11:58.000Z</time>
      </trkpt>
      <trkpt lat="48.2299" lon="-2.88113">
        <ele>147.80000305176</ele>
        <time>2020-10-16T13:11:59.000Z</time>
      </trkpt>
      <trkpt lat="48.22992" lon="-2.88119">
        <ele>147.80000305176</ele>
        <time>2020-10-16T13:12:00.000Z</time>
      </trkpt>
      <trkpt lat="48.22994" lon="-2.88124">
        <ele>148</ele>
        <time>2020-10-16T13:12:01.000Z</time>
      </trkpt>
      <trkpt lat="48.22994" lon="-2.88124">
        <ele>148</ele>
        <time>2020-10-16T13:12:02.000Z</time>
      </trkpt>
      <trkpt lat="48.22999" lon="-2.88132">
        <ele>148</ele>
        <time>2020-10-16T13:12:03.000Z</time>
      </trkpt>
      <trkpt lat="48.22999" lon="-2.88132">
        <ele>148</ele>
        <time>2020-10-16T13:12:04.000Z</time>
      </trkpt>
      <trkpt lat="48.23005" lon="-2.88139">
        <ele>148</ele>
        <time>2020-10-16T13:12:05.000Z</time>
      </trkpt>
      <trkpt lat="48.23005" lon="-2.88139">
        <ele>148</ele>
        <time>2020-10-16T13:12:06.000Z</time>
      </trkpt>
      <trkpt lat="48.23008" lon="-2.88143">
        <ele>148</ele>
        <time>2020-10-16T13:12:07.000Z</time>
      </trkpt>
      <trkpt lat="48.23014" lon="-2.88151">
        <ele>147.80000305176</ele>
        <time>2020-10-16T13:12:08.000Z</time>
      </trkpt>
      <trkpt lat="48.23014" lon="-2.88151">
        <ele>147.80000305176</ele>
        <time>2020-10-16T13:12:09.000Z</time>
      </trkpt>
      <trkpt lat="48.2302" lon="-2.8816">
        <ele>147.60000610352</ele>
        <time>2020-10-16T13:12:10.000Z</time>
      </trkpt>
      <trkpt lat="48.2302" lon="-2.8816">
        <ele>147.60000610352</ele>
        <time>2020-10-16T13:12:11.000Z</time>
      </trkpt>
      <trkpt lat="48.23024" lon="-2.88165">
        <ele>147.60000610352</ele>
        <time>2020-10-16T13:12:12.000Z</time>
      </trkpt>
      <trkpt lat="48.2303" lon="-2.88174">
        <ele>147.80000305176</ele>
        <time>2020-10-16T13:12:13.000Z</time>
      </trkpt>
      <trkpt lat="48.2303" lon="-2.88174">
        <ele>147.80000305176</ele>
        <time>2020-10-16T13:12:14.000Z</time>
      </trkpt>
      <trkpt lat="48.23036" lon="-2.88184">
        <ele>147.39999389648</ele>
        <time>2020-10-16T13:12:15.000Z</time>
      </trkpt>
      <trkpt lat="48.23036" lon="-2.88184">
        <ele>147.39999389648</ele>
        <time>2020-10-16T13:12:16.000Z</time>
      </trkpt>
      <trkpt lat="48.2304" lon="-2.88189">
        <ele>147.19999694824</ele>
        <time>2020-10-16T13:12:17.000Z</time>
      </trkpt>
      <trkpt lat="48.23045" lon="-2.882">
        <ele>147</ele>
        <time>2020-10-16T13:12:18.000Z</time>
      </trkpt>
      <trkpt lat="48.23045" lon="-2.882">
        <ele>147</ele>
        <time>2020-10-16T13:12:19.000Z</time>
      </trkpt>
      <trkpt lat="48.23048" lon="-2.88211">
        <ele>146.80000305176</ele>
        <time>2020-10-16T13:12:20.000Z</time>
      </trkpt>
      <trkpt lat="48.23048" lon="-2.88211">
        <ele>146.80000305176</ele>
        <time>2020-10-16T13:12:21.000Z</time>
      </trkpt>
      <trkpt lat="48.23052" lon="-2.88224">
        <ele>147</ele>
        <time>2020-10-16T13:12:22.000Z</time>
      </trkpt>
      <trkpt lat="48.23052" lon="-2.88224">
        <ele>147</ele>
        <time>2020-10-16T13:12:23.000Z</time>
      </trkpt>
      <trkpt lat="48.23054" lon="-2.8823">
        <ele>147.39999389648</ele>
        <time>2020-10-16T13:12:24.000Z</time>
      </trkpt>
      <trkpt lat="48.23056" lon="-2.88241">
        <ele>148</ele>
        <time>2020-10-16T13:12:25.000Z</time>
      </trkpt>
      <trkpt lat="48.23056" lon="-2.88241">
        <ele>148</ele>
        <time>2020-10-16T13:12:26.000Z</time>
      </trkpt>
      <trkpt lat="48.23058" lon="-2.88246">
        <ele>148.39999389648</ele>
        <time>2020-10-16T13:12:27.000Z</time>
      </trkpt>
      <trkpt lat="48.23062" lon="-2.88257">
        <ele>148.80000305176</ele>
        <time>2020-10-16T13:12:28.000Z</time>
      </trkpt>
      <trkpt lat="48.23062" lon="-2.88257">
        <ele>148.80000305176</ele>
        <time>2020-10-16T13:12:29.000Z</time>
      </trkpt>
      <trkpt lat="48.23065" lon="-2.88262">
        <ele>149</ele>
        <time>2020-10-16T13:12:30.000Z</time>
      </trkpt>
      <trkpt lat="48.23071" lon="-2.88271">
        <ele>149.19999694824</ele>
        <time>2020-10-16T13:12:31.000Z</time>
      </trkpt>
      <trkpt lat="48.23071" lon="-2.88271">
        <ele>149.19999694824</ele>
        <time>2020-10-16T13:12:32.000Z</time>
      </trkpt>
      <trkpt lat="48.23074" lon="-2.88275">
        <ele>149.39999389648</ele>
        <time>2020-10-16T13:12:33.000Z</time>
      </trkpt>
      <trkpt lat="48.2308" lon="-2.88283">
        <ele>149.19999694824</ele>
        <time>2020-10-16T13:12:34.000Z</time>
      </trkpt>
      <trkpt lat="48.2308" lon="-2.88283">
        <ele>149.19999694824</ele>
        <time>2020-10-16T13:12:35.000Z</time>
      </trkpt>
      <trkpt lat="48.23084" lon="-2.88287">
        <ele>149</ele>
        <time>2020-10-16T13:12:36.000Z</time>
      </trkpt>
      <trkpt lat="48.2309" lon="-2.88295">
        <ele>148.80000305176</ele>
        <time>2020-10-16T13:12:37.000Z</time>
      </trkpt>
      <trkpt lat="48.2309" lon="-2.88295">
        <ele>148.80000305176</ele>
        <time>2020-10-16T13:12:38.000Z</time>
      </trkpt>
      <trkpt lat="48.23093" lon="-2.88299">
        <ele>148.60000610352</ele>
        <time>2020-10-16T13:12:39.000Z</time>
      </trkpt>
      <trkpt lat="48.23099" lon="-2.88307">
        <ele>148.60000610352</ele>
        <time>2020-10-16T13:12:40.000Z</time>
      </trkpt>
      <trkpt lat="48.23099" lon="-2.88307">
        <ele>148.60000610352</ele>
        <time>2020-10-16T13:12:41.000Z</time>
      </trkpt>
      <trkpt lat="48.23103" lon="-2.88311">
        <ele>148.80000305176</ele>
        <time>2020-10-16T13:12:42.000Z</time>
      </trkpt>
      <trkpt lat="48.23109" lon="-2.88318">
        <ele>148.80000305176</ele>
        <time>2020-10-16T13:12:43.000Z</time>
      </trkpt>
      <trkpt lat="48.23109" lon="-2.88318">
        <ele>148.80000305176</ele>
        <time>2020-10-16T13:12:44.000Z</time>
      </trkpt>
      <trkpt lat="48.23115" lon="-2.88326">
        <ele>149</ele>
        <time>2020-10-16T13:12:45.000Z</time>
      </trkpt>
      <trkpt lat="48.23115" lon="-2.88326">
        <ele>149</ele>
        <time>2020-10-16T13:12:46.000Z</time>
      </trkpt>
      <trkpt lat="48.23119" lon="-2.8833">
        <ele>149</ele>
        <time>2020-10-16T13:12:47.000Z</time>
      </trkpt>
      <trkpt lat="48.23125" lon="-2.88338">
        <ele>149</ele>
        <time>2020-10-16T13:12:48.000Z</time>
      </trkpt>
      <trkpt lat="48.23125" lon="-2.88338">
        <ele>149</ele>
        <time>2020-10-16T13:12:49.000Z</time>
      </trkpt>
      <trkpt lat="48.23129" lon="-2.88342">
        <ele>149</ele>
        <time>2020-10-16T13:12:50.000Z</time>
      </trkpt>
      <trkpt lat="48.23136" lon="-2.88348">
        <ele>149</ele>
        <time>2020-10-16T13:12:51.000Z</time>
      </trkpt>
      <trkpt lat="48.23136" lon="-2.88348">
        <ele>149</ele>
        <time>2020-10-16T13:12:52.000Z</time>
      </trkpt>
      <trkpt lat="48.23139" lon="-2.8835">
        <ele>149</ele>
        <time>2020-10-16T13:12:53.000Z</time>
      </trkpt>
      <trkpt lat="48.23146" lon="-2.88351">
        <ele>149</ele>
        <time>2020-10-16T13:12:54.000Z</time>
      </trkpt>
      <trkpt lat="48.23146" lon="-2.88351">
        <ele>149</ele>
        <time>2020-10-16T13:12:55.000Z</time>
      </trkpt>
      <trkpt lat="48.23152" lon="-2.88347">
        <ele>149</ele>
        <time>2020-10-16T13:12:56.000Z</time>
      </trkpt>
      <trkpt lat="48.23152" lon="-2.88347">
        <ele>149</ele>
        <time>2020-10-16T13:12:57.000Z</time>
      </trkpt>
      <trkpt lat="48.23158" lon="-2.8834">
        <ele>149</ele>
        <time>2020-10-16T13:12:58.000Z</time>
      </trkpt>
      <trkpt lat="48.23158" lon="-2.8834">
        <ele>149</ele>
        <time>2020-10-16T13:12:59.000Z</time>
      </trkpt>
      <trkpt lat="48.2316" lon="-2.88335">
        <ele>149</ele>
        <time>2020-10-16T13:13:00.000Z</time>
      </trkpt>
      <trkpt lat="48.23162" lon="-2.8833">
        <ele>149</ele>
        <time>2020-10-16T13:13:01.000Z</time>
      </trkpt>
      <trkpt lat="48.23165" lon="-2.88318">
        <ele>149</ele>
        <time>2020-10-16T13:13:02.000Z</time>
      </trkpt>
      <trkpt lat="48.23165" lon="-2.88318">
        <ele>149</ele>
        <time>2020-10-16T13:13:03.000Z</time>
      </trkpt>
      <trkpt lat="48.23168" lon="-2.88306">
        <ele>149</ele>
        <time>2020-10-16T13:13:04.000Z</time>
      </trkpt>
      <trkpt lat="48.23168" lon="-2.88306">
        <ele>149</ele>
        <time>2020-10-16T13:13:05.000Z</time>
      </trkpt>
      <trkpt lat="48.2317" lon="-2.88293">
        <ele>149</ele>
        <time>2020-10-16T13:13:06.000Z</time>
      </trkpt>
      <trkpt lat="48.2317" lon="-2.88293">
        <ele>149</ele>
        <time>2020-10-16T13:13:07.000Z</time>
      </trkpt>
      <trkpt lat="48.23172" lon="-2.8828">
        <ele>149</ele>
        <time>2020-10-16T13:13:08.000Z</time>
      </trkpt>
      <trkpt lat="48.23172" lon="-2.8828">
        <ele>149</ele>
        <time>2020-10-16T13:13:09.000Z</time>
      </trkpt>
      <trkpt lat="48.23174" lon="-2.88267">
        <ele>149</ele>
        <time>2020-10-16T13:13:10.000Z</time>
      </trkpt>
      <trkpt lat="48.23174" lon="-2.88267">
        <ele>149</ele>
        <time>2020-10-16T13:13:11.000Z</time>
      </trkpt>
      <trkpt lat="48.23177" lon="-2.88255">
        <ele>149</ele>
        <time>2020-10-16T13:13:12.000Z</time>
      </trkpt>
      <trkpt lat="48.23177" lon="-2.88255">
        <ele>149</ele>
        <time>2020-10-16T13:13:13.000Z</time>
      </trkpt>
      <trkpt lat="48.23179" lon="-2.88242">
        <ele>148.60000610352</ele>
        <time>2020-10-16T13:13:14.000Z</time>
      </trkpt>
      <trkpt lat="48.23179" lon="-2.88242">
        <ele>148.60000610352</ele>
        <time>2020-10-16T13:13:15.000Z</time>
      </trkpt>
      <trkpt lat="48.2318" lon="-2.88229">
        <ele>148.39999389648</ele>
        <time>2020-10-16T13:13:16.000Z</time>
      </trkpt>
      <trkpt lat="48.2318" lon="-2.88229">
        <ele>148.39999389648</ele>
        <time>2020-10-16T13:13:17.000Z</time>
      </trkpt>
      <trkpt lat="48.2318" lon="-2.88222">
        <ele>148.19999694824</ele>
        <time>2020-10-16T13:13:18.000Z</time>
      </trkpt>
      <trkpt lat="48.23181" lon="-2.8821">
        <ele>148</ele>
        <time>2020-10-16T13:13:19.000Z</time>
      </trkpt>
      <trkpt lat="48.23181" lon="-2.8821">
        <ele>148</ele>
        <time>2020-10-16T13:13:20.000Z</time>
      </trkpt>
      <trkpt lat="48.23181" lon="-2.88204">
        <ele>147.80000305176</ele>
        <time>2020-10-16T13:13:21.000Z</time>
      </trkpt>
      <trkpt lat="48.23182" lon="-2.88192">
        <ele>147.60000610352</ele>
        <time>2020-10-16T13:13:22.000Z</time>
      </trkpt>
      <trkpt lat="48.23182" lon="-2.88192">
        <ele>147.60000610352</ele>
        <time>2020-10-16T13:13:23.000Z</time>
      </trkpt>
      <trkpt lat="48.23182" lon="-2.88186">
        <ele>147.60000610352</ele>
        <time>2020-10-16T13:13:24.000Z</time>
      </trkpt>
      <trkpt lat="48.23183" lon="-2.88173">
        <ele>147.19999694824</ele>
        <time>2020-10-16T13:13:25.000Z</time>
      </trkpt>
      <trkpt lat="48.23183" lon="-2.88173">
        <ele>147.19999694824</ele>
        <time>2020-10-16T13:13:26.000Z</time>
      </trkpt>
      <trkpt lat="48.23183" lon="-2.88167">
        <ele>147.19999694824</ele>
        <time>2020-10-16T13:13:27.000Z</time>
      </trkpt>
      <trkpt lat="48.23184" lon="-2.88156">
        <ele>147.19999694824</ele>
        <time>2020-10-16T13:13:28.000Z</time>
      </trkpt>
      <trkpt lat="48.23184" lon="-2.88156">
        <ele>147.19999694824</ele>
        <time>2020-10-16T13:13:29.000Z</time>
      </trkpt>
      <trkpt lat="48.23184" lon="-2.8815">
        <ele>147</ele>
        <time>2020-10-16T13:13:30.000Z</time>
      </trkpt>
      <trkpt lat="48.23185" lon="-2.88139">
        <ele>147</ele>
        <time>2020-10-16T13:13:31.000Z</time>
      </trkpt>
      <trkpt lat="48.23185" lon="-2.88139">
        <ele>147</ele>
        <time>2020-10-16T13:13:32.000Z</time>
      </trkpt>
      <trkpt lat="48.23185" lon="-2.8813">
        <ele>147</ele>
        <time>2020-10-16T13:13:33.000Z</time>
      </trkpt>
      <trkpt lat="48.23185" lon="-2.8813">
        <ele>147</ele>
        <time>2020-10-16T13:13:34.000Z</time>
      </trkpt>
      <trkpt lat="48.23185" lon="-2.88124">
        <ele>146.80000305176</ele>
        <time>2020-10-16T13:13:35.000Z</time>
      </trkpt>
      <trkpt lat="48.23185" lon="-2.88124">
        <ele>146.80000305176</ele>
        <time>2020-10-16T13:13:36.000Z</time>
      </trkpt>
      <trkpt lat="48.23185" lon="-2.88118">
        <ele>146.80000305176</ele>
        <time>2020-10-16T13:13:37.000Z</time>
      </trkpt>
      <trkpt lat="48.23185" lon="-2.88118">
        <ele>146.80000305176</ele>
        <time>2020-10-16T13:13:38.000Z</time>
      </trkpt>
      <trkpt lat="48.23185" lon="-2.88115">
        <ele>146.80000305176</ele>
        <time>2020-10-16T13:13:39.000Z</time>
      </trkpt>
      <trkpt lat="48.23185" lon="-2.88107">
        <ele>146.60000610352</ele>
        <time>2020-10-16T13:13:40.000Z</time>
      </trkpt>
      <trkpt lat="48.23185" lon="-2.88107">
        <ele>146.60000610352</ele>
        <time>2020-10-16T13:13:41.000Z</time>
      </trkpt>
      <trkpt lat="48.23185" lon="-2.88103">
        <ele>146.60000610352</ele>
        <time>2020-10-16T13:13:42.000Z</time>
      </trkpt>
      <trkpt lat="48.23186" lon="-2.88093">
        <ele>146.60000610352</ele>
        <time>2020-10-16T13:13:43.000Z</time>
      </trkpt>
      <trkpt lat="48.23186" lon="-2.88093">
        <ele>146.60000610352</ele>
        <time>2020-10-16T13:13:44.000Z</time>
      </trkpt>
      <trkpt lat="48.23186" lon="-2.88088">
        <ele>146.39999389648</ele>
        <time>2020-10-16T13:13:45.000Z</time>
      </trkpt>
      <trkpt lat="48.23186" lon="-2.88078">
        <ele>146.39999389648</ele>
        <time>2020-10-16T13:13:46.000Z</time>
      </trkpt>
      <trkpt lat="48.23186" lon="-2.88078">
        <ele>146.39999389648</ele>
        <time>2020-10-16T13:13:47.000Z</time>
      </trkpt>
      <trkpt lat="48.23185" lon="-2.88073">
        <ele>146.39999389648</ele>
        <time>2020-10-16T13:13:48.000Z</time>
      </trkpt>
      <trkpt lat="48.23185" lon="-2.88062">
        <ele>146.39999389648</ele>
        <time>2020-10-16T13:13:49.000Z</time>
      </trkpt>
      <trkpt lat="48.23185" lon="-2.88062">
        <ele>146.39999389648</ele>
        <time>2020-10-16T13:13:50.000Z</time>
      </trkpt>
      <trkpt lat="48.23186" lon="-2.88057">
        <ele>146.39999389648</ele>
        <time>2020-10-16T13:13:51.000Z</time>
      </trkpt>
      <trkpt lat="48.23186" lon="-2.88046">
        <ele>146.39999389648</ele>
        <time>2020-10-16T13:13:52.000Z</time>
      </trkpt>
      <trkpt lat="48.23185" lon="-2.8804">
        <ele>146.19999694824</ele>
        <time>2020-10-16T13:13:53.000Z</time>
      </trkpt>
      <trkpt lat="48.23185" lon="-2.8804">
        <ele>146.19999694824</ele>
        <time>2020-10-16T13:13:54.000Z</time>
      </trkpt>
      <trkpt lat="48.23185" lon="-2.88029">
        <ele>146.19999694824</ele>
        <time>2020-10-16T13:13:55.000Z</time>
      </trkpt>
      <trkpt lat="48.23185" lon="-2.88029">
        <ele>146.19999694824</ele>
        <time>2020-10-16T13:13:56.000Z</time>
      </trkpt>
      <trkpt lat="48.23185" lon="-2.88024">
        <ele>146.19999694824</ele>
        <time>2020-10-16T13:13:57.000Z</time>
      </trkpt>
      <trkpt lat="48.23184" lon="-2.88011">
        <ele>146.19999694824</ele>
        <time>2020-10-16T13:13:58.000Z</time>
      </trkpt>
      <trkpt lat="48.23184" lon="-2.88011">
        <ele>146.19999694824</ele>
        <time>2020-10-16T13:13:59.000Z</time>
      </trkpt>
      <trkpt lat="48.23182" lon="-2.87998">
        <ele>146.19999694824</ele>
        <time>2020-10-16T13:14:00.000Z</time>
      </trkpt>
      <trkpt lat="48.23182" lon="-2.87998">
        <ele>146.19999694824</ele>
        <time>2020-10-16T13:14:01.000Z</time>
      </trkpt>
      <trkpt lat="48.23181" lon="-2.87986">
        <ele>146</ele>
        <time>2020-10-16T13:14:02.000Z</time>
      </trkpt>
      <trkpt lat="48.23181" lon="-2.87986">
        <ele>146</ele>
        <time>2020-10-16T13:14:03.000Z</time>
      </trkpt>
      <trkpt lat="48.23179" lon="-2.87973">
        <ele>146</ele>
        <time>2020-10-16T13:14:04.000Z</time>
      </trkpt>
      <trkpt lat="48.23179" lon="-2.87973">
        <ele>146</ele>
        <time>2020-10-16T13:14:05.000Z</time>
      </trkpt>
      <trkpt lat="48.23179" lon="-2.87966">
        <ele>146</ele>
        <time>2020-10-16T13:14:06.000Z</time>
      </trkpt>
      <trkpt lat="48.23177" lon="-2.87953">
        <ele>145.80000305176</ele>
        <time>2020-10-16T13:14:07.000Z</time>
      </trkpt>
      <trkpt lat="48.23177" lon="-2.87953">
        <ele>145.80000305176</ele>
        <time>2020-10-16T13:14:08.000Z</time>
      </trkpt>
      <trkpt lat="48.23173" lon="-2.8794">
        <ele>145.39999389648</ele>
        <time>2020-10-16T13:14:09.000Z</time>
      </trkpt>
      <trkpt lat="48.23173" lon="-2.8794">
        <ele>145.39999389648</ele>
        <time>2020-10-16T13:14:10.000Z</time>
      </trkpt>
      <trkpt lat="48.23167" lon="-2.87929">
        <ele>145</ele>
        <time>2020-10-16T13:14:11.000Z</time>
      </trkpt>
      <trkpt lat="48.23163" lon="-2.87924">
        <ele>144.80000305176</ele>
        <time>2020-10-16T13:14:12.000Z</time>
      </trkpt>
      <trkpt lat="48.23163" lon="-2.87924">
        <ele>144.80000305176</ele>
        <time>2020-10-16T13:14:13.000Z</time>
      </trkpt>
      <trkpt lat="48.23159" lon="-2.87919">
        <ele>144.60000610352</ele>
        <time>2020-10-16T13:14:14.000Z</time>
      </trkpt>
      <trkpt lat="48.23151" lon="-2.87908">
        <ele>144</ele>
        <time>2020-10-16T13:14:15.000Z</time>
      </trkpt>
      <trkpt lat="48.23151" lon="-2.87908">
        <ele>144</ele>
        <time>2020-10-16T13:14:16.000Z</time>
      </trkpt>
      <trkpt lat="48.23147" lon="-2.87903">
        <ele>143.80000305176</ele>
        <time>2020-10-16T13:14:17.000Z</time>
      </trkpt>
      <trkpt lat="48.23141" lon="-2.87894">
        <ele>143.19999694824</ele>
        <time>2020-10-16T13:14:18.000Z</time>
      </trkpt>
      <trkpt lat="48.23141" lon="-2.87894">
        <ele>143.19999694824</ele>
        <time>2020-10-16T13:14:19.000Z</time>
      </trkpt>
      <trkpt lat="48.23137" lon="-2.87889">
        <ele>143</ele>
        <time>2020-10-16T13:14:20.000Z</time>
      </trkpt>
      <trkpt lat="48.2313" lon="-2.8788">
        <ele>142.80000305176</ele>
        <time>2020-10-16T13:14:21.000Z</time>
      </trkpt>
      <trkpt lat="48.2313" lon="-2.8788">
        <ele>142.80000305176</ele>
        <time>2020-10-16T13:14:22.000Z</time>
      </trkpt>
      <trkpt lat="48.23126" lon="-2.87876">
        <ele>142.80000305176</ele>
        <time>2020-10-16T13:14:23.000Z</time>
      </trkpt>
      <trkpt lat="48.23118" lon="-2.87868">
        <ele>142.80000305176</ele>
        <time>2020-10-16T13:14:24.000Z</time>
      </trkpt>
      <trkpt lat="48.23118" lon="-2.87868">
        <ele>142.80000305176</ele>
        <time>2020-10-16T13:14:25.000Z</time>
      </trkpt>
      <trkpt lat="48.23114" lon="-2.87863">
        <ele>142.80000305176</ele>
        <time>2020-10-16T13:14:26.000Z</time>
      </trkpt>
      <trkpt lat="48.23107" lon="-2.87854">
        <ele>142.80000305176</ele>
        <time>2020-10-16T13:14:27.000Z</time>
      </trkpt>
      <trkpt lat="48.23107" lon="-2.87854">
        <ele>142.80000305176</ele>
        <time>2020-10-16T13:14:28.000Z</time>
      </trkpt>
      <trkpt lat="48.23102" lon="-2.87843">
        <ele>143</ele>
        <time>2020-10-16T13:14:29.000Z</time>
      </trkpt>
      <trkpt lat="48.23102" lon="-2.87843">
        <ele>143</ele>
        <time>2020-10-16T13:14:30.000Z</time>
      </trkpt>
      <trkpt lat="48.231" lon="-2.87837">
        <ele>143.19999694824</ele>
        <time>2020-10-16T13:14:31.000Z</time>
      </trkpt>
      <trkpt lat="48.23098" lon="-2.87825">
        <ele>143.39999389648</ele>
        <time>2020-10-16T13:14:32.000Z</time>
      </trkpt>
      <trkpt lat="48.23098" lon="-2.87825">
        <ele>143.39999389648</ele>
        <time>2020-10-16T13:14:33.000Z</time>
      </trkpt>
      <trkpt lat="48.23097" lon="-2.87818">
        <ele>143.60000610352</ele>
        <time>2020-10-16T13:14:34.000Z</time>
      </trkpt>
      <trkpt lat="48.23096" lon="-2.87806">
        <ele>143.80000305176</ele>
        <time>2020-10-16T13:14:35.000Z</time>
      </trkpt>
      <trkpt lat="48.23096" lon="-2.87806">
        <ele>143.80000305176</ele>
        <time>2020-10-16T13:14:36.000Z</time>
      </trkpt>
      <trkpt lat="48.23096" lon="-2.87799">
        <ele>144</ele>
        <time>2020-10-16T13:14:37.000Z</time>
      </trkpt>
      <trkpt lat="48.23096" lon="-2.87787">
        <ele>144.19999694824</ele>
        <time>2020-10-16T13:14:38.000Z</time>
      </trkpt>
      <trkpt lat="48.23096" lon="-2.87787">
        <ele>144.19999694824</ele>
        <time>2020-10-16T13:14:39.000Z</time>
      </trkpt>
      <trkpt lat="48.23095" lon="-2.87775">
        <ele>144.39999389648</ele>
        <time>2020-10-16T13:14:40.000Z</time>
      </trkpt>
      <trkpt lat="48.23095" lon="-2.87775">
        <ele>144.39999389648</ele>
        <time>2020-10-16T13:14:41.000Z</time>
      </trkpt>
      <trkpt lat="48.23094" lon="-2.87769">
        <ele>144.60000610352</ele>
        <time>2020-10-16T13:14:42.000Z</time>
      </trkpt>
      <trkpt lat="48.23094" lon="-2.87757">
        <ele>144.80000305176</ele>
        <time>2020-10-16T13:14:43.000Z</time>
      </trkpt>
      <trkpt lat="48.23094" lon="-2.87757">
        <ele>144.80000305176</ele>
        <time>2020-10-16T13:14:44.000Z</time>
      </trkpt>
      <trkpt lat="48.23095" lon="-2.87746">
        <ele>144.80000305176</ele>
        <time>2020-10-16T13:14:45.000Z</time>
      </trkpt>
      <trkpt lat="48.23095" lon="-2.87746">
        <ele>144.80000305176</ele>
        <time>2020-10-16T13:14:46.000Z</time>
      </trkpt>
      <trkpt lat="48.23093" lon="-2.87735">
        <ele>144.80000305176</ele>
        <time>2020-10-16T13:14:47.000Z</time>
      </trkpt>
      <trkpt lat="48.23093" lon="-2.87735">
        <ele>144.80000305176</ele>
        <time>2020-10-16T13:14:48.000Z</time>
      </trkpt>
      <trkpt lat="48.23093" lon="-2.8773">
        <ele>144.60000610352</ele>
        <time>2020-10-16T13:14:49.000Z</time>
      </trkpt>
      <trkpt lat="48.2309" lon="-2.87719">
        <ele>144.39999389648</ele>
        <time>2020-10-16T13:14:50.000Z</time>
      </trkpt>
      <trkpt lat="48.2309" lon="-2.87719">
        <ele>144.39999389648</ele>
        <time>2020-10-16T13:14:51.000Z</time>
      </trkpt>
      <trkpt lat="48.23089" lon="-2.87707">
        <ele>144.39999389648</ele>
        <time>2020-10-16T13:14:52.000Z</time>
      </trkpt>
      <trkpt lat="48.23089" lon="-2.87707">
        <ele>144.39999389648</ele>
        <time>2020-10-16T13:14:53.000Z</time>
      </trkpt>
      <trkpt lat="48.23089" lon="-2.87695">
        <ele>144.19999694824</ele>
        <time>2020-10-16T13:14:54.000Z</time>
      </trkpt>
      <trkpt lat="48.23089" lon="-2.87695">
        <ele>144.19999694824</ele>
        <time>2020-10-16T13:14:55.000Z</time>
      </trkpt>
      <trkpt lat="48.23088" lon="-2.8769">
        <ele>144.19999694824</ele>
        <time>2020-10-16T13:14:56.000Z</time>
      </trkpt>
      <trkpt lat="48.23088" lon="-2.87678">
        <ele>144.19999694824</ele>
        <time>2020-10-16T13:14:57.000Z</time>
      </trkpt>
      <trkpt lat="48.23088" lon="-2.87678">
        <ele>144.19999694824</ele>
        <time>2020-10-16T13:14:58.000Z</time>
      </trkpt>
      <trkpt lat="48.23089" lon="-2.87673">
        <ele>144.39999389648</ele>
        <time>2020-10-16T13:14:59.000Z</time>
      </trkpt>
      <trkpt lat="48.23088" lon="-2.87666">
        <ele>144.19999694824</ele>
        <time>2020-10-16T13:15:00.000Z</time>
      </trkpt>
      <trkpt lat="48.23088" lon="-2.8766">
        <ele>144.19999694824</ele>
        <time>2020-10-16T13:15:01.000Z</time>
      </trkpt>
      <trkpt lat="48.23089" lon="-2.87648">
        <ele>144.39999389648</ele>
        <time>2020-10-16T13:15:02.000Z</time>
      </trkpt>
      <trkpt lat="48.23089" lon="-2.87648">
        <ele>144.39999389648</ele>
        <time>2020-10-16T13:15:03.000Z</time>
      </trkpt>
      <trkpt lat="48.2309" lon="-2.87634">
        <ele>144.39999389648</ele>
        <time>2020-10-16T13:15:04.000Z</time>
      </trkpt>
      <trkpt lat="48.2309" lon="-2.87634">
        <ele>144.39999389648</ele>
        <time>2020-10-16T13:15:05.000Z</time>
      </trkpt>
      <trkpt lat="48.2309" lon="-2.87621">
        <ele>144.39999389648</ele>
        <time>2020-10-16T13:15:06.000Z</time>
      </trkpt>
      <trkpt lat="48.2309" lon="-2.87621">
        <ele>144.39999389648</ele>
        <time>2020-10-16T13:15:07.000Z</time>
      </trkpt>
      <trkpt lat="48.23092" lon="-2.87608">
        <ele>144.60000610352</ele>
        <time>2020-10-16T13:15:08.000Z</time>
      </trkpt>
      <trkpt lat="48.23092" lon="-2.87608">
        <ele>144.60000610352</ele>
        <time>2020-10-16T13:15:09.000Z</time>
      </trkpt>
      <trkpt lat="48.23094" lon="-2.87595">
        <ele>144.80000305176</ele>
        <time>2020-10-16T13:15:10.000Z</time>
      </trkpt>
      <trkpt lat="48.23094" lon="-2.87588">
        <ele>144.80000305176</ele>
        <time>2020-10-16T13:15:11.000Z</time>
      </trkpt>
      <trkpt lat="48.23094" lon="-2.87588">
        <ele>144.80000305176</ele>
        <time>2020-10-16T13:15:12.000Z</time>
      </trkpt>
      <trkpt lat="48.23094" lon="-2.87574">
        <ele>144.80000305176</ele>
        <time>2020-10-16T13:15:13.000Z</time>
      </trkpt>
      <trkpt lat="48.23094" lon="-2.87574">
        <ele>144.80000305176</ele>
        <time>2020-10-16T13:15:14.000Z</time>
      </trkpt>
      <trkpt lat="48.23094" lon="-2.87561">
        <ele>144.80000305176</ele>
        <time>2020-10-16T13:15:15.000Z</time>
      </trkpt>
      <trkpt lat="48.23094" lon="-2.87561">
        <ele>144.80000305176</ele>
        <time>2020-10-16T13:15:16.000Z</time>
      </trkpt>
      <trkpt lat="48.23095" lon="-2.87548">
        <ele>145</ele>
        <time>2020-10-16T13:15:17.000Z</time>
      </trkpt>
      <trkpt lat="48.23095" lon="-2.87548">
        <ele>145</ele>
        <time>2020-10-16T13:15:18.000Z</time>
      </trkpt>
      <trkpt lat="48.23095" lon="-2.87536">
        <ele>145</ele>
        <time>2020-10-16T13:15:19.000Z</time>
      </trkpt>
      <trkpt lat="48.23095" lon="-2.87536">
        <ele>145</ele>
        <time>2020-10-16T13:15:20.000Z</time>
      </trkpt>
      <trkpt lat="48.23095" lon="-2.87524">
        <ele>145</ele>
        <time>2020-10-16T13:15:21.000Z</time>
      </trkpt>
      <trkpt lat="48.23095" lon="-2.87524">
        <ele>145</ele>
        <time>2020-10-16T13:15:22.000Z</time>
      </trkpt>
      <trkpt lat="48.23094" lon="-2.87517">
        <ele>144.80000305176</ele>
        <time>2020-10-16T13:15:23.000Z</time>
      </trkpt>
      <trkpt lat="48.23095" lon="-2.87503">
        <ele>145</ele>
        <time>2020-10-16T13:15:24.000Z</time>
      </trkpt>
      <trkpt lat="48.23095" lon="-2.87503">
        <ele>145</ele>
        <time>2020-10-16T13:15:25.000Z</time>
      </trkpt>
      <trkpt lat="48.23096" lon="-2.87497">
        <ele>144.80000305176</ele>
        <time>2020-10-16T13:15:26.000Z</time>
      </trkpt>
      <trkpt lat="48.23096" lon="-2.87484">
        <ele>144.80000305176</ele>
        <time>2020-10-16T13:15:27.000Z</time>
      </trkpt>
      <trkpt lat="48.23096" lon="-2.87484">
        <ele>144.80000305176</ele>
        <time>2020-10-16T13:15:28.000Z</time>
      </trkpt>
      <trkpt lat="48.23095" lon="-2.87477">
        <ele>144.60000610352</ele>
        <time>2020-10-16T13:15:29.000Z</time>
      </trkpt>
      <trkpt lat="48.23095" lon="-2.8747">
        <ele>144.60000610352</ele>
        <time>2020-10-16T13:15:30.000Z</time>
      </trkpt>
      <trkpt lat="48.23093" lon="-2.87456">
        <ele>144</ele>
        <time>2020-10-16T13:15:31.000Z</time>
      </trkpt>
      <trkpt lat="48.23093" lon="-2.87456">
        <ele>144</ele>
        <time>2020-10-16T13:15:32.000Z</time>
      </trkpt>
      <trkpt lat="48.23091" lon="-2.8745">
        <ele>143.80000305176</ele>
        <time>2020-10-16T13:15:33.000Z</time>
      </trkpt>
      <trkpt lat="48.2309" lon="-2.87438">
        <ele>143.60000610352</ele>
        <time>2020-10-16T13:15:34.000Z</time>
      </trkpt>
      <trkpt lat="48.2309" lon="-2.87438">
        <ele>143.60000610352</ele>
        <time>2020-10-16T13:15:35.000Z</time>
      </trkpt>
      <trkpt lat="48.2309" lon="-2.87433">
        <ele>143.39999389648</ele>
        <time>2020-10-16T13:15:36.000Z</time>
      </trkpt>
      <trkpt lat="48.23092" lon="-2.8742">
        <ele>143.60000610352</ele>
        <time>2020-10-16T13:15:37.000Z</time>
      </trkpt>
      <trkpt lat="48.23092" lon="-2.8742">
        <ele>143.60000610352</ele>
        <time>2020-10-16T13:15:38.000Z</time>
      </trkpt>
      <trkpt lat="48.23092" lon="-2.87414">
        <ele>143.60000610352</ele>
        <time>2020-10-16T13:15:39.000Z</time>
      </trkpt>
      <trkpt lat="48.23094" lon="-2.87403">
        <ele>143.80000305176</ele>
        <time>2020-10-16T13:15:40.000Z</time>
      </trkpt>
      <trkpt lat="48.23094" lon="-2.87403">
        <ele>143.80000305176</ele>
        <time>2020-10-16T13:15:41.000Z</time>
      </trkpt>
      <trkpt lat="48.23095" lon="-2.87392">
        <ele>143.80000305176</ele>
        <time>2020-10-16T13:15:42.000Z</time>
      </trkpt>
      <trkpt lat="48.23095" lon="-2.87392">
        <ele>143.80000305176</ele>
        <time>2020-10-16T13:15:43.000Z</time>
      </trkpt>
      <trkpt lat="48.23095" lon="-2.87386">
        <ele>144</ele>
        <time>2020-10-16T13:15:44.000Z</time>
      </trkpt>
      <trkpt lat="48.23096" lon="-2.87375">
        <ele>144</ele>
        <time>2020-10-16T13:15:45.000Z</time>
      </trkpt>
      <trkpt lat="48.23096" lon="-2.87375">
        <ele>144</ele>
        <time>2020-10-16T13:15:46.000Z</time>
      </trkpt>
      <trkpt lat="48.23096" lon="-2.8737">
        <ele>144</ele>
        <time>2020-10-16T13:15:47.000Z</time>
      </trkpt>
      <trkpt lat="48.23097" lon="-2.87358">
        <ele>144.19999694824</ele>
        <time>2020-10-16T13:15:48.000Z</time>
      </trkpt>
      <trkpt lat="48.23097" lon="-2.87358">
        <ele>144.19999694824</ele>
        <time>2020-10-16T13:15:49.000Z</time>
      </trkpt>
      <trkpt lat="48.23097" lon="-2.87353">
        <ele>144.19999694824</ele>
        <time>2020-10-16T13:15:50.000Z</time>
      </trkpt>
      <trkpt lat="48.23099" lon="-2.8734">
        <ele>144.19999694824</ele>
        <time>2020-10-16T13:15:51.000Z</time>
      </trkpt>
      <trkpt lat="48.23099" lon="-2.8734">
        <ele>144.19999694824</ele>
        <time>2020-10-16T13:15:52.000Z</time>
      </trkpt>
      <trkpt lat="48.231" lon="-2.87334">
        <ele>144.19999694824</ele>
        <time>2020-10-16T13:15:53.000Z</time>
      </trkpt>
      <trkpt lat="48.23101" lon="-2.87323">
        <ele>144</ele>
        <time>2020-10-16T13:15:54.000Z</time>
      </trkpt>
      <trkpt lat="48.23101" lon="-2.87323">
        <ele>144</ele>
        <time>2020-10-16T13:15:55.000Z</time>
      </trkpt>
      <trkpt lat="48.23102" lon="-2.87312">
        <ele>143.80000305176</ele>
        <time>2020-10-16T13:15:56.000Z</time>
      </trkpt>
      <trkpt lat="48.23102" lon="-2.87312">
        <ele>143.80000305176</ele>
        <time>2020-10-16T13:15:57.000Z</time>
      </trkpt>
      <trkpt lat="48.23104" lon="-2.873">
        <ele>143.80000305176</ele>
        <time>2020-10-16T13:15:58.000Z</time>
      </trkpt>
      <trkpt lat="48.23104" lon="-2.873">
        <ele>143.80000305176</ele>
        <time>2020-10-16T13:15:59.000Z</time>
      </trkpt>
      <trkpt lat="48.23106" lon="-2.87288">
        <ele>143.60000610352</ele>
        <time>2020-10-16T13:16:00.000Z</time>
      </trkpt>
      <trkpt lat="48.23106" lon="-2.87288">
        <ele>143.60000610352</ele>
        <time>2020-10-16T13:16:01.000Z</time>
      </trkpt>
      <trkpt lat="48.2311" lon="-2.87279">
        <ele>143.80000305176</ele>
        <time>2020-10-16T13:16:02.000Z</time>
      </trkpt>
      <trkpt lat="48.2311" lon="-2.87279">
        <ele>143.80000305176</ele>
        <time>2020-10-16T13:16:03.000Z</time>
      </trkpt>
      <trkpt lat="48.23115" lon="-2.87272">
        <ele>144</ele>
        <time>2020-10-16T13:16:04.000Z</time>
      </trkpt>
      <trkpt lat="48.23115" lon="-2.87272">
        <ele>144</ele>
        <time>2020-10-16T13:16:05.000Z</time>
      </trkpt>
      <trkpt lat="48.23119" lon="-2.87268">
        <ele>144.19999694824</ele>
        <time>2020-10-16T13:16:06.000Z</time>
      </trkpt>
      <trkpt lat="48.23119" lon="-2.87268">
        <ele>144.19999694824</ele>
        <time>2020-10-16T13:16:07.000Z</time>
      </trkpt>
      <trkpt lat="48.23123" lon="-2.87265">
        <ele>144.39999389648</ele>
        <time>2020-10-16T13:16:08.000Z</time>
      </trkpt>
      <trkpt lat="48.23123" lon="-2.87265">
        <ele>144.39999389648</ele>
        <time>2020-10-16T13:16:09.000Z</time>
      </trkpt>
      <trkpt lat="48.23124" lon="-2.87265">
        <ele>144.60000610352</ele>
        <time>2020-10-16T13:16:10.000Z</time>
      </trkpt>
      <trkpt lat="48.23127" lon="-2.87263">
        <ele>144.80000305176</ele>
        <time>2020-10-16T13:16:11.000Z</time>
      </trkpt>
      <trkpt lat="48.23127" lon="-2.87263">
        <ele>144.80000305176</ele>
        <time>2020-10-16T13:16:12.000Z</time>
      </trkpt>
      <trkpt lat="48.23131" lon="-2.8726">
        <ele>145</ele>
        <time>2020-10-16T13:16:13.000Z</time>
      </trkpt>
      <trkpt lat="48.23131" lon="-2.8726">
        <ele>145</ele>
        <time>2020-10-16T13:16:14.000Z</time>
      </trkpt>
      <trkpt lat="48.23132" lon="-2.87258">
        <ele>145</ele>
        <time>2020-10-16T13:16:15.000Z</time>
      </trkpt>
      <trkpt lat="48.23133" lon="-2.87256">
        <ele>145.19999694824</ele>
        <time>2020-10-16T13:16:16.000Z</time>
      </trkpt>
      <trkpt lat="48.23136" lon="-2.87252">
        <ele>145.39999389648</ele>
        <time>2020-10-16T13:16:17.000Z</time>
      </trkpt>
      <trkpt lat="48.23136" lon="-2.87252">
        <ele>145.39999389648</ele>
        <time>2020-10-16T13:16:18.000Z</time>
      </trkpt>
      <trkpt lat="48.23138" lon="-2.8725">
        <ele>145.39999389648</ele>
        <time>2020-10-16T13:16:19.000Z</time>
      </trkpt>
      <trkpt lat="48.23138" lon="-2.8725">
        <ele>145.39999389648</ele>
        <time>2020-10-16T13:16:20.000Z</time>
      </trkpt>
      <trkpt lat="48.2314" lon="-2.87248">
        <ele>145.60000610352</ele>
        <time>2020-10-16T13:16:21.000Z</time>
      </trkpt>
      <trkpt lat="48.2314" lon="-2.87248">
        <ele>145.60000610352</ele>
        <time>2020-10-16T13:16:22.000Z</time>
      </trkpt>
      <trkpt lat="48.23142" lon="-2.87246">
        <ele>145.60000610352</ele>
        <time>2020-10-16T13:16:23.000Z</time>
      </trkpt>
      <trkpt lat="48.23144" lon="-2.87242">
        <ele>145.80000305176</ele>
        <time>2020-10-16T13:16:24.000Z</time>
      </trkpt>
      <trkpt lat="48.23144" lon="-2.87242">
        <ele>145.80000305176</ele>
        <time>2020-10-16T13:16:25.000Z</time>
      </trkpt>
      <trkpt lat="48.23145" lon="-2.87241">
        <ele>145.80000305176</ele>
        <time>2020-10-16T13:16:26.000Z</time>
      </trkpt>
      <trkpt lat="48.23148" lon="-2.87236">
        <ele>146</ele>
        <time>2020-10-16T13:16:27.000Z</time>
      </trkpt>
      <trkpt lat="48.23148" lon="-2.87236">
        <ele>146</ele>
        <time>2020-10-16T13:16:28.000Z</time>
      </trkpt>
      <trkpt lat="48.2315" lon="-2.87231">
        <ele>146</ele>
        <time>2020-10-16T13:16:29.000Z</time>
      </trkpt>
      <trkpt lat="48.23151" lon="-2.87229">
        <ele>146</ele>
        <time>2020-10-16T13:16:30.000Z</time>
      </trkpt>
      <trkpt lat="48.23151" lon="-2.87229">
        <ele>146</ele>
        <time>2020-10-16T13:16:31.000Z</time>
      </trkpt>
      <trkpt lat="48.23155" lon="-2.87223">
        <ele>146.19999694824</ele>
        <time>2020-10-16T13:16:32.000Z</time>
      </trkpt>
      <trkpt lat="48.23155" lon="-2.87223">
        <ele>146.19999694824</ele>
        <time>2020-10-16T13:16:33.000Z</time>
      </trkpt>
      <trkpt lat="48.23156" lon="-2.8722">
        <ele>146.19999694824</ele>
        <time>2020-10-16T13:16:34.000Z</time>
      </trkpt>
      <trkpt lat="48.23158" lon="-2.87213">
        <ele>146.19999694824</ele>
        <time>2020-10-16T13:16:35.000Z</time>
      </trkpt>
      <trkpt lat="48.23158" lon="-2.87213">
        <ele>146.19999694824</ele>
        <time>2020-10-16T13:16:36.000Z</time>
      </trkpt>
      <trkpt lat="48.23158" lon="-2.8721">
        <ele>146.19999694824</ele>
        <time>2020-10-16T13:16:37.000Z</time>
      </trkpt>
      <trkpt lat="48.2316" lon="-2.87203">
        <ele>146.19999694824</ele>
        <time>2020-10-16T13:16:38.000Z</time>
      </trkpt>
      <trkpt lat="48.2316" lon="-2.87203">
        <ele>146.19999694824</ele>
        <time>2020-10-16T13:16:39.000Z</time>
      </trkpt>
      <trkpt lat="48.23162" lon="-2.87199">
        <ele>146.19999694824</ele>
        <time>2020-10-16T13:16:40.000Z</time>
      </trkpt>
      <trkpt lat="48.23164" lon="-2.87192">
        <ele>146.19999694824</ele>
        <time>2020-10-16T13:16:41.000Z</time>
      </trkpt>
      <trkpt lat="48.23164" lon="-2.87192">
        <ele>146.19999694824</ele>
        <time>2020-10-16T13:16:42.000Z</time>
      </trkpt>
      <trkpt lat="48.23166" lon="-2.8719">
        <ele>146.19999694824</ele>
        <time>2020-10-16T13:16:43.000Z</time>
      </trkpt>
      <trkpt lat="48.23168" lon="-2.87183">
        <ele>146.39999389648</ele>
        <time>2020-10-16T13:16:44.000Z</time>
      </trkpt>
      <trkpt lat="48.23168" lon="-2.87183">
        <ele>146.39999389648</ele>
        <time>2020-10-16T13:16:45.000Z</time>
      </trkpt>
      <trkpt lat="48.2317" lon="-2.87177">
        <ele>146.19999694824</ele>
        <time>2020-10-16T13:16:46.000Z</time>
      </trkpt>
      <trkpt lat="48.2317" lon="-2.87177">
        <ele>146.19999694824</ele>
        <time>2020-10-16T13:16:47.000Z</time>
      </trkpt>
      <trkpt lat="48.23171" lon="-2.87173">
        <ele>146.19999694824</ele>
        <time>2020-10-16T13:16:48.000Z</time>
      </trkpt>
      <trkpt lat="48.23173" lon="-2.87166">
        <ele>146</ele>
        <time>2020-10-16T13:16:49.000Z</time>
      </trkpt>
      <trkpt lat="48.23174" lon="-2.87163">
        <ele>146</ele>
        <time>2020-10-16T13:16:50.000Z</time>
      </trkpt>
      <trkpt lat="48.23174" lon="-2.87163">
        <ele>146</ele>
        <time>2020-10-16T13:16:51.000Z</time>
      </trkpt>
      <trkpt lat="48.23174" lon="-2.87158">
        <ele>145.80000305176</ele>
        <time>2020-10-16T13:16:52.000Z</time>
      </trkpt>
      <trkpt lat="48.23174" lon="-2.87158">
        <ele>145.80000305176</ele>
        <time>2020-10-16T13:16:53.000Z</time>
      </trkpt>
      <trkpt lat="48.23175" lon="-2.87156">
        <ele>145.80000305176</ele>
        <time>2020-10-16T13:16:54.000Z</time>
      </trkpt>
      <trkpt lat="48.23175" lon="-2.87156">
        <ele>145.80000305176</ele>
        <time>2020-10-16T13:16:55.000Z</time>
      </trkpt>
      <trkpt lat="48.23174" lon="-2.87154">
        <ele>145.60000610352</ele>
        <time>2020-10-16T13:16:56.000Z</time>
      </trkpt>
      <trkpt lat="48.23174" lon="-2.87154">
        <ele>145.60000610352</ele>
        <time>2020-10-16T13:16:57.000Z</time>
      </trkpt>
      <trkpt lat="48.23174" lon="-2.87153">
        <ele>145.60000610352</ele>
        <time>2020-10-16T13:16:58.000Z</time>
      </trkpt>
      <trkpt lat="48.23174" lon="-2.87152">
        <ele>145.39999389648</ele>
        <time>2020-10-16T13:16:59.000Z</time>
      </trkpt>
      <trkpt lat="48.23174" lon="-2.87152">
        <ele>145.39999389648</ele>
        <time>2020-10-16T13:17:00.000Z</time>
      </trkpt>
      <trkpt lat="48.23175" lon="-2.87149">
        <ele>145.39999389648</ele>
        <time>2020-10-16T13:17:01.000Z</time>
      </trkpt>
      <trkpt lat="48.23175" lon="-2.87148">
        <ele>145.39999389648</ele>
        <time>2020-10-16T13:17:02.000Z</time>
      </trkpt>
      <trkpt lat="48.23175" lon="-2.87148">
        <ele>145.39999389648</ele>
        <time>2020-10-16T13:17:03.000Z</time>
      </trkpt>
      <trkpt lat="48.23176" lon="-2.87146">
        <ele>145.39999389648</ele>
        <time>2020-10-16T13:17:04.000Z</time>
      </trkpt>
      <trkpt lat="48.23176" lon="-2.87146">
        <ele>145.39999389648</ele>
        <time>2020-10-16T13:17:05.000Z</time>
      </trkpt>
      <trkpt lat="48.23178" lon="-2.87145">
        <ele>145.60000610352</ele>
        <time>2020-10-16T13:17:06.000Z</time>
      </trkpt>
      <trkpt lat="48.23178" lon="-2.87145">
        <ele>145.60000610352</ele>
        <time>2020-10-16T13:17:07.000Z</time>
      </trkpt>
      <trkpt lat="48.2318" lon="-2.87143">
        <ele>145.60000610352</ele>
        <time>2020-10-16T13:17:08.000Z</time>
      </trkpt>
      <trkpt lat="48.2318" lon="-2.87143">
        <ele>145.60000610352</ele>
        <time>2020-10-16T13:17:09.000Z</time>
      </trkpt>
      <trkpt lat="48.23181" lon="-2.87141">
        <ele>145.60000610352</ele>
        <time>2020-10-16T13:17:10.000Z</time>
      </trkpt>
      <trkpt lat="48.23181" lon="-2.87141">
        <ele>145.60000610352</ele>
        <time>2020-10-16T13:17:11.000Z</time>
      </trkpt>
      <trkpt lat="48.23181" lon="-2.87141">
        <ele>145.60000610352</ele>
        <time>2020-10-16T13:17:12.000Z</time>
      </trkpt>
      <trkpt lat="48.23182" lon="-2.8714">
        <ele>145.60000610352</ele>
        <time>2020-10-16T13:17:13.000Z</time>
      </trkpt>
      <trkpt lat="48.23182" lon="-2.8714">
        <ele>145.60000610352</ele>
        <time>2020-10-16T13:17:14.000Z</time>
      </trkpt>
      <trkpt lat="48.23182" lon="-2.8714">
        <ele>145.60000610352</ele>
        <time>2020-10-16T13:17:15.000Z</time>
      </trkpt>
      <trkpt lat="48.23182" lon="-2.8714">
        <ele>145.60000610352</ele>
        <time>2020-10-16T13:17:16.000Z</time>
      </trkpt>
      <trkpt lat="48.23183" lon="-2.87139">
        <ele>145.60000610352</ele>
        <time>2020-10-16T13:17:17.000Z</time>
      </trkpt>
      <trkpt lat="48.23183" lon="-2.87139">
        <ele>145.60000610352</ele>
        <time>2020-10-16T13:17:18.000Z</time>
      </trkpt>
      <trkpt lat="48.23184" lon="-2.87136">
        <ele>145.60000610352</ele>
        <time>2020-10-16T13:17:19.000Z</time>
      </trkpt>
      <trkpt lat="48.23184" lon="-2.87136">
        <ele>145.60000610352</ele>
        <time>2020-10-16T13:17:20.000Z</time>
      </trkpt>
      <trkpt lat="48.23186" lon="-2.87132">
        <ele>145.60000610352</ele>
        <time>2020-10-16T13:17:21.000Z</time>
      </trkpt>
      <trkpt lat="48.23186" lon="-2.87132">
        <ele>145.60000610352</ele>
        <time>2020-10-16T13:17:22.000Z</time>
      </trkpt>
      <trkpt lat="48.23188" lon="-2.87126">
        <ele>145.39999389648</ele>
        <time>2020-10-16T13:17:23.000Z</time>
      </trkpt>
      <trkpt lat="48.23188" lon="-2.87126">
        <ele>145.39999389648</ele>
        <time>2020-10-16T13:17:24.000Z</time>
      </trkpt>
      <trkpt lat="48.23191" lon="-2.87119">
        <ele>145.39999389648</ele>
        <time>2020-10-16T13:17:25.000Z</time>
      </trkpt>
      <trkpt lat="48.23191" lon="-2.87119">
        <ele>145.39999389648</ele>
        <time>2020-10-16T13:17:26.000Z</time>
      </trkpt>
      <trkpt lat="48.23195" lon="-2.87112">
        <ele>145.19999694824</ele>
        <time>2020-10-16T13:17:27.000Z</time>
      </trkpt>
      <trkpt lat="48.23195" lon="-2.87112">
        <ele>145.19999694824</ele>
        <time>2020-10-16T13:17:28.000Z</time>
      </trkpt>
      <trkpt lat="48.232" lon="-2.87106">
        <ele>145.39999389648</ele>
        <time>2020-10-16T13:17:29.000Z</time>
      </trkpt>
      <trkpt lat="48.232" lon="-2.87106">
        <ele>145.39999389648</ele>
        <time>2020-10-16T13:17:30.000Z</time>
      </trkpt>
      <trkpt lat="48.23202" lon="-2.87103">
        <ele>145.39999389648</ele>
        <time>2020-10-16T13:17:31.000Z</time>
      </trkpt>
      <trkpt lat="48.23206" lon="-2.87098">
        <ele>145.39999389648</ele>
        <time>2020-10-16T13:17:32.000Z</time>
      </trkpt>
      <trkpt lat="48.23206" lon="-2.87098">
        <ele>145.39999389648</ele>
        <time>2020-10-16T13:17:33.000Z</time>
      </trkpt>
      <trkpt lat="48.23211" lon="-2.87091">
        <ele>145.39999389648</ele>
        <time>2020-10-16T13:17:34.000Z</time>
      </trkpt>
      <trkpt lat="48.23211" lon="-2.87091">
        <ele>145.39999389648</ele>
        <time>2020-10-16T13:17:35.000Z</time>
      </trkpt>
      <trkpt lat="48.23215" lon="-2.87085">
        <ele>145.39999389648</ele>
        <time>2020-10-16T13:17:36.000Z</time>
      </trkpt>
      <trkpt lat="48.23215" lon="-2.87085">
        <ele>145.39999389648</ele>
        <time>2020-10-16T13:17:37.000Z</time>
      </trkpt>
      <trkpt lat="48.23218" lon="-2.87081">
        <ele>145.39999389648</ele>
        <time>2020-10-16T13:17:38.000Z</time>
      </trkpt>
      <trkpt lat="48.23222" lon="-2.87075">
        <ele>145.39999389648</ele>
        <time>2020-10-16T13:17:39.000Z</time>
      </trkpt>
      <trkpt lat="48.23222" lon="-2.87075">
        <ele>145.39999389648</ele>
        <time>2020-10-16T13:17:40.000Z</time>
      </trkpt>
      <trkpt lat="48.23226" lon="-2.87069">
        <ele>145.39999389648</ele>
        <time>2020-10-16T13:17:41.000Z</time>
      </trkpt>
      <trkpt lat="48.23226" lon="-2.87069">
        <ele>145.39999389648</ele>
        <time>2020-10-16T13:17:42.000Z</time>
      </trkpt>
      <trkpt lat="48.23231" lon="-2.87063">
        <ele>145.39999389648</ele>
        <time>2020-10-16T13:17:43.000Z</time>
      </trkpt>
      <trkpt lat="48.23231" lon="-2.87063">
        <ele>145.39999389648</ele>
        <time>2020-10-16T13:17:44.000Z</time>
      </trkpt>
      <trkpt lat="48.23236" lon="-2.87057">
        <ele>145.60000610352</ele>
        <time>2020-10-16T13:17:45.000Z</time>
      </trkpt>
      <trkpt lat="48.23236" lon="-2.87057">
        <ele>145.60000610352</ele>
        <time>2020-10-16T13:17:46.000Z</time>
      </trkpt>
      <trkpt lat="48.23242" lon="-2.87052">
        <ele>145.80000305176</ele>
        <time>2020-10-16T13:17:47.000Z</time>
      </trkpt>
      <trkpt lat="48.23242" lon="-2.87052">
        <ele>145.80000305176</ele>
        <time>2020-10-16T13:17:48.000Z</time>
      </trkpt>
      <trkpt lat="48.23245" lon="-2.87051">
        <ele>146</ele>
        <time>2020-10-16T13:17:49.000Z</time>
      </trkpt>
      <trkpt lat="48.23251" lon="-2.87049">
        <ele>146.19999694824</ele>
        <time>2020-10-16T13:17:50.000Z</time>
      </trkpt>
      <trkpt lat="48.23251" lon="-2.87049">
        <ele>146.19999694824</ele>
        <time>2020-10-16T13:17:51.000Z</time>
      </trkpt>
      <trkpt lat="48.23254" lon="-2.87048">
        <ele>146.39999389648</ele>
        <time>2020-10-16T13:17:52.000Z</time>
      </trkpt>
      <trkpt lat="48.23262" lon="-2.87047">
        <ele>147</ele>
        <time>2020-10-16T13:17:53.000Z</time>
      </trkpt>
      <trkpt lat="48.23262" lon="-2.87047">
        <ele>147</ele>
        <time>2020-10-16T13:17:54.000Z</time>
      </trkpt>
      <trkpt lat="48.2327" lon="-2.87044">
        <ele>146.80000305176</ele>
        <time>2020-10-16T13:17:55.000Z</time>
      </trkpt>
      <trkpt lat="48.2327" lon="-2.87044">
        <ele>146.80000305176</ele>
        <time>2020-10-16T13:17:56.000Z</time>
      </trkpt>
      <trkpt lat="48.23274" lon="-2.87043">
        <ele>146.60000610352</ele>
        <time>2020-10-16T13:17:57.000Z</time>
      </trkpt>
      <trkpt lat="48.23281" lon="-2.87041">
        <ele>146.39999389648</ele>
        <time>2020-10-16T13:17:58.000Z</time>
      </trkpt>
      <trkpt lat="48.23281" lon="-2.87041">
        <ele>146.39999389648</ele>
        <time>2020-10-16T13:17:59.000Z</time>
      </trkpt>
      <trkpt lat="48.23289" lon="-2.87041">
        <ele>146.39999389648</ele>
        <time>2020-10-16T13:18:00.000Z</time>
      </trkpt>
      <trkpt lat="48.23289" lon="-2.87041">
        <ele>146.39999389648</ele>
        <time>2020-10-16T13:18:01.000Z</time>
      </trkpt>
      <trkpt lat="48.23295" lon="-2.87043">
        <ele>146.39999389648</ele>
        <time>2020-10-16T13:18:02.000Z</time>
      </trkpt>
      <trkpt lat="48.23295" lon="-2.87043">
        <ele>146.39999389648</ele>
        <time>2020-10-16T13:18:03.000Z</time>
      </trkpt>
      <trkpt lat="48.23301" lon="-2.87046">
        <ele>146.39999389648</ele>
        <time>2020-10-16T13:18:04.000Z</time>
      </trkpt>
      <trkpt lat="48.23301" lon="-2.87046">
        <ele>146.39999389648</ele>
        <time>2020-10-16T13:18:05.000Z</time>
      </trkpt>
      <trkpt lat="48.23305" lon="-2.87047">
        <ele>146.39999389648</ele>
        <time>2020-10-16T13:18:06.000Z</time>
      </trkpt>
      <trkpt lat="48.2331" lon="-2.87049">
        <ele>146.60000610352</ele>
        <time>2020-10-16T13:18:07.000Z</time>
      </trkpt>
      <trkpt lat="48.2331" lon="-2.87049">
        <ele>146.60000610352</ele>
        <time>2020-10-16T13:18:08.000Z</time>
      </trkpt>
      <trkpt lat="48.23316" lon="-2.87052">
        <ele>146.80000305176</ele>
        <time>2020-10-16T13:18:09.000Z</time>
      </trkpt>
      <trkpt lat="48.23316" lon="-2.87052">
        <ele>146.80000305176</ele>
        <time>2020-10-16T13:18:10.000Z</time>
      </trkpt>
      <trkpt lat="48.23319" lon="-2.87053">
        <ele>146.80000305176</ele>
        <time>2020-10-16T13:18:11.000Z</time>
      </trkpt>
      <trkpt lat="48.23325" lon="-2.87056">
        <ele>147</ele>
        <time>2020-10-16T13:18:12.000Z</time>
      </trkpt>
      <trkpt lat="48.23325" lon="-2.87056">
        <ele>147</ele>
        <time>2020-10-16T13:18:13.000Z</time>
      </trkpt>
      <trkpt lat="48.23331" lon="-2.87059">
        <ele>147.19999694824</ele>
        <time>2020-10-16T13:18:14.000Z</time>
      </trkpt>
      <trkpt lat="48.23331" lon="-2.87059">
        <ele>147.19999694824</ele>
        <time>2020-10-16T13:18:15.000Z</time>
      </trkpt>
      <trkpt lat="48.23337" lon="-2.87061">
        <ele>147.19999694824</ele>
        <time>2020-10-16T13:18:16.000Z</time>
      </trkpt>
      <trkpt lat="48.23337" lon="-2.87061">
        <ele>147.19999694824</ele>
        <time>2020-10-16T13:18:17.000Z</time>
      </trkpt>
      <trkpt lat="48.2334" lon="-2.87061">
        <ele>147.39999389648</ele>
        <time>2020-10-16T13:18:18.000Z</time>
      </trkpt>
      <trkpt lat="48.23349" lon="-2.87065">
        <ele>147.60000610352</ele>
        <time>2020-10-16T13:18:19.000Z</time>
      </trkpt>
      <trkpt lat="48.23349" lon="-2.87065">
        <ele>147.60000610352</ele>
        <time>2020-10-16T13:18:20.000Z</time>
      </trkpt>
      <trkpt lat="48.23353" lon="-2.87067">
        <ele>147.60000610352</ele>
        <time>2020-10-16T13:18:21.000Z</time>
      </trkpt>
      <trkpt lat="48.23363" lon="-2.87069">
        <ele>147.80000305176</ele>
        <time>2020-10-16T13:18:22.000Z</time>
      </trkpt>
      <trkpt lat="48.23363" lon="-2.87069">
        <ele>147.80000305176</ele>
        <time>2020-10-16T13:18:23.000Z</time>
      </trkpt>
      <trkpt lat="48.23368" lon="-2.87069">
        <ele>147.80000305176</ele>
        <time>2020-10-16T13:18:24.000Z</time>
      </trkpt>
      <trkpt lat="48.23377" lon="-2.8707">
        <ele>148.39999389648</ele>
        <time>2020-10-16T13:18:25.000Z</time>
      </trkpt>
      <trkpt lat="48.23377" lon="-2.8707">
        <ele>148.39999389648</ele>
        <time>2020-10-16T13:18:26.000Z</time>
      </trkpt>
      <trkpt lat="48.23385" lon="-2.87068">
        <ele>148.60000610352</ele>
        <time>2020-10-16T13:18:27.000Z</time>
      </trkpt>
      <trkpt lat="48.23389" lon="-2.87067">
        <ele>148.80000305176</ele>
        <time>2020-10-16T13:18:28.000Z</time>
      </trkpt>
      <trkpt lat="48.23389" lon="-2.87067">
        <ele>148.80000305176</ele>
        <time>2020-10-16T13:18:29.000Z</time>
      </trkpt>
      <trkpt lat="48.23398" lon="-2.87065">
        <ele>148.80000305176</ele>
        <time>2020-10-16T13:18:30.000Z</time>
      </trkpt>
      <trkpt lat="48.23398" lon="-2.87065">
        <ele>148.80000305176</ele>
        <time>2020-10-16T13:18:31.000Z</time>
      </trkpt>
      <trkpt lat="48.23403" lon="-2.87063">
        <ele>149</ele>
        <time>2020-10-16T13:18:32.000Z</time>
      </trkpt>
      <trkpt lat="48.23412" lon="-2.8706">
        <ele>149</ele>
        <time>2020-10-16T13:18:33.000Z</time>
      </trkpt>
      <trkpt lat="48.23412" lon="-2.8706">
        <ele>149</ele>
        <time>2020-10-16T13:18:34.000Z</time>
      </trkpt>
      <trkpt lat="48.23421" lon="-2.87056">
        <ele>149</ele>
        <time>2020-10-16T13:18:35.000Z</time>
      </trkpt>
      <trkpt lat="48.23421" lon="-2.87056">
        <ele>149</ele>
        <time>2020-10-16T13:18:36.000Z</time>
      </trkpt>
      <trkpt lat="48.23426" lon="-2.87054">
        <ele>149</ele>
        <time>2020-10-16T13:18:37.000Z</time>
      </trkpt>
      <trkpt lat="48.23434" lon="-2.87051">
        <ele>149</ele>
        <time>2020-10-16T13:18:38.000Z</time>
      </trkpt>
      <trkpt lat="48.23434" lon="-2.87051">
        <ele>149</ele>
        <time>2020-10-16T13:18:39.000Z</time>
      </trkpt>
      <trkpt lat="48.23442" lon="-2.87048">
        <ele>149</ele>
        <time>2020-10-16T13:18:40.000Z</time>
      </trkpt>
      <trkpt lat="48.23442" lon="-2.87048">
        <ele>149</ele>
        <time>2020-10-16T13:18:41.000Z</time>
      </trkpt>
      <trkpt lat="48.2345" lon="-2.87044">
        <ele>148.80000305176</ele>
        <time>2020-10-16T13:18:42.000Z</time>
      </trkpt>
      <trkpt lat="48.2345" lon="-2.87044">
        <ele>148.80000305176</ele>
        <time>2020-10-16T13:18:43.000Z</time>
      </trkpt>
      <trkpt lat="48.23454" lon="-2.87042">
        <ele>148.80000305176</ele>
        <time>2020-10-16T13:18:44.000Z</time>
      </trkpt>
      <trkpt lat="48.23462" lon="-2.87039">
        <ele>148.80000305176</ele>
        <time>2020-10-16T13:18:45.000Z</time>
      </trkpt>
      <trkpt lat="48.23462" lon="-2.87039">
        <ele>148.80000305176</ele>
        <time>2020-10-16T13:18:46.000Z</time>
      </trkpt>
      <trkpt lat="48.2347" lon="-2.87037">
        <ele>148.80000305176</ele>
        <time>2020-10-16T13:18:47.000Z</time>
      </trkpt>
      <trkpt lat="48.23474" lon="-2.87035">
        <ele>148.80000305176</ele>
        <time>2020-10-16T13:18:48.000Z</time>
      </trkpt>
      <trkpt lat="48.23474" lon="-2.87035">
        <ele>148.80000305176</ele>
        <time>2020-10-16T13:18:49.000Z</time>
      </trkpt>
      <trkpt lat="48.23481" lon="-2.87034">
        <ele>149</ele>
        <time>2020-10-16T13:18:50.000Z</time>
      </trkpt>
      <trkpt lat="48.23481" lon="-2.87034">
        <ele>149</ele>
        <time>2020-10-16T13:18:51.000Z</time>
      </trkpt>
      <trkpt lat="48.23484" lon="-2.87034">
        <ele>149</ele>
        <time>2020-10-16T13:18:52.000Z</time>
      </trkpt>
      <trkpt lat="48.23492" lon="-2.87034">
        <ele>149.60000610352</ele>
        <time>2020-10-16T13:18:53.000Z</time>
      </trkpt>
      <trkpt lat="48.23492" lon="-2.87034">
        <ele>149.60000610352</ele>
        <time>2020-10-16T13:18:54.000Z</time>
      </trkpt>
      <trkpt lat="48.235" lon="-2.87035">
        <ele>150.19999694824</ele>
        <time>2020-10-16T13:18:55.000Z</time>
      </trkpt>
      <trkpt lat="48.235" lon="-2.87035">
        <ele>150.19999694824</ele>
        <time>2020-10-16T13:18:56.000Z</time>
      </trkpt>
      <trkpt lat="48.23503" lon="-2.87036">
        <ele>150.60000610352</ele>
        <time>2020-10-16T13:18:57.000Z</time>
      </trkpt>
      <trkpt lat="48.23511" lon="-2.87037">
        <ele>151.39999389648</ele>
        <time>2020-10-16T13:18:58.000Z</time>
      </trkpt>
      <trkpt lat="48.23511" lon="-2.87037">
        <ele>151.39999389648</ele>
        <time>2020-10-16T13:18:59.000Z</time>
      </trkpt>
      <trkpt lat="48.23515" lon="-2.87036">
        <ele>151.39999389648</ele>
        <time>2020-10-16T13:19:00.000Z</time>
      </trkpt>
      <trkpt lat="48.23519" lon="-2.87036">
        <ele>151.19999694824</ele>
        <time>2020-10-16T13:19:01.000Z</time>
      </trkpt>
      <trkpt lat="48.23526" lon="-2.87036">
        <ele>151.19999694824</ele>
        <time>2020-10-16T13:19:02.000Z</time>
      </trkpt>
      <trkpt lat="48.23526" lon="-2.87036">
        <ele>151.19999694824</ele>
        <time>2020-10-16T13:19:03.000Z</time>
      </trkpt>
      <trkpt lat="48.23533" lon="-2.87037">
        <ele>151.60000610352</ele>
        <time>2020-10-16T13:19:04.000Z</time>
      </trkpt>
      <trkpt lat="48.23533" lon="-2.87037">
        <ele>151.60000610352</ele>
        <time>2020-10-16T13:19:05.000Z</time>
      </trkpt>
      <trkpt lat="48.23536" lon="-2.87038">
        <ele>151.60000610352</ele>
        <time>2020-10-16T13:19:06.000Z</time>
      </trkpt>
      <trkpt lat="48.23543" lon="-2.87038">
        <ele>151.60000610352</ele>
        <time>2020-10-16T13:19:07.000Z</time>
      </trkpt>
      <trkpt lat="48.23543" lon="-2.87038">
        <ele>151.60000610352</ele>
        <time>2020-10-16T13:19:08.000Z</time>
      </trkpt>
      <trkpt lat="48.23552" lon="-2.87038">
        <ele>151.60000610352</ele>
        <time>2020-10-16T13:19:09.000Z</time>
      </trkpt>
      <trkpt lat="48.23552" lon="-2.87038">
        <ele>151.60000610352</ele>
        <time>2020-10-16T13:19:10.000Z</time>
      </trkpt>
      <trkpt lat="48.23556" lon="-2.87038">
        <ele>151.60000610352</ele>
        <time>2020-10-16T13:19:11.000Z</time>
      </trkpt>
      <trkpt lat="48.23564" lon="-2.87041">
        <ele>152</ele>
        <time>2020-10-16T13:19:12.000Z</time>
      </trkpt>
      <trkpt lat="48.23564" lon="-2.87041">
        <ele>152</ele>
        <time>2020-10-16T13:19:13.000Z</time>
      </trkpt>
      <trkpt lat="48.23571" lon="-2.87045">
        <ele>152.19999694824</ele>
        <time>2020-10-16T13:19:14.000Z</time>
      </trkpt>
      <trkpt lat="48.23571" lon="-2.87045">
        <ele>152.19999694824</ele>
        <time>2020-10-16T13:19:15.000Z</time>
      </trkpt>
      <trkpt lat="48.23578" lon="-2.87049">
        <ele>152.60000610352</ele>
        <time>2020-10-16T13:19:16.000Z</time>
      </trkpt>
      <trkpt lat="48.23578" lon="-2.87049">
        <ele>152.60000610352</ele>
        <time>2020-10-16T13:19:17.000Z</time>
      </trkpt>
      <trkpt lat="48.23583" lon="-2.87055">
        <ele>153.19999694824</ele>
        <time>2020-10-16T13:19:18.000Z</time>
      </trkpt>
      <trkpt lat="48.23583" lon="-2.87055">
        <ele>153.19999694824</ele>
        <time>2020-10-16T13:19:19.000Z</time>
      </trkpt>
      <trkpt lat="48.23588" lon="-2.8706">
        <ele>153.60000610352</ele>
        <time>2020-10-16T13:19:20.000Z</time>
      </trkpt>
      <trkpt lat="48.23588" lon="-2.8706">
        <ele>153.60000610352</ele>
        <time>2020-10-16T13:19:21.000Z</time>
      </trkpt>
      <trkpt lat="48.23594" lon="-2.87066">
        <ele>154.19999694824</ele>
        <time>2020-10-16T13:19:22.000Z</time>
      </trkpt>
      <trkpt lat="48.23594" lon="-2.87066">
        <ele>154.19999694824</ele>
        <time>2020-10-16T13:19:23.000Z</time>
      </trkpt>
      <trkpt lat="48.23597" lon="-2.87071">
        <ele>154.60000610352</ele>
        <time>2020-10-16T13:19:24.000Z</time>
      </trkpt>
      <trkpt lat="48.23602" lon="-2.87079">
        <ele>154.80000305176</ele>
        <time>2020-10-16T13:19:25.000Z</time>
      </trkpt>
      <trkpt lat="48.23602" lon="-2.87079">
        <ele>154.80000305176</ele>
        <time>2020-10-16T13:19:26.000Z</time>
      </trkpt>
      <trkpt lat="48.23606" lon="-2.87087">
        <ele>154.80000305176</ele>
        <time>2020-10-16T13:19:27.000Z</time>
      </trkpt>
      <trkpt lat="48.23606" lon="-2.87087">
        <ele>154.80000305176</ele>
        <time>2020-10-16T13:19:28.000Z</time>
      </trkpt>
      <trkpt lat="48.23609" lon="-2.87092">
        <ele>154.80000305176</ele>
        <time>2020-10-16T13:19:29.000Z</time>
      </trkpt>
      <trkpt lat="48.23611" lon="-2.87096">
        <ele>154.80000305176</ele>
        <time>2020-10-16T13:19:30.000Z</time>
      </trkpt>
      <trkpt lat="48.23613" lon="-2.87101">
        <ele>155</ele>
        <time>2020-10-16T13:19:31.000Z</time>
      </trkpt>
      <trkpt lat="48.23615" lon="-2.8711">
        <ele>155.39999389648</ele>
        <time>2020-10-16T13:19:32.000Z</time>
      </trkpt>
      <trkpt lat="48.23615" lon="-2.8711">
        <ele>155.39999389648</ele>
        <time>2020-10-16T13:19:33.000Z</time>
      </trkpt>
      <trkpt lat="48.23616" lon="-2.87115">
        <ele>155.80000305176</ele>
        <time>2020-10-16T13:19:34.000Z</time>
      </trkpt>
      <trkpt lat="48.23618" lon="-2.87125">
        <ele>156.39999389648</ele>
        <time>2020-10-16T13:19:35.000Z</time>
      </trkpt>
      <trkpt lat="48.23618" lon="-2.87125">
        <ele>156.39999389648</ele>
        <time>2020-10-16T13:19:36.000Z</time>
      </trkpt>
      <trkpt lat="48.23619" lon="-2.87129">
        <ele>156.60000610352</ele>
        <time>2020-10-16T13:19:37.000Z</time>
      </trkpt>
      <trkpt lat="48.23621" lon="-2.87139">
        <ele>157.19999694824</ele>
        <time>2020-10-16T13:19:38.000Z</time>
      </trkpt>
      <trkpt lat="48.23621" lon="-2.87139">
        <ele>157.19999694824</ele>
        <time>2020-10-16T13:19:39.000Z</time>
      </trkpt>
      <trkpt lat="48.23623" lon="-2.87149">
        <ele>157.80000305176</ele>
        <time>2020-10-16T13:19:40.000Z</time>
      </trkpt>
      <trkpt lat="48.23623" lon="-2.87149">
        <ele>157.80000305176</ele>
        <time>2020-10-16T13:19:41.000Z</time>
      </trkpt>
      <trkpt lat="48.23624" lon="-2.87159">
        <ele>157.80000305176</ele>
        <time>2020-10-16T13:19:42.000Z</time>
      </trkpt>
      <trkpt lat="48.23624" lon="-2.87159">
        <ele>157.80000305176</ele>
        <time>2020-10-16T13:19:43.000Z</time>
      </trkpt>
      <trkpt lat="48.23626" lon="-2.87168">
        <ele>157.80000305176</ele>
        <time>2020-10-16T13:19:44.000Z</time>
      </trkpt>
      <trkpt lat="48.23626" lon="-2.87168">
        <ele>157.80000305176</ele>
        <time>2020-10-16T13:19:45.000Z</time>
      </trkpt>
      <trkpt lat="48.23627" lon="-2.87178">
        <ele>158.19999694824</ele>
        <time>2020-10-16T13:19:46.000Z</time>
      </trkpt>
      <trkpt lat="48.23627" lon="-2.87183">
        <ele>158.60000610352</ele>
        <time>2020-10-16T13:19:47.000Z</time>
      </trkpt>
      <trkpt lat="48.23627" lon="-2.87183">
        <ele>158.60000610352</ele>
        <time>2020-10-16T13:19:48.000Z</time>
      </trkpt>
      <trkpt lat="48.23627" lon="-2.87191">
        <ele>159.19999694824</ele>
        <time>2020-10-16T13:19:49.000Z</time>
      </trkpt>
      <trkpt lat="48.23627" lon="-2.87191">
        <ele>159.19999694824</ele>
        <time>2020-10-16T13:19:50.000Z</time>
      </trkpt>
      <trkpt lat="48.23628" lon="-2.87198">
        <ele>159.39999389648</ele>
        <time>2020-10-16T13:19:51.000Z</time>
      </trkpt>
      <trkpt lat="48.23628" lon="-2.87198">
        <ele>159.39999389648</ele>
        <time>2020-10-16T13:19:52.000Z</time>
      </trkpt>
      <trkpt lat="48.2363" lon="-2.87203">
        <ele>159.19999694824</ele>
        <time>2020-10-16T13:19:53.000Z</time>
      </trkpt>
      <trkpt lat="48.2363" lon="-2.87203">
        <ele>159.19999694824</ele>
        <time>2020-10-16T13:19:54.000Z</time>
      </trkpt>
      <trkpt lat="48.23633" lon="-2.87206">
        <ele>158.80000305176</ele>
        <time>2020-10-16T13:19:55.000Z</time>
      </trkpt>
      <trkpt lat="48.23633" lon="-2.87206">
        <ele>158.80000305176</ele>
        <time>2020-10-16T13:19:56.000Z</time>
      </trkpt>
      <trkpt lat="48.23635" lon="-2.87208">
        <ele>158.60000610352</ele>
        <time>2020-10-16T13:19:57.000Z</time>
      </trkpt>
      <trkpt lat="48.23636" lon="-2.87208">
        <ele>158.19999694824</ele>
        <time>2020-10-16T13:19:58.000Z</time>
      </trkpt>
      <trkpt lat="48.23639" lon="-2.87209">
        <ele>157.80000305176</ele>
        <time>2020-10-16T13:19:59.000Z</time>
      </trkpt>
      <trkpt lat="48.23639" lon="-2.87209">
        <ele>157.80000305176</ele>
        <time>2020-10-16T13:20:00.000Z</time>
      </trkpt>
      <trkpt lat="48.23642" lon="-2.87212">
        <ele>157.19999694824</ele>
        <time>2020-10-16T13:20:01.000Z</time>
      </trkpt>
      <trkpt lat="48.23642" lon="-2.87212">
        <ele>157.19999694824</ele>
        <time>2020-10-16T13:20:02.000Z</time>
      </trkpt>
      <trkpt lat="48.23649" lon="-2.87215">
        <ele>156</ele>
        <time>2020-10-16T13:20:03.000Z</time>
      </trkpt>
      <trkpt lat="48.23649" lon="-2.87215">
        <ele>156</ele>
        <time>2020-10-16T13:20:04.000Z</time>
      </trkpt>
      <trkpt lat="48.23656" lon="-2.87219">
        <ele>154.80000305176</ele>
        <time>2020-10-16T13:20:05.000Z</time>
      </trkpt>
      <trkpt lat="48.2366" lon="-2.87221">
        <ele>154</ele>
        <time>2020-10-16T13:20:06.000Z</time>
      </trkpt>
      <trkpt lat="48.2366" lon="-2.87221">
        <ele>154</ele>
        <time>2020-10-16T13:20:07.000Z</time>
      </trkpt>
      <trkpt lat="48.23668" lon="-2.87226">
        <ele>152.80000305176</ele>
        <time>2020-10-16T13:20:08.000Z</time>
      </trkpt>
      <trkpt lat="48.23668" lon="-2.87226">
        <ele>152.80000305176</ele>
        <time>2020-10-16T13:20:09.000Z</time>
      </trkpt>
      <trkpt lat="48.23676" lon="-2.87231">
        <ele>151.60000610352</ele>
        <time>2020-10-16T13:20:10.000Z</time>
      </trkpt>
      <trkpt lat="48.23676" lon="-2.87231">
        <ele>151.60000610352</ele>
        <time>2020-10-16T13:20:11.000Z</time>
      </trkpt>
      <trkpt lat="48.23684" lon="-2.87236">
        <ele>150.80000305176</ele>
        <time>2020-10-16T13:20:12.000Z</time>
      </trkpt>
      <trkpt lat="48.23684" lon="-2.87236">
        <ele>150.80000305176</ele>
        <time>2020-10-16T13:20:13.000Z</time>
      </trkpt>
      <trkpt lat="48.23692" lon="-2.87241">
        <ele>150.39999389648</ele>
        <time>2020-10-16T13:20:14.000Z</time>
      </trkpt>
      <trkpt lat="48.23692" lon="-2.87241">
        <ele>150.39999389648</ele>
        <time>2020-10-16T13:20:15.000Z</time>
      </trkpt>
      <trkpt lat="48.23696" lon="-2.87243">
        <ele>150</ele>
        <time>2020-10-16T13:20:16.000Z</time>
      </trkpt>
      <trkpt lat="48.23699" lon="-2.87245">
        <ele>149.60000610352</ele>
        <time>2020-10-16T13:20:17.000Z</time>
      </trkpt>
      <trkpt lat="48.23706" lon="-2.87251">
        <ele>148.60000610352</ele>
        <time>2020-10-16T13:20:18.000Z</time>
      </trkpt>
      <trkpt lat="48.23706" lon="-2.87251">
        <ele>148.60000610352</ele>
        <time>2020-10-16T13:20:19.000Z</time>
      </trkpt>
      <trkpt lat="48.23713" lon="-2.87258">
        <ele>147.80000305176</ele>
        <time>2020-10-16T13:20:20.000Z</time>
      </trkpt>
      <trkpt lat="48.23713" lon="-2.87258">
        <ele>147.80000305176</ele>
        <time>2020-10-16T13:20:21.000Z</time>
      </trkpt>
      <trkpt lat="48.23719" lon="-2.87265">
        <ele>147</ele>
        <time>2020-10-16T13:20:22.000Z</time>
      </trkpt>
      <trkpt lat="48.23719" lon="-2.87265">
        <ele>147</ele>
        <time>2020-10-16T13:20:23.000Z</time>
      </trkpt>
      <trkpt lat="48.23724" lon="-2.87276">
        <ele>146.39999389648</ele>
        <time>2020-10-16T13:20:24.000Z</time>
      </trkpt>
      <trkpt lat="48.23724" lon="-2.87276">
        <ele>146.39999389648</ele>
        <time>2020-10-16T13:20:25.000Z</time>
      </trkpt>
      <trkpt lat="48.23728" lon="-2.87288">
        <ele>146.19999694824</ele>
        <time>2020-10-16T13:20:26.000Z</time>
      </trkpt>
      <trkpt lat="48.23728" lon="-2.87288">
        <ele>146.19999694824</ele>
        <time>2020-10-16T13:20:27.000Z</time>
      </trkpt>
      <trkpt lat="48.23731" lon="-2.87301">
        <ele>146</ele>
        <time>2020-10-16T13:20:28.000Z</time>
      </trkpt>
      <trkpt lat="48.23731" lon="-2.87301">
        <ele>146</ele>
        <time>2020-10-16T13:20:29.000Z</time>
      </trkpt>
      <trkpt lat="48.23734" lon="-2.87312">
        <ele>145.80000305176</ele>
        <time>2020-10-16T13:20:30.000Z</time>
      </trkpt>
      <trkpt lat="48.23734" lon="-2.87312">
        <ele>145.80000305176</ele>
        <time>2020-10-16T13:20:31.000Z</time>
      </trkpt>
      <trkpt lat="48.23736" lon="-2.87323">
        <ele>145.80000305176</ele>
        <time>2020-10-16T13:20:32.000Z</time>
      </trkpt>
      <trkpt lat="48.23736" lon="-2.87323">
        <ele>145.80000305176</ele>
        <time>2020-10-16T13:20:33.000Z</time>
      </trkpt>
      <trkpt lat="48.23738" lon="-2.87334">
        <ele>145.60000610352</ele>
        <time>2020-10-16T13:20:34.000Z</time>
      </trkpt>
      <trkpt lat="48.23738" lon="-2.87334">
        <ele>145.60000610352</ele>
        <time>2020-10-16T13:20:35.000Z</time>
      </trkpt>
      <trkpt lat="48.2374" lon="-2.87346">
        <ele>145.80000305176</ele>
        <time>2020-10-16T13:20:36.000Z</time>
      </trkpt>
      <trkpt lat="48.2374" lon="-2.87346">
        <ele>145.80000305176</ele>
        <time>2020-10-16T13:20:37.000Z</time>
      </trkpt>
      <trkpt lat="48.23742" lon="-2.87357">
        <ele>146</ele>
        <time>2020-10-16T13:20:38.000Z</time>
      </trkpt>
      <trkpt lat="48.23742" lon="-2.87357">
        <ele>146</ele>
        <time>2020-10-16T13:20:39.000Z</time>
      </trkpt>
      <trkpt lat="48.23744" lon="-2.87369">
        <ele>146</ele>
        <time>2020-10-16T13:20:40.000Z</time>
      </trkpt>
      <trkpt lat="48.23744" lon="-2.87369">
        <ele>146</ele>
        <time>2020-10-16T13:20:41.000Z</time>
      </trkpt>
      <trkpt lat="48.23746" lon="-2.8738">
        <ele>145.80000305176</ele>
        <time>2020-10-16T13:20:42.000Z</time>
      </trkpt>
      <trkpt lat="48.23746" lon="-2.8738">
        <ele>145.80000305176</ele>
        <time>2020-10-16T13:20:43.000Z</time>
      </trkpt>
      <trkpt lat="48.23749" lon="-2.87389">
        <ele>145.60000610352</ele>
        <time>2020-10-16T13:20:44.000Z</time>
      </trkpt>
      <trkpt lat="48.23749" lon="-2.87389">
        <ele>145.60000610352</ele>
        <time>2020-10-16T13:20:45.000Z</time>
      </trkpt>
      <trkpt lat="48.23751" lon="-2.87399">
        <ele>145.39999389648</ele>
        <time>2020-10-16T13:20:46.000Z</time>
      </trkpt>
      <trkpt lat="48.23751" lon="-2.87399">
        <ele>145.39999389648</ele>
        <time>2020-10-16T13:20:47.000Z</time>
      </trkpt>
      <trkpt lat="48.23754" lon="-2.87408">
        <ele>145.19999694824</ele>
        <time>2020-10-16T13:20:48.000Z</time>
      </trkpt>
      <trkpt lat="48.23754" lon="-2.87408">
        <ele>145.19999694824</ele>
        <time>2020-10-16T13:20:49.000Z</time>
      </trkpt>
      <trkpt lat="48.23757" lon="-2.87418">
        <ele>145</ele>
        <time>2020-10-16T13:20:50.000Z</time>
      </trkpt>
      <trkpt lat="48.23757" lon="-2.87418">
        <ele>145</ele>
        <time>2020-10-16T13:20:51.000Z</time>
      </trkpt>
      <trkpt lat="48.23759" lon="-2.87429">
        <ele>144.80000305176</ele>
        <time>2020-10-16T13:20:52.000Z</time>
      </trkpt>
      <trkpt lat="48.23759" lon="-2.87429">
        <ele>144.80000305176</ele>
        <time>2020-10-16T13:20:53.000Z</time>
      </trkpt>
      <trkpt lat="48.23763" lon="-2.87439">
        <ele>144.39999389648</ele>
        <time>2020-10-16T13:20:54.000Z</time>
      </trkpt>
      <trkpt lat="48.23763" lon="-2.87439">
        <ele>144.39999389648</ele>
        <time>2020-10-16T13:20:55.000Z</time>
      </trkpt>
      <trkpt lat="48.23765" lon="-2.87448">
        <ele>144.39999389648</ele>
        <time>2020-10-16T13:20:56.000Z</time>
      </trkpt>
      <trkpt lat="48.23765" lon="-2.87448">
        <ele>144.39999389648</ele>
        <time>2020-10-16T13:20:57.000Z</time>
      </trkpt>
      <trkpt lat="48.23769" lon="-2.87456">
        <ele>144.39999389648</ele>
        <time>2020-10-16T13:20:58.000Z</time>
      </trkpt>
      <trkpt lat="48.23769" lon="-2.87456">
        <ele>144.39999389648</ele>
        <time>2020-10-16T13:20:59.000Z</time>
      </trkpt>
      <trkpt lat="48.2377" lon="-2.87459">
        <ele>144.19999694824</ele>
        <time>2020-10-16T13:21:00.000Z</time>
      </trkpt>
      <trkpt lat="48.23772" lon="-2.87463">
        <ele>144.19999694824</ele>
        <time>2020-10-16T13:21:01.000Z</time>
      </trkpt>
      <trkpt lat="48.23775" lon="-2.87472">
        <ele>144.19999694824</ele>
        <time>2020-10-16T13:21:02.000Z</time>
      </trkpt>
      <trkpt lat="48.23775" lon="-2.87472">
        <ele>144.19999694824</ele>
        <time>2020-10-16T13:21:03.000Z</time>
      </trkpt>
      <trkpt lat="48.23777" lon="-2.87483">
        <ele>144.39999389648</ele>
        <time>2020-10-16T13:21:04.000Z</time>
      </trkpt>
      <trkpt lat="48.23777" lon="-2.87489">
        <ele>144.60000610352</ele>
        <time>2020-10-16T13:21:05.000Z</time>
      </trkpt>
      <trkpt lat="48.23777" lon="-2.87489">
        <ele>144.60000610352</ele>
        <time>2020-10-16T13:21:06.000Z</time>
      </trkpt>
      <trkpt lat="48.23779" lon="-2.87501">
        <ele>145.39999389648</ele>
        <time>2020-10-16T13:21:07.000Z</time>
      </trkpt>
      <trkpt lat="48.23779" lon="-2.87501">
        <ele>145.39999389648</ele>
        <time>2020-10-16T13:21:08.000Z</time>
      </trkpt>
      <trkpt lat="48.2378" lon="-2.87513">
        <ele>146</ele>
        <time>2020-10-16T13:21:09.000Z</time>
      </trkpt>
      <trkpt lat="48.2378" lon="-2.87513">
        <ele>146</ele>
        <time>2020-10-16T13:21:10.000Z</time>
      </trkpt>
      <trkpt lat="48.2378" lon="-2.87526">
        <ele>146.19999694824</ele>
        <time>2020-10-16T13:21:11.000Z</time>
      </trkpt>
      <trkpt lat="48.2378" lon="-2.87526">
        <ele>146.19999694824</ele>
        <time>2020-10-16T13:21:12.000Z</time>
      </trkpt>
      <trkpt lat="48.23781" lon="-2.87538">
        <ele>146.60000610352</ele>
        <time>2020-10-16T13:21:13.000Z</time>
      </trkpt>
      <trkpt lat="48.23781" lon="-2.87538">
        <ele>146.60000610352</ele>
        <time>2020-10-16T13:21:14.000Z</time>
      </trkpt>
      <trkpt lat="48.23783" lon="-2.8755">
        <ele>146.80000305176</ele>
        <time>2020-10-16T13:21:15.000Z</time>
      </trkpt>
      <trkpt lat="48.23783" lon="-2.8755">
        <ele>146.80000305176</ele>
        <time>2020-10-16T13:21:16.000Z</time>
      </trkpt>
      <trkpt lat="48.23788" lon="-2.87561">
        <ele>147</ele>
        <time>2020-10-16T13:21:17.000Z</time>
      </trkpt>
      <trkpt lat="48.23788" lon="-2.87561">
        <ele>147</ele>
        <time>2020-10-16T13:21:18.000Z</time>
      </trkpt>
      <trkpt lat="48.23795" lon="-2.87569">
        <ele>147</ele>
        <time>2020-10-16T13:21:19.000Z</time>
      </trkpt>
      <trkpt lat="48.23795" lon="-2.87569">
        <ele>147</ele>
        <time>2020-10-16T13:21:20.000Z</time>
      </trkpt>
      <trkpt lat="48.23802" lon="-2.87574">
        <ele>146.80000305176</ele>
        <time>2020-10-16T13:21:21.000Z</time>
      </trkpt>
      <trkpt lat="48.23802" lon="-2.87574">
        <ele>146.80000305176</ele>
        <time>2020-10-16T13:21:22.000Z</time>
      </trkpt>
      <trkpt lat="48.23809" lon="-2.87576">
        <ele>146.80000305176</ele>
        <time>2020-10-16T13:21:23.000Z</time>
      </trkpt>
      <trkpt lat="48.23809" lon="-2.87576">
        <ele>146.80000305176</ele>
        <time>2020-10-16T13:21:24.000Z</time>
      </trkpt>
      <trkpt lat="48.23817" lon="-2.87573">
        <ele>146.39999389648</ele>
        <time>2020-10-16T13:21:25.000Z</time>
      </trkpt>
      <trkpt lat="48.23817" lon="-2.87573">
        <ele>146.39999389648</ele>
        <time>2020-10-16T13:21:26.000Z</time>
      </trkpt>
      <trkpt lat="48.23823" lon="-2.87566">
        <ele>146.19999694824</ele>
        <time>2020-10-16T13:21:27.000Z</time>
      </trkpt>
      <trkpt lat="48.23823" lon="-2.87566">
        <ele>146.19999694824</ele>
        <time>2020-10-16T13:21:28.000Z</time>
      </trkpt>
      <trkpt lat="48.23828" lon="-2.87557">
        <ele>146</ele>
        <time>2020-10-16T13:21:29.000Z</time>
      </trkpt>
      <trkpt lat="48.23828" lon="-2.87557">
        <ele>146</ele>
        <time>2020-10-16T13:21:30.000Z</time>
      </trkpt>
      <trkpt lat="48.23834" lon="-2.87548">
        <ele>145.80000305176</ele>
        <time>2020-10-16T13:21:31.000Z</time>
      </trkpt>
      <trkpt lat="48.23834" lon="-2.87548">
        <ele>145.80000305176</ele>
        <time>2020-10-16T13:21:32.000Z</time>
      </trkpt>
      <trkpt lat="48.23838" lon="-2.87538">
        <ele>145.60000610352</ele>
        <time>2020-10-16T13:21:33.000Z</time>
      </trkpt>
      <trkpt lat="48.23838" lon="-2.87538">
        <ele>145.60000610352</ele>
        <time>2020-10-16T13:21:34.000Z</time>
      </trkpt>
      <trkpt lat="48.23845" lon="-2.87529">
        <ele>145.19999694824</ele>
        <time>2020-10-16T13:21:35.000Z</time>
      </trkpt>
      <trkpt lat="48.23845" lon="-2.87529">
        <ele>145.19999694824</ele>
        <time>2020-10-16T13:21:36.000Z</time>
      </trkpt>
      <trkpt lat="48.23852" lon="-2.87523">
        <ele>145.19999694824</ele>
        <time>2020-10-16T13:21:37.000Z</time>
      </trkpt>
      <trkpt lat="48.23852" lon="-2.87523">
        <ele>145.19999694824</ele>
        <time>2020-10-16T13:21:38.000Z</time>
      </trkpt>
      <trkpt lat="48.2386" lon="-2.87518">
        <ele>145</ele>
        <time>2020-10-16T13:21:39.000Z</time>
      </trkpt>
      <trkpt lat="48.2386" lon="-2.87518">
        <ele>145</ele>
        <time>2020-10-16T13:21:40.000Z</time>
      </trkpt>
      <trkpt lat="48.23869" lon="-2.87514">
        <ele>144.80000305176</ele>
        <time>2020-10-16T13:21:41.000Z</time>
      </trkpt>
      <trkpt lat="48.23869" lon="-2.87514">
        <ele>144.80000305176</ele>
        <time>2020-10-16T13:21:42.000Z</time>
      </trkpt>
      <trkpt lat="48.23877" lon="-2.8751">
        <ele>144.60000610352</ele>
        <time>2020-10-16T13:21:43.000Z</time>
      </trkpt>
      <trkpt lat="48.23877" lon="-2.8751">
        <ele>144.60000610352</ele>
        <time>2020-10-16T13:21:44.000Z</time>
      </trkpt>
      <trkpt lat="48.23886" lon="-2.87507">
        <ele>144.60000610352</ele>
        <time>2020-10-16T13:21:45.000Z</time>
      </trkpt>
      <trkpt lat="48.23886" lon="-2.87507">
        <ele>144.60000610352</ele>
        <time>2020-10-16T13:21:46.000Z</time>
      </trkpt>
      <trkpt lat="48.23895" lon="-2.87507">
        <ele>144.39999389648</ele>
        <time>2020-10-16T13:21:47.000Z</time>
      </trkpt>
      <trkpt lat="48.23895" lon="-2.87507">
        <ele>144.39999389648</ele>
        <time>2020-10-16T13:21:48.000Z</time>
      </trkpt>
      <trkpt lat="48.23904" lon="-2.87506">
        <ele>144.39999389648</ele>
        <time>2020-10-16T13:21:49.000Z</time>
      </trkpt>
      <trkpt lat="48.23904" lon="-2.87506">
        <ele>144.39999389648</ele>
        <time>2020-10-16T13:21:50.000Z</time>
      </trkpt>
      <trkpt lat="48.23912" lon="-2.87507">
        <ele>144.19999694824</ele>
        <time>2020-10-16T13:21:51.000Z</time>
      </trkpt>
      <trkpt lat="48.23912" lon="-2.87507">
        <ele>144.19999694824</ele>
        <time>2020-10-16T13:21:52.000Z</time>
      </trkpt>
      <trkpt lat="48.23921" lon="-2.87508">
        <ele>144.19999694824</ele>
        <time>2020-10-16T13:21:53.000Z</time>
      </trkpt>
      <trkpt lat="48.23921" lon="-2.87508">
        <ele>144.19999694824</ele>
        <time>2020-10-16T13:21:54.000Z</time>
      </trkpt>
      <trkpt lat="48.2393" lon="-2.87508">
        <ele>144</ele>
        <time>2020-10-16T13:21:55.000Z</time>
      </trkpt>
      <trkpt lat="48.2393" lon="-2.87508">
        <ele>144</ele>
        <time>2020-10-16T13:21:56.000Z</time>
      </trkpt>
      <trkpt lat="48.2394" lon="-2.87509">
        <ele>144.19999694824</ele>
        <time>2020-10-16T13:21:57.000Z</time>
      </trkpt>
      <trkpt lat="48.2394" lon="-2.87509">
        <ele>144.19999694824</ele>
        <time>2020-10-16T13:21:58.000Z</time>
      </trkpt>
      <trkpt lat="48.23944" lon="-2.8751">
        <ele>144.19999694824</ele>
        <time>2020-10-16T13:21:59.000Z</time>
      </trkpt>
      <trkpt lat="48.23948" lon="-2.87512">
        <ele>144.19999694824</ele>
        <time>2020-10-16T13:22:00.000Z</time>
      </trkpt>
      <trkpt lat="48.23952" lon="-2.87514">
        <ele>144.19999694824</ele>
        <time>2020-10-16T13:22:01.000Z</time>
      </trkpt>
      <trkpt lat="48.23959" lon="-2.87521">
        <ele>144.60000610352</ele>
        <time>2020-10-16T13:22:02.000Z</time>
      </trkpt>
      <trkpt lat="48.23959" lon="-2.87521">
        <ele>144.60000610352</ele>
        <time>2020-10-16T13:22:03.000Z</time>
      </trkpt>
      <trkpt lat="48.23965" lon="-2.87529">
        <ele>144.80000305176</ele>
        <time>2020-10-16T13:22:04.000Z</time>
      </trkpt>
      <trkpt lat="48.23968" lon="-2.87533">
        <ele>145</ele>
        <time>2020-10-16T13:22:05.000Z</time>
      </trkpt>
      <trkpt lat="48.23968" lon="-2.87533">
        <ele>145</ele>
        <time>2020-10-16T13:22:06.000Z</time>
      </trkpt>
      <trkpt lat="48.23973" lon="-2.87542">
        <ele>145.19999694824</ele>
        <time>2020-10-16T13:22:07.000Z</time>
      </trkpt>
      <trkpt lat="48.23973" lon="-2.87542">
        <ele>145.19999694824</ele>
        <time>2020-10-16T13:22:08.000Z</time>
      </trkpt>
      <trkpt lat="48.23979" lon="-2.8755">
        <ele>145.60000610352</ele>
        <time>2020-10-16T13:22:09.000Z</time>
      </trkpt>
      <trkpt lat="48.23979" lon="-2.8755">
        <ele>145.60000610352</ele>
        <time>2020-10-16T13:22:10.000Z</time>
      </trkpt>
      <trkpt lat="48.23984" lon="-2.87558">
        <ele>145.80000305176</ele>
        <time>2020-10-16T13:22:11.000Z</time>
      </trkpt>
      <trkpt lat="48.23984" lon="-2.87558">
        <ele>145.80000305176</ele>
        <time>2020-10-16T13:22:12.000Z</time>
      </trkpt>
      <trkpt lat="48.2399" lon="-2.87566">
        <ele>146.19999694824</ele>
        <time>2020-10-16T13:22:13.000Z</time>
      </trkpt>
      <trkpt lat="48.2399" lon="-2.87566">
        <ele>146.19999694824</ele>
        <time>2020-10-16T13:22:14.000Z</time>
      </trkpt>
      <trkpt lat="48.23996" lon="-2.8757">
        <ele>146.19999694824</ele>
        <time>2020-10-16T13:22:15.000Z</time>
      </trkpt>
      <trkpt lat="48.23996" lon="-2.8757">
        <ele>146.19999694824</ele>
        <time>2020-10-16T13:22:16.000Z</time>
      </trkpt>
      <trkpt lat="48.23999" lon="-2.8757">
        <ele>146.39999389648</ele>
        <time>2020-10-16T13:22:17.000Z</time>
      </trkpt>
      <trkpt lat="48.24003" lon="-2.8757">
        <ele>146.19999694824</ele>
        <time>2020-10-16T13:22:18.000Z</time>
      </trkpt>
      <trkpt lat="48.2401" lon="-2.87566">
        <ele>146.19999694824</ele>
        <time>2020-10-16T13:22:19.000Z</time>
      </trkpt>
      <trkpt lat="48.2401" lon="-2.87566">
        <ele>146.19999694824</ele>
        <time>2020-10-16T13:22:20.000Z</time>
      </trkpt>
      <trkpt lat="48.24015" lon="-2.87561">
        <ele>146</ele>
        <time>2020-10-16T13:22:21.000Z</time>
      </trkpt>
      <trkpt lat="48.24015" lon="-2.87561">
        <ele>146</ele>
        <time>2020-10-16T13:22:22.000Z</time>
      </trkpt>
      <trkpt lat="48.24021" lon="-2.87555">
        <ele>146</ele>
        <time>2020-10-16T13:22:23.000Z</time>
      </trkpt>
      <trkpt lat="48.24023" lon="-2.87551">
        <ele>146</ele>
        <time>2020-10-16T13:22:24.000Z</time>
      </trkpt>
      <trkpt lat="48.24023" lon="-2.87551">
        <ele>146</ele>
        <time>2020-10-16T13:22:25.000Z</time>
      </trkpt>
      <trkpt lat="48.24028" lon="-2.87546">
        <ele>146</ele>
        <time>2020-10-16T13:22:26.000Z</time>
      </trkpt>
      <trkpt lat="48.24028" lon="-2.87546">
        <ele>146</ele>
        <time>2020-10-16T13:22:27.000Z</time>
      </trkpt>
      <trkpt lat="48.24032" lon="-2.87541">
        <ele>146</ele>
        <time>2020-10-16T13:22:28.000Z</time>
      </trkpt>
      <trkpt lat="48.24032" lon="-2.87541">
        <ele>146</ele>
        <time>2020-10-16T13:22:29.000Z</time>
      </trkpt>
      <trkpt lat="48.24036" lon="-2.87537">
        <ele>146</ele>
        <time>2020-10-16T13:22:30.000Z</time>
      </trkpt>
      <trkpt lat="48.24036" lon="-2.87537">
        <ele>146</ele>
        <time>2020-10-16T13:22:31.000Z</time>
      </trkpt>
      <trkpt lat="48.24041" lon="-2.87531">
        <ele>146</ele>
        <time>2020-10-16T13:22:32.000Z</time>
      </trkpt>
      <trkpt lat="48.24041" lon="-2.87531">
        <ele>146</ele>
        <time>2020-10-16T13:22:33.000Z</time>
      </trkpt>
      <trkpt lat="48.24045" lon="-2.87524">
        <ele>145.80000305176</ele>
        <time>2020-10-16T13:22:34.000Z</time>
      </trkpt>
      <trkpt lat="48.24045" lon="-2.87524">
        <ele>145.80000305176</ele>
        <time>2020-10-16T13:22:35.000Z</time>
      </trkpt>
      <trkpt lat="48.24051" lon="-2.87516">
        <ele>145.80000305176</ele>
        <time>2020-10-16T13:22:36.000Z</time>
      </trkpt>
      <trkpt lat="48.24051" lon="-2.87516">
        <ele>145.80000305176</ele>
        <time>2020-10-16T13:22:37.000Z</time>
      </trkpt>
      <trkpt lat="48.24056" lon="-2.87507">
        <ele>145.60000610352</ele>
        <time>2020-10-16T13:22:38.000Z</time>
      </trkpt>
      <trkpt lat="48.24056" lon="-2.87507">
        <ele>145.60000610352</ele>
        <time>2020-10-16T13:22:39.000Z</time>
      </trkpt>
      <trkpt lat="48.24063" lon="-2.87501">
        <ele>145.60000610352</ele>
        <time>2020-10-16T13:22:40.000Z</time>
      </trkpt>
      <trkpt lat="48.24063" lon="-2.87501">
        <ele>145.60000610352</ele>
        <time>2020-10-16T13:22:41.000Z</time>
      </trkpt>
      <trkpt lat="48.24069" lon="-2.87498">
        <ele>145.60000610352</ele>
        <time>2020-10-16T13:22:42.000Z</time>
      </trkpt>
      <trkpt lat="48.24069" lon="-2.87498">
        <ele>145.60000610352</ele>
        <time>2020-10-16T13:22:43.000Z</time>
      </trkpt>
      <trkpt lat="48.24075" lon="-2.87499">
        <ele>146</ele>
        <time>2020-10-16T13:22:44.000Z</time>
      </trkpt>
      <trkpt lat="48.24075" lon="-2.87499">
        <ele>146</ele>
        <time>2020-10-16T13:22:45.000Z</time>
      </trkpt>
      <trkpt lat="48.2408" lon="-2.87502">
        <ele>146.19999694824</ele>
        <time>2020-10-16T13:22:46.000Z</time>
      </trkpt>
      <trkpt lat="48.2408" lon="-2.87502">
        <ele>146.19999694824</ele>
        <time>2020-10-16T13:22:47.000Z</time>
      </trkpt>
      <trkpt lat="48.24083" lon="-2.87503">
        <ele>146.39999389648</ele>
        <time>2020-10-16T13:22:48.000Z</time>
      </trkpt>
      <trkpt lat="48.24086" lon="-2.87502">
        <ele>146.39999389648</ele>
        <time>2020-10-16T13:22:49.000Z</time>
      </trkpt>
      <trkpt lat="48.24092" lon="-2.875">
        <ele>146.60000610352</ele>
        <time>2020-10-16T13:22:50.000Z</time>
      </trkpt>
      <trkpt lat="48.24092" lon="-2.875">
        <ele>146.60000610352</ele>
        <time>2020-10-16T13:22:51.000Z</time>
      </trkpt>
      <trkpt lat="48.24098" lon="-2.87495">
        <ele>146.60000610352</ele>
        <time>2020-10-16T13:22:52.000Z</time>
      </trkpt>
      <trkpt lat="48.24098" lon="-2.87495">
        <ele>146.60000610352</ele>
        <time>2020-10-16T13:22:53.000Z</time>
      </trkpt>
      <trkpt lat="48.24103" lon="-2.87489">
        <ele>146.39999389648</ele>
        <time>2020-10-16T13:22:54.000Z</time>
      </trkpt>
      <trkpt lat="48.24103" lon="-2.87489">
        <ele>146.39999389648</ele>
        <time>2020-10-16T13:22:55.000Z</time>
      </trkpt>
      <trkpt lat="48.24108" lon="-2.87484">
        <ele>146.19999694824</ele>
        <time>2020-10-16T13:22:56.000Z</time>
      </trkpt>
      <trkpt lat="48.24108" lon="-2.87484">
        <ele>146.19999694824</ele>
        <time>2020-10-16T13:22:57.000Z</time>
      </trkpt>
      <trkpt lat="48.24114" lon="-2.87478">
        <ele>146</ele>
        <time>2020-10-16T13:22:58.000Z</time>
      </trkpt>
      <trkpt lat="48.24114" lon="-2.87478">
        <ele>146</ele>
        <time>2020-10-16T13:22:59.000Z</time>
      </trkpt>
      <trkpt lat="48.24117" lon="-2.87476">
        <ele>146</ele>
        <time>2020-10-16T13:23:00.000Z</time>
      </trkpt>
      <trkpt lat="48.2412" lon="-2.87473">
        <ele>146</ele>
        <time>2020-10-16T13:23:01.000Z</time>
      </trkpt>
      <trkpt lat="48.24128" lon="-2.87469">
        <ele>146</ele>
        <time>2020-10-16T13:23:02.000Z</time>
      </trkpt>
      <trkpt lat="48.24128" lon="-2.87469">
        <ele>146</ele>
        <time>2020-10-16T13:23:03.000Z</time>
      </trkpt>
      <trkpt lat="48.24135" lon="-2.87466">
        <ele>146</ele>
        <time>2020-10-16T13:23:04.000Z</time>
      </trkpt>
      <trkpt lat="48.24135" lon="-2.87466">
        <ele>146</ele>
        <time>2020-10-16T13:23:05.000Z</time>
      </trkpt>
      <trkpt lat="48.24144" lon="-2.87463">
        <ele>146</ele>
        <time>2020-10-16T13:23:06.000Z</time>
      </trkpt>
      <trkpt lat="48.24144" lon="-2.87463">
        <ele>146</ele>
        <time>2020-10-16T13:23:07.000Z</time>
      </trkpt>
      <trkpt lat="48.24152" lon="-2.87462">
        <ele>146</ele>
        <time>2020-10-16T13:23:08.000Z</time>
      </trkpt>
      <trkpt lat="48.24152" lon="-2.87462">
        <ele>146</ele>
        <time>2020-10-16T13:23:09.000Z</time>
      </trkpt>
      <trkpt lat="48.2416" lon="-2.87461">
        <ele>146.19999694824</ele>
        <time>2020-10-16T13:23:10.000Z</time>
      </trkpt>
      <trkpt lat="48.2416" lon="-2.87461">
        <ele>146.19999694824</ele>
        <time>2020-10-16T13:23:11.000Z</time>
      </trkpt>
      <trkpt lat="48.24167" lon="-2.87459">
        <ele>146.19999694824</ele>
        <time>2020-10-16T13:23:12.000Z</time>
      </trkpt>
      <trkpt lat="48.24167" lon="-2.87459">
        <ele>146.19999694824</ele>
        <time>2020-10-16T13:23:13.000Z</time>
      </trkpt>
      <trkpt lat="48.24175" lon="-2.87456">
        <ele>146.19999694824</ele>
        <time>2020-10-16T13:23:14.000Z</time>
      </trkpt>
      <trkpt lat="48.24175" lon="-2.87456">
        <ele>146.19999694824</ele>
        <time>2020-10-16T13:23:15.000Z</time>
      </trkpt>
      <trkpt lat="48.24182" lon="-2.8745">
        <ele>146</ele>
        <time>2020-10-16T13:23:16.000Z</time>
      </trkpt>
      <trkpt lat="48.24182" lon="-2.8745">
        <ele>146</ele>
        <time>2020-10-16T13:23:17.000Z</time>
      </trkpt>
      <trkpt lat="48.24185" lon="-2.87446">
        <ele>146</ele>
        <time>2020-10-16T13:23:18.000Z</time>
      </trkpt>
      <trkpt lat="48.24191" lon="-2.87437">
        <ele>145.60000610352</ele>
        <time>2020-10-16T13:23:19.000Z</time>
      </trkpt>
      <trkpt lat="48.24191" lon="-2.87437">
        <ele>145.60000610352</ele>
        <time>2020-10-16T13:23:20.000Z</time>
      </trkpt>
      <trkpt lat="48.24194" lon="-2.87428">
        <ele>145.39999389648</ele>
        <time>2020-10-16T13:23:21.000Z</time>
      </trkpt>
      <trkpt lat="48.24194" lon="-2.87428">
        <ele>145.39999389648</ele>
        <time>2020-10-16T13:23:22.000Z</time>
      </trkpt>
      <trkpt lat="48.24197" lon="-2.87421">
        <ele>145.19999694824</ele>
        <time>2020-10-16T13:23:23.000Z</time>
      </trkpt>
      <trkpt lat="48.24197" lon="-2.87421">
        <ele>145.19999694824</ele>
        <time>2020-10-16T13:23:24.000Z</time>
      </trkpt>
      <trkpt lat="48.24199" lon="-2.87413">
        <ele>145.19999694824</ele>
        <time>2020-10-16T13:23:25.000Z</time>
      </trkpt>
      <trkpt lat="48.24199" lon="-2.87413">
        <ele>145.19999694824</ele>
        <time>2020-10-16T13:23:26.000Z</time>
      </trkpt>
      <trkpt lat="48.24201" lon="-2.87405">
        <ele>145.19999694824</ele>
        <time>2020-10-16T13:23:27.000Z</time>
      </trkpt>
      <trkpt lat="48.24201" lon="-2.87405">
        <ele>145.19999694824</ele>
        <time>2020-10-16T13:23:28.000Z</time>
      </trkpt>
      <trkpt lat="48.24204" lon="-2.87397">
        <ele>145.19999694824</ele>
        <time>2020-10-16T13:23:29.000Z</time>
      </trkpt>
      <trkpt lat="48.24204" lon="-2.87397">
        <ele>145.19999694824</ele>
        <time>2020-10-16T13:23:30.000Z</time>
      </trkpt>
      <trkpt lat="48.24206" lon="-2.8739">
        <ele>145</ele>
        <time>2020-10-16T13:23:31.000Z</time>
      </trkpt>
      <trkpt lat="48.24206" lon="-2.8739">
        <ele>145</ele>
        <time>2020-10-16T13:23:32.000Z</time>
      </trkpt>
      <trkpt lat="48.24207" lon="-2.8738">
        <ele>144.60000610352</ele>
        <time>2020-10-16T13:23:33.000Z</time>
      </trkpt>
      <trkpt lat="48.24207" lon="-2.8738">
        <ele>144.60000610352</ele>
        <time>2020-10-16T13:23:34.000Z</time>
      </trkpt>
      <trkpt lat="48.24211" lon="-2.87367">
        <ele>144.19999694824</ele>
        <time>2020-10-16T13:23:35.000Z</time>
      </trkpt>
      <trkpt lat="48.24211" lon="-2.87367">
        <ele>144.19999694824</ele>
        <time>2020-10-16T13:23:36.000Z</time>
      </trkpt>
      <trkpt lat="48.24216" lon="-2.87357">
        <ele>144</ele>
        <time>2020-10-16T13:23:37.000Z</time>
      </trkpt>
      <trkpt lat="48.24216" lon="-2.87357">
        <ele>144</ele>
        <time>2020-10-16T13:23:38.000Z</time>
      </trkpt>
      <trkpt lat="48.24223" lon="-2.87346">
        <ele>144</ele>
        <time>2020-10-16T13:23:39.000Z</time>
      </trkpt>
      <trkpt lat="48.24223" lon="-2.87346">
        <ele>144</ele>
        <time>2020-10-16T13:23:40.000Z</time>
      </trkpt>
      <trkpt lat="48.2423" lon="-2.87337">
        <ele>144</ele>
        <time>2020-10-16T13:23:41.000Z</time>
      </trkpt>
      <trkpt lat="48.2423" lon="-2.87337">
        <ele>144</ele>
        <time>2020-10-16T13:23:42.000Z</time>
      </trkpt>
      <trkpt lat="48.24237" lon="-2.87328">
        <ele>144</ele>
        <time>2020-10-16T13:23:43.000Z</time>
      </trkpt>
      <trkpt lat="48.24237" lon="-2.87328">
        <ele>144</ele>
        <time>2020-10-16T13:23:44.000Z</time>
      </trkpt>
      <trkpt lat="48.24245" lon="-2.8732">
        <ele>144.19999694824</ele>
        <time>2020-10-16T13:23:45.000Z</time>
      </trkpt>
      <trkpt lat="48.24245" lon="-2.8732">
        <ele>144.19999694824</ele>
        <time>2020-10-16T13:23:46.000Z</time>
      </trkpt>
      <trkpt lat="48.24252" lon="-2.87313">
        <ele>144.39999389648</ele>
        <time>2020-10-16T13:23:47.000Z</time>
      </trkpt>
      <trkpt lat="48.24252" lon="-2.87313">
        <ele>144.39999389648</ele>
        <time>2020-10-16T13:23:48.000Z</time>
      </trkpt>
      <trkpt lat="48.2426" lon="-2.87306">
        <ele>144.60000610352</ele>
        <time>2020-10-16T13:23:49.000Z</time>
      </trkpt>
      <trkpt lat="48.2426" lon="-2.87306">
        <ele>144.60000610352</ele>
        <time>2020-10-16T13:23:50.000Z</time>
      </trkpt>
      <trkpt lat="48.24268" lon="-2.87301">
        <ele>144.80000305176</ele>
        <time>2020-10-16T13:23:51.000Z</time>
      </trkpt>
      <trkpt lat="48.24268" lon="-2.87301">
        <ele>144.80000305176</ele>
        <time>2020-10-16T13:23:52.000Z</time>
      </trkpt>
      <trkpt lat="48.24277" lon="-2.87298">
        <ele>145.19999694824</ele>
        <time>2020-10-16T13:23:53.000Z</time>
      </trkpt>
      <trkpt lat="48.24277" lon="-2.87298">
        <ele>145.19999694824</ele>
        <time>2020-10-16T13:23:54.000Z</time>
      </trkpt>
      <trkpt lat="48.24285" lon="-2.87293">
        <ele>145.39999389648</ele>
        <time>2020-10-16T13:23:55.000Z</time>
      </trkpt>
      <trkpt lat="48.24285" lon="-2.87293">
        <ele>145.39999389648</ele>
        <time>2020-10-16T13:23:56.000Z</time>
      </trkpt>
      <trkpt lat="48.24293" lon="-2.87288">
        <ele>145.60000610352</ele>
        <time>2020-10-16T13:23:57.000Z</time>
      </trkpt>
      <trkpt lat="48.24293" lon="-2.87288">
        <ele>145.60000610352</ele>
        <time>2020-10-16T13:23:58.000Z</time>
      </trkpt>
      <trkpt lat="48.24302" lon="-2.87282">
        <ele>145.80000305176</ele>
        <time>2020-10-16T13:23:59.000Z</time>
      </trkpt>
      <trkpt lat="48.24305" lon="-2.87278">
        <ele>145.80000305176</ele>
        <time>2020-10-16T13:24:00.000Z</time>
      </trkpt>
      <trkpt lat="48.24308" lon="-2.87274">
        <ele>145.80000305176</ele>
        <time>2020-10-16T13:24:01.000Z</time>
      </trkpt>
      <trkpt lat="48.24311" lon="-2.87269">
        <ele>145.80000305176</ele>
        <time>2020-10-16T13:24:02.000Z</time>
      </trkpt>
      <trkpt lat="48.24311" lon="-2.87269">
        <ele>145.80000305176</ele>
        <time>2020-10-16T13:24:03.000Z</time>
      </trkpt>
      <trkpt lat="48.24314" lon="-2.87264">
        <ele>145.80000305176</ele>
        <time>2020-10-16T13:24:04.000Z</time>
      </trkpt>
      <trkpt lat="48.2432" lon="-2.87254">
        <ele>145.60000610352</ele>
        <time>2020-10-16T13:24:05.000Z</time>
      </trkpt>
      <trkpt lat="48.2432" lon="-2.87254">
        <ele>145.60000610352</ele>
        <time>2020-10-16T13:24:06.000Z</time>
      </trkpt>
      <trkpt lat="48.24326" lon="-2.87245">
        <ele>145.19999694824</ele>
        <time>2020-10-16T13:24:07.000Z</time>
      </trkpt>
      <trkpt lat="48.24326" lon="-2.87245">
        <ele>145.19999694824</ele>
        <time>2020-10-16T13:24:08.000Z</time>
      </trkpt>
      <trkpt lat="48.24332" lon="-2.8724">
        <ele>145.19999694824</ele>
        <time>2020-10-16T13:24:09.000Z</time>
      </trkpt>
      <trkpt lat="48.24332" lon="-2.8724">
        <ele>145.19999694824</ele>
        <time>2020-10-16T13:24:10.000Z</time>
      </trkpt>
      <trkpt lat="48.24339" lon="-2.87238">
        <ele>145.39999389648</ele>
        <time>2020-10-16T13:24:11.000Z</time>
      </trkpt>
      <trkpt lat="48.24339" lon="-2.87238">
        <ele>145.39999389648</ele>
        <time>2020-10-16T13:24:12.000Z</time>
      </trkpt>
      <trkpt lat="48.24346" lon="-2.87238">
        <ele>145.60000610352</ele>
        <time>2020-10-16T13:24:13.000Z</time>
      </trkpt>
      <trkpt lat="48.24346" lon="-2.87238">
        <ele>145.60000610352</ele>
        <time>2020-10-16T13:24:14.000Z</time>
      </trkpt>
      <trkpt lat="48.24351" lon="-2.87238">
        <ele>145.80000305176</ele>
        <time>2020-10-16T13:24:15.000Z</time>
      </trkpt>
      <trkpt lat="48.24351" lon="-2.87238">
        <ele>145.80000305176</ele>
        <time>2020-10-16T13:24:16.000Z</time>
      </trkpt>
      <trkpt lat="48.24356" lon="-2.87237">
        <ele>145.80000305176</ele>
        <time>2020-10-16T13:24:17.000Z</time>
      </trkpt>
      <trkpt lat="48.24356" lon="-2.87237">
        <ele>145.80000305176</ele>
        <time>2020-10-16T13:24:18.000Z</time>
      </trkpt>
      <trkpt lat="48.24358" lon="-2.87238">
        <ele>145.80000305176</ele>
        <time>2020-10-16T13:24:19.000Z</time>
      </trkpt>
      <trkpt lat="48.24361" lon="-2.87238">
        <ele>145.80000305176</ele>
        <time>2020-10-16T13:24:20.000Z</time>
      </trkpt>
      <trkpt lat="48.24361" lon="-2.87238">
        <ele>145.80000305176</ele>
        <time>2020-10-16T13:24:21.000Z</time>
      </trkpt>
      <trkpt lat="48.24364" lon="-2.87237">
        <ele>145.80000305176</ele>
        <time>2020-10-16T13:24:22.000Z</time>
      </trkpt>
      <trkpt lat="48.24364" lon="-2.87237">
        <ele>145.80000305176</ele>
        <time>2020-10-16T13:24:23.000Z</time>
      </trkpt>
      <trkpt lat="48.24367" lon="-2.87237">
        <ele>145.80000305176</ele>
        <time>2020-10-16T13:24:24.000Z</time>
      </trkpt>
      <trkpt lat="48.24367" lon="-2.87237">
        <ele>145.80000305176</ele>
        <time>2020-10-16T13:24:25.000Z</time>
      </trkpt>
      <trkpt lat="48.2437" lon="-2.87236">
        <ele>145.80000305176</ele>
        <time>2020-10-16T13:24:26.000Z</time>
      </trkpt>
      <trkpt lat="48.2437" lon="-2.87236">
        <ele>145.80000305176</ele>
        <time>2020-10-16T13:24:27.000Z</time>
      </trkpt>
      <trkpt lat="48.24374" lon="-2.87234">
        <ele>145.80000305176</ele>
        <time>2020-10-16T13:24:28.000Z</time>
      </trkpt>
      <trkpt lat="48.24374" lon="-2.87234">
        <ele>145.80000305176</ele>
        <time>2020-10-16T13:24:29.000Z</time>
      </trkpt>
      <trkpt lat="48.24378" lon="-2.87232">
        <ele>145.60000610352</ele>
        <time>2020-10-16T13:24:30.000Z</time>
      </trkpt>
      <trkpt lat="48.24378" lon="-2.87232">
        <ele>145.60000610352</ele>
        <time>2020-10-16T13:24:31.000Z</time>
      </trkpt>
      <trkpt lat="48.24382" lon="-2.87229">
        <ele>145.60000610352</ele>
        <time>2020-10-16T13:24:32.000Z</time>
      </trkpt>
      <trkpt lat="48.24382" lon="-2.87229">
        <ele>145.60000610352</ele>
        <time>2020-10-16T13:24:33.000Z</time>
      </trkpt>
      <trkpt lat="48.24386" lon="-2.87227">
        <ele>145.39999389648</ele>
        <time>2020-10-16T13:24:34.000Z</time>
      </trkpt>
      <trkpt lat="48.24386" lon="-2.87227">
        <ele>145.39999389648</ele>
        <time>2020-10-16T13:24:35.000Z</time>
      </trkpt>
      <trkpt lat="48.24391" lon="-2.87225">
        <ele>145.39999389648</ele>
        <time>2020-10-16T13:24:36.000Z</time>
      </trkpt>
      <trkpt lat="48.24391" lon="-2.87225">
        <ele>145.39999389648</ele>
        <time>2020-10-16T13:24:37.000Z</time>
      </trkpt>
      <trkpt lat="48.24395" lon="-2.87225">
        <ele>145.39999389648</ele>
        <time>2020-10-16T13:24:38.000Z</time>
      </trkpt>
      <trkpt lat="48.24403" lon="-2.87226">
        <ele>145.60000610352</ele>
        <time>2020-10-16T13:24:39.000Z</time>
      </trkpt>
      <trkpt lat="48.24403" lon="-2.87226">
        <ele>145.60000610352</ele>
        <time>2020-10-16T13:24:40.000Z</time>
      </trkpt>
      <trkpt lat="48.24411" lon="-2.87226">
        <ele>145.60000610352</ele>
        <time>2020-10-16T13:24:41.000Z</time>
      </trkpt>
      <trkpt lat="48.24415" lon="-2.87225">
        <ele>145.60000610352</ele>
        <time>2020-10-16T13:24:42.000Z</time>
      </trkpt>
      <trkpt lat="48.24415" lon="-2.87225">
        <ele>145.60000610352</ele>
        <time>2020-10-16T13:24:43.000Z</time>
      </trkpt>
      <trkpt lat="48.24423" lon="-2.87225">
        <ele>145.60000610352</ele>
        <time>2020-10-16T13:24:44.000Z</time>
      </trkpt>
      <trkpt lat="48.24423" lon="-2.87225">
        <ele>145.60000610352</ele>
        <time>2020-10-16T13:24:45.000Z</time>
      </trkpt>
      <trkpt lat="48.24432" lon="-2.87224">
        <ele>145.80000305176</ele>
        <time>2020-10-16T13:24:46.000Z</time>
      </trkpt>
      <trkpt lat="48.24432" lon="-2.87224">
        <ele>145.80000305176</ele>
        <time>2020-10-16T13:24:47.000Z</time>
      </trkpt>
      <trkpt lat="48.24436" lon="-2.87224">
        <ele>145.80000305176</ele>
        <time>2020-10-16T13:24:48.000Z</time>
      </trkpt>
      <trkpt lat="48.2444" lon="-2.87224">
        <ele>146</ele>
        <time>2020-10-16T13:24:49.000Z</time>
      </trkpt>
      <trkpt lat="48.24448" lon="-2.87225">
        <ele>146.19999694824</ele>
        <time>2020-10-16T13:24:50.000Z</time>
      </trkpt>
      <trkpt lat="48.24448" lon="-2.87225">
        <ele>146.19999694824</ele>
        <time>2020-10-16T13:24:51.000Z</time>
      </trkpt>
      <trkpt lat="48.24457" lon="-2.87227">
        <ele>146.60000610352</ele>
        <time>2020-10-16T13:24:52.000Z</time>
      </trkpt>
      <trkpt lat="48.24457" lon="-2.87227">
        <ele>146.60000610352</ele>
        <time>2020-10-16T13:24:53.000Z</time>
      </trkpt>
      <trkpt lat="48.24465" lon="-2.87229">
        <ele>146.60000610352</ele>
        <time>2020-10-16T13:24:54.000Z</time>
      </trkpt>
      <trkpt lat="48.24465" lon="-2.87229">
        <ele>146.60000610352</ele>
        <time>2020-10-16T13:24:55.000Z</time>
      </trkpt>
      <trkpt lat="48.24473" lon="-2.87231">
        <ele>146.60000610352</ele>
        <time>2020-10-16T13:24:56.000Z</time>
      </trkpt>
      <trkpt lat="48.24473" lon="-2.87231">
        <ele>146.60000610352</ele>
        <time>2020-10-16T13:24:57.000Z</time>
      </trkpt>
      <trkpt lat="48.24482" lon="-2.87233">
        <ele>146.60000610352</ele>
        <time>2020-10-16T13:24:58.000Z</time>
      </trkpt>
      <trkpt lat="48.24482" lon="-2.87233">
        <ele>146.60000610352</ele>
        <time>2020-10-16T13:24:59.000Z</time>
      </trkpt>
      <trkpt lat="48.24486" lon="-2.87234">
        <ele>146.60000610352</ele>
        <time>2020-10-16T13:25:00.000Z</time>
      </trkpt>
      <trkpt lat="48.24494" lon="-2.87236">
        <ele>146.39999389648</ele>
        <time>2020-10-16T13:25:01.000Z</time>
      </trkpt>
      <trkpt lat="48.24494" lon="-2.87236">
        <ele>146.39999389648</ele>
        <time>2020-10-16T13:25:02.000Z</time>
      </trkpt>
      <trkpt lat="48.24502" lon="-2.87236">
        <ele>146.39999389648</ele>
        <time>2020-10-16T13:25:03.000Z</time>
      </trkpt>
      <trkpt lat="48.24502" lon="-2.87236">
        <ele>146.39999389648</ele>
        <time>2020-10-16T13:25:04.000Z</time>
      </trkpt>
      <trkpt lat="48.24507" lon="-2.87235">
        <ele>146.39999389648</ele>
        <time>2020-10-16T13:25:05.000Z</time>
      </trkpt>
      <trkpt lat="48.24515" lon="-2.87231">
        <ele>146.19999694824</ele>
        <time>2020-10-16T13:25:06.000Z</time>
      </trkpt>
      <trkpt lat="48.24515" lon="-2.87231">
        <ele>146.19999694824</ele>
        <time>2020-10-16T13:25:07.000Z</time>
      </trkpt>
      <trkpt lat="48.24519" lon="-2.87228">
        <ele>146</ele>
        <time>2020-10-16T13:25:08.000Z</time>
      </trkpt>
      <trkpt lat="48.24525" lon="-2.87221">
        <ele>146</ele>
        <time>2020-10-16T13:25:09.000Z</time>
      </trkpt>
      <trkpt lat="48.24525" lon="-2.87221">
        <ele>146</ele>
        <time>2020-10-16T13:25:10.000Z</time>
      </trkpt>
      <trkpt lat="48.24531" lon="-2.87215">
        <ele>145.80000305176</ele>
        <time>2020-10-16T13:25:11.000Z</time>
      </trkpt>
      <trkpt lat="48.24531" lon="-2.87215">
        <ele>145.80000305176</ele>
        <time>2020-10-16T13:25:12.000Z</time>
      </trkpt>
      <trkpt lat="48.24537" lon="-2.87207">
        <ele>145.60000610352</ele>
        <time>2020-10-16T13:25:13.000Z</time>
      </trkpt>
      <trkpt lat="48.24537" lon="-2.87207">
        <ele>145.60000610352</ele>
        <time>2020-10-16T13:25:14.000Z</time>
      </trkpt>
      <trkpt lat="48.24542" lon="-2.87199">
        <ele>145.19999694824</ele>
        <time>2020-10-16T13:25:15.000Z</time>
      </trkpt>
      <trkpt lat="48.24542" lon="-2.87199">
        <ele>145.19999694824</ele>
        <time>2020-10-16T13:25:16.000Z</time>
      </trkpt>
      <trkpt lat="48.24547" lon="-2.87191">
        <ele>145</ele>
        <time>2020-10-16T13:25:17.000Z</time>
      </trkpt>
      <trkpt lat="48.24547" lon="-2.87191">
        <ele>145</ele>
        <time>2020-10-16T13:25:18.000Z</time>
      </trkpt>
      <trkpt lat="48.24551" lon="-2.87186">
        <ele>145</ele>
        <time>2020-10-16T13:25:19.000Z</time>
      </trkpt>
      <trkpt lat="48.24551" lon="-2.87186">
        <ele>145</ele>
        <time>2020-10-16T13:25:20.000Z</time>
      </trkpt>
      <trkpt lat="48.24552" lon="-2.87184">
        <ele>144.80000305176</ele>
        <time>2020-10-16T13:25:21.000Z</time>
      </trkpt>
      <trkpt lat="48.24554" lon="-2.87182">
        <ele>144.80000305176</ele>
        <time>2020-10-16T13:25:22.000Z</time>
      </trkpt>
      <trkpt lat="48.24554" lon="-2.87182">
        <ele>144.80000305176</ele>
        <time>2020-10-16T13:25:23.000Z</time>
      </trkpt>
      <trkpt lat="48.24555" lon="-2.87181">
        <ele>144.80000305176</ele>
        <time>2020-10-16T13:25:24.000Z</time>
      </trkpt>
      <trkpt lat="48.24555" lon="-2.87181">
        <ele>144.80000305176</ele>
        <time>2020-10-16T13:25:25.000Z</time>
      </trkpt>
      <trkpt lat="48.24555" lon="-2.87181">
        <ele>144.80000305176</ele>
        <time>2020-10-16T13:25:26.000Z</time>
      </trkpt>
      <trkpt lat="48.24555" lon="-2.87181">
        <ele>144.80000305176</ele>
        <time>2020-10-16T13:25:27.000Z</time>
      </trkpt>
      <trkpt lat="48.24555" lon="-2.87181">
        <ele>144.80000305176</ele>
        <time>2020-10-16T13:25:28.000Z</time>
      </trkpt>
      <trkpt lat="48.24555" lon="-2.87181">
        <ele>144.80000305176</ele>
        <time>2020-10-16T13:25:29.000Z</time>
      </trkpt>
      <trkpt lat="48.24554" lon="-2.87181">
        <ele>144.80000305176</ele>
        <time>2020-10-16T13:25:30.000Z</time>
      </trkpt>
      <trkpt lat="48.24554" lon="-2.87181">
        <ele>144.80000305176</ele>
        <time>2020-10-16T13:25:31.000Z</time>
      </trkpt>
      <trkpt lat="48.24554" lon="-2.87182">
        <ele>144.80000305176</ele>
        <time>2020-10-16T13:25:32.000Z</time>
      </trkpt>
      <trkpt lat="48.24554" lon="-2.87182">
        <ele>144.80000305176</ele>
        <time>2020-10-16T13:25:33.000Z</time>
      </trkpt>
      <trkpt lat="48.24554" lon="-2.87181">
        <ele>144.80000305176</ele>
        <time>2020-10-16T13:25:34.000Z</time>
      </trkpt>
      <trkpt lat="48.24554" lon="-2.87181">
        <ele>144.80000305176</ele>
        <time>2020-10-16T13:25:35.000Z</time>
      </trkpt>
      <trkpt lat="48.24554" lon="-2.87181">
        <ele>144.80000305176</ele>
        <time>2020-10-16T13:25:36.000Z</time>
      </trkpt>
      <trkpt lat="48.24554" lon="-2.87181">
        <ele>144.80000305176</ele>
        <time>2020-10-16T13:25:37.000Z</time>
      </trkpt>
      <trkpt lat="48.24554" lon="-2.87181">
        <ele>144.80000305176</ele>
        <time>2020-10-16T13:25:38.000Z</time>
      </trkpt>
      <trkpt lat="48.24554" lon="-2.87181">
        <ele>144.80000305176</ele>
        <time>2020-10-16T13:25:39.000Z</time>
      </trkpt>
      <trkpt lat="48.24554" lon="-2.87181">
        <ele>144.80000305176</ele>
        <time>2020-10-16T13:25:40.000Z</time>
      </trkpt>
      <trkpt lat="48.24554" lon="-2.87181">
        <ele>144.80000305176</ele>
        <time>2020-10-16T13:25:41.000Z</time>
      </trkpt>
      <trkpt lat="48.24554" lon="-2.87181">
        <ele>144.80000305176</ele>
        <time>2020-10-16T13:25:42.000Z</time>
      </trkpt>
      <trkpt lat="48.24554" lon="-2.87181">
        <ele>144.80000305176</ele>
        <time>2020-10-16T13:25:43.000Z</time>
      </trkpt>
      <trkpt lat="48.24554" lon="-2.87181">
        <ele>144.80000305176</ele>
        <time>2020-10-16T13:25:44.000Z</time>
      </trkpt>
      <trkpt lat="48.24554" lon="-2.87181">
        <ele>144.80000305176</ele>
        <time>2020-10-16T13:25:45.000Z</time>
      </trkpt>
      <trkpt lat="48.24554" lon="-2.87181">
        <ele>144.80000305176</ele>
        <time>2020-10-16T13:25:46.000Z</time>
      </trkpt>
      <trkpt lat="48.24554" lon="-2.87181">
        <ele>144.80000305176</ele>
        <time>2020-10-16T13:25:47.000Z</time>
      </trkpt>
      <trkpt lat="48.24554" lon="-2.87181">
        <ele>144.80000305176</ele>
        <time>2020-10-16T13:25:48.000Z</time>
      </trkpt>
      <trkpt lat="48.24554" lon="-2.87182">
        <ele>144.80000305176</ele>
        <time>2020-10-16T13:25:49.000Z</time>
      </trkpt>
      <trkpt lat="48.24554" lon="-2.87182">
        <ele>144.80000305176</ele>
        <time>2020-10-16T13:25:50.000Z</time>
      </trkpt>
      <trkpt lat="48.24555" lon="-2.87182">
        <ele>144.80000305176</ele>
        <time>2020-10-16T13:25:51.000Z</time>
      </trkpt>
      <trkpt lat="48.24555" lon="-2.87182">
        <ele>144.80000305176</ele>
        <time>2020-10-16T13:25:52.000Z</time>
      </trkpt>
      <trkpt lat="48.24555" lon="-2.87181">
        <ele>144.80000305176</ele>
        <time>2020-10-16T13:25:53.000Z</time>
      </trkpt>
      <trkpt lat="48.24555" lon="-2.8718">
        <ele>144.80000305176</ele>
        <time>2020-10-16T13:25:54.000Z</time>
      </trkpt>
      <trkpt lat="48.24555" lon="-2.8718">
        <ele>144.80000305176</ele>
        <time>2020-10-16T13:25:55.000Z</time>
      </trkpt>
      <trkpt lat="48.24555" lon="-2.8718">
        <ele>144.80000305176</ele>
        <time>2020-10-16T13:25:56.000Z</time>
      </trkpt>
      <trkpt lat="48.24555" lon="-2.8718">
        <ele>144.80000305176</ele>
        <time>2020-10-16T13:25:57.000Z</time>
      </trkpt>
      <trkpt lat="48.24556" lon="-2.8718">
        <ele>144.80000305176</ele>
        <time>2020-10-16T13:25:58.000Z</time>
      </trkpt>
      <trkpt lat="48.24556" lon="-2.8718">
        <ele>144.80000305176</ele>
        <time>2020-10-16T13:25:59.000Z</time>
      </trkpt>
      <trkpt lat="48.24556" lon="-2.8718">
        <ele>144.80000305176</ele>
        <time>2020-10-16T13:26:00.000Z</time>
      </trkpt>
      <trkpt lat="48.24556" lon="-2.8718">
        <ele>144.80000305176</ele>
        <time>2020-10-16T13:26:01.000Z</time>
      </trkpt>
      <trkpt lat="48.24556" lon="-2.87181">
        <ele>144.80000305176</ele>
        <time>2020-10-16T13:26:02.000Z</time>
      </trkpt>
      <trkpt lat="48.24556" lon="-2.87181">
        <ele>144.80000305176</ele>
        <time>2020-10-16T13:26:03.000Z</time>
      </trkpt>
      <trkpt lat="48.24556" lon="-2.87181">
        <ele>144.80000305176</ele>
        <time>2020-10-16T13:26:04.000Z</time>
      </trkpt>
      <trkpt lat="48.24556" lon="-2.87181">
        <ele>144.80000305176</ele>
        <time>2020-10-16T13:26:05.000Z</time>
      </trkpt>
      <trkpt lat="48.24555" lon="-2.87182">
        <ele>144.80000305176</ele>
        <time>2020-10-16T13:26:06.000Z</time>
      </trkpt>
      <trkpt lat="48.24555" lon="-2.87182">
        <ele>144.80000305176</ele>
        <time>2020-10-16T13:26:07.000Z</time>
      </trkpt>
      <trkpt lat="48.24555" lon="-2.8718">
        <ele>144.80000305176</ele>
        <time>2020-10-16T13:26:08.000Z</time>
      </trkpt>
      <trkpt lat="48.24555" lon="-2.8718">
        <ele>144.80000305176</ele>
        <time>2020-10-16T13:26:09.000Z</time>
      </trkpt>
      <trkpt lat="48.24555" lon="-2.87181">
        <ele>144.80000305176</ele>
        <time>2020-10-16T13:26:10.000Z</time>
      </trkpt>
      <trkpt lat="48.24555" lon="-2.8718">
        <ele>144.80000305176</ele>
        <time>2020-10-16T13:26:11.000Z</time>
      </trkpt>
      <trkpt lat="48.24555" lon="-2.8718">
        <ele>144.80000305176</ele>
        <time>2020-10-16T13:26:12.000Z</time>
      </trkpt>
      <trkpt lat="48.24555" lon="-2.8718">
        <ele>144.80000305176</ele>
        <time>2020-10-16T13:26:13.000Z</time>
      </trkpt>
      <trkpt lat="48.24555" lon="-2.8718">
        <ele>144.80000305176</ele>
        <time>2020-10-16T13:26:14.000Z</time>
      </trkpt>
      <trkpt lat="48.24555" lon="-2.87181">
        <ele>144.80000305176</ele>
        <time>2020-10-16T13:26:15.000Z</time>
      </trkpt>
      <trkpt lat="48.24555" lon="-2.87181">
        <ele>144.80000305176</ele>
        <time>2020-10-16T13:26:16.000Z</time>
      </trkpt>
      <trkpt lat="48.24555" lon="-2.8718">
        <ele>144.80000305176</ele>
        <time>2020-10-16T13:26:17.000Z</time>
      </trkpt>
      <trkpt lat="48.24555" lon="-2.8718">
        <ele>144.80000305176</ele>
        <time>2020-10-16T13:26:18.000Z</time>
      </trkpt>
      <trkpt lat="48.24555" lon="-2.8718">
        <ele>144.80000305176</ele>
        <time>2020-10-16T13:26:19.000Z</time>
      </trkpt>
      <trkpt lat="48.24555" lon="-2.8718">
        <ele>144.80000305176</ele>
        <time>2020-10-16T13:26:20.000Z</time>
      </trkpt>
      <trkpt lat="48.24555" lon="-2.8718">
        <ele>144.80000305176</ele>
        <time>2020-10-16T13:26:21.000Z</time>
      </trkpt>
      <trkpt lat="48.24556" lon="-2.8718">
        <ele>144.80000305176</ele>
        <time>2020-10-16T13:26:22.000Z</time>
      </trkpt>
      <trkpt lat="48.24556" lon="-2.8718">
        <ele>144.80000305176</ele>
        <time>2020-10-16T13:26:23.000Z</time>
      </trkpt>
      <trkpt lat="48.24556" lon="-2.87181">
        <ele>144.80000305176</ele>
        <time>2020-10-16T13:26:24.000Z</time>
      </trkpt>
      <trkpt lat="48.24556" lon="-2.87181">
        <ele>144.80000305176</ele>
        <time>2020-10-16T13:26:25.000Z</time>
      </trkpt>
      <trkpt lat="48.24556" lon="-2.87181">
        <ele>144.80000305176</ele>
        <time>2020-10-16T13:26:26.000Z</time>
      </trkpt>
      <trkpt lat="48.24556" lon="-2.87181">
        <ele>144.80000305176</ele>
        <time>2020-10-16T13:26:27.000Z</time>
      </trkpt>
      <trkpt lat="48.24556" lon="-2.87181">
        <ele>144.80000305176</ele>
        <time>2020-10-16T13:26:28.000Z</time>
      </trkpt>
      <trkpt lat="48.24555" lon="-2.8718">
        <ele>144.80000305176</ele>
        <time>2020-10-16T13:26:29.000Z</time>
      </trkpt>
      <trkpt lat="48.24555" lon="-2.8718">
        <ele>144.80000305176</ele>
        <time>2020-10-16T13:26:30.000Z</time>
      </trkpt>
      <trkpt lat="48.24554" lon="-2.8718">
        <ele>144.80000305176</ele>
        <time>2020-10-16T13:26:31.000Z</time>
      </trkpt>
      <trkpt lat="48.24554" lon="-2.8718">
        <ele>144.80000305176</ele>
        <time>2020-10-16T13:26:32.000Z</time>
      </trkpt>
      <trkpt lat="48.24554" lon="-2.87181">
        <ele>144.80000305176</ele>
        <time>2020-10-16T13:26:33.000Z</time>
      </trkpt>
      <trkpt lat="48.24554" lon="-2.87181">
        <ele>144.80000305176</ele>
        <time>2020-10-16T13:26:34.000Z</time>
      </trkpt>
      <trkpt lat="48.24554" lon="-2.87181">
        <ele>144.80000305176</ele>
        <time>2020-10-16T13:26:35.000Z</time>
      </trkpt>
      <trkpt lat="48.24554" lon="-2.87181">
        <ele>144.80000305176</ele>
        <time>2020-10-16T13:26:36.000Z</time>
      </trkpt>
      <trkpt lat="48.24554" lon="-2.87181">
        <ele>144.80000305176</ele>
        <time>2020-10-16T13:26:37.000Z</time>
      </trkpt>
      <trkpt lat="48.24554" lon="-2.87181">
        <ele>144.80000305176</ele>
        <time>2020-10-16T13:26:38.000Z</time>
      </trkpt>
      <trkpt lat="48.24554" lon="-2.87181">
        <ele>144.80000305176</ele>
        <time>2020-10-16T13:26:39.000Z</time>
      </trkpt>
      <trkpt lat="48.24554" lon="-2.87182">
        <ele>144.80000305176</ele>
        <time>2020-10-16T13:26:40.000Z</time>
      </trkpt>
      <trkpt lat="48.24554" lon="-2.87182">
        <ele>144.80000305176</ele>
        <time>2020-10-16T13:26:41.000Z</time>
      </trkpt>
      <trkpt lat="48.24554" lon="-2.87182">
        <ele>144.80000305176</ele>
        <time>2020-10-16T13:26:42.000Z</time>
      </trkpt>
      <trkpt lat="48.24554" lon="-2.87182">
        <ele>144.80000305176</ele>
        <time>2020-10-16T13:26:43.000Z</time>
      </trkpt>
      <trkpt lat="48.24554" lon="-2.87182">
        <ele>144.80000305176</ele>
        <time>2020-10-16T13:26:44.000Z</time>
      </trkpt>
      <trkpt lat="48.24554" lon="-2.87182">
        <ele>144.80000305176</ele>
        <time>2020-10-16T13:26:45.000Z</time>
      </trkpt>
      <trkpt lat="48.24554" lon="-2.87182">
        <ele>144.80000305176</ele>
        <time>2020-10-16T13:26:46.000Z</time>
      </trkpt>
      <trkpt lat="48.24554" lon="-2.87183">
        <ele>144.80000305176</ele>
        <time>2020-10-16T13:26:47.000Z</time>
      </trkpt>
      <trkpt lat="48.24554" lon="-2.87183">
        <ele>144.80000305176</ele>
        <time>2020-10-16T13:26:48.000Z</time>
      </trkpt>
      <trkpt lat="48.24554" lon="-2.87183">
        <ele>144.80000305176</ele>
        <time>2020-10-16T13:26:49.000Z</time>
      </trkpt>
      <trkpt lat="48.24554" lon="-2.87183">
        <ele>144.80000305176</ele>
        <time>2020-10-16T13:26:50.000Z</time>
      </trkpt>
      <trkpt lat="48.24554" lon="-2.87183">
        <ele>144.80000305176</ele>
        <time>2020-10-16T13:26:51.000Z</time>
      </trkpt>
      <trkpt lat="48.24554" lon="-2.87184">
        <ele>144.80000305176</ele>
        <time>2020-10-16T13:26:52.000Z</time>
      </trkpt>
      <trkpt lat="48.24554" lon="-2.87184">
        <ele>144.80000305176</ele>
        <time>2020-10-16T13:26:53.000Z</time>
      </trkpt>
      <trkpt lat="48.24554" lon="-2.87184">
        <ele>144.80000305176</ele>
        <time>2020-10-16T13:26:54.000Z</time>
      </trkpt>
      <trkpt lat="48.24555" lon="-2.87184">
        <ele>144.80000305176</ele>
        <time>2020-10-16T13:26:55.000Z</time>
      </trkpt>
      <trkpt lat="48.24554" lon="-2.87182">
        <ele>144.80000305176</ele>
        <time>2020-10-16T13:26:56.000Z</time>
      </trkpt>
      <trkpt lat="48.24554" lon="-2.87182">
        <ele>144.80000305176</ele>
        <time>2020-10-16T13:26:57.000Z</time>
      </trkpt>
      <trkpt lat="48.24554" lon="-2.87181">
        <ele>144.80000305176</ele>
        <time>2020-10-16T13:26:58.000Z</time>
      </trkpt>
      <trkpt lat="48.24554" lon="-2.8718">
        <ele>144.80000305176</ele>
        <time>2020-10-16T13:26:59.000Z</time>
      </trkpt>
      <trkpt lat="48.24554" lon="-2.8718">
        <ele>144.80000305176</ele>
        <time>2020-10-16T13:27:00.000Z</time>
      </trkpt>
      <trkpt lat="48.24554" lon="-2.8718">
        <ele>144.80000305176</ele>
        <time>2020-10-16T13:27:01.000Z</time>
      </trkpt>
      <trkpt lat="48.24555" lon="-2.8718">
        <ele>144.80000305176</ele>
        <time>2020-10-16T13:27:02.000Z</time>
      </trkpt>
      <trkpt lat="48.24555" lon="-2.8718">
        <ele>144.80000305176</ele>
        <time>2020-10-16T13:27:03.000Z</time>
      </trkpt>
      <trkpt lat="48.24554" lon="-2.87177">
        <ele>144.60000610352</ele>
        <time>2020-10-16T13:27:04.000Z</time>
      </trkpt>
      <trkpt lat="48.24554" lon="-2.87177">
        <ele>144.60000610352</ele>
        <time>2020-10-16T13:27:05.000Z</time>
      </trkpt>
      <trkpt lat="48.24554" lon="-2.87177">
        <ele>144.60000610352</ele>
        <time>2020-10-16T13:27:06.000Z</time>
      </trkpt>
      <trkpt lat="48.24554" lon="-2.87177">
        <ele>144.60000610352</ele>
        <time>2020-10-16T13:27:07.000Z</time>
      </trkpt>
      <trkpt lat="48.24554" lon="-2.87177">
        <ele>144.60000610352</ele>
        <time>2020-10-16T13:27:08.000Z</time>
      </trkpt>
      <trkpt lat="48.24554" lon="-2.87177">
        <ele>144.60000610352</ele>
        <time>2020-10-16T13:27:09.000Z</time>
      </trkpt>
      <trkpt lat="48.24554" lon="-2.87177">
        <ele>144.60000610352</ele>
        <time>2020-10-16T13:27:10.000Z</time>
      </trkpt>
      <trkpt lat="48.24554" lon="-2.87177">
        <ele>144.60000610352</ele>
        <time>2020-10-16T13:27:11.000Z</time>
      </trkpt>
      <trkpt lat="48.24554" lon="-2.87177">
        <ele>144.60000610352</ele>
        <time>2020-10-16T13:27:12.000Z</time>
      </trkpt>
      <trkpt lat="48.24554" lon="-2.87177">
        <ele>144.60000610352</ele>
        <time>2020-10-16T13:27:13.000Z</time>
      </trkpt>
      <trkpt lat="48.24554" lon="-2.87177">
        <ele>144.60000610352</ele>
        <time>2020-10-16T13:27:14.000Z</time>
      </trkpt>
      <trkpt lat="48.24554" lon="-2.87177">
        <ele>144.60000610352</ele>
        <time>2020-10-16T13:27:15.000Z</time>
      </trkpt>
      <trkpt lat="48.24554" lon="-2.87177">
        <ele>144.60000610352</ele>
        <time>2020-10-16T13:27:16.000Z</time>
      </trkpt>
      <trkpt lat="48.24554" lon="-2.87177">
        <ele>144.60000610352</ele>
        <time>2020-10-16T13:27:17.000Z</time>
      </trkpt>
      <trkpt lat="48.24554" lon="-2.87177">
        <ele>144.60000610352</ele>
        <time>2020-10-16T13:27:18.000Z</time>
      </trkpt>
      <trkpt lat="48.24554" lon="-2.87177">
        <ele>144.60000610352</ele>
        <time>2020-10-16T13:27:19.000Z</time>
      </trkpt>
      <trkpt lat="48.24554" lon="-2.87177">
        <ele>144.60000610352</ele>
        <time>2020-10-16T13:27:20.000Z</time>
      </trkpt>
      <trkpt lat="48.24554" lon="-2.87177">
        <ele>144.60000610352</ele>
        <time>2020-10-16T13:27:21.000Z</time>
      </trkpt>
      <trkpt lat="48.24554" lon="-2.87177">
        <ele>144.60000610352</ele>
        <time>2020-10-16T13:27:22.000Z</time>
      </trkpt>
      <trkpt lat="48.24554" lon="-2.87177">
        <ele>144.60000610352</ele>
        <time>2020-10-16T13:27:23.000Z</time>
      </trkpt>
      <trkpt lat="48.24554" lon="-2.87177">
        <ele>144.60000610352</ele>
        <time>2020-10-16T13:27:24.000Z</time>
      </trkpt>
      <trkpt lat="48.24554" lon="-2.87177">
        <ele>144.60000610352</ele>
        <time>2020-10-16T13:27:25.000Z</time>
      </trkpt>
      <trkpt lat="48.24554" lon="-2.87177">
        <ele>144.60000610352</ele>
        <time>2020-10-16T13:27:26.000Z</time>
      </trkpt>
      <trkpt lat="48.24554" lon="-2.87177">
        <ele>144.60000610352</ele>
        <time>2020-10-16T13:27:27.000Z</time>
      </trkpt>
      <trkpt lat="48.24554" lon="-2.87177">
        <ele>144.60000610352</ele>
        <time>2020-10-16T13:27:28.000Z</time>
      </trkpt>
      <trkpt lat="48.24554" lon="-2.87178">
        <ele>144.60000610352</ele>
        <time>2020-10-16T13:27:29.000Z</time>
      </trkpt>
      <trkpt lat="48.24554" lon="-2.87178">
        <ele>144.60000610352</ele>
        <time>2020-10-16T13:27:30.000Z</time>
      </trkpt>
      <trkpt lat="48.24554" lon="-2.87178">
        <ele>144.60000610352</ele>
        <time>2020-10-16T13:27:31.000Z</time>
      </trkpt>
      <trkpt lat="48.24554" lon="-2.87178">
        <ele>144.60000610352</ele>
        <time>2020-10-16T13:27:32.000Z</time>
      </trkpt>
      <trkpt lat="48.24554" lon="-2.87178">
        <ele>144.60000610352</ele>
        <time>2020-10-16T13:27:33.000Z</time>
      </trkpt>
      <trkpt lat="48.24554" lon="-2.87178">
        <ele>144.60000610352</ele>
        <time>2020-10-16T13:27:34.000Z</time>
      </trkpt>
      <trkpt lat="48.24554" lon="-2.87178">
        <ele>144.60000610352</ele>
        <time>2020-10-16T13:27:35.000Z</time>
      </trkpt>
      <trkpt lat="48.24554" lon="-2.87178">
        <ele>144.60000610352</ele>
        <time>2020-10-16T13:27:36.000Z</time>
      </trkpt>
      <trkpt lat="48.24554" lon="-2.87178">
        <ele>144.60000610352</ele>
        <time>2020-10-16T13:27:37.000Z</time>
      </trkpt>
      <trkpt lat="48.24554" lon="-2.87178">
        <ele>144.60000610352</ele>
        <time>2020-10-16T13:27:38.000Z</time>
      </trkpt>
      <trkpt lat="48.24554" lon="-2.87178">
        <ele>144.60000610352</ele>
        <time>2020-10-16T13:27:39.000Z</time>
      </trkpt>
      <trkpt lat="48.24554" lon="-2.87178">
        <ele>144.60000610352</ele>
        <time>2020-10-16T13:27:40.000Z</time>
      </trkpt>
      <trkpt lat="48.24554" lon="-2.87178">
        <ele>144.60000610352</ele>
        <time>2020-10-16T13:27:41.000Z</time>
      </trkpt>
      <trkpt lat="48.24554" lon="-2.87178">
        <ele>144.60000610352</ele>
        <time>2020-10-16T13:27:42.000Z</time>
      </trkpt>
      <trkpt lat="48.24554" lon="-2.87178">
        <ele>144.60000610352</ele>
        <time>2020-10-16T13:27:43.000Z</time>
      </trkpt>
      <trkpt lat="48.24554" lon="-2.87178">
        <ele>144.60000610352</ele>
        <time>2020-10-16T13:27:44.000Z</time>
      </trkpt>
      <trkpt lat="48.24553" lon="-2.87178">
        <ele>144.60000610352</ele>
        <time>2020-10-16T13:27:45.000Z</time>
      </trkpt>
      <trkpt lat="48.24553" lon="-2.87178">
        <ele>144.60000610352</ele>
        <time>2020-10-16T13:27:46.000Z</time>
      </trkpt>
      <trkpt lat="48.24553" lon="-2.87178">
        <ele>144.60000610352</ele>
        <time>2020-10-16T13:27:47.000Z</time>
      </trkpt>
      <trkpt lat="48.24553" lon="-2.87178">
        <ele>144.60000610352</ele>
        <time>2020-10-16T13:27:48.000Z</time>
      </trkpt>
      <trkpt lat="48.24553" lon="-2.87178">
        <ele>144.60000610352</ele>
        <time>2020-10-16T13:27:49.000Z</time>
      </trkpt>
      <trkpt lat="48.24553" lon="-2.87178">
        <ele>144.60000610352</ele>
        <time>2020-10-16T13:27:50.000Z</time>
      </trkpt>
      <trkpt lat="48.24553" lon="-2.87178">
        <ele>144.60000610352</ele>
        <time>2020-10-16T13:27:51.000Z</time>
      </trkpt>
      <trkpt lat="48.24553" lon="-2.87178">
        <ele>144.60000610352</ele>
        <time>2020-10-16T13:27:52.000Z</time>
      </trkpt>
      <trkpt lat="48.24553" lon="-2.87178">
        <ele>144.60000610352</ele>
        <time>2020-10-16T13:27:53.000Z</time>
      </trkpt>
      <trkpt lat="48.24553" lon="-2.87178">
        <ele>144.60000610352</ele>
        <time>2020-10-16T13:27:54.000Z</time>
      </trkpt>
      <trkpt lat="48.24553" lon="-2.87178">
        <ele>144.60000610352</ele>
        <time>2020-10-16T13:27:55.000Z</time>
      </trkpt>
      <trkpt lat="48.24553" lon="-2.87178">
        <ele>144.60000610352</ele>
        <time>2020-10-16T13:27:56.000Z</time>
      </trkpt>
      <trkpt lat="48.24553" lon="-2.87178">
        <ele>144.60000610352</ele>
        <time>2020-10-16T13:27:57.000Z</time>
      </trkpt>
      <trkpt lat="48.24553" lon="-2.87178">
        <ele>144.60000610352</ele>
        <time>2020-10-16T13:27:58.000Z</time>
      </trkpt>
      <trkpt lat="48.24553" lon="-2.87178">
        <ele>144.60000610352</ele>
        <time>2020-10-16T13:27:59.000Z</time>
      </trkpt>
      <trkpt lat="48.24553" lon="-2.87178">
        <ele>144.60000610352</ele>
        <time>2020-10-16T13:28:00.000Z</time>
      </trkpt>
      <trkpt lat="48.24553" lon="-2.87178">
        <ele>144.60000610352</ele>
        <time>2020-10-16T13:28:01.000Z</time>
      </trkpt>
      <trkpt lat="48.24553" lon="-2.87178">
        <ele>144.60000610352</ele>
        <time>2020-10-16T13:28:02.000Z</time>
      </trkpt>
      <trkpt lat="48.24553" lon="-2.87178">
        <ele>144.60000610352</ele>
        <time>2020-10-16T13:28:03.000Z</time>
      </trkpt>
      <trkpt lat="48.24553" lon="-2.87179">
        <ele>144.60000610352</ele>
        <time>2020-10-16T13:28:04.000Z</time>
      </trkpt>
      <trkpt lat="48.24553" lon="-2.87179">
        <ele>144.60000610352</ele>
        <time>2020-10-16T13:28:05.000Z</time>
      </trkpt>
      <trkpt lat="48.24554" lon="-2.87179">
        <ele>144.80000305176</ele>
        <time>2020-10-16T13:28:06.000Z</time>
      </trkpt>
      <trkpt lat="48.24554" lon="-2.87179">
        <ele>144.80000305176</ele>
        <time>2020-10-16T13:28:07.000Z</time>
      </trkpt>
      <trkpt lat="48.24554" lon="-2.87179">
        <ele>144.80000305176</ele>
        <time>2020-10-16T13:28:08.000Z</time>
      </trkpt>
      <trkpt lat="48.24554" lon="-2.87179">
        <ele>144.80000305176</ele>
        <time>2020-10-16T13:28:09.000Z</time>
      </trkpt>
      <trkpt lat="48.24554" lon="-2.8718">
        <ele>144.80000305176</ele>
        <time>2020-10-16T13:28:10.000Z</time>
      </trkpt>
      <trkpt lat="48.24554" lon="-2.8718">
        <ele>144.80000305176</ele>
        <time>2020-10-16T13:28:11.000Z</time>
      </trkpt>
      <trkpt lat="48.24555" lon="-2.8718">
        <ele>144.80000305176</ele>
        <time>2020-10-16T13:28:12.000Z</time>
      </trkpt>
      <trkpt lat="48.24555" lon="-2.87181">
        <ele>144.80000305176</ele>
        <time>2020-10-16T13:28:13.000Z</time>
      </trkpt>
      <trkpt lat="48.24555" lon="-2.87181">
        <ele>144.80000305176</ele>
        <time>2020-10-16T13:28:14.000Z</time>
      </trkpt>
      <trkpt lat="48.24554" lon="-2.87181">
        <ele>144.80000305176</ele>
        <time>2020-10-16T13:28:15.000Z</time>
      </trkpt>
      <trkpt lat="48.24554" lon="-2.87182">
        <ele>144.80000305176</ele>
        <time>2020-10-16T13:28:16.000Z</time>
      </trkpt>
      <trkpt lat="48.24554" lon="-2.87182">
        <ele>144.80000305176</ele>
        <time>2020-10-16T13:28:17.000Z</time>
      </trkpt>
      <trkpt lat="48.24554" lon="-2.87183">
        <ele>144.80000305176</ele>
        <time>2020-10-16T13:28:18.000Z</time>
      </trkpt>
      <trkpt lat="48.24555" lon="-2.87183">
        <ele>144.80000305176</ele>
        <time>2020-10-16T13:28:19.000Z</time>
      </trkpt>
      <trkpt lat="48.24555" lon="-2.87183">
        <ele>144.80000305176</ele>
        <time>2020-10-16T13:28:20.000Z</time>
      </trkpt>
      <trkpt lat="48.24555" lon="-2.87184">
        <ele>144.80000305176</ele>
        <time>2020-10-16T13:28:21.000Z</time>
      </trkpt>
      <trkpt lat="48.24554" lon="-2.87184">
        <ele>145</ele>
        <time>2020-10-16T13:28:22.000Z</time>
      </trkpt>
      <trkpt lat="48.24554" lon="-2.87184">
        <ele>145</ele>
        <time>2020-10-16T13:28:23.000Z</time>
      </trkpt>
      <trkpt lat="48.24554" lon="-2.87184">
        <ele>145</ele>
        <time>2020-10-16T13:28:24.000Z</time>
      </trkpt>
      <trkpt lat="48.24553" lon="-2.87184">
        <ele>144.80000305176</ele>
        <time>2020-10-16T13:28:25.000Z</time>
      </trkpt>
      <trkpt lat="48.24553" lon="-2.87184">
        <ele>144.80000305176</ele>
        <time>2020-10-16T13:28:26.000Z</time>
      </trkpt>
      <trkpt lat="48.24553" lon="-2.87183">
        <ele>144.80000305176</ele>
        <time>2020-10-16T13:28:27.000Z</time>
      </trkpt>
      <trkpt lat="48.24553" lon="-2.87183">
        <ele>144.80000305176</ele>
        <time>2020-10-16T13:28:28.000Z</time>
      </trkpt>
      <trkpt lat="48.24553" lon="-2.87182">
        <ele>144.80000305176</ele>
        <time>2020-10-16T13:28:29.000Z</time>
      </trkpt>
      <trkpt lat="48.24553" lon="-2.87182">
        <ele>144.80000305176</ele>
        <time>2020-10-16T13:28:30.000Z</time>
      </trkpt>
      <trkpt lat="48.24553" lon="-2.87182">
        <ele>144.80000305176</ele>
        <time>2020-10-16T13:28:31.000Z</time>
      </trkpt>
      <trkpt lat="48.24553" lon="-2.87182">
        <ele>144.80000305176</ele>
        <time>2020-10-16T13:28:32.000Z</time>
      </trkpt>
      <trkpt lat="48.24553" lon="-2.87182">
        <ele>144.80000305176</ele>
        <time>2020-10-16T13:28:33.000Z</time>
      </trkpt>
      <trkpt lat="48.24553" lon="-2.87182">
        <ele>144.80000305176</ele>
        <time>2020-10-16T13:28:34.000Z</time>
      </trkpt>
      <trkpt lat="48.24553" lon="-2.87181">
        <ele>144.80000305176</ele>
        <time>2020-10-16T13:28:35.000Z</time>
      </trkpt>
      <trkpt lat="48.24553" lon="-2.87181">
        <ele>144.80000305176</ele>
        <time>2020-10-16T13:28:36.000Z</time>
      </trkpt>
      <trkpt lat="48.24553" lon="-2.87181">
        <ele>144.80000305176</ele>
        <time>2020-10-16T13:28:37.000Z</time>
      </trkpt>
      <trkpt lat="48.24553" lon="-2.87181">
        <ele>144.80000305176</ele>
        <time>2020-10-16T13:28:38.000Z</time>
      </trkpt>
      <trkpt lat="48.24553" lon="-2.87181">
        <ele>144.80000305176</ele>
        <time>2020-10-16T13:28:39.000Z</time>
      </trkpt>
      <trkpt lat="48.24553" lon="-2.87181">
        <ele>144.80000305176</ele>
        <time>2020-10-16T13:28:40.000Z</time>
      </trkpt>
      <trkpt lat="48.24553" lon="-2.87182">
        <ele>144.80000305176</ele>
        <time>2020-10-16T13:28:41.000Z</time>
      </trkpt>
      <trkpt lat="48.24553" lon="-2.87182">
        <ele>144.80000305176</ele>
        <time>2020-10-16T13:28:42.000Z</time>
      </trkpt>
      <trkpt lat="48.24553" lon="-2.87182">
        <ele>144.80000305176</ele>
        <time>2020-10-16T13:28:43.000Z</time>
      </trkpt>
      <trkpt lat="48.24553" lon="-2.87181">
        <ele>144.80000305176</ele>
        <time>2020-10-16T13:28:44.000Z</time>
      </trkpt>
      <trkpt lat="48.24553" lon="-2.87181">
        <ele>144.80000305176</ele>
        <time>2020-10-16T13:28:45.000Z</time>
      </trkpt>
      <trkpt lat="48.24553" lon="-2.87181">
        <ele>144.80000305176</ele>
        <time>2020-10-16T13:28:46.000Z</time>
      </trkpt>
      <trkpt lat="48.24553" lon="-2.87181">
        <ele>144.80000305176</ele>
        <time>2020-10-16T13:28:47.000Z</time>
      </trkpt>
      <trkpt lat="48.24553" lon="-2.87181">
        <ele>144.80000305176</ele>
        <time>2020-10-16T13:28:48.000Z</time>
      </trkpt>
      <trkpt lat="48.24554" lon="-2.87182">
        <ele>144.80000305176</ele>
        <time>2020-10-16T13:28:49.000Z</time>
      </trkpt>
      <trkpt lat="48.24554" lon="-2.87181">
        <ele>144.80000305176</ele>
        <time>2020-10-16T13:28:50.000Z</time>
      </trkpt>
      <trkpt lat="48.24554" lon="-2.87181">
        <ele>144.80000305176</ele>
        <time>2020-10-16T13:28:51.000Z</time>
      </trkpt>
      <trkpt lat="48.24554" lon="-2.87182">
        <ele>144.80000305176</ele>
        <time>2020-10-16T13:28:52.000Z</time>
      </trkpt>
      <trkpt lat="48.24554" lon="-2.87182">
        <ele>144.80000305176</ele>
        <time>2020-10-16T13:28:53.000Z</time>
      </trkpt>
      <trkpt lat="48.24554" lon="-2.87182">
        <ele>144.80000305176</ele>
        <time>2020-10-16T13:28:54.000Z</time>
      </trkpt>
      <trkpt lat="48.24554" lon="-2.87182">
        <ele>144.80000305176</ele>
        <time>2020-10-16T13:28:55.000Z</time>
      </trkpt>
      <trkpt lat="48.24554" lon="-2.87182">
        <ele>144.80000305176</ele>
        <time>2020-10-16T13:28:56.000Z</time>
      </trkpt>
      <trkpt lat="48.24553" lon="-2.87182">
        <ele>144.80000305176</ele>
        <time>2020-10-16T13:28:57.000Z</time>
      </trkpt>
      <trkpt lat="48.24553" lon="-2.87182">
        <ele>144.80000305176</ele>
        <time>2020-10-16T13:28:58.000Z</time>
      </trkpt>
      <trkpt lat="48.24553" lon="-2.87182">
        <ele>144.80000305176</ele>
        <time>2020-10-16T13:28:59.000Z</time>
      </trkpt>
      <trkpt lat="48.24553" lon="-2.87182">
        <ele>144.80000305176</ele>
        <time>2020-10-16T13:29:00.000Z</time>
      </trkpt>
      <trkpt lat="48.24553" lon="-2.87182">
        <ele>144.80000305176</ele>
        <time>2020-10-16T13:29:01.000Z</time>
      </trkpt>
      <trkpt lat="48.24553" lon="-2.87182">
        <ele>144.80000305176</ele>
        <time>2020-10-16T13:29:02.000Z</time>
      </trkpt>
      <trkpt lat="48.24553" lon="-2.87182">
        <ele>144.80000305176</ele>
        <time>2020-10-16T13:29:03.000Z</time>
      </trkpt>
      <trkpt lat="48.24553" lon="-2.87182">
        <ele>144.80000305176</ele>
        <time>2020-10-16T13:29:04.000Z</time>
      </trkpt>
      <trkpt lat="48.24553" lon="-2.87182">
        <ele>144.80000305176</ele>
        <time>2020-10-16T13:29:05.000Z</time>
      </trkpt>
      <trkpt lat="48.24553" lon="-2.87182">
        <ele>144.80000305176</ele>
        <time>2020-10-16T13:29:06.000Z</time>
      </trkpt>
      <trkpt lat="48.24553" lon="-2.87182">
        <ele>144.80000305176</ele>
        <time>2020-10-16T13:29:07.000Z</time>
      </trkpt>
      <trkpt lat="48.24553" lon="-2.87182">
        <ele>144.80000305176</ele>
        <time>2020-10-16T13:29:08.000Z</time>
      </trkpt>
      <trkpt lat="48.24553" lon="-2.87182">
        <ele>144.80000305176</ele>
        <time>2020-10-16T13:29:09.000Z</time>
      </trkpt>
      <trkpt lat="48.24553" lon="-2.87182">
        <ele>144.80000305176</ele>
        <time>2020-10-16T13:29:10.000Z</time>
      </trkpt>
      <trkpt lat="48.24553" lon="-2.87181">
        <ele>144.80000305176</ele>
        <time>2020-10-16T13:29:11.000Z</time>
      </trkpt>
      <trkpt lat="48.24553" lon="-2.87182">
        <ele>144.80000305176</ele>
        <time>2020-10-16T13:29:12.000Z</time>
      </trkpt>
      <trkpt lat="48.24553" lon="-2.87182">
        <ele>144.80000305176</ele>
        <time>2020-10-16T13:29:13.000Z</time>
      </trkpt>
      <trkpt lat="48.24553" lon="-2.87181">
        <ele>144.80000305176</ele>
        <time>2020-10-16T13:29:14.000Z</time>
      </trkpt>
      <trkpt lat="48.24553" lon="-2.87182">
        <ele>144.80000305176</ele>
        <time>2020-10-16T13:29:15.000Z</time>
      </trkpt>
      <trkpt lat="48.24553" lon="-2.87182">
        <ele>144.80000305176</ele>
        <time>2020-10-16T13:29:16.000Z</time>
      </trkpt>
      <trkpt lat="48.24553" lon="-2.87181">
        <ele>144.80000305176</ele>
        <time>2020-10-16T13:29:17.000Z</time>
      </trkpt>
      <trkpt lat="48.24553" lon="-2.87181">
        <ele>144.80000305176</ele>
        <time>2020-10-16T13:29:18.000Z</time>
      </trkpt>
      <trkpt lat="48.24553" lon="-2.87181">
        <ele>144.80000305176</ele>
        <time>2020-10-16T13:29:19.000Z</time>
      </trkpt>
      <trkpt lat="48.24553" lon="-2.87181">
        <ele>144.80000305176</ele>
        <time>2020-10-16T13:29:20.000Z</time>
      </trkpt>
      <trkpt lat="48.24553" lon="-2.87181">
        <ele>144.80000305176</ele>
        <time>2020-10-16T13:29:21.000Z</time>
      </trkpt>
      <trkpt lat="48.24553" lon="-2.87181">
        <ele>144.80000305176</ele>
        <time>2020-10-16T13:29:22.000Z</time>
      </trkpt>
      <trkpt lat="48.24553" lon="-2.87181">
        <ele>144.80000305176</ele>
        <time>2020-10-16T13:29:23.000Z</time>
      </trkpt>
      <trkpt lat="48.24553" lon="-2.87181">
        <ele>144.80000305176</ele>
        <time>2020-10-16T13:29:24.000Z</time>
      </trkpt>
      <trkpt lat="48.24553" lon="-2.87181">
        <ele>144.80000305176</ele>
        <time>2020-10-16T13:29:25.000Z</time>
      </trkpt>
      <trkpt lat="48.24553" lon="-2.87181">
        <ele>144.80000305176</ele>
        <time>2020-10-16T13:29:26.000Z</time>
      </trkpt>
      <trkpt lat="48.24553" lon="-2.87181">
        <ele>144.80000305176</ele>
        <time>2020-10-16T13:29:27.000Z</time>
      </trkpt>
      <trkpt lat="48.24554" lon="-2.87181">
        <ele>144.80000305176</ele>
        <time>2020-10-16T13:29:28.000Z</time>
      </trkpt>
      <trkpt lat="48.24554" lon="-2.87181">
        <ele>144.80000305176</ele>
        <time>2020-10-16T13:29:29.000Z</time>
      </trkpt>
      <trkpt lat="48.24554" lon="-2.87181">
        <ele>144.80000305176</ele>
        <time>2020-10-16T13:29:30.000Z</time>
      </trkpt>
      <trkpt lat="48.24554" lon="-2.87181">
        <ele>144.80000305176</ele>
        <time>2020-10-16T13:29:31.000Z</time>
      </trkpt>
      <trkpt lat="48.24554" lon="-2.87181">
        <ele>144.80000305176</ele>
        <time>2020-10-16T13:29:32.000Z</time>
      </trkpt>
      <trkpt lat="48.24554" lon="-2.87181">
        <ele>144.80000305176</ele>
        <time>2020-10-16T13:29:33.000Z</time>
      </trkpt>
      <trkpt lat="48.24553" lon="-2.8718">
        <ele>144.80000305176</ele>
        <time>2020-10-16T13:29:34.000Z</time>
      </trkpt>
      <trkpt lat="48.24553" lon="-2.8718">
        <ele>144.80000305176</ele>
        <time>2020-10-16T13:29:35.000Z</time>
      </trkpt>
      <trkpt lat="48.24553" lon="-2.8718">
        <ele>144.80000305176</ele>
        <time>2020-10-16T13:29:36.000Z</time>
      </trkpt>
      <trkpt lat="48.24553" lon="-2.8718">
        <ele>144.80000305176</ele>
        <time>2020-10-16T13:29:37.000Z</time>
      </trkpt>
      <trkpt lat="48.24553" lon="-2.8718">
        <ele>144.80000305176</ele>
        <time>2020-10-16T13:29:38.000Z</time>
      </trkpt>
      <trkpt lat="48.24552" lon="-2.8718">
        <ele>144.80000305176</ele>
        <time>2020-10-16T13:29:39.000Z</time>
      </trkpt>
      <trkpt lat="48.24552" lon="-2.8718">
        <ele>144.80000305176</ele>
        <time>2020-10-16T13:29:40.000Z</time>
      </trkpt>
      <trkpt lat="48.24552" lon="-2.87181">
        <ele>144.80000305176</ele>
        <time>2020-10-16T13:29:41.000Z</time>
      </trkpt>
      <trkpt lat="48.24552" lon="-2.87181">
        <ele>144.80000305176</ele>
        <time>2020-10-16T13:29:42.000Z</time>
      </trkpt>
      <trkpt lat="48.24551" lon="-2.87181">
        <ele>144.80000305176</ele>
        <time>2020-10-16T13:29:43.000Z</time>
      </trkpt>
      <trkpt lat="48.24551" lon="-2.87181">
        <ele>144.80000305176</ele>
        <time>2020-10-16T13:29:44.000Z</time>
      </trkpt>
      <trkpt lat="48.24551" lon="-2.87182">
        <ele>144.80000305176</ele>
        <time>2020-10-16T13:29:45.000Z</time>
      </trkpt>
      <trkpt lat="48.24551" lon="-2.87182">
        <ele>144.80000305176</ele>
        <time>2020-10-16T13:29:46.000Z</time>
      </trkpt>
      <trkpt lat="48.24551" lon="-2.87182">
        <ele>144.80000305176</ele>
        <time>2020-10-16T13:29:47.000Z</time>
      </trkpt>
      <trkpt lat="48.24551" lon="-2.87182">
        <ele>144.80000305176</ele>
        <time>2020-10-16T13:29:48.000Z</time>
      </trkpt>
      <trkpt lat="48.24551" lon="-2.87182">
        <ele>144.80000305176</ele>
        <time>2020-10-16T13:29:49.000Z</time>
      </trkpt>
      <trkpt lat="48.24551" lon="-2.87182">
        <ele>144.80000305176</ele>
        <time>2020-10-16T13:29:50.000Z</time>
      </trkpt>
      <trkpt lat="48.24551" lon="-2.87182">
        <ele>144.80000305176</ele>
        <time>2020-10-16T13:29:51.000Z</time>
      </trkpt>
      <trkpt lat="48.24551" lon="-2.87182">
        <ele>144.80000305176</ele>
        <time>2020-10-16T13:29:52.000Z</time>
      </trkpt>
      <trkpt lat="48.24551" lon="-2.87183">
        <ele>144.80000305176</ele>
        <time>2020-10-16T13:29:53.000Z</time>
      </trkpt>
      <trkpt lat="48.24551" lon="-2.87183">
        <ele>144.80000305176</ele>
        <time>2020-10-16T13:29:54.000Z</time>
      </trkpt>
      <trkpt lat="48.2455" lon="-2.87183">
        <ele>144.80000305176</ele>
        <time>2020-10-16T13:29:55.000Z</time>
      </trkpt>
      <trkpt lat="48.2455" lon="-2.87183">
        <ele>144.80000305176</ele>
        <time>2020-10-16T13:29:56.000Z</time>
      </trkpt>
      <trkpt lat="48.2455" lon="-2.87183">
        <ele>144.80000305176</ele>
        <time>2020-10-16T13:29:57.000Z</time>
      </trkpt>
      <trkpt lat="48.2455" lon="-2.87183">
        <ele>144.80000305176</ele>
        <time>2020-10-16T13:29:58.000Z</time>
      </trkpt>
      <trkpt lat="48.2455" lon="-2.87183">
        <ele>144.80000305176</ele>
        <time>2020-10-16T13:29:59.000Z</time>
      </trkpt>
      <trkpt lat="48.24551" lon="-2.87183">
        <ele>144.80000305176</ele>
        <time>2020-10-16T13:30:00.000Z</time>
      </trkpt>
      <trkpt lat="48.24551" lon="-2.87184">
        <ele>144.80000305176</ele>
        <time>2020-10-16T13:30:01.000Z</time>
      </trkpt>
      <trkpt lat="48.2455" lon="-2.87184">
        <ele>144.80000305176</ele>
        <time>2020-10-16T13:30:02.000Z</time>
      </trkpt>
      <trkpt lat="48.2455" lon="-2.87184">
        <ele>144.80000305176</ele>
        <time>2020-10-16T13:30:03.000Z</time>
      </trkpt>
      <trkpt lat="48.24549" lon="-2.87187">
        <ele>145</ele>
        <time>2020-10-16T13:30:04.000Z</time>
      </trkpt>
      <trkpt lat="48.24549" lon="-2.87187">
        <ele>145</ele>
        <time>2020-10-16T13:30:05.000Z</time>
      </trkpt>
      <trkpt lat="48.24547" lon="-2.8719">
        <ele>145</ele>
        <time>2020-10-16T13:30:06.000Z</time>
      </trkpt>
      <trkpt lat="48.24547" lon="-2.8719">
        <ele>145</ele>
        <time>2020-10-16T13:30:07.000Z</time>
      </trkpt>
      <trkpt lat="48.24544" lon="-2.87194">
        <ele>145.19999694824</ele>
        <time>2020-10-16T13:30:08.000Z</time>
      </trkpt>
      <trkpt lat="48.24544" lon="-2.87194">
        <ele>145.19999694824</ele>
        <time>2020-10-16T13:30:09.000Z</time>
      </trkpt>
      <trkpt lat="48.24541" lon="-2.87198">
        <ele>145.19999694824</ele>
        <time>2020-10-16T13:30:10.000Z</time>
      </trkpt>
      <trkpt lat="48.24541" lon="-2.87198">
        <ele>145.19999694824</ele>
        <time>2020-10-16T13:30:11.000Z</time>
      </trkpt>
      <trkpt lat="48.24539" lon="-2.87203">
        <ele>145.39999389648</ele>
        <time>2020-10-16T13:30:12.000Z</time>
      </trkpt>
      <trkpt lat="48.24539" lon="-2.87203">
        <ele>145.39999389648</ele>
        <time>2020-10-16T13:30:13.000Z</time>
      </trkpt>
      <trkpt lat="48.24536" lon="-2.87207">
        <ele>145.60000610352</ele>
        <time>2020-10-16T13:30:14.000Z</time>
      </trkpt>
      <trkpt lat="48.24536" lon="-2.87207">
        <ele>145.60000610352</ele>
        <time>2020-10-16T13:30:15.000Z</time>
      </trkpt>
      <trkpt lat="48.24532" lon="-2.87212">
        <ele>145.60000610352</ele>
        <time>2020-10-16T13:30:16.000Z</time>
      </trkpt>
      <trkpt lat="48.24532" lon="-2.87212">
        <ele>145.60000610352</ele>
        <time>2020-10-16T13:30:17.000Z</time>
      </trkpt>
      <trkpt lat="48.24531" lon="-2.87215">
        <ele>145.80000305176</ele>
        <time>2020-10-16T13:30:18.000Z</time>
      </trkpt>
      <trkpt lat="48.24527" lon="-2.87221">
        <ele>146</ele>
        <time>2020-10-16T13:30:19.000Z</time>
      </trkpt>
      <trkpt lat="48.24527" lon="-2.87221">
        <ele>146</ele>
        <time>2020-10-16T13:30:20.000Z</time>
      </trkpt>
      <trkpt lat="48.24522" lon="-2.87226">
        <ele>146</ele>
        <time>2020-10-16T13:30:21.000Z</time>
      </trkpt>
      <trkpt lat="48.24522" lon="-2.87226">
        <ele>146</ele>
        <time>2020-10-16T13:30:22.000Z</time>
      </trkpt>
      <trkpt lat="48.24519" lon="-2.87228">
        <ele>146</ele>
        <time>2020-10-16T13:30:23.000Z</time>
      </trkpt>
      <trkpt lat="48.24513" lon="-2.87231">
        <ele>146</ele>
        <time>2020-10-16T13:30:24.000Z</time>
      </trkpt>
      <trkpt lat="48.24513" lon="-2.87231">
        <ele>146</ele>
        <time>2020-10-16T13:30:25.000Z</time>
      </trkpt>
      <trkpt lat="48.24509" lon="-2.87231">
        <ele>146.19999694824</ele>
        <time>2020-10-16T13:30:26.000Z</time>
      </trkpt>
      <trkpt lat="48.24502" lon="-2.87231">
        <ele>146.19999694824</ele>
        <time>2020-10-16T13:30:27.000Z</time>
      </trkpt>
      <trkpt lat="48.24502" lon="-2.87231">
        <ele>146.19999694824</ele>
        <time>2020-10-16T13:30:28.000Z</time>
      </trkpt>
      <trkpt lat="48.24498" lon="-2.87231">
        <ele>146.19999694824</ele>
        <time>2020-10-16T13:30:29.000Z</time>
      </trkpt>
      <trkpt lat="48.2449" lon="-2.87229">
        <ele>146.19999694824</ele>
        <time>2020-10-16T13:30:30.000Z</time>
      </trkpt>
      <trkpt lat="48.2449" lon="-2.87229">
        <ele>146.19999694824</ele>
        <time>2020-10-16T13:30:31.000Z</time>
      </trkpt>
      <trkpt lat="48.24481" lon="-2.87228">
        <ele>146.39999389648</ele>
        <time>2020-10-16T13:30:32.000Z</time>
      </trkpt>
      <trkpt lat="48.24481" lon="-2.87228">
        <ele>146.39999389648</ele>
        <time>2020-10-16T13:30:33.000Z</time>
      </trkpt>
      <trkpt lat="48.24477" lon="-2.87227">
        <ele>146.39999389648</ele>
        <time>2020-10-16T13:30:34.000Z</time>
      </trkpt>
      <trkpt lat="48.24469" lon="-2.87225">
        <ele>146.39999389648</ele>
        <time>2020-10-16T13:30:35.000Z</time>
      </trkpt>
      <trkpt lat="48.24465" lon="-2.87224">
        <ele>146.39999389648</ele>
        <time>2020-10-16T13:30:36.000Z</time>
      </trkpt>
      <trkpt lat="48.24465" lon="-2.87224">
        <ele>146.39999389648</ele>
        <time>2020-10-16T13:30:37.000Z</time>
      </trkpt>
      <trkpt lat="48.24461" lon="-2.87223">
        <ele>146.39999389648</ele>
        <time>2020-10-16T13:30:38.000Z</time>
      </trkpt>
      <trkpt lat="48.24452" lon="-2.8722">
        <ele>146</ele>
        <time>2020-10-16T13:30:39.000Z</time>
      </trkpt>
      <trkpt lat="48.24452" lon="-2.8722">
        <ele>146</ele>
        <time>2020-10-16T13:30:40.000Z</time>
      </trkpt>
      <trkpt lat="48.24447" lon="-2.87218">
        <ele>145.80000305176</ele>
        <time>2020-10-16T13:30:41.000Z</time>
      </trkpt>
      <trkpt lat="48.24438" lon="-2.87217">
        <ele>145.39999389648</ele>
        <time>2020-10-16T13:30:42.000Z</time>
      </trkpt>
      <trkpt lat="48.24438" lon="-2.87217">
        <ele>145.39999389648</ele>
        <time>2020-10-16T13:30:43.000Z</time>
      </trkpt>
      <trkpt lat="48.24433" lon="-2.87217">
        <ele>145.19999694824</ele>
        <time>2020-10-16T13:30:44.000Z</time>
      </trkpt>
      <trkpt lat="48.24424" lon="-2.87216">
        <ele>145</ele>
        <time>2020-10-16T13:30:45.000Z</time>
      </trkpt>
      <trkpt lat="48.24424" lon="-2.87216">
        <ele>145</ele>
        <time>2020-10-16T13:30:46.000Z</time>
      </trkpt>
      <trkpt lat="48.2442" lon="-2.87216">
        <ele>145</ele>
        <time>2020-10-16T13:30:47.000Z</time>
      </trkpt>
      <trkpt lat="48.24412" lon="-2.87217">
        <ele>145</ele>
        <time>2020-10-16T13:30:48.000Z</time>
      </trkpt>
      <trkpt lat="48.24412" lon="-2.87217">
        <ele>145</ele>
        <time>2020-10-16T13:30:49.000Z</time>
      </trkpt>
      <trkpt lat="48.24407" lon="-2.87217">
        <ele>145</ele>
        <time>2020-10-16T13:30:50.000Z</time>
      </trkpt>
      <trkpt lat="48.244" lon="-2.87218">
        <ele>145</ele>
        <time>2020-10-16T13:30:51.000Z</time>
      </trkpt>
      <trkpt lat="48.244" lon="-2.87218">
        <ele>145</ele>
        <time>2020-10-16T13:30:52.000Z</time>
      </trkpt>
      <trkpt lat="48.24396" lon="-2.87218">
        <ele>144.80000305176</ele>
        <time>2020-10-16T13:30:53.000Z</time>
      </trkpt>
      <trkpt lat="48.24389" lon="-2.87221">
        <ele>145</ele>
        <time>2020-10-16T13:30:54.000Z</time>
      </trkpt>
      <trkpt lat="48.24386" lon="-2.87222">
        <ele>145</ele>
        <time>2020-10-16T13:30:55.000Z</time>
      </trkpt>
      <trkpt lat="48.24386" lon="-2.87222">
        <ele>145</ele>
        <time>2020-10-16T13:30:56.000Z</time>
      </trkpt>
      <trkpt lat="48.24382" lon="-2.87224">
        <ele>145.19999694824</ele>
        <time>2020-10-16T13:30:57.000Z</time>
      </trkpt>
      <trkpt lat="48.24376" lon="-2.87228">
        <ele>145.39999389648</ele>
        <time>2020-10-16T13:30:58.000Z</time>
      </trkpt>
      <trkpt lat="48.24376" lon="-2.87228">
        <ele>145.39999389648</ele>
        <time>2020-10-16T13:30:59.000Z</time>
      </trkpt>
      <trkpt lat="48.24373" lon="-2.87229">
        <ele>145.39999389648</ele>
        <time>2020-10-16T13:31:00.000Z</time>
      </trkpt>
      <trkpt lat="48.24371" lon="-2.8723">
        <ele>145.39999389648</ele>
        <time>2020-10-16T13:31:01.000Z</time>
      </trkpt>
      <trkpt lat="48.24366" lon="-2.87231">
        <ele>145.39999389648</ele>
        <time>2020-10-16T13:31:02.000Z</time>
      </trkpt>
      <trkpt lat="48.24366" lon="-2.87231">
        <ele>145.39999389648</ele>
        <time>2020-10-16T13:31:03.000Z</time>
      </trkpt>
      <trkpt lat="48.24364" lon="-2.87238">
        <ele>146</ele>
        <time>2020-10-16T13:31:04.000Z</time>
      </trkpt>
      <trkpt lat="48.24364" lon="-2.87238">
        <ele>146</ele>
        <time>2020-10-16T13:31:05.000Z</time>
      </trkpt>
      <trkpt lat="48.24364" lon="-2.87242">
        <ele>146.19999694824</ele>
        <time>2020-10-16T13:31:06.000Z</time>
      </trkpt>
      <trkpt lat="48.24364" lon="-2.8725">
        <ele>146.80000305176</ele>
        <time>2020-10-16T13:31:07.000Z</time>
      </trkpt>
      <trkpt lat="48.24364" lon="-2.8725">
        <ele>146.80000305176</ele>
        <time>2020-10-16T13:31:08.000Z</time>
      </trkpt>
      <trkpt lat="48.24364" lon="-2.87254">
        <ele>147</ele>
        <time>2020-10-16T13:31:09.000Z</time>
      </trkpt>
      <trkpt lat="48.24364" lon="-2.87263">
        <ele>147.39999389648</ele>
        <time>2020-10-16T13:31:10.000Z</time>
      </trkpt>
      <trkpt lat="48.24364" lon="-2.87263">
        <ele>147.39999389648</ele>
        <time>2020-10-16T13:31:11.000Z</time>
      </trkpt>
      <trkpt lat="48.24364" lon="-2.87268">
        <ele>147.39999389648</ele>
        <time>2020-10-16T13:31:12.000Z</time>
      </trkpt>
      <trkpt lat="48.24364" lon="-2.87276">
        <ele>147.39999389648</ele>
        <time>2020-10-16T13:31:13.000Z</time>
      </trkpt>
      <trkpt lat="48.24364" lon="-2.87276">
        <ele>147.39999389648</ele>
        <time>2020-10-16T13:31:14.000Z</time>
      </trkpt>
      <trkpt lat="48.24364" lon="-2.8728">
        <ele>147.60000610352</ele>
        <time>2020-10-16T13:31:15.000Z</time>
      </trkpt>
      <trkpt lat="48.24363" lon="-2.87289">
        <ele>147.60000610352</ele>
        <time>2020-10-16T13:31:16.000Z</time>
      </trkpt>
      <trkpt lat="48.24363" lon="-2.87289">
        <ele>147.60000610352</ele>
        <time>2020-10-16T13:31:17.000Z</time>
      </trkpt>
      <trkpt lat="48.24363" lon="-2.87294">
        <ele>147.60000610352</ele>
        <time>2020-10-16T13:31:18.000Z</time>
      </trkpt>
      <trkpt lat="48.24362" lon="-2.87303">
        <ele>147.80000305176</ele>
        <time>2020-10-16T13:31:19.000Z</time>
      </trkpt>
      <trkpt lat="48.24362" lon="-2.87303">
        <ele>147.80000305176</ele>
        <time>2020-10-16T13:31:20.000Z</time>
      </trkpt>
      <trkpt lat="48.24362" lon="-2.87313">
        <ele>147.80000305176</ele>
        <time>2020-10-16T13:31:21.000Z</time>
      </trkpt>
      <trkpt lat="48.24362" lon="-2.87313">
        <ele>147.80000305176</ele>
        <time>2020-10-16T13:31:22.000Z</time>
      </trkpt>
      <trkpt lat="48.24362" lon="-2.87322">
        <ele>148</ele>
        <time>2020-10-16T13:31:23.000Z</time>
      </trkpt>
      <trkpt lat="48.24362" lon="-2.87322">
        <ele>148</ele>
        <time>2020-10-16T13:31:24.000Z</time>
      </trkpt>
      <trkpt lat="48.24362" lon="-2.87327">
        <ele>148.19999694824</ele>
        <time>2020-10-16T13:31:25.000Z</time>
      </trkpt>
      <trkpt lat="48.24362" lon="-2.87337">
        <ele>148.39999389648</ele>
        <time>2020-10-16T13:31:26.000Z</time>
      </trkpt>
      <trkpt lat="48.24362" lon="-2.87337">
        <ele>148.39999389648</ele>
        <time>2020-10-16T13:31:27.000Z</time>
      </trkpt>
      <trkpt lat="48.24362" lon="-2.87341">
        <ele>148.60000610352</ele>
        <time>2020-10-16T13:31:28.000Z</time>
      </trkpt>
      <trkpt lat="48.24362" lon="-2.87346">
        <ele>149</ele>
        <time>2020-10-16T13:31:29.000Z</time>
      </trkpt>
      <trkpt lat="48.24363" lon="-2.87355">
        <ele>149.60000610352</ele>
        <time>2020-10-16T13:31:30.000Z</time>
      </trkpt>
      <trkpt lat="48.24363" lon="-2.87355">
        <ele>149.60000610352</ele>
        <time>2020-10-16T13:31:31.000Z</time>
      </trkpt>
      <trkpt lat="48.24363" lon="-2.87364">
        <ele>150.19999694824</ele>
        <time>2020-10-16T13:31:32.000Z</time>
      </trkpt>
      <trkpt lat="48.24363" lon="-2.87364">
        <ele>150.19999694824</ele>
        <time>2020-10-16T13:31:33.000Z</time>
      </trkpt>
      <trkpt lat="48.24364" lon="-2.87369">
        <ele>150.39999389648</ele>
        <time>2020-10-16T13:31:34.000Z</time>
      </trkpt>
      <trkpt lat="48.24365" lon="-2.87378">
        <ele>151</ele>
        <time>2020-10-16T13:31:35.000Z</time>
      </trkpt>
      <trkpt lat="48.24365" lon="-2.87378">
        <ele>151</ele>
        <time>2020-10-16T13:31:36.000Z</time>
      </trkpt>
      <trkpt lat="48.24365" lon="-2.87383">
        <ele>151.19999694824</ele>
        <time>2020-10-16T13:31:37.000Z</time>
      </trkpt>
      <trkpt lat="48.24367" lon="-2.87391">
        <ele>151.80000305176</ele>
        <time>2020-10-16T13:31:38.000Z</time>
      </trkpt>
      <trkpt lat="48.24367" lon="-2.87391">
        <ele>151.80000305176</ele>
        <time>2020-10-16T13:31:39.000Z</time>
      </trkpt>
      <trkpt lat="48.24368" lon="-2.87396">
        <ele>152.19999694824</ele>
        <time>2020-10-16T13:31:40.000Z</time>
      </trkpt>
      <trkpt lat="48.2437" lon="-2.87404">
        <ele>152.80000305176</ele>
        <time>2020-10-16T13:31:41.000Z</time>
      </trkpt>
      <trkpt lat="48.2437" lon="-2.87404">
        <ele>152.80000305176</ele>
        <time>2020-10-16T13:31:42.000Z</time>
      </trkpt>
      <trkpt lat="48.24371" lon="-2.87413">
        <ele>153.39999389648</ele>
        <time>2020-10-16T13:31:43.000Z</time>
      </trkpt>
      <trkpt lat="48.24371" lon="-2.87413">
        <ele>153.39999389648</ele>
        <time>2020-10-16T13:31:44.000Z</time>
      </trkpt>
      <trkpt lat="48.24372" lon="-2.87418">
        <ele>153.60000610352</ele>
        <time>2020-10-16T13:31:45.000Z</time>
      </trkpt>
      <trkpt lat="48.24373" lon="-2.87426">
        <ele>154.19999694824</ele>
        <time>2020-10-16T13:31:46.000Z</time>
      </trkpt>
      <trkpt lat="48.24373" lon="-2.87426">
        <ele>154.19999694824</ele>
        <time>2020-10-16T13:31:47.000Z</time>
      </trkpt>
      <trkpt lat="48.24374" lon="-2.87435">
        <ele>154.39999389648</ele>
        <time>2020-10-16T13:31:48.000Z</time>
      </trkpt>
      <trkpt lat="48.24374" lon="-2.87435">
        <ele>154.39999389648</ele>
        <time>2020-10-16T13:31:49.000Z</time>
      </trkpt>
      <trkpt lat="48.24376" lon="-2.87444">
        <ele>154.80000305176</ele>
        <time>2020-10-16T13:31:50.000Z</time>
      </trkpt>
      <trkpt lat="48.24376" lon="-2.87444">
        <ele>154.80000305176</ele>
        <time>2020-10-16T13:31:51.000Z</time>
      </trkpt>
      <trkpt lat="48.24377" lon="-2.87449">
        <ele>155</ele>
        <time>2020-10-16T13:31:52.000Z</time>
      </trkpt>
      <trkpt lat="48.24377" lon="-2.87453">
        <ele>155.19999694824</ele>
        <time>2020-10-16T13:31:53.000Z</time>
      </trkpt>
      <trkpt lat="48.24379" lon="-2.87462">
        <ele>155.60000610352</ele>
        <time>2020-10-16T13:31:54.000Z</time>
      </trkpt>
      <trkpt lat="48.24379" lon="-2.87462">
        <ele>155.60000610352</ele>
        <time>2020-10-16T13:31:55.000Z</time>
      </trkpt>
      <trkpt lat="48.2438" lon="-2.87472">
        <ele>156</ele>
        <time>2020-10-16T13:31:56.000Z</time>
      </trkpt>
      <trkpt lat="48.2438" lon="-2.87472">
        <ele>156</ele>
        <time>2020-10-16T13:31:57.000Z</time>
      </trkpt>
      <trkpt lat="48.24382" lon="-2.87481">
        <ele>156.39999389648</ele>
        <time>2020-10-16T13:31:58.000Z</time>
      </trkpt>
      <trkpt lat="48.24382" lon="-2.87481">
        <ele>156.39999389648</ele>
        <time>2020-10-16T13:31:59.000Z</time>
      </trkpt>
      <trkpt lat="48.24382" lon="-2.87485">
        <ele>156.60000610352</ele>
        <time>2020-10-16T13:32:00.000Z</time>
      </trkpt>
      <trkpt lat="48.24383" lon="-2.8749">
        <ele>156.80000305176</ele>
        <time>2020-10-16T13:32:01.000Z</time>
      </trkpt>
      <trkpt lat="48.24384" lon="-2.87499">
        <ele>157.19999694824</ele>
        <time>2020-10-16T13:32:02.000Z</time>
      </trkpt>
      <trkpt lat="48.24384" lon="-2.87499">
        <ele>157.19999694824</ele>
        <time>2020-10-16T13:32:03.000Z</time>
      </trkpt>
      <trkpt lat="48.24385" lon="-2.87508">
        <ele>157.39999389648</ele>
        <time>2020-10-16T13:32:04.000Z</time>
      </trkpt>
      <trkpt lat="48.24385" lon="-2.87508">
        <ele>157.39999389648</ele>
        <time>2020-10-16T13:32:05.000Z</time>
      </trkpt>
      <trkpt lat="48.24386" lon="-2.87517">
        <ele>157.80000305176</ele>
        <time>2020-10-16T13:32:06.000Z</time>
      </trkpt>
      <trkpt lat="48.24386" lon="-2.87517">
        <ele>157.80000305176</ele>
        <time>2020-10-16T13:32:07.000Z</time>
      </trkpt>
      <trkpt lat="48.24387" lon="-2.87526">
        <ele>158.19999694824</ele>
        <time>2020-10-16T13:32:08.000Z</time>
      </trkpt>
      <trkpt lat="48.24387" lon="-2.87526">
        <ele>158.19999694824</ele>
        <time>2020-10-16T13:32:09.000Z</time>
      </trkpt>
      <trkpt lat="48.24388" lon="-2.87535">
        <ele>158.60000610352</ele>
        <time>2020-10-16T13:32:10.000Z</time>
      </trkpt>
      <trkpt lat="48.24388" lon="-2.87535">
        <ele>158.60000610352</ele>
        <time>2020-10-16T13:32:11.000Z</time>
      </trkpt>
      <trkpt lat="48.24389" lon="-2.87539">
        <ele>158.80000305176</ele>
        <time>2020-10-16T13:32:12.000Z</time>
      </trkpt>
      <trkpt lat="48.2439" lon="-2.87549">
        <ele>159.19999694824</ele>
        <time>2020-10-16T13:32:13.000Z</time>
      </trkpt>
      <trkpt lat="48.2439" lon="-2.87553">
        <ele>159.39999389648</ele>
        <time>2020-10-16T13:32:14.000Z</time>
      </trkpt>
      <trkpt lat="48.2439" lon="-2.87553">
        <ele>159.39999389648</ele>
        <time>2020-10-16T13:32:15.000Z</time>
      </trkpt>
      <trkpt lat="48.24391" lon="-2.87562">
        <ele>159.80000305176</ele>
        <time>2020-10-16T13:32:16.000Z</time>
      </trkpt>
      <trkpt lat="48.24391" lon="-2.87562">
        <ele>159.80000305176</ele>
        <time>2020-10-16T13:32:17.000Z</time>
      </trkpt>
      <trkpt lat="48.24393" lon="-2.87571">
        <ele>160.39999389648</ele>
        <time>2020-10-16T13:32:18.000Z</time>
      </trkpt>
      <trkpt lat="48.24393" lon="-2.87571">
        <ele>160.39999389648</ele>
        <time>2020-10-16T13:32:19.000Z</time>
      </trkpt>
      <trkpt lat="48.24394" lon="-2.8758">
        <ele>160.80000305176</ele>
        <time>2020-10-16T13:32:20.000Z</time>
      </trkpt>
      <trkpt lat="48.24394" lon="-2.8758">
        <ele>160.80000305176</ele>
        <time>2020-10-16T13:32:21.000Z</time>
      </trkpt>
      <trkpt lat="48.24396" lon="-2.87589">
        <ele>161.39999389648</ele>
        <time>2020-10-16T13:32:22.000Z</time>
      </trkpt>
      <trkpt lat="48.24396" lon="-2.87589">
        <ele>161.39999389648</ele>
        <time>2020-10-16T13:32:23.000Z</time>
      </trkpt>
      <trkpt lat="48.24399" lon="-2.87597">
        <ele>162</ele>
        <time>2020-10-16T13:32:24.000Z</time>
      </trkpt>
      <trkpt lat="48.24399" lon="-2.87597">
        <ele>162</ele>
        <time>2020-10-16T13:32:25.000Z</time>
      </trkpt>
      <trkpt lat="48.24402" lon="-2.87604">
        <ele>162.60000610352</ele>
        <time>2020-10-16T13:32:26.000Z</time>
      </trkpt>
      <trkpt lat="48.24402" lon="-2.87604">
        <ele>162.60000610352</ele>
        <time>2020-10-16T13:32:27.000Z</time>
      </trkpt>
      <trkpt lat="48.24405" lon="-2.87612">
        <ele>163.19999694824</ele>
        <time>2020-10-16T13:32:28.000Z</time>
      </trkpt>
      <trkpt lat="48.24405" lon="-2.87612">
        <ele>163.19999694824</ele>
        <time>2020-10-16T13:32:29.000Z</time>
      </trkpt>
      <trkpt lat="48.24408" lon="-2.87619">
        <ele>163.60000610352</ele>
        <time>2020-10-16T13:32:30.000Z</time>
      </trkpt>
      <trkpt lat="48.24408" lon="-2.87619">
        <ele>163.60000610352</ele>
        <time>2020-10-16T13:32:31.000Z</time>
      </trkpt>
      <trkpt lat="48.24413" lon="-2.87625">
        <ele>164</ele>
        <time>2020-10-16T13:32:32.000Z</time>
      </trkpt>
      <trkpt lat="48.24413" lon="-2.87625">
        <ele>164</ele>
        <time>2020-10-16T13:32:33.000Z</time>
      </trkpt>
      <trkpt lat="48.24417" lon="-2.87627">
        <ele>164.39999389648</ele>
        <time>2020-10-16T13:32:34.000Z</time>
      </trkpt>
      <trkpt lat="48.24417" lon="-2.87627">
        <ele>164.39999389648</ele>
        <time>2020-10-16T13:32:35.000Z</time>
      </trkpt>
      <trkpt lat="48.24423" lon="-2.87624">
        <ele>164.39999389648</ele>
        <time>2020-10-16T13:32:36.000Z</time>
      </trkpt>
      <trkpt lat="48.24423" lon="-2.87624">
        <ele>164.39999389648</ele>
        <time>2020-10-16T13:32:37.000Z</time>
      </trkpt>
      <trkpt lat="48.24427" lon="-2.87616">
        <ele>164.19999694824</ele>
        <time>2020-10-16T13:32:38.000Z</time>
      </trkpt>
      <trkpt lat="48.24427" lon="-2.87616">
        <ele>164.19999694824</ele>
        <time>2020-10-16T13:32:39.000Z</time>
      </trkpt>
      <trkpt lat="48.24431" lon="-2.87605">
        <ele>163.80000305176</ele>
        <time>2020-10-16T13:32:40.000Z</time>
      </trkpt>
      <trkpt lat="48.24431" lon="-2.87605">
        <ele>163.80000305176</ele>
        <time>2020-10-16T13:32:41.000Z</time>
      </trkpt>
      <trkpt lat="48.24434" lon="-2.87599">
        <ele>163.39999389648</ele>
        <time>2020-10-16T13:32:42.000Z</time>
      </trkpt>
      <trkpt lat="48.24436" lon="-2.87592">
        <ele>163.19999694824</ele>
        <time>2020-10-16T13:32:43.000Z</time>
      </trkpt>
      <trkpt lat="48.24443" lon="-2.87579">
        <ele>162.39999389648</ele>
        <time>2020-10-16T13:32:44.000Z</time>
      </trkpt>
      <trkpt lat="48.24443" lon="-2.87579">
        <ele>162.39999389648</ele>
        <time>2020-10-16T13:32:45.000Z</time>
      </trkpt>
      <trkpt lat="48.2445" lon="-2.87563">
        <ele>161.39999389648</ele>
        <time>2020-10-16T13:32:46.000Z</time>
      </trkpt>
      <trkpt lat="48.2445" lon="-2.87563">
        <ele>161.39999389648</ele>
        <time>2020-10-16T13:32:47.000Z</time>
      </trkpt>
      <trkpt lat="48.24458" lon="-2.87545">
        <ele>160.60000610352</ele>
        <time>2020-10-16T13:32:48.000Z</time>
      </trkpt>
      <trkpt lat="48.24458" lon="-2.87545">
        <ele>160.60000610352</ele>
        <time>2020-10-16T13:32:49.000Z</time>
      </trkpt>
      <trkpt lat="48.24468" lon="-2.87528">
        <ele>159.60000610352</ele>
        <time>2020-10-16T13:32:50.000Z</time>
      </trkpt>
      <trkpt lat="48.24468" lon="-2.87528">
        <ele>159.60000610352</ele>
        <time>2020-10-16T13:32:51.000Z</time>
      </trkpt>
      <trkpt lat="48.24478" lon="-2.87511">
        <ele>158.60000610352</ele>
        <time>2020-10-16T13:32:52.000Z</time>
      </trkpt>
      <trkpt lat="48.24478" lon="-2.87511">
        <ele>158.60000610352</ele>
        <time>2020-10-16T13:32:53.000Z</time>
      </trkpt>
      <trkpt lat="48.24491" lon="-2.87494">
        <ele>157.80000305176</ele>
        <time>2020-10-16T13:32:54.000Z</time>
      </trkpt>
      <trkpt lat="48.24491" lon="-2.87494">
        <ele>157.80000305176</ele>
        <time>2020-10-16T13:32:55.000Z</time>
      </trkpt>
      <trkpt lat="48.24504" lon="-2.87476">
        <ele>157</ele>
        <time>2020-10-16T13:32:56.000Z</time>
      </trkpt>
      <trkpt lat="48.24504" lon="-2.87476">
        <ele>157</ele>
        <time>2020-10-16T13:32:57.000Z</time>
      </trkpt>
      <trkpt lat="48.24517" lon="-2.8746">
        <ele>156.19999694824</ele>
        <time>2020-10-16T13:32:58.000Z</time>
      </trkpt>
      <trkpt lat="48.24517" lon="-2.8746">
        <ele>156.19999694824</ele>
        <time>2020-10-16T13:32:59.000Z</time>
      </trkpt>
      <trkpt lat="48.24524" lon="-2.87451">
        <ele>155.60000610352</ele>
        <time>2020-10-16T13:33:00.000Z</time>
      </trkpt>
      <trkpt lat="48.24531" lon="-2.87441">
        <ele>155</ele>
        <time>2020-10-16T13:33:01.000Z</time>
      </trkpt>
      <trkpt lat="48.24544" lon="-2.87424">
        <ele>153.80000305176</ele>
        <time>2020-10-16T13:33:02.000Z</time>
      </trkpt>
      <trkpt lat="48.24544" lon="-2.87424">
        <ele>153.80000305176</ele>
        <time>2020-10-16T13:33:03.000Z</time>
      </trkpt>
      <trkpt lat="48.24557" lon="-2.87406">
        <ele>152.60000610352</ele>
        <time>2020-10-16T13:33:04.000Z</time>
      </trkpt>
      <trkpt lat="48.24557" lon="-2.87406">
        <ele>152.60000610352</ele>
        <time>2020-10-16T13:33:05.000Z</time>
      </trkpt>
      <trkpt lat="48.2457" lon="-2.87386">
        <ele>151.19999694824</ele>
        <time>2020-10-16T13:33:06.000Z</time>
      </trkpt>
      <trkpt lat="48.2457" lon="-2.87386">
        <ele>151.19999694824</ele>
        <time>2020-10-16T13:33:07.000Z</time>
      </trkpt>
      <trkpt lat="48.24582" lon="-2.87363">
        <ele>149.60000610352</ele>
        <time>2020-10-16T13:33:08.000Z</time>
      </trkpt>
      <trkpt lat="48.24582" lon="-2.87363">
        <ele>149.60000610352</ele>
        <time>2020-10-16T13:33:09.000Z</time>
      </trkpt>
      <trkpt lat="48.24591" lon="-2.87338">
        <ele>148.19999694824</ele>
        <time>2020-10-16T13:33:10.000Z</time>
      </trkpt>
      <trkpt lat="48.24591" lon="-2.87338">
        <ele>148.19999694824</ele>
        <time>2020-10-16T13:33:11.000Z</time>
      </trkpt>
      <trkpt lat="48.246" lon="-2.87313">
        <ele>147</ele>
        <time>2020-10-16T13:33:12.000Z</time>
      </trkpt>
      <trkpt lat="48.24605" lon="-2.87301">
        <ele>146.39999389648</ele>
        <time>2020-10-16T13:33:13.000Z</time>
      </trkpt>
      <trkpt lat="48.24605" lon="-2.87301">
        <ele>146.39999389648</ele>
        <time>2020-10-16T13:33:14.000Z</time>
      </trkpt>
      <trkpt lat="48.24614" lon="-2.87278">
        <ele>145.60000610352</ele>
        <time>2020-10-16T13:33:15.000Z</time>
      </trkpt>
      <trkpt lat="48.24614" lon="-2.87278">
        <ele>145.60000610352</ele>
        <time>2020-10-16T13:33:16.000Z</time>
      </trkpt>
      <trkpt lat="48.24618" lon="-2.87267">
        <ele>145.19999694824</ele>
        <time>2020-10-16T13:33:17.000Z</time>
      </trkpt>
      <trkpt lat="48.24626" lon="-2.87246">
        <ele>144.60000610352</ele>
        <time>2020-10-16T13:33:18.000Z</time>
      </trkpt>
      <trkpt lat="48.24626" lon="-2.87246">
        <ele>144.60000610352</ele>
        <time>2020-10-16T13:33:19.000Z</time>
      </trkpt>
      <trkpt lat="48.24634" lon="-2.87228">
        <ele>144.60000610352</ele>
        <time>2020-10-16T13:33:20.000Z</time>
      </trkpt>
      <trkpt lat="48.24634" lon="-2.87228">
        <ele>144.60000610352</ele>
        <time>2020-10-16T13:33:21.000Z</time>
      </trkpt>
      <trkpt lat="48.24642" lon="-2.87212">
        <ele>144.39999389648</ele>
        <time>2020-10-16T13:33:22.000Z</time>
      </trkpt>
      <trkpt lat="48.24642" lon="-2.87212">
        <ele>144.39999389648</ele>
        <time>2020-10-16T13:33:23.000Z</time>
      </trkpt>
      <trkpt lat="48.2465" lon="-2.87197">
        <ele>144.39999389648</ele>
        <time>2020-10-16T13:33:24.000Z</time>
      </trkpt>
      <trkpt lat="48.2465" lon="-2.87197">
        <ele>144.39999389648</ele>
        <time>2020-10-16T13:33:25.000Z</time>
      </trkpt>
      <trkpt lat="48.24656" lon="-2.87184">
        <ele>144.19999694824</ele>
        <time>2020-10-16T13:33:26.000Z</time>
      </trkpt>
      <trkpt lat="48.24656" lon="-2.87184">
        <ele>144.19999694824</ele>
        <time>2020-10-16T13:33:27.000Z</time>
      </trkpt>
      <trkpt lat="48.24662" lon="-2.87173">
        <ele>144.19999694824</ele>
        <time>2020-10-16T13:33:28.000Z</time>
      </trkpt>
      <trkpt lat="48.24662" lon="-2.87173">
        <ele>144.19999694824</ele>
        <time>2020-10-16T13:33:29.000Z</time>
      </trkpt>
      <trkpt lat="48.24666" lon="-2.87164">
        <ele>143.80000305176</ele>
        <time>2020-10-16T13:33:30.000Z</time>
      </trkpt>
      <trkpt lat="48.24666" lon="-2.87164">
        <ele>143.80000305176</ele>
        <time>2020-10-16T13:33:31.000Z</time>
      </trkpt>
      <trkpt lat="48.24668" lon="-2.8716">
        <ele>143.60000610352</ele>
        <time>2020-10-16T13:33:32.000Z</time>
      </trkpt>
      <trkpt lat="48.24673" lon="-2.87157">
        <ele>143.39999389648</ele>
        <time>2020-10-16T13:33:33.000Z</time>
      </trkpt>
      <trkpt lat="48.24673" lon="-2.87157">
        <ele>143.39999389648</ele>
        <time>2020-10-16T13:33:34.000Z</time>
      </trkpt>
      <trkpt lat="48.24678" lon="-2.8716">
        <ele>143.39999389648</ele>
        <time>2020-10-16T13:33:35.000Z</time>
      </trkpt>
      <trkpt lat="48.24678" lon="-2.8716">
        <ele>143.39999389648</ele>
        <time>2020-10-16T13:33:36.000Z</time>
      </trkpt>
      <trkpt lat="48.24683" lon="-2.87167">
        <ele>143.60000610352</ele>
        <time>2020-10-16T13:33:37.000Z</time>
      </trkpt>
      <trkpt lat="48.24683" lon="-2.87167">
        <ele>143.60000610352</ele>
        <time>2020-10-16T13:33:38.000Z</time>
      </trkpt>
      <trkpt lat="48.24686" lon="-2.87177">
        <ele>143.60000610352</ele>
        <time>2020-10-16T13:33:39.000Z</time>
      </trkpt>
      <trkpt lat="48.24686" lon="-2.87177">
        <ele>143.60000610352</ele>
        <time>2020-10-16T13:33:40.000Z</time>
      </trkpt>
      <trkpt lat="48.24688" lon="-2.87188">
        <ele>143.39999389648</ele>
        <time>2020-10-16T13:33:41.000Z</time>
      </trkpt>
      <trkpt lat="48.24688" lon="-2.87188">
        <ele>143.39999389648</ele>
        <time>2020-10-16T13:33:42.000Z</time>
      </trkpt>
      <trkpt lat="48.24685" lon="-2.87199">
        <ele>143.60000610352</ele>
        <time>2020-10-16T13:33:43.000Z</time>
      </trkpt>
      <trkpt lat="48.24685" lon="-2.87199">
        <ele>143.60000610352</ele>
        <time>2020-10-16T13:33:44.000Z</time>
      </trkpt>
      <trkpt lat="48.24682" lon="-2.87209">
        <ele>143.80000305176</ele>
        <time>2020-10-16T13:33:45.000Z</time>
      </trkpt>
      <trkpt lat="48.24682" lon="-2.87209">
        <ele>143.80000305176</ele>
        <time>2020-10-16T13:33:46.000Z</time>
      </trkpt>
      <trkpt lat="48.24678" lon="-2.87217">
        <ele>144</ele>
        <time>2020-10-16T13:33:47.000Z</time>
      </trkpt>
      <trkpt lat="48.24678" lon="-2.87217">
        <ele>144</ele>
        <time>2020-10-16T13:33:48.000Z</time>
      </trkpt>
      <trkpt lat="48.24673" lon="-2.87226">
        <ele>144</ele>
        <time>2020-10-16T13:33:49.000Z</time>
      </trkpt>
      <trkpt lat="48.24673" lon="-2.87226">
        <ele>144</ele>
        <time>2020-10-16T13:33:50.000Z</time>
      </trkpt>
      <trkpt lat="48.24668" lon="-2.87234">
        <ele>144.19999694824</ele>
        <time>2020-10-16T13:33:51.000Z</time>
      </trkpt>
      <trkpt lat="48.24666" lon="-2.87238">
        <ele>144.19999694824</ele>
        <time>2020-10-16T13:33:52.000Z</time>
      </trkpt>
      <trkpt lat="48.24666" lon="-2.87238">
        <ele>144.19999694824</ele>
        <time>2020-10-16T13:33:53.000Z</time>
      </trkpt>
      <trkpt lat="48.24661" lon="-2.87249">
        <ele>144.19999694824</ele>
        <time>2020-10-16T13:33:54.000Z</time>
      </trkpt>
      <trkpt lat="48.24661" lon="-2.87249">
        <ele>144.19999694824</ele>
        <time>2020-10-16T13:33:55.000Z</time>
      </trkpt>
      <trkpt lat="48.24656" lon="-2.8726">
        <ele>144.39999389648</ele>
        <time>2020-10-16T13:33:56.000Z</time>
      </trkpt>
      <trkpt lat="48.24656" lon="-2.8726">
        <ele>144.39999389648</ele>
        <time>2020-10-16T13:33:57.000Z</time>
      </trkpt>
      <trkpt lat="48.24652" lon="-2.87271">
        <ele>144.80000305176</ele>
        <time>2020-10-16T13:33:58.000Z</time>
      </trkpt>
      <trkpt lat="48.24652" lon="-2.87271">
        <ele>144.80000305176</ele>
        <time>2020-10-16T13:33:59.000Z</time>
      </trkpt>
      <trkpt lat="48.24649" lon="-2.87278">
        <ele>145.19999694824</ele>
        <time>2020-10-16T13:34:00.000Z</time>
      </trkpt>
      <trkpt lat="48.24647" lon="-2.87284">
        <ele>145.39999389648</ele>
        <time>2020-10-16T13:34:01.000Z</time>
      </trkpt>
      <trkpt lat="48.24643" lon="-2.87297">
        <ele>145.60000610352</ele>
        <time>2020-10-16T13:34:02.000Z</time>
      </trkpt>
      <trkpt lat="48.24643" lon="-2.87297">
        <ele>145.60000610352</ele>
        <time>2020-10-16T13:34:03.000Z</time>
      </trkpt>
      <trkpt lat="48.24639" lon="-2.87312">
        <ele>145.60000610352</ele>
        <time>2020-10-16T13:34:04.000Z</time>
      </trkpt>
      <trkpt lat="48.24639" lon="-2.87312">
        <ele>145.60000610352</ele>
        <time>2020-10-16T13:34:05.000Z</time>
      </trkpt>
      <trkpt lat="48.24636" lon="-2.87326">
        <ele>145.39999389648</ele>
        <time>2020-10-16T13:34:06.000Z</time>
      </trkpt>
      <trkpt lat="48.24636" lon="-2.87326">
        <ele>145.39999389648</ele>
        <time>2020-10-16T13:34:07.000Z</time>
      </trkpt>
      <trkpt lat="48.24633" lon="-2.8734">
        <ele>145.39999389648</ele>
        <time>2020-10-16T13:34:08.000Z</time>
      </trkpt>
      <trkpt lat="48.24633" lon="-2.8734">
        <ele>145.39999389648</ele>
        <time>2020-10-16T13:34:09.000Z</time>
      </trkpt>
      <trkpt lat="48.24631" lon="-2.87353">
        <ele>146.19999694824</ele>
        <time>2020-10-16T13:34:10.000Z</time>
      </trkpt>
      <trkpt lat="48.24631" lon="-2.87353">
        <ele>146.19999694824</ele>
        <time>2020-10-16T13:34:11.000Z</time>
      </trkpt>
      <trkpt lat="48.24628" lon="-2.87367">
        <ele>147</ele>
        <time>2020-10-16T13:34:12.000Z</time>
      </trkpt>
      <trkpt lat="48.24628" lon="-2.87367">
        <ele>147</ele>
        <time>2020-10-16T13:34:13.000Z</time>
      </trkpt>
      <trkpt lat="48.24625" lon="-2.87382">
        <ele>148</ele>
        <time>2020-10-16T13:34:14.000Z</time>
      </trkpt>
      <trkpt lat="48.24625" lon="-2.87382">
        <ele>148</ele>
        <time>2020-10-16T13:34:15.000Z</time>
      </trkpt>
      <trkpt lat="48.24621" lon="-2.87397">
        <ele>149</ele>
        <time>2020-10-16T13:34:16.000Z</time>
      </trkpt>
      <trkpt lat="48.24621" lon="-2.87397">
        <ele>149</ele>
        <time>2020-10-16T13:34:17.000Z</time>
      </trkpt>
      <trkpt lat="48.24618" lon="-2.8741">
        <ele>149</ele>
        <time>2020-10-16T13:34:18.000Z</time>
      </trkpt>
      <trkpt lat="48.24618" lon="-2.8741">
        <ele>149</ele>
        <time>2020-10-16T13:34:19.000Z</time>
      </trkpt>
      <trkpt lat="48.24617" lon="-2.87423">
        <ele>148.80000305176</ele>
        <time>2020-10-16T13:34:20.000Z</time>
      </trkpt>
      <trkpt lat="48.24617" lon="-2.87423">
        <ele>148.80000305176</ele>
        <time>2020-10-16T13:34:21.000Z</time>
      </trkpt>
      <trkpt lat="48.24616" lon="-2.87436">
        <ele>148.80000305176</ele>
        <time>2020-10-16T13:34:22.000Z</time>
      </trkpt>
      <trkpt lat="48.24616" lon="-2.87436">
        <ele>148.80000305176</ele>
        <time>2020-10-16T13:34:23.000Z</time>
      </trkpt>
      <trkpt lat="48.24614" lon="-2.87446">
        <ele>149.19999694824</ele>
        <time>2020-10-16T13:34:24.000Z</time>
      </trkpt>
      <trkpt lat="48.24614" lon="-2.87446">
        <ele>149.19999694824</ele>
        <time>2020-10-16T13:34:25.000Z</time>
      </trkpt>
      <trkpt lat="48.24613" lon="-2.87457">
        <ele>149.39999389648</ele>
        <time>2020-10-16T13:34:26.000Z</time>
      </trkpt>
      <trkpt lat="48.24613" lon="-2.87457">
        <ele>149.39999389648</ele>
        <time>2020-10-16T13:34:27.000Z</time>
      </trkpt>
      <trkpt lat="48.2461" lon="-2.8747">
        <ele>149.80000305176</ele>
        <time>2020-10-16T13:34:28.000Z</time>
      </trkpt>
      <trkpt lat="48.2461" lon="-2.8747">
        <ele>149.80000305176</ele>
        <time>2020-10-16T13:34:29.000Z</time>
      </trkpt>
      <trkpt lat="48.24608" lon="-2.87476">
        <ele>150.19999694824</ele>
        <time>2020-10-16T13:34:30.000Z</time>
      </trkpt>
      <trkpt lat="48.24606" lon="-2.87482">
        <ele>150.39999389648</ele>
        <time>2020-10-16T13:34:31.000Z</time>
      </trkpt>
      <trkpt lat="48.24602" lon="-2.87494">
        <ele>151</ele>
        <time>2020-10-16T13:34:32.000Z</time>
      </trkpt>
      <trkpt lat="48.24602" lon="-2.87494">
        <ele>151</ele>
        <time>2020-10-16T13:34:33.000Z</time>
      </trkpt>
      <trkpt lat="48.24599" lon="-2.87505">
        <ele>151.60000610352</ele>
        <time>2020-10-16T13:34:34.000Z</time>
      </trkpt>
      <trkpt lat="48.24599" lon="-2.87505">
        <ele>151.60000610352</ele>
        <time>2020-10-16T13:34:35.000Z</time>
      </trkpt>
      <trkpt lat="48.24595" lon="-2.87515">
        <ele>152.19999694824</ele>
        <time>2020-10-16T13:34:36.000Z</time>
      </trkpt>
      <trkpt lat="48.24595" lon="-2.87515">
        <ele>152.19999694824</ele>
        <time>2020-10-16T13:34:37.000Z</time>
      </trkpt>
      <trkpt lat="48.24594" lon="-2.87528">
        <ele>152.39999389648</ele>
        <time>2020-10-16T13:34:38.000Z</time>
      </trkpt>
      <trkpt lat="48.24594" lon="-2.87528">
        <ele>152.39999389648</ele>
        <time>2020-10-16T13:34:39.000Z</time>
      </trkpt>
      <trkpt lat="48.24593" lon="-2.87541">
        <ele>152.80000305176</ele>
        <time>2020-10-16T13:34:40.000Z</time>
      </trkpt>
      <trkpt lat="48.24593" lon="-2.87541">
        <ele>152.80000305176</ele>
        <time>2020-10-16T13:34:41.000Z</time>
      </trkpt>
      <trkpt lat="48.24594" lon="-2.87556">
        <ele>152.80000305176</ele>
        <time>2020-10-16T13:34:42.000Z</time>
      </trkpt>
      <trkpt lat="48.24594" lon="-2.87556">
        <ele>152.80000305176</ele>
        <time>2020-10-16T13:34:43.000Z</time>
      </trkpt>
      <trkpt lat="48.24593" lon="-2.87572">
        <ele>153.19999694824</ele>
        <time>2020-10-16T13:34:44.000Z</time>
      </trkpt>
      <trkpt lat="48.24593" lon="-2.87572">
        <ele>153.19999694824</ele>
        <time>2020-10-16T13:34:45.000Z</time>
      </trkpt>
      <trkpt lat="48.24593" lon="-2.87587">
        <ele>153.39999389648</ele>
        <time>2020-10-16T13:34:46.000Z</time>
      </trkpt>
      <trkpt lat="48.24593" lon="-2.87587">
        <ele>153.39999389648</ele>
        <time>2020-10-16T13:34:47.000Z</time>
      </trkpt>
      <trkpt lat="48.24593" lon="-2.87601">
        <ele>153.39999389648</ele>
        <time>2020-10-16T13:34:48.000Z</time>
      </trkpt>
      <trkpt lat="48.24593" lon="-2.87601">
        <ele>153.39999389648</ele>
        <time>2020-10-16T13:34:49.000Z</time>
      </trkpt>
      <trkpt lat="48.24593" lon="-2.87611">
        <ele>153.60000610352</ele>
        <time>2020-10-16T13:34:50.000Z</time>
      </trkpt>
      <trkpt lat="48.24594" lon="-2.87616">
        <ele>153.60000610352</ele>
        <time>2020-10-16T13:34:51.000Z</time>
      </trkpt>
      <trkpt lat="48.24594" lon="-2.87616">
        <ele>153.60000610352</ele>
        <time>2020-10-16T13:34:52.000Z</time>
      </trkpt>
      <trkpt lat="48.24594" lon="-2.87623">
        <ele>153.60000610352</ele>
        <time>2020-10-16T13:34:53.000Z</time>
      </trkpt>
      <trkpt lat="48.24594" lon="-2.87623">
        <ele>153.60000610352</ele>
        <time>2020-10-16T13:34:54.000Z</time>
      </trkpt>
      <trkpt lat="48.24594" lon="-2.87632">
        <ele>153.80000305176</ele>
        <time>2020-10-16T13:34:55.000Z</time>
      </trkpt>
      <trkpt lat="48.24594" lon="-2.87632">
        <ele>153.80000305176</ele>
        <time>2020-10-16T13:34:56.000Z</time>
      </trkpt>
      <trkpt lat="48.24594" lon="-2.87642">
        <ele>153.80000305176</ele>
        <time>2020-10-16T13:34:57.000Z</time>
      </trkpt>
      <trkpt lat="48.24594" lon="-2.87642">
        <ele>153.80000305176</ele>
        <time>2020-10-16T13:34:58.000Z</time>
      </trkpt>
      <trkpt lat="48.24593" lon="-2.87654">
        <ele>154.19999694824</ele>
        <time>2020-10-16T13:34:59.000Z</time>
      </trkpt>
      <trkpt lat="48.24593" lon="-2.87654">
        <ele>154.19999694824</ele>
        <time>2020-10-16T13:35:00.000Z</time>
      </trkpt>
      <trkpt lat="48.24594" lon="-2.87666">
        <ele>154.19999694824</ele>
        <time>2020-10-16T13:35:01.000Z</time>
      </trkpt>
      <trkpt lat="48.24594" lon="-2.87666">
        <ele>154.19999694824</ele>
        <time>2020-10-16T13:35:02.000Z</time>
      </trkpt>
      <trkpt lat="48.24593" lon="-2.87676">
        <ele>154.19999694824</ele>
        <time>2020-10-16T13:35:03.000Z</time>
      </trkpt>
      <trkpt lat="48.24593" lon="-2.87676">
        <ele>154.19999694824</ele>
        <time>2020-10-16T13:35:04.000Z</time>
      </trkpt>
      <trkpt lat="48.24592" lon="-2.87687">
        <ele>154.60000610352</ele>
        <time>2020-10-16T13:35:05.000Z</time>
      </trkpt>
      <trkpt lat="48.24592" lon="-2.87687">
        <ele>154.60000610352</ele>
        <time>2020-10-16T13:35:06.000Z</time>
      </trkpt>
      <trkpt lat="48.24589" lon="-2.87698">
        <ele>155</ele>
        <time>2020-10-16T13:35:07.000Z</time>
      </trkpt>
      <trkpt lat="48.24589" lon="-2.87698">
        <ele>155</ele>
        <time>2020-10-16T13:35:08.000Z</time>
      </trkpt>
      <trkpt lat="48.24584" lon="-2.87707">
        <ele>155.39999389648</ele>
        <time>2020-10-16T13:35:09.000Z</time>
      </trkpt>
      <trkpt lat="48.24584" lon="-2.87707">
        <ele>155.39999389648</ele>
        <time>2020-10-16T13:35:10.000Z</time>
      </trkpt>
      <trkpt lat="48.24579" lon="-2.87715">
        <ele>156</ele>
        <time>2020-10-16T13:35:11.000Z</time>
      </trkpt>
      <trkpt lat="48.24579" lon="-2.87715">
        <ele>156</ele>
        <time>2020-10-16T13:35:12.000Z</time>
      </trkpt>
      <trkpt lat="48.24575" lon="-2.87721">
        <ele>156.60000610352</ele>
        <time>2020-10-16T13:35:13.000Z</time>
      </trkpt>
      <trkpt lat="48.24575" lon="-2.87721">
        <ele>156.60000610352</ele>
        <time>2020-10-16T13:35:14.000Z</time>
      </trkpt>
      <trkpt lat="48.24572" lon="-2.87726">
        <ele>157</ele>
        <time>2020-10-16T13:35:15.000Z</time>
      </trkpt>
      <trkpt lat="48.24572" lon="-2.87726">
        <ele>157</ele>
        <time>2020-10-16T13:35:16.000Z</time>
      </trkpt>
      <trkpt lat="48.24569" lon="-2.87734">
        <ele>157.19999694824</ele>
        <time>2020-10-16T13:35:17.000Z</time>
      </trkpt>
      <trkpt lat="48.24569" lon="-2.87734">
        <ele>157.19999694824</ele>
        <time>2020-10-16T13:35:18.000Z</time>
      </trkpt>
      <trkpt lat="48.24565" lon="-2.87745">
        <ele>157.80000305176</ele>
        <time>2020-10-16T13:35:19.000Z</time>
      </trkpt>
      <trkpt lat="48.24565" lon="-2.87745">
        <ele>157.80000305176</ele>
        <time>2020-10-16T13:35:20.000Z</time>
      </trkpt>
      <trkpt lat="48.24563" lon="-2.87755">
        <ele>158.19999694824</ele>
        <time>2020-10-16T13:35:21.000Z</time>
      </trkpt>
      <trkpt lat="48.24563" lon="-2.87755">
        <ele>158.19999694824</ele>
        <time>2020-10-16T13:35:22.000Z</time>
      </trkpt>
      <trkpt lat="48.24563" lon="-2.87768">
        <ele>158.39999389648</ele>
        <time>2020-10-16T13:35:23.000Z</time>
      </trkpt>
      <trkpt lat="48.24563" lon="-2.87768">
        <ele>158.39999389648</ele>
        <time>2020-10-16T13:35:24.000Z</time>
      </trkpt>
      <trkpt lat="48.24563" lon="-2.87779">
        <ele>158.39999389648</ele>
        <time>2020-10-16T13:35:25.000Z</time>
      </trkpt>
      <trkpt lat="48.24563" lon="-2.87779">
        <ele>158.39999389648</ele>
        <time>2020-10-16T13:35:26.000Z</time>
      </trkpt>
      <trkpt lat="48.24565" lon="-2.87788">
        <ele>158.19999694824</ele>
        <time>2020-10-16T13:35:27.000Z</time>
      </trkpt>
      <trkpt lat="48.24565" lon="-2.87788">
        <ele>158.19999694824</ele>
        <time>2020-10-16T13:35:28.000Z</time>
      </trkpt>
      <trkpt lat="48.24567" lon="-2.87797">
        <ele>157.80000305176</ele>
        <time>2020-10-16T13:35:29.000Z</time>
      </trkpt>
      <trkpt lat="48.24567" lon="-2.87797">
        <ele>157.80000305176</ele>
        <time>2020-10-16T13:35:30.000Z</time>
      </trkpt>
      <trkpt lat="48.24568" lon="-2.87807">
        <ele>157.39999389648</ele>
        <time>2020-10-16T13:35:31.000Z</time>
      </trkpt>
      <trkpt lat="48.24568" lon="-2.87807">
        <ele>157.39999389648</ele>
        <time>2020-10-16T13:35:32.000Z</time>
      </trkpt>
      <trkpt lat="48.24566" lon="-2.87815">
        <ele>157.60000610352</ele>
        <time>2020-10-16T13:35:33.000Z</time>
      </trkpt>
      <trkpt lat="48.24566" lon="-2.87815">
        <ele>157.60000610352</ele>
        <time>2020-10-16T13:35:34.000Z</time>
      </trkpt>
      <trkpt lat="48.24563" lon="-2.87823">
        <ele>157.60000610352</ele>
        <time>2020-10-16T13:35:35.000Z</time>
      </trkpt>
      <trkpt lat="48.24563" lon="-2.87823">
        <ele>157.60000610352</ele>
        <time>2020-10-16T13:35:36.000Z</time>
      </trkpt>
      <trkpt lat="48.24561" lon="-2.87829">
        <ele>157.80000305176</ele>
        <time>2020-10-16T13:35:37.000Z</time>
      </trkpt>
      <trkpt lat="48.24561" lon="-2.87829">
        <ele>157.80000305176</ele>
        <time>2020-10-16T13:35:38.000Z</time>
      </trkpt>
      <trkpt lat="48.2456" lon="-2.87835">
        <ele>157.80000305176</ele>
        <time>2020-10-16T13:35:39.000Z</time>
      </trkpt>
      <trkpt lat="48.2456" lon="-2.87835">
        <ele>157.80000305176</ele>
        <time>2020-10-16T13:35:40.000Z</time>
      </trkpt>
      <trkpt lat="48.24561" lon="-2.87841">
        <ele>157.60000610352</ele>
        <time>2020-10-16T13:35:41.000Z</time>
      </trkpt>
      <trkpt lat="48.24561" lon="-2.87841">
        <ele>157.60000610352</ele>
        <time>2020-10-16T13:35:42.000Z</time>
      </trkpt>
      <trkpt lat="48.24561" lon="-2.87847">
        <ele>157.39999389648</ele>
        <time>2020-10-16T13:35:43.000Z</time>
      </trkpt>
      <trkpt lat="48.24561" lon="-2.87847">
        <ele>157.39999389648</ele>
        <time>2020-10-16T13:35:44.000Z</time>
      </trkpt>
      <trkpt lat="48.24564" lon="-2.87854">
        <ele>157</ele>
        <time>2020-10-16T13:35:45.000Z</time>
      </trkpt>
      <trkpt lat="48.24564" lon="-2.87854">
        <ele>157</ele>
        <time>2020-10-16T13:35:46.000Z</time>
      </trkpt>
      <trkpt lat="48.24567" lon="-2.87864">
        <ele>156.60000610352</ele>
        <time>2020-10-16T13:35:47.000Z</time>
      </trkpt>
      <trkpt lat="48.24567" lon="-2.87864">
        <ele>156.60000610352</ele>
        <time>2020-10-16T13:35:48.000Z</time>
      </trkpt>
      <trkpt lat="48.24571" lon="-2.87874">
        <ele>155.60000610352</ele>
        <time>2020-10-16T13:35:49.000Z</time>
      </trkpt>
      <trkpt lat="48.24574" lon="-2.87877">
        <ele>155.19999694824</ele>
        <time>2020-10-16T13:35:50.000Z</time>
      </trkpt>
      <trkpt lat="48.24574" lon="-2.87877">
        <ele>155.19999694824</ele>
        <time>2020-10-16T13:35:51.000Z</time>
      </trkpt>
      <trkpt lat="48.2458" lon="-2.87882">
        <ele>154.19999694824</ele>
        <time>2020-10-16T13:35:52.000Z</time>
      </trkpt>
      <trkpt lat="48.2458" lon="-2.87882">
        <ele>154.19999694824</ele>
        <time>2020-10-16T13:35:53.000Z</time>
      </trkpt>
      <trkpt lat="48.24587" lon="-2.87881">
        <ele>153.19999694824</ele>
        <time>2020-10-16T13:35:54.000Z</time>
      </trkpt>
      <trkpt lat="48.24587" lon="-2.87881">
        <ele>153.19999694824</ele>
        <time>2020-10-16T13:35:55.000Z</time>
      </trkpt>
      <trkpt lat="48.24594" lon="-2.87878">
        <ele>152.39999389648</ele>
        <time>2020-10-16T13:35:56.000Z</time>
      </trkpt>
      <trkpt lat="48.24594" lon="-2.87878">
        <ele>152.39999389648</ele>
        <time>2020-10-16T13:35:57.000Z</time>
      </trkpt>
      <trkpt lat="48.246" lon="-2.8787">
        <ele>152</ele>
        <time>2020-10-16T13:35:58.000Z</time>
      </trkpt>
      <trkpt lat="48.246" lon="-2.8787">
        <ele>152</ele>
        <time>2020-10-16T13:35:59.000Z</time>
      </trkpt>
      <trkpt lat="48.24603" lon="-2.87865">
        <ele>152</ele>
        <time>2020-10-16T13:36:00.000Z</time>
      </trkpt>
      <trkpt lat="48.24606" lon="-2.8786">
        <ele>152</ele>
        <time>2020-10-16T13:36:01.000Z</time>
      </trkpt>
      <trkpt lat="48.24612" lon="-2.8785">
        <ele>151.80000305176</ele>
        <time>2020-10-16T13:36:02.000Z</time>
      </trkpt>
      <trkpt lat="48.24612" lon="-2.8785">
        <ele>151.80000305176</ele>
        <time>2020-10-16T13:36:03.000Z</time>
      </trkpt>
      <trkpt lat="48.24618" lon="-2.87842">
        <ele>151.60000610352</ele>
        <time>2020-10-16T13:36:04.000Z</time>
      </trkpt>
      <trkpt lat="48.24618" lon="-2.87842">
        <ele>151.60000610352</ele>
        <time>2020-10-16T13:36:05.000Z</time>
      </trkpt>
      <trkpt lat="48.24624" lon="-2.87835">
        <ele>151.60000610352</ele>
        <time>2020-10-16T13:36:06.000Z</time>
      </trkpt>
      <trkpt lat="48.24624" lon="-2.87835">
        <ele>151.60000610352</ele>
        <time>2020-10-16T13:36:07.000Z</time>
      </trkpt>
      <trkpt lat="48.24631" lon="-2.87828">
        <ele>151.39999389648</ele>
        <time>2020-10-16T13:36:08.000Z</time>
      </trkpt>
      <trkpt lat="48.24631" lon="-2.87828">
        <ele>151.39999389648</ele>
        <time>2020-10-16T13:36:09.000Z</time>
      </trkpt>
      <trkpt lat="48.24639" lon="-2.87823">
        <ele>151.19999694824</ele>
        <time>2020-10-16T13:36:10.000Z</time>
      </trkpt>
      <trkpt lat="48.24639" lon="-2.87823">
        <ele>151.19999694824</ele>
        <time>2020-10-16T13:36:11.000Z</time>
      </trkpt>
      <trkpt lat="48.24643" lon="-2.87819">
        <ele>151.19999694824</ele>
        <time>2020-10-16T13:36:12.000Z</time>
      </trkpt>
      <trkpt lat="48.24651" lon="-2.87813">
        <ele>151</ele>
        <time>2020-10-16T13:36:13.000Z</time>
      </trkpt>
      <trkpt lat="48.24651" lon="-2.87813">
        <ele>151</ele>
        <time>2020-10-16T13:36:14.000Z</time>
      </trkpt>
      <trkpt lat="48.24659" lon="-2.87808">
        <ele>150.80000305176</ele>
        <time>2020-10-16T13:36:15.000Z</time>
      </trkpt>
      <trkpt lat="48.24659" lon="-2.87808">
        <ele>150.80000305176</ele>
        <time>2020-10-16T13:36:16.000Z</time>
      </trkpt>
      <trkpt lat="48.24667" lon="-2.87803">
        <ele>150.60000610352</ele>
        <time>2020-10-16T13:36:17.000Z</time>
      </trkpt>
      <trkpt lat="48.24667" lon="-2.87803">
        <ele>150.60000610352</ele>
        <time>2020-10-16T13:36:18.000Z</time>
      </trkpt>
      <trkpt lat="48.24672" lon="-2.87799">
        <ele>150.39999389648</ele>
        <time>2020-10-16T13:36:19.000Z</time>
      </trkpt>
      <trkpt lat="48.24672" lon="-2.87799">
        <ele>150.39999389648</ele>
        <time>2020-10-16T13:36:20.000Z</time>
      </trkpt>
      <trkpt lat="48.24674" lon="-2.87797">
        <ele>150.39999389648</ele>
        <time>2020-10-16T13:36:21.000Z</time>
      </trkpt>
      <trkpt lat="48.24677" lon="-2.87796">
        <ele>150.19999694824</ele>
        <time>2020-10-16T13:36:22.000Z</time>
      </trkpt>
      <trkpt lat="48.24682" lon="-2.87794">
        <ele>150</ele>
        <time>2020-10-16T13:36:23.000Z</time>
      </trkpt>
      <trkpt lat="48.24682" lon="-2.87794">
        <ele>150</ele>
        <time>2020-10-16T13:36:24.000Z</time>
      </trkpt>
      <trkpt lat="48.24687" lon="-2.8779">
        <ele>150</ele>
        <time>2020-10-16T13:36:25.000Z</time>
      </trkpt>
      <trkpt lat="48.24687" lon="-2.8779">
        <ele>150</ele>
        <time>2020-10-16T13:36:26.000Z</time>
      </trkpt>
      <trkpt lat="48.24691" lon="-2.87786">
        <ele>149.80000305176</ele>
        <time>2020-10-16T13:36:27.000Z</time>
      </trkpt>
      <trkpt lat="48.24691" lon="-2.87786">
        <ele>149.80000305176</ele>
        <time>2020-10-16T13:36:28.000Z</time>
      </trkpt>
      <trkpt lat="48.24695" lon="-2.87782">
        <ele>149.80000305176</ele>
        <time>2020-10-16T13:36:29.000Z</time>
      </trkpt>
      <trkpt lat="48.24698" lon="-2.8778">
        <ele>149.80000305176</ele>
        <time>2020-10-16T13:36:30.000Z</time>
      </trkpt>
      <trkpt lat="48.24698" lon="-2.8778">
        <ele>149.80000305176</ele>
        <time>2020-10-16T13:36:31.000Z</time>
      </trkpt>
      <trkpt lat="48.24704" lon="-2.87775">
        <ele>149.60000610352</ele>
        <time>2020-10-16T13:36:32.000Z</time>
      </trkpt>
      <trkpt lat="48.24704" lon="-2.87775">
        <ele>149.60000610352</ele>
        <time>2020-10-16T13:36:33.000Z</time>
      </trkpt>
      <trkpt lat="48.24711" lon="-2.8777">
        <ele>149.39999389648</ele>
        <time>2020-10-16T13:36:34.000Z</time>
      </trkpt>
      <trkpt lat="48.24711" lon="-2.8777">
        <ele>149.39999389648</ele>
        <time>2020-10-16T13:36:35.000Z</time>
      </trkpt>
      <trkpt lat="48.24718" lon="-2.87764">
        <ele>149.19999694824</ele>
        <time>2020-10-16T13:36:36.000Z</time>
      </trkpt>
      <trkpt lat="48.24718" lon="-2.87764">
        <ele>149.19999694824</ele>
        <time>2020-10-16T13:36:37.000Z</time>
      </trkpt>
      <trkpt lat="48.24726" lon="-2.87758">
        <ele>149.19999694824</ele>
        <time>2020-10-16T13:36:38.000Z</time>
      </trkpt>
      <trkpt lat="48.24726" lon="-2.87758">
        <ele>149.19999694824</ele>
        <time>2020-10-16T13:36:39.000Z</time>
      </trkpt>
      <trkpt lat="48.24734" lon="-2.87752">
        <ele>148.60000610352</ele>
        <time>2020-10-16T13:36:40.000Z</time>
      </trkpt>
      <trkpt lat="48.24734" lon="-2.87752">
        <ele>148.60000610352</ele>
        <time>2020-10-16T13:36:41.000Z</time>
      </trkpt>
      <trkpt lat="48.24741" lon="-2.87746">
        <ele>148.19999694824</ele>
        <time>2020-10-16T13:36:42.000Z</time>
      </trkpt>
      <trkpt lat="48.24741" lon="-2.87746">
        <ele>148.19999694824</ele>
        <time>2020-10-16T13:36:43.000Z</time>
      </trkpt>
      <trkpt lat="48.24748" lon="-2.8774">
        <ele>147.60000610352</ele>
        <time>2020-10-16T13:36:44.000Z</time>
      </trkpt>
      <trkpt lat="48.24748" lon="-2.8774">
        <ele>147.60000610352</ele>
        <time>2020-10-16T13:36:45.000Z</time>
      </trkpt>
      <trkpt lat="48.24755" lon="-2.87735">
        <ele>147.19999694824</ele>
        <time>2020-10-16T13:36:46.000Z</time>
      </trkpt>
      <trkpt lat="48.24755" lon="-2.87735">
        <ele>147.19999694824</ele>
        <time>2020-10-16T13:36:47.000Z</time>
      </trkpt>
      <trkpt lat="48.24762" lon="-2.8773">
        <ele>146.80000305176</ele>
        <time>2020-10-16T13:36:48.000Z</time>
      </trkpt>
      <trkpt lat="48.24766" lon="-2.87728">
        <ele>146.60000610352</ele>
        <time>2020-10-16T13:36:49.000Z</time>
      </trkpt>
      <trkpt lat="48.24766" lon="-2.87728">
        <ele>146.60000610352</ele>
        <time>2020-10-16T13:36:50.000Z</time>
      </trkpt>
      <trkpt lat="48.24773" lon="-2.87722">
        <ele>146.60000610352</ele>
        <time>2020-10-16T13:36:51.000Z</time>
      </trkpt>
      <trkpt lat="48.24773" lon="-2.87722">
        <ele>146.60000610352</ele>
        <time>2020-10-16T13:36:52.000Z</time>
      </trkpt>
      <trkpt lat="48.24779" lon="-2.87717">
        <ele>146.60000610352</ele>
        <time>2020-10-16T13:36:53.000Z</time>
      </trkpt>
      <trkpt lat="48.24779" lon="-2.87717">
        <ele>146.60000610352</ele>
        <time>2020-10-16T13:36:54.000Z</time>
      </trkpt>
      <trkpt lat="48.24783" lon="-2.87714">
        <ele>146.39999389648</ele>
        <time>2020-10-16T13:36:55.000Z</time>
      </trkpt>
      <trkpt lat="48.24783" lon="-2.87714">
        <ele>146.39999389648</ele>
        <time>2020-10-16T13:36:56.000Z</time>
      </trkpt>
      <trkpt lat="48.24787" lon="-2.87711">
        <ele>146.39999389648</ele>
        <time>2020-10-16T13:36:57.000Z</time>
      </trkpt>
      <trkpt lat="48.24787" lon="-2.87711">
        <ele>146.39999389648</ele>
        <time>2020-10-16T13:36:58.000Z</time>
      </trkpt>
      <trkpt lat="48.24792" lon="-2.87707">
        <ele>146.39999389648</ele>
        <time>2020-10-16T13:36:59.000Z</time>
      </trkpt>
      <trkpt lat="48.24792" lon="-2.87707">
        <ele>146.39999389648</ele>
        <time>2020-10-16T13:37:00.000Z</time>
      </trkpt>
      <trkpt lat="48.24797" lon="-2.87701">
        <ele>146.39999389648</ele>
        <time>2020-10-16T13:37:01.000Z</time>
      </trkpt>
      <trkpt lat="48.24797" lon="-2.87701">
        <ele>146.39999389648</ele>
        <time>2020-10-16T13:37:02.000Z</time>
      </trkpt>
      <trkpt lat="48.24803" lon="-2.87695">
        <ele>146.19999694824</ele>
        <time>2020-10-16T13:37:03.000Z</time>
      </trkpt>
      <trkpt lat="48.24803" lon="-2.87695">
        <ele>146.19999694824</ele>
        <time>2020-10-16T13:37:04.000Z</time>
      </trkpt>
      <trkpt lat="48.24809" lon="-2.87689">
        <ele>146.19999694824</ele>
        <time>2020-10-16T13:37:05.000Z</time>
      </trkpt>
      <trkpt lat="48.24809" lon="-2.87689">
        <ele>146.19999694824</ele>
        <time>2020-10-16T13:37:06.000Z</time>
      </trkpt>
      <trkpt lat="48.24815" lon="-2.87683">
        <ele>146.19999694824</ele>
        <time>2020-10-16T13:37:07.000Z</time>
      </trkpt>
      <trkpt lat="48.24815" lon="-2.87683">
        <ele>146.19999694824</ele>
        <time>2020-10-16T13:37:08.000Z</time>
      </trkpt>
      <trkpt lat="48.24822" lon="-2.87676">
        <ele>146</ele>
        <time>2020-10-16T13:37:09.000Z</time>
      </trkpt>
      <trkpt lat="48.24822" lon="-2.87676">
        <ele>146</ele>
        <time>2020-10-16T13:37:10.000Z</time>
      </trkpt>
      <trkpt lat="48.2483" lon="-2.8767">
        <ele>145.80000305176</ele>
        <time>2020-10-16T13:37:11.000Z</time>
      </trkpt>
      <trkpt lat="48.2483" lon="-2.8767">
        <ele>145.80000305176</ele>
        <time>2020-10-16T13:37:12.000Z</time>
      </trkpt>
      <trkpt lat="48.24838" lon="-2.87664">
        <ele>145.60000610352</ele>
        <time>2020-10-16T13:37:13.000Z</time>
      </trkpt>
      <trkpt lat="48.24838" lon="-2.87664">
        <ele>145.60000610352</ele>
        <time>2020-10-16T13:37:14.000Z</time>
      </trkpt>
      <trkpt lat="48.24846" lon="-2.87659">
        <ele>145.39999389648</ele>
        <time>2020-10-16T13:37:15.000Z</time>
      </trkpt>
      <trkpt lat="48.24846" lon="-2.87659">
        <ele>145.39999389648</ele>
        <time>2020-10-16T13:37:16.000Z</time>
      </trkpt>
      <trkpt lat="48.24854" lon="-2.87652">
        <ele>145.60000610352</ele>
        <time>2020-10-16T13:37:17.000Z</time>
      </trkpt>
      <trkpt lat="48.24854" lon="-2.87652">
        <ele>145.60000610352</ele>
        <time>2020-10-16T13:37:18.000Z</time>
      </trkpt>
      <trkpt lat="48.24863" lon="-2.87645">
        <ele>145.80000305176</ele>
        <time>2020-10-16T13:37:19.000Z</time>
      </trkpt>
      <trkpt lat="48.24863" lon="-2.87645">
        <ele>145.80000305176</ele>
        <time>2020-10-16T13:37:20.000Z</time>
      </trkpt>
      <trkpt lat="48.24871" lon="-2.8764">
        <ele>146</ele>
        <time>2020-10-16T13:37:21.000Z</time>
      </trkpt>
      <trkpt lat="48.24871" lon="-2.8764">
        <ele>146</ele>
        <time>2020-10-16T13:37:22.000Z</time>
      </trkpt>
      <trkpt lat="48.2488" lon="-2.87632">
        <ele>146.19999694824</ele>
        <time>2020-10-16T13:37:23.000Z</time>
      </trkpt>
      <trkpt lat="48.2488" lon="-2.87632">
        <ele>146.19999694824</ele>
        <time>2020-10-16T13:37:24.000Z</time>
      </trkpt>
      <trkpt lat="48.24889" lon="-2.87623">
        <ele>146.19999694824</ele>
        <time>2020-10-16T13:37:25.000Z</time>
      </trkpt>
      <trkpt lat="48.24889" lon="-2.87623">
        <ele>146.19999694824</ele>
        <time>2020-10-16T13:37:26.000Z</time>
      </trkpt>
      <trkpt lat="48.24898" lon="-2.87615">
        <ele>146.39999389648</ele>
        <time>2020-10-16T13:37:27.000Z</time>
      </trkpt>
      <trkpt lat="48.24898" lon="-2.87615">
        <ele>146.39999389648</ele>
        <time>2020-10-16T13:37:28.000Z</time>
      </trkpt>
      <trkpt lat="48.24908" lon="-2.87608">
        <ele>146.60000610352</ele>
        <time>2020-10-16T13:37:29.000Z</time>
      </trkpt>
      <trkpt lat="48.24908" lon="-2.87608">
        <ele>146.60000610352</ele>
        <time>2020-10-16T13:37:30.000Z</time>
      </trkpt>
      <trkpt lat="48.24917" lon="-2.87601">
        <ele>146.80000305176</ele>
        <time>2020-10-16T13:37:31.000Z</time>
      </trkpt>
      <trkpt lat="48.24917" lon="-2.87601">
        <ele>146.80000305176</ele>
        <time>2020-10-16T13:37:32.000Z</time>
      </trkpt>
      <trkpt lat="48.24926" lon="-2.87594">
        <ele>147</ele>
        <time>2020-10-16T13:37:33.000Z</time>
      </trkpt>
      <trkpt lat="48.24926" lon="-2.87594">
        <ele>147</ele>
        <time>2020-10-16T13:37:34.000Z</time>
      </trkpt>
      <trkpt lat="48.24935" lon="-2.87588">
        <ele>147.19999694824</ele>
        <time>2020-10-16T13:37:35.000Z</time>
      </trkpt>
      <trkpt lat="48.24935" lon="-2.87588">
        <ele>147.19999694824</ele>
        <time>2020-10-16T13:37:36.000Z</time>
      </trkpt>
      <trkpt lat="48.24943" lon="-2.87582">
        <ele>147.60000610352</ele>
        <time>2020-10-16T13:37:37.000Z</time>
      </trkpt>
      <trkpt lat="48.24943" lon="-2.87582">
        <ele>147.60000610352</ele>
        <time>2020-10-16T13:37:38.000Z</time>
      </trkpt>
      <trkpt lat="48.2495" lon="-2.87575">
        <ele>147.80000305176</ele>
        <time>2020-10-16T13:37:39.000Z</time>
      </trkpt>
      <trkpt lat="48.2495" lon="-2.87575">
        <ele>147.80000305176</ele>
        <time>2020-10-16T13:37:40.000Z</time>
      </trkpt>
      <trkpt lat="48.24958" lon="-2.8757">
        <ele>148</ele>
        <time>2020-10-16T13:37:41.000Z</time>
      </trkpt>
      <trkpt lat="48.24958" lon="-2.8757">
        <ele>148</ele>
        <time>2020-10-16T13:37:42.000Z</time>
      </trkpt>
      <trkpt lat="48.24965" lon="-2.87565">
        <ele>148.19999694824</ele>
        <time>2020-10-16T13:37:43.000Z</time>
      </trkpt>
      <trkpt lat="48.24965" lon="-2.87565">
        <ele>148.19999694824</ele>
        <time>2020-10-16T13:37:44.000Z</time>
      </trkpt>
      <trkpt lat="48.24972" lon="-2.87558">
        <ele>148.39999389648</ele>
        <time>2020-10-16T13:37:45.000Z</time>
      </trkpt>
      <trkpt lat="48.24972" lon="-2.87558">
        <ele>148.39999389648</ele>
        <time>2020-10-16T13:37:46.000Z</time>
      </trkpt>
      <trkpt lat="48.24979" lon="-2.87551">
        <ele>148.60000610352</ele>
        <time>2020-10-16T13:37:47.000Z</time>
      </trkpt>
      <trkpt lat="48.24979" lon="-2.87551">
        <ele>148.60000610352</ele>
        <time>2020-10-16T13:37:48.000Z</time>
      </trkpt>
      <trkpt lat="48.24986" lon="-2.87543">
        <ele>148.80000305176</ele>
        <time>2020-10-16T13:37:49.000Z</time>
      </trkpt>
      <trkpt lat="48.24986" lon="-2.87543">
        <ele>148.80000305176</ele>
        <time>2020-10-16T13:37:50.000Z</time>
      </trkpt>
      <trkpt lat="48.24994" lon="-2.87535">
        <ele>149</ele>
        <time>2020-10-16T13:37:51.000Z</time>
      </trkpt>
      <trkpt lat="48.24994" lon="-2.87535">
        <ele>149</ele>
        <time>2020-10-16T13:37:52.000Z</time>
      </trkpt>
      <trkpt lat="48.25003" lon="-2.87527">
        <ele>149.19999694824</ele>
        <time>2020-10-16T13:37:53.000Z</time>
      </trkpt>
      <trkpt lat="48.25003" lon="-2.87527">
        <ele>149.19999694824</ele>
        <time>2020-10-16T13:37:54.000Z</time>
      </trkpt>
      <trkpt lat="48.25007" lon="-2.87524">
        <ele>149.39999389648</ele>
        <time>2020-10-16T13:37:55.000Z</time>
      </trkpt>
      <trkpt lat="48.25011" lon="-2.8752">
        <ele>149.39999389648</ele>
        <time>2020-10-16T13:37:56.000Z</time>
      </trkpt>
      <trkpt lat="48.25017" lon="-2.87512">
        <ele>149.19999694824</ele>
        <time>2020-10-16T13:37:57.000Z</time>
      </trkpt>
      <trkpt lat="48.25017" lon="-2.87512">
        <ele>149.19999694824</ele>
        <time>2020-10-16T13:37:58.000Z</time>
      </trkpt>
      <trkpt lat="48.25021" lon="-2.87504">
        <ele>149</ele>
        <time>2020-10-16T13:37:59.000Z</time>
      </trkpt>
      <trkpt lat="48.25021" lon="-2.87504">
        <ele>149</ele>
        <time>2020-10-16T13:38:00.000Z</time>
      </trkpt>
      <trkpt lat="48.25022" lon="-2.87496">
        <ele>148.80000305176</ele>
        <time>2020-10-16T13:38:01.000Z</time>
      </trkpt>
      <trkpt lat="48.25022" lon="-2.87496">
        <ele>148.80000305176</ele>
        <time>2020-10-16T13:38:02.000Z</time>
      </trkpt>
      <trkpt lat="48.25024" lon="-2.87486">
        <ele>148.39999389648</ele>
        <time>2020-10-16T13:38:03.000Z</time>
      </trkpt>
      <trkpt lat="48.25024" lon="-2.87486">
        <ele>148.39999389648</ele>
        <time>2020-10-16T13:38:04.000Z</time>
      </trkpt>
      <trkpt lat="48.25028" lon="-2.87476">
        <ele>148</ele>
        <time>2020-10-16T13:38:05.000Z</time>
      </trkpt>
      <trkpt lat="48.25028" lon="-2.87476">
        <ele>148</ele>
        <time>2020-10-16T13:38:06.000Z</time>
      </trkpt>
      <trkpt lat="48.25032" lon="-2.87464">
        <ele>147.39999389648</ele>
        <time>2020-10-16T13:38:07.000Z</time>
      </trkpt>
      <trkpt lat="48.25034" lon="-2.87459">
        <ele>147.19999694824</ele>
        <time>2020-10-16T13:38:08.000Z</time>
      </trkpt>
      <trkpt lat="48.25034" lon="-2.87459">
        <ele>147.19999694824</ele>
        <time>2020-10-16T13:38:09.000Z</time>
      </trkpt>
      <trkpt lat="48.25037" lon="-2.87447">
        <ele>146.60000610352</ele>
        <time>2020-10-16T13:38:10.000Z</time>
      </trkpt>
      <trkpt lat="48.25037" lon="-2.87447">
        <ele>146.60000610352</ele>
        <time>2020-10-16T13:38:11.000Z</time>
      </trkpt>
      <trkpt lat="48.25041" lon="-2.87435">
        <ele>146</ele>
        <time>2020-10-16T13:38:12.000Z</time>
      </trkpt>
      <trkpt lat="48.25041" lon="-2.87435">
        <ele>146</ele>
        <time>2020-10-16T13:38:13.000Z</time>
      </trkpt>
      <trkpt lat="48.25045" lon="-2.87422">
        <ele>145.60000610352</ele>
        <time>2020-10-16T13:38:14.000Z</time>
      </trkpt>
      <trkpt lat="48.25045" lon="-2.87422">
        <ele>145.60000610352</ele>
        <time>2020-10-16T13:38:15.000Z</time>
      </trkpt>
      <trkpt lat="48.25049" lon="-2.8741">
        <ele>145.60000610352</ele>
        <time>2020-10-16T13:38:16.000Z</time>
      </trkpt>
      <trkpt lat="48.25049" lon="-2.8741">
        <ele>145.60000610352</ele>
        <time>2020-10-16T13:38:17.000Z</time>
      </trkpt>
      <trkpt lat="48.25051" lon="-2.87404">
        <ele>145.60000610352</ele>
        <time>2020-10-16T13:38:18.000Z</time>
      </trkpt>
      <trkpt lat="48.25055" lon="-2.87391">
        <ele>145.60000610352</ele>
        <time>2020-10-16T13:38:19.000Z</time>
      </trkpt>
      <trkpt lat="48.25055" lon="-2.87391">
        <ele>145.60000610352</ele>
        <time>2020-10-16T13:38:20.000Z</time>
      </trkpt>
      <trkpt lat="48.25059" lon="-2.8738">
        <ele>145.80000305176</ele>
        <time>2020-10-16T13:38:21.000Z</time>
      </trkpt>
      <trkpt lat="48.25059" lon="-2.8738">
        <ele>145.80000305176</ele>
        <time>2020-10-16T13:38:22.000Z</time>
      </trkpt>
      <trkpt lat="48.25063" lon="-2.87369">
        <ele>145.80000305176</ele>
        <time>2020-10-16T13:38:23.000Z</time>
      </trkpt>
      <trkpt lat="48.25063" lon="-2.87369">
        <ele>145.80000305176</ele>
        <time>2020-10-16T13:38:24.000Z</time>
      </trkpt>
      <trkpt lat="48.25067" lon="-2.87358">
        <ele>145.60000610352</ele>
        <time>2020-10-16T13:38:25.000Z</time>
      </trkpt>
      <trkpt lat="48.25067" lon="-2.87358">
        <ele>145.60000610352</ele>
        <time>2020-10-16T13:38:26.000Z</time>
      </trkpt>
      <trkpt lat="48.2507" lon="-2.87348">
        <ele>145.60000610352</ele>
        <time>2020-10-16T13:38:27.000Z</time>
      </trkpt>
      <trkpt lat="48.2507" lon="-2.87348">
        <ele>145.60000610352</ele>
        <time>2020-10-16T13:38:28.000Z</time>
      </trkpt>
      <trkpt lat="48.25073" lon="-2.87338">
        <ele>145.60000610352</ele>
        <time>2020-10-16T13:38:29.000Z</time>
      </trkpt>
      <trkpt lat="48.25073" lon="-2.87338">
        <ele>145.60000610352</ele>
        <time>2020-10-16T13:38:30.000Z</time>
      </trkpt>
      <trkpt lat="48.25075" lon="-2.87328">
        <ele>145.60000610352</ele>
        <time>2020-10-16T13:38:31.000Z</time>
      </trkpt>
      <trkpt lat="48.25075" lon="-2.87328">
        <ele>145.60000610352</ele>
        <time>2020-10-16T13:38:32.000Z</time>
      </trkpt>
      <trkpt lat="48.25076" lon="-2.87317">
        <ele>145.60000610352</ele>
        <time>2020-10-16T13:38:33.000Z</time>
      </trkpt>
      <trkpt lat="48.25076" lon="-2.87317">
        <ele>145.60000610352</ele>
        <time>2020-10-16T13:38:34.000Z</time>
      </trkpt>
      <trkpt lat="48.25075" lon="-2.87305">
        <ele>145.39999389648</ele>
        <time>2020-10-16T13:38:35.000Z</time>
      </trkpt>
      <trkpt lat="48.25075" lon="-2.87305">
        <ele>145.39999389648</ele>
        <time>2020-10-16T13:38:36.000Z</time>
      </trkpt>
      <trkpt lat="48.25074" lon="-2.87293">
        <ele>145.19999694824</ele>
        <time>2020-10-16T13:38:37.000Z</time>
      </trkpt>
      <trkpt lat="48.25074" lon="-2.87293">
        <ele>145.19999694824</ele>
        <time>2020-10-16T13:38:38.000Z</time>
      </trkpt>
      <trkpt lat="48.25073" lon="-2.8728">
        <ele>145</ele>
        <time>2020-10-16T13:38:39.000Z</time>
      </trkpt>
      <trkpt lat="48.25073" lon="-2.8728">
        <ele>145</ele>
        <time>2020-10-16T13:38:40.000Z</time>
      </trkpt>
      <trkpt lat="48.25072" lon="-2.87268">
        <ele>144.80000305176</ele>
        <time>2020-10-16T13:38:41.000Z</time>
      </trkpt>
      <trkpt lat="48.25072" lon="-2.87268">
        <ele>144.80000305176</ele>
        <time>2020-10-16T13:38:42.000Z</time>
      </trkpt>
      <trkpt lat="48.2507" lon="-2.87255">
        <ele>144.80000305176</ele>
        <time>2020-10-16T13:38:43.000Z</time>
      </trkpt>
      <trkpt lat="48.2507" lon="-2.87255">
        <ele>144.80000305176</ele>
        <time>2020-10-16T13:38:44.000Z</time>
      </trkpt>
      <trkpt lat="48.25069" lon="-2.87244">
        <ele>144.60000610352</ele>
        <time>2020-10-16T13:38:45.000Z</time>
      </trkpt>
      <trkpt lat="48.25069" lon="-2.87244">
        <ele>144.60000610352</ele>
        <time>2020-10-16T13:38:46.000Z</time>
      </trkpt>
      <trkpt lat="48.25068" lon="-2.87234">
        <ele>144.60000610352</ele>
        <time>2020-10-16T13:38:47.000Z</time>
      </trkpt>
      <trkpt lat="48.25068" lon="-2.87234">
        <ele>144.60000610352</ele>
        <time>2020-10-16T13:38:48.000Z</time>
      </trkpt>
      <trkpt lat="48.25067" lon="-2.87229">
        <ele>144.60000610352</ele>
        <time>2020-10-16T13:38:49.000Z</time>
      </trkpt>
      <trkpt lat="48.25066" lon="-2.87221">
        <ele>144.60000610352</ele>
        <time>2020-10-16T13:38:50.000Z</time>
      </trkpt>
      <trkpt lat="48.25066" lon="-2.87221">
        <ele>144.60000610352</ele>
        <time>2020-10-16T13:38:51.000Z</time>
      </trkpt>
      <trkpt lat="48.25066" lon="-2.87214">
        <ele>144.60000610352</ele>
        <time>2020-10-16T13:38:52.000Z</time>
      </trkpt>
      <trkpt lat="48.25066" lon="-2.87214">
        <ele>144.60000610352</ele>
        <time>2020-10-16T13:38:53.000Z</time>
      </trkpt>
      <trkpt lat="48.25067" lon="-2.87206">
        <ele>144.60000610352</ele>
        <time>2020-10-16T13:38:54.000Z</time>
      </trkpt>
      <trkpt lat="48.25067" lon="-2.87206">
        <ele>144.60000610352</ele>
        <time>2020-10-16T13:38:55.000Z</time>
      </trkpt>
      <trkpt lat="48.25068" lon="-2.87191">
        <ele>144.39999389648</ele>
        <time>2020-10-16T13:38:56.000Z</time>
      </trkpt>
      <trkpt lat="48.25068" lon="-2.87191">
        <ele>144.39999389648</ele>
        <time>2020-10-16T13:38:57.000Z</time>
      </trkpt>
      <trkpt lat="48.2507" lon="-2.87178">
        <ele>144</ele>
        <time>2020-10-16T13:38:58.000Z</time>
      </trkpt>
      <trkpt lat="48.2507" lon="-2.87178">
        <ele>144</ele>
        <time>2020-10-16T13:38:59.000Z</time>
      </trkpt>
      <trkpt lat="48.25072" lon="-2.87173">
        <ele>144</ele>
        <time>2020-10-16T13:39:00.000Z</time>
      </trkpt>
      <trkpt lat="48.25073" lon="-2.87167">
        <ele>144</ele>
        <time>2020-10-16T13:39:01.000Z</time>
      </trkpt>
      <trkpt lat="48.25076" lon="-2.87155">
        <ele>144</ele>
        <time>2020-10-16T13:39:02.000Z</time>
      </trkpt>
      <trkpt lat="48.25076" lon="-2.87155">
        <ele>144</ele>
        <time>2020-10-16T13:39:03.000Z</time>
      </trkpt>
      <trkpt lat="48.2508" lon="-2.87147">
        <ele>144</ele>
        <time>2020-10-16T13:39:04.000Z</time>
      </trkpt>
      <trkpt lat="48.2508" lon="-2.87147">
        <ele>144</ele>
        <time>2020-10-16T13:39:05.000Z</time>
      </trkpt>
      <trkpt lat="48.25085" lon="-2.87139">
        <ele>144.39999389648</ele>
        <time>2020-10-16T13:39:06.000Z</time>
      </trkpt>
      <trkpt lat="48.25088" lon="-2.87137">
        <ele>144.39999389648</ele>
        <time>2020-10-16T13:39:07.000Z</time>
      </trkpt>
      <trkpt lat="48.25088" lon="-2.87137">
        <ele>144.39999389648</ele>
        <time>2020-10-16T13:39:08.000Z</time>
      </trkpt>
      <trkpt lat="48.25094" lon="-2.87133">
        <ele>145</ele>
        <time>2020-10-16T13:39:09.000Z</time>
      </trkpt>
      <trkpt lat="48.25094" lon="-2.87133">
        <ele>145</ele>
        <time>2020-10-16T13:39:10.000Z</time>
      </trkpt>
      <trkpt lat="48.25101" lon="-2.8713">
        <ele>144.80000305176</ele>
        <time>2020-10-16T13:39:11.000Z</time>
      </trkpt>
      <trkpt lat="48.25101" lon="-2.8713">
        <ele>144.80000305176</ele>
        <time>2020-10-16T13:39:12.000Z</time>
      </trkpt>
      <trkpt lat="48.25109" lon="-2.87131">
        <ele>144.60000610352</ele>
        <time>2020-10-16T13:39:13.000Z</time>
      </trkpt>
      <trkpt lat="48.25109" lon="-2.87131">
        <ele>144.60000610352</ele>
        <time>2020-10-16T13:39:14.000Z</time>
      </trkpt>
      <trkpt lat="48.25116" lon="-2.87133">
        <ele>144.39999389648</ele>
        <time>2020-10-16T13:39:15.000Z</time>
      </trkpt>
      <trkpt lat="48.25116" lon="-2.87133">
        <ele>144.39999389648</ele>
        <time>2020-10-16T13:39:16.000Z</time>
      </trkpt>
      <trkpt lat="48.25123" lon="-2.87138">
        <ele>144.19999694824</ele>
        <time>2020-10-16T13:39:17.000Z</time>
      </trkpt>
      <trkpt lat="48.25123" lon="-2.87138">
        <ele>144.19999694824</ele>
        <time>2020-10-16T13:39:18.000Z</time>
      </trkpt>
      <trkpt lat="48.2513" lon="-2.87144">
        <ele>144.39999389648</ele>
        <time>2020-10-16T13:39:19.000Z</time>
      </trkpt>
      <trkpt lat="48.2513" lon="-2.87144">
        <ele>144.39999389648</ele>
        <time>2020-10-16T13:39:20.000Z</time>
      </trkpt>
      <trkpt lat="48.25137" lon="-2.87151">
        <ele>144.80000305176</ele>
        <time>2020-10-16T13:39:21.000Z</time>
      </trkpt>
      <trkpt lat="48.25137" lon="-2.87151">
        <ele>144.80000305176</ele>
        <time>2020-10-16T13:39:22.000Z</time>
      </trkpt>
      <trkpt lat="48.25145" lon="-2.87155">
        <ele>145.39999389648</ele>
        <time>2020-10-16T13:39:23.000Z</time>
      </trkpt>
      <trkpt lat="48.25145" lon="-2.87155">
        <ele>145.39999389648</ele>
        <time>2020-10-16T13:39:24.000Z</time>
      </trkpt>
      <trkpt lat="48.25151" lon="-2.87161">
        <ele>145.80000305176</ele>
        <time>2020-10-16T13:39:25.000Z</time>
      </trkpt>
      <trkpt lat="48.25151" lon="-2.87161">
        <ele>145.80000305176</ele>
        <time>2020-10-16T13:39:26.000Z</time>
      </trkpt>
      <trkpt lat="48.25158" lon="-2.87164">
        <ele>146</ele>
        <time>2020-10-16T13:39:27.000Z</time>
      </trkpt>
      <trkpt lat="48.25158" lon="-2.87164">
        <ele>146</ele>
        <time>2020-10-16T13:39:28.000Z</time>
      </trkpt>
      <trkpt lat="48.25165" lon="-2.87167">
        <ele>146.39999389648</ele>
        <time>2020-10-16T13:39:29.000Z</time>
      </trkpt>
      <trkpt lat="48.25165" lon="-2.87167">
        <ele>146.39999389648</ele>
        <time>2020-10-16T13:39:30.000Z</time>
      </trkpt>
      <trkpt lat="48.25173" lon="-2.8717">
        <ele>146.80000305176</ele>
        <time>2020-10-16T13:39:31.000Z</time>
      </trkpt>
      <trkpt lat="48.25173" lon="-2.8717">
        <ele>146.80000305176</ele>
        <time>2020-10-16T13:39:32.000Z</time>
      </trkpt>
      <trkpt lat="48.25178" lon="-2.87173">
        <ele>147</ele>
        <time>2020-10-16T13:39:33.000Z</time>
      </trkpt>
      <trkpt lat="48.25178" lon="-2.87173">
        <ele>147</ele>
        <time>2020-10-16T13:39:34.000Z</time>
      </trkpt>
      <trkpt lat="48.25183" lon="-2.87176">
        <ele>147</ele>
        <time>2020-10-16T13:39:35.000Z</time>
      </trkpt>
      <trkpt lat="48.25183" lon="-2.87176">
        <ele>147</ele>
        <time>2020-10-16T13:39:36.000Z</time>
      </trkpt>
      <trkpt lat="48.25189" lon="-2.87179">
        <ele>147.19999694824</ele>
        <time>2020-10-16T13:39:37.000Z</time>
      </trkpt>
      <trkpt lat="48.25189" lon="-2.87179">
        <ele>147.19999694824</ele>
        <time>2020-10-16T13:39:38.000Z</time>
      </trkpt>
      <trkpt lat="48.25194" lon="-2.87181">
        <ele>147.19999694824</ele>
        <time>2020-10-16T13:39:39.000Z</time>
      </trkpt>
      <trkpt lat="48.25194" lon="-2.87181">
        <ele>147.19999694824</ele>
        <time>2020-10-16T13:39:40.000Z</time>
      </trkpt>
      <trkpt lat="48.25201" lon="-2.87183">
        <ele>147.19999694824</ele>
        <time>2020-10-16T13:39:41.000Z</time>
      </trkpt>
      <trkpt lat="48.25201" lon="-2.87183">
        <ele>147.19999694824</ele>
        <time>2020-10-16T13:39:42.000Z</time>
      </trkpt>
      <trkpt lat="48.25207" lon="-2.87185">
        <ele>147.39999389648</ele>
        <time>2020-10-16T13:39:43.000Z</time>
      </trkpt>
      <trkpt lat="48.25207" lon="-2.87185">
        <ele>147.39999389648</ele>
        <time>2020-10-16T13:39:44.000Z</time>
      </trkpt>
      <trkpt lat="48.25214" lon="-2.87187">
        <ele>147.39999389648</ele>
        <time>2020-10-16T13:39:45.000Z</time>
      </trkpt>
      <trkpt lat="48.25217" lon="-2.87188">
        <ele>147.39999389648</ele>
        <time>2020-10-16T13:39:46.000Z</time>
      </trkpt>
      <trkpt lat="48.25217" lon="-2.87188">
        <ele>147.39999389648</ele>
        <time>2020-10-16T13:39:47.000Z</time>
      </trkpt>
      <trkpt lat="48.25224" lon="-2.87188">
        <ele>147.60000610352</ele>
        <time>2020-10-16T13:39:48.000Z</time>
      </trkpt>
      <trkpt lat="48.25224" lon="-2.87188">
        <ele>147.60000610352</ele>
        <time>2020-10-16T13:39:49.000Z</time>
      </trkpt>
      <trkpt lat="48.25232" lon="-2.87187">
        <ele>147.60000610352</ele>
        <time>2020-10-16T13:39:50.000Z</time>
      </trkpt>
      <trkpt lat="48.25232" lon="-2.87187">
        <ele>147.60000610352</ele>
        <time>2020-10-16T13:39:51.000Z</time>
      </trkpt>
      <trkpt lat="48.25239" lon="-2.87184">
        <ele>147.80000305176</ele>
        <time>2020-10-16T13:39:52.000Z</time>
      </trkpt>
      <trkpt lat="48.25239" lon="-2.87184">
        <ele>147.80000305176</ele>
        <time>2020-10-16T13:39:53.000Z</time>
      </trkpt>
      <trkpt lat="48.25244" lon="-2.87181">
        <ele>147.80000305176</ele>
        <time>2020-10-16T13:39:54.000Z</time>
      </trkpt>
      <trkpt lat="48.25244" lon="-2.87181">
        <ele>147.80000305176</ele>
        <time>2020-10-16T13:39:55.000Z</time>
      </trkpt>
      <trkpt lat="48.25246" lon="-2.87178">
        <ele>147.80000305176</ele>
        <time>2020-10-16T13:39:56.000Z</time>
      </trkpt>
      <trkpt lat="48.25251" lon="-2.87171">
        <ele>147.80000305176</ele>
        <time>2020-10-16T13:39:57.000Z</time>
      </trkpt>
      <trkpt lat="48.25251" lon="-2.87171">
        <ele>147.80000305176</ele>
        <time>2020-10-16T13:39:58.000Z</time>
      </trkpt>
      <trkpt lat="48.25257" lon="-2.87163">
        <ele>147.39999389648</ele>
        <time>2020-10-16T13:39:59.000Z</time>
      </trkpt>
      <trkpt lat="48.2526" lon="-2.87159">
        <ele>147.19999694824</ele>
        <time>2020-10-16T13:40:00.000Z</time>
      </trkpt>
      <trkpt lat="48.25262" lon="-2.87155">
        <ele>146.80000305176</ele>
        <time>2020-10-16T13:40:01.000Z</time>
      </trkpt>
      <trkpt lat="48.25262" lon="-2.87155">
        <ele>146.80000305176</ele>
        <time>2020-10-16T13:40:02.000Z</time>
      </trkpt>
      <trkpt lat="48.25264" lon="-2.8715">
        <ele>146.60000610352</ele>
        <time>2020-10-16T13:40:03.000Z</time>
      </trkpt>
      <trkpt lat="48.2527" lon="-2.8714">
        <ele>146.39999389648</ele>
        <time>2020-10-16T13:40:04.000Z</time>
      </trkpt>
      <trkpt lat="48.2527" lon="-2.8714">
        <ele>146.39999389648</ele>
        <time>2020-10-16T13:40:05.000Z</time>
      </trkpt>
      <trkpt lat="48.25275" lon="-2.87132">
        <ele>146</ele>
        <time>2020-10-16T13:40:06.000Z</time>
      </trkpt>
      <trkpt lat="48.25275" lon="-2.87132">
        <ele>146</ele>
        <time>2020-10-16T13:40:07.000Z</time>
      </trkpt>
      <trkpt lat="48.25282" lon="-2.87125">
        <ele>145.80000305176</ele>
        <time>2020-10-16T13:40:08.000Z</time>
      </trkpt>
      <trkpt lat="48.25282" lon="-2.87125">
        <ele>145.80000305176</ele>
        <time>2020-10-16T13:40:09.000Z</time>
      </trkpt>
      <trkpt lat="48.25287" lon="-2.8712">
        <ele>145.80000305176</ele>
        <time>2020-10-16T13:40:10.000Z</time>
      </trkpt>
      <trkpt lat="48.25287" lon="-2.8712">
        <ele>145.80000305176</ele>
        <time>2020-10-16T13:40:11.000Z</time>
      </trkpt>
      <trkpt lat="48.25292" lon="-2.87114">
        <ele>145.60000610352</ele>
        <time>2020-10-16T13:40:12.000Z</time>
      </trkpt>
      <trkpt lat="48.25292" lon="-2.87114">
        <ele>145.60000610352</ele>
        <time>2020-10-16T13:40:13.000Z</time>
      </trkpt>
      <trkpt lat="48.25298" lon="-2.87108">
        <ele>145.39999389648</ele>
        <time>2020-10-16T13:40:14.000Z</time>
      </trkpt>
      <trkpt lat="48.25298" lon="-2.87108">
        <ele>145.39999389648</ele>
        <time>2020-10-16T13:40:15.000Z</time>
      </trkpt>
      <trkpt lat="48.25306" lon="-2.87101">
        <ele>145.19999694824</ele>
        <time>2020-10-16T13:40:16.000Z</time>
      </trkpt>
      <trkpt lat="48.25306" lon="-2.87101">
        <ele>145.19999694824</ele>
        <time>2020-10-16T13:40:17.000Z</time>
      </trkpt>
      <trkpt lat="48.25312" lon="-2.87097">
        <ele>145.19999694824</ele>
        <time>2020-10-16T13:40:18.000Z</time>
      </trkpt>
      <trkpt lat="48.25321" lon="-2.87089">
        <ele>145</ele>
        <time>2020-10-16T13:40:19.000Z</time>
      </trkpt>
      <trkpt lat="48.25321" lon="-2.87089">
        <ele>145</ele>
        <time>2020-10-16T13:40:20.000Z</time>
      </trkpt>
      <trkpt lat="48.25325" lon="-2.87085">
        <ele>145</ele>
        <time>2020-10-16T13:40:21.000Z</time>
      </trkpt>
      <trkpt lat="48.25332" lon="-2.87077">
        <ele>144.80000305176</ele>
        <time>2020-10-16T13:40:22.000Z</time>
      </trkpt>
      <trkpt lat="48.25332" lon="-2.87077">
        <ele>144.80000305176</ele>
        <time>2020-10-16T13:40:23.000Z</time>
      </trkpt>
      <trkpt lat="48.25336" lon="-2.87073">
        <ele>144.60000610352</ele>
        <time>2020-10-16T13:40:24.000Z</time>
      </trkpt>
      <trkpt lat="48.25343" lon="-2.87065">
        <ele>144.39999389648</ele>
        <time>2020-10-16T13:40:25.000Z</time>
      </trkpt>
      <trkpt lat="48.25346" lon="-2.87062">
        <ele>144.39999389648</ele>
        <time>2020-10-16T13:40:26.000Z</time>
      </trkpt>
      <trkpt lat="48.25346" lon="-2.87062">
        <ele>144.39999389648</ele>
        <time>2020-10-16T13:40:27.000Z</time>
      </trkpt>
      <trkpt lat="48.25353" lon="-2.87055">
        <ele>144.19999694824</ele>
        <time>2020-10-16T13:40:28.000Z</time>
      </trkpt>
      <trkpt lat="48.25353" lon="-2.87055">
        <ele>144.19999694824</ele>
        <time>2020-10-16T13:40:29.000Z</time>
      </trkpt>
      <trkpt lat="48.25361" lon="-2.87051">
        <ele>144.19999694824</ele>
        <time>2020-10-16T13:40:30.000Z</time>
      </trkpt>
      <trkpt lat="48.25361" lon="-2.87051">
        <ele>144.19999694824</ele>
        <time>2020-10-16T13:40:31.000Z</time>
      </trkpt>
      <trkpt lat="48.25365" lon="-2.8705">
        <ele>144.19999694824</ele>
        <time>2020-10-16T13:40:32.000Z</time>
      </trkpt>
      <trkpt lat="48.25373" lon="-2.87046">
        <ele>144.39999389648</ele>
        <time>2020-10-16T13:40:33.000Z</time>
      </trkpt>
      <trkpt lat="48.25373" lon="-2.87046">
        <ele>144.39999389648</ele>
        <time>2020-10-16T13:40:34.000Z</time>
      </trkpt>
      <trkpt lat="48.25376" lon="-2.87044">
        <ele>144.39999389648</ele>
        <time>2020-10-16T13:40:35.000Z</time>
      </trkpt>
      <trkpt lat="48.25384" lon="-2.8704">
        <ele>144.39999389648</ele>
        <time>2020-10-16T13:40:36.000Z</time>
      </trkpt>
      <trkpt lat="48.25384" lon="-2.8704">
        <ele>144.39999389648</ele>
        <time>2020-10-16T13:40:37.000Z</time>
      </trkpt>
      <trkpt lat="48.25388" lon="-2.87039">
        <ele>144.60000610352</ele>
        <time>2020-10-16T13:40:38.000Z</time>
      </trkpt>
      <trkpt lat="48.25396" lon="-2.8704">
        <ele>144.80000305176</ele>
        <time>2020-10-16T13:40:39.000Z</time>
      </trkpt>
      <trkpt lat="48.25396" lon="-2.8704">
        <ele>144.80000305176</ele>
        <time>2020-10-16T13:40:40.000Z</time>
      </trkpt>
      <trkpt lat="48.25403" lon="-2.87041">
        <ele>145</ele>
        <time>2020-10-16T13:40:41.000Z</time>
      </trkpt>
      <trkpt lat="48.25403" lon="-2.87041">
        <ele>145</ele>
        <time>2020-10-16T13:40:42.000Z</time>
      </trkpt>
      <trkpt lat="48.25407" lon="-2.87042">
        <ele>145</ele>
        <time>2020-10-16T13:40:43.000Z</time>
      </trkpt>
      <trkpt lat="48.25414" lon="-2.87044">
        <ele>145.19999694824</ele>
        <time>2020-10-16T13:40:44.000Z</time>
      </trkpt>
      <trkpt lat="48.25418" lon="-2.87045">
        <ele>145.19999694824</ele>
        <time>2020-10-16T13:40:45.000Z</time>
      </trkpt>
      <trkpt lat="48.25418" lon="-2.87045">
        <ele>145.19999694824</ele>
        <time>2020-10-16T13:40:46.000Z</time>
      </trkpt>
      <trkpt lat="48.25421" lon="-2.87047">
        <ele>145.39999389648</ele>
        <time>2020-10-16T13:40:47.000Z</time>
      </trkpt>
      <trkpt lat="48.25428" lon="-2.87049">
        <ele>145.60000610352</ele>
        <time>2020-10-16T13:40:48.000Z</time>
      </trkpt>
      <trkpt lat="48.25428" lon="-2.87049">
        <ele>145.60000610352</ele>
        <time>2020-10-16T13:40:49.000Z</time>
      </trkpt>
      <trkpt lat="48.25431" lon="-2.8705">
        <ele>145.60000610352</ele>
        <time>2020-10-16T13:40:50.000Z</time>
      </trkpt>
      <trkpt lat="48.25438" lon="-2.87052">
        <ele>145.39999389648</ele>
        <time>2020-10-16T13:40:51.000Z</time>
      </trkpt>
      <trkpt lat="48.25438" lon="-2.87052">
        <ele>145.39999389648</ele>
        <time>2020-10-16T13:40:52.000Z</time>
      </trkpt>
      <trkpt lat="48.25441" lon="-2.87053">
        <ele>145.19999694824</ele>
        <time>2020-10-16T13:40:53.000Z</time>
      </trkpt>
      <trkpt lat="48.25447" lon="-2.87055">
        <ele>145.19999694824</ele>
        <time>2020-10-16T13:40:54.000Z</time>
      </trkpt>
      <trkpt lat="48.25447" lon="-2.87055">
        <ele>145.19999694824</ele>
        <time>2020-10-16T13:40:55.000Z</time>
      </trkpt>
      <trkpt lat="48.25451" lon="-2.87056">
        <ele>145</ele>
        <time>2020-10-16T13:40:56.000Z</time>
      </trkpt>
      <trkpt lat="48.25458" lon="-2.87059">
        <ele>144.80000305176</ele>
        <time>2020-10-16T13:40:57.000Z</time>
      </trkpt>
      <trkpt lat="48.25458" lon="-2.87059">
        <ele>144.80000305176</ele>
        <time>2020-10-16T13:40:58.000Z</time>
      </trkpt>
      <trkpt lat="48.25464" lon="-2.8706">
        <ele>145</ele>
        <time>2020-10-16T13:40:59.000Z</time>
      </trkpt>
      <trkpt lat="48.25464" lon="-2.8706">
        <ele>145</ele>
        <time>2020-10-16T13:41:00.000Z</time>
      </trkpt>
      <trkpt lat="48.2547" lon="-2.8706">
        <ele>145</ele>
        <time>2020-10-16T13:41:01.000Z</time>
      </trkpt>
      <trkpt lat="48.25473" lon="-2.87061">
        <ele>145</ele>
        <time>2020-10-16T13:41:02.000Z</time>
      </trkpt>
      <trkpt lat="48.25473" lon="-2.87061">
        <ele>145</ele>
        <time>2020-10-16T13:41:03.000Z</time>
      </trkpt>
      <trkpt lat="48.2548" lon="-2.87063">
        <ele>145.39999389648</ele>
        <time>2020-10-16T13:41:04.000Z</time>
      </trkpt>
      <trkpt lat="48.25483" lon="-2.87065">
        <ele>145.60000610352</ele>
        <time>2020-10-16T13:41:05.000Z</time>
      </trkpt>
      <trkpt lat="48.25483" lon="-2.87065">
        <ele>145.60000610352</ele>
        <time>2020-10-16T13:41:06.000Z</time>
      </trkpt>
      <trkpt lat="48.25487" lon="-2.87067">
        <ele>145.80000305176</ele>
        <time>2020-10-16T13:41:07.000Z</time>
      </trkpt>
      <trkpt lat="48.25494" lon="-2.87071">
        <ele>146.19999694824</ele>
        <time>2020-10-16T13:41:08.000Z</time>
      </trkpt>
      <trkpt lat="48.25494" lon="-2.87071">
        <ele>146.19999694824</ele>
        <time>2020-10-16T13:41:09.000Z</time>
      </trkpt>
      <trkpt lat="48.25498" lon="-2.87072">
        <ele>146.39999389648</ele>
        <time>2020-10-16T13:41:10.000Z</time>
      </trkpt>
      <trkpt lat="48.25506" lon="-2.87075">
        <ele>146.80000305176</ele>
        <time>2020-10-16T13:41:11.000Z</time>
      </trkpt>
      <trkpt lat="48.25506" lon="-2.87075">
        <ele>146.80000305176</ele>
        <time>2020-10-16T13:41:12.000Z</time>
      </trkpt>
      <trkpt lat="48.2551" lon="-2.87077">
        <ele>147</ele>
        <time>2020-10-16T13:41:13.000Z</time>
      </trkpt>
      <trkpt lat="48.25517" lon="-2.87081">
        <ele>147</ele>
        <time>2020-10-16T13:41:14.000Z</time>
      </trkpt>
      <trkpt lat="48.25517" lon="-2.87081">
        <ele>147</ele>
        <time>2020-10-16T13:41:15.000Z</time>
      </trkpt>
      <trkpt lat="48.25524" lon="-2.87089">
        <ele>147.39999389648</ele>
        <time>2020-10-16T13:41:16.000Z</time>
      </trkpt>
      <trkpt lat="48.25524" lon="-2.87089">
        <ele>147.39999389648</ele>
        <time>2020-10-16T13:41:17.000Z</time>
      </trkpt>
      <trkpt lat="48.25527" lon="-2.87093">
        <ele>147.39999389648</ele>
        <time>2020-10-16T13:41:18.000Z</time>
      </trkpt>
      <trkpt lat="48.25533" lon="-2.87101">
        <ele>147.60000610352</ele>
        <time>2020-10-16T13:41:19.000Z</time>
      </trkpt>
      <trkpt lat="48.25533" lon="-2.87101">
        <ele>147.60000610352</ele>
        <time>2020-10-16T13:41:20.000Z</time>
      </trkpt>
      <trkpt lat="48.25536" lon="-2.87105">
        <ele>147.60000610352</ele>
        <time>2020-10-16T13:41:21.000Z</time>
      </trkpt>
      <trkpt lat="48.25541" lon="-2.87113">
        <ele>147.80000305176</ele>
        <time>2020-10-16T13:41:22.000Z</time>
      </trkpt>
      <trkpt lat="48.25541" lon="-2.87113">
        <ele>147.80000305176</ele>
        <time>2020-10-16T13:41:23.000Z</time>
      </trkpt>
      <trkpt lat="48.25546" lon="-2.87122">
        <ele>148</ele>
        <time>2020-10-16T13:41:24.000Z</time>
      </trkpt>
      <trkpt lat="48.25549" lon="-2.87126">
        <ele>148</ele>
        <time>2020-10-16T13:41:25.000Z</time>
      </trkpt>
      <trkpt lat="48.25549" lon="-2.87126">
        <ele>148</ele>
        <time>2020-10-16T13:41:26.000Z</time>
      </trkpt>
      <trkpt lat="48.25555" lon="-2.87131">
        <ele>148</ele>
        <time>2020-10-16T13:41:27.000Z</time>
      </trkpt>
      <trkpt lat="48.25555" lon="-2.87131">
        <ele>148</ele>
        <time>2020-10-16T13:41:28.000Z</time>
      </trkpt>
      <trkpt lat="48.25561" lon="-2.87134">
        <ele>148.19999694824</ele>
        <time>2020-10-16T13:41:29.000Z</time>
      </trkpt>
      <trkpt lat="48.25561" lon="-2.87134">
        <ele>148.19999694824</ele>
        <time>2020-10-16T13:41:30.000Z</time>
      </trkpt>
      <trkpt lat="48.25568" lon="-2.87134">
        <ele>148.19999694824</ele>
        <time>2020-10-16T13:41:31.000Z</time>
      </trkpt>
      <trkpt lat="48.25568" lon="-2.87134">
        <ele>148.19999694824</ele>
        <time>2020-10-16T13:41:32.000Z</time>
      </trkpt>
      <trkpt lat="48.25575" lon="-2.87135">
        <ele>148</ele>
        <time>2020-10-16T13:41:33.000Z</time>
      </trkpt>
      <trkpt lat="48.25575" lon="-2.87135">
        <ele>148</ele>
        <time>2020-10-16T13:41:34.000Z</time>
      </trkpt>
      <trkpt lat="48.25582" lon="-2.87135">
        <ele>148</ele>
        <time>2020-10-16T13:41:35.000Z</time>
      </trkpt>
      <trkpt lat="48.25582" lon="-2.87135">
        <ele>148</ele>
        <time>2020-10-16T13:41:36.000Z</time>
      </trkpt>
      <trkpt lat="48.25589" lon="-2.87138">
        <ele>148.19999694824</ele>
        <time>2020-10-16T13:41:37.000Z</time>
      </trkpt>
      <trkpt lat="48.25589" lon="-2.87138">
        <ele>148.19999694824</ele>
        <time>2020-10-16T13:41:38.000Z</time>
      </trkpt>
      <trkpt lat="48.25597" lon="-2.87143">
        <ele>148.39999389648</ele>
        <time>2020-10-16T13:41:39.000Z</time>
      </trkpt>
      <trkpt lat="48.25597" lon="-2.87143">
        <ele>148.39999389648</ele>
        <time>2020-10-16T13:41:40.000Z</time>
      </trkpt>
      <trkpt lat="48.25606" lon="-2.87147">
        <ele>148.60000610352</ele>
        <time>2020-10-16T13:41:41.000Z</time>
      </trkpt>
      <trkpt lat="48.25606" lon="-2.87147">
        <ele>148.60000610352</ele>
        <time>2020-10-16T13:41:42.000Z</time>
      </trkpt>
      <trkpt lat="48.25614" lon="-2.87149">
        <ele>148.60000610352</ele>
        <time>2020-10-16T13:41:43.000Z</time>
      </trkpt>
      <trkpt lat="48.2562" lon="-2.87153">
        <ele>148.80000305176</ele>
        <time>2020-10-16T13:41:44.000Z</time>
      </trkpt>
      <trkpt lat="48.2562" lon="-2.87153">
        <ele>148.80000305176</ele>
        <time>2020-10-16T13:41:45.000Z</time>
      </trkpt>
      <trkpt lat="48.25628" lon="-2.87156">
        <ele>149</ele>
        <time>2020-10-16T13:41:46.000Z</time>
      </trkpt>
      <trkpt lat="48.25628" lon="-2.87156">
        <ele>149</ele>
        <time>2020-10-16T13:41:47.000Z</time>
      </trkpt>
      <trkpt lat="48.25638" lon="-2.87159">
        <ele>149.19999694824</ele>
        <time>2020-10-16T13:41:48.000Z</time>
      </trkpt>
      <trkpt lat="48.25638" lon="-2.87159">
        <ele>149.19999694824</ele>
        <time>2020-10-16T13:41:49.000Z</time>
      </trkpt>
      <trkpt lat="48.25646" lon="-2.87164">
        <ele>149.60000610352</ele>
        <time>2020-10-16T13:41:50.000Z</time>
      </trkpt>
      <trkpt lat="48.25646" lon="-2.87164">
        <ele>149.60000610352</ele>
        <time>2020-10-16T13:41:51.000Z</time>
      </trkpt>
      <trkpt lat="48.25655" lon="-2.87171">
        <ele>150.19999694824</ele>
        <time>2020-10-16T13:41:52.000Z</time>
      </trkpt>
      <trkpt lat="48.25655" lon="-2.87171">
        <ele>150.19999694824</ele>
        <time>2020-10-16T13:41:53.000Z</time>
      </trkpt>
      <trkpt lat="48.25664" lon="-2.87177">
        <ele>150.39999389648</ele>
        <time>2020-10-16T13:41:54.000Z</time>
      </trkpt>
      <trkpt lat="48.25664" lon="-2.87177">
        <ele>150.39999389648</ele>
        <time>2020-10-16T13:41:55.000Z</time>
      </trkpt>
      <trkpt lat="48.25672" lon="-2.87182">
        <ele>150.39999389648</ele>
        <time>2020-10-16T13:41:56.000Z</time>
      </trkpt>
      <trkpt lat="48.25672" lon="-2.87182">
        <ele>150.39999389648</ele>
        <time>2020-10-16T13:41:57.000Z</time>
      </trkpt>
      <trkpt lat="48.2568" lon="-2.87186">
        <ele>150.39999389648</ele>
        <time>2020-10-16T13:41:58.000Z</time>
      </trkpt>
      <trkpt lat="48.2568" lon="-2.87186">
        <ele>150.39999389648</ele>
        <time>2020-10-16T13:41:59.000Z</time>
      </trkpt>
      <trkpt lat="48.25685" lon="-2.87186">
        <ele>150.39999389648</ele>
        <time>2020-10-16T13:42:00.000Z</time>
      </trkpt>
      <trkpt lat="48.25689" lon="-2.87186">
        <ele>150.39999389648</ele>
        <time>2020-10-16T13:42:01.000Z</time>
      </trkpt>
      <trkpt lat="48.25697" lon="-2.87185">
        <ele>150.19999694824</ele>
        <time>2020-10-16T13:42:02.000Z</time>
      </trkpt>
      <trkpt lat="48.25697" lon="-2.87185">
        <ele>150.19999694824</ele>
        <time>2020-10-16T13:42:03.000Z</time>
      </trkpt>
      <trkpt lat="48.25706" lon="-2.87183">
        <ele>150</ele>
        <time>2020-10-16T13:42:04.000Z</time>
      </trkpt>
      <trkpt lat="48.25706" lon="-2.87183">
        <ele>150</ele>
        <time>2020-10-16T13:42:05.000Z</time>
      </trkpt>
      <trkpt lat="48.25715" lon="-2.87179">
        <ele>149.80000305176</ele>
        <time>2020-10-16T13:42:06.000Z</time>
      </trkpt>
      <trkpt lat="48.25715" lon="-2.87179">
        <ele>149.80000305176</ele>
        <time>2020-10-16T13:42:07.000Z</time>
      </trkpt>
      <trkpt lat="48.25723" lon="-2.87177">
        <ele>149.60000610352</ele>
        <time>2020-10-16T13:42:08.000Z</time>
      </trkpt>
      <trkpt lat="48.25723" lon="-2.87177">
        <ele>149.60000610352</ele>
        <time>2020-10-16T13:42:09.000Z</time>
      </trkpt>
      <trkpt lat="48.25731" lon="-2.87174">
        <ele>149.39999389648</ele>
        <time>2020-10-16T13:42:10.000Z</time>
      </trkpt>
      <trkpt lat="48.25731" lon="-2.87174">
        <ele>149.39999389648</ele>
        <time>2020-10-16T13:42:11.000Z</time>
      </trkpt>
      <trkpt lat="48.25738" lon="-2.87171">
        <ele>149.19999694824</ele>
        <time>2020-10-16T13:42:12.000Z</time>
      </trkpt>
      <trkpt lat="48.25738" lon="-2.87171">
        <ele>149.19999694824</ele>
        <time>2020-10-16T13:42:13.000Z</time>
      </trkpt>
      <trkpt lat="48.25745" lon="-2.8717">
        <ele>149</ele>
        <time>2020-10-16T13:42:14.000Z</time>
      </trkpt>
      <trkpt lat="48.25745" lon="-2.8717">
        <ele>149</ele>
        <time>2020-10-16T13:42:15.000Z</time>
      </trkpt>
      <trkpt lat="48.25751" lon="-2.87168">
        <ele>148.80000305176</ele>
        <time>2020-10-16T13:42:16.000Z</time>
      </trkpt>
      <trkpt lat="48.25751" lon="-2.87168">
        <ele>148.80000305176</ele>
        <time>2020-10-16T13:42:17.000Z</time>
      </trkpt>
      <trkpt lat="48.25757" lon="-2.87167">
        <ele>148.60000610352</ele>
        <time>2020-10-16T13:42:18.000Z</time>
      </trkpt>
      <trkpt lat="48.25757" lon="-2.87167">
        <ele>148.60000610352</ele>
        <time>2020-10-16T13:42:19.000Z</time>
      </trkpt>
      <trkpt lat="48.25762" lon="-2.87166">
        <ele>148.60000610352</ele>
        <time>2020-10-16T13:42:20.000Z</time>
      </trkpt>
      <trkpt lat="48.25762" lon="-2.87166">
        <ele>148.60000610352</ele>
        <time>2020-10-16T13:42:21.000Z</time>
      </trkpt>
      <trkpt lat="48.25765" lon="-2.87167">
        <ele>148.60000610352</ele>
        <time>2020-10-16T13:42:22.000Z</time>
      </trkpt>
      <trkpt lat="48.25765" lon="-2.87167">
        <ele>148.60000610352</ele>
        <time>2020-10-16T13:42:23.000Z</time>
      </trkpt>
      <trkpt lat="48.25766" lon="-2.87167">
        <ele>148.60000610352</ele>
        <time>2020-10-16T13:42:24.000Z</time>
      </trkpt>
      <trkpt lat="48.25766" lon="-2.87167">
        <ele>148.60000610352</ele>
        <time>2020-10-16T13:42:25.000Z</time>
      </trkpt>
      <trkpt lat="48.25766" lon="-2.87166">
        <ele>148.60000610352</ele>
        <time>2020-10-16T13:42:26.000Z</time>
      </trkpt>
      <trkpt lat="48.25766" lon="-2.87166">
        <ele>148.60000610352</ele>
        <time>2020-10-16T13:42:27.000Z</time>
      </trkpt>
      <trkpt lat="48.25766" lon="-2.87166">
        <ele>148.60000610352</ele>
        <time>2020-10-16T13:42:28.000Z</time>
      </trkpt>
      <trkpt lat="48.25766" lon="-2.87166">
        <ele>148.60000610352</ele>
        <time>2020-10-16T13:42:29.000Z</time>
      </trkpt>
      <trkpt lat="48.25766" lon="-2.87166">
        <ele>148.60000610352</ele>
        <time>2020-10-16T13:42:30.000Z</time>
      </trkpt>
      <trkpt lat="48.25766" lon="-2.87166">
        <ele>148.60000610352</ele>
        <time>2020-10-16T13:42:31.000Z</time>
      </trkpt>
      <trkpt lat="48.25768" lon="-2.87168">
        <ele>148.60000610352</ele>
        <time>2020-10-16T13:42:32.000Z</time>
      </trkpt>
      <trkpt lat="48.25768" lon="-2.87168">
        <ele>148.60000610352</ele>
        <time>2020-10-16T13:42:33.000Z</time>
      </trkpt>
      <trkpt lat="48.25773" lon="-2.8717">
        <ele>148.60000610352</ele>
        <time>2020-10-16T13:42:34.000Z</time>
      </trkpt>
      <trkpt lat="48.25773" lon="-2.8717">
        <ele>148.60000610352</ele>
        <time>2020-10-16T13:42:35.000Z</time>
      </trkpt>
      <trkpt lat="48.2578" lon="-2.87169">
        <ele>148.60000610352</ele>
        <time>2020-10-16T13:42:36.000Z</time>
      </trkpt>
      <trkpt lat="48.2578" lon="-2.87169">
        <ele>148.60000610352</ele>
        <time>2020-10-16T13:42:37.000Z</time>
      </trkpt>
      <trkpt lat="48.25785" lon="-2.87166">
        <ele>148.19999694824</ele>
        <time>2020-10-16T13:42:38.000Z</time>
      </trkpt>
      <trkpt lat="48.25785" lon="-2.87166">
        <ele>148.19999694824</ele>
        <time>2020-10-16T13:42:39.000Z</time>
      </trkpt>
      <trkpt lat="48.25791" lon="-2.87161">
        <ele>148</ele>
        <time>2020-10-16T13:42:40.000Z</time>
      </trkpt>
      <trkpt lat="48.25791" lon="-2.87161">
        <ele>148</ele>
        <time>2020-10-16T13:42:41.000Z</time>
      </trkpt>
      <trkpt lat="48.25798" lon="-2.87157">
        <ele>147.60000610352</ele>
        <time>2020-10-16T13:42:42.000Z</time>
      </trkpt>
      <trkpt lat="48.25801" lon="-2.87155">
        <ele>147.39999389648</ele>
        <time>2020-10-16T13:42:43.000Z</time>
      </trkpt>
      <trkpt lat="48.25801" lon="-2.87155">
        <ele>147.39999389648</ele>
        <time>2020-10-16T13:42:44.000Z</time>
      </trkpt>
      <trkpt lat="48.25808" lon="-2.87153">
        <ele>147.19999694824</ele>
        <time>2020-10-16T13:42:45.000Z</time>
      </trkpt>
      <trkpt lat="48.25808" lon="-2.87153">
        <ele>147.19999694824</ele>
        <time>2020-10-16T13:42:46.000Z</time>
      </trkpt>
      <trkpt lat="48.25815" lon="-2.87152">
        <ele>147</ele>
        <time>2020-10-16T13:42:47.000Z</time>
      </trkpt>
      <trkpt lat="48.25815" lon="-2.87152">
        <ele>147</ele>
        <time>2020-10-16T13:42:48.000Z</time>
      </trkpt>
      <trkpt lat="48.25822" lon="-2.87152">
        <ele>147</ele>
        <time>2020-10-16T13:42:49.000Z</time>
      </trkpt>
      <trkpt lat="48.25822" lon="-2.87152">
        <ele>147</ele>
        <time>2020-10-16T13:42:50.000Z</time>
      </trkpt>
      <trkpt lat="48.2583" lon="-2.87151">
        <ele>146.80000305176</ele>
        <time>2020-10-16T13:42:51.000Z</time>
      </trkpt>
      <trkpt lat="48.2583" lon="-2.87151">
        <ele>146.80000305176</ele>
        <time>2020-10-16T13:42:52.000Z</time>
      </trkpt>
      <trkpt lat="48.25836" lon="-2.87151">
        <ele>146.80000305176</ele>
        <time>2020-10-16T13:42:53.000Z</time>
      </trkpt>
      <trkpt lat="48.25836" lon="-2.87151">
        <ele>146.80000305176</ele>
        <time>2020-10-16T13:42:54.000Z</time>
      </trkpt>
      <trkpt lat="48.25844" lon="-2.87152">
        <ele>146.80000305176</ele>
        <time>2020-10-16T13:42:55.000Z</time>
      </trkpt>
      <trkpt lat="48.25844" lon="-2.87152">
        <ele>146.80000305176</ele>
        <time>2020-10-16T13:42:56.000Z</time>
      </trkpt>
      <trkpt lat="48.25852" lon="-2.87152">
        <ele>146.80000305176</ele>
        <time>2020-10-16T13:42:57.000Z</time>
      </trkpt>
      <trkpt lat="48.25852" lon="-2.87152">
        <ele>146.80000305176</ele>
        <time>2020-10-16T13:42:58.000Z</time>
      </trkpt>
      <trkpt lat="48.2586" lon="-2.8715">
        <ele>147</ele>
        <time>2020-10-16T13:42:59.000Z</time>
      </trkpt>
      <trkpt lat="48.2586" lon="-2.8715">
        <ele>147</ele>
        <time>2020-10-16T13:43:00.000Z</time>
      </trkpt>
      <trkpt lat="48.25869" lon="-2.87148">
        <ele>147</ele>
        <time>2020-10-16T13:43:01.000Z</time>
      </trkpt>
      <trkpt lat="48.25869" lon="-2.87148">
        <ele>147</ele>
        <time>2020-10-16T13:43:02.000Z</time>
      </trkpt>
      <trkpt lat="48.25878" lon="-2.87146">
        <ele>147</ele>
        <time>2020-10-16T13:43:03.000Z</time>
      </trkpt>
      <trkpt lat="48.25878" lon="-2.87146">
        <ele>147</ele>
        <time>2020-10-16T13:43:04.000Z</time>
      </trkpt>
      <trkpt lat="48.25888" lon="-2.87143">
        <ele>147</ele>
        <time>2020-10-16T13:43:05.000Z</time>
      </trkpt>
      <trkpt lat="48.25888" lon="-2.87143">
        <ele>147</ele>
        <time>2020-10-16T13:43:06.000Z</time>
      </trkpt>
      <trkpt lat="48.25897" lon="-2.87142">
        <ele>146.80000305176</ele>
        <time>2020-10-16T13:43:07.000Z</time>
      </trkpt>
      <trkpt lat="48.25897" lon="-2.87142">
        <ele>146.80000305176</ele>
        <time>2020-10-16T13:43:08.000Z</time>
      </trkpt>
      <trkpt lat="48.25907" lon="-2.87139">
        <ele>146.80000305176</ele>
        <time>2020-10-16T13:43:09.000Z</time>
      </trkpt>
      <trkpt lat="48.25907" lon="-2.87139">
        <ele>146.80000305176</ele>
        <time>2020-10-16T13:43:10.000Z</time>
      </trkpt>
      <trkpt lat="48.25915" lon="-2.87137">
        <ele>146.80000305176</ele>
        <time>2020-10-16T13:43:11.000Z</time>
      </trkpt>
      <trkpt lat="48.25915" lon="-2.87137">
        <ele>146.80000305176</ele>
        <time>2020-10-16T13:43:12.000Z</time>
      </trkpt>
      <trkpt lat="48.25924" lon="-2.87134">
        <ele>146.60000610352</ele>
        <time>2020-10-16T13:43:13.000Z</time>
      </trkpt>
      <trkpt lat="48.25924" lon="-2.87134">
        <ele>146.60000610352</ele>
        <time>2020-10-16T13:43:14.000Z</time>
      </trkpt>
      <trkpt lat="48.25931" lon="-2.87131">
        <ele>146.60000610352</ele>
        <time>2020-10-16T13:43:15.000Z</time>
      </trkpt>
      <trkpt lat="48.25931" lon="-2.87131">
        <ele>146.60000610352</ele>
        <time>2020-10-16T13:43:16.000Z</time>
      </trkpt>
      <trkpt lat="48.25935" lon="-2.87129">
        <ele>146.60000610352</ele>
        <time>2020-10-16T13:43:17.000Z</time>
      </trkpt>
      <trkpt lat="48.25942" lon="-2.87126">
        <ele>146.60000610352</ele>
        <time>2020-10-16T13:43:18.000Z</time>
      </trkpt>
      <trkpt lat="48.25942" lon="-2.87126">
        <ele>146.60000610352</ele>
        <time>2020-10-16T13:43:19.000Z</time>
      </trkpt>
      <trkpt lat="48.2595" lon="-2.87123">
        <ele>146.60000610352</ele>
        <time>2020-10-16T13:43:20.000Z</time>
      </trkpt>
      <trkpt lat="48.2595" lon="-2.87123">
        <ele>146.60000610352</ele>
        <time>2020-10-16T13:43:21.000Z</time>
      </trkpt>
      <trkpt lat="48.25957" lon="-2.87121">
        <ele>146.80000305176</ele>
        <time>2020-10-16T13:43:22.000Z</time>
      </trkpt>
      <trkpt lat="48.25957" lon="-2.87121">
        <ele>146.80000305176</ele>
        <time>2020-10-16T13:43:23.000Z</time>
      </trkpt>
      <trkpt lat="48.25964" lon="-2.87119">
        <ele>146.80000305176</ele>
        <time>2020-10-16T13:43:24.000Z</time>
      </trkpt>
      <trkpt lat="48.25964" lon="-2.87119">
        <ele>146.80000305176</ele>
        <time>2020-10-16T13:43:25.000Z</time>
      </trkpt>
      <trkpt lat="48.25969" lon="-2.87116">
        <ele>146.80000305176</ele>
        <time>2020-10-16T13:43:26.000Z</time>
      </trkpt>
      <trkpt lat="48.25973" lon="-2.87113">
        <ele>147</ele>
        <time>2020-10-16T13:43:27.000Z</time>
      </trkpt>
      <trkpt lat="48.25981" lon="-2.87108">
        <ele>146.80000305176</ele>
        <time>2020-10-16T13:43:28.000Z</time>
      </trkpt>
      <trkpt lat="48.25981" lon="-2.87108">
        <ele>146.80000305176</ele>
        <time>2020-10-16T13:43:29.000Z</time>
      </trkpt>
      <trkpt lat="48.2599" lon="-2.87104">
        <ele>147</ele>
        <time>2020-10-16T13:43:30.000Z</time>
      </trkpt>
      <trkpt lat="48.2599" lon="-2.87104">
        <ele>147</ele>
        <time>2020-10-16T13:43:31.000Z</time>
      </trkpt>
      <trkpt lat="48.25998" lon="-2.87099">
        <ele>147</ele>
        <time>2020-10-16T13:43:32.000Z</time>
      </trkpt>
      <trkpt lat="48.25998" lon="-2.87099">
        <ele>147</ele>
        <time>2020-10-16T13:43:33.000Z</time>
      </trkpt>
      <trkpt lat="48.26006" lon="-2.87097">
        <ele>147</ele>
        <time>2020-10-16T13:43:34.000Z</time>
      </trkpt>
      <trkpt lat="48.26006" lon="-2.87097">
        <ele>147</ele>
        <time>2020-10-16T13:43:35.000Z</time>
      </trkpt>
      <trkpt lat="48.26015" lon="-2.87094">
        <ele>147.19999694824</ele>
        <time>2020-10-16T13:43:36.000Z</time>
      </trkpt>
      <trkpt lat="48.26015" lon="-2.87094">
        <ele>147.19999694824</ele>
        <time>2020-10-16T13:43:37.000Z</time>
      </trkpt>
      <trkpt lat="48.26024" lon="-2.87091">
        <ele>147.39999389648</ele>
        <time>2020-10-16T13:43:38.000Z</time>
      </trkpt>
      <trkpt lat="48.26024" lon="-2.87091">
        <ele>147.39999389648</ele>
        <time>2020-10-16T13:43:39.000Z</time>
      </trkpt>
      <trkpt lat="48.26034" lon="-2.87088">
        <ele>147.60000610352</ele>
        <time>2020-10-16T13:43:40.000Z</time>
      </trkpt>
      <trkpt lat="48.26034" lon="-2.87088">
        <ele>147.60000610352</ele>
        <time>2020-10-16T13:43:41.000Z</time>
      </trkpt>
      <trkpt lat="48.26043" lon="-2.87085">
        <ele>147.80000305176</ele>
        <time>2020-10-16T13:43:42.000Z</time>
      </trkpt>
      <trkpt lat="48.26043" lon="-2.87085">
        <ele>147.80000305176</ele>
        <time>2020-10-16T13:43:43.000Z</time>
      </trkpt>
      <trkpt lat="48.26051" lon="-2.87082">
        <ele>148</ele>
        <time>2020-10-16T13:43:44.000Z</time>
      </trkpt>
      <trkpt lat="48.26051" lon="-2.87082">
        <ele>148</ele>
        <time>2020-10-16T13:43:45.000Z</time>
      </trkpt>
      <trkpt lat="48.26059" lon="-2.87076">
        <ele>147.80000305176</ele>
        <time>2020-10-16T13:43:46.000Z</time>
      </trkpt>
      <trkpt lat="48.26059" lon="-2.87076">
        <ele>147.80000305176</ele>
        <time>2020-10-16T13:43:47.000Z</time>
      </trkpt>
      <trkpt lat="48.26066" lon="-2.8707">
        <ele>147.80000305176</ele>
        <time>2020-10-16T13:43:48.000Z</time>
      </trkpt>
      <trkpt lat="48.26066" lon="-2.8707">
        <ele>147.80000305176</ele>
        <time>2020-10-16T13:43:49.000Z</time>
      </trkpt>
      <trkpt lat="48.26072" lon="-2.87068">
        <ele>147.80000305176</ele>
        <time>2020-10-16T13:43:50.000Z</time>
      </trkpt>
      <trkpt lat="48.26072" lon="-2.87068">
        <ele>147.80000305176</ele>
        <time>2020-10-16T13:43:51.000Z</time>
      </trkpt>
      <trkpt lat="48.26074" lon="-2.87067">
        <ele>147.80000305176</ele>
        <time>2020-10-16T13:43:52.000Z</time>
      </trkpt>
      <trkpt lat="48.26078" lon="-2.87067">
        <ele>148</ele>
        <time>2020-10-16T13:43:53.000Z</time>
      </trkpt>
      <trkpt lat="48.26078" lon="-2.87067">
        <ele>148</ele>
        <time>2020-10-16T13:43:54.000Z</time>
      </trkpt>
      <trkpt lat="48.26082" lon="-2.87067">
        <ele>148.19999694824</ele>
        <time>2020-10-16T13:43:55.000Z</time>
      </trkpt>
      <trkpt lat="48.26082" lon="-2.87067">
        <ele>148.19999694824</ele>
        <time>2020-10-16T13:43:56.000Z</time>
      </trkpt>
      <trkpt lat="48.26087" lon="-2.87069">
        <ele>148.39999389648</ele>
        <time>2020-10-16T13:43:57.000Z</time>
      </trkpt>
      <trkpt lat="48.26087" lon="-2.87069">
        <ele>148.39999389648</ele>
        <time>2020-10-16T13:43:58.000Z</time>
      </trkpt>
      <trkpt lat="48.26089" lon="-2.87069">
        <ele>148.60000610352</ele>
        <time>2020-10-16T13:43:59.000Z</time>
      </trkpt>
      <trkpt lat="48.26092" lon="-2.87069">
        <ele>148.60000610352</ele>
        <time>2020-10-16T13:44:00.000Z</time>
      </trkpt>
      <trkpt lat="48.26095" lon="-2.87069">
        <ele>148.80000305176</ele>
        <time>2020-10-16T13:44:01.000Z</time>
      </trkpt>
      <trkpt lat="48.26101" lon="-2.87068">
        <ele>149</ele>
        <time>2020-10-16T13:44:02.000Z</time>
      </trkpt>
      <trkpt lat="48.26101" lon="-2.87068">
        <ele>149</ele>
        <time>2020-10-16T13:44:03.000Z</time>
      </trkpt>
      <trkpt lat="48.26107" lon="-2.87066">
        <ele>149.19999694824</ele>
        <time>2020-10-16T13:44:04.000Z</time>
      </trkpt>
      <trkpt lat="48.26107" lon="-2.87066">
        <ele>149.19999694824</ele>
        <time>2020-10-16T13:44:05.000Z</time>
      </trkpt>
      <trkpt lat="48.2611" lon="-2.87065">
        <ele>149.19999694824</ele>
        <time>2020-10-16T13:44:06.000Z</time>
      </trkpt>
      <trkpt lat="48.26117" lon="-2.87062">
        <ele>149.39999389648</ele>
        <time>2020-10-16T13:44:07.000Z</time>
      </trkpt>
      <trkpt lat="48.26117" lon="-2.87062">
        <ele>149.39999389648</ele>
        <time>2020-10-16T13:44:08.000Z</time>
      </trkpt>
      <trkpt lat="48.26123" lon="-2.87057">
        <ele>149.39999389648</ele>
        <time>2020-10-16T13:44:09.000Z</time>
      </trkpt>
      <trkpt lat="48.26123" lon="-2.87057">
        <ele>149.39999389648</ele>
        <time>2020-10-16T13:44:10.000Z</time>
      </trkpt>
      <trkpt lat="48.26131" lon="-2.87052">
        <ele>149.39999389648</ele>
        <time>2020-10-16T13:44:11.000Z</time>
      </trkpt>
      <trkpt lat="48.26131" lon="-2.87052">
        <ele>149.39999389648</ele>
        <time>2020-10-16T13:44:12.000Z</time>
      </trkpt>
      <trkpt lat="48.26139" lon="-2.87046">
        <ele>149.39999389648</ele>
        <time>2020-10-16T13:44:13.000Z</time>
      </trkpt>
      <trkpt lat="48.26139" lon="-2.87046">
        <ele>149.39999389648</ele>
        <time>2020-10-16T13:44:14.000Z</time>
      </trkpt>
      <trkpt lat="48.26147" lon="-2.87041">
        <ele>149.39999389648</ele>
        <time>2020-10-16T13:44:15.000Z</time>
      </trkpt>
      <trkpt lat="48.26147" lon="-2.87041">
        <ele>149.39999389648</ele>
        <time>2020-10-16T13:44:16.000Z</time>
      </trkpt>
      <trkpt lat="48.26151" lon="-2.87037">
        <ele>149.39999389648</ele>
        <time>2020-10-16T13:44:17.000Z</time>
      </trkpt>
      <trkpt lat="48.26157" lon="-2.87029">
        <ele>149.19999694824</ele>
        <time>2020-10-16T13:44:18.000Z</time>
      </trkpt>
      <trkpt lat="48.26157" lon="-2.87029">
        <ele>149.19999694824</ele>
        <time>2020-10-16T13:44:19.000Z</time>
      </trkpt>
      <trkpt lat="48.26162" lon="-2.87019">
        <ele>149</ele>
        <time>2020-10-16T13:44:20.000Z</time>
      </trkpt>
      <trkpt lat="48.26162" lon="-2.87019">
        <ele>149</ele>
        <time>2020-10-16T13:44:21.000Z</time>
      </trkpt>
      <trkpt lat="48.26164" lon="-2.87014">
        <ele>148.80000305176</ele>
        <time>2020-10-16T13:44:22.000Z</time>
      </trkpt>
      <trkpt lat="48.26168" lon="-2.87003">
        <ele>148.39999389648</ele>
        <time>2020-10-16T13:44:23.000Z</time>
      </trkpt>
      <trkpt lat="48.26168" lon="-2.87003">
        <ele>148.39999389648</ele>
        <time>2020-10-16T13:44:24.000Z</time>
      </trkpt>
      <trkpt lat="48.26169" lon="-2.86996">
        <ele>148.19999694824</ele>
        <time>2020-10-16T13:44:25.000Z</time>
      </trkpt>
      <trkpt lat="48.26173" lon="-2.86982">
        <ele>147.80000305176</ele>
        <time>2020-10-16T13:44:26.000Z</time>
      </trkpt>
      <trkpt lat="48.26173" lon="-2.86982">
        <ele>147.80000305176</ele>
        <time>2020-10-16T13:44:27.000Z</time>
      </trkpt>
      <trkpt lat="48.26176" lon="-2.86968">
        <ele>147.39999389648</ele>
        <time>2020-10-16T13:44:28.000Z</time>
      </trkpt>
      <trkpt lat="48.26176" lon="-2.86968">
        <ele>147.39999389648</ele>
        <time>2020-10-16T13:44:29.000Z</time>
      </trkpt>
      <trkpt lat="48.26179" lon="-2.86963">
        <ele>147.39999389648</ele>
        <time>2020-10-16T13:44:30.000Z</time>
      </trkpt>
      <trkpt lat="48.26184" lon="-2.86953">
        <ele>147.39999389648</ele>
        <time>2020-10-16T13:44:31.000Z</time>
      </trkpt>
      <trkpt lat="48.26184" lon="-2.86953">
        <ele>147.39999389648</ele>
        <time>2020-10-16T13:44:32.000Z</time>
      </trkpt>
      <trkpt lat="48.26187" lon="-2.8695">
        <ele>147.60000610352</ele>
        <time>2020-10-16T13:44:33.000Z</time>
      </trkpt>
      <trkpt lat="48.26195" lon="-2.86942">
        <ele>147.80000305176</ele>
        <time>2020-10-16T13:44:34.000Z</time>
      </trkpt>
      <trkpt lat="48.26195" lon="-2.86942">
        <ele>147.80000305176</ele>
        <time>2020-10-16T13:44:35.000Z</time>
      </trkpt>
      <trkpt lat="48.26202" lon="-2.86934">
        <ele>148</ele>
        <time>2020-10-16T13:44:36.000Z</time>
      </trkpt>
      <trkpt lat="48.26202" lon="-2.86934">
        <ele>148</ele>
        <time>2020-10-16T13:44:37.000Z</time>
      </trkpt>
      <trkpt lat="48.26209" lon="-2.86928">
        <ele>148.39999389648</ele>
        <time>2020-10-16T13:44:38.000Z</time>
      </trkpt>
      <trkpt lat="48.26209" lon="-2.86928">
        <ele>148.39999389648</ele>
        <time>2020-10-16T13:44:39.000Z</time>
      </trkpt>
      <trkpt lat="48.26215" lon="-2.86921">
        <ele>148.39999389648</ele>
        <time>2020-10-16T13:44:40.000Z</time>
      </trkpt>
      <trkpt lat="48.26218" lon="-2.86916">
        <ele>148.39999389648</ele>
        <time>2020-10-16T13:44:41.000Z</time>
      </trkpt>
      <trkpt lat="48.26218" lon="-2.86916">
        <ele>148.39999389648</ele>
        <time>2020-10-16T13:44:42.000Z</time>
      </trkpt>
      <trkpt lat="48.26224" lon="-2.86906">
        <ele>148.19999694824</ele>
        <time>2020-10-16T13:44:43.000Z</time>
      </trkpt>
      <trkpt lat="48.26224" lon="-2.86906">
        <ele>148.19999694824</ele>
        <time>2020-10-16T13:44:44.000Z</time>
      </trkpt>
      <trkpt lat="48.26229" lon="-2.86894">
        <ele>147.80000305176</ele>
        <time>2020-10-16T13:44:45.000Z</time>
      </trkpt>
      <trkpt lat="48.26229" lon="-2.86894">
        <ele>147.80000305176</ele>
        <time>2020-10-16T13:44:46.000Z</time>
      </trkpt>
      <trkpt lat="48.26234" lon="-2.86882">
        <ele>147.39999389648</ele>
        <time>2020-10-16T13:44:47.000Z</time>
      </trkpt>
      <trkpt lat="48.26234" lon="-2.86882">
        <ele>147.39999389648</ele>
        <time>2020-10-16T13:44:48.000Z</time>
      </trkpt>
      <trkpt lat="48.26239" lon="-2.86872">
        <ele>147.19999694824</ele>
        <time>2020-10-16T13:44:49.000Z</time>
      </trkpt>
      <trkpt lat="48.26239" lon="-2.86872">
        <ele>147.19999694824</ele>
        <time>2020-10-16T13:44:50.000Z</time>
      </trkpt>
      <trkpt lat="48.26244" lon="-2.86864">
        <ele>147.19999694824</ele>
        <time>2020-10-16T13:44:51.000Z</time>
      </trkpt>
      <trkpt lat="48.26244" lon="-2.86864">
        <ele>147.19999694824</ele>
        <time>2020-10-16T13:44:52.000Z</time>
      </trkpt>
      <trkpt lat="48.2625" lon="-2.86861">
        <ele>147.39999389648</ele>
        <time>2020-10-16T13:44:53.000Z</time>
      </trkpt>
      <trkpt lat="48.2625" lon="-2.86861">
        <ele>147.39999389648</ele>
        <time>2020-10-16T13:44:54.000Z</time>
      </trkpt>
      <trkpt lat="48.26255" lon="-2.8686">
        <ele>147.60000610352</ele>
        <time>2020-10-16T13:44:55.000Z</time>
      </trkpt>
      <trkpt lat="48.26255" lon="-2.8686">
        <ele>147.60000610352</ele>
        <time>2020-10-16T13:44:56.000Z</time>
      </trkpt>
      <trkpt lat="48.26259" lon="-2.86859">
        <ele>148</ele>
        <time>2020-10-16T13:44:57.000Z</time>
      </trkpt>
      <trkpt lat="48.26259" lon="-2.86859">
        <ele>148</ele>
        <time>2020-10-16T13:44:58.000Z</time>
      </trkpt>
      <trkpt lat="48.26264" lon="-2.8686">
        <ele>148.39999389648</ele>
        <time>2020-10-16T13:44:59.000Z</time>
      </trkpt>
      <trkpt lat="48.26264" lon="-2.8686">
        <ele>148.39999389648</ele>
        <time>2020-10-16T13:45:00.000Z</time>
      </trkpt>
      <trkpt lat="48.26269" lon="-2.86859">
        <ele>149</ele>
        <time>2020-10-16T13:45:01.000Z</time>
      </trkpt>
      <trkpt lat="48.26269" lon="-2.86859">
        <ele>149</ele>
        <time>2020-10-16T13:45:02.000Z</time>
      </trkpt>
      <trkpt lat="48.26274" lon="-2.86855">
        <ele>149.39999389648</ele>
        <time>2020-10-16T13:45:03.000Z</time>
      </trkpt>
      <trkpt lat="48.26274" lon="-2.86855">
        <ele>149.39999389648</ele>
        <time>2020-10-16T13:45:04.000Z</time>
      </trkpt>
      <trkpt lat="48.26276" lon="-2.86852">
        <ele>149.60000610352</ele>
        <time>2020-10-16T13:45:05.000Z</time>
      </trkpt>
      <trkpt lat="48.2628" lon="-2.86845">
        <ele>149.60000610352</ele>
        <time>2020-10-16T13:45:06.000Z</time>
      </trkpt>
      <trkpt lat="48.2628" lon="-2.86845">
        <ele>149.60000610352</ele>
        <time>2020-10-16T13:45:07.000Z</time>
      </trkpt>
      <trkpt lat="48.26283" lon="-2.86838">
        <ele>149.39999389648</ele>
        <time>2020-10-16T13:45:08.000Z</time>
      </trkpt>
      <trkpt lat="48.26283" lon="-2.86838">
        <ele>149.39999389648</ele>
        <time>2020-10-16T13:45:09.000Z</time>
      </trkpt>
      <trkpt lat="48.26285" lon="-2.86834">
        <ele>149</ele>
        <time>2020-10-16T13:45:10.000Z</time>
      </trkpt>
      <trkpt lat="48.2629" lon="-2.86825">
        <ele>148.19999694824</ele>
        <time>2020-10-16T13:45:11.000Z</time>
      </trkpt>
      <trkpt lat="48.2629" lon="-2.86825">
        <ele>148.19999694824</ele>
        <time>2020-10-16T13:45:12.000Z</time>
      </trkpt>
      <trkpt lat="48.26296" lon="-2.86819">
        <ele>148</ele>
        <time>2020-10-16T13:45:13.000Z</time>
      </trkpt>
      <trkpt lat="48.26296" lon="-2.86819">
        <ele>148</ele>
        <time>2020-10-16T13:45:14.000Z</time>
      </trkpt>
      <trkpt lat="48.26299" lon="-2.86817">
        <ele>148</ele>
        <time>2020-10-16T13:45:15.000Z</time>
      </trkpt>
      <trkpt lat="48.26306" lon="-2.86812">
        <ele>148.19999694824</ele>
        <time>2020-10-16T13:45:16.000Z</time>
      </trkpt>
      <trkpt lat="48.26306" lon="-2.86812">
        <ele>148.19999694824</ele>
        <time>2020-10-16T13:45:17.000Z</time>
      </trkpt>
      <trkpt lat="48.26309" lon="-2.8681">
        <ele>148.19999694824</ele>
        <time>2020-10-16T13:45:18.000Z</time>
      </trkpt>
      <trkpt lat="48.26315" lon="-2.86807">
        <ele>148.39999389648</ele>
        <time>2020-10-16T13:45:19.000Z</time>
      </trkpt>
      <trkpt lat="48.26315" lon="-2.86807">
        <ele>148.39999389648</ele>
        <time>2020-10-16T13:45:20.000Z</time>
      </trkpt>
      <trkpt lat="48.26318" lon="-2.86806">
        <ele>148.60000610352</ele>
        <time>2020-10-16T13:45:21.000Z</time>
      </trkpt>
      <trkpt lat="48.26325" lon="-2.86803">
        <ele>149.19999694824</ele>
        <time>2020-10-16T13:45:22.000Z</time>
      </trkpt>
      <trkpt lat="48.26325" lon="-2.86803">
        <ele>149.19999694824</ele>
        <time>2020-10-16T13:45:23.000Z</time>
      </trkpt>
      <trkpt lat="48.26332" lon="-2.86802">
        <ele>149.80000305176</ele>
        <time>2020-10-16T13:45:24.000Z</time>
      </trkpt>
      <trkpt lat="48.26332" lon="-2.86802">
        <ele>149.80000305176</ele>
        <time>2020-10-16T13:45:25.000Z</time>
      </trkpt>
      <trkpt lat="48.26336" lon="-2.86801">
        <ele>150.19999694824</ele>
        <time>2020-10-16T13:45:26.000Z</time>
      </trkpt>
      <trkpt lat="48.26342" lon="-2.86799">
        <ele>150.60000610352</ele>
        <time>2020-10-16T13:45:27.000Z</time>
      </trkpt>
      <trkpt lat="48.26342" lon="-2.86799">
        <ele>150.60000610352</ele>
        <time>2020-10-16T13:45:28.000Z</time>
      </trkpt>
      <trkpt lat="48.26349" lon="-2.86797">
        <ele>151.19999694824</ele>
        <time>2020-10-16T13:45:29.000Z</time>
      </trkpt>
      <trkpt lat="48.26349" lon="-2.86797">
        <ele>151.19999694824</ele>
        <time>2020-10-16T13:45:30.000Z</time>
      </trkpt>
      <trkpt lat="48.26353" lon="-2.86797">
        <ele>151.39999389648</ele>
        <time>2020-10-16T13:45:31.000Z</time>
      </trkpt>
      <trkpt lat="48.26359" lon="-2.86796">
        <ele>151.80000305176</ele>
        <time>2020-10-16T13:45:32.000Z</time>
      </trkpt>
      <trkpt lat="48.26359" lon="-2.86796">
        <ele>151.80000305176</ele>
        <time>2020-10-16T13:45:33.000Z</time>
      </trkpt>
      <trkpt lat="48.26362" lon="-2.86796">
        <ele>152</ele>
        <time>2020-10-16T13:45:34.000Z</time>
      </trkpt>
      <trkpt lat="48.26369" lon="-2.86796">
        <ele>152.60000610352</ele>
        <time>2020-10-16T13:45:35.000Z</time>
      </trkpt>
      <trkpt lat="48.26369" lon="-2.86796">
        <ele>152.60000610352</ele>
        <time>2020-10-16T13:45:36.000Z</time>
      </trkpt>
      <trkpt lat="48.26374" lon="-2.86795">
        <ele>152.80000305176</ele>
        <time>2020-10-16T13:45:37.000Z</time>
      </trkpt>
      <trkpt lat="48.26374" lon="-2.86795">
        <ele>152.80000305176</ele>
        <time>2020-10-16T13:45:38.000Z</time>
      </trkpt>
      <trkpt lat="48.26377" lon="-2.86794">
        <ele>153</ele>
        <time>2020-10-16T13:45:39.000Z</time>
      </trkpt>
      <trkpt lat="48.26383" lon="-2.86793">
        <ele>153.19999694824</ele>
        <time>2020-10-16T13:45:40.000Z</time>
      </trkpt>
      <trkpt lat="48.26383" lon="-2.86793">
        <ele>153.19999694824</ele>
        <time>2020-10-16T13:45:41.000Z</time>
      </trkpt>
      <trkpt lat="48.26387" lon="-2.86791">
        <ele>153.39999389648</ele>
        <time>2020-10-16T13:45:42.000Z</time>
      </trkpt>
      <trkpt lat="48.26394" lon="-2.86789">
        <ele>153.60000610352</ele>
        <time>2020-10-16T13:45:43.000Z</time>
      </trkpt>
      <trkpt lat="48.26394" lon="-2.86789">
        <ele>153.60000610352</ele>
        <time>2020-10-16T13:45:44.000Z</time>
      </trkpt>
      <trkpt lat="48.26401" lon="-2.86787">
        <ele>153.80000305176</ele>
        <time>2020-10-16T13:45:45.000Z</time>
      </trkpt>
      <trkpt lat="48.26401" lon="-2.86787">
        <ele>153.80000305176</ele>
        <time>2020-10-16T13:45:46.000Z</time>
      </trkpt>
      <trkpt lat="48.26405" lon="-2.86786">
        <ele>154</ele>
        <time>2020-10-16T13:45:47.000Z</time>
      </trkpt>
      <trkpt lat="48.26412" lon="-2.86785">
        <ele>154.60000610352</ele>
        <time>2020-10-16T13:45:48.000Z</time>
      </trkpt>
      <trkpt lat="48.26412" lon="-2.86785">
        <ele>154.60000610352</ele>
        <time>2020-10-16T13:45:49.000Z</time>
      </trkpt>
      <trkpt lat="48.26416" lon="-2.86784">
        <ele>154.80000305176</ele>
        <time>2020-10-16T13:45:50.000Z</time>
      </trkpt>
      <trkpt lat="48.26423" lon="-2.86781">
        <ele>154.80000305176</ele>
        <time>2020-10-16T13:45:51.000Z</time>
      </trkpt>
      <trkpt lat="48.26423" lon="-2.86781">
        <ele>154.80000305176</ele>
        <time>2020-10-16T13:45:52.000Z</time>
      </trkpt>
      <trkpt lat="48.26428" lon="-2.86779">
        <ele>155</ele>
        <time>2020-10-16T13:45:53.000Z</time>
      </trkpt>
      <trkpt lat="48.26436" lon="-2.86775">
        <ele>154.80000305176</ele>
        <time>2020-10-16T13:45:54.000Z</time>
      </trkpt>
      <trkpt lat="48.26436" lon="-2.86775">
        <ele>154.80000305176</ele>
        <time>2020-10-16T13:45:55.000Z</time>
      </trkpt>
      <trkpt lat="48.2644" lon="-2.86773">
        <ele>154.80000305176</ele>
        <time>2020-10-16T13:45:56.000Z</time>
      </trkpt>
      <trkpt lat="48.2645" lon="-2.8677">
        <ele>154.60000610352</ele>
        <time>2020-10-16T13:45:57.000Z</time>
      </trkpt>
      <trkpt lat="48.2645" lon="-2.8677">
        <ele>154.60000610352</ele>
        <time>2020-10-16T13:45:58.000Z</time>
      </trkpt>
      <trkpt lat="48.26454" lon="-2.86768">
        <ele>154.60000610352</ele>
        <time>2020-10-16T13:45:59.000Z</time>
      </trkpt>
      <trkpt lat="48.26463" lon="-2.86765">
        <ele>154.80000305176</ele>
        <time>2020-10-16T13:46:00.000Z</time>
      </trkpt>
      <trkpt lat="48.26463" lon="-2.86765">
        <ele>154.80000305176</ele>
        <time>2020-10-16T13:46:01.000Z</time>
      </trkpt>
      <trkpt lat="48.26471" lon="-2.86763">
        <ele>154.80000305176</ele>
        <time>2020-10-16T13:46:02.000Z</time>
      </trkpt>
      <trkpt lat="48.26471" lon="-2.86763">
        <ele>154.80000305176</ele>
        <time>2020-10-16T13:46:03.000Z</time>
      </trkpt>
      <trkpt lat="48.26478" lon="-2.86761">
        <ele>154.80000305176</ele>
        <time>2020-10-16T13:46:04.000Z</time>
      </trkpt>
      <trkpt lat="48.26478" lon="-2.86761">
        <ele>154.80000305176</ele>
        <time>2020-10-16T13:46:05.000Z</time>
      </trkpt>
      <trkpt lat="48.26482" lon="-2.8676">
        <ele>154.80000305176</ele>
        <time>2020-10-16T13:46:06.000Z</time>
      </trkpt>
      <trkpt lat="48.26487" lon="-2.86757">
        <ele>154.60000610352</ele>
        <time>2020-10-16T13:46:07.000Z</time>
      </trkpt>
      <trkpt lat="48.26487" lon="-2.86757">
        <ele>154.60000610352</ele>
        <time>2020-10-16T13:46:08.000Z</time>
      </trkpt>
      <trkpt lat="48.2649" lon="-2.86755">
        <ele>154.39999389648</ele>
        <time>2020-10-16T13:46:09.000Z</time>
      </trkpt>
      <trkpt lat="48.26495" lon="-2.86754">
        <ele>154.60000610352</ele>
        <time>2020-10-16T13:46:10.000Z</time>
      </trkpt>
      <trkpt lat="48.26495" lon="-2.86754">
        <ele>154.60000610352</ele>
        <time>2020-10-16T13:46:11.000Z</time>
      </trkpt>
      <trkpt lat="48.26498" lon="-2.86752">
        <ele>154.60000610352</ele>
        <time>2020-10-16T13:46:12.000Z</time>
      </trkpt>
      <trkpt lat="48.26502" lon="-2.8675">
        <ele>154.39999389648</ele>
        <time>2020-10-16T13:46:13.000Z</time>
      </trkpt>
      <trkpt lat="48.26502" lon="-2.8675">
        <ele>154.39999389648</ele>
        <time>2020-10-16T13:46:14.000Z</time>
      </trkpt>
      <trkpt lat="48.26506" lon="-2.86746">
        <ele>154</ele>
        <time>2020-10-16T13:46:15.000Z</time>
      </trkpt>
      <trkpt lat="48.26506" lon="-2.86746">
        <ele>154</ele>
        <time>2020-10-16T13:46:16.000Z</time>
      </trkpt>
      <trkpt lat="48.26508" lon="-2.86742">
        <ele>153.39999389648</ele>
        <time>2020-10-16T13:46:17.000Z</time>
      </trkpt>
      <trkpt lat="48.2651" lon="-2.86734">
        <ele>152.39999389648</ele>
        <time>2020-10-16T13:46:18.000Z</time>
      </trkpt>
      <trkpt lat="48.2651" lon="-2.86734">
        <ele>152.39999389648</ele>
        <time>2020-10-16T13:46:19.000Z</time>
      </trkpt>
      <trkpt lat="48.26511" lon="-2.86727">
        <ele>151.39999389648</ele>
        <time>2020-10-16T13:46:20.000Z</time>
      </trkpt>
      <trkpt lat="48.26511" lon="-2.86727">
        <ele>151.39999389648</ele>
        <time>2020-10-16T13:46:21.000Z</time>
      </trkpt>
      <trkpt lat="48.26513" lon="-2.86725">
        <ele>151.19999694824</ele>
        <time>2020-10-16T13:46:22.000Z</time>
      </trkpt>
      <trkpt lat="48.2652" lon="-2.86721">
        <ele>151.39999389648</ele>
        <time>2020-10-16T13:46:23.000Z</time>
      </trkpt>
      <trkpt lat="48.2652" lon="-2.86721">
        <ele>151.39999389648</ele>
        <time>2020-10-16T13:46:24.000Z</time>
      </trkpt>
      <trkpt lat="48.26526" lon="-2.86718">
        <ele>151.39999389648</ele>
        <time>2020-10-16T13:46:25.000Z</time>
      </trkpt>
      <trkpt lat="48.26526" lon="-2.86718">
        <ele>151.39999389648</ele>
        <time>2020-10-16T13:46:26.000Z</time>
      </trkpt>
      <trkpt lat="48.26533" lon="-2.86714">
        <ele>151.60000610352</ele>
        <time>2020-10-16T13:46:27.000Z</time>
      </trkpt>
      <trkpt lat="48.26533" lon="-2.86714">
        <ele>151.60000610352</ele>
        <time>2020-10-16T13:46:28.000Z</time>
      </trkpt>
      <trkpt lat="48.26541" lon="-2.86709">
        <ele>151.60000610352</ele>
        <time>2020-10-16T13:46:29.000Z</time>
      </trkpt>
      <trkpt lat="48.26541" lon="-2.86709">
        <ele>151.60000610352</ele>
        <time>2020-10-16T13:46:30.000Z</time>
      </trkpt>
      <trkpt lat="48.26548" lon="-2.86703">
        <ele>151.60000610352</ele>
        <time>2020-10-16T13:46:31.000Z</time>
      </trkpt>
      <trkpt lat="48.26548" lon="-2.86703">
        <ele>151.60000610352</ele>
        <time>2020-10-16T13:46:32.000Z</time>
      </trkpt>
      <trkpt lat="48.26554" lon="-2.86699">
        <ele>151.60000610352</ele>
        <time>2020-10-16T13:46:33.000Z</time>
      </trkpt>
      <trkpt lat="48.26554" lon="-2.86699">
        <ele>151.60000610352</ele>
        <time>2020-10-16T13:46:34.000Z</time>
      </trkpt>
      <trkpt lat="48.26561" lon="-2.86695">
        <ele>151.60000610352</ele>
        <time>2020-10-16T13:46:35.000Z</time>
      </trkpt>
      <trkpt lat="48.26561" lon="-2.86695">
        <ele>151.60000610352</ele>
        <time>2020-10-16T13:46:36.000Z</time>
      </trkpt>
      <trkpt lat="48.26565" lon="-2.86692">
        <ele>151.60000610352</ele>
        <time>2020-10-16T13:46:37.000Z</time>
      </trkpt>
      <trkpt lat="48.26573" lon="-2.86687">
        <ele>151.60000610352</ele>
        <time>2020-10-16T13:46:38.000Z</time>
      </trkpt>
      <trkpt lat="48.26576" lon="-2.86684">
        <ele>151.60000610352</ele>
        <time>2020-10-16T13:46:39.000Z</time>
      </trkpt>
      <trkpt lat="48.26576" lon="-2.86684">
        <ele>151.60000610352</ele>
        <time>2020-10-16T13:46:40.000Z</time>
      </trkpt>
      <trkpt lat="48.26584" lon="-2.86679">
        <ele>151.60000610352</ele>
        <time>2020-10-16T13:46:41.000Z</time>
      </trkpt>
      <trkpt lat="48.26584" lon="-2.86679">
        <ele>151.60000610352</ele>
        <time>2020-10-16T13:46:42.000Z</time>
      </trkpt>
      <trkpt lat="48.26588" lon="-2.86676">
        <ele>151.60000610352</ele>
        <time>2020-10-16T13:46:43.000Z</time>
      </trkpt>
      <trkpt lat="48.26596" lon="-2.8667">
        <ele>151.60000610352</ele>
        <time>2020-10-16T13:46:44.000Z</time>
      </trkpt>
      <trkpt lat="48.26596" lon="-2.8667">
        <ele>151.60000610352</ele>
        <time>2020-10-16T13:46:45.000Z</time>
      </trkpt>
      <trkpt lat="48.26602" lon="-2.86665">
        <ele>151.39999389648</ele>
        <time>2020-10-16T13:46:46.000Z</time>
      </trkpt>
      <trkpt lat="48.26602" lon="-2.86665">
        <ele>151.39999389648</ele>
        <time>2020-10-16T13:46:47.000Z</time>
      </trkpt>
      <trkpt lat="48.26606" lon="-2.86662">
        <ele>151.19999694824</ele>
        <time>2020-10-16T13:46:48.000Z</time>
      </trkpt>
      <trkpt lat="48.26614" lon="-2.86658">
        <ele>151.19999694824</ele>
        <time>2020-10-16T13:46:49.000Z</time>
      </trkpt>
      <trkpt lat="48.26614" lon="-2.86658">
        <ele>151.19999694824</ele>
        <time>2020-10-16T13:46:50.000Z</time>
      </trkpt>
      <trkpt lat="48.26618" lon="-2.86655">
        <ele>151.19999694824</ele>
        <time>2020-10-16T13:46:51.000Z</time>
      </trkpt>
      <trkpt lat="48.26627" lon="-2.8665">
        <ele>151</ele>
        <time>2020-10-16T13:46:52.000Z</time>
      </trkpt>
      <trkpt lat="48.26627" lon="-2.8665">
        <ele>151</ele>
        <time>2020-10-16T13:46:53.000Z</time>
      </trkpt>
      <trkpt lat="48.26632" lon="-2.86648">
        <ele>151</ele>
        <time>2020-10-16T13:46:54.000Z</time>
      </trkpt>
      <trkpt lat="48.2664" lon="-2.86644">
        <ele>151</ele>
        <time>2020-10-16T13:46:55.000Z</time>
      </trkpt>
      <trkpt lat="48.2664" lon="-2.86644">
        <ele>151</ele>
        <time>2020-10-16T13:46:56.000Z</time>
      </trkpt>
      <trkpt lat="48.26647" lon="-2.86639">
        <ele>150.80000305176</ele>
        <time>2020-10-16T13:46:57.000Z</time>
      </trkpt>
      <trkpt lat="48.26647" lon="-2.86639">
        <ele>150.80000305176</ele>
        <time>2020-10-16T13:46:58.000Z</time>
      </trkpt>
      <trkpt lat="48.26651" lon="-2.86637">
        <ele>150.80000305176</ele>
        <time>2020-10-16T13:46:59.000Z</time>
      </trkpt>
      <trkpt lat="48.26654" lon="-2.86635">
        <ele>150.60000610352</ele>
        <time>2020-10-16T13:47:00.000Z</time>
      </trkpt>
      <trkpt lat="48.26657" lon="-2.86633">
        <ele>150.60000610352</ele>
        <time>2020-10-16T13:47:01.000Z</time>
      </trkpt>
      <trkpt lat="48.26664" lon="-2.86628">
        <ele>150.39999389648</ele>
        <time>2020-10-16T13:47:02.000Z</time>
      </trkpt>
      <trkpt lat="48.26664" lon="-2.86628">
        <ele>150.39999389648</ele>
        <time>2020-10-16T13:47:03.000Z</time>
      </trkpt>
      <trkpt lat="48.26671" lon="-2.86622">
        <ele>150.19999694824</ele>
        <time>2020-10-16T13:47:04.000Z</time>
      </trkpt>
      <trkpt lat="48.26671" lon="-2.86622">
        <ele>150.19999694824</ele>
        <time>2020-10-16T13:47:05.000Z</time>
      </trkpt>
      <trkpt lat="48.26675" lon="-2.8662">
        <ele>150</ele>
        <time>2020-10-16T13:47:06.000Z</time>
      </trkpt>
      <trkpt lat="48.26684" lon="-2.86613">
        <ele>150.19999694824</ele>
        <time>2020-10-16T13:47:07.000Z</time>
      </trkpt>
      <trkpt lat="48.26684" lon="-2.86613">
        <ele>150.19999694824</ele>
        <time>2020-10-16T13:47:08.000Z</time>
      </trkpt>
      <trkpt lat="48.26687" lon="-2.86609">
        <ele>150.19999694824</ele>
        <time>2020-10-16T13:47:09.000Z</time>
      </trkpt>
      <trkpt lat="48.26694" lon="-2.86602">
        <ele>150.19999694824</ele>
        <time>2020-10-16T13:47:10.000Z</time>
      </trkpt>
      <trkpt lat="48.26694" lon="-2.86602">
        <ele>150.19999694824</ele>
        <time>2020-10-16T13:47:11.000Z</time>
      </trkpt>
      <trkpt lat="48.26697" lon="-2.86597">
        <ele>150.19999694824</ele>
        <time>2020-10-16T13:47:12.000Z</time>
      </trkpt>
      <trkpt lat="48.26701" lon="-2.8659">
        <ele>150</ele>
        <time>2020-10-16T13:47:13.000Z</time>
      </trkpt>
      <trkpt lat="48.26701" lon="-2.8659">
        <ele>150</ele>
        <time>2020-10-16T13:47:14.000Z</time>
      </trkpt>
      <trkpt lat="48.26703" lon="-2.86586">
        <ele>149.80000305176</ele>
        <time>2020-10-16T13:47:15.000Z</time>
      </trkpt>
      <trkpt lat="48.26706" lon="-2.86579">
        <ele>149.60000610352</ele>
        <time>2020-10-16T13:47:16.000Z</time>
      </trkpt>
      <trkpt lat="48.26706" lon="-2.86579">
        <ele>149.60000610352</ele>
        <time>2020-10-16T13:47:17.000Z</time>
      </trkpt>
      <trkpt lat="48.26708" lon="-2.86574">
        <ele>149.39999389648</ele>
        <time>2020-10-16T13:47:18.000Z</time>
      </trkpt>
      <trkpt lat="48.26712" lon="-2.86565">
        <ele>148.80000305176</ele>
        <time>2020-10-16T13:47:19.000Z</time>
      </trkpt>
      <trkpt lat="48.26712" lon="-2.86565">
        <ele>148.80000305176</ele>
        <time>2020-10-16T13:47:20.000Z</time>
      </trkpt>
      <trkpt lat="48.26718" lon="-2.86554">
        <ele>148.60000610352</ele>
        <time>2020-10-16T13:47:21.000Z</time>
      </trkpt>
      <trkpt lat="48.26718" lon="-2.86554">
        <ele>148.60000610352</ele>
        <time>2020-10-16T13:47:22.000Z</time>
      </trkpt>
      <trkpt lat="48.26724" lon="-2.86544">
        <ele>148.39999389648</ele>
        <time>2020-10-16T13:47:23.000Z</time>
      </trkpt>
      <trkpt lat="48.26724" lon="-2.86544">
        <ele>148.39999389648</ele>
        <time>2020-10-16T13:47:24.000Z</time>
      </trkpt>
      <trkpt lat="48.26729" lon="-2.86536">
        <ele>148.39999389648</ele>
        <time>2020-10-16T13:47:25.000Z</time>
      </trkpt>
      <trkpt lat="48.26729" lon="-2.86536">
        <ele>148.39999389648</ele>
        <time>2020-10-16T13:47:26.000Z</time>
      </trkpt>
      <trkpt lat="48.26736" lon="-2.86525">
        <ele>148</ele>
        <time>2020-10-16T13:47:27.000Z</time>
      </trkpt>
      <trkpt lat="48.26736" lon="-2.86525">
        <ele>148</ele>
        <time>2020-10-16T13:47:28.000Z</time>
      </trkpt>
      <trkpt lat="48.26742" lon="-2.86515">
        <ele>147.80000305176</ele>
        <time>2020-10-16T13:47:29.000Z</time>
      </trkpt>
      <trkpt lat="48.26742" lon="-2.86515">
        <ele>147.80000305176</ele>
        <time>2020-10-16T13:47:30.000Z</time>
      </trkpt>
      <trkpt lat="48.26745" lon="-2.86511">
        <ele>147.80000305176</ele>
        <time>2020-10-16T13:47:31.000Z</time>
      </trkpt>
      <trkpt lat="48.26751" lon="-2.86502">
        <ele>147.60000610352</ele>
        <time>2020-10-16T13:47:32.000Z</time>
      </trkpt>
      <trkpt lat="48.26751" lon="-2.86502">
        <ele>147.60000610352</ele>
        <time>2020-10-16T13:47:33.000Z</time>
      </trkpt>
      <trkpt lat="48.26753" lon="-2.86498">
        <ele>147.60000610352</ele>
        <time>2020-10-16T13:47:34.000Z</time>
      </trkpt>
      <trkpt lat="48.26761" lon="-2.86491">
        <ele>147.80000305176</ele>
        <time>2020-10-16T13:47:35.000Z</time>
      </trkpt>
      <trkpt lat="48.26761" lon="-2.86491">
        <ele>147.80000305176</ele>
        <time>2020-10-16T13:47:36.000Z</time>
      </trkpt>
      <trkpt lat="48.26767" lon="-2.86486">
        <ele>148</ele>
        <time>2020-10-16T13:47:37.000Z</time>
      </trkpt>
      <trkpt lat="48.2677" lon="-2.86483">
        <ele>148.19999694824</ele>
        <time>2020-10-16T13:47:38.000Z</time>
      </trkpt>
      <trkpt lat="48.2677" lon="-2.86483">
        <ele>148.19999694824</ele>
        <time>2020-10-16T13:47:39.000Z</time>
      </trkpt>
      <trkpt lat="48.26777" lon="-2.86476">
        <ele>148.19999694824</ele>
        <time>2020-10-16T13:47:40.000Z</time>
      </trkpt>
      <trkpt lat="48.26777" lon="-2.86476">
        <ele>148.19999694824</ele>
        <time>2020-10-16T13:47:41.000Z</time>
      </trkpt>
      <trkpt lat="48.26781" lon="-2.86473">
        <ele>148.39999389648</ele>
        <time>2020-10-16T13:47:42.000Z</time>
      </trkpt>
      <trkpt lat="48.26787" lon="-2.86467">
        <ele>148.60000610352</ele>
        <time>2020-10-16T13:47:43.000Z</time>
      </trkpt>
      <trkpt lat="48.26787" lon="-2.86467">
        <ele>148.60000610352</ele>
        <time>2020-10-16T13:47:44.000Z</time>
      </trkpt>
      <trkpt lat="48.26793" lon="-2.86463">
        <ele>148.80000305176</ele>
        <time>2020-10-16T13:47:45.000Z</time>
      </trkpt>
      <trkpt lat="48.26793" lon="-2.86463">
        <ele>148.80000305176</ele>
        <time>2020-10-16T13:47:46.000Z</time>
      </trkpt>
      <trkpt lat="48.26796" lon="-2.8646">
        <ele>149</ele>
        <time>2020-10-16T13:47:47.000Z</time>
      </trkpt>
      <trkpt lat="48.26802" lon="-2.86457">
        <ele>149.19999694824</ele>
        <time>2020-10-16T13:47:48.000Z</time>
      </trkpt>
      <trkpt lat="48.26802" lon="-2.86457">
        <ele>149.19999694824</ele>
        <time>2020-10-16T13:47:49.000Z</time>
      </trkpt>
      <trkpt lat="48.26805" lon="-2.86454">
        <ele>149.39999389648</ele>
        <time>2020-10-16T13:47:50.000Z</time>
      </trkpt>
      <trkpt lat="48.26812" lon="-2.86448">
        <ele>149.60000610352</ele>
        <time>2020-10-16T13:47:51.000Z</time>
      </trkpt>
      <trkpt lat="48.26812" lon="-2.86448">
        <ele>149.60000610352</ele>
        <time>2020-10-16T13:47:52.000Z</time>
      </trkpt>
      <trkpt lat="48.2682" lon="-2.86441">
        <ele>149.80000305176</ele>
        <time>2020-10-16T13:47:53.000Z</time>
      </trkpt>
      <trkpt lat="48.2682" lon="-2.86441">
        <ele>149.80000305176</ele>
        <time>2020-10-16T13:47:54.000Z</time>
      </trkpt>
      <trkpt lat="48.26826" lon="-2.86437">
        <ele>150</ele>
        <time>2020-10-16T13:47:55.000Z</time>
      </trkpt>
      <trkpt lat="48.26836" lon="-2.86432">
        <ele>150.80000305176</ele>
        <time>2020-10-16T13:47:56.000Z</time>
      </trkpt>
      <trkpt lat="48.26836" lon="-2.86432">
        <ele>150.80000305176</ele>
        <time>2020-10-16T13:47:57.000Z</time>
      </trkpt>
      <trkpt lat="48.26845" lon="-2.86428">
        <ele>151.39999389648</ele>
        <time>2020-10-16T13:47:58.000Z</time>
      </trkpt>
      <trkpt lat="48.26845" lon="-2.86428">
        <ele>151.39999389648</ele>
        <time>2020-10-16T13:47:59.000Z</time>
      </trkpt>
      <trkpt lat="48.26849" lon="-2.86425">
        <ele>151.60000610352</ele>
        <time>2020-10-16T13:48:00.000Z</time>
      </trkpt>
      <trkpt lat="48.26857" lon="-2.8642">
        <ele>151.39999389648</ele>
        <time>2020-10-16T13:48:01.000Z</time>
      </trkpt>
      <trkpt lat="48.26857" lon="-2.8642">
        <ele>151.39999389648</ele>
        <time>2020-10-16T13:48:02.000Z</time>
      </trkpt>
      <trkpt lat="48.26864" lon="-2.86414">
        <ele>150.80000305176</ele>
        <time>2020-10-16T13:48:03.000Z</time>
      </trkpt>
      <trkpt lat="48.26864" lon="-2.86414">
        <ele>150.80000305176</ele>
        <time>2020-10-16T13:48:04.000Z</time>
      </trkpt>
      <trkpt lat="48.26867" lon="-2.86413">
        <ele>150.80000305176</ele>
        <time>2020-10-16T13:48:05.000Z</time>
      </trkpt>
      <trkpt lat="48.26874" lon="-2.86411">
        <ele>150.80000305176</ele>
        <time>2020-10-16T13:48:06.000Z</time>
      </trkpt>
      <trkpt lat="48.26874" lon="-2.86411">
        <ele>150.80000305176</ele>
        <time>2020-10-16T13:48:07.000Z</time>
      </trkpt>
      <trkpt lat="48.26878" lon="-2.86409">
        <ele>150.80000305176</ele>
        <time>2020-10-16T13:48:08.000Z</time>
      </trkpt>
      <trkpt lat="48.26886" lon="-2.86406">
        <ele>150.80000305176</ele>
        <time>2020-10-16T13:48:09.000Z</time>
      </trkpt>
      <trkpt lat="48.26886" lon="-2.86406">
        <ele>150.80000305176</ele>
        <time>2020-10-16T13:48:10.000Z</time>
      </trkpt>
      <trkpt lat="48.26895" lon="-2.86403">
        <ele>151</ele>
        <time>2020-10-16T13:48:11.000Z</time>
      </trkpt>
      <trkpt lat="48.26895" lon="-2.86403">
        <ele>151</ele>
        <time>2020-10-16T13:48:12.000Z</time>
      </trkpt>
      <trkpt lat="48.26899" lon="-2.86402">
        <ele>151.19999694824</ele>
        <time>2020-10-16T13:48:13.000Z</time>
      </trkpt>
      <trkpt lat="48.26908" lon="-2.864">
        <ele>151.60000610352</ele>
        <time>2020-10-16T13:48:14.000Z</time>
      </trkpt>
      <trkpt lat="48.26908" lon="-2.864">
        <ele>151.60000610352</ele>
        <time>2020-10-16T13:48:15.000Z</time>
      </trkpt>
      <trkpt lat="48.26913" lon="-2.86398">
        <ele>151.60000610352</ele>
        <time>2020-10-16T13:48:16.000Z</time>
      </trkpt>
      <trkpt lat="48.26921" lon="-2.86396">
        <ele>151.80000305176</ele>
        <time>2020-10-16T13:48:17.000Z</time>
      </trkpt>
      <trkpt lat="48.26921" lon="-2.86396">
        <ele>151.80000305176</ele>
        <time>2020-10-16T13:48:18.000Z</time>
      </trkpt>
      <trkpt lat="48.26929" lon="-2.86395">
        <ele>152.39999389648</ele>
        <time>2020-10-16T13:48:19.000Z</time>
      </trkpt>
      <trkpt lat="48.26929" lon="-2.86395">
        <ele>152.39999389648</ele>
        <time>2020-10-16T13:48:20.000Z</time>
      </trkpt>
      <trkpt lat="48.26933" lon="-2.86394">
        <ele>152.19999694824</ele>
        <time>2020-10-16T13:48:21.000Z</time>
      </trkpt>
      <trkpt lat="48.26942" lon="-2.86392">
        <ele>151.60000610352</ele>
        <time>2020-10-16T13:48:22.000Z</time>
      </trkpt>
      <trkpt lat="48.26942" lon="-2.86392">
        <ele>151.60000610352</ele>
        <time>2020-10-16T13:48:23.000Z</time>
      </trkpt>
      <trkpt lat="48.26946" lon="-2.8639">
        <ele>151.19999694824</ele>
        <time>2020-10-16T13:48:24.000Z</time>
      </trkpt>
      <trkpt lat="48.26953" lon="-2.86388">
        <ele>150.60000610352</ele>
        <time>2020-10-16T13:48:25.000Z</time>
      </trkpt>
      <trkpt lat="48.26953" lon="-2.86388">
        <ele>150.60000610352</ele>
        <time>2020-10-16T13:48:26.000Z</time>
      </trkpt>
      <trkpt lat="48.26959" lon="-2.86387">
        <ele>150.39999389648</ele>
        <time>2020-10-16T13:48:27.000Z</time>
      </trkpt>
      <trkpt lat="48.26959" lon="-2.86387">
        <ele>150.39999389648</ele>
        <time>2020-10-16T13:48:28.000Z</time>
      </trkpt>
      <trkpt lat="48.26963" lon="-2.86385">
        <ele>150</ele>
        <time>2020-10-16T13:48:29.000Z</time>
      </trkpt>
      <trkpt lat="48.26971" lon="-2.86382">
        <ele>149.19999694824</ele>
        <time>2020-10-16T13:48:30.000Z</time>
      </trkpt>
      <trkpt lat="48.26971" lon="-2.86382">
        <ele>149.19999694824</ele>
        <time>2020-10-16T13:48:31.000Z</time>
      </trkpt>
      <trkpt lat="48.26981" lon="-2.8638">
        <ele>149.19999694824</ele>
        <time>2020-10-16T13:48:32.000Z</time>
      </trkpt>
      <trkpt lat="48.26981" lon="-2.8638">
        <ele>149.19999694824</ele>
        <time>2020-10-16T13:48:33.000Z</time>
      </trkpt>
      <trkpt lat="48.2699" lon="-2.86379">
        <ele>149.39999389648</ele>
        <time>2020-10-16T13:48:34.000Z</time>
      </trkpt>
      <trkpt lat="48.2699" lon="-2.86379">
        <ele>149.39999389648</ele>
        <time>2020-10-16T13:48:35.000Z</time>
      </trkpt>
      <trkpt lat="48.26998" lon="-2.86378">
        <ele>149.39999389648</ele>
        <time>2020-10-16T13:48:36.000Z</time>
      </trkpt>
      <trkpt lat="48.27003" lon="-2.86376">
        <ele>149.19999694824</ele>
        <time>2020-10-16T13:48:37.000Z</time>
      </trkpt>
      <trkpt lat="48.27003" lon="-2.86376">
        <ele>149.19999694824</ele>
        <time>2020-10-16T13:48:38.000Z</time>
      </trkpt>
      <trkpt lat="48.27007" lon="-2.86374">
        <ele>149</ele>
        <time>2020-10-16T13:48:39.000Z</time>
      </trkpt>
      <trkpt lat="48.27016" lon="-2.86371">
        <ele>148.39999389648</ele>
        <time>2020-10-16T13:48:40.000Z</time>
      </trkpt>
      <trkpt lat="48.27016" lon="-2.86371">
        <ele>148.39999389648</ele>
        <time>2020-10-16T13:48:41.000Z</time>
      </trkpt>
      <trkpt lat="48.27025" lon="-2.86368">
        <ele>148.19999694824</ele>
        <time>2020-10-16T13:48:42.000Z</time>
      </trkpt>
      <trkpt lat="48.27025" lon="-2.86368">
        <ele>148.19999694824</ele>
        <time>2020-10-16T13:48:43.000Z</time>
      </trkpt>
      <trkpt lat="48.27029" lon="-2.86366">
        <ele>148</ele>
        <time>2020-10-16T13:48:44.000Z</time>
      </trkpt>
      <trkpt lat="48.27038" lon="-2.86362">
        <ele>147.39999389648</ele>
        <time>2020-10-16T13:48:45.000Z</time>
      </trkpt>
      <trkpt lat="48.27038" lon="-2.86362">
        <ele>147.39999389648</ele>
        <time>2020-10-16T13:48:46.000Z</time>
      </trkpt>
      <trkpt lat="48.27042" lon="-2.8636">
        <ele>147.19999694824</ele>
        <time>2020-10-16T13:48:47.000Z</time>
      </trkpt>
      <trkpt lat="48.27051" lon="-2.86358">
        <ele>147.19999694824</ele>
        <time>2020-10-16T13:48:48.000Z</time>
      </trkpt>
      <trkpt lat="48.27051" lon="-2.86358">
        <ele>147.19999694824</ele>
        <time>2020-10-16T13:48:49.000Z</time>
      </trkpt>
      <trkpt lat="48.27055" lon="-2.86355">
        <ele>146.80000305176</ele>
        <time>2020-10-16T13:48:50.000Z</time>
      </trkpt>
      <trkpt lat="48.27063" lon="-2.86353">
        <ele>146.80000305176</ele>
        <time>2020-10-16T13:48:51.000Z</time>
      </trkpt>
      <trkpt lat="48.27063" lon="-2.86353">
        <ele>146.80000305176</ele>
        <time>2020-10-16T13:48:52.000Z</time>
      </trkpt>
      <trkpt lat="48.27071" lon="-2.86353">
        <ele>147.19999694824</ele>
        <time>2020-10-16T13:48:53.000Z</time>
      </trkpt>
      <trkpt lat="48.27071" lon="-2.86353">
        <ele>147.19999694824</ele>
        <time>2020-10-16T13:48:54.000Z</time>
      </trkpt>
      <trkpt lat="48.27078" lon="-2.86356">
        <ele>148.19999694824</ele>
        <time>2020-10-16T13:48:55.000Z</time>
      </trkpt>
      <trkpt lat="48.27078" lon="-2.86356">
        <ele>148.19999694824</ele>
        <time>2020-10-16T13:48:56.000Z</time>
      </trkpt>
      <trkpt lat="48.27081" lon="-2.86357">
        <ele>148.80000305176</ele>
        <time>2020-10-16T13:48:57.000Z</time>
      </trkpt>
      <trkpt lat="48.27087" lon="-2.8636">
        <ele>150.39999389648</ele>
        <time>2020-10-16T13:48:58.000Z</time>
      </trkpt>
      <trkpt lat="48.27087" lon="-2.8636">
        <ele>150.39999389648</ele>
        <time>2020-10-16T13:48:59.000Z</time>
      </trkpt>
      <trkpt lat="48.2709" lon="-2.86362">
        <ele>150.80000305176</ele>
        <time>2020-10-16T13:49:00.000Z</time>
      </trkpt>
      <trkpt lat="48.27093" lon="-2.86364">
        <ele>151.80000305176</ele>
        <time>2020-10-16T13:49:01.000Z</time>
      </trkpt>
      <trkpt lat="48.27098" lon="-2.8637">
        <ele>153.39999389648</ele>
        <time>2020-10-16T13:49:02.000Z</time>
      </trkpt>
      <trkpt lat="48.27098" lon="-2.8637">
        <ele>153.39999389648</ele>
        <time>2020-10-16T13:49:03.000Z</time>
      </trkpt>
      <trkpt lat="48.27103" lon="-2.86377">
        <ele>155</ele>
        <time>2020-10-16T13:49:04.000Z</time>
      </trkpt>
      <trkpt lat="48.27103" lon="-2.86377">
        <ele>155</ele>
        <time>2020-10-16T13:49:05.000Z</time>
      </trkpt>
      <trkpt lat="48.27108" lon="-2.86386">
        <ele>156.80000305176</ele>
        <time>2020-10-16T13:49:06.000Z</time>
      </trkpt>
      <trkpt lat="48.27108" lon="-2.86386">
        <ele>156.80000305176</ele>
        <time>2020-10-16T13:49:07.000Z</time>
      </trkpt>
      <trkpt lat="48.2711" lon="-2.8639">
        <ele>157.60000610352</ele>
        <time>2020-10-16T13:49:08.000Z</time>
      </trkpt>
      <trkpt lat="48.27116" lon="-2.86398">
        <ele>159</ele>
        <time>2020-10-16T13:49:09.000Z</time>
      </trkpt>
      <trkpt lat="48.27116" lon="-2.86398">
        <ele>159</ele>
        <time>2020-10-16T13:49:10.000Z</time>
      </trkpt>
      <trkpt lat="48.27119" lon="-2.86401">
        <ele>159.39999389648</ele>
        <time>2020-10-16T13:49:11.000Z</time>
      </trkpt>
      <trkpt lat="48.27125" lon="-2.86408">
        <ele>160</ele>
        <time>2020-10-16T13:49:12.000Z</time>
      </trkpt>
      <trkpt lat="48.27125" lon="-2.86408">
        <ele>160</ele>
        <time>2020-10-16T13:49:13.000Z</time>
      </trkpt>
      <trkpt lat="48.27128" lon="-2.86411">
        <ele>160</ele>
        <time>2020-10-16T13:49:14.000Z</time>
      </trkpt>
      <trkpt lat="48.27134" lon="-2.86417">
        <ele>160.39999389648</ele>
        <time>2020-10-16T13:49:15.000Z</time>
      </trkpt>
      <trkpt lat="48.27137" lon="-2.86419">
        <ele>160.39999389648</ele>
        <time>2020-10-16T13:49:16.000Z</time>
      </trkpt>
      <trkpt lat="48.27137" lon="-2.86419">
        <ele>160.39999389648</ele>
        <time>2020-10-16T13:49:17.000Z</time>
      </trkpt>
      <trkpt lat="48.27139" lon="-2.86422">
        <ele>160.39999389648</ele>
        <time>2020-10-16T13:49:18.000Z</time>
      </trkpt>
      <trkpt lat="48.27146" lon="-2.86426">
        <ele>160.19999694824</ele>
        <time>2020-10-16T13:49:19.000Z</time>
      </trkpt>
      <trkpt lat="48.27146" lon="-2.86426">
        <ele>160.19999694824</ele>
        <time>2020-10-16T13:49:20.000Z</time>
      </trkpt>
      <trkpt lat="48.27148" lon="-2.86429">
        <ele>160.19999694824</ele>
        <time>2020-10-16T13:49:21.000Z</time>
      </trkpt>
      <trkpt lat="48.27154" lon="-2.86433">
        <ele>160</ele>
        <time>2020-10-16T13:49:22.000Z</time>
      </trkpt>
      <trkpt lat="48.27154" lon="-2.86433">
        <ele>160</ele>
        <time>2020-10-16T13:49:23.000Z</time>
      </trkpt>
      <trkpt lat="48.27157" lon="-2.86436">
        <ele>160</ele>
        <time>2020-10-16T13:49:24.000Z</time>
      </trkpt>
      <trkpt lat="48.27163" lon="-2.86443">
        <ele>160</ele>
        <time>2020-10-16T13:49:25.000Z</time>
      </trkpt>
      <trkpt lat="48.27163" lon="-2.86443">
        <ele>160</ele>
        <time>2020-10-16T13:49:26.000Z</time>
      </trkpt>
      <trkpt lat="48.27166" lon="-2.86445">
        <ele>159.60000610352</ele>
        <time>2020-10-16T13:49:27.000Z</time>
      </trkpt>
      <trkpt lat="48.27173" lon="-2.86447">
        <ele>158.60000610352</ele>
        <time>2020-10-16T13:49:28.000Z</time>
      </trkpt>
      <trkpt lat="48.27173" lon="-2.86447">
        <ele>158.60000610352</ele>
        <time>2020-10-16T13:49:29.000Z</time>
      </trkpt>
      <trkpt lat="48.27176" lon="-2.86448">
        <ele>158</ele>
        <time>2020-10-16T13:49:30.000Z</time>
      </trkpt>
      <trkpt lat="48.27184" lon="-2.86448">
        <ele>157</ele>
        <time>2020-10-16T13:49:31.000Z</time>
      </trkpt>
      <trkpt lat="48.27184" lon="-2.86448">
        <ele>157</ele>
        <time>2020-10-16T13:49:32.000Z</time>
      </trkpt>
      <trkpt lat="48.27187" lon="-2.86447">
        <ele>156.60000610352</ele>
        <time>2020-10-16T13:49:33.000Z</time>
      </trkpt>
      <trkpt lat="48.27195" lon="-2.86448">
        <ele>156.19999694824</ele>
        <time>2020-10-16T13:49:34.000Z</time>
      </trkpt>
      <trkpt lat="48.27195" lon="-2.86448">
        <ele>156.19999694824</ele>
        <time>2020-10-16T13:49:35.000Z</time>
      </trkpt>
      <trkpt lat="48.27199" lon="-2.86448">
        <ele>156</ele>
        <time>2020-10-16T13:49:36.000Z</time>
      </trkpt>
      <trkpt lat="48.27206" lon="-2.86448">
        <ele>155.60000610352</ele>
        <time>2020-10-16T13:49:37.000Z</time>
      </trkpt>
      <trkpt lat="48.27206" lon="-2.86448">
        <ele>155.60000610352</ele>
        <time>2020-10-16T13:49:38.000Z</time>
      </trkpt>
      <trkpt lat="48.2721" lon="-2.86447">
        <ele>155.19999694824</ele>
        <time>2020-10-16T13:49:39.000Z</time>
      </trkpt>
      <trkpt lat="48.27217" lon="-2.86446">
        <ele>154.80000305176</ele>
        <time>2020-10-16T13:49:40.000Z</time>
      </trkpt>
      <trkpt lat="48.27217" lon="-2.86446">
        <ele>154.80000305176</ele>
        <time>2020-10-16T13:49:41.000Z</time>
      </trkpt>
      <trkpt lat="48.2722" lon="-2.86446">
        <ele>154.39999389648</ele>
        <time>2020-10-16T13:49:42.000Z</time>
      </trkpt>
      <trkpt lat="48.27227" lon="-2.86444">
        <ele>153.60000610352</ele>
        <time>2020-10-16T13:49:43.000Z</time>
      </trkpt>
      <trkpt lat="48.27227" lon="-2.86444">
        <ele>153.60000610352</ele>
        <time>2020-10-16T13:49:44.000Z</time>
      </trkpt>
      <trkpt lat="48.2723" lon="-2.86443">
        <ele>153.39999389648</ele>
        <time>2020-10-16T13:49:45.000Z</time>
      </trkpt>
      <trkpt lat="48.27237" lon="-2.86442">
        <ele>152.80000305176</ele>
        <time>2020-10-16T13:49:46.000Z</time>
      </trkpt>
      <trkpt lat="48.27237" lon="-2.86442">
        <ele>152.80000305176</ele>
        <time>2020-10-16T13:49:47.000Z</time>
      </trkpt>
      <trkpt lat="48.27239" lon="-2.86441">
        <ele>152.60000610352</ele>
        <time>2020-10-16T13:49:48.000Z</time>
      </trkpt>
      <trkpt lat="48.27246" lon="-2.86439">
        <ele>151.80000305176</ele>
        <time>2020-10-16T13:49:49.000Z</time>
      </trkpt>
      <trkpt lat="48.27246" lon="-2.86439">
        <ele>151.80000305176</ele>
        <time>2020-10-16T13:49:50.000Z</time>
      </trkpt>
      <trkpt lat="48.27249" lon="-2.86438">
        <ele>151.39999389648</ele>
        <time>2020-10-16T13:49:51.000Z</time>
      </trkpt>
      <trkpt lat="48.27255" lon="-2.86433">
        <ele>150</ele>
        <time>2020-10-16T13:49:52.000Z</time>
      </trkpt>
      <trkpt lat="48.27255" lon="-2.86433">
        <ele>150</ele>
        <time>2020-10-16T13:49:53.000Z</time>
      </trkpt>
      <trkpt lat="48.27258" lon="-2.86431">
        <ele>149.39999389648</ele>
        <time>2020-10-16T13:49:54.000Z</time>
      </trkpt>
      <trkpt lat="48.27264" lon="-2.86426">
        <ele>148.39999389648</ele>
        <time>2020-10-16T13:49:55.000Z</time>
      </trkpt>
      <trkpt lat="48.27267" lon="-2.86423">
        <ele>148.19999694824</ele>
        <time>2020-10-16T13:49:56.000Z</time>
      </trkpt>
      <trkpt lat="48.27267" lon="-2.86423">
        <ele>148.19999694824</ele>
        <time>2020-10-16T13:49:57.000Z</time>
      </trkpt>
      <trkpt lat="48.2727" lon="-2.86421">
        <ele>148</ele>
        <time>2020-10-16T13:49:58.000Z</time>
      </trkpt>
      <trkpt lat="48.27274" lon="-2.86417">
        <ele>147.39999389648</ele>
        <time>2020-10-16T13:49:59.000Z</time>
      </trkpt>
      <trkpt lat="48.27276" lon="-2.86414">
        <ele>147.19999694824</ele>
        <time>2020-10-16T13:50:00.000Z</time>
      </trkpt>
      <trkpt lat="48.27278" lon="-2.86413">
        <ele>147</ele>
        <time>2020-10-16T13:50:01.000Z</time>
      </trkpt>
      <trkpt lat="48.27278" lon="-2.86413">
        <ele>147</ele>
        <time>2020-10-16T13:50:02.000Z</time>
      </trkpt>
      <trkpt lat="48.2728" lon="-2.8641">
        <ele>146.80000305176</ele>
        <time>2020-10-16T13:50:03.000Z</time>
      </trkpt>
      <trkpt lat="48.27284" lon="-2.86406">
        <ele>146.19999694824</ele>
        <time>2020-10-16T13:50:04.000Z</time>
      </trkpt>
      <trkpt lat="48.27284" lon="-2.86406">
        <ele>146.19999694824</ele>
        <time>2020-10-16T13:50:05.000Z</time>
      </trkpt>
      <trkpt lat="48.27286" lon="-2.86403">
        <ele>146</ele>
        <time>2020-10-16T13:50:06.000Z</time>
      </trkpt>
      <trkpt lat="48.27291" lon="-2.86397">
        <ele>145.39999389648</ele>
        <time>2020-10-16T13:50:07.000Z</time>
      </trkpt>
      <trkpt lat="48.27291" lon="-2.86397">
        <ele>145.39999389648</ele>
        <time>2020-10-16T13:50:08.000Z</time>
      </trkpt>
      <trkpt lat="48.27294" lon="-2.86395">
        <ele>145</ele>
        <time>2020-10-16T13:50:09.000Z</time>
      </trkpt>
      <trkpt lat="48.273" lon="-2.86392">
        <ele>144.80000305176</ele>
        <time>2020-10-16T13:50:10.000Z</time>
      </trkpt>
      <trkpt lat="48.273" lon="-2.86392">
        <ele>144.80000305176</ele>
        <time>2020-10-16T13:50:11.000Z</time>
      </trkpt>
      <trkpt lat="48.27303" lon="-2.86391">
        <ele>144.60000610352</ele>
        <time>2020-10-16T13:50:12.000Z</time>
      </trkpt>
      <trkpt lat="48.27309" lon="-2.86391">
        <ele>144.80000305176</ele>
        <time>2020-10-16T13:50:13.000Z</time>
      </trkpt>
      <trkpt lat="48.27309" lon="-2.86391">
        <ele>144.80000305176</ele>
        <time>2020-10-16T13:50:14.000Z</time>
      </trkpt>
      <trkpt lat="48.27312" lon="-2.86391">
        <ele>144.80000305176</ele>
        <time>2020-10-16T13:50:15.000Z</time>
      </trkpt>
      <trkpt lat="48.27318" lon="-2.86393">
        <ele>145</ele>
        <time>2020-10-16T13:50:16.000Z</time>
      </trkpt>
      <trkpt lat="48.27318" lon="-2.86393">
        <ele>145</ele>
        <time>2020-10-16T13:50:17.000Z</time>
      </trkpt>
      <trkpt lat="48.27321" lon="-2.86394">
        <ele>145.39999389648</ele>
        <time>2020-10-16T13:50:18.000Z</time>
      </trkpt>
      <trkpt lat="48.27328" lon="-2.86399">
        <ele>146</ele>
        <time>2020-10-16T13:50:19.000Z</time>
      </trkpt>
      <trkpt lat="48.27328" lon="-2.86399">
        <ele>146</ele>
        <time>2020-10-16T13:50:20.000Z</time>
      </trkpt>
      <trkpt lat="48.27331" lon="-2.86402">
        <ele>146.19999694824</ele>
        <time>2020-10-16T13:50:21.000Z</time>
      </trkpt>
      <trkpt lat="48.27337" lon="-2.86408">
        <ele>147</ele>
        <time>2020-10-16T13:50:22.000Z</time>
      </trkpt>
      <trkpt lat="48.27337" lon="-2.86408">
        <ele>147</ele>
        <time>2020-10-16T13:50:23.000Z</time>
      </trkpt>
      <trkpt lat="48.2734" lon="-2.86411">
        <ele>147.60000610352</ele>
        <time>2020-10-16T13:50:24.000Z</time>
      </trkpt>
      <trkpt lat="48.27342" lon="-2.86414">
        <ele>148</ele>
        <time>2020-10-16T13:50:25.000Z</time>
      </trkpt>
      <trkpt lat="48.27344" lon="-2.86418">
        <ele>148.39999389648</ele>
        <time>2020-10-16T13:50:26.000Z</time>
      </trkpt>
      <trkpt lat="48.27347" lon="-2.86425">
        <ele>148.80000305176</ele>
        <time>2020-10-16T13:50:27.000Z</time>
      </trkpt>
      <trkpt lat="48.27347" lon="-2.86425">
        <ele>148.80000305176</ele>
        <time>2020-10-16T13:50:28.000Z</time>
      </trkpt>
      <trkpt lat="48.27349" lon="-2.86432">
        <ele>148.60000610352</ele>
        <time>2020-10-16T13:50:29.000Z</time>
      </trkpt>
      <trkpt lat="48.27349" lon="-2.86432">
        <ele>148.60000610352</ele>
        <time>2020-10-16T13:50:30.000Z</time>
      </trkpt>
      <trkpt lat="48.27349" lon="-2.8644">
        <ele>148.39999389648</ele>
        <time>2020-10-16T13:50:31.000Z</time>
      </trkpt>
      <trkpt lat="48.27349" lon="-2.8644">
        <ele>148.39999389648</ele>
        <time>2020-10-16T13:50:32.000Z</time>
      </trkpt>
      <trkpt lat="48.2735" lon="-2.86444">
        <ele>148.39999389648</ele>
        <time>2020-10-16T13:50:33.000Z</time>
      </trkpt>
      <trkpt lat="48.2735" lon="-2.86453">
        <ele>148.19999694824</ele>
        <time>2020-10-16T13:50:34.000Z</time>
      </trkpt>
      <trkpt lat="48.2735" lon="-2.86458">
        <ele>148.19999694824</ele>
        <time>2020-10-16T13:50:35.000Z</time>
      </trkpt>
      <trkpt lat="48.2735" lon="-2.86458">
        <ele>148.19999694824</ele>
        <time>2020-10-16T13:50:36.000Z</time>
      </trkpt>
      <trkpt lat="48.27351" lon="-2.86469">
        <ele>148.19999694824</ele>
        <time>2020-10-16T13:50:37.000Z</time>
      </trkpt>
      <trkpt lat="48.27351" lon="-2.86469">
        <ele>148.19999694824</ele>
        <time>2020-10-16T13:50:38.000Z</time>
      </trkpt>
      <trkpt lat="48.27351" lon="-2.86475">
        <ele>148</ele>
        <time>2020-10-16T13:50:39.000Z</time>
      </trkpt>
      <trkpt lat="48.27351" lon="-2.86487">
        <ele>148</ele>
        <time>2020-10-16T13:50:40.000Z</time>
      </trkpt>
      <trkpt lat="48.27351" lon="-2.86487">
        <ele>148</ele>
        <time>2020-10-16T13:50:41.000Z</time>
      </trkpt>
      <trkpt lat="48.27352" lon="-2.86493">
        <ele>148</ele>
        <time>2020-10-16T13:50:42.000Z</time>
      </trkpt>
      <trkpt lat="48.27351" lon="-2.86505">
        <ele>148</ele>
        <time>2020-10-16T13:50:43.000Z</time>
      </trkpt>
      <trkpt lat="48.27351" lon="-2.86505">
        <ele>148</ele>
        <time>2020-10-16T13:50:44.000Z</time>
      </trkpt>
      <trkpt lat="48.27351" lon="-2.86517">
        <ele>148</ele>
        <time>2020-10-16T13:50:45.000Z</time>
      </trkpt>
      <trkpt lat="48.27351" lon="-2.86517">
        <ele>148</ele>
        <time>2020-10-16T13:50:46.000Z</time>
      </trkpt>
      <trkpt lat="48.27351" lon="-2.86523">
        <ele>148</ele>
        <time>2020-10-16T13:50:47.000Z</time>
      </trkpt>
      <trkpt lat="48.2735" lon="-2.86533">
        <ele>148.19999694824</ele>
        <time>2020-10-16T13:50:48.000Z</time>
      </trkpt>
      <trkpt lat="48.2735" lon="-2.86533">
        <ele>148.19999694824</ele>
        <time>2020-10-16T13:50:49.000Z</time>
      </trkpt>
      <trkpt lat="48.2735" lon="-2.86538">
        <ele>148.19999694824</ele>
        <time>2020-10-16T13:50:50.000Z</time>
      </trkpt>
      <trkpt lat="48.2735" lon="-2.86551">
        <ele>148.19999694824</ele>
        <time>2020-10-16T13:50:51.000Z</time>
      </trkpt>
      <trkpt lat="48.2735" lon="-2.86551">
        <ele>148.19999694824</ele>
        <time>2020-10-16T13:50:52.000Z</time>
      </trkpt>
      <trkpt lat="48.2735" lon="-2.86558">
        <ele>148.19999694824</ele>
        <time>2020-10-16T13:50:53.000Z</time>
      </trkpt>
      <trkpt lat="48.2735" lon="-2.86571">
        <ele>148.19999694824</ele>
        <time>2020-10-16T13:50:54.000Z</time>
      </trkpt>
      <trkpt lat="48.2735" lon="-2.86578">
        <ele>148.19999694824</ele>
        <time>2020-10-16T13:50:55.000Z</time>
      </trkpt>
      <trkpt lat="48.2735" lon="-2.86578">
        <ele>148.19999694824</ele>
        <time>2020-10-16T13:50:56.000Z</time>
      </trkpt>
      <trkpt lat="48.2735" lon="-2.86589">
        <ele>148.19999694824</ele>
        <time>2020-10-16T13:50:57.000Z</time>
      </trkpt>
      <trkpt lat="48.2735" lon="-2.86589">
        <ele>148.19999694824</ele>
        <time>2020-10-16T13:50:58.000Z</time>
      </trkpt>
      <trkpt lat="48.2735" lon="-2.86596">
        <ele>148.19999694824</ele>
        <time>2020-10-16T13:50:59.000Z</time>
      </trkpt>
      <trkpt lat="48.27349" lon="-2.86603">
        <ele>148.19999694824</ele>
        <time>2020-10-16T13:51:00.000Z</time>
      </trkpt>
      <trkpt lat="48.27348" lon="-2.86609">
        <ele>148.60000610352</ele>
        <time>2020-10-16T13:51:01.000Z</time>
      </trkpt>
      <trkpt lat="48.27346" lon="-2.86621">
        <ele>149</ele>
        <time>2020-10-16T13:51:02.000Z</time>
      </trkpt>
      <trkpt lat="48.27346" lon="-2.86621">
        <ele>149</ele>
        <time>2020-10-16T13:51:03.000Z</time>
      </trkpt>
      <trkpt lat="48.27345" lon="-2.86631">
        <ele>149.19999694824</ele>
        <time>2020-10-16T13:51:04.000Z</time>
      </trkpt>
      <trkpt lat="48.27345" lon="-2.86631">
        <ele>149.19999694824</ele>
        <time>2020-10-16T13:51:05.000Z</time>
      </trkpt>
      <trkpt lat="48.27345" lon="-2.86636">
        <ele>149.19999694824</ele>
        <time>2020-10-16T13:51:06.000Z</time>
      </trkpt>
      <trkpt lat="48.27344" lon="-2.86647">
        <ele>149.39999389648</ele>
        <time>2020-10-16T13:51:07.000Z</time>
      </trkpt>
      <trkpt lat="48.27344" lon="-2.86647">
        <ele>149.39999389648</ele>
        <time>2020-10-16T13:51:08.000Z</time>
      </trkpt>
      <trkpt lat="48.27343" lon="-2.86654">
        <ele>149.60000610352</ele>
        <time>2020-10-16T13:51:09.000Z</time>
      </trkpt>
      <trkpt lat="48.2734" lon="-2.86666">
        <ele>150</ele>
        <time>2020-10-16T13:51:10.000Z</time>
      </trkpt>
      <trkpt lat="48.2734" lon="-2.86666">
        <ele>150</ele>
        <time>2020-10-16T13:51:11.000Z</time>
      </trkpt>
      <trkpt lat="48.27339" lon="-2.86672">
        <ele>150.19999694824</ele>
        <time>2020-10-16T13:51:12.000Z</time>
      </trkpt>
      <trkpt lat="48.27336" lon="-2.86682">
        <ele>150.60000610352</ele>
        <time>2020-10-16T13:51:13.000Z</time>
      </trkpt>
      <trkpt lat="48.27336" lon="-2.86682">
        <ele>150.60000610352</ele>
        <time>2020-10-16T13:51:14.000Z</time>
      </trkpt>
      <trkpt lat="48.27335" lon="-2.86688">
        <ele>150.60000610352</ele>
        <time>2020-10-16T13:51:15.000Z</time>
      </trkpt>
      <trkpt lat="48.27333" lon="-2.86694">
        <ele>150.80000305176</ele>
        <time>2020-10-16T13:51:16.000Z</time>
      </trkpt>
      <trkpt lat="48.27333" lon="-2.86694">
        <ele>150.80000305176</ele>
        <time>2020-10-16T13:51:17.000Z</time>
      </trkpt>
      <trkpt lat="48.2733" lon="-2.86696">
        <ele>151.39999389648</ele>
        <time>2020-10-16T13:51:18.000Z</time>
      </trkpt>
      <trkpt lat="48.2733" lon="-2.86696">
        <ele>151.39999389648</ele>
        <time>2020-10-16T13:51:19.000Z</time>
      </trkpt>
      <trkpt lat="48.27328" lon="-2.86697">
        <ele>151.60000610352</ele>
        <time>2020-10-16T13:51:20.000Z</time>
      </trkpt>
      <trkpt lat="48.27325" lon="-2.86699">
        <ele>152.19999694824</ele>
        <time>2020-10-16T13:51:21.000Z</time>
      </trkpt>
      <trkpt lat="48.27325" lon="-2.86699">
        <ele>152.19999694824</ele>
        <time>2020-10-16T13:51:22.000Z</time>
      </trkpt>
      <trkpt lat="48.27324" lon="-2.86701">
        <ele>152.39999389648</ele>
        <time>2020-10-16T13:51:23.000Z</time>
      </trkpt>
      <trkpt lat="48.27321" lon="-2.86706">
        <ele>152.80000305176</ele>
        <time>2020-10-16T13:51:24.000Z</time>
      </trkpt>
      <trkpt lat="48.27321" lon="-2.86706">
        <ele>152.80000305176</ele>
        <time>2020-10-16T13:51:25.000Z</time>
      </trkpt>
      <trkpt lat="48.27318" lon="-2.86711">
        <ele>153.19999694824</ele>
        <time>2020-10-16T13:51:26.000Z</time>
      </trkpt>
      <trkpt lat="48.27318" lon="-2.86711">
        <ele>153.19999694824</ele>
        <time>2020-10-16T13:51:27.000Z</time>
      </trkpt>
      <trkpt lat="48.27316" lon="-2.86713">
        <ele>153.39999389648</ele>
        <time>2020-10-16T13:51:28.000Z</time>
      </trkpt>
      <trkpt lat="48.27313" lon="-2.86719">
        <ele>153.80000305176</ele>
        <time>2020-10-16T13:51:29.000Z</time>
      </trkpt>
      <trkpt lat="48.27313" lon="-2.86719">
        <ele>153.80000305176</ele>
        <time>2020-10-16T13:51:30.000Z</time>
      </trkpt>
      <trkpt lat="48.27312" lon="-2.86723">
        <ele>154</ele>
        <time>2020-10-16T13:51:31.000Z</time>
      </trkpt>
      <trkpt lat="48.27311" lon="-2.86732">
        <ele>153.80000305176</ele>
        <time>2020-10-16T13:51:32.000Z</time>
      </trkpt>
      <trkpt lat="48.27311" lon="-2.86732">
        <ele>153.80000305176</ele>
        <time>2020-10-16T13:51:33.000Z</time>
      </trkpt>
      <trkpt lat="48.27308" lon="-2.8674">
        <ele>154.19999694824</ele>
        <time>2020-10-16T13:51:34.000Z</time>
      </trkpt>
      <trkpt lat="48.27308" lon="-2.8674">
        <ele>154.19999694824</ele>
        <time>2020-10-16T13:51:35.000Z</time>
      </trkpt>
      <trkpt lat="48.27304" lon="-2.86747">
        <ele>154.80000305176</ele>
        <time>2020-10-16T13:51:36.000Z</time>
      </trkpt>
      <trkpt lat="48.27304" lon="-2.86747">
        <ele>154.80000305176</ele>
        <time>2020-10-16T13:51:37.000Z</time>
      </trkpt>
      <trkpt lat="48.273" lon="-2.86756">
        <ele>155.39999389648</ele>
        <time>2020-10-16T13:51:38.000Z</time>
      </trkpt>
      <trkpt lat="48.273" lon="-2.86756">
        <ele>155.39999389648</ele>
        <time>2020-10-16T13:51:39.000Z</time>
      </trkpt>
      <trkpt lat="48.27297" lon="-2.86765">
        <ele>156</ele>
        <time>2020-10-16T13:51:40.000Z</time>
      </trkpt>
      <trkpt lat="48.27297" lon="-2.86765">
        <ele>156</ele>
        <time>2020-10-16T13:51:41.000Z</time>
      </trkpt>
      <trkpt lat="48.27295" lon="-2.86775">
        <ele>156.19999694824</ele>
        <time>2020-10-16T13:51:42.000Z</time>
      </trkpt>
      <trkpt lat="48.27295" lon="-2.86775">
        <ele>156.19999694824</ele>
        <time>2020-10-16T13:51:43.000Z</time>
      </trkpt>
      <trkpt lat="48.27295" lon="-2.86786">
        <ele>156.39999389648</ele>
        <time>2020-10-16T13:51:44.000Z</time>
      </trkpt>
      <trkpt lat="48.27295" lon="-2.86786">
        <ele>156.39999389648</ele>
        <time>2020-10-16T13:51:45.000Z</time>
      </trkpt>
      <trkpt lat="48.27294" lon="-2.86799">
        <ele>156.39999389648</ele>
        <time>2020-10-16T13:51:46.000Z</time>
      </trkpt>
      <trkpt lat="48.27294" lon="-2.86799">
        <ele>156.39999389648</ele>
        <time>2020-10-16T13:51:47.000Z</time>
      </trkpt>
      <trkpt lat="48.27294" lon="-2.86813">
        <ele>156</ele>
        <time>2020-10-16T13:51:48.000Z</time>
      </trkpt>
      <trkpt lat="48.27294" lon="-2.86813">
        <ele>156</ele>
        <time>2020-10-16T13:51:49.000Z</time>
      </trkpt>
      <trkpt lat="48.27296" lon="-2.86829">
        <ele>154.39999389648</ele>
        <time>2020-10-16T13:51:50.000Z</time>
      </trkpt>
      <trkpt lat="48.27296" lon="-2.86829">
        <ele>154.39999389648</ele>
        <time>2020-10-16T13:51:51.000Z</time>
      </trkpt>
      <trkpt lat="48.27296" lon="-2.86842">
        <ele>153.60000610352</ele>
        <time>2020-10-16T13:51:52.000Z</time>
      </trkpt>
      <trkpt lat="48.27296" lon="-2.86842">
        <ele>153.60000610352</ele>
        <time>2020-10-16T13:51:53.000Z</time>
      </trkpt>
      <trkpt lat="48.27297" lon="-2.86852">
        <ele>153.39999389648</ele>
        <time>2020-10-16T13:51:54.000Z</time>
      </trkpt>
      <trkpt lat="48.27297" lon="-2.86852">
        <ele>153.39999389648</ele>
        <time>2020-10-16T13:51:55.000Z</time>
      </trkpt>
      <trkpt lat="48.27298" lon="-2.86864">
        <ele>153.39999389648</ele>
        <time>2020-10-16T13:51:56.000Z</time>
      </trkpt>
      <trkpt lat="48.27298" lon="-2.86864">
        <ele>153.39999389648</ele>
        <time>2020-10-16T13:51:57.000Z</time>
      </trkpt>
      <trkpt lat="48.27298" lon="-2.86879">
        <ele>153.60000610352</ele>
        <time>2020-10-16T13:51:58.000Z</time>
      </trkpt>
      <trkpt lat="48.27298" lon="-2.86879">
        <ele>153.60000610352</ele>
        <time>2020-10-16T13:51:59.000Z</time>
      </trkpt>
      <trkpt lat="48.27298" lon="-2.86885">
        <ele>153.80000305176</ele>
        <time>2020-10-16T13:52:00.000Z</time>
      </trkpt>
      <trkpt lat="48.27297" lon="-2.86893">
        <ele>153.80000305176</ele>
        <time>2020-10-16T13:52:01.000Z</time>
      </trkpt>
      <trkpt lat="48.27296" lon="-2.86905">
        <ele>153.80000305176</ele>
        <time>2020-10-16T13:52:02.000Z</time>
      </trkpt>
      <trkpt lat="48.27296" lon="-2.86905">
        <ele>153.80000305176</ele>
        <time>2020-10-16T13:52:03.000Z</time>
      </trkpt>
      <trkpt lat="48.27295" lon="-2.86918">
        <ele>153.60000610352</ele>
        <time>2020-10-16T13:52:04.000Z</time>
      </trkpt>
      <trkpt lat="48.27295" lon="-2.86918">
        <ele>153.60000610352</ele>
        <time>2020-10-16T13:52:05.000Z</time>
      </trkpt>
      <trkpt lat="48.27294" lon="-2.8693">
        <ele>153.39999389648</ele>
        <time>2020-10-16T13:52:06.000Z</time>
      </trkpt>
      <trkpt lat="48.27294" lon="-2.8693">
        <ele>153.39999389648</ele>
        <time>2020-10-16T13:52:07.000Z</time>
      </trkpt>
      <trkpt lat="48.27294" lon="-2.86943">
        <ele>153.19999694824</ele>
        <time>2020-10-16T13:52:08.000Z</time>
      </trkpt>
      <trkpt lat="48.27294" lon="-2.86943">
        <ele>153.19999694824</ele>
        <time>2020-10-16T13:52:09.000Z</time>
      </trkpt>
      <trkpt lat="48.27293" lon="-2.86956">
        <ele>153</ele>
        <time>2020-10-16T13:52:10.000Z</time>
      </trkpt>
      <trkpt lat="48.27293" lon="-2.86956">
        <ele>153</ele>
        <time>2020-10-16T13:52:11.000Z</time>
      </trkpt>
      <trkpt lat="48.27293" lon="-2.86969">
        <ele>152.80000305176</ele>
        <time>2020-10-16T13:52:12.000Z</time>
      </trkpt>
      <trkpt lat="48.27293" lon="-2.86969">
        <ele>152.80000305176</ele>
        <time>2020-10-16T13:52:13.000Z</time>
      </trkpt>
      <trkpt lat="48.27293" lon="-2.86982">
        <ele>152.80000305176</ele>
        <time>2020-10-16T13:52:14.000Z</time>
      </trkpt>
      <trkpt lat="48.27293" lon="-2.86982">
        <ele>152.80000305176</ele>
        <time>2020-10-16T13:52:15.000Z</time>
      </trkpt>
      <trkpt lat="48.27293" lon="-2.86997">
        <ele>153</ele>
        <time>2020-10-16T13:52:16.000Z</time>
      </trkpt>
      <trkpt lat="48.27293" lon="-2.86997">
        <ele>153</ele>
        <time>2020-10-16T13:52:17.000Z</time>
      </trkpt>
      <trkpt lat="48.27294" lon="-2.87012">
        <ele>152.80000305176</ele>
        <time>2020-10-16T13:52:18.000Z</time>
      </trkpt>
      <trkpt lat="48.27294" lon="-2.87012">
        <ele>152.80000305176</ele>
        <time>2020-10-16T13:52:19.000Z</time>
      </trkpt>
      <trkpt lat="48.27294" lon="-2.87025">
        <ele>152.60000610352</ele>
        <time>2020-10-16T13:52:20.000Z</time>
      </trkpt>
      <trkpt lat="48.27294" lon="-2.87025">
        <ele>152.60000610352</ele>
        <time>2020-10-16T13:52:21.000Z</time>
      </trkpt>
      <trkpt lat="48.27294" lon="-2.87037">
        <ele>152.39999389648</ele>
        <time>2020-10-16T13:52:22.000Z</time>
      </trkpt>
      <trkpt lat="48.27294" lon="-2.87037">
        <ele>152.39999389648</ele>
        <time>2020-10-16T13:52:23.000Z</time>
      </trkpt>
      <trkpt lat="48.27296" lon="-2.87051">
        <ele>151.80000305176</ele>
        <time>2020-10-16T13:52:24.000Z</time>
      </trkpt>
      <trkpt lat="48.27296" lon="-2.87051">
        <ele>151.80000305176</ele>
        <time>2020-10-16T13:52:25.000Z</time>
      </trkpt>
      <trkpt lat="48.27295" lon="-2.87058">
        <ele>151.80000305176</ele>
        <time>2020-10-16T13:52:26.000Z</time>
      </trkpt>
      <trkpt lat="48.27294" lon="-2.87066">
        <ele>151.80000305176</ele>
        <time>2020-10-16T13:52:27.000Z</time>
      </trkpt>
      <trkpt lat="48.27292" lon="-2.87081">
        <ele>151.80000305176</ele>
        <time>2020-10-16T13:52:28.000Z</time>
      </trkpt>
      <trkpt lat="48.27292" lon="-2.87081">
        <ele>151.80000305176</ele>
        <time>2020-10-16T13:52:29.000Z</time>
      </trkpt>
      <trkpt lat="48.27289" lon="-2.87094">
        <ele>152.19999694824</ele>
        <time>2020-10-16T13:52:30.000Z</time>
      </trkpt>
      <trkpt lat="48.27289" lon="-2.87094">
        <ele>152.19999694824</ele>
        <time>2020-10-16T13:52:31.000Z</time>
      </trkpt>
      <trkpt lat="48.27288" lon="-2.87109">
        <ele>151.39999389648</ele>
        <time>2020-10-16T13:52:32.000Z</time>
      </trkpt>
      <trkpt lat="48.27287" lon="-2.87115">
        <ele>151.19999694824</ele>
        <time>2020-10-16T13:52:33.000Z</time>
      </trkpt>
      <trkpt lat="48.27287" lon="-2.87115">
        <ele>151.19999694824</ele>
        <time>2020-10-16T13:52:34.000Z</time>
      </trkpt>
      <trkpt lat="48.27284" lon="-2.87127">
        <ele>151</ele>
        <time>2020-10-16T13:52:35.000Z</time>
      </trkpt>
      <trkpt lat="48.27284" lon="-2.87127">
        <ele>151</ele>
        <time>2020-10-16T13:52:36.000Z</time>
      </trkpt>
      <trkpt lat="48.27283" lon="-2.87142">
        <ele>150.39999389648</ele>
        <time>2020-10-16T13:52:37.000Z</time>
      </trkpt>
      <trkpt lat="48.27283" lon="-2.87142">
        <ele>150.39999389648</ele>
        <time>2020-10-16T13:52:38.000Z</time>
      </trkpt>
      <trkpt lat="48.27279" lon="-2.87154">
        <ele>150.60000610352</ele>
        <time>2020-10-16T13:52:39.000Z</time>
      </trkpt>
      <trkpt lat="48.27279" lon="-2.87154">
        <ele>150.60000610352</ele>
        <time>2020-10-16T13:52:40.000Z</time>
      </trkpt>
      <trkpt lat="48.27275" lon="-2.87166">
        <ele>151.19999694824</ele>
        <time>2020-10-16T13:52:41.000Z</time>
      </trkpt>
      <trkpt lat="48.27275" lon="-2.87166">
        <ele>151.19999694824</ele>
        <time>2020-10-16T13:52:42.000Z</time>
      </trkpt>
      <trkpt lat="48.27272" lon="-2.87179">
        <ele>151.60000610352</ele>
        <time>2020-10-16T13:52:43.000Z</time>
      </trkpt>
      <trkpt lat="48.27272" lon="-2.87179">
        <ele>151.60000610352</ele>
        <time>2020-10-16T13:52:44.000Z</time>
      </trkpt>
      <trkpt lat="48.27269" lon="-2.87192">
        <ele>152</ele>
        <time>2020-10-16T13:52:45.000Z</time>
      </trkpt>
      <trkpt lat="48.27269" lon="-2.87192">
        <ele>152</ele>
        <time>2020-10-16T13:52:46.000Z</time>
      </trkpt>
      <trkpt lat="48.27266" lon="-2.87206">
        <ele>152.39999389648</ele>
        <time>2020-10-16T13:52:47.000Z</time>
      </trkpt>
      <trkpt lat="48.27266" lon="-2.87206">
        <ele>152.39999389648</ele>
        <time>2020-10-16T13:52:48.000Z</time>
      </trkpt>
      <trkpt lat="48.27264" lon="-2.8722">
        <ele>152.60000610352</ele>
        <time>2020-10-16T13:52:49.000Z</time>
      </trkpt>
      <trkpt lat="48.27264" lon="-2.8722">
        <ele>152.60000610352</ele>
        <time>2020-10-16T13:52:50.000Z</time>
      </trkpt>
      <trkpt lat="48.27262" lon="-2.87233">
        <ele>152.60000610352</ele>
        <time>2020-10-16T13:52:51.000Z</time>
      </trkpt>
      <trkpt lat="48.27262" lon="-2.87233">
        <ele>152.60000610352</ele>
        <time>2020-10-16T13:52:52.000Z</time>
      </trkpt>
      <trkpt lat="48.27261" lon="-2.87246">
        <ele>152.60000610352</ele>
        <time>2020-10-16T13:52:53.000Z</time>
      </trkpt>
      <trkpt lat="48.27261" lon="-2.87246">
        <ele>152.60000610352</ele>
        <time>2020-10-16T13:52:54.000Z</time>
      </trkpt>
      <trkpt lat="48.2726" lon="-2.8726">
        <ele>152.19999694824</ele>
        <time>2020-10-16T13:52:55.000Z</time>
      </trkpt>
      <trkpt lat="48.2726" lon="-2.8726">
        <ele>152.19999694824</ele>
        <time>2020-10-16T13:52:56.000Z</time>
      </trkpt>
      <trkpt lat="48.27259" lon="-2.87274">
        <ele>152</ele>
        <time>2020-10-16T13:52:57.000Z</time>
      </trkpt>
      <trkpt lat="48.27259" lon="-2.87274">
        <ele>152</ele>
        <time>2020-10-16T13:52:58.000Z</time>
      </trkpt>
      <trkpt lat="48.27258" lon="-2.87289">
        <ele>152</ele>
        <time>2020-10-16T13:52:59.000Z</time>
      </trkpt>
      <trkpt lat="48.27258" lon="-2.87289">
        <ele>152</ele>
        <time>2020-10-16T13:53:00.000Z</time>
      </trkpt>
      <trkpt lat="48.27256" lon="-2.87302">
        <ele>152</ele>
        <time>2020-10-16T13:53:01.000Z</time>
      </trkpt>
      <trkpt lat="48.27256" lon="-2.87302">
        <ele>152</ele>
        <time>2020-10-16T13:53:02.000Z</time>
      </trkpt>
      <trkpt lat="48.27255" lon="-2.87316">
        <ele>152</ele>
        <time>2020-10-16T13:53:03.000Z</time>
      </trkpt>
      <trkpt lat="48.27255" lon="-2.87316">
        <ele>152</ele>
        <time>2020-10-16T13:53:04.000Z</time>
      </trkpt>
      <trkpt lat="48.27253" lon="-2.8733">
        <ele>152</ele>
        <time>2020-10-16T13:53:05.000Z</time>
      </trkpt>
      <trkpt lat="48.27253" lon="-2.8733">
        <ele>152</ele>
        <time>2020-10-16T13:53:06.000Z</time>
      </trkpt>
      <trkpt lat="48.27251" lon="-2.87343">
        <ele>151.80000305176</ele>
        <time>2020-10-16T13:53:07.000Z</time>
      </trkpt>
      <trkpt lat="48.27251" lon="-2.87343">
        <ele>151.80000305176</ele>
        <time>2020-10-16T13:53:08.000Z</time>
      </trkpt>
      <trkpt lat="48.2725" lon="-2.87354">
        <ele>151.39999389648</ele>
        <time>2020-10-16T13:53:09.000Z</time>
      </trkpt>
      <trkpt lat="48.2725" lon="-2.87354">
        <ele>151.39999389648</ele>
        <time>2020-10-16T13:53:10.000Z</time>
      </trkpt>
      <trkpt lat="48.27248" lon="-2.87367">
        <ele>150.80000305176</ele>
        <time>2020-10-16T13:53:11.000Z</time>
      </trkpt>
      <trkpt lat="48.27248" lon="-2.87367">
        <ele>150.80000305176</ele>
        <time>2020-10-16T13:53:12.000Z</time>
      </trkpt>
      <trkpt lat="48.27245" lon="-2.8738">
        <ele>150.19999694824</ele>
        <time>2020-10-16T13:53:13.000Z</time>
      </trkpt>
      <trkpt lat="48.27245" lon="-2.8738">
        <ele>150.19999694824</ele>
        <time>2020-10-16T13:53:14.000Z</time>
      </trkpt>
      <trkpt lat="48.27243" lon="-2.87394">
        <ele>149.60000610352</ele>
        <time>2020-10-16T13:53:15.000Z</time>
      </trkpt>
      <trkpt lat="48.27243" lon="-2.87394">
        <ele>149.60000610352</ele>
        <time>2020-10-16T13:53:16.000Z</time>
      </trkpt>
      <trkpt lat="48.27242" lon="-2.874">
        <ele>149.39999389648</ele>
        <time>2020-10-16T13:53:17.000Z</time>
      </trkpt>
      <trkpt lat="48.2724" lon="-2.87413">
        <ele>148.80000305176</ele>
        <time>2020-10-16T13:53:18.000Z</time>
      </trkpt>
      <trkpt lat="48.2724" lon="-2.87413">
        <ele>148.80000305176</ele>
        <time>2020-10-16T13:53:19.000Z</time>
      </trkpt>
      <trkpt lat="48.27237" lon="-2.87425">
        <ele>148.39999389648</ele>
        <time>2020-10-16T13:53:20.000Z</time>
      </trkpt>
      <trkpt lat="48.27237" lon="-2.87425">
        <ele>148.39999389648</ele>
        <time>2020-10-16T13:53:21.000Z</time>
      </trkpt>
      <trkpt lat="48.27235" lon="-2.87437">
        <ele>148.39999389648</ele>
        <time>2020-10-16T13:53:22.000Z</time>
      </trkpt>
      <trkpt lat="48.27235" lon="-2.87437">
        <ele>148.39999389648</ele>
        <time>2020-10-16T13:53:23.000Z</time>
      </trkpt>
      <trkpt lat="48.27232" lon="-2.8745">
        <ele>148.39999389648</ele>
        <time>2020-10-16T13:53:24.000Z</time>
      </trkpt>
      <trkpt lat="48.27232" lon="-2.8745">
        <ele>148.39999389648</ele>
        <time>2020-10-16T13:53:25.000Z</time>
      </trkpt>
      <trkpt lat="48.2723" lon="-2.87462">
        <ele>148</ele>
        <time>2020-10-16T13:53:26.000Z</time>
      </trkpt>
      <trkpt lat="48.2723" lon="-2.87462">
        <ele>148</ele>
        <time>2020-10-16T13:53:27.000Z</time>
      </trkpt>
      <trkpt lat="48.27227" lon="-2.87474">
        <ele>147.60000610352</ele>
        <time>2020-10-16T13:53:28.000Z</time>
      </trkpt>
      <trkpt lat="48.27227" lon="-2.87474">
        <ele>147.60000610352</ele>
        <time>2020-10-16T13:53:29.000Z</time>
      </trkpt>
      <trkpt lat="48.27225" lon="-2.87487">
        <ele>147.19999694824</ele>
        <time>2020-10-16T13:53:30.000Z</time>
      </trkpt>
      <trkpt lat="48.27225" lon="-2.87487">
        <ele>147.19999694824</ele>
        <time>2020-10-16T13:53:31.000Z</time>
      </trkpt>
      <trkpt lat="48.27222" lon="-2.875">
        <ele>146.80000305176</ele>
        <time>2020-10-16T13:53:32.000Z</time>
      </trkpt>
      <trkpt lat="48.27222" lon="-2.875">
        <ele>146.80000305176</ele>
        <time>2020-10-16T13:53:33.000Z</time>
      </trkpt>
      <trkpt lat="48.27219" lon="-2.87513">
        <ele>146.60000610352</ele>
        <time>2020-10-16T13:53:34.000Z</time>
      </trkpt>
      <trkpt lat="48.27219" lon="-2.87513">
        <ele>146.60000610352</ele>
        <time>2020-10-16T13:53:35.000Z</time>
      </trkpt>
      <trkpt lat="48.27217" lon="-2.87526">
        <ele>146.80000305176</ele>
        <time>2020-10-16T13:53:36.000Z</time>
      </trkpt>
      <trkpt lat="48.27217" lon="-2.87526">
        <ele>146.80000305176</ele>
        <time>2020-10-16T13:53:37.000Z</time>
      </trkpt>
      <trkpt lat="48.27214" lon="-2.87538">
        <ele>147</ele>
        <time>2020-10-16T13:53:38.000Z</time>
      </trkpt>
      <trkpt lat="48.27214" lon="-2.87538">
        <ele>147</ele>
        <time>2020-10-16T13:53:39.000Z</time>
      </trkpt>
      <trkpt lat="48.27211" lon="-2.87548">
        <ele>147.39999389648</ele>
        <time>2020-10-16T13:53:40.000Z</time>
      </trkpt>
      <trkpt lat="48.27211" lon="-2.87548">
        <ele>147.39999389648</ele>
        <time>2020-10-16T13:53:41.000Z</time>
      </trkpt>
      <trkpt lat="48.27208" lon="-2.87557">
        <ele>147.60000610352</ele>
        <time>2020-10-16T13:53:42.000Z</time>
      </trkpt>
      <trkpt lat="48.27208" lon="-2.87557">
        <ele>147.60000610352</ele>
        <time>2020-10-16T13:53:43.000Z</time>
      </trkpt>
      <trkpt lat="48.27205" lon="-2.87566">
        <ele>148</ele>
        <time>2020-10-16T13:53:44.000Z</time>
      </trkpt>
      <trkpt lat="48.27205" lon="-2.87566">
        <ele>148</ele>
        <time>2020-10-16T13:53:45.000Z</time>
      </trkpt>
      <trkpt lat="48.27202" lon="-2.87574">
        <ele>148.19999694824</ele>
        <time>2020-10-16T13:53:46.000Z</time>
      </trkpt>
      <trkpt lat="48.27202" lon="-2.87574">
        <ele>148.19999694824</ele>
        <time>2020-10-16T13:53:47.000Z</time>
      </trkpt>
      <trkpt lat="48.27198" lon="-2.87581">
        <ele>148.60000610352</ele>
        <time>2020-10-16T13:53:48.000Z</time>
      </trkpt>
      <trkpt lat="48.27198" lon="-2.87581">
        <ele>148.60000610352</ele>
        <time>2020-10-16T13:53:49.000Z</time>
      </trkpt>
      <trkpt lat="48.27195" lon="-2.87588">
        <ele>149</ele>
        <time>2020-10-16T13:53:50.000Z</time>
      </trkpt>
      <trkpt lat="48.27195" lon="-2.87588">
        <ele>149</ele>
        <time>2020-10-16T13:53:51.000Z</time>
      </trkpt>
      <trkpt lat="48.27191" lon="-2.87594">
        <ele>149.39999389648</ele>
        <time>2020-10-16T13:53:52.000Z</time>
      </trkpt>
      <trkpt lat="48.27191" lon="-2.87594">
        <ele>149.39999389648</ele>
        <time>2020-10-16T13:53:53.000Z</time>
      </trkpt>
      <trkpt lat="48.2719" lon="-2.87596">
        <ele>149.60000610352</ele>
        <time>2020-10-16T13:53:54.000Z</time>
      </trkpt>
      <trkpt lat="48.27187" lon="-2.876">
        <ele>150</ele>
        <time>2020-10-16T13:53:55.000Z</time>
      </trkpt>
      <trkpt lat="48.27187" lon="-2.876">
        <ele>150</ele>
        <time>2020-10-16T13:53:56.000Z</time>
      </trkpt>
      <trkpt lat="48.27185" lon="-2.87604">
        <ele>150</ele>
        <time>2020-10-16T13:53:57.000Z</time>
      </trkpt>
      <trkpt lat="48.27185" lon="-2.87604">
        <ele>150</ele>
        <time>2020-10-16T13:53:58.000Z</time>
      </trkpt>
      <trkpt lat="48.27186" lon="-2.87609">
        <ele>150</ele>
        <time>2020-10-16T13:53:59.000Z</time>
      </trkpt>
      <trkpt lat="48.27186" lon="-2.87611">
        <ele>149.80000305176</ele>
        <time>2020-10-16T13:54:00.000Z</time>
      </trkpt>
      <trkpt lat="48.27186" lon="-2.87613">
        <ele>149.80000305176</ele>
        <time>2020-10-16T13:54:01.000Z</time>
      </trkpt>
      <trkpt lat="48.27186" lon="-2.87613">
        <ele>149.80000305176</ele>
        <time>2020-10-16T13:54:02.000Z</time>
      </trkpt>
      <trkpt lat="48.27186" lon="-2.87619">
        <ele>149.80000305176</ele>
        <time>2020-10-16T13:54:03.000Z</time>
      </trkpt>
      <trkpt lat="48.27186" lon="-2.87619">
        <ele>149.80000305176</ele>
        <time>2020-10-16T13:54:04.000Z</time>
      </trkpt>
      <trkpt lat="48.27185" lon="-2.87625">
        <ele>149.80000305176</ele>
        <time>2020-10-16T13:54:05.000Z</time>
      </trkpt>
      <trkpt lat="48.27185" lon="-2.87625">
        <ele>149.80000305176</ele>
        <time>2020-10-16T13:54:06.000Z</time>
      </trkpt>
      <trkpt lat="48.27183" lon="-2.8763">
        <ele>150</ele>
        <time>2020-10-16T13:54:07.000Z</time>
      </trkpt>
      <trkpt lat="48.27183" lon="-2.8763">
        <ele>150</ele>
        <time>2020-10-16T13:54:08.000Z</time>
      </trkpt>
      <trkpt lat="48.27182" lon="-2.87636">
        <ele>150.19999694824</ele>
        <time>2020-10-16T13:54:09.000Z</time>
      </trkpt>
      <trkpt lat="48.27182" lon="-2.87636">
        <ele>150.19999694824</ele>
        <time>2020-10-16T13:54:10.000Z</time>
      </trkpt>
      <trkpt lat="48.2718" lon="-2.87643">
        <ele>150.19999694824</ele>
        <time>2020-10-16T13:54:11.000Z</time>
      </trkpt>
      <trkpt lat="48.2718" lon="-2.87643">
        <ele>150.19999694824</ele>
        <time>2020-10-16T13:54:12.000Z</time>
      </trkpt>
      <trkpt lat="48.27179" lon="-2.87649">
        <ele>150.39999389648</ele>
        <time>2020-10-16T13:54:13.000Z</time>
      </trkpt>
      <trkpt lat="48.27179" lon="-2.87649">
        <ele>150.39999389648</ele>
        <time>2020-10-16T13:54:14.000Z</time>
      </trkpt>
      <trkpt lat="48.27177" lon="-2.87655">
        <ele>150.39999389648</ele>
        <time>2020-10-16T13:54:15.000Z</time>
      </trkpt>
      <trkpt lat="48.27177" lon="-2.87655">
        <ele>150.39999389648</ele>
        <time>2020-10-16T13:54:16.000Z</time>
      </trkpt>
      <trkpt lat="48.27177" lon="-2.87659">
        <ele>150.39999389648</ele>
        <time>2020-10-16T13:54:17.000Z</time>
      </trkpt>
      <trkpt lat="48.27174" lon="-2.87665">
        <ele>150.39999389648</ele>
        <time>2020-10-16T13:54:18.000Z</time>
      </trkpt>
      <trkpt lat="48.27174" lon="-2.87665">
        <ele>150.39999389648</ele>
        <time>2020-10-16T13:54:19.000Z</time>
      </trkpt>
      <trkpt lat="48.27173" lon="-2.87669">
        <ele>150.60000610352</ele>
        <time>2020-10-16T13:54:20.000Z</time>
      </trkpt>
      <trkpt lat="48.27169" lon="-2.87676">
        <ele>150.60000610352</ele>
        <time>2020-10-16T13:54:21.000Z</time>
      </trkpt>
      <trkpt lat="48.27169" lon="-2.87676">
        <ele>150.60000610352</ele>
        <time>2020-10-16T13:54:22.000Z</time>
      </trkpt>
      <trkpt lat="48.27167" lon="-2.87681">
        <ele>150.60000610352</ele>
        <time>2020-10-16T13:54:23.000Z</time>
      </trkpt>
      <trkpt lat="48.27162" lon="-2.87691">
        <ele>150.60000610352</ele>
        <time>2020-10-16T13:54:24.000Z</time>
      </trkpt>
      <trkpt lat="48.27162" lon="-2.87691">
        <ele>150.60000610352</ele>
        <time>2020-10-16T13:54:25.000Z</time>
      </trkpt>
      <trkpt lat="48.27159" lon="-2.87695">
        <ele>150.80000305176</ele>
        <time>2020-10-16T13:54:26.000Z</time>
      </trkpt>
      <trkpt lat="48.27157" lon="-2.87699">
        <ele>150.80000305176</ele>
        <time>2020-10-16T13:54:27.000Z</time>
      </trkpt>
      <trkpt lat="48.27155" lon="-2.87704">
        <ele>151</ele>
        <time>2020-10-16T13:54:28.000Z</time>
      </trkpt>
      <trkpt lat="48.2715" lon="-2.87713">
        <ele>151</ele>
        <time>2020-10-16T13:54:29.000Z</time>
      </trkpt>
      <trkpt lat="48.2715" lon="-2.87713">
        <ele>151</ele>
        <time>2020-10-16T13:54:30.000Z</time>
      </trkpt>
      <trkpt lat="48.27148" lon="-2.87718">
        <ele>151.19999694824</ele>
        <time>2020-10-16T13:54:31.000Z</time>
      </trkpt>
      <trkpt lat="48.27144" lon="-2.87729">
        <ele>151.19999694824</ele>
        <time>2020-10-16T13:54:32.000Z</time>
      </trkpt>
      <trkpt lat="48.27144" lon="-2.87729">
        <ele>151.19999694824</ele>
        <time>2020-10-16T13:54:33.000Z</time>
      </trkpt>
      <trkpt lat="48.27138" lon="-2.87738">
        <ele>151.39999389648</ele>
        <time>2020-10-16T13:54:34.000Z</time>
      </trkpt>
      <trkpt lat="48.27138" lon="-2.87738">
        <ele>151.39999389648</ele>
        <time>2020-10-16T13:54:35.000Z</time>
      </trkpt>
      <trkpt lat="48.27136" lon="-2.87742">
        <ele>151.60000610352</ele>
        <time>2020-10-16T13:54:36.000Z</time>
      </trkpt>
      <trkpt lat="48.2713" lon="-2.8775">
        <ele>151.80000305176</ele>
        <time>2020-10-16T13:54:37.000Z</time>
      </trkpt>
      <trkpt lat="48.2713" lon="-2.8775">
        <ele>151.80000305176</ele>
        <time>2020-10-16T13:54:38.000Z</time>
      </trkpt>
      <trkpt lat="48.27127" lon="-2.87755">
        <ele>151.80000305176</ele>
        <time>2020-10-16T13:54:39.000Z</time>
      </trkpt>
      <trkpt lat="48.27123" lon="-2.87764">
        <ele>152</ele>
        <time>2020-10-16T13:54:40.000Z</time>
      </trkpt>
      <trkpt lat="48.27123" lon="-2.87764">
        <ele>152</ele>
        <time>2020-10-16T13:54:41.000Z</time>
      </trkpt>
      <trkpt lat="48.27118" lon="-2.87773">
        <ele>152</ele>
        <time>2020-10-16T13:54:42.000Z</time>
      </trkpt>
      <trkpt lat="48.27118" lon="-2.87773">
        <ele>152</ele>
        <time>2020-10-16T13:54:43.000Z</time>
      </trkpt>
      <trkpt lat="48.27113" lon="-2.87782">
        <ele>152</ele>
        <time>2020-10-16T13:54:44.000Z</time>
      </trkpt>
      <trkpt lat="48.27113" lon="-2.87782">
        <ele>152</ele>
        <time>2020-10-16T13:54:45.000Z</time>
      </trkpt>
      <trkpt lat="48.2711" lon="-2.87787">
        <ele>152.19999694824</ele>
        <time>2020-10-16T13:54:46.000Z</time>
      </trkpt>
      <trkpt lat="48.27106" lon="-2.87797">
        <ele>152.19999694824</ele>
        <time>2020-10-16T13:54:47.000Z</time>
      </trkpt>
      <trkpt lat="48.27106" lon="-2.87797">
        <ele>152.19999694824</ele>
        <time>2020-10-16T13:54:48.000Z</time>
      </trkpt>
      <trkpt lat="48.27101" lon="-2.87806">
        <ele>152.19999694824</ele>
        <time>2020-10-16T13:54:49.000Z</time>
      </trkpt>
      <trkpt lat="48.27101" lon="-2.87806">
        <ele>152.19999694824</ele>
        <time>2020-10-16T13:54:50.000Z</time>
      </trkpt>
      <trkpt lat="48.27095" lon="-2.87815">
        <ele>152.39999389648</ele>
        <time>2020-10-16T13:54:51.000Z</time>
      </trkpt>
      <trkpt lat="48.27095" lon="-2.87815">
        <ele>152.39999389648</ele>
        <time>2020-10-16T13:54:52.000Z</time>
      </trkpt>
      <trkpt lat="48.27093" lon="-2.87819">
        <ele>152.60000610352</ele>
        <time>2020-10-16T13:54:53.000Z</time>
      </trkpt>
      <trkpt lat="48.27088" lon="-2.87828">
        <ele>153</ele>
        <time>2020-10-16T13:54:54.000Z</time>
      </trkpt>
      <trkpt lat="48.27088" lon="-2.87828">
        <ele>153</ele>
        <time>2020-10-16T13:54:55.000Z</time>
      </trkpt>
      <trkpt lat="48.27084" lon="-2.87841">
        <ele>153.19999694824</ele>
        <time>2020-10-16T13:54:56.000Z</time>
      </trkpt>
      <trkpt lat="48.27084" lon="-2.87841">
        <ele>153.19999694824</ele>
        <time>2020-10-16T13:54:57.000Z</time>
      </trkpt>
      <trkpt lat="48.27082" lon="-2.87852">
        <ele>153</ele>
        <time>2020-10-16T13:54:58.000Z</time>
      </trkpt>
      <trkpt lat="48.27082" lon="-2.87852">
        <ele>153</ele>
        <time>2020-10-16T13:54:59.000Z</time>
      </trkpt>
      <trkpt lat="48.2708" lon="-2.87857">
        <ele>153</ele>
        <time>2020-10-16T13:55:00.000Z</time>
      </trkpt>
      <trkpt lat="48.2708" lon="-2.87867">
        <ele>152.80000305176</ele>
        <time>2020-10-16T13:55:01.000Z</time>
      </trkpt>
      <trkpt lat="48.27078" lon="-2.8788">
        <ele>152.60000610352</ele>
        <time>2020-10-16T13:55:02.000Z</time>
      </trkpt>
      <trkpt lat="48.27078" lon="-2.8788">
        <ele>152.60000610352</ele>
        <time>2020-10-16T13:55:03.000Z</time>
      </trkpt>
      <trkpt lat="48.27076" lon="-2.87896">
        <ele>152.39999389648</ele>
        <time>2020-10-16T13:55:04.000Z</time>
      </trkpt>
      <trkpt lat="48.27076" lon="-2.87896">
        <ele>152.39999389648</ele>
        <time>2020-10-16T13:55:05.000Z</time>
      </trkpt>
      <trkpt lat="48.27074" lon="-2.87904">
        <ele>152.19999694824</ele>
        <time>2020-10-16T13:55:06.000Z</time>
      </trkpt>
      <trkpt lat="48.27071" lon="-2.87919">
        <ele>152.19999694824</ele>
        <time>2020-10-16T13:55:07.000Z</time>
      </trkpt>
      <trkpt lat="48.27071" lon="-2.87919">
        <ele>152.19999694824</ele>
        <time>2020-10-16T13:55:08.000Z</time>
      </trkpt>
      <trkpt lat="48.2707" lon="-2.87925">
        <ele>152.19999694824</ele>
        <time>2020-10-16T13:55:09.000Z</time>
      </trkpt>
      <trkpt lat="48.27068" lon="-2.87931">
        <ele>152.19999694824</ele>
        <time>2020-10-16T13:55:10.000Z</time>
      </trkpt>
      <trkpt lat="48.27066" lon="-2.87942">
        <ele>152.19999694824</ele>
        <time>2020-10-16T13:55:11.000Z</time>
      </trkpt>
      <trkpt lat="48.27066" lon="-2.87942">
        <ele>152.19999694824</ele>
        <time>2020-10-16T13:55:12.000Z</time>
      </trkpt>
      <trkpt lat="48.27064" lon="-2.87949">
        <ele>152.19999694824</ele>
        <time>2020-10-16T13:55:13.000Z</time>
      </trkpt>
      <trkpt lat="48.27061" lon="-2.87961">
        <ele>152</ele>
        <time>2020-10-16T13:55:14.000Z</time>
      </trkpt>
      <trkpt lat="48.27061" lon="-2.87961">
        <ele>152</ele>
        <time>2020-10-16T13:55:15.000Z</time>
      </trkpt>
      <trkpt lat="48.27059" lon="-2.87968">
        <ele>152.19999694824</ele>
        <time>2020-10-16T13:55:16.000Z</time>
      </trkpt>
      <trkpt lat="48.27055" lon="-2.8798">
        <ele>152.19999694824</ele>
        <time>2020-10-16T13:55:17.000Z</time>
      </trkpt>
      <trkpt lat="48.27055" lon="-2.8798">
        <ele>152.19999694824</ele>
        <time>2020-10-16T13:55:18.000Z</time>
      </trkpt>
      <trkpt lat="48.27053" lon="-2.87986">
        <ele>152.39999389648</ele>
        <time>2020-10-16T13:55:19.000Z</time>
      </trkpt>
      <trkpt lat="48.2705" lon="-2.87998">
        <ele>152.39999389648</ele>
        <time>2020-10-16T13:55:20.000Z</time>
      </trkpt>
      <trkpt lat="48.2705" lon="-2.87998">
        <ele>152.39999389648</ele>
        <time>2020-10-16T13:55:21.000Z</time>
      </trkpt>
      <trkpt lat="48.27049" lon="-2.88004">
        <ele>152.39999389648</ele>
        <time>2020-10-16T13:55:22.000Z</time>
      </trkpt>
      <trkpt lat="48.27045" lon="-2.88017">
        <ele>152.19999694824</ele>
        <time>2020-10-16T13:55:23.000Z</time>
      </trkpt>
      <trkpt lat="48.27045" lon="-2.88017">
        <ele>152.19999694824</ele>
        <time>2020-10-16T13:55:24.000Z</time>
      </trkpt>
      <trkpt lat="48.27043" lon="-2.88023">
        <ele>152.19999694824</ele>
        <time>2020-10-16T13:55:25.000Z</time>
      </trkpt>
      <trkpt lat="48.27039" lon="-2.88034">
        <ele>152.19999694824</ele>
        <time>2020-10-16T13:55:26.000Z</time>
      </trkpt>
      <trkpt lat="48.27039" lon="-2.88034">
        <ele>152.19999694824</ele>
        <time>2020-10-16T13:55:27.000Z</time>
      </trkpt>
      <trkpt lat="48.27037" lon="-2.88039">
        <ele>152</ele>
        <time>2020-10-16T13:55:28.000Z</time>
      </trkpt>
      <trkpt lat="48.27034" lon="-2.8805">
        <ele>152</ele>
        <time>2020-10-16T13:55:29.000Z</time>
      </trkpt>
      <trkpt lat="48.27032" lon="-2.88054">
        <ele>151.80000305176</ele>
        <time>2020-10-16T13:55:30.000Z</time>
      </trkpt>
      <trkpt lat="48.27032" lon="-2.88054">
        <ele>151.80000305176</ele>
        <time>2020-10-16T13:55:31.000Z</time>
      </trkpt>
      <trkpt lat="48.27031" lon="-2.88059">
        <ele>151.80000305176</ele>
        <time>2020-10-16T13:55:32.000Z</time>
      </trkpt>
      <trkpt lat="48.27028" lon="-2.8807">
        <ele>151.60000610352</ele>
        <time>2020-10-16T13:55:33.000Z</time>
      </trkpt>
      <trkpt lat="48.27028" lon="-2.8807">
        <ele>151.60000610352</ele>
        <time>2020-10-16T13:55:34.000Z</time>
      </trkpt>
      <trkpt lat="48.27026" lon="-2.88074">
        <ele>151.60000610352</ele>
        <time>2020-10-16T13:55:35.000Z</time>
      </trkpt>
      <trkpt lat="48.27023" lon="-2.88083">
        <ele>151.60000610352</ele>
        <time>2020-10-16T13:55:36.000Z</time>
      </trkpt>
      <trkpt lat="48.27023" lon="-2.88083">
        <ele>151.60000610352</ele>
        <time>2020-10-16T13:55:37.000Z</time>
      </trkpt>
      <trkpt lat="48.27021" lon="-2.88087">
        <ele>151.60000610352</ele>
        <time>2020-10-16T13:55:38.000Z</time>
      </trkpt>
      <trkpt lat="48.27018" lon="-2.88096">
        <ele>151.60000610352</ele>
        <time>2020-10-16T13:55:39.000Z</time>
      </trkpt>
      <trkpt lat="48.27018" lon="-2.88096">
        <ele>151.60000610352</ele>
        <time>2020-10-16T13:55:40.000Z</time>
      </trkpt>
      <trkpt lat="48.27016" lon="-2.881">
        <ele>151.60000610352</ele>
        <time>2020-10-16T13:55:41.000Z</time>
      </trkpt>
      <trkpt lat="48.27013" lon="-2.88109">
        <ele>151.80000305176</ele>
        <time>2020-10-16T13:55:42.000Z</time>
      </trkpt>
      <trkpt lat="48.27013" lon="-2.88109">
        <ele>151.80000305176</ele>
        <time>2020-10-16T13:55:43.000Z</time>
      </trkpt>
      <trkpt lat="48.27012" lon="-2.88114">
        <ele>151.80000305176</ele>
        <time>2020-10-16T13:55:44.000Z</time>
      </trkpt>
      <trkpt lat="48.27009" lon="-2.88124">
        <ele>152</ele>
        <time>2020-10-16T13:55:45.000Z</time>
      </trkpt>
      <trkpt lat="48.27009" lon="-2.88124">
        <ele>152</ele>
        <time>2020-10-16T13:55:46.000Z</time>
      </trkpt>
      <trkpt lat="48.27009" lon="-2.88128">
        <ele>152</ele>
        <time>2020-10-16T13:55:47.000Z</time>
      </trkpt>
      <trkpt lat="48.27006" lon="-2.88139">
        <ele>152.19999694824</ele>
        <time>2020-10-16T13:55:48.000Z</time>
      </trkpt>
      <trkpt lat="48.27006" lon="-2.88139">
        <ele>152.19999694824</ele>
        <time>2020-10-16T13:55:49.000Z</time>
      </trkpt>
      <trkpt lat="48.27004" lon="-2.88144">
        <ele>152.19999694824</ele>
        <time>2020-10-16T13:55:50.000Z</time>
      </trkpt>
      <trkpt lat="48.27001" lon="-2.88153">
        <ele>152.60000610352</ele>
        <time>2020-10-16T13:55:51.000Z</time>
      </trkpt>
      <trkpt lat="48.27001" lon="-2.88153">
        <ele>152.60000610352</ele>
        <time>2020-10-16T13:55:52.000Z</time>
      </trkpt>
      <trkpt lat="48.26999" lon="-2.88157">
        <ele>152.60000610352</ele>
        <time>2020-10-16T13:55:53.000Z</time>
      </trkpt>
      <trkpt lat="48.26996" lon="-2.88166">
        <ele>153</ele>
        <time>2020-10-16T13:55:54.000Z</time>
      </trkpt>
      <trkpt lat="48.26996" lon="-2.88166">
        <ele>153</ele>
        <time>2020-10-16T13:55:55.000Z</time>
      </trkpt>
      <trkpt lat="48.26994" lon="-2.88171">
        <ele>153</ele>
        <time>2020-10-16T13:55:56.000Z</time>
      </trkpt>
      <trkpt lat="48.2699" lon="-2.88179">
        <ele>153.39999389648</ele>
        <time>2020-10-16T13:55:57.000Z</time>
      </trkpt>
      <trkpt lat="48.2699" lon="-2.88179">
        <ele>153.39999389648</ele>
        <time>2020-10-16T13:55:58.000Z</time>
      </trkpt>
      <trkpt lat="48.26989" lon="-2.88184">
        <ele>153.39999389648</ele>
        <time>2020-10-16T13:55:59.000Z</time>
      </trkpt>
      <trkpt lat="48.26985" lon="-2.88194">
        <ele>153.80000305176</ele>
        <time>2020-10-16T13:56:00.000Z</time>
      </trkpt>
      <trkpt lat="48.26985" lon="-2.88194">
        <ele>153.80000305176</ele>
        <time>2020-10-16T13:56:01.000Z</time>
      </trkpt>
      <trkpt lat="48.26983" lon="-2.88206">
        <ele>153.80000305176</ele>
        <time>2020-10-16T13:56:02.000Z</time>
      </trkpt>
      <trkpt lat="48.26983" lon="-2.88206">
        <ele>153.80000305176</ele>
        <time>2020-10-16T13:56:03.000Z</time>
      </trkpt>
      <trkpt lat="48.26979" lon="-2.88216">
        <ele>154.19999694824</ele>
        <time>2020-10-16T13:56:04.000Z</time>
      </trkpt>
      <trkpt lat="48.26979" lon="-2.88216">
        <ele>154.19999694824</ele>
        <time>2020-10-16T13:56:05.000Z</time>
      </trkpt>
      <trkpt lat="48.26978" lon="-2.88221">
        <ele>154.39999389648</ele>
        <time>2020-10-16T13:56:06.000Z</time>
      </trkpt>
      <trkpt lat="48.26975" lon="-2.88231">
        <ele>154.60000610352</ele>
        <time>2020-10-16T13:56:07.000Z</time>
      </trkpt>
      <trkpt lat="48.26975" lon="-2.88231">
        <ele>154.60000610352</ele>
        <time>2020-10-16T13:56:08.000Z</time>
      </trkpt>
      <trkpt lat="48.26974" lon="-2.88235">
        <ele>154.80000305176</ele>
        <time>2020-10-16T13:56:09.000Z</time>
      </trkpt>
      <trkpt lat="48.26972" lon="-2.88244">
        <ele>155</ele>
        <time>2020-10-16T13:56:10.000Z</time>
      </trkpt>
      <trkpt lat="48.26972" lon="-2.88244">
        <ele>155</ele>
        <time>2020-10-16T13:56:11.000Z</time>
      </trkpt>
      <trkpt lat="48.26971" lon="-2.88249">
        <ele>155</ele>
        <time>2020-10-16T13:56:12.000Z</time>
      </trkpt>
      <trkpt lat="48.2697" lon="-2.8826">
        <ele>155</ele>
        <time>2020-10-16T13:56:13.000Z</time>
      </trkpt>
      <trkpt lat="48.2697" lon="-2.8826">
        <ele>155</ele>
        <time>2020-10-16T13:56:14.000Z</time>
      </trkpt>
      <trkpt lat="48.2697" lon="-2.88264">
        <ele>154.80000305176</ele>
        <time>2020-10-16T13:56:15.000Z</time>
      </trkpt>
      <trkpt lat="48.2697" lon="-2.88272">
        <ele>154.60000610352</ele>
        <time>2020-10-16T13:56:16.000Z</time>
      </trkpt>
      <trkpt lat="48.2697" lon="-2.88272">
        <ele>154.60000610352</ele>
        <time>2020-10-16T13:56:17.000Z</time>
      </trkpt>
      <trkpt lat="48.26971" lon="-2.88277">
        <ele>154.39999389648</ele>
        <time>2020-10-16T13:56:18.000Z</time>
      </trkpt>
      <trkpt lat="48.26971" lon="-2.88286">
        <ele>154</ele>
        <time>2020-10-16T13:56:19.000Z</time>
      </trkpt>
      <trkpt lat="48.26971" lon="-2.88286">
        <ele>154</ele>
        <time>2020-10-16T13:56:20.000Z</time>
      </trkpt>
      <trkpt lat="48.26971" lon="-2.88291">
        <ele>153.80000305176</ele>
        <time>2020-10-16T13:56:21.000Z</time>
      </trkpt>
      <trkpt lat="48.2697" lon="-2.883">
        <ele>153.60000610352</ele>
        <time>2020-10-16T13:56:22.000Z</time>
      </trkpt>
      <trkpt lat="48.2697" lon="-2.883">
        <ele>153.60000610352</ele>
        <time>2020-10-16T13:56:23.000Z</time>
      </trkpt>
      <trkpt lat="48.26969" lon="-2.88305">
        <ele>153.60000610352</ele>
        <time>2020-10-16T13:56:24.000Z</time>
      </trkpt>
      <trkpt lat="48.26965" lon="-2.88315">
        <ele>153.80000305176</ele>
        <time>2020-10-16T13:56:25.000Z</time>
      </trkpt>
      <trkpt lat="48.26965" lon="-2.88315">
        <ele>153.80000305176</ele>
        <time>2020-10-16T13:56:26.000Z</time>
      </trkpt>
      <trkpt lat="48.26963" lon="-2.8832">
        <ele>154</ele>
        <time>2020-10-16T13:56:27.000Z</time>
      </trkpt>
      <trkpt lat="48.26961" lon="-2.88329">
        <ele>154.19999694824</ele>
        <time>2020-10-16T13:56:28.000Z</time>
      </trkpt>
      <trkpt lat="48.2696" lon="-2.88334">
        <ele>154.19999694824</ele>
        <time>2020-10-16T13:56:29.000Z</time>
      </trkpt>
      <trkpt lat="48.2696" lon="-2.88334">
        <ele>154.19999694824</ele>
        <time>2020-10-16T13:56:30.000Z</time>
      </trkpt>
      <trkpt lat="48.26956" lon="-2.88343">
        <ele>154.39999389648</ele>
        <time>2020-10-16T13:56:31.000Z</time>
      </trkpt>
      <trkpt lat="48.26956" lon="-2.88343">
        <ele>154.39999389648</ele>
        <time>2020-10-16T13:56:32.000Z</time>
      </trkpt>
      <trkpt lat="48.26953" lon="-2.88347">
        <ele>154.60000610352</ele>
        <time>2020-10-16T13:56:33.000Z</time>
      </trkpt>
      <trkpt lat="48.26949" lon="-2.88355">
        <ele>154.80000305176</ele>
        <time>2020-10-16T13:56:34.000Z</time>
      </trkpt>
      <trkpt lat="48.26949" lon="-2.88355">
        <ele>154.80000305176</ele>
        <time>2020-10-16T13:56:35.000Z</time>
      </trkpt>
      <trkpt lat="48.26946" lon="-2.88364">
        <ele>155</ele>
        <time>2020-10-16T13:56:36.000Z</time>
      </trkpt>
      <trkpt lat="48.26946" lon="-2.88364">
        <ele>155</ele>
        <time>2020-10-16T13:56:37.000Z</time>
      </trkpt>
      <trkpt lat="48.26944" lon="-2.88368">
        <ele>155.19999694824</ele>
        <time>2020-10-16T13:56:38.000Z</time>
      </trkpt>
      <trkpt lat="48.2694" lon="-2.88377">
        <ele>155.39999389648</ele>
        <time>2020-10-16T13:56:39.000Z</time>
      </trkpt>
      <trkpt lat="48.2694" lon="-2.88377">
        <ele>155.39999389648</ele>
        <time>2020-10-16T13:56:40.000Z</time>
      </trkpt>
      <trkpt lat="48.26936" lon="-2.88387">
        <ele>155.60000610352</ele>
        <time>2020-10-16T13:56:41.000Z</time>
      </trkpt>
      <trkpt lat="48.26936" lon="-2.88387">
        <ele>155.60000610352</ele>
        <time>2020-10-16T13:56:42.000Z</time>
      </trkpt>
      <trkpt lat="48.26932" lon="-2.88394">
        <ele>155.80000305176</ele>
        <time>2020-10-16T13:56:43.000Z</time>
      </trkpt>
      <trkpt lat="48.26932" lon="-2.88394">
        <ele>155.80000305176</ele>
        <time>2020-10-16T13:56:44.000Z</time>
      </trkpt>
      <trkpt lat="48.2693" lon="-2.88397">
        <ele>156</ele>
        <time>2020-10-16T13:56:45.000Z</time>
      </trkpt>
      <trkpt lat="48.26926" lon="-2.88405">
        <ele>156.60000610352</ele>
        <time>2020-10-16T13:56:46.000Z</time>
      </trkpt>
      <trkpt lat="48.26926" lon="-2.88405">
        <ele>156.60000610352</ele>
        <time>2020-10-16T13:56:47.000Z</time>
      </trkpt>
      <trkpt lat="48.26921" lon="-2.88413">
        <ele>157</ele>
        <time>2020-10-16T13:56:48.000Z</time>
      </trkpt>
      <trkpt lat="48.26919" lon="-2.88416">
        <ele>157.39999389648</ele>
        <time>2020-10-16T13:56:49.000Z</time>
      </trkpt>
      <trkpt lat="48.26919" lon="-2.88416">
        <ele>157.39999389648</ele>
        <time>2020-10-16T13:56:50.000Z</time>
      </trkpt>
      <trkpt lat="48.26918" lon="-2.88421">
        <ele>157.60000610352</ele>
        <time>2020-10-16T13:56:51.000Z</time>
      </trkpt>
      <trkpt lat="48.26914" lon="-2.8843">
        <ele>157.39999389648</ele>
        <time>2020-10-16T13:56:52.000Z</time>
      </trkpt>
      <trkpt lat="48.26914" lon="-2.8843">
        <ele>157.39999389648</ele>
        <time>2020-10-16T13:56:53.000Z</time>
      </trkpt>
      <trkpt lat="48.26913" lon="-2.88437">
        <ele>156.80000305176</ele>
        <time>2020-10-16T13:56:54.000Z</time>
      </trkpt>
      <trkpt lat="48.26909" lon="-2.8845">
        <ele>156.39999389648</ele>
        <time>2020-10-16T13:56:55.000Z</time>
      </trkpt>
      <trkpt lat="48.26909" lon="-2.8845">
        <ele>156.39999389648</ele>
        <time>2020-10-16T13:56:56.000Z</time>
      </trkpt>
      <trkpt lat="48.26905" lon="-2.88463">
        <ele>156.19999694824</ele>
        <time>2020-10-16T13:56:57.000Z</time>
      </trkpt>
      <trkpt lat="48.26905" lon="-2.88463">
        <ele>156.19999694824</ele>
        <time>2020-10-16T13:56:58.000Z</time>
      </trkpt>
      <trkpt lat="48.269" lon="-2.88474">
        <ele>156</ele>
        <time>2020-10-16T13:56:59.000Z</time>
      </trkpt>
      <trkpt lat="48.269" lon="-2.88474">
        <ele>156</ele>
        <time>2020-10-16T13:57:00.000Z</time>
      </trkpt>
      <trkpt lat="48.26895" lon="-2.88484">
        <ele>156</ele>
        <time>2020-10-16T13:57:01.000Z</time>
      </trkpt>
      <trkpt lat="48.26893" lon="-2.88489">
        <ele>155.80000305176</ele>
        <time>2020-10-16T13:57:02.000Z</time>
      </trkpt>
      <trkpt lat="48.26893" lon="-2.88489">
        <ele>155.80000305176</ele>
        <time>2020-10-16T13:57:03.000Z</time>
      </trkpt>
      <trkpt lat="48.26889" lon="-2.88501">
        <ele>155.60000610352</ele>
        <time>2020-10-16T13:57:04.000Z</time>
      </trkpt>
      <trkpt lat="48.26889" lon="-2.88501">
        <ele>155.60000610352</ele>
        <time>2020-10-16T13:57:05.000Z</time>
      </trkpt>
      <trkpt lat="48.26887" lon="-2.88506">
        <ele>155.60000610352</ele>
        <time>2020-10-16T13:57:06.000Z</time>
      </trkpt>
      <trkpt lat="48.26883" lon="-2.88518">
        <ele>155.60000610352</ele>
        <time>2020-10-16T13:57:07.000Z</time>
      </trkpt>
      <trkpt lat="48.26883" lon="-2.88518">
        <ele>155.60000610352</ele>
        <time>2020-10-16T13:57:08.000Z</time>
      </trkpt>
      <trkpt lat="48.26881" lon="-2.88523">
        <ele>155.60000610352</ele>
        <time>2020-10-16T13:57:09.000Z</time>
      </trkpt>
      <trkpt lat="48.26876" lon="-2.88533">
        <ele>155.39999389648</ele>
        <time>2020-10-16T13:57:10.000Z</time>
      </trkpt>
      <trkpt lat="48.26876" lon="-2.88533">
        <ele>155.39999389648</ele>
        <time>2020-10-16T13:57:11.000Z</time>
      </trkpt>
      <trkpt lat="48.26875" lon="-2.88539">
        <ele>155.39999389648</ele>
        <time>2020-10-16T13:57:12.000Z</time>
      </trkpt>
      <trkpt lat="48.26871" lon="-2.88549">
        <ele>155.39999389648</ele>
        <time>2020-10-16T13:57:13.000Z</time>
      </trkpt>
      <trkpt lat="48.26871" lon="-2.88549">
        <ele>155.39999389648</ele>
        <time>2020-10-16T13:57:14.000Z</time>
      </trkpt>
      <trkpt lat="48.26869" lon="-2.88554">
        <ele>155.39999389648</ele>
        <time>2020-10-16T13:57:15.000Z</time>
      </trkpt>
      <trkpt lat="48.26864" lon="-2.88565">
        <ele>155.39999389648</ele>
        <time>2020-10-16T13:57:16.000Z</time>
      </trkpt>
      <trkpt lat="48.26864" lon="-2.88565">
        <ele>155.39999389648</ele>
        <time>2020-10-16T13:57:17.000Z</time>
      </trkpt>
      <trkpt lat="48.26862" lon="-2.88571">
        <ele>155.39999389648</ele>
        <time>2020-10-16T13:57:18.000Z</time>
      </trkpt>
      <trkpt lat="48.26859" lon="-2.88582">
        <ele>155</ele>
        <time>2020-10-16T13:57:19.000Z</time>
      </trkpt>
      <trkpt lat="48.26859" lon="-2.88582">
        <ele>155</ele>
        <time>2020-10-16T13:57:20.000Z</time>
      </trkpt>
      <trkpt lat="48.26857" lon="-2.88588">
        <ele>154.80000305176</ele>
        <time>2020-10-16T13:57:21.000Z</time>
      </trkpt>
      <trkpt lat="48.26855" lon="-2.88598">
        <ele>155</ele>
        <time>2020-10-16T13:57:22.000Z</time>
      </trkpt>
      <trkpt lat="48.26855" lon="-2.88598">
        <ele>155</ele>
        <time>2020-10-16T13:57:23.000Z</time>
      </trkpt>
      <trkpt lat="48.26854" lon="-2.88603">
        <ele>155.19999694824</ele>
        <time>2020-10-16T13:57:24.000Z</time>
      </trkpt>
      <trkpt lat="48.26853" lon="-2.88614">
        <ele>155.19999694824</ele>
        <time>2020-10-16T13:57:25.000Z</time>
      </trkpt>
      <trkpt lat="48.26853" lon="-2.88614">
        <ele>155.19999694824</ele>
        <time>2020-10-16T13:57:26.000Z</time>
      </trkpt>
      <trkpt lat="48.26853" lon="-2.8862">
        <ele>155.19999694824</ele>
        <time>2020-10-16T13:57:27.000Z</time>
      </trkpt>
      <trkpt lat="48.26853" lon="-2.8863">
        <ele>155.19999694824</ele>
        <time>2020-10-16T13:57:28.000Z</time>
      </trkpt>
      <trkpt lat="48.26853" lon="-2.8863">
        <ele>155.19999694824</ele>
        <time>2020-10-16T13:57:29.000Z</time>
      </trkpt>
      <trkpt lat="48.26854" lon="-2.88635">
        <ele>155.19999694824</ele>
        <time>2020-10-16T13:57:30.000Z</time>
      </trkpt>
      <trkpt lat="48.26854" lon="-2.88645">
        <ele>155.19999694824</ele>
        <time>2020-10-16T13:57:31.000Z</time>
      </trkpt>
      <trkpt lat="48.26854" lon="-2.88645">
        <ele>155.19999694824</ele>
        <time>2020-10-16T13:57:32.000Z</time>
      </trkpt>
      <trkpt lat="48.26854" lon="-2.8865">
        <ele>155.19999694824</ele>
        <time>2020-10-16T13:57:33.000Z</time>
      </trkpt>
      <trkpt lat="48.26855" lon="-2.8866">
        <ele>155</ele>
        <time>2020-10-16T13:57:34.000Z</time>
      </trkpt>
      <trkpt lat="48.26855" lon="-2.8866">
        <ele>155</ele>
        <time>2020-10-16T13:57:35.000Z</time>
      </trkpt>
      <trkpt lat="48.26855" lon="-2.8867">
        <ele>155.39999389648</ele>
        <time>2020-10-16T13:57:36.000Z</time>
      </trkpt>
      <trkpt lat="48.26855" lon="-2.8867">
        <ele>155.39999389648</ele>
        <time>2020-10-16T13:57:37.000Z</time>
      </trkpt>
      <trkpt lat="48.26855" lon="-2.88677">
        <ele>155.39999389648</ele>
        <time>2020-10-16T13:57:38.000Z</time>
      </trkpt>
      <trkpt lat="48.26856" lon="-2.88688">
        <ele>155.19999694824</ele>
        <time>2020-10-16T13:57:39.000Z</time>
      </trkpt>
      <trkpt lat="48.26856" lon="-2.88688">
        <ele>155.19999694824</ele>
        <time>2020-10-16T13:57:40.000Z</time>
      </trkpt>
      <trkpt lat="48.26857" lon="-2.88696">
        <ele>155</ele>
        <time>2020-10-16T13:57:41.000Z</time>
      </trkpt>
      <trkpt lat="48.26859" lon="-2.88708">
        <ele>154.80000305176</ele>
        <time>2020-10-16T13:57:42.000Z</time>
      </trkpt>
      <trkpt lat="48.26859" lon="-2.88708">
        <ele>154.80000305176</ele>
        <time>2020-10-16T13:57:43.000Z</time>
      </trkpt>
      <trkpt lat="48.26858" lon="-2.88715">
        <ele>154.80000305176</ele>
        <time>2020-10-16T13:57:44.000Z</time>
      </trkpt>
      <trkpt lat="48.26856" lon="-2.88727">
        <ele>154.80000305176</ele>
        <time>2020-10-16T13:57:45.000Z</time>
      </trkpt>
      <trkpt lat="48.26856" lon="-2.88727">
        <ele>154.80000305176</ele>
        <time>2020-10-16T13:57:46.000Z</time>
      </trkpt>
      <trkpt lat="48.26856" lon="-2.88735">
        <ele>154.60000610352</ele>
        <time>2020-10-16T13:57:47.000Z</time>
      </trkpt>
      <trkpt lat="48.26853" lon="-2.88747">
        <ele>154.60000610352</ele>
        <time>2020-10-16T13:57:48.000Z</time>
      </trkpt>
      <trkpt lat="48.26853" lon="-2.88747">
        <ele>154.60000610352</ele>
        <time>2020-10-16T13:57:49.000Z</time>
      </trkpt>
      <trkpt lat="48.26852" lon="-2.88753">
        <ele>154.80000305176</ele>
        <time>2020-10-16T13:57:50.000Z</time>
      </trkpt>
      <trkpt lat="48.26849" lon="-2.88768">
        <ele>154.60000610352</ele>
        <time>2020-10-16T13:57:51.000Z</time>
      </trkpt>
      <trkpt lat="48.26849" lon="-2.88768">
        <ele>154.60000610352</ele>
        <time>2020-10-16T13:57:52.000Z</time>
      </trkpt>
      <trkpt lat="48.26847" lon="-2.88775">
        <ele>154.39999389648</ele>
        <time>2020-10-16T13:57:53.000Z</time>
      </trkpt>
      <trkpt lat="48.26845" lon="-2.88787">
        <ele>154</ele>
        <time>2020-10-16T13:57:54.000Z</time>
      </trkpt>
      <trkpt lat="48.26845" lon="-2.88787">
        <ele>154</ele>
        <time>2020-10-16T13:57:55.000Z</time>
      </trkpt>
      <trkpt lat="48.26844" lon="-2.88792">
        <ele>154</ele>
        <time>2020-10-16T13:57:56.000Z</time>
      </trkpt>
      <trkpt lat="48.26842" lon="-2.88802">
        <ele>154</ele>
        <time>2020-10-16T13:57:57.000Z</time>
      </trkpt>
      <trkpt lat="48.26842" lon="-2.88802">
        <ele>154</ele>
        <time>2020-10-16T13:57:58.000Z</time>
      </trkpt>
      <trkpt lat="48.26842" lon="-2.88806">
        <ele>153.80000305176</ele>
        <time>2020-10-16T13:57:59.000Z</time>
      </trkpt>
      <trkpt lat="48.26844" lon="-2.88816">
        <ele>153.19999694824</ele>
        <time>2020-10-16T13:58:00.000Z</time>
      </trkpt>
      <trkpt lat="48.26844" lon="-2.88816">
        <ele>153.19999694824</ele>
        <time>2020-10-16T13:58:01.000Z</time>
      </trkpt>
      <trkpt lat="48.26848" lon="-2.88824">
        <ele>152.60000610352</ele>
        <time>2020-10-16T13:58:02.000Z</time>
      </trkpt>
      <trkpt lat="48.26848" lon="-2.88824">
        <ele>152.60000610352</ele>
        <time>2020-10-16T13:58:03.000Z</time>
      </trkpt>
      <trkpt lat="48.26853" lon="-2.88828">
        <ele>152.60000610352</ele>
        <time>2020-10-16T13:58:04.000Z</time>
      </trkpt>
      <trkpt lat="48.26853" lon="-2.88828">
        <ele>152.60000610352</ele>
        <time>2020-10-16T13:58:05.000Z</time>
      </trkpt>
      <trkpt lat="48.26856" lon="-2.88829">
        <ele>152.39999389648</ele>
        <time>2020-10-16T13:58:06.000Z</time>
      </trkpt>
      <trkpt lat="48.26861" lon="-2.88832">
        <ele>153</ele>
        <time>2020-10-16T13:58:07.000Z</time>
      </trkpt>
      <trkpt lat="48.26864" lon="-2.88833">
        <ele>153.39999389648</ele>
        <time>2020-10-16T13:58:08.000Z</time>
      </trkpt>
      <trkpt lat="48.26864" lon="-2.88833">
        <ele>153.39999389648</ele>
        <time>2020-10-16T13:58:09.000Z</time>
      </trkpt>
      <trkpt lat="48.26866" lon="-2.88834">
        <ele>153.60000610352</ele>
        <time>2020-10-16T13:58:10.000Z</time>
      </trkpt>
      <trkpt lat="48.26871" lon="-2.88838">
        <ele>154.19999694824</ele>
        <time>2020-10-16T13:58:11.000Z</time>
      </trkpt>
      <trkpt lat="48.26871" lon="-2.88838">
        <ele>154.19999694824</ele>
        <time>2020-10-16T13:58:12.000Z</time>
      </trkpt>
      <trkpt lat="48.26873" lon="-2.88839">
        <ele>154.60000610352</ele>
        <time>2020-10-16T13:58:13.000Z</time>
      </trkpt>
      <trkpt lat="48.26879" lon="-2.88839">
        <ele>155.19999694824</ele>
        <time>2020-10-16T13:58:14.000Z</time>
      </trkpt>
      <trkpt lat="48.26879" lon="-2.88839">
        <ele>155.19999694824</ele>
        <time>2020-10-16T13:58:15.000Z</time>
      </trkpt>
      <trkpt lat="48.26882" lon="-2.88839">
        <ele>155.39999389648</ele>
        <time>2020-10-16T13:58:16.000Z</time>
      </trkpt>
      <trkpt lat="48.26883" lon="-2.88839">
        <ele>155.60000610352</ele>
        <time>2020-10-16T13:58:17.000Z</time>
      </trkpt>
      <trkpt lat="48.26886" lon="-2.8884">
        <ele>155.80000305176</ele>
        <time>2020-10-16T13:58:18.000Z</time>
      </trkpt>
      <trkpt lat="48.26886" lon="-2.8884">
        <ele>155.80000305176</ele>
        <time>2020-10-16T13:58:19.000Z</time>
      </trkpt>
      <trkpt lat="48.26889" lon="-2.88835">
        <ele>155.80000305176</ele>
        <time>2020-10-16T13:58:20.000Z</time>
      </trkpt>
      <trkpt lat="48.26889" lon="-2.88835">
        <ele>155.80000305176</ele>
        <time>2020-10-16T13:58:21.000Z</time>
      </trkpt>
      <trkpt lat="48.26891" lon="-2.88833">
        <ele>156</ele>
        <time>2020-10-16T13:58:22.000Z</time>
      </trkpt>
      <trkpt lat="48.26894" lon="-2.88825">
        <ele>155.80000305176</ele>
        <time>2020-10-16T13:58:23.000Z</time>
      </trkpt>
      <trkpt lat="48.26894" lon="-2.88825">
        <ele>155.80000305176</ele>
        <time>2020-10-16T13:58:24.000Z</time>
      </trkpt>
      <trkpt lat="48.26896" lon="-2.88822">
        <ele>156</ele>
        <time>2020-10-16T13:58:25.000Z</time>
      </trkpt>
      <trkpt lat="48.26899" lon="-2.88814">
        <ele>155.80000305176</ele>
        <time>2020-10-16T13:58:26.000Z</time>
      </trkpt>
      <trkpt lat="48.26901" lon="-2.88811">
        <ele>155.80000305176</ele>
        <time>2020-10-16T13:58:27.000Z</time>
      </trkpt>
      <trkpt lat="48.26901" lon="-2.88811">
        <ele>155.80000305176</ele>
        <time>2020-10-16T13:58:28.000Z</time>
      </trkpt>
      <trkpt lat="48.26903" lon="-2.88806">
        <ele>155.80000305176</ele>
        <time>2020-10-16T13:58:29.000Z</time>
      </trkpt>
      <trkpt lat="48.26906" lon="-2.88797">
        <ele>155.80000305176</ele>
        <time>2020-10-16T13:58:30.000Z</time>
      </trkpt>
      <trkpt lat="48.26906" lon="-2.88797">
        <ele>155.80000305176</ele>
        <time>2020-10-16T13:58:31.000Z</time>
      </trkpt>
      <trkpt lat="48.26908" lon="-2.88793">
        <ele>155.80000305176</ele>
        <time>2020-10-16T13:58:32.000Z</time>
      </trkpt>
      <trkpt lat="48.26912" lon="-2.88783">
        <ele>155.60000610352</ele>
        <time>2020-10-16T13:58:33.000Z</time>
      </trkpt>
      <trkpt lat="48.26912" lon="-2.88783">
        <ele>155.60000610352</ele>
        <time>2020-10-16T13:58:34.000Z</time>
      </trkpt>
      <trkpt lat="48.26914" lon="-2.88777">
        <ele>155.39999389648</ele>
        <time>2020-10-16T13:58:35.000Z</time>
      </trkpt>
      <trkpt lat="48.26918" lon="-2.88766">
        <ele>155.60000610352</ele>
        <time>2020-10-16T13:58:36.000Z</time>
      </trkpt>
      <trkpt lat="48.26918" lon="-2.88766">
        <ele>155.60000610352</ele>
        <time>2020-10-16T13:58:37.000Z</time>
      </trkpt>
      <trkpt lat="48.26919" lon="-2.88761">
        <ele>155.80000305176</ele>
        <time>2020-10-16T13:58:38.000Z</time>
      </trkpt>
      <trkpt lat="48.26923" lon="-2.8875">
        <ele>155.60000610352</ele>
        <time>2020-10-16T13:58:39.000Z</time>
      </trkpt>
      <trkpt lat="48.26923" lon="-2.8875">
        <ele>155.60000610352</ele>
        <time>2020-10-16T13:58:40.000Z</time>
      </trkpt>
      <trkpt lat="48.26927" lon="-2.8874">
        <ele>155</ele>
        <time>2020-10-16T13:58:41.000Z</time>
      </trkpt>
      <trkpt lat="48.26927" lon="-2.8874">
        <ele>155</ele>
        <time>2020-10-16T13:58:42.000Z</time>
      </trkpt>
      <trkpt lat="48.26929" lon="-2.88734">
        <ele>154.60000610352</ele>
        <time>2020-10-16T13:58:43.000Z</time>
      </trkpt>
      <trkpt lat="48.26933" lon="-2.88723">
        <ele>154.80000305176</ele>
        <time>2020-10-16T13:58:44.000Z</time>
      </trkpt>
      <trkpt lat="48.26933" lon="-2.88723">
        <ele>154.80000305176</ele>
        <time>2020-10-16T13:58:45.000Z</time>
      </trkpt>
      <trkpt lat="48.26935" lon="-2.88717">
        <ele>155</ele>
        <time>2020-10-16T13:58:46.000Z</time>
      </trkpt>
      <trkpt lat="48.26939" lon="-2.88706">
        <ele>155.19999694824</ele>
        <time>2020-10-16T13:58:47.000Z</time>
      </trkpt>
      <trkpt lat="48.26939" lon="-2.88706">
        <ele>155.19999694824</ele>
        <time>2020-10-16T13:58:48.000Z</time>
      </trkpt>
      <trkpt lat="48.26941" lon="-2.88702">
        <ele>155.39999389648</ele>
        <time>2020-10-16T13:58:49.000Z</time>
      </trkpt>
      <trkpt lat="48.26945" lon="-2.88693">
        <ele>155.80000305176</ele>
        <time>2020-10-16T13:58:50.000Z</time>
      </trkpt>
      <trkpt lat="48.26945" lon="-2.88693">
        <ele>155.80000305176</ele>
        <time>2020-10-16T13:58:51.000Z</time>
      </trkpt>
      <trkpt lat="48.26947" lon="-2.88689">
        <ele>156</ele>
        <time>2020-10-16T13:58:52.000Z</time>
      </trkpt>
      <trkpt lat="48.2695" lon="-2.8868">
        <ele>156</ele>
        <time>2020-10-16T13:58:53.000Z</time>
      </trkpt>
      <trkpt lat="48.2695" lon="-2.8868">
        <ele>156</ele>
        <time>2020-10-16T13:58:54.000Z</time>
      </trkpt>
      <trkpt lat="48.26951" lon="-2.88675">
        <ele>156</ele>
        <time>2020-10-16T13:58:55.000Z</time>
      </trkpt>
      <trkpt lat="48.26953" lon="-2.88671">
        <ele>156.19999694824</ele>
        <time>2020-10-16T13:58:56.000Z</time>
      </trkpt>
      <trkpt lat="48.26953" lon="-2.88671">
        <ele>156.19999694824</ele>
        <time>2020-10-16T13:58:57.000Z</time>
      </trkpt>
      <trkpt lat="48.26953" lon="-2.8867">
        <ele>156.19999694824</ele>
        <time>2020-10-16T13:58:58.000Z</time>
      </trkpt>
      <trkpt lat="48.26953" lon="-2.8867">
        <ele>156.19999694824</ele>
        <time>2020-10-16T13:58:59.000Z</time>
      </trkpt>
      <trkpt lat="48.26953" lon="-2.8867">
        <ele>156.19999694824</ele>
        <time>2020-10-16T13:59:00.000Z</time>
      </trkpt>
      <trkpt lat="48.26953" lon="-2.8867">
        <ele>156.19999694824</ele>
        <time>2020-10-16T13:59:01.000Z</time>
      </trkpt>
      <trkpt lat="48.26953" lon="-2.8867">
        <ele>156.19999694824</ele>
        <time>2020-10-16T13:59:02.000Z</time>
      </trkpt>
      <trkpt lat="48.26953" lon="-2.8867">
        <ele>156.19999694824</ele>
        <time>2020-10-16T13:59:03.000Z</time>
      </trkpt>
      <trkpt lat="48.26953" lon="-2.8867">
        <ele>156.19999694824</ele>
        <time>2020-10-16T13:59:04.000Z</time>
      </trkpt>
      <trkpt lat="48.26953" lon="-2.8867">
        <ele>156.19999694824</ele>
        <time>2020-10-16T13:59:05.000Z</time>
      </trkpt>
      <trkpt lat="48.26953" lon="-2.8867">
        <ele>156.19999694824</ele>
        <time>2020-10-16T13:59:06.000Z</time>
      </trkpt>
      <trkpt lat="48.26953" lon="-2.8867">
        <ele>156.19999694824</ele>
        <time>2020-10-16T13:59:07.000Z</time>
      </trkpt>
      <trkpt lat="48.26953" lon="-2.8867">
        <ele>156.19999694824</ele>
        <time>2020-10-16T13:59:08.000Z</time>
      </trkpt>
      <trkpt lat="48.26951" lon="-2.88674">
        <ele>156</ele>
        <time>2020-10-16T13:59:09.000Z</time>
      </trkpt>
      <trkpt lat="48.26951" lon="-2.88674">
        <ele>156</ele>
        <time>2020-10-16T13:59:10.000Z</time>
      </trkpt>
      <trkpt lat="48.2695" lon="-2.88676">
        <ele>155.80000305176</ele>
        <time>2020-10-16T13:59:11.000Z</time>
      </trkpt>
      <trkpt lat="48.26948" lon="-2.8868">
        <ele>155.60000610352</ele>
        <time>2020-10-16T13:59:12.000Z</time>
      </trkpt>
      <trkpt lat="48.26948" lon="-2.8868">
        <ele>155.60000610352</ele>
        <time>2020-10-16T13:59:13.000Z</time>
      </trkpt>
      <trkpt lat="48.26946" lon="-2.88683">
        <ele>155.39999389648</ele>
        <time>2020-10-16T13:59:14.000Z</time>
      </trkpt>
      <trkpt lat="48.26946" lon="-2.88683">
        <ele>155.39999389648</ele>
        <time>2020-10-16T13:59:15.000Z</time>
      </trkpt>
      <trkpt lat="48.26945" lon="-2.88686">
        <ele>155.19999694824</ele>
        <time>2020-10-16T13:59:16.000Z</time>
      </trkpt>
      <trkpt lat="48.26945" lon="-2.88686">
        <ele>155.19999694824</ele>
        <time>2020-10-16T13:59:17.000Z</time>
      </trkpt>
      <trkpt lat="48.26944" lon="-2.88687">
        <ele>155.19999694824</ele>
        <time>2020-10-16T13:59:18.000Z</time>
      </trkpt>
      <trkpt lat="48.26943" lon="-2.88691">
        <ele>155</ele>
        <time>2020-10-16T13:59:19.000Z</time>
      </trkpt>
      <trkpt lat="48.26943" lon="-2.88691">
        <ele>155</ele>
        <time>2020-10-16T13:59:20.000Z</time>
      </trkpt>
      <trkpt lat="48.26941" lon="-2.88697">
        <ele>155</ele>
        <time>2020-10-16T13:59:21.000Z</time>
      </trkpt>
      <trkpt lat="48.26941" lon="-2.88697">
        <ele>155</ele>
        <time>2020-10-16T13:59:22.000Z</time>
      </trkpt>
      <trkpt lat="48.2694" lon="-2.88701">
        <ele>155</ele>
        <time>2020-10-16T13:59:23.000Z</time>
      </trkpt>
      <trkpt lat="48.26937" lon="-2.8871">
        <ele>154.80000305176</ele>
        <time>2020-10-16T13:59:24.000Z</time>
      </trkpt>
      <trkpt lat="48.26937" lon="-2.8871">
        <ele>154.80000305176</ele>
        <time>2020-10-16T13:59:25.000Z</time>
      </trkpt>
      <trkpt lat="48.26933" lon="-2.8872">
        <ele>154.39999389648</ele>
        <time>2020-10-16T13:59:26.000Z</time>
      </trkpt>
      <trkpt lat="48.26933" lon="-2.8872">
        <ele>154.39999389648</ele>
        <time>2020-10-16T13:59:27.000Z</time>
      </trkpt>
      <trkpt lat="48.26928" lon="-2.88729">
        <ele>154.39999389648</ele>
        <time>2020-10-16T13:59:28.000Z</time>
      </trkpt>
      <trkpt lat="48.26928" lon="-2.88729">
        <ele>154.39999389648</ele>
        <time>2020-10-16T13:59:29.000Z</time>
      </trkpt>
      <trkpt lat="48.26924" lon="-2.88739">
        <ele>154.80000305176</ele>
        <time>2020-10-16T13:59:30.000Z</time>
      </trkpt>
      <trkpt lat="48.26924" lon="-2.88739">
        <ele>154.80000305176</ele>
        <time>2020-10-16T13:59:31.000Z</time>
      </trkpt>
      <trkpt lat="48.2692" lon="-2.88749">
        <ele>155.39999389648</ele>
        <time>2020-10-16T13:59:32.000Z</time>
      </trkpt>
      <trkpt lat="48.2692" lon="-2.88749">
        <ele>155.39999389648</ele>
        <time>2020-10-16T13:59:33.000Z</time>
      </trkpt>
      <trkpt lat="48.26917" lon="-2.88755">
        <ele>155.80000305176</ele>
        <time>2020-10-16T13:59:34.000Z</time>
      </trkpt>
      <trkpt lat="48.26913" lon="-2.88766">
        <ele>155.39999389648</ele>
        <time>2020-10-16T13:59:35.000Z</time>
      </trkpt>
      <trkpt lat="48.26913" lon="-2.88766">
        <ele>155.39999389648</ele>
        <time>2020-10-16T13:59:36.000Z</time>
      </trkpt>
      <trkpt lat="48.26908" lon="-2.88777">
        <ele>155</ele>
        <time>2020-10-16T13:59:37.000Z</time>
      </trkpt>
      <trkpt lat="48.26908" lon="-2.88777">
        <ele>155</ele>
        <time>2020-10-16T13:59:38.000Z</time>
      </trkpt>
      <trkpt lat="48.26906" lon="-2.88782">
        <ele>155</ele>
        <time>2020-10-16T13:59:39.000Z</time>
      </trkpt>
      <trkpt lat="48.26901" lon="-2.8879">
        <ele>154.80000305176</ele>
        <time>2020-10-16T13:59:40.000Z</time>
      </trkpt>
      <trkpt lat="48.26901" lon="-2.8879">
        <ele>154.80000305176</ele>
        <time>2020-10-16T13:59:41.000Z</time>
      </trkpt>
      <trkpt lat="48.26899" lon="-2.88795">
        <ele>154.80000305176</ele>
        <time>2020-10-16T13:59:42.000Z</time>
      </trkpt>
      <trkpt lat="48.26893" lon="-2.88802">
        <ele>154.60000610352</ele>
        <time>2020-10-16T13:59:43.000Z</time>
      </trkpt>
      <trkpt lat="48.26893" lon="-2.88802">
        <ele>154.60000610352</ele>
        <time>2020-10-16T13:59:44.000Z</time>
      </trkpt>
      <trkpt lat="48.2689" lon="-2.88807">
        <ele>154.60000610352</ele>
        <time>2020-10-16T13:59:45.000Z</time>
      </trkpt>
      <trkpt lat="48.26886" lon="-2.88816">
        <ele>154.80000305176</ele>
        <time>2020-10-16T13:59:46.000Z</time>
      </trkpt>
      <trkpt lat="48.26886" lon="-2.88816">
        <ele>154.80000305176</ele>
        <time>2020-10-16T13:59:47.000Z</time>
      </trkpt>
      <trkpt lat="48.26885" lon="-2.8882">
        <ele>154.80000305176</ele>
        <time>2020-10-16T13:59:48.000Z</time>
      </trkpt>
      <trkpt lat="48.26882" lon="-2.88825">
        <ele>154.80000305176</ele>
        <time>2020-10-16T13:59:49.000Z</time>
      </trkpt>
      <trkpt lat="48.26882" lon="-2.88825">
        <ele>154.80000305176</ele>
        <time>2020-10-16T13:59:50.000Z</time>
      </trkpt>
      <trkpt lat="48.26881" lon="-2.88826">
        <ele>154.80000305176</ele>
        <time>2020-10-16T13:59:51.000Z</time>
      </trkpt>
      <trkpt lat="48.2688" lon="-2.88827">
        <ele>154.60000610352</ele>
        <time>2020-10-16T13:59:52.000Z</time>
      </trkpt>
      <trkpt lat="48.2688" lon="-2.88827">
        <ele>154.60000610352</ele>
        <time>2020-10-16T13:59:53.000Z</time>
      </trkpt>
      <trkpt lat="48.26881" lon="-2.88828">
        <ele>154.80000305176</ele>
        <time>2020-10-16T13:59:54.000Z</time>
      </trkpt>
      <trkpt lat="48.26881" lon="-2.88828">
        <ele>154.80000305176</ele>
        <time>2020-10-16T13:59:55.000Z</time>
      </trkpt>
      <trkpt lat="48.2688" lon="-2.88828">
        <ele>154.80000305176</ele>
        <time>2020-10-16T13:59:56.000Z</time>
      </trkpt>
      <trkpt lat="48.2688" lon="-2.88828">
        <ele>154.80000305176</ele>
        <time>2020-10-16T13:59:57.000Z</time>
      </trkpt>
      <trkpt lat="48.2688" lon="-2.88828">
        <ele>154.80000305176</ele>
        <time>2020-10-16T13:59:58.000Z</time>
      </trkpt>
      <trkpt lat="48.2688" lon="-2.88828">
        <ele>154.80000305176</ele>
        <time>2020-10-16T13:59:59.000Z</time>
      </trkpt>
      <trkpt lat="48.2688" lon="-2.88828">
        <ele>154.80000305176</ele>
        <time>2020-10-16T14:00:00.000Z</time>
      </trkpt>
      <trkpt lat="48.2688" lon="-2.88828">
        <ele>154.80000305176</ele>
        <time>2020-10-16T14:00:01.000Z</time>
      </trkpt>
      <trkpt lat="48.2688" lon="-2.88828">
        <ele>154.80000305176</ele>
        <time>2020-10-16T14:00:02.000Z</time>
      </trkpt>
      <trkpt lat="48.26881" lon="-2.88828">
        <ele>154.80000305176</ele>
        <time>2020-10-16T14:00:03.000Z</time>
      </trkpt>
      <trkpt lat="48.26881" lon="-2.88828">
        <ele>154.80000305176</ele>
        <time>2020-10-16T14:00:04.000Z</time>
      </trkpt>
      <trkpt lat="48.26884" lon="-2.88825">
        <ele>154.80000305176</ele>
        <time>2020-10-16T14:00:05.000Z</time>
      </trkpt>
      <trkpt lat="48.26884" lon="-2.88825">
        <ele>154.80000305176</ele>
        <time>2020-10-16T14:00:06.000Z</time>
      </trkpt>
      <trkpt lat="48.26886" lon="-2.88821">
        <ele>155</ele>
        <time>2020-10-16T14:00:07.000Z</time>
      </trkpt>
      <trkpt lat="48.2689" lon="-2.88814">
        <ele>155</ele>
        <time>2020-10-16T14:00:08.000Z</time>
      </trkpt>
      <trkpt lat="48.2689" lon="-2.88814">
        <ele>155</ele>
        <time>2020-10-16T14:00:09.000Z</time>
      </trkpt>
      <trkpt lat="48.26895" lon="-2.88806">
        <ele>155</ele>
        <time>2020-10-16T14:00:10.000Z</time>
      </trkpt>
      <trkpt lat="48.26895" lon="-2.88806">
        <ele>155</ele>
        <time>2020-10-16T14:00:11.000Z</time>
      </trkpt>
      <trkpt lat="48.26897" lon="-2.88802">
        <ele>155</ele>
        <time>2020-10-16T14:00:12.000Z</time>
      </trkpt>
      <trkpt lat="48.26902" lon="-2.88792">
        <ele>155.19999694824</ele>
        <time>2020-10-16T14:00:13.000Z</time>
      </trkpt>
      <trkpt lat="48.26902" lon="-2.88792">
        <ele>155.19999694824</ele>
        <time>2020-10-16T14:00:14.000Z</time>
      </trkpt>
      <trkpt lat="48.26905" lon="-2.88787">
        <ele>155</ele>
        <time>2020-10-16T14:00:15.000Z</time>
      </trkpt>
      <trkpt lat="48.26909" lon="-2.88777">
        <ele>155</ele>
        <time>2020-10-16T14:00:16.000Z</time>
      </trkpt>
      <trkpt lat="48.26909" lon="-2.88777">
        <ele>155</ele>
        <time>2020-10-16T14:00:17.000Z</time>
      </trkpt>
      <trkpt lat="48.26911" lon="-2.88772">
        <ele>155.19999694824</ele>
        <time>2020-10-16T14:00:18.000Z</time>
      </trkpt>
      <trkpt lat="48.26916" lon="-2.88762">
        <ele>155.60000610352</ele>
        <time>2020-10-16T14:00:19.000Z</time>
      </trkpt>
      <trkpt lat="48.26916" lon="-2.88762">
        <ele>155.60000610352</ele>
        <time>2020-10-16T14:00:20.000Z</time>
      </trkpt>
      <trkpt lat="48.26921" lon="-2.88752">
        <ele>155.60000610352</ele>
        <time>2020-10-16T14:00:21.000Z</time>
      </trkpt>
      <trkpt lat="48.26921" lon="-2.88752">
        <ele>155.60000610352</ele>
        <time>2020-10-16T14:00:22.000Z</time>
      </trkpt>
      <trkpt lat="48.26923" lon="-2.88748">
        <ele>155.39999389648</ele>
        <time>2020-10-16T14:00:23.000Z</time>
      </trkpt>
      <trkpt lat="48.26927" lon="-2.88738">
        <ele>154.80000305176</ele>
        <time>2020-10-16T14:00:24.000Z</time>
      </trkpt>
      <trkpt lat="48.26929" lon="-2.88732">
        <ele>154.60000610352</ele>
        <time>2020-10-16T14:00:25.000Z</time>
      </trkpt>
      <trkpt lat="48.26929" lon="-2.88732">
        <ele>154.60000610352</ele>
        <time>2020-10-16T14:00:26.000Z</time>
      </trkpt>
      <trkpt lat="48.26931" lon="-2.88727">
        <ele>154.60000610352</ele>
        <time>2020-10-16T14:00:27.000Z</time>
      </trkpt>
      <trkpt lat="48.26935" lon="-2.88716">
        <ele>154.80000305176</ele>
        <time>2020-10-16T14:00:28.000Z</time>
      </trkpt>
      <trkpt lat="48.26935" lon="-2.88716">
        <ele>154.80000305176</ele>
        <time>2020-10-16T14:00:29.000Z</time>
      </trkpt>
      <trkpt lat="48.26936" lon="-2.88711">
        <ele>154.80000305176</ele>
        <time>2020-10-16T14:00:30.000Z</time>
      </trkpt>
      <trkpt lat="48.26938" lon="-2.88707">
        <ele>154.80000305176</ele>
        <time>2020-10-16T14:00:31.000Z</time>
      </trkpt>
      <trkpt lat="48.26939" lon="-2.88704">
        <ele>155</ele>
        <time>2020-10-16T14:00:32.000Z</time>
      </trkpt>
      <trkpt lat="48.2694" lon="-2.88701">
        <ele>155</ele>
        <time>2020-10-16T14:00:33.000Z</time>
      </trkpt>
      <trkpt lat="48.26941" lon="-2.88698">
        <ele>155</ele>
        <time>2020-10-16T14:00:34.000Z</time>
      </trkpt>
      <trkpt lat="48.26942" lon="-2.88695">
        <ele>155</ele>
        <time>2020-10-16T14:00:35.000Z</time>
      </trkpt>
      <trkpt lat="48.26943" lon="-2.88692">
        <ele>155.19999694824</ele>
        <time>2020-10-16T14:00:36.000Z</time>
      </trkpt>
      <trkpt lat="48.26945" lon="-2.88688">
        <ele>155.39999389648</ele>
        <time>2020-10-16T14:00:37.000Z</time>
      </trkpt>
      <trkpt lat="48.26946" lon="-2.88684">
        <ele>155.39999389648</ele>
        <time>2020-10-16T14:00:38.000Z</time>
      </trkpt>
      <trkpt lat="48.26947" lon="-2.88681">
        <ele>155.39999389648</ele>
        <time>2020-10-16T14:00:39.000Z</time>
      </trkpt>
      <trkpt lat="48.26948" lon="-2.88677">
        <ele>155.39999389648</ele>
        <time>2020-10-16T14:00:40.000Z</time>
      </trkpt>
      <trkpt lat="48.26948" lon="-2.88673">
        <ele>155</ele>
        <time>2020-10-16T14:00:41.000Z</time>
      </trkpt>
      <trkpt lat="48.26947" lon="-2.88669">
        <ele>154.60000610352</ele>
        <time>2020-10-16T14:00:42.000Z</time>
      </trkpt>
      <trkpt lat="48.26945" lon="-2.88665">
        <ele>154</ele>
        <time>2020-10-16T14:00:43.000Z</time>
      </trkpt>
      <trkpt lat="48.26945" lon="-2.88661">
        <ele>153.39999389648</ele>
        <time>2020-10-16T14:00:44.000Z</time>
      </trkpt>
      <trkpt lat="48.26945" lon="-2.88657">
        <ele>153.19999694824</ele>
        <time>2020-10-16T14:00:45.000Z</time>
      </trkpt>
      <trkpt lat="48.26947" lon="-2.88652">
        <ele>153.19999694824</ele>
        <time>2020-10-16T14:00:46.000Z</time>
      </trkpt>
      <trkpt lat="48.26948" lon="-2.88647">
        <ele>153.39999389648</ele>
        <time>2020-10-16T14:00:47.000Z</time>
      </trkpt>
      <trkpt lat="48.2695" lon="-2.88642">
        <ele>153.39999389648</ele>
        <time>2020-10-16T14:00:48.000Z</time>
      </trkpt>
      <trkpt lat="48.26952" lon="-2.88637">
        <ele>153.60000610352</ele>
        <time>2020-10-16T14:00:49.000Z</time>
      </trkpt>
      <trkpt lat="48.26955" lon="-2.88632">
        <ele>153.80000305176</ele>
        <time>2020-10-16T14:00:50.000Z</time>
      </trkpt>
      <trkpt lat="48.26957" lon="-2.88627">
        <ele>154</ele>
        <time>2020-10-16T14:00:51.000Z</time>
      </trkpt>
      <trkpt lat="48.26959" lon="-2.88622">
        <ele>154.19999694824</ele>
        <time>2020-10-16T14:00:52.000Z</time>
      </trkpt>
      <trkpt lat="48.26962" lon="-2.88616">
        <ele>154.39999389648</ele>
        <time>2020-10-16T14:00:53.000Z</time>
      </trkpt>
      <trkpt lat="48.26964" lon="-2.88611">
        <ele>154.60000610352</ele>
        <time>2020-10-16T14:00:54.000Z</time>
      </trkpt>
      <trkpt lat="48.26966" lon="-2.88605">
        <ele>154.80000305176</ele>
        <time>2020-10-16T14:00:55.000Z</time>
      </trkpt>
      <trkpt lat="48.26968" lon="-2.88599">
        <ele>154.80000305176</ele>
        <time>2020-10-16T14:00:56.000Z</time>
      </trkpt>
      <trkpt lat="48.26971" lon="-2.88593">
        <ele>155</ele>
        <time>2020-10-16T14:00:57.000Z</time>
      </trkpt>
      <trkpt lat="48.26973" lon="-2.88587">
        <ele>155.19999694824</ele>
        <time>2020-10-16T14:00:58.000Z</time>
      </trkpt>
      <trkpt lat="48.26977" lon="-2.88575">
        <ele>154.80000305176</ele>
        <time>2020-10-16T14:00:59.000Z</time>
      </trkpt>
      <trkpt lat="48.26977" lon="-2.88575">
        <ele>154.80000305176</ele>
        <time>2020-10-16T14:01:00.000Z</time>
      </trkpt>
      <trkpt lat="48.2698" lon="-2.88569">
        <ele>154.60000610352</ele>
        <time>2020-10-16T14:01:01.000Z</time>
      </trkpt>
      <trkpt lat="48.26985" lon="-2.88558">
        <ele>154.60000610352</ele>
        <time>2020-10-16T14:01:02.000Z</time>
      </trkpt>
      <trkpt lat="48.26987" lon="-2.88551">
        <ele>154.39999389648</ele>
        <time>2020-10-16T14:01:03.000Z</time>
      </trkpt>
      <trkpt lat="48.26987" lon="-2.88551">
        <ele>154.39999389648</ele>
        <time>2020-10-16T14:01:04.000Z</time>
      </trkpt>
      <trkpt lat="48.2699" lon="-2.88545">
        <ele>154.19999694824</ele>
        <time>2020-10-16T14:01:05.000Z</time>
      </trkpt>
      <trkpt lat="48.26992" lon="-2.88539">
        <ele>154.19999694824</ele>
        <time>2020-10-16T14:01:06.000Z</time>
      </trkpt>
      <trkpt lat="48.26995" lon="-2.88533">
        <ele>154.19999694824</ele>
        <time>2020-10-16T14:01:07.000Z</time>
      </trkpt>
      <trkpt lat="48.26998" lon="-2.88527">
        <ele>154</ele>
        <time>2020-10-16T14:01:08.000Z</time>
      </trkpt>
      <trkpt lat="48.27" lon="-2.88522">
        <ele>154.19999694824</ele>
        <time>2020-10-16T14:01:09.000Z</time>
      </trkpt>
      <trkpt lat="48.27003" lon="-2.88516">
        <ele>154</ele>
        <time>2020-10-16T14:01:10.000Z</time>
      </trkpt>
      <trkpt lat="48.27006" lon="-2.88511">
        <ele>154.39999389648</ele>
        <time>2020-10-16T14:01:11.000Z</time>
      </trkpt>
      <trkpt lat="48.27009" lon="-2.88505">
        <ele>154.80000305176</ele>
        <time>2020-10-16T14:01:12.000Z</time>
      </trkpt>
      <trkpt lat="48.27012" lon="-2.885">
        <ele>154.60000610352</ele>
        <time>2020-10-16T14:01:13.000Z</time>
      </trkpt>
      <trkpt lat="48.27014" lon="-2.88494">
        <ele>154.60000610352</ele>
        <time>2020-10-16T14:01:14.000Z</time>
      </trkpt>
      <trkpt lat="48.27017" lon="-2.88489">
        <ele>154.80000305176</ele>
        <time>2020-10-16T14:01:15.000Z</time>
      </trkpt>
      <trkpt lat="48.2702" lon="-2.88484">
        <ele>154.80000305176</ele>
        <time>2020-10-16T14:01:16.000Z</time>
      </trkpt>
      <trkpt lat="48.27023" lon="-2.88479">
        <ele>155</ele>
        <time>2020-10-16T14:01:17.000Z</time>
      </trkpt>
      <trkpt lat="48.27026" lon="-2.88474">
        <ele>155.19999694824</ele>
        <time>2020-10-16T14:01:18.000Z</time>
      </trkpt>
      <trkpt lat="48.27029" lon="-2.88469">
        <ele>155.39999389648</ele>
        <time>2020-10-16T14:01:19.000Z</time>
      </trkpt>
      <trkpt lat="48.27032" lon="-2.88464">
        <ele>155.39999389648</ele>
        <time>2020-10-16T14:01:20.000Z</time>
      </trkpt>
      <trkpt lat="48.27035" lon="-2.88458">
        <ele>155.60000610352</ele>
        <time>2020-10-16T14:01:21.000Z</time>
      </trkpt>
      <trkpt lat="48.27038" lon="-2.88453">
        <ele>155.80000305176</ele>
        <time>2020-10-16T14:01:22.000Z</time>
      </trkpt>
      <trkpt lat="48.27041" lon="-2.88447">
        <ele>155.80000305176</ele>
        <time>2020-10-16T14:01:23.000Z</time>
      </trkpt>
      <trkpt lat="48.27044" lon="-2.88442">
        <ele>156</ele>
        <time>2020-10-16T14:01:24.000Z</time>
      </trkpt>
      <trkpt lat="48.27047" lon="-2.88437">
        <ele>156.19999694824</ele>
        <time>2020-10-16T14:01:25.000Z</time>
      </trkpt>
      <trkpt lat="48.2705" lon="-2.88432">
        <ele>156.19999694824</ele>
        <time>2020-10-16T14:01:26.000Z</time>
      </trkpt>
      <trkpt lat="48.27052" lon="-2.88427">
        <ele>156.39999389648</ele>
        <time>2020-10-16T14:01:27.000Z</time>
      </trkpt>
      <trkpt lat="48.27055" lon="-2.88423">
        <ele>156.60000610352</ele>
        <time>2020-10-16T14:01:28.000Z</time>
      </trkpt>
      <trkpt lat="48.27057" lon="-2.88419">
        <ele>156.19999694824</ele>
        <time>2020-10-16T14:01:29.000Z</time>
      </trkpt>
      <trkpt lat="48.27059" lon="-2.88415">
        <ele>156.19999694824</ele>
        <time>2020-10-16T14:01:30.000Z</time>
      </trkpt>
      <trkpt lat="48.27061" lon="-2.88411">
        <ele>156</ele>
        <time>2020-10-16T14:01:31.000Z</time>
      </trkpt>
      <trkpt lat="48.27064" lon="-2.88407">
        <ele>155.80000305176</ele>
        <time>2020-10-16T14:01:32.000Z</time>
      </trkpt>
      <trkpt lat="48.27066" lon="-2.88403">
        <ele>155.60000610352</ele>
        <time>2020-10-16T14:01:33.000Z</time>
      </trkpt>
      <trkpt lat="48.27069" lon="-2.88399">
        <ele>155.39999389648</ele>
        <time>2020-10-16T14:01:34.000Z</time>
      </trkpt>
      <trkpt lat="48.2707" lon="-2.88396">
        <ele>155.39999389648</ele>
        <time>2020-10-16T14:01:35.000Z</time>
      </trkpt>
      <trkpt lat="48.27073" lon="-2.88392">
        <ele>155.19999694824</ele>
        <time>2020-10-16T14:01:36.000Z</time>
      </trkpt>
      <trkpt lat="48.27075" lon="-2.88389">
        <ele>155.19999694824</ele>
        <time>2020-10-16T14:01:37.000Z</time>
      </trkpt>
      <trkpt lat="48.27077" lon="-2.88386">
        <ele>155</ele>
        <time>2020-10-16T14:01:38.000Z</time>
      </trkpt>
      <trkpt lat="48.2708" lon="-2.88381">
        <ele>154.80000305176</ele>
        <time>2020-10-16T14:01:39.000Z</time>
      </trkpt>
      <trkpt lat="48.27082" lon="-2.88377">
        <ele>154.60000610352</ele>
        <time>2020-10-16T14:01:40.000Z</time>
      </trkpt>
      <trkpt lat="48.27084" lon="-2.88373">
        <ele>154.39999389648</ele>
        <time>2020-10-16T14:01:41.000Z</time>
      </trkpt>
      <trkpt lat="48.27087" lon="-2.88368">
        <ele>154.19999694824</ele>
        <time>2020-10-16T14:01:42.000Z</time>
      </trkpt>
      <trkpt lat="48.27092" lon="-2.88359">
        <ele>153.80000305176</ele>
        <time>2020-10-16T14:01:43.000Z</time>
      </trkpt>
      <trkpt lat="48.27092" lon="-2.88359">
        <ele>153.80000305176</ele>
        <time>2020-10-16T14:01:44.000Z</time>
      </trkpt>
      <trkpt lat="48.27095" lon="-2.88355">
        <ele>153.60000610352</ele>
        <time>2020-10-16T14:01:45.000Z</time>
      </trkpt>
      <trkpt lat="48.27098" lon="-2.88351">
        <ele>153.60000610352</ele>
        <time>2020-10-16T14:01:46.000Z</time>
      </trkpt>
      <trkpt lat="48.27101" lon="-2.88347">
        <ele>153.60000610352</ele>
        <time>2020-10-16T14:01:47.000Z</time>
      </trkpt>
      <trkpt lat="48.27103" lon="-2.88343">
        <ele>153.60000610352</ele>
        <time>2020-10-16T14:01:48.000Z</time>
      </trkpt>
      <trkpt lat="48.27106" lon="-2.88339">
        <ele>153.60000610352</ele>
        <time>2020-10-16T14:01:49.000Z</time>
      </trkpt>
      <trkpt lat="48.27109" lon="-2.88333">
        <ele>153.60000610352</ele>
        <time>2020-10-16T14:01:50.000Z</time>
      </trkpt>
      <trkpt lat="48.27113" lon="-2.88326">
        <ele>153.60000610352</ele>
        <time>2020-10-16T14:01:51.000Z</time>
      </trkpt>
      <trkpt lat="48.27116" lon="-2.8832">
        <ele>153.80000305176</ele>
        <time>2020-10-16T14:01:52.000Z</time>
      </trkpt>
      <trkpt lat="48.27119" lon="-2.88314">
        <ele>153.80000305176</ele>
        <time>2020-10-16T14:01:53.000Z</time>
      </trkpt>
      <trkpt lat="48.27121" lon="-2.88308">
        <ele>153.80000305176</ele>
        <time>2020-10-16T14:01:54.000Z</time>
      </trkpt>
      <trkpt lat="48.27124" lon="-2.88303">
        <ele>153.80000305176</ele>
        <time>2020-10-16T14:01:55.000Z</time>
      </trkpt>
      <trkpt lat="48.27126" lon="-2.88296">
        <ele>153.80000305176</ele>
        <time>2020-10-16T14:01:56.000Z</time>
      </trkpt>
      <trkpt lat="48.27128" lon="-2.8829">
        <ele>153.80000305176</ele>
        <time>2020-10-16T14:01:57.000Z</time>
      </trkpt>
      <trkpt lat="48.27131" lon="-2.88283">
        <ele>153.80000305176</ele>
        <time>2020-10-16T14:01:58.000Z</time>
      </trkpt>
      <trkpt lat="48.27133" lon="-2.88277">
        <ele>153.80000305176</ele>
        <time>2020-10-16T14:01:59.000Z</time>
      </trkpt>
      <trkpt lat="48.27135" lon="-2.88271">
        <ele>153.80000305176</ele>
        <time>2020-10-16T14:02:00.000Z</time>
      </trkpt>
      <trkpt lat="48.27137" lon="-2.88265">
        <ele>153.80000305176</ele>
        <time>2020-10-16T14:02:01.000Z</time>
      </trkpt>
      <trkpt lat="48.27139" lon="-2.88259">
        <ele>153.80000305176</ele>
        <time>2020-10-16T14:02:02.000Z</time>
      </trkpt>
      <trkpt lat="48.27142" lon="-2.88247">
        <ele>153.39999389648</ele>
        <time>2020-10-16T14:02:03.000Z</time>
      </trkpt>
      <trkpt lat="48.27142" lon="-2.88247">
        <ele>153.39999389648</ele>
        <time>2020-10-16T14:02:04.000Z</time>
      </trkpt>
      <trkpt lat="48.27143" lon="-2.88241">
        <ele>153.19999694824</ele>
        <time>2020-10-16T14:02:05.000Z</time>
      </trkpt>
      <trkpt lat="48.27147" lon="-2.88229">
        <ele>153</ele>
        <time>2020-10-16T14:02:06.000Z</time>
      </trkpt>
      <trkpt lat="48.27147" lon="-2.88229">
        <ele>153</ele>
        <time>2020-10-16T14:02:07.000Z</time>
      </trkpt>
      <trkpt lat="48.27148" lon="-2.88222">
        <ele>152.80000305176</ele>
        <time>2020-10-16T14:02:08.000Z</time>
      </trkpt>
      <trkpt lat="48.2715" lon="-2.88216">
        <ele>152.60000610352</ele>
        <time>2020-10-16T14:02:09.000Z</time>
      </trkpt>
      <trkpt lat="48.27151" lon="-2.8821">
        <ele>152.60000610352</ele>
        <time>2020-10-16T14:02:10.000Z</time>
      </trkpt>
      <trkpt lat="48.27154" lon="-2.88204">
        <ele>152.39999389648</ele>
        <time>2020-10-16T14:02:11.000Z</time>
      </trkpt>
      <trkpt lat="48.27157" lon="-2.88198">
        <ele>152.39999389648</ele>
        <time>2020-10-16T14:02:12.000Z</time>
      </trkpt>
      <trkpt lat="48.27159" lon="-2.88193">
        <ele>152.60000610352</ele>
        <time>2020-10-16T14:02:13.000Z</time>
      </trkpt>
      <trkpt lat="48.27162" lon="-2.88187">
        <ele>152.60000610352</ele>
        <time>2020-10-16T14:02:14.000Z</time>
      </trkpt>
      <trkpt lat="48.27165" lon="-2.88182">
        <ele>152.80000305176</ele>
        <time>2020-10-16T14:02:15.000Z</time>
      </trkpt>
      <trkpt lat="48.27167" lon="-2.88177">
        <ele>152.80000305176</ele>
        <time>2020-10-16T14:02:16.000Z</time>
      </trkpt>
      <trkpt lat="48.2717" lon="-2.88172">
        <ele>153</ele>
        <time>2020-10-16T14:02:17.000Z</time>
      </trkpt>
      <trkpt lat="48.27173" lon="-2.88167">
        <ele>152.80000305176</ele>
        <time>2020-10-16T14:02:18.000Z</time>
      </trkpt>
      <trkpt lat="48.27176" lon="-2.88162">
        <ele>152.80000305176</ele>
        <time>2020-10-16T14:02:19.000Z</time>
      </trkpt>
      <trkpt lat="48.27178" lon="-2.88157">
        <ele>152.80000305176</ele>
        <time>2020-10-16T14:02:20.000Z</time>
      </trkpt>
      <trkpt lat="48.27181" lon="-2.88152">
        <ele>152.60000610352</ele>
        <time>2020-10-16T14:02:21.000Z</time>
      </trkpt>
      <trkpt lat="48.27184" lon="-2.88147">
        <ele>152.60000610352</ele>
        <time>2020-10-16T14:02:22.000Z</time>
      </trkpt>
      <trkpt lat="48.27186" lon="-2.88142">
        <ele>152.39999389648</ele>
        <time>2020-10-16T14:02:23.000Z</time>
      </trkpt>
      <trkpt lat="48.27188" lon="-2.88136">
        <ele>152.19999694824</ele>
        <time>2020-10-16T14:02:24.000Z</time>
      </trkpt>
      <trkpt lat="48.27189" lon="-2.8813">
        <ele>151.80000305176</ele>
        <time>2020-10-16T14:02:25.000Z</time>
      </trkpt>
      <trkpt lat="48.2719" lon="-2.88124">
        <ele>151.39999389648</ele>
        <time>2020-10-16T14:02:26.000Z</time>
      </trkpt>
      <trkpt lat="48.2719" lon="-2.88119">
        <ele>151.19999694824</ele>
        <time>2020-10-16T14:02:27.000Z</time>
      </trkpt>
      <trkpt lat="48.27191" lon="-2.88113">
        <ele>150.80000305176</ele>
        <time>2020-10-16T14:02:28.000Z</time>
      </trkpt>
      <trkpt lat="48.27191" lon="-2.88107">
        <ele>150.39999389648</ele>
        <time>2020-10-16T14:02:29.000Z</time>
      </trkpt>
      <trkpt lat="48.27192" lon="-2.881">
        <ele>150</ele>
        <time>2020-10-16T14:02:30.000Z</time>
      </trkpt>
      <trkpt lat="48.27192" lon="-2.88093">
        <ele>149.39999389648</ele>
        <time>2020-10-16T14:02:31.000Z</time>
      </trkpt>
      <trkpt lat="48.27193" lon="-2.88086">
        <ele>149.19999694824</ele>
        <time>2020-10-16T14:02:32.000Z</time>
      </trkpt>
      <trkpt lat="48.27194" lon="-2.88079">
        <ele>149</ele>
        <time>2020-10-16T14:02:33.000Z</time>
      </trkpt>
      <trkpt lat="48.27195" lon="-2.88072">
        <ele>149</ele>
        <time>2020-10-16T14:02:34.000Z</time>
      </trkpt>
      <trkpt lat="48.27197" lon="-2.88066">
        <ele>149</ele>
        <time>2020-10-16T14:02:35.000Z</time>
      </trkpt>
      <trkpt lat="48.27198" lon="-2.88059">
        <ele>149</ele>
        <time>2020-10-16T14:02:36.000Z</time>
      </trkpt>
      <trkpt lat="48.27201" lon="-2.88053">
        <ele>149.19999694824</ele>
        <time>2020-10-16T14:02:37.000Z</time>
      </trkpt>
      <trkpt lat="48.27204" lon="-2.88048">
        <ele>149.19999694824</ele>
        <time>2020-10-16T14:02:38.000Z</time>
      </trkpt>
      <trkpt lat="48.27207" lon="-2.88042">
        <ele>149.39999389648</ele>
        <time>2020-10-16T14:02:39.000Z</time>
      </trkpt>
      <trkpt lat="48.2721" lon="-2.88037">
        <ele>149.60000610352</ele>
        <time>2020-10-16T14:02:40.000Z</time>
      </trkpt>
      <trkpt lat="48.27213" lon="-2.88032">
        <ele>149.80000305176</ele>
        <time>2020-10-16T14:02:41.000Z</time>
      </trkpt>
      <trkpt lat="48.27219" lon="-2.88025">
        <ele>150</ele>
        <time>2020-10-16T14:02:42.000Z</time>
      </trkpt>
      <trkpt lat="48.27219" lon="-2.88025">
        <ele>150</ele>
        <time>2020-10-16T14:02:43.000Z</time>
      </trkpt>
      <trkpt lat="48.27221" lon="-2.88021">
        <ele>150.19999694824</ele>
        <time>2020-10-16T14:02:44.000Z</time>
      </trkpt>
      <trkpt lat="48.27223" lon="-2.88018">
        <ele>150.19999694824</ele>
        <time>2020-10-16T14:02:45.000Z</time>
      </trkpt>
      <trkpt lat="48.27225" lon="-2.88015">
        <ele>150.39999389648</ele>
        <time>2020-10-16T14:02:46.000Z</time>
      </trkpt>
      <trkpt lat="48.27227" lon="-2.88012">
        <ele>150.39999389648</ele>
        <time>2020-10-16T14:02:47.000Z</time>
      </trkpt>
      <trkpt lat="48.2723" lon="-2.88009">
        <ele>150.60000610352</ele>
        <time>2020-10-16T14:02:48.000Z</time>
      </trkpt>
      <trkpt lat="48.27233" lon="-2.88008">
        <ele>150.80000305176</ele>
        <time>2020-10-16T14:02:49.000Z</time>
      </trkpt>
      <trkpt lat="48.27236" lon="-2.88007">
        <ele>151</ele>
        <time>2020-10-16T14:02:50.000Z</time>
      </trkpt>
      <trkpt lat="48.2724" lon="-2.88006">
        <ele>151.39999389648</ele>
        <time>2020-10-16T14:02:51.000Z</time>
      </trkpt>
      <trkpt lat="48.27244" lon="-2.88005">
        <ele>151.39999389648</ele>
        <time>2020-10-16T14:02:52.000Z</time>
      </trkpt>
      <trkpt lat="48.27247" lon="-2.88005">
        <ele>151.60000610352</ele>
        <time>2020-10-16T14:02:53.000Z</time>
      </trkpt>
      <trkpt lat="48.27251" lon="-2.88004">
        <ele>151.80000305176</ele>
        <time>2020-10-16T14:02:54.000Z</time>
      </trkpt>
      <trkpt lat="48.27255" lon="-2.88004">
        <ele>152.19999694824</ele>
        <time>2020-10-16T14:02:55.000Z</time>
      </trkpt>
      <trkpt lat="48.27259" lon="-2.88004">
        <ele>152.39999389648</ele>
        <time>2020-10-16T14:02:56.000Z</time>
      </trkpt>
      <trkpt lat="48.27262" lon="-2.88004">
        <ele>152.60000610352</ele>
        <time>2020-10-16T14:02:57.000Z</time>
      </trkpt>
      <trkpt lat="48.27265" lon="-2.88005">
        <ele>152.80000305176</ele>
        <time>2020-10-16T14:02:58.000Z</time>
      </trkpt>
      <trkpt lat="48.27268" lon="-2.88006">
        <ele>152.80000305176</ele>
        <time>2020-10-16T14:02:59.000Z</time>
      </trkpt>
      <trkpt lat="48.27271" lon="-2.88007">
        <ele>152.60000610352</ele>
        <time>2020-10-16T14:03:00.000Z</time>
      </trkpt>
      <trkpt lat="48.27275" lon="-2.88007">
        <ele>152.39999389648</ele>
        <time>2020-10-16T14:03:01.000Z</time>
      </trkpt>
      <trkpt lat="48.27281" lon="-2.88011">
        <ele>152.39999389648</ele>
        <time>2020-10-16T14:03:02.000Z</time>
      </trkpt>
      <trkpt lat="48.27281" lon="-2.88011">
        <ele>152.39999389648</ele>
        <time>2020-10-16T14:03:03.000Z</time>
      </trkpt>
      <trkpt lat="48.27284" lon="-2.88013">
        <ele>152.19999694824</ele>
        <time>2020-10-16T14:03:04.000Z</time>
      </trkpt>
      <trkpt lat="48.27291" lon="-2.88017">
        <ele>152</ele>
        <time>2020-10-16T14:03:05.000Z</time>
      </trkpt>
      <trkpt lat="48.27291" lon="-2.88017">
        <ele>152</ele>
        <time>2020-10-16T14:03:06.000Z</time>
      </trkpt>
      <trkpt lat="48.27293" lon="-2.8802">
        <ele>152</ele>
        <time>2020-10-16T14:03:07.000Z</time>
      </trkpt>
      <trkpt lat="48.27297" lon="-2.88023">
        <ele>152</ele>
        <time>2020-10-16T14:03:08.000Z</time>
      </trkpt>
      <trkpt lat="48.273" lon="-2.88026">
        <ele>152</ele>
        <time>2020-10-16T14:03:09.000Z</time>
      </trkpt>
      <trkpt lat="48.27302" lon="-2.88029">
        <ele>152</ele>
        <time>2020-10-16T14:03:10.000Z</time>
      </trkpt>
      <trkpt lat="48.27304" lon="-2.88032">
        <ele>152</ele>
        <time>2020-10-16T14:03:11.000Z</time>
      </trkpt>
      <trkpt lat="48.27306" lon="-2.88035">
        <ele>152</ele>
        <time>2020-10-16T14:03:12.000Z</time>
      </trkpt>
      <trkpt lat="48.27306" lon="-2.88038">
        <ele>152</ele>
        <time>2020-10-16T14:03:13.000Z</time>
      </trkpt>
      <trkpt lat="48.27306" lon="-2.8804">
        <ele>152.19999694824</ele>
        <time>2020-10-16T14:03:14.000Z</time>
      </trkpt>
      <trkpt lat="48.27306" lon="-2.88042">
        <ele>152.19999694824</ele>
        <time>2020-10-16T14:03:15.000Z</time>
      </trkpt>
      <trkpt lat="48.27307" lon="-2.88044">
        <ele>152.19999694824</ele>
        <time>2020-10-16T14:03:16.000Z</time>
      </trkpt>
      <trkpt lat="48.27308" lon="-2.88046">
        <ele>152.19999694824</ele>
        <time>2020-10-16T14:03:17.000Z</time>
      </trkpt>
      <trkpt lat="48.27309" lon="-2.88047">
        <ele>152.19999694824</ele>
        <time>2020-10-16T14:03:18.000Z</time>
      </trkpt>
      <trkpt lat="48.27311" lon="-2.88047">
        <ele>152.19999694824</ele>
        <time>2020-10-16T14:03:19.000Z</time>
      </trkpt>
      <trkpt lat="48.27312" lon="-2.88049">
        <ele>152.19999694824</ele>
        <time>2020-10-16T14:03:20.000Z</time>
      </trkpt>
      <trkpt lat="48.27315" lon="-2.88054">
        <ele>152.39999389648</ele>
        <time>2020-10-16T14:03:21.000Z</time>
      </trkpt>
      <trkpt lat="48.27315" lon="-2.88054">
        <ele>152.39999389648</ele>
        <time>2020-10-16T14:03:22.000Z</time>
      </trkpt>
      <trkpt lat="48.27316" lon="-2.88056">
        <ele>152.39999389648</ele>
        <time>2020-10-16T14:03:23.000Z</time>
      </trkpt>
      <trkpt lat="48.27317" lon="-2.88059">
        <ele>152.60000610352</ele>
        <time>2020-10-16T14:03:24.000Z</time>
      </trkpt>
      <trkpt lat="48.27318" lon="-2.88063">
        <ele>152.80000305176</ele>
        <time>2020-10-16T14:03:25.000Z</time>
      </trkpt>
      <trkpt lat="48.27318" lon="-2.88067">
        <ele>153</ele>
        <time>2020-10-16T14:03:26.000Z</time>
      </trkpt>
      <trkpt lat="48.27319" lon="-2.88071">
        <ele>153</ele>
        <time>2020-10-16T14:03:27.000Z</time>
      </trkpt>
      <trkpt lat="48.27319" lon="-2.88074">
        <ele>153.19999694824</ele>
        <time>2020-10-16T14:03:28.000Z</time>
      </trkpt>
      <trkpt lat="48.27319" lon="-2.88077">
        <ele>153.39999389648</ele>
        <time>2020-10-16T14:03:29.000Z</time>
      </trkpt>
      <trkpt lat="48.27319" lon="-2.88081">
        <ele>153.60000610352</ele>
        <time>2020-10-16T14:03:30.000Z</time>
      </trkpt>
      <trkpt lat="48.27319" lon="-2.88083">
        <ele>153.60000610352</ele>
        <time>2020-10-16T14:03:31.000Z</time>
      </trkpt>
      <trkpt lat="48.27319" lon="-2.88087">
        <ele>153.80000305176</ele>
        <time>2020-10-16T14:03:32.000Z</time>
      </trkpt>
      <trkpt lat="48.2732" lon="-2.8809">
        <ele>154</ele>
        <time>2020-10-16T14:03:33.000Z</time>
      </trkpt>
      <trkpt lat="48.2732" lon="-2.88093">
        <ele>154.19999694824</ele>
        <time>2020-10-16T14:03:34.000Z</time>
      </trkpt>
      <trkpt lat="48.2732" lon="-2.88097">
        <ele>154.60000610352</ele>
        <time>2020-10-16T14:03:35.000Z</time>
      </trkpt>
      <trkpt lat="48.2732" lon="-2.88101">
        <ele>154.80000305176</ele>
        <time>2020-10-16T14:03:36.000Z</time>
      </trkpt>
      <trkpt lat="48.27321" lon="-2.88105">
        <ele>155.19999694824</ele>
        <time>2020-10-16T14:03:37.000Z</time>
      </trkpt>
      <trkpt lat="48.27321" lon="-2.88109">
        <ele>155.60000610352</ele>
        <time>2020-10-16T14:03:38.000Z</time>
      </trkpt>
      <trkpt lat="48.27321" lon="-2.88114">
        <ele>156</ele>
        <time>2020-10-16T14:03:39.000Z</time>
      </trkpt>
      <trkpt lat="48.27321" lon="-2.88118">
        <ele>156.19999694824</ele>
        <time>2020-10-16T14:03:40.000Z</time>
      </trkpt>
      <trkpt lat="48.27321" lon="-2.88123">
        <ele>156.60000610352</ele>
        <time>2020-10-16T14:03:41.000Z</time>
      </trkpt>
      <trkpt lat="48.27322" lon="-2.88128">
        <ele>156.80000305176</ele>
        <time>2020-10-16T14:03:42.000Z</time>
      </trkpt>
      <trkpt lat="48.27322" lon="-2.88132">
        <ele>157</ele>
        <time>2020-10-16T14:03:43.000Z</time>
      </trkpt>
      <trkpt lat="48.27323" lon="-2.88136">
        <ele>157.19999694824</ele>
        <time>2020-10-16T14:03:44.000Z</time>
      </trkpt>
      <trkpt lat="48.27323" lon="-2.88141">
        <ele>157.39999389648</ele>
        <time>2020-10-16T14:03:45.000Z</time>
      </trkpt>
      <trkpt lat="48.27324" lon="-2.88144">
        <ele>157.60000610352</ele>
        <time>2020-10-16T14:03:46.000Z</time>
      </trkpt>
      <trkpt lat="48.27326" lon="-2.88147">
        <ele>157.60000610352</ele>
        <time>2020-10-16T14:03:47.000Z</time>
      </trkpt>
      <trkpt lat="48.27327" lon="-2.8815">
        <ele>157.80000305176</ele>
        <time>2020-10-16T14:03:48.000Z</time>
      </trkpt>
      <trkpt lat="48.27328" lon="-2.88153">
        <ele>157.80000305176</ele>
        <time>2020-10-16T14:03:49.000Z</time>
      </trkpt>
      <trkpt lat="48.27329" lon="-2.88158">
        <ele>158.19999694824</ele>
        <time>2020-10-16T14:03:50.000Z</time>
      </trkpt>
      <trkpt lat="48.2733" lon="-2.88161">
        <ele>158.19999694824</ele>
        <time>2020-10-16T14:03:51.000Z</time>
      </trkpt>
      <trkpt lat="48.27332" lon="-2.88165">
        <ele>158.39999389648</ele>
        <time>2020-10-16T14:03:52.000Z</time>
      </trkpt>
      <trkpt lat="48.27333" lon="-2.88169">
        <ele>158.60000610352</ele>
        <time>2020-10-16T14:03:53.000Z</time>
      </trkpt>
      <trkpt lat="48.27335" lon="-2.88173">
        <ele>158.60000610352</ele>
        <time>2020-10-16T14:03:54.000Z</time>
      </trkpt>
      <trkpt lat="48.27336" lon="-2.88177">
        <ele>158.60000610352</ele>
        <time>2020-10-16T14:03:55.000Z</time>
      </trkpt>
      <trkpt lat="48.27337" lon="-2.88181">
        <ele>158.60000610352</ele>
        <time>2020-10-16T14:03:56.000Z</time>
      </trkpt>
      <trkpt lat="48.27339" lon="-2.88185">
        <ele>158.60000610352</ele>
        <time>2020-10-16T14:03:57.000Z</time>
      </trkpt>
      <trkpt lat="48.2734" lon="-2.8819">
        <ele>158.60000610352</ele>
        <time>2020-10-16T14:03:58.000Z</time>
      </trkpt>
      <trkpt lat="48.27341" lon="-2.88194">
        <ele>158.39999389648</ele>
        <time>2020-10-16T14:03:59.000Z</time>
      </trkpt>
      <trkpt lat="48.27342" lon="-2.88198">
        <ele>158.39999389648</ele>
        <time>2020-10-16T14:04:00.000Z</time>
      </trkpt>
      <trkpt lat="48.27344" lon="-2.88203">
        <ele>158.39999389648</ele>
        <time>2020-10-16T14:04:01.000Z</time>
      </trkpt>
      <trkpt lat="48.27347" lon="-2.88211">
        <ele>158.39999389648</ele>
        <time>2020-10-16T14:04:02.000Z</time>
      </trkpt>
      <trkpt lat="48.27347" lon="-2.88211">
        <ele>158.39999389648</ele>
        <time>2020-10-16T14:04:03.000Z</time>
      </trkpt>
      <trkpt lat="48.27349" lon="-2.88216">
        <ele>158.60000610352</ele>
        <time>2020-10-16T14:04:04.000Z</time>
      </trkpt>
      <trkpt lat="48.27351" lon="-2.8822">
        <ele>158.60000610352</ele>
        <time>2020-10-16T14:04:05.000Z</time>
      </trkpt>
      <trkpt lat="48.27354" lon="-2.88223">
        <ele>158.80000305176</ele>
        <time>2020-10-16T14:04:06.000Z</time>
      </trkpt>
      <trkpt lat="48.27357" lon="-2.88226">
        <ele>158.80000305176</ele>
        <time>2020-10-16T14:04:07.000Z</time>
      </trkpt>
      <trkpt lat="48.2736" lon="-2.88227">
        <ele>159</ele>
        <time>2020-10-16T14:04:08.000Z</time>
      </trkpt>
      <trkpt lat="48.27364" lon="-2.88228">
        <ele>159</ele>
        <time>2020-10-16T14:04:09.000Z</time>
      </trkpt>
      <trkpt lat="48.27367" lon="-2.88229">
        <ele>159.19999694824</ele>
        <time>2020-10-16T14:04:10.000Z</time>
      </trkpt>
      <trkpt lat="48.27371" lon="-2.88229">
        <ele>159.19999694824</ele>
        <time>2020-10-16T14:04:11.000Z</time>
      </trkpt>
      <trkpt lat="48.27374" lon="-2.88229">
        <ele>159.39999389648</ele>
        <time>2020-10-16T14:04:12.000Z</time>
      </trkpt>
      <trkpt lat="48.27377" lon="-2.88228">
        <ele>159.39999389648</ele>
        <time>2020-10-16T14:04:13.000Z</time>
      </trkpt>
      <trkpt lat="48.2738" lon="-2.88226">
        <ele>159.60000610352</ele>
        <time>2020-10-16T14:04:14.000Z</time>
      </trkpt>
      <trkpt lat="48.27382" lon="-2.88223">
        <ele>159.60000610352</ele>
        <time>2020-10-16T14:04:15.000Z</time>
      </trkpt>
      <trkpt lat="48.27384" lon="-2.88219">
        <ele>159.39999389648</ele>
        <time>2020-10-16T14:04:16.000Z</time>
      </trkpt>
      <trkpt lat="48.27386" lon="-2.88215">
        <ele>159.39999389648</ele>
        <time>2020-10-16T14:04:17.000Z</time>
      </trkpt>
      <trkpt lat="48.27387" lon="-2.8821">
        <ele>159.39999389648</ele>
        <time>2020-10-16T14:04:18.000Z</time>
      </trkpt>
      <trkpt lat="48.27388" lon="-2.88205">
        <ele>159.39999389648</ele>
        <time>2020-10-16T14:04:19.000Z</time>
      </trkpt>
      <trkpt lat="48.27391" lon="-2.88197">
        <ele>159.39999389648</ele>
        <time>2020-10-16T14:04:20.000Z</time>
      </trkpt>
      <trkpt lat="48.27391" lon="-2.88197">
        <ele>159.39999389648</ele>
        <time>2020-10-16T14:04:21.000Z</time>
      </trkpt>
      <trkpt lat="48.27392" lon="-2.88193">
        <ele>159.39999389648</ele>
        <time>2020-10-16T14:04:22.000Z</time>
      </trkpt>
      <trkpt lat="48.27393" lon="-2.88188">
        <ele>159.39999389648</ele>
        <time>2020-10-16T14:04:23.000Z</time>
      </trkpt>
      <trkpt lat="48.27394" lon="-2.88183">
        <ele>159.19999694824</ele>
        <time>2020-10-16T14:04:24.000Z</time>
      </trkpt>
      <trkpt lat="48.27396" lon="-2.88179">
        <ele>159.19999694824</ele>
        <time>2020-10-16T14:04:25.000Z</time>
      </trkpt>
      <trkpt lat="48.27397" lon="-2.88175">
        <ele>159.19999694824</ele>
        <time>2020-10-16T14:04:26.000Z</time>
      </trkpt>
      <trkpt lat="48.27398" lon="-2.88171">
        <ele>159</ele>
        <time>2020-10-16T14:04:27.000Z</time>
      </trkpt>
      <trkpt lat="48.27398" lon="-2.88167">
        <ele>158.80000305176</ele>
        <time>2020-10-16T14:04:28.000Z</time>
      </trkpt>
      <trkpt lat="48.27399" lon="-2.88162">
        <ele>158.60000610352</ele>
        <time>2020-10-16T14:04:29.000Z</time>
      </trkpt>
      <trkpt lat="48.27399" lon="-2.88158">
        <ele>158.39999389648</ele>
        <time>2020-10-16T14:04:30.000Z</time>
      </trkpt>
      <trkpt lat="48.274" lon="-2.88153">
        <ele>158</ele>
        <time>2020-10-16T14:04:31.000Z</time>
      </trkpt>
      <trkpt lat="48.27401" lon="-2.88148">
        <ele>157.80000305176</ele>
        <time>2020-10-16T14:04:32.000Z</time>
      </trkpt>
      <trkpt lat="48.27401" lon="-2.88144">
        <ele>157.60000610352</ele>
        <time>2020-10-16T14:04:33.000Z</time>
      </trkpt>
      <trkpt lat="48.27402" lon="-2.88139">
        <ele>157.39999389648</ele>
        <time>2020-10-16T14:04:34.000Z</time>
      </trkpt>
      <trkpt lat="48.27403" lon="-2.88135">
        <ele>157</ele>
        <time>2020-10-16T14:04:35.000Z</time>
      </trkpt>
      <trkpt lat="48.27404" lon="-2.88131">
        <ele>156.80000305176</ele>
        <time>2020-10-16T14:04:36.000Z</time>
      </trkpt>
      <trkpt lat="48.27405" lon="-2.88127">
        <ele>156.60000610352</ele>
        <time>2020-10-16T14:04:37.000Z</time>
      </trkpt>
      <trkpt lat="48.27405" lon="-2.88123">
        <ele>156.39999389648</ele>
        <time>2020-10-16T14:04:38.000Z</time>
      </trkpt>
      <trkpt lat="48.27405" lon="-2.88119">
        <ele>156.19999694824</ele>
        <time>2020-10-16T14:04:39.000Z</time>
      </trkpt>
      <trkpt lat="48.27406" lon="-2.8811">
        <ele>155.60000610352</ele>
        <time>2020-10-16T14:04:40.000Z</time>
      </trkpt>
      <trkpt lat="48.27406" lon="-2.8811">
        <ele>155.60000610352</ele>
        <time>2020-10-16T14:04:41.000Z</time>
      </trkpt>
      <trkpt lat="48.27406" lon="-2.88106">
        <ele>155.39999389648</ele>
        <time>2020-10-16T14:04:42.000Z</time>
      </trkpt>
      <trkpt lat="48.27407" lon="-2.88103">
        <ele>155.19999694824</ele>
        <time>2020-10-16T14:04:43.000Z</time>
      </trkpt>
      <trkpt lat="48.27408" lon="-2.88099">
        <ele>155</ele>
        <time>2020-10-16T14:04:44.000Z</time>
      </trkpt>
      <trkpt lat="48.27408" lon="-2.88095">
        <ele>154.80000305176</ele>
        <time>2020-10-16T14:04:45.000Z</time>
      </trkpt>
      <trkpt lat="48.27409" lon="-2.88093">
        <ele>154.60000610352</ele>
        <time>2020-10-16T14:04:46.000Z</time>
      </trkpt>
      <trkpt lat="48.2741" lon="-2.88089">
        <ele>154.60000610352</ele>
        <time>2020-10-16T14:04:47.000Z</time>
      </trkpt>
      <trkpt lat="48.27411" lon="-2.88086">
        <ele>154.39999389648</ele>
        <time>2020-10-16T14:04:48.000Z</time>
      </trkpt>
      <trkpt lat="48.27412" lon="-2.88081">
        <ele>154.19999694824</ele>
        <time>2020-10-16T14:04:49.000Z</time>
      </trkpt>
      <trkpt lat="48.27413" lon="-2.88077">
        <ele>154</ele>
        <time>2020-10-16T14:04:50.000Z</time>
      </trkpt>
      <trkpt lat="48.27413" lon="-2.88073">
        <ele>153.80000305176</ele>
        <time>2020-10-16T14:04:51.000Z</time>
      </trkpt>
      <trkpt lat="48.27413" lon="-2.88069">
        <ele>153.60000610352</ele>
        <time>2020-10-16T14:04:52.000Z</time>
      </trkpt>
      <trkpt lat="48.27414" lon="-2.88064">
        <ele>153.39999389648</ele>
        <time>2020-10-16T14:04:53.000Z</time>
      </trkpt>
      <trkpt lat="48.27414" lon="-2.88059">
        <ele>153.19999694824</ele>
        <time>2020-10-16T14:04:54.000Z</time>
      </trkpt>
      <trkpt lat="48.27415" lon="-2.88055">
        <ele>153</ele>
        <time>2020-10-16T14:04:55.000Z</time>
      </trkpt>
      <trkpt lat="48.27416" lon="-2.88051">
        <ele>152.80000305176</ele>
        <time>2020-10-16T14:04:56.000Z</time>
      </trkpt>
      <trkpt lat="48.27417" lon="-2.88047">
        <ele>152.60000610352</ele>
        <time>2020-10-16T14:04:57.000Z</time>
      </trkpt>
      <trkpt lat="48.27418" lon="-2.88042">
        <ele>152.39999389648</ele>
        <time>2020-10-16T14:04:58.000Z</time>
      </trkpt>
      <trkpt lat="48.27418" lon="-2.88036">
        <ele>152.19999694824</ele>
        <time>2020-10-16T14:04:59.000Z</time>
      </trkpt>
      <trkpt lat="48.27419" lon="-2.88031">
        <ele>152</ele>
        <time>2020-10-16T14:05:00.000Z</time>
      </trkpt>
      <trkpt lat="48.27421" lon="-2.88026">
        <ele>151.80000305176</ele>
        <time>2020-10-16T14:05:01.000Z</time>
      </trkpt>
      <trkpt lat="48.27423" lon="-2.8802">
        <ele>151.60000610352</ele>
        <time>2020-10-16T14:05:02.000Z</time>
      </trkpt>
      <trkpt lat="48.27425" lon="-2.88015">
        <ele>151.39999389648</ele>
        <time>2020-10-16T14:05:03.000Z</time>
      </trkpt>
      <trkpt lat="48.27428" lon="-2.8801">
        <ele>151.19999694824</ele>
        <time>2020-10-16T14:05:04.000Z</time>
      </trkpt>
      <trkpt lat="48.27435" lon="-2.88">
        <ele>151</ele>
        <time>2020-10-16T14:05:05.000Z</time>
      </trkpt>
      <trkpt lat="48.27435" lon="-2.88">
        <ele>151</ele>
        <time>2020-10-16T14:05:06.000Z</time>
      </trkpt>
      <trkpt lat="48.27439" lon="-2.87996">
        <ele>151</ele>
        <time>2020-10-16T14:05:07.000Z</time>
      </trkpt>
      <trkpt lat="48.27442" lon="-2.87993">
        <ele>151.19999694824</ele>
        <time>2020-10-16T14:05:08.000Z</time>
      </trkpt>
      <trkpt lat="48.27446" lon="-2.87991">
        <ele>151.19999694824</ele>
        <time>2020-10-16T14:05:09.000Z</time>
      </trkpt>
      <trkpt lat="48.2745" lon="-2.87988">
        <ele>151.19999694824</ele>
        <time>2020-10-16T14:05:10.000Z</time>
      </trkpt>
      <trkpt lat="48.27452" lon="-2.87986">
        <ele>151.39999389648</ele>
        <time>2020-10-16T14:05:11.000Z</time>
      </trkpt>
      <trkpt lat="48.27455" lon="-2.87985">
        <ele>151.39999389648</ele>
        <time>2020-10-16T14:05:12.000Z</time>
      </trkpt>
      <trkpt lat="48.27458" lon="-2.87983">
        <ele>151.60000610352</ele>
        <time>2020-10-16T14:05:13.000Z</time>
      </trkpt>
      <trkpt lat="48.2746" lon="-2.87982">
        <ele>151.60000610352</ele>
        <time>2020-10-16T14:05:14.000Z</time>
      </trkpt>
      <trkpt lat="48.27463" lon="-2.8798">
        <ele>151.60000610352</ele>
        <time>2020-10-16T14:05:15.000Z</time>
      </trkpt>
      <trkpt lat="48.27466" lon="-2.8798">
        <ele>151.80000305176</ele>
        <time>2020-10-16T14:05:16.000Z</time>
      </trkpt>
      <trkpt lat="48.27468" lon="-2.87979">
        <ele>151.80000305176</ele>
        <time>2020-10-16T14:05:17.000Z</time>
      </trkpt>
      <trkpt lat="48.27471" lon="-2.87979">
        <ele>152</ele>
        <time>2020-10-16T14:05:18.000Z</time>
      </trkpt>
      <trkpt lat="48.27474" lon="-2.8798">
        <ele>152.19999694824</ele>
        <time>2020-10-16T14:05:19.000Z</time>
      </trkpt>
      <trkpt lat="48.27476" lon="-2.87979">
        <ele>152.19999694824</ele>
        <time>2020-10-16T14:05:20.000Z</time>
      </trkpt>
      <trkpt lat="48.27479" lon="-2.87979">
        <ele>152.39999389648</ele>
        <time>2020-10-16T14:05:21.000Z</time>
      </trkpt>
      <trkpt lat="48.27482" lon="-2.87981">
        <ele>152.60000610352</ele>
        <time>2020-10-16T14:05:22.000Z</time>
      </trkpt>
      <trkpt lat="48.27484" lon="-2.87981">
        <ele>152.80000305176</ele>
        <time>2020-10-16T14:05:23.000Z</time>
      </trkpt>
      <trkpt lat="48.27487" lon="-2.87981">
        <ele>152.80000305176</ele>
        <time>2020-10-16T14:05:24.000Z</time>
      </trkpt>
      <trkpt lat="48.2749" lon="-2.8798">
        <ele>153</ele>
        <time>2020-10-16T14:05:25.000Z</time>
      </trkpt>
      <trkpt lat="48.27493" lon="-2.87978">
        <ele>153</ele>
        <time>2020-10-16T14:05:26.000Z</time>
      </trkpt>
      <trkpt lat="48.27496" lon="-2.87975">
        <ele>153</ele>
        <time>2020-10-16T14:05:27.000Z</time>
      </trkpt>
      <trkpt lat="48.27499" lon="-2.87973">
        <ele>153</ele>
        <time>2020-10-16T14:05:28.000Z</time>
      </trkpt>
      <trkpt lat="48.27501" lon="-2.87969">
        <ele>153</ele>
        <time>2020-10-16T14:05:29.000Z</time>
      </trkpt>
      <trkpt lat="48.27502" lon="-2.87966">
        <ele>153</ele>
        <time>2020-10-16T14:05:30.000Z</time>
      </trkpt>
      <trkpt lat="48.27504" lon="-2.87963">
        <ele>153</ele>
        <time>2020-10-16T14:05:31.000Z</time>
      </trkpt>
      <trkpt lat="48.27506" lon="-2.8796">
        <ele>153</ele>
        <time>2020-10-16T14:05:32.000Z</time>
      </trkpt>
      <trkpt lat="48.27507" lon="-2.87956">
        <ele>153</ele>
        <time>2020-10-16T14:05:33.000Z</time>
      </trkpt>
      <trkpt lat="48.27508" lon="-2.87952">
        <ele>152.80000305176</ele>
        <time>2020-10-16T14:05:34.000Z</time>
      </trkpt>
      <trkpt lat="48.27507" lon="-2.87948">
        <ele>152.60000610352</ele>
        <time>2020-10-16T14:05:35.000Z</time>
      </trkpt>
      <trkpt lat="48.27506" lon="-2.87944">
        <ele>152.39999389648</ele>
        <time>2020-10-16T14:05:36.000Z</time>
      </trkpt>
      <trkpt lat="48.27505" lon="-2.8794">
        <ele>152.19999694824</ele>
        <time>2020-10-16T14:05:37.000Z</time>
      </trkpt>
      <trkpt lat="48.27502" lon="-2.87932">
        <ele>151.80000305176</ele>
        <time>2020-10-16T14:05:38.000Z</time>
      </trkpt>
      <trkpt lat="48.27502" lon="-2.87932">
        <ele>151.80000305176</ele>
        <time>2020-10-16T14:05:39.000Z</time>
      </trkpt>
      <trkpt lat="48.275" lon="-2.87929">
        <ele>151.39999389648</ele>
        <time>2020-10-16T14:05:40.000Z</time>
      </trkpt>
      <trkpt lat="48.27497" lon="-2.87926">
        <ele>151</ele>
        <time>2020-10-16T14:05:41.000Z</time>
      </trkpt>
      <trkpt lat="48.27494" lon="-2.87923">
        <ele>150.39999389648</ele>
        <time>2020-10-16T14:05:42.000Z</time>
      </trkpt>
      <trkpt lat="48.27491" lon="-2.87921">
        <ele>150.19999694824</ele>
        <time>2020-10-16T14:05:43.000Z</time>
      </trkpt>
      <trkpt lat="48.27488" lon="-2.87918">
        <ele>149.80000305176</ele>
        <time>2020-10-16T14:05:44.000Z</time>
      </trkpt>
      <trkpt lat="48.27485" lon="-2.87915">
        <ele>149.39999389648</ele>
        <time>2020-10-16T14:05:45.000Z</time>
      </trkpt>
      <trkpt lat="48.27482" lon="-2.87912">
        <ele>149.19999694824</ele>
        <time>2020-10-16T14:05:46.000Z</time>
      </trkpt>
      <trkpt lat="48.2748" lon="-2.87908">
        <ele>148.80000305176</ele>
        <time>2020-10-16T14:05:47.000Z</time>
      </trkpt>
      <trkpt lat="48.27478" lon="-2.87902">
        <ele>148.60000610352</ele>
        <time>2020-10-16T14:05:48.000Z</time>
      </trkpt>
      <trkpt lat="48.27476" lon="-2.87897">
        <ele>148.19999694824</ele>
        <time>2020-10-16T14:05:49.000Z</time>
      </trkpt>
      <trkpt lat="48.27475" lon="-2.87892">
        <ele>148</ele>
        <time>2020-10-16T14:05:50.000Z</time>
      </trkpt>
      <trkpt lat="48.27474" lon="-2.87885">
        <ele>147.80000305176</ele>
        <time>2020-10-16T14:05:51.000Z</time>
      </trkpt>
      <trkpt lat="48.27474" lon="-2.87879">
        <ele>147.60000610352</ele>
        <time>2020-10-16T14:05:52.000Z</time>
      </trkpt>
      <trkpt lat="48.27473" lon="-2.87872">
        <ele>147.19999694824</ele>
        <time>2020-10-16T14:05:53.000Z</time>
      </trkpt>
      <trkpt lat="48.27473" lon="-2.87865">
        <ele>146.80000305176</ele>
        <time>2020-10-16T14:05:54.000Z</time>
      </trkpt>
      <trkpt lat="48.27474" lon="-2.87858">
        <ele>146.39999389648</ele>
        <time>2020-10-16T14:05:55.000Z</time>
      </trkpt>
      <trkpt lat="48.27474" lon="-2.87852">
        <ele>146</ele>
        <time>2020-10-16T14:05:56.000Z</time>
      </trkpt>
      <trkpt lat="48.27475" lon="-2.87845">
        <ele>145.80000305176</ele>
        <time>2020-10-16T14:05:57.000Z</time>
      </trkpt>
      <trkpt lat="48.27476" lon="-2.87838">
        <ele>145.60000610352</ele>
        <time>2020-10-16T14:05:58.000Z</time>
      </trkpt>
      <trkpt lat="48.27477" lon="-2.87831">
        <ele>145.60000610352</ele>
        <time>2020-10-16T14:05:59.000Z</time>
      </trkpt>
      <trkpt lat="48.27478" lon="-2.87818">
        <ele>145.80000305176</ele>
        <time>2020-10-16T14:06:00.000Z</time>
      </trkpt>
      <trkpt lat="48.27478" lon="-2.87818">
        <ele>145.80000305176</ele>
        <time>2020-10-16T14:06:01.000Z</time>
      </trkpt>
      <trkpt lat="48.27479" lon="-2.87812">
        <ele>145.80000305176</ele>
        <time>2020-10-16T14:06:02.000Z</time>
      </trkpt>
      <trkpt lat="48.27479" lon="-2.87806">
        <ele>146</ele>
        <time>2020-10-16T14:06:03.000Z</time>
      </trkpt>
      <trkpt lat="48.27479" lon="-2.87801">
        <ele>146</ele>
        <time>2020-10-16T14:06:04.000Z</time>
      </trkpt>
      <trkpt lat="48.2748" lon="-2.87795">
        <ele>146</ele>
        <time>2020-10-16T14:06:05.000Z</time>
      </trkpt>
      <trkpt lat="48.27482" lon="-2.87789">
        <ele>146.19999694824</ele>
        <time>2020-10-16T14:06:06.000Z</time>
      </trkpt>
      <trkpt lat="48.27484" lon="-2.87783">
        <ele>146.39999389648</ele>
        <time>2020-10-16T14:06:07.000Z</time>
      </trkpt>
      <trkpt lat="48.27485" lon="-2.87778">
        <ele>146.60000610352</ele>
        <time>2020-10-16T14:06:08.000Z</time>
      </trkpt>
      <trkpt lat="48.27488" lon="-2.87772">
        <ele>146.80000305176</ele>
        <time>2020-10-16T14:06:09.000Z</time>
      </trkpt>
      <trkpt lat="48.2749" lon="-2.87767">
        <ele>147</ele>
        <time>2020-10-16T14:06:10.000Z</time>
      </trkpt>
      <trkpt lat="48.27493" lon="-2.87762">
        <ele>147.19999694824</ele>
        <time>2020-10-16T14:06:11.000Z</time>
      </trkpt>
      <trkpt lat="48.27496" lon="-2.87756">
        <ele>147.39999389648</ele>
        <time>2020-10-16T14:06:12.000Z</time>
      </trkpt>
      <trkpt lat="48.27498" lon="-2.8775">
        <ele>147.60000610352</ele>
        <time>2020-10-16T14:06:13.000Z</time>
      </trkpt>
      <trkpt lat="48.27501" lon="-2.87744">
        <ele>147.60000610352</ele>
        <time>2020-10-16T14:06:14.000Z</time>
      </trkpt>
      <trkpt lat="48.27504" lon="-2.87737">
        <ele>147.80000305176</ele>
        <time>2020-10-16T14:06:15.000Z</time>
      </trkpt>
      <trkpt lat="48.27506" lon="-2.8773">
        <ele>147.80000305176</ele>
        <time>2020-10-16T14:06:16.000Z</time>
      </trkpt>
      <trkpt lat="48.2751" lon="-2.87722">
        <ele>147.80000305176</ele>
        <time>2020-10-16T14:06:17.000Z</time>
      </trkpt>
      <trkpt lat="48.27514" lon="-2.87708">
        <ele>147.80000305176</ele>
        <time>2020-10-16T14:06:18.000Z</time>
      </trkpt>
      <trkpt lat="48.27514" lon="-2.87708">
        <ele>147.80000305176</ele>
        <time>2020-10-16T14:06:19.000Z</time>
      </trkpt>
      <trkpt lat="48.27515" lon="-2.87701">
        <ele>147.60000610352</ele>
        <time>2020-10-16T14:06:20.000Z</time>
      </trkpt>
      <trkpt lat="48.27517" lon="-2.87694">
        <ele>147.60000610352</ele>
        <time>2020-10-16T14:06:21.000Z</time>
      </trkpt>
      <trkpt lat="48.27518" lon="-2.87686">
        <ele>147.39999389648</ele>
        <time>2020-10-16T14:06:22.000Z</time>
      </trkpt>
      <trkpt lat="48.27519" lon="-2.87679">
        <ele>147.19999694824</ele>
        <time>2020-10-16T14:06:23.000Z</time>
      </trkpt>
      <trkpt lat="48.2752" lon="-2.87671">
        <ele>146.80000305176</ele>
        <time>2020-10-16T14:06:24.000Z</time>
      </trkpt>
      <trkpt lat="48.2752" lon="-2.87664">
        <ele>146.80000305176</ele>
        <time>2020-10-16T14:06:25.000Z</time>
      </trkpt>
      <trkpt lat="48.27521" lon="-2.87656">
        <ele>146.60000610352</ele>
        <time>2020-10-16T14:06:26.000Z</time>
      </trkpt>
      <trkpt lat="48.27522" lon="-2.87648">
        <ele>146.39999389648</ele>
        <time>2020-10-16T14:06:27.000Z</time>
      </trkpt>
      <trkpt lat="48.27522" lon="-2.87641">
        <ele>146.19999694824</ele>
        <time>2020-10-16T14:06:28.000Z</time>
      </trkpt>
      <trkpt lat="48.27523" lon="-2.87635">
        <ele>146</ele>
        <time>2020-10-16T14:06:29.000Z</time>
      </trkpt>
      <trkpt lat="48.27523" lon="-2.87628">
        <ele>145.80000305176</ele>
        <time>2020-10-16T14:06:30.000Z</time>
      </trkpt>
      <trkpt lat="48.27523" lon="-2.8762">
        <ele>145.60000610352</ele>
        <time>2020-10-16T14:06:31.000Z</time>
      </trkpt>
      <trkpt lat="48.27524" lon="-2.87614">
        <ele>145.39999389648</ele>
        <time>2020-10-16T14:06:32.000Z</time>
      </trkpt>
      <trkpt lat="48.27525" lon="-2.87607">
        <ele>145.39999389648</ele>
        <time>2020-10-16T14:06:33.000Z</time>
      </trkpt>
      <trkpt lat="48.27525" lon="-2.876">
        <ele>145.19999694824</ele>
        <time>2020-10-16T14:06:34.000Z</time>
      </trkpt>
      <trkpt lat="48.27526" lon="-2.87594">
        <ele>145</ele>
        <time>2020-10-16T14:06:35.000Z</time>
      </trkpt>
      <trkpt lat="48.27527" lon="-2.87587">
        <ele>145</ele>
        <time>2020-10-16T14:06:36.000Z</time>
      </trkpt>
      <trkpt lat="48.27528" lon="-2.8758">
        <ele>144.80000305176</ele>
        <time>2020-10-16T14:06:37.000Z</time>
      </trkpt>
      <trkpt lat="48.2753" lon="-2.87566">
        <ele>144.80000305176</ele>
        <time>2020-10-16T14:06:38.000Z</time>
      </trkpt>
      <trkpt lat="48.2753" lon="-2.87566">
        <ele>144.80000305176</ele>
        <time>2020-10-16T14:06:39.000Z</time>
      </trkpt>
      <trkpt lat="48.27531" lon="-2.8756">
        <ele>144.80000305176</ele>
        <time>2020-10-16T14:06:40.000Z</time>
      </trkpt>
      <trkpt lat="48.27533" lon="-2.87554">
        <ele>144.80000305176</ele>
        <time>2020-10-16T14:06:41.000Z</time>
      </trkpt>
      <trkpt lat="48.27534" lon="-2.87548">
        <ele>144.80000305176</ele>
        <time>2020-10-16T14:06:42.000Z</time>
      </trkpt>
      <trkpt lat="48.27536" lon="-2.87541">
        <ele>144.80000305176</ele>
        <time>2020-10-16T14:06:43.000Z</time>
      </trkpt>
      <trkpt lat="48.27538" lon="-2.87535">
        <ele>145</ele>
        <time>2020-10-16T14:06:44.000Z</time>
      </trkpt>
      <trkpt lat="48.27539" lon="-2.87528">
        <ele>145</ele>
        <time>2020-10-16T14:06:45.000Z</time>
      </trkpt>
      <trkpt lat="48.27541" lon="-2.87522">
        <ele>145</ele>
        <time>2020-10-16T14:06:46.000Z</time>
      </trkpt>
      <trkpt lat="48.27543" lon="-2.87516">
        <ele>145</ele>
        <time>2020-10-16T14:06:47.000Z</time>
      </trkpt>
      <trkpt lat="48.27544" lon="-2.8751">
        <ele>145</ele>
        <time>2020-10-16T14:06:48.000Z</time>
      </trkpt>
      <trkpt lat="48.27546" lon="-2.87504">
        <ele>145</ele>
        <time>2020-10-16T14:06:49.000Z</time>
      </trkpt>
      <trkpt lat="48.27547" lon="-2.87497">
        <ele>145.19999694824</ele>
        <time>2020-10-16T14:06:50.000Z</time>
      </trkpt>
      <trkpt lat="48.27548" lon="-2.87491">
        <ele>145.19999694824</ele>
        <time>2020-10-16T14:06:51.000Z</time>
      </trkpt>
      <trkpt lat="48.27548" lon="-2.87485">
        <ele>145.19999694824</ele>
        <time>2020-10-16T14:06:52.000Z</time>
      </trkpt>
      <trkpt lat="48.27547" lon="-2.87479">
        <ele>145</ele>
        <time>2020-10-16T14:06:53.000Z</time>
      </trkpt>
      <trkpt lat="48.27547" lon="-2.87473">
        <ele>144.80000305176</ele>
        <time>2020-10-16T14:06:54.000Z</time>
      </trkpt>
      <trkpt lat="48.27546" lon="-2.87468">
        <ele>144.80000305176</ele>
        <time>2020-10-16T14:06:55.000Z</time>
      </trkpt>
      <trkpt lat="48.27545" lon="-2.87462">
        <ele>144.60000610352</ele>
        <time>2020-10-16T14:06:56.000Z</time>
      </trkpt>
      <trkpt lat="48.27544" lon="-2.87457">
        <ele>144.60000610352</ele>
        <time>2020-10-16T14:06:57.000Z</time>
      </trkpt>
      <trkpt lat="48.27543" lon="-2.87451">
        <ele>144.39999389648</ele>
        <time>2020-10-16T14:06:58.000Z</time>
      </trkpt>
      <trkpt lat="48.27543" lon="-2.87445">
        <ele>144.19999694824</ele>
        <time>2020-10-16T14:06:59.000Z</time>
      </trkpt>
      <trkpt lat="48.27542" lon="-2.87439">
        <ele>144.19999694824</ele>
        <time>2020-10-16T14:07:00.000Z</time>
      </trkpt>
      <trkpt lat="48.27541" lon="-2.87433">
        <ele>144</ele>
        <time>2020-10-16T14:07:01.000Z</time>
      </trkpt>
      <trkpt lat="48.2754" lon="-2.87427">
        <ele>143.80000305176</ele>
        <time>2020-10-16T14:07:02.000Z</time>
      </trkpt>
      <trkpt lat="48.27538" lon="-2.87416">
        <ele>143.60000610352</ele>
        <time>2020-10-16T14:07:03.000Z</time>
      </trkpt>
      <trkpt lat="48.27538" lon="-2.87416">
        <ele>143.60000610352</ele>
        <time>2020-10-16T14:07:04.000Z</time>
      </trkpt>
      <trkpt lat="48.27537" lon="-2.8741">
        <ele>143.60000610352</ele>
        <time>2020-10-16T14:07:05.000Z</time>
      </trkpt>
      <trkpt lat="48.27536" lon="-2.87404">
        <ele>143.60000610352</ele>
        <time>2020-10-16T14:07:06.000Z</time>
      </trkpt>
      <trkpt lat="48.27535" lon="-2.87399">
        <ele>143.60000610352</ele>
        <time>2020-10-16T14:07:07.000Z</time>
      </trkpt>
      <trkpt lat="48.27534" lon="-2.87393">
        <ele>143.39999389648</ele>
        <time>2020-10-16T14:07:08.000Z</time>
      </trkpt>
      <trkpt lat="48.27534" lon="-2.87387">
        <ele>143.39999389648</ele>
        <time>2020-10-16T14:07:09.000Z</time>
      </trkpt>
      <trkpt lat="48.27533" lon="-2.87382">
        <ele>143.39999389648</ele>
        <time>2020-10-16T14:07:10.000Z</time>
      </trkpt>
      <trkpt lat="48.27533" lon="-2.87375">
        <ele>143.39999389648</ele>
        <time>2020-10-16T14:07:11.000Z</time>
      </trkpt>
      <trkpt lat="48.27532" lon="-2.87369">
        <ele>143.39999389648</ele>
        <time>2020-10-16T14:07:12.000Z</time>
      </trkpt>
      <trkpt lat="48.27532" lon="-2.87363">
        <ele>143.39999389648</ele>
        <time>2020-10-16T14:07:13.000Z</time>
      </trkpt>
      <trkpt lat="48.27532" lon="-2.87356">
        <ele>143.39999389648</ele>
        <time>2020-10-16T14:07:14.000Z</time>
      </trkpt>
      <trkpt lat="48.27531" lon="-2.8735">
        <ele>143.39999389648</ele>
        <time>2020-10-16T14:07:15.000Z</time>
      </trkpt>
      <trkpt lat="48.27531" lon="-2.87343">
        <ele>143.60000610352</ele>
        <time>2020-10-16T14:07:16.000Z</time>
      </trkpt>
      <trkpt lat="48.2753" lon="-2.8733">
        <ele>143.39999389648</ele>
        <time>2020-10-16T14:07:17.000Z</time>
      </trkpt>
      <trkpt lat="48.2753" lon="-2.8733">
        <ele>143.39999389648</ele>
        <time>2020-10-16T14:07:18.000Z</time>
      </trkpt>
      <trkpt lat="48.2753" lon="-2.87324">
        <ele>143.39999389648</ele>
        <time>2020-10-16T14:07:19.000Z</time>
      </trkpt>
      <trkpt lat="48.27529" lon="-2.87318">
        <ele>143.39999389648</ele>
        <time>2020-10-16T14:07:20.000Z</time>
      </trkpt>
      <trkpt lat="48.2753" lon="-2.87312">
        <ele>143.60000610352</ele>
        <time>2020-10-16T14:07:21.000Z</time>
      </trkpt>
      <trkpt lat="48.2753" lon="-2.87305">
        <ele>143.60000610352</ele>
        <time>2020-10-16T14:07:22.000Z</time>
      </trkpt>
      <trkpt lat="48.2753" lon="-2.87298">
        <ele>143.80000305176</ele>
        <time>2020-10-16T14:07:23.000Z</time>
      </trkpt>
      <trkpt lat="48.27531" lon="-2.87291">
        <ele>144</ele>
        <time>2020-10-16T14:07:24.000Z</time>
      </trkpt>
      <trkpt lat="48.27531" lon="-2.87284">
        <ele>144</ele>
        <time>2020-10-16T14:07:25.000Z</time>
      </trkpt>
      <trkpt lat="48.27532" lon="-2.87277">
        <ele>144.19999694824</ele>
        <time>2020-10-16T14:07:26.000Z</time>
      </trkpt>
      <trkpt lat="48.27532" lon="-2.87269">
        <ele>144.39999389648</ele>
        <time>2020-10-16T14:07:27.000Z</time>
      </trkpt>
      <trkpt lat="48.27531" lon="-2.87262">
        <ele>144.39999389648</ele>
        <time>2020-10-16T14:07:28.000Z</time>
      </trkpt>
      <trkpt lat="48.27531" lon="-2.87255">
        <ele>144.39999389648</ele>
        <time>2020-10-16T14:07:29.000Z</time>
      </trkpt>
      <trkpt lat="48.2753" lon="-2.87248">
        <ele>144.19999694824</ele>
        <time>2020-10-16T14:07:30.000Z</time>
      </trkpt>
      <trkpt lat="48.27529" lon="-2.87241">
        <ele>144.19999694824</ele>
        <time>2020-10-16T14:07:31.000Z</time>
      </trkpt>
      <trkpt lat="48.27528" lon="-2.87234">
        <ele>144.19999694824</ele>
        <time>2020-10-16T14:07:32.000Z</time>
      </trkpt>
      <trkpt lat="48.27527" lon="-2.87227">
        <ele>144.19999694824</ele>
        <time>2020-10-16T14:07:33.000Z</time>
      </trkpt>
      <trkpt lat="48.27525" lon="-2.8722">
        <ele>144.19999694824</ele>
        <time>2020-10-16T14:07:34.000Z</time>
      </trkpt>
      <trkpt lat="48.27524" lon="-2.87214">
        <ele>144.19999694824</ele>
        <time>2020-10-16T14:07:35.000Z</time>
      </trkpt>
      <trkpt lat="48.27523" lon="-2.87207">
        <ele>144.19999694824</ele>
        <time>2020-10-16T14:07:36.000Z</time>
      </trkpt>
      <trkpt lat="48.27522" lon="-2.872">
        <ele>144.19999694824</ele>
        <time>2020-10-16T14:07:37.000Z</time>
      </trkpt>
      <trkpt lat="48.2752" lon="-2.87193">
        <ele>144.39999389648</ele>
        <time>2020-10-16T14:07:38.000Z</time>
      </trkpt>
      <trkpt lat="48.27519" lon="-2.87186">
        <ele>144.39999389648</ele>
        <time>2020-10-16T14:07:39.000Z</time>
      </trkpt>
      <trkpt lat="48.27518" lon="-2.87179">
        <ele>144.39999389648</ele>
        <time>2020-10-16T14:07:40.000Z</time>
      </trkpt>
      <trkpt lat="48.27516" lon="-2.87172">
        <ele>144.39999389648</ele>
        <time>2020-10-16T14:07:41.000Z</time>
      </trkpt>
      <trkpt lat="48.27515" lon="-2.87165">
        <ele>144.39999389648</ele>
        <time>2020-10-16T14:07:42.000Z</time>
      </trkpt>
      <trkpt lat="48.27514" lon="-2.87158">
        <ele>144.39999389648</ele>
        <time>2020-10-16T14:07:43.000Z</time>
      </trkpt>
      <trkpt lat="48.27512" lon="-2.87151">
        <ele>144.39999389648</ele>
        <time>2020-10-16T14:07:44.000Z</time>
      </trkpt>
      <trkpt lat="48.27511" lon="-2.87144">
        <ele>144.39999389648</ele>
        <time>2020-10-16T14:07:45.000Z</time>
      </trkpt>
      <trkpt lat="48.2751" lon="-2.87137">
        <ele>144.39999389648</ele>
        <time>2020-10-16T14:07:46.000Z</time>
      </trkpt>
      <trkpt lat="48.27509" lon="-2.8713">
        <ele>144.39999389648</ele>
        <time>2020-10-16T14:07:47.000Z</time>
      </trkpt>
      <trkpt lat="48.27508" lon="-2.87123">
        <ele>144.39999389648</ele>
        <time>2020-10-16T14:07:48.000Z</time>
      </trkpt>
      <trkpt lat="48.27506" lon="-2.87115">
        <ele>144.19999694824</ele>
        <time>2020-10-16T14:07:49.000Z</time>
      </trkpt>
      <trkpt lat="48.27505" lon="-2.87108">
        <ele>144.39999389648</ele>
        <time>2020-10-16T14:07:50.000Z</time>
      </trkpt>
      <trkpt lat="48.27504" lon="-2.87101">
        <ele>144.19999694824</ele>
        <time>2020-10-16T14:07:51.000Z</time>
      </trkpt>
      <trkpt lat="48.27503" lon="-2.87093">
        <ele>144.19999694824</ele>
        <time>2020-10-16T14:07:52.000Z</time>
      </trkpt>
      <trkpt lat="48.27502" lon="-2.87087">
        <ele>144.19999694824</ele>
        <time>2020-10-16T14:07:53.000Z</time>
      </trkpt>
      <trkpt lat="48.27501" lon="-2.8708">
        <ele>144</ele>
        <time>2020-10-16T14:07:54.000Z</time>
      </trkpt>
      <trkpt lat="48.27501" lon="-2.87075">
        <ele>144</ele>
        <time>2020-10-16T14:07:55.000Z</time>
      </trkpt>
      <trkpt lat="48.27501" lon="-2.8707">
        <ele>144</ele>
        <time>2020-10-16T14:07:56.000Z</time>
      </trkpt>
      <trkpt lat="48.27501" lon="-2.87065">
        <ele>144</ele>
        <time>2020-10-16T14:07:57.000Z</time>
      </trkpt>
      <trkpt lat="48.27501" lon="-2.8706">
        <ele>144</ele>
        <time>2020-10-16T14:07:58.000Z</time>
      </trkpt>
      <trkpt lat="48.27501" lon="-2.87056">
        <ele>144</ele>
        <time>2020-10-16T14:07:59.000Z</time>
      </trkpt>
      <trkpt lat="48.27501" lon="-2.87047">
        <ele>144</ele>
        <time>2020-10-16T14:08:00.000Z</time>
      </trkpt>
      <trkpt lat="48.27501" lon="-2.87047">
        <ele>144</ele>
        <time>2020-10-16T14:08:01.000Z</time>
      </trkpt>
      <trkpt lat="48.27501" lon="-2.87043">
        <ele>144</ele>
        <time>2020-10-16T14:08:02.000Z</time>
      </trkpt>
      <trkpt lat="48.27502" lon="-2.87038">
        <ele>144</ele>
        <time>2020-10-16T14:08:03.000Z</time>
      </trkpt>
      <trkpt lat="48.27502" lon="-2.87029">
        <ele>144</ele>
        <time>2020-10-16T14:08:04.000Z</time>
      </trkpt>
      <trkpt lat="48.27502" lon="-2.87029">
        <ele>144</ele>
        <time>2020-10-16T14:08:05.000Z</time>
      </trkpt>
      <trkpt lat="48.27502" lon="-2.87025">
        <ele>144</ele>
        <time>2020-10-16T14:08:06.000Z</time>
      </trkpt>
      <trkpt lat="48.27501" lon="-2.87021">
        <ele>144</ele>
        <time>2020-10-16T14:08:07.000Z</time>
      </trkpt>
      <trkpt lat="48.27501" lon="-2.87017">
        <ele>144</ele>
        <time>2020-10-16T14:08:08.000Z</time>
      </trkpt>
      <trkpt lat="48.27501" lon="-2.87013">
        <ele>144</ele>
        <time>2020-10-16T14:08:09.000Z</time>
      </trkpt>
      <trkpt lat="48.27501" lon="-2.87009">
        <ele>144.19999694824</ele>
        <time>2020-10-16T14:08:10.000Z</time>
      </trkpt>
      <trkpt lat="48.27501" lon="-2.87004">
        <ele>144.19999694824</ele>
        <time>2020-10-16T14:08:11.000Z</time>
      </trkpt>
      <trkpt lat="48.27501" lon="-2.87">
        <ele>144.19999694824</ele>
        <time>2020-10-16T14:08:12.000Z</time>
      </trkpt>
      <trkpt lat="48.27501" lon="-2.86996">
        <ele>144.19999694824</ele>
        <time>2020-10-16T14:08:13.000Z</time>
      </trkpt>
      <trkpt lat="48.275" lon="-2.86991">
        <ele>144.19999694824</ele>
        <time>2020-10-16T14:08:14.000Z</time>
      </trkpt>
      <trkpt lat="48.275" lon="-2.86986">
        <ele>144.19999694824</ele>
        <time>2020-10-16T14:08:15.000Z</time>
      </trkpt>
      <trkpt lat="48.275" lon="-2.86977">
        <ele>144.39999389648</ele>
        <time>2020-10-16T14:08:16.000Z</time>
      </trkpt>
      <trkpt lat="48.275" lon="-2.86977">
        <ele>144.39999389648</ele>
        <time>2020-10-16T14:08:17.000Z</time>
      </trkpt>
      <trkpt lat="48.27501" lon="-2.86972">
        <ele>144.60000610352</ele>
        <time>2020-10-16T14:08:18.000Z</time>
      </trkpt>
      <trkpt lat="48.27501" lon="-2.86966">
        <ele>144.60000610352</ele>
        <time>2020-10-16T14:08:19.000Z</time>
      </trkpt>
      <trkpt lat="48.27502" lon="-2.86961">
        <ele>144.80000305176</ele>
        <time>2020-10-16T14:08:20.000Z</time>
      </trkpt>
      <trkpt lat="48.27503" lon="-2.86957">
        <ele>145</ele>
        <time>2020-10-16T14:08:21.000Z</time>
      </trkpt>
      <trkpt lat="48.27503" lon="-2.86952">
        <ele>145</ele>
        <time>2020-10-16T14:08:22.000Z</time>
      </trkpt>
      <trkpt lat="48.27504" lon="-2.86948">
        <ele>145.39999389648</ele>
        <time>2020-10-16T14:08:23.000Z</time>
      </trkpt>
      <trkpt lat="48.27505" lon="-2.86944">
        <ele>145.60000610352</ele>
        <time>2020-10-16T14:08:24.000Z</time>
      </trkpt>
      <trkpt lat="48.27506" lon="-2.8694">
        <ele>145.80000305176</ele>
        <time>2020-10-16T14:08:25.000Z</time>
      </trkpt>
      <trkpt lat="48.27507" lon="-2.86936">
        <ele>145.80000305176</ele>
        <time>2020-10-16T14:08:26.000Z</time>
      </trkpt>
      <trkpt lat="48.27507" lon="-2.86933">
        <ele>146</ele>
        <time>2020-10-16T14:08:27.000Z</time>
      </trkpt>
      <trkpt lat="48.27508" lon="-2.86929">
        <ele>146.19999694824</ele>
        <time>2020-10-16T14:08:28.000Z</time>
      </trkpt>
      <trkpt lat="48.27508" lon="-2.86925">
        <ele>146.19999694824</ele>
        <time>2020-10-16T14:08:29.000Z</time>
      </trkpt>
      <trkpt lat="48.2751" lon="-2.86921">
        <ele>146.39999389648</ele>
        <time>2020-10-16T14:08:30.000Z</time>
      </trkpt>
      <trkpt lat="48.27512" lon="-2.86914">
        <ele>146.60000610352</ele>
        <time>2020-10-16T14:08:31.000Z</time>
      </trkpt>
      <trkpt lat="48.27512" lon="-2.86914">
        <ele>146.60000610352</ele>
        <time>2020-10-16T14:08:32.000Z</time>
      </trkpt>
      <trkpt lat="48.27514" lon="-2.86909">
        <ele>146.60000610352</ele>
        <time>2020-10-16T14:08:33.000Z</time>
      </trkpt>
      <trkpt lat="48.27515" lon="-2.86905">
        <ele>146.39999389648</ele>
        <time>2020-10-16T14:08:34.000Z</time>
      </trkpt>
      <trkpt lat="48.27515" lon="-2.86901">
        <ele>146.19999694824</ele>
        <time>2020-10-16T14:08:35.000Z</time>
      </trkpt>
      <trkpt lat="48.27516" lon="-2.86896">
        <ele>146</ele>
        <time>2020-10-16T14:08:36.000Z</time>
      </trkpt>
      <trkpt lat="48.27516" lon="-2.86892">
        <ele>145.80000305176</ele>
        <time>2020-10-16T14:08:37.000Z</time>
      </trkpt>
      <trkpt lat="48.27517" lon="-2.86888">
        <ele>145.60000610352</ele>
        <time>2020-10-16T14:08:38.000Z</time>
      </trkpt>
      <trkpt lat="48.27518" lon="-2.86884">
        <ele>145.39999389648</ele>
        <time>2020-10-16T14:08:39.000Z</time>
      </trkpt>
      <trkpt lat="48.27518" lon="-2.86879">
        <ele>145.39999389648</ele>
        <time>2020-10-16T14:08:40.000Z</time>
      </trkpt>
      <trkpt lat="48.27518" lon="-2.86875">
        <ele>145.19999694824</ele>
        <time>2020-10-16T14:08:41.000Z</time>
      </trkpt>
      <trkpt lat="48.27518" lon="-2.86871">
        <ele>145</ele>
        <time>2020-10-16T14:08:42.000Z</time>
      </trkpt>
      <trkpt lat="48.27518" lon="-2.86866">
        <ele>144.80000305176</ele>
        <time>2020-10-16T14:08:43.000Z</time>
      </trkpt>
      <trkpt lat="48.27519" lon="-2.86861">
        <ele>144.60000610352</ele>
        <time>2020-10-16T14:08:44.000Z</time>
      </trkpt>
      <trkpt lat="48.2752" lon="-2.86856">
        <ele>144.39999389648</ele>
        <time>2020-10-16T14:08:45.000Z</time>
      </trkpt>
      <trkpt lat="48.27521" lon="-2.86851">
        <ele>144.19999694824</ele>
        <time>2020-10-16T14:08:46.000Z</time>
      </trkpt>
      <trkpt lat="48.27523" lon="-2.86847">
        <ele>144</ele>
        <time>2020-10-16T14:08:47.000Z</time>
      </trkpt>
      <trkpt lat="48.27526" lon="-2.86843">
        <ele>143.80000305176</ele>
        <time>2020-10-16T14:08:48.000Z</time>
      </trkpt>
      <trkpt lat="48.27528" lon="-2.86841">
        <ele>143.60000610352</ele>
        <time>2020-10-16T14:08:49.000Z</time>
      </trkpt>
      <trkpt lat="48.27531" lon="-2.86839">
        <ele>143.60000610352</ele>
        <time>2020-10-16T14:08:50.000Z</time>
      </trkpt>
      <trkpt lat="48.27534" lon="-2.86838">
        <ele>143.39999389648</ele>
        <time>2020-10-16T14:08:51.000Z</time>
      </trkpt>
      <trkpt lat="48.27536" lon="-2.86837">
        <ele>143.19999694824</ele>
        <time>2020-10-16T14:08:52.000Z</time>
      </trkpt>
      <trkpt lat="48.27538" lon="-2.86837">
        <ele>143</ele>
        <time>2020-10-16T14:08:53.000Z</time>
      </trkpt>
      <trkpt lat="48.2754" lon="-2.86837">
        <ele>143</ele>
        <time>2020-10-16T14:08:54.000Z</time>
      </trkpt>
      <trkpt lat="48.27541" lon="-2.86837">
        <ele>143</ele>
        <time>2020-10-16T14:08:55.000Z</time>
      </trkpt>
      <trkpt lat="48.27542" lon="-2.86838">
        <ele>143.19999694824</ele>
        <time>2020-10-16T14:08:56.000Z</time>
      </trkpt>
      <trkpt lat="48.27543" lon="-2.86838">
        <ele>143.19999694824</ele>
        <time>2020-10-16T14:08:57.000Z</time>
      </trkpt>
      <trkpt lat="48.27544" lon="-2.8684">
        <ele>143.19999694824</ele>
        <time>2020-10-16T14:08:58.000Z</time>
      </trkpt>
      <trkpt lat="48.27545" lon="-2.86841">
        <ele>143.19999694824</ele>
        <time>2020-10-16T14:08:59.000Z</time>
      </trkpt>
      <trkpt lat="48.27547" lon="-2.86842">
        <ele>143.19999694824</ele>
        <time>2020-10-16T14:09:00.000Z</time>
      </trkpt>
      <trkpt lat="48.27548" lon="-2.86842">
        <ele>143.19999694824</ele>
        <time>2020-10-16T14:09:01.000Z</time>
      </trkpt>
      <trkpt lat="48.27549" lon="-2.86844">
        <ele>143.19999694824</ele>
        <time>2020-10-16T14:09:02.000Z</time>
      </trkpt>
      <trkpt lat="48.2755" lon="-2.86845">
        <ele>143.19999694824</ele>
        <time>2020-10-16T14:09:03.000Z</time>
      </trkpt>
      <trkpt lat="48.27553" lon="-2.86847">
        <ele>143.39999389648</ele>
        <time>2020-10-16T14:09:04.000Z</time>
      </trkpt>
      <trkpt lat="48.27553" lon="-2.86847">
        <ele>143.39999389648</ele>
        <time>2020-10-16T14:09:05.000Z</time>
      </trkpt>
      <trkpt lat="48.27554" lon="-2.86849">
        <ele>143.39999389648</ele>
        <time>2020-10-16T14:09:06.000Z</time>
      </trkpt>
      <trkpt lat="48.27556" lon="-2.8685">
        <ele>143.39999389648</ele>
        <time>2020-10-16T14:09:07.000Z</time>
      </trkpt>
      <trkpt lat="48.27557" lon="-2.86852">
        <ele>143.39999389648</ele>
        <time>2020-10-16T14:09:08.000Z</time>
      </trkpt>
      <trkpt lat="48.27559" lon="-2.86854">
        <ele>143.39999389648</ele>
        <time>2020-10-16T14:09:09.000Z</time>
      </trkpt>
      <trkpt lat="48.27561" lon="-2.86857">
        <ele>143.39999389648</ele>
        <time>2020-10-16T14:09:10.000Z</time>
      </trkpt>
      <trkpt lat="48.27563" lon="-2.8686">
        <ele>143.60000610352</ele>
        <time>2020-10-16T14:09:11.000Z</time>
      </trkpt>
      <trkpt lat="48.27565" lon="-2.86862">
        <ele>143.60000610352</ele>
        <time>2020-10-16T14:09:12.000Z</time>
      </trkpt>
      <trkpt lat="48.27567" lon="-2.86864">
        <ele>143.60000610352</ele>
        <time>2020-10-16T14:09:13.000Z</time>
      </trkpt>
      <trkpt lat="48.27569" lon="-2.86867">
        <ele>143.60000610352</ele>
        <time>2020-10-16T14:09:14.000Z</time>
      </trkpt>
      <trkpt lat="48.27573" lon="-2.86876">
        <ele>144.39999389648</ele>
        <time>2020-10-16T14:09:15.000Z</time>
      </trkpt>
      <trkpt lat="48.27573" lon="-2.86876">
        <ele>144.39999389648</ele>
        <time>2020-10-16T14:09:16.000Z</time>
      </trkpt>
      <trkpt lat="48.27575" lon="-2.8688">
        <ele>144.60000610352</ele>
        <time>2020-10-16T14:09:17.000Z</time>
      </trkpt>
      <trkpt lat="48.27578" lon="-2.86886">
        <ele>145.19999694824</ele>
        <time>2020-10-16T14:09:18.000Z</time>
      </trkpt>
      <trkpt lat="48.2758" lon="-2.86891">
        <ele>145.60000610352</ele>
        <time>2020-10-16T14:09:19.000Z</time>
      </trkpt>
      <trkpt lat="48.27582" lon="-2.86897">
        <ele>146</ele>
        <time>2020-10-16T14:09:20.000Z</time>
      </trkpt>
      <trkpt lat="48.27584" lon="-2.86902">
        <ele>146.39999389648</ele>
        <time>2020-10-16T14:09:21.000Z</time>
      </trkpt>
      <trkpt lat="48.27585" lon="-2.86907">
        <ele>146.80000305176</ele>
        <time>2020-10-16T14:09:22.000Z</time>
      </trkpt>
      <trkpt lat="48.27587" lon="-2.86914">
        <ele>147.19999694824</ele>
        <time>2020-10-16T14:09:23.000Z</time>
      </trkpt>
      <trkpt lat="48.27589" lon="-2.86919">
        <ele>147.60000610352</ele>
        <time>2020-10-16T14:09:24.000Z</time>
      </trkpt>
      <trkpt lat="48.2759" lon="-2.86925">
        <ele>148</ele>
        <time>2020-10-16T14:09:25.000Z</time>
      </trkpt>
      <trkpt lat="48.27591" lon="-2.86929">
        <ele>148</ele>
        <time>2020-10-16T14:09:26.000Z</time>
      </trkpt>
      <trkpt lat="48.27592" lon="-2.86934">
        <ele>148.19999694824</ele>
        <time>2020-10-16T14:09:27.000Z</time>
      </trkpt>
      <trkpt lat="48.27593" lon="-2.86938">
        <ele>148.60000610352</ele>
        <time>2020-10-16T14:09:28.000Z</time>
      </trkpt>
      <trkpt lat="48.27594" lon="-2.86942">
        <ele>148.80000305176</ele>
        <time>2020-10-16T14:09:29.000Z</time>
      </trkpt>
      <trkpt lat="48.27595" lon="-2.86946">
        <ele>149</ele>
        <time>2020-10-16T14:09:30.000Z</time>
      </trkpt>
      <trkpt lat="48.27596" lon="-2.86951">
        <ele>149.19999694824</ele>
        <time>2020-10-16T14:09:31.000Z</time>
      </trkpt>
      <trkpt lat="48.27597" lon="-2.86955">
        <ele>149.39999389648</ele>
        <time>2020-10-16T14:09:32.000Z</time>
      </trkpt>
      <trkpt lat="48.27599" lon="-2.86959">
        <ele>149.39999389648</ele>
        <time>2020-10-16T14:09:33.000Z</time>
      </trkpt>
      <trkpt lat="48.27601" lon="-2.86963">
        <ele>149.19999694824</ele>
        <time>2020-10-16T14:09:34.000Z</time>
      </trkpt>
      <trkpt lat="48.27607" lon="-2.86971">
        <ele>148.80000305176</ele>
        <time>2020-10-16T14:09:35.000Z</time>
      </trkpt>
      <trkpt lat="48.27607" lon="-2.86971">
        <ele>148.80000305176</ele>
        <time>2020-10-16T14:09:36.000Z</time>
      </trkpt>
      <trkpt lat="48.2761" lon="-2.86974">
        <ele>148.39999389648</ele>
        <time>2020-10-16T14:09:37.000Z</time>
      </trkpt>
      <trkpt lat="48.27613" lon="-2.86977">
        <ele>148</ele>
        <time>2020-10-16T14:09:38.000Z</time>
      </trkpt>
      <trkpt lat="48.27617" lon="-2.8698">
        <ele>147.60000610352</ele>
        <time>2020-10-16T14:09:39.000Z</time>
      </trkpt>
      <trkpt lat="48.2762" lon="-2.86982">
        <ele>147.19999694824</ele>
        <time>2020-10-16T14:09:40.000Z</time>
      </trkpt>
      <trkpt lat="48.27623" lon="-2.86985">
        <ele>147.39999389648</ele>
        <time>2020-10-16T14:09:41.000Z</time>
      </trkpt>
      <trkpt lat="48.27626" lon="-2.86987">
        <ele>147.60000610352</ele>
        <time>2020-10-16T14:09:42.000Z</time>
      </trkpt>
      <trkpt lat="48.27629" lon="-2.8699">
        <ele>147.80000305176</ele>
        <time>2020-10-16T14:09:43.000Z</time>
      </trkpt>
      <trkpt lat="48.27631" lon="-2.86994">
        <ele>148.19999694824</ele>
        <time>2020-10-16T14:09:44.000Z</time>
      </trkpt>
      <trkpt lat="48.27634" lon="-2.86997">
        <ele>148.39999389648</ele>
        <time>2020-10-16T14:09:45.000Z</time>
      </trkpt>
      <trkpt lat="48.27636" lon="-2.87001">
        <ele>148.80000305176</ele>
        <time>2020-10-16T14:09:46.000Z</time>
      </trkpt>
      <trkpt lat="48.27639" lon="-2.87004">
        <ele>149</ele>
        <time>2020-10-16T14:09:47.000Z</time>
      </trkpt>
      <trkpt lat="48.27642" lon="-2.87007">
        <ele>149.19999694824</ele>
        <time>2020-10-16T14:09:48.000Z</time>
      </trkpt>
      <trkpt lat="48.27644" lon="-2.8701">
        <ele>149.19999694824</ele>
        <time>2020-10-16T14:09:49.000Z</time>
      </trkpt>
      <trkpt lat="48.27647" lon="-2.87014">
        <ele>149</ele>
        <time>2020-10-16T14:09:50.000Z</time>
      </trkpt>
      <trkpt lat="48.27649" lon="-2.87017">
        <ele>148.80000305176</ele>
        <time>2020-10-16T14:09:51.000Z</time>
      </trkpt>
      <trkpt lat="48.27652" lon="-2.8702">
        <ele>148.60000610352</ele>
        <time>2020-10-16T14:09:52.000Z</time>
      </trkpt>
      <trkpt lat="48.27655" lon="-2.87024">
        <ele>148.39999389648</ele>
        <time>2020-10-16T14:09:53.000Z</time>
      </trkpt>
      <trkpt lat="48.27658" lon="-2.87028">
        <ele>148.39999389648</ele>
        <time>2020-10-16T14:09:54.000Z</time>
      </trkpt>
      <trkpt lat="48.27661" lon="-2.87032">
        <ele>148.60000610352</ele>
        <time>2020-10-16T14:09:55.000Z</time>
      </trkpt>
      <trkpt lat="48.27664" lon="-2.87036">
        <ele>148.80000305176</ele>
        <time>2020-10-16T14:09:56.000Z</time>
      </trkpt>
      <trkpt lat="48.27667" lon="-2.8704">
        <ele>149</ele>
        <time>2020-10-16T14:09:57.000Z</time>
      </trkpt>
      <trkpt lat="48.2767" lon="-2.87043">
        <ele>149.19999694824</ele>
        <time>2020-10-16T14:09:58.000Z</time>
      </trkpt>
      <trkpt lat="48.27672" lon="-2.87045">
        <ele>149.39999389648</ele>
        <time>2020-10-16T14:09:59.000Z</time>
      </trkpt>
      <trkpt lat="48.27676" lon="-2.8705">
        <ele>149.60000610352</ele>
        <time>2020-10-16T14:10:00.000Z</time>
      </trkpt>
      <trkpt lat="48.27676" lon="-2.8705">
        <ele>149.60000610352</ele>
        <time>2020-10-16T14:10:01.000Z</time>
      </trkpt>
      <trkpt lat="48.27679" lon="-2.87053">
        <ele>149.80000305176</ele>
        <time>2020-10-16T14:10:02.000Z</time>
      </trkpt>
      <trkpt lat="48.27679" lon="-2.87053">
        <ele>149.80000305176</ele>
        <time>2020-10-16T14:10:03.000Z</time>
      </trkpt>
      <trkpt lat="48.2768" lon="-2.87054">
        <ele>149.80000305176</ele>
        <time>2020-10-16T14:10:04.000Z</time>
      </trkpt>
      <trkpt lat="48.2768" lon="-2.87055">
        <ele>149.80000305176</ele>
        <time>2020-10-16T14:10:05.000Z</time>
      </trkpt>
      <trkpt lat="48.27681" lon="-2.87055">
        <ele>149.80000305176</ele>
        <time>2020-10-16T14:10:06.000Z</time>
      </trkpt>
      <trkpt lat="48.27681" lon="-2.87055">
        <ele>149.60000610352</ele>
        <time>2020-10-16T14:10:07.000Z</time>
      </trkpt>
      <trkpt lat="48.27681" lon="-2.87055">
        <ele>149.60000610352</ele>
        <time>2020-10-16T14:10:08.000Z</time>
      </trkpt>
      <trkpt lat="48.27681" lon="-2.87055">
        <ele>149.60000610352</ele>
        <time>2020-10-16T14:10:09.000Z</time>
      </trkpt>
      <trkpt lat="48.27681" lon="-2.87055">
        <ele>149.60000610352</ele>
        <time>2020-10-16T14:10:10.000Z</time>
      </trkpt>
      <trkpt lat="48.27681" lon="-2.87055">
        <ele>149.60000610352</ele>
        <time>2020-10-16T14:10:11.000Z</time>
      </trkpt>
      <trkpt lat="48.27681" lon="-2.87055">
        <ele>149.60000610352</ele>
        <time>2020-10-16T14:10:12.000Z</time>
      </trkpt>
      <trkpt lat="48.27681" lon="-2.87055">
        <ele>149.60000610352</ele>
        <time>2020-10-16T14:10:13.000Z</time>
      </trkpt>
      <trkpt lat="48.27681" lon="-2.87055">
        <ele>149.60000610352</ele>
        <time>2020-10-16T14:10:14.000Z</time>
      </trkpt>
      <trkpt lat="48.27681" lon="-2.87055">
        <ele>149.60000610352</ele>
        <time>2020-10-16T14:10:15.000Z</time>
      </trkpt>
      <trkpt lat="48.27681" lon="-2.87055">
        <ele>149.60000610352</ele>
        <time>2020-10-16T14:10:16.000Z</time>
      </trkpt>
      <trkpt lat="48.27681" lon="-2.87055">
        <ele>149.60000610352</ele>
        <time>2020-10-16T14:10:17.000Z</time>
      </trkpt>
      <trkpt lat="48.27681" lon="-2.87055">
        <ele>149.60000610352</ele>
        <time>2020-10-16T14:10:18.000Z</time>
      </trkpt>
      <trkpt lat="48.27681" lon="-2.87055">
        <ele>149.60000610352</ele>
        <time>2020-10-16T14:10:19.000Z</time>
      </trkpt>
      <trkpt lat="48.27681" lon="-2.87055">
        <ele>149.60000610352</ele>
        <time>2020-10-16T14:10:20.000Z</time>
      </trkpt>
      <trkpt lat="48.27681" lon="-2.87055">
        <ele>149.60000610352</ele>
        <time>2020-10-16T14:10:21.000Z</time>
      </trkpt>
      <trkpt lat="48.27681" lon="-2.87055">
        <ele>149.60000610352</ele>
        <time>2020-10-16T14:10:22.000Z</time>
      </trkpt>
      <trkpt lat="48.27681" lon="-2.87055">
        <ele>149.60000610352</ele>
        <time>2020-10-16T14:10:23.000Z</time>
      </trkpt>
      <trkpt lat="48.27681" lon="-2.87055">
        <ele>149.60000610352</ele>
        <time>2020-10-16T14:10:24.000Z</time>
      </trkpt>
      <trkpt lat="48.27681" lon="-2.87055">
        <ele>149.60000610352</ele>
        <time>2020-10-16T14:10:25.000Z</time>
      </trkpt>
      <trkpt lat="48.27681" lon="-2.87055">
        <ele>149.60000610352</ele>
        <time>2020-10-16T14:10:26.000Z</time>
      </trkpt>
      <trkpt lat="48.27682" lon="-2.87056">
        <ele>149.60000610352</ele>
        <time>2020-10-16T14:10:27.000Z</time>
      </trkpt>
      <trkpt lat="48.27684" lon="-2.87057">
        <ele>149.39999389648</ele>
        <time>2020-10-16T14:10:28.000Z</time>
      </trkpt>
      <trkpt lat="48.27686" lon="-2.87058">
        <ele>149.19999694824</ele>
        <time>2020-10-16T14:10:29.000Z</time>
      </trkpt>
      <trkpt lat="48.27689" lon="-2.8706">
        <ele>148.80000305176</ele>
        <time>2020-10-16T14:10:30.000Z</time>
      </trkpt>
      <trkpt lat="48.27691" lon="-2.87061">
        <ele>148.39999389648</ele>
        <time>2020-10-16T14:10:31.000Z</time>
      </trkpt>
      <trkpt lat="48.27694" lon="-2.87063">
        <ele>148.19999694824</ele>
        <time>2020-10-16T14:10:32.000Z</time>
      </trkpt>
      <trkpt lat="48.27696" lon="-2.87065">
        <ele>148</ele>
        <time>2020-10-16T14:10:33.000Z</time>
      </trkpt>
      <trkpt lat="48.277" lon="-2.87068">
        <ele>147.39999389648</ele>
        <time>2020-10-16T14:10:34.000Z</time>
      </trkpt>
      <trkpt lat="48.277" lon="-2.87068">
        <ele>147.39999389648</ele>
        <time>2020-10-16T14:10:35.000Z</time>
      </trkpt>
      <trkpt lat="48.27702" lon="-2.87069">
        <ele>147.60000610352</ele>
        <time>2020-10-16T14:10:36.000Z</time>
      </trkpt>
      <trkpt lat="48.27705" lon="-2.8707">
        <ele>147.60000610352</ele>
        <time>2020-10-16T14:10:37.000Z</time>
      </trkpt>
      <trkpt lat="48.27708" lon="-2.87072">
        <ele>147.80000305176</ele>
        <time>2020-10-16T14:10:38.000Z</time>
      </trkpt>
      <trkpt lat="48.2771" lon="-2.87074">
        <ele>147.80000305176</ele>
        <time>2020-10-16T14:10:39.000Z</time>
      </trkpt>
      <trkpt lat="48.27713" lon="-2.87076">
        <ele>148</ele>
        <time>2020-10-16T14:10:40.000Z</time>
      </trkpt>
      <trkpt lat="48.27716" lon="-2.87077">
        <ele>148.19999694824</ele>
        <time>2020-10-16T14:10:41.000Z</time>
      </trkpt>
      <trkpt lat="48.2772" lon="-2.87079">
        <ele>148.39999389648</ele>
        <time>2020-10-16T14:10:42.000Z</time>
      </trkpt>
      <trkpt lat="48.27723" lon="-2.87081">
        <ele>148.60000610352</ele>
        <time>2020-10-16T14:10:43.000Z</time>
      </trkpt>
      <trkpt lat="48.27726" lon="-2.87083">
        <ele>148.80000305176</ele>
        <time>2020-10-16T14:10:44.000Z</time>
      </trkpt>
      <trkpt lat="48.27729" lon="-2.87085">
        <ele>148.80000305176</ele>
        <time>2020-10-16T14:10:45.000Z</time>
      </trkpt>
      <trkpt lat="48.27731" lon="-2.87086">
        <ele>149</ele>
        <time>2020-10-16T14:10:46.000Z</time>
      </trkpt>
      <trkpt lat="48.27734" lon="-2.87088">
        <ele>149</ele>
        <time>2020-10-16T14:10:47.000Z</time>
      </trkpt>
      <trkpt lat="48.27736" lon="-2.8709">
        <ele>149.19999694824</ele>
        <time>2020-10-16T14:10:48.000Z</time>
      </trkpt>
      <trkpt lat="48.27739" lon="-2.87092">
        <ele>149.19999694824</ele>
        <time>2020-10-16T14:10:49.000Z</time>
      </trkpt>
      <trkpt lat="48.27741" lon="-2.87094">
        <ele>149.19999694824</ele>
        <time>2020-10-16T14:10:50.000Z</time>
      </trkpt>
      <trkpt lat="48.27745" lon="-2.87095">
        <ele>149.19999694824</ele>
        <time>2020-10-16T14:10:51.000Z</time>
      </trkpt>
      <trkpt lat="48.27748" lon="-2.87097">
        <ele>149</ele>
        <time>2020-10-16T14:10:52.000Z</time>
      </trkpt>
      <trkpt lat="48.27751" lon="-2.87098">
        <ele>149</ele>
        <time>2020-10-16T14:10:53.000Z</time>
      </trkpt>
      <trkpt lat="48.27754" lon="-2.871">
        <ele>149</ele>
        <time>2020-10-16T14:10:54.000Z</time>
      </trkpt>
      <trkpt lat="48.27758" lon="-2.87101">
        <ele>149.19999694824</ele>
        <time>2020-10-16T14:10:55.000Z</time>
      </trkpt>
      <trkpt lat="48.27762" lon="-2.87104">
        <ele>149.60000610352</ele>
        <time>2020-10-16T14:10:56.000Z</time>
      </trkpt>
      <trkpt lat="48.27766" lon="-2.87106">
        <ele>149.39999389648</ele>
        <time>2020-10-16T14:10:57.000Z</time>
      </trkpt>
      <trkpt lat="48.2777" lon="-2.87108">
        <ele>149</ele>
        <time>2020-10-16T14:10:58.000Z</time>
      </trkpt>
      <trkpt lat="48.27774" lon="-2.8711">
        <ele>148.80000305176</ele>
        <time>2020-10-16T14:10:59.000Z</time>
      </trkpt>
      <trkpt lat="48.27777" lon="-2.87113">
        <ele>148.39999389648</ele>
        <time>2020-10-16T14:11:00.000Z</time>
      </trkpt>
      <trkpt lat="48.27781" lon="-2.87115">
        <ele>148.19999694824</ele>
        <time>2020-10-16T14:11:01.000Z</time>
      </trkpt>
      <trkpt lat="48.27785" lon="-2.87117">
        <ele>147.80000305176</ele>
        <time>2020-10-16T14:11:02.000Z</time>
      </trkpt>
      <trkpt lat="48.27789" lon="-2.8712">
        <ele>147.60000610352</ele>
        <time>2020-10-16T14:11:03.000Z</time>
      </trkpt>
      <trkpt lat="48.27797" lon="-2.87125">
        <ele>147</ele>
        <time>2020-10-16T14:11:04.000Z</time>
      </trkpt>
      <trkpt lat="48.27797" lon="-2.87125">
        <ele>147</ele>
        <time>2020-10-16T14:11:05.000Z</time>
      </trkpt>
      <trkpt lat="48.278" lon="-2.87128">
        <ele>146.80000305176</ele>
        <time>2020-10-16T14:11:06.000Z</time>
      </trkpt>
      <trkpt lat="48.27804" lon="-2.87131">
        <ele>146.60000610352</ele>
        <time>2020-10-16T14:11:07.000Z</time>
      </trkpt>
      <trkpt lat="48.27807" lon="-2.87134">
        <ele>146.80000305176</ele>
        <time>2020-10-16T14:11:08.000Z</time>
      </trkpt>
      <trkpt lat="48.27811" lon="-2.87138">
        <ele>147</ele>
        <time>2020-10-16T14:11:09.000Z</time>
      </trkpt>
      <trkpt lat="48.27814" lon="-2.87142">
        <ele>147.19999694824</ele>
        <time>2020-10-16T14:11:10.000Z</time>
      </trkpt>
      <trkpt lat="48.27816" lon="-2.87145">
        <ele>147.60000610352</ele>
        <time>2020-10-16T14:11:11.000Z</time>
      </trkpt>
      <trkpt lat="48.27819" lon="-2.87149">
        <ele>147.80000305176</ele>
        <time>2020-10-16T14:11:12.000Z</time>
      </trkpt>
      <trkpt lat="48.27822" lon="-2.87153">
        <ele>148.19999694824</ele>
        <time>2020-10-16T14:11:13.000Z</time>
      </trkpt>
      <trkpt lat="48.27824" lon="-2.87156">
        <ele>148.39999389648</ele>
        <time>2020-10-16T14:11:14.000Z</time>
      </trkpt>
      <trkpt lat="48.27826" lon="-2.87159">
        <ele>148.80000305176</ele>
        <time>2020-10-16T14:11:15.000Z</time>
      </trkpt>
      <trkpt lat="48.27829" lon="-2.87164">
        <ele>149.19999694824</ele>
        <time>2020-10-16T14:11:16.000Z</time>
      </trkpt>
      <trkpt lat="48.27831" lon="-2.87168">
        <ele>149.60000610352</ele>
        <time>2020-10-16T14:11:17.000Z</time>
      </trkpt>
      <trkpt lat="48.27834" lon="-2.87172">
        <ele>150</ele>
        <time>2020-10-16T14:11:18.000Z</time>
      </trkpt>
      <trkpt lat="48.27836" lon="-2.87176">
        <ele>150.19999694824</ele>
        <time>2020-10-16T14:11:19.000Z</time>
      </trkpt>
      <trkpt lat="48.27839" lon="-2.8718">
        <ele>150.19999694824</ele>
        <time>2020-10-16T14:11:20.000Z</time>
      </trkpt>
      <trkpt lat="48.27842" lon="-2.87185">
        <ele>150.39999389648</ele>
        <time>2020-10-16T14:11:21.000Z</time>
      </trkpt>
      <trkpt lat="48.27845" lon="-2.87189">
        <ele>150.60000610352</ele>
        <time>2020-10-16T14:11:22.000Z</time>
      </trkpt>
      <trkpt lat="48.27848" lon="-2.87194">
        <ele>150.60000610352</ele>
        <time>2020-10-16T14:11:23.000Z</time>
      </trkpt>
      <trkpt lat="48.27851" lon="-2.872">
        <ele>150.39999389648</ele>
        <time>2020-10-16T14:11:24.000Z</time>
      </trkpt>
      <trkpt lat="48.27853" lon="-2.87205">
        <ele>150.19999694824</ele>
        <time>2020-10-16T14:11:25.000Z</time>
      </trkpt>
      <trkpt lat="48.27856" lon="-2.87211">
        <ele>150</ele>
        <time>2020-10-16T14:11:26.000Z</time>
      </trkpt>
      <trkpt lat="48.27859" lon="-2.87217">
        <ele>150</ele>
        <time>2020-10-16T14:11:27.000Z</time>
      </trkpt>
      <trkpt lat="48.27862" lon="-2.87223">
        <ele>149.80000305176</ele>
        <time>2020-10-16T14:11:28.000Z</time>
      </trkpt>
      <trkpt lat="48.27864" lon="-2.87229">
        <ele>150</ele>
        <time>2020-10-16T14:11:29.000Z</time>
      </trkpt>
      <trkpt lat="48.27866" lon="-2.87237">
        <ele>150.19999694824</ele>
        <time>2020-10-16T14:11:30.000Z</time>
      </trkpt>
      <trkpt lat="48.27868" lon="-2.87243">
        <ele>150.19999694824</ele>
        <time>2020-10-16T14:11:31.000Z</time>
      </trkpt>
      <trkpt lat="48.2787" lon="-2.87249">
        <ele>150.39999389648</ele>
        <time>2020-10-16T14:11:32.000Z</time>
      </trkpt>
      <trkpt lat="48.27874" lon="-2.87261">
        <ele>150.19999694824</ele>
        <time>2020-10-16T14:11:33.000Z</time>
      </trkpt>
      <trkpt lat="48.27874" lon="-2.87261">
        <ele>150.19999694824</ele>
        <time>2020-10-16T14:11:34.000Z</time>
      </trkpt>
      <trkpt lat="48.27875" lon="-2.87268">
        <ele>150.19999694824</ele>
        <time>2020-10-16T14:11:35.000Z</time>
      </trkpt>
      <trkpt lat="48.27877" lon="-2.87274">
        <ele>150.19999694824</ele>
        <time>2020-10-16T14:11:36.000Z</time>
      </trkpt>
      <trkpt lat="48.27878" lon="-2.87281">
        <ele>150</ele>
        <time>2020-10-16T14:11:37.000Z</time>
      </trkpt>
      <trkpt lat="48.27879" lon="-2.87287">
        <ele>150</ele>
        <time>2020-10-16T14:11:38.000Z</time>
      </trkpt>
      <trkpt lat="48.27881" lon="-2.87294">
        <ele>150</ele>
        <time>2020-10-16T14:11:39.000Z</time>
      </trkpt>
      <trkpt lat="48.27882" lon="-2.87301">
        <ele>149.80000305176</ele>
        <time>2020-10-16T14:11:40.000Z</time>
      </trkpt>
      <trkpt lat="48.27884" lon="-2.87307">
        <ele>150</ele>
        <time>2020-10-16T14:11:41.000Z</time>
      </trkpt>
      <trkpt lat="48.27885" lon="-2.87314">
        <ele>150.19999694824</ele>
        <time>2020-10-16T14:11:42.000Z</time>
      </trkpt>
      <trkpt lat="48.27887" lon="-2.87319">
        <ele>150.39999389648</ele>
        <time>2020-10-16T14:11:43.000Z</time>
      </trkpt>
      <trkpt lat="48.27888" lon="-2.87326">
        <ele>150.39999389648</ele>
        <time>2020-10-16T14:11:44.000Z</time>
      </trkpt>
      <trkpt lat="48.2789" lon="-2.87332">
        <ele>150.60000610352</ele>
        <time>2020-10-16T14:11:45.000Z</time>
      </trkpt>
      <trkpt lat="48.27891" lon="-2.87338">
        <ele>150.80000305176</ele>
        <time>2020-10-16T14:11:46.000Z</time>
      </trkpt>
      <trkpt lat="48.27893" lon="-2.87344">
        <ele>150.80000305176</ele>
        <time>2020-10-16T14:11:47.000Z</time>
      </trkpt>
      <trkpt lat="48.27894" lon="-2.8735">
        <ele>150.80000305176</ele>
        <time>2020-10-16T14:11:48.000Z</time>
      </trkpt>
      <trkpt lat="48.27896" lon="-2.87355">
        <ele>150.60000610352</ele>
        <time>2020-10-16T14:11:49.000Z</time>
      </trkpt>
      <trkpt lat="48.27897" lon="-2.87361">
        <ele>150.60000610352</ele>
        <time>2020-10-16T14:11:50.000Z</time>
      </trkpt>
      <trkpt lat="48.27898" lon="-2.87367">
        <ele>150.60000610352</ele>
        <time>2020-10-16T14:11:51.000Z</time>
      </trkpt>
      <trkpt lat="48.27899" lon="-2.87372">
        <ele>150.80000305176</ele>
        <time>2020-10-16T14:11:52.000Z</time>
      </trkpt>
      <trkpt lat="48.279" lon="-2.87378">
        <ele>151.19999694824</ele>
        <time>2020-10-16T14:11:53.000Z</time>
      </trkpt>
      <trkpt lat="48.279" lon="-2.87383">
        <ele>151.80000305176</ele>
        <time>2020-10-16T14:11:54.000Z</time>
      </trkpt>
      <trkpt lat="48.27901" lon="-2.87389">
        <ele>152.19999694824</ele>
        <time>2020-10-16T14:11:55.000Z</time>
      </trkpt>
      <trkpt lat="48.27902" lon="-2.87394">
        <ele>152.60000610352</ele>
        <time>2020-10-16T14:11:56.000Z</time>
      </trkpt>
      <trkpt lat="48.27903" lon="-2.87399">
        <ele>153</ele>
        <time>2020-10-16T14:11:57.000Z</time>
      </trkpt>
      <trkpt lat="48.27904" lon="-2.87405">
        <ele>153.39999389648</ele>
        <time>2020-10-16T14:11:58.000Z</time>
      </trkpt>
      <trkpt lat="48.27906" lon="-2.8741">
        <ele>153.60000610352</ele>
        <time>2020-10-16T14:11:59.000Z</time>
      </trkpt>
      <trkpt lat="48.27907" lon="-2.87415">
        <ele>154</ele>
        <time>2020-10-16T14:12:00.000Z</time>
      </trkpt>
      <trkpt lat="48.27908" lon="-2.87419">
        <ele>154.19999694824</ele>
        <time>2020-10-16T14:12:01.000Z</time>
      </trkpt>
      <trkpt lat="48.2791" lon="-2.87424">
        <ele>154.39999389648</ele>
        <time>2020-10-16T14:12:02.000Z</time>
      </trkpt>
      <trkpt lat="48.27911" lon="-2.87428">
        <ele>154.19999694824</ele>
        <time>2020-10-16T14:12:03.000Z</time>
      </trkpt>
      <trkpt lat="48.27913" lon="-2.87433">
        <ele>154.19999694824</ele>
        <time>2020-10-16T14:12:04.000Z</time>
      </trkpt>
      <trkpt lat="48.27916" lon="-2.87442">
        <ele>154</ele>
        <time>2020-10-16T14:12:05.000Z</time>
      </trkpt>
      <trkpt lat="48.27916" lon="-2.87442">
        <ele>154</ele>
        <time>2020-10-16T14:12:06.000Z</time>
      </trkpt>
      <trkpt lat="48.27917" lon="-2.87447">
        <ele>154.19999694824</ele>
        <time>2020-10-16T14:12:07.000Z</time>
      </trkpt>
      <trkpt lat="48.27919" lon="-2.87452">
        <ele>154.39999389648</ele>
        <time>2020-10-16T14:12:08.000Z</time>
      </trkpt>
      <trkpt lat="48.2792" lon="-2.87457">
        <ele>154.39999389648</ele>
        <time>2020-10-16T14:12:09.000Z</time>
      </trkpt>
      <trkpt lat="48.27921" lon="-2.87461">
        <ele>154.60000610352</ele>
        <time>2020-10-16T14:12:10.000Z</time>
      </trkpt>
      <trkpt lat="48.27923" lon="-2.87465">
        <ele>154.60000610352</ele>
        <time>2020-10-16T14:12:11.000Z</time>
      </trkpt>
      <trkpt lat="48.27924" lon="-2.8747">
        <ele>154.80000305176</ele>
        <time>2020-10-16T14:12:12.000Z</time>
      </trkpt>
      <trkpt lat="48.27925" lon="-2.87475">
        <ele>155</ele>
        <time>2020-10-16T14:12:13.000Z</time>
      </trkpt>
      <trkpt lat="48.27925" lon="-2.8748">
        <ele>155.19999694824</ele>
        <time>2020-10-16T14:12:14.000Z</time>
      </trkpt>
      <trkpt lat="48.27925" lon="-2.87484">
        <ele>155.39999389648</ele>
        <time>2020-10-16T14:12:15.000Z</time>
      </trkpt>
      <trkpt lat="48.27926" lon="-2.87489">
        <ele>155.60000610352</ele>
        <time>2020-10-16T14:12:16.000Z</time>
      </trkpt>
      <trkpt lat="48.27925" lon="-2.87495">
        <ele>155.80000305176</ele>
        <time>2020-10-16T14:12:17.000Z</time>
      </trkpt>
      <trkpt lat="48.27925" lon="-2.87501">
        <ele>156.19999694824</ele>
        <time>2020-10-16T14:12:18.000Z</time>
      </trkpt>
      <trkpt lat="48.27924" lon="-2.87506">
        <ele>156.39999389648</ele>
        <time>2020-10-16T14:12:19.000Z</time>
      </trkpt>
      <trkpt lat="48.27923" lon="-2.87511">
        <ele>156.39999389648</ele>
        <time>2020-10-16T14:12:20.000Z</time>
      </trkpt>
      <trkpt lat="48.27922" lon="-2.87516">
        <ele>156.60000610352</ele>
        <time>2020-10-16T14:12:21.000Z</time>
      </trkpt>
      <trkpt lat="48.2792" lon="-2.87521">
        <ele>156.60000610352</ele>
        <time>2020-10-16T14:12:22.000Z</time>
      </trkpt>
      <trkpt lat="48.27918" lon="-2.87526">
        <ele>156.80000305176</ele>
        <time>2020-10-16T14:12:23.000Z</time>
      </trkpt>
      <trkpt lat="48.27917" lon="-2.87531">
        <ele>157</ele>
        <time>2020-10-16T14:12:24.000Z</time>
      </trkpt>
      <trkpt lat="48.27915" lon="-2.87535">
        <ele>157</ele>
        <time>2020-10-16T14:12:25.000Z</time>
      </trkpt>
      <trkpt lat="48.27914" lon="-2.8754">
        <ele>157.19999694824</ele>
        <time>2020-10-16T14:12:26.000Z</time>
      </trkpt>
      <trkpt lat="48.27912" lon="-2.87545">
        <ele>157.19999694824</ele>
        <time>2020-10-16T14:12:27.000Z</time>
      </trkpt>
      <trkpt lat="48.27911" lon="-2.87549">
        <ele>157.39999389648</ele>
        <time>2020-10-16T14:12:28.000Z</time>
      </trkpt>
      <trkpt lat="48.27911" lon="-2.87553">
        <ele>157.39999389648</ele>
        <time>2020-10-16T14:12:29.000Z</time>
      </trkpt>
      <trkpt lat="48.27911" lon="-2.87559">
        <ele>157.39999389648</ele>
        <time>2020-10-16T14:12:30.000Z</time>
      </trkpt>
      <trkpt lat="48.27911" lon="-2.87564">
        <ele>157.39999389648</ele>
        <time>2020-10-16T14:12:31.000Z</time>
      </trkpt>
      <trkpt lat="48.27913" lon="-2.87572">
        <ele>157.19999694824</ele>
        <time>2020-10-16T14:12:32.000Z</time>
      </trkpt>
      <trkpt lat="48.27913" lon="-2.87572">
        <ele>157.19999694824</ele>
        <time>2020-10-16T14:12:33.000Z</time>
      </trkpt>
      <trkpt lat="48.27915" lon="-2.87575">
        <ele>157</ele>
        <time>2020-10-16T14:12:34.000Z</time>
      </trkpt>
      <trkpt lat="48.27918" lon="-2.87578">
        <ele>156.80000305176</ele>
        <time>2020-10-16T14:12:35.000Z</time>
      </trkpt>
      <trkpt lat="48.27921" lon="-2.87581">
        <ele>156.60000610352</ele>
        <time>2020-10-16T14:12:36.000Z</time>
      </trkpt>
      <trkpt lat="48.27925" lon="-2.87583">
        <ele>156.39999389648</ele>
        <time>2020-10-16T14:12:37.000Z</time>
      </trkpt>
      <trkpt lat="48.27929" lon="-2.87584">
        <ele>156</ele>
        <time>2020-10-16T14:12:38.000Z</time>
      </trkpt>
      <trkpt lat="48.27932" lon="-2.87584">
        <ele>155.60000610352</ele>
        <time>2020-10-16T14:12:39.000Z</time>
      </trkpt>
      <trkpt lat="48.27936" lon="-2.87583">
        <ele>155</ele>
        <time>2020-10-16T14:12:40.000Z</time>
      </trkpt>
      <trkpt lat="48.27939" lon="-2.87582">
        <ele>154.60000610352</ele>
        <time>2020-10-16T14:12:41.000Z</time>
      </trkpt>
      <trkpt lat="48.27943" lon="-2.87581">
        <ele>154.19999694824</ele>
        <time>2020-10-16T14:12:42.000Z</time>
      </trkpt>
      <trkpt lat="48.27946" lon="-2.8758">
        <ele>153.80000305176</ele>
        <time>2020-10-16T14:12:43.000Z</time>
      </trkpt>
      <trkpt lat="48.2795" lon="-2.87578">
        <ele>153.39999389648</ele>
        <time>2020-10-16T14:12:44.000Z</time>
      </trkpt>
      <trkpt lat="48.27953" lon="-2.87577">
        <ele>153.19999694824</ele>
        <time>2020-10-16T14:12:45.000Z</time>
      </trkpt>
      <trkpt lat="48.27956" lon="-2.87575">
        <ele>152.80000305176</ele>
        <time>2020-10-16T14:12:46.000Z</time>
      </trkpt>
      <trkpt lat="48.27959" lon="-2.87573">
        <ele>152.39999389648</ele>
        <time>2020-10-16T14:12:47.000Z</time>
      </trkpt>
      <trkpt lat="48.27962" lon="-2.87572">
        <ele>152</ele>
        <time>2020-10-16T14:12:48.000Z</time>
      </trkpt>
      <trkpt lat="48.27965" lon="-2.8757">
        <ele>151.60000610352</ele>
        <time>2020-10-16T14:12:49.000Z</time>
      </trkpt>
      <trkpt lat="48.27969" lon="-2.87569">
        <ele>151.19999694824</ele>
        <time>2020-10-16T14:12:50.000Z</time>
      </trkpt>
      <trkpt lat="48.27971" lon="-2.87568">
        <ele>150.80000305176</ele>
        <time>2020-10-16T14:12:51.000Z</time>
      </trkpt>
      <trkpt lat="48.27977" lon="-2.87564">
        <ele>150.19999694824</ele>
        <time>2020-10-16T14:12:52.000Z</time>
      </trkpt>
      <trkpt lat="48.27977" lon="-2.87564">
        <ele>150.19999694824</ele>
        <time>2020-10-16T14:12:53.000Z</time>
      </trkpt>
      <trkpt lat="48.27978" lon="-2.87563">
        <ele>150</ele>
        <time>2020-10-16T14:12:54.000Z</time>
      </trkpt>
      <trkpt lat="48.2798" lon="-2.87562">
        <ele>149.80000305176</ele>
        <time>2020-10-16T14:12:55.000Z</time>
      </trkpt>
      <trkpt lat="48.27983" lon="-2.87562">
        <ele>149.60000610352</ele>
        <time>2020-10-16T14:12:56.000Z</time>
      </trkpt>
      <trkpt lat="48.27985" lon="-2.87562">
        <ele>149.39999389648</ele>
        <time>2020-10-16T14:12:57.000Z</time>
      </trkpt>
      <trkpt lat="48.27987" lon="-2.87562">
        <ele>149.19999694824</ele>
        <time>2020-10-16T14:12:58.000Z</time>
      </trkpt>
      <trkpt lat="48.27989" lon="-2.87562">
        <ele>149.19999694824</ele>
        <time>2020-10-16T14:12:59.000Z</time>
      </trkpt>
      <trkpt lat="48.2799" lon="-2.87563">
        <ele>149</ele>
        <time>2020-10-16T14:13:00.000Z</time>
      </trkpt>
      <trkpt lat="48.27992" lon="-2.87563">
        <ele>149</ele>
        <time>2020-10-16T14:13:01.000Z</time>
      </trkpt>
      <trkpt lat="48.27992" lon="-2.87563">
        <ele>149</ele>
        <time>2020-10-16T14:13:02.000Z</time>
      </trkpt>
      <trkpt lat="48.27993" lon="-2.87564">
        <ele>149</ele>
        <time>2020-10-16T14:13:03.000Z</time>
      </trkpt>
      <trkpt lat="48.27993" lon="-2.87563">
        <ele>149</ele>
        <time>2020-10-16T14:13:04.000Z</time>
      </trkpt>
      <trkpt lat="48.27993" lon="-2.87563">
        <ele>149</ele>
        <time>2020-10-16T14:13:05.000Z</time>
      </trkpt>
      <trkpt lat="48.27993" lon="-2.87563">
        <ele>149</ele>
        <time>2020-10-16T14:13:06.000Z</time>
      </trkpt>
      <trkpt lat="48.27993" lon="-2.87563">
        <ele>149</ele>
        <time>2020-10-16T14:13:07.000Z</time>
      </trkpt>
      <trkpt lat="48.27993" lon="-2.87563">
        <ele>149</ele>
        <time>2020-10-16T14:13:08.000Z</time>
      </trkpt>
      <trkpt lat="48.27993" lon="-2.87563">
        <ele>149</ele>
        <time>2020-10-16T14:13:09.000Z</time>
      </trkpt>
      <trkpt lat="48.27993" lon="-2.87563">
        <ele>149</ele>
        <time>2020-10-16T14:13:10.000Z</time>
      </trkpt>
      <trkpt lat="48.27993" lon="-2.87563">
        <ele>149</ele>
        <time>2020-10-16T14:13:11.000Z</time>
      </trkpt>
      <trkpt lat="48.27993" lon="-2.87563">
        <ele>149</ele>
        <time>2020-10-16T14:13:12.000Z</time>
      </trkpt>
      <trkpt lat="48.27993" lon="-2.87563">
        <ele>149</ele>
        <time>2020-10-16T14:13:13.000Z</time>
      </trkpt>
      <trkpt lat="48.27993" lon="-2.87563">
        <ele>149</ele>
        <time>2020-10-16T14:13:14.000Z</time>
      </trkpt>
      <trkpt lat="48.27993" lon="-2.87563">
        <ele>149</ele>
        <time>2020-10-16T14:13:15.000Z</time>
      </trkpt>
      <trkpt lat="48.27993" lon="-2.87563">
        <ele>149</ele>
        <time>2020-10-16T14:13:16.000Z</time>
      </trkpt>
      <trkpt lat="48.27993" lon="-2.87563">
        <ele>149</ele>
        <time>2020-10-16T14:13:17.000Z</time>
      </trkpt>
      <trkpt lat="48.27993" lon="-2.87563">
        <ele>149</ele>
        <time>2020-10-16T14:13:18.000Z</time>
      </trkpt>
      <trkpt lat="48.27993" lon="-2.87563">
        <ele>149</ele>
        <time>2020-10-16T14:13:19.000Z</time>
      </trkpt>
      <trkpt lat="48.27993" lon="-2.87563">
        <ele>149</ele>
        <time>2020-10-16T14:13:20.000Z</time>
      </trkpt>
      <trkpt lat="48.27993" lon="-2.87563">
        <ele>149</ele>
        <time>2020-10-16T14:13:21.000Z</time>
      </trkpt>
      <trkpt lat="48.27993" lon="-2.87563">
        <ele>149</ele>
        <time>2020-10-16T14:13:22.000Z</time>
      </trkpt>
      <trkpt lat="48.27993" lon="-2.87563">
        <ele>149</ele>
        <time>2020-10-16T14:13:23.000Z</time>
      </trkpt>
      <trkpt lat="48.27993" lon="-2.87563">
        <ele>149</ele>
        <time>2020-10-16T14:13:24.000Z</time>
      </trkpt>
      <trkpt lat="48.27993" lon="-2.87563">
        <ele>149</ele>
        <time>2020-10-16T14:13:25.000Z</time>
      </trkpt>
      <trkpt lat="48.27993" lon="-2.87563">
        <ele>149</ele>
        <time>2020-10-16T14:13:26.000Z</time>
      </trkpt>
      <trkpt lat="48.27993" lon="-2.87563">
        <ele>149</ele>
        <time>2020-10-16T14:13:27.000Z</time>
      </trkpt>
      <trkpt lat="48.27993" lon="-2.87563">
        <ele>149</ele>
        <time>2020-10-16T14:13:28.000Z</time>
      </trkpt>
      <trkpt lat="48.27993" lon="-2.87563">
        <ele>149</ele>
        <time>2020-10-16T14:13:29.000Z</time>
      </trkpt>
      <trkpt lat="48.27993" lon="-2.87563">
        <ele>149</ele>
        <time>2020-10-16T14:13:30.000Z</time>
      </trkpt>
      <trkpt lat="48.27993" lon="-2.87563">
        <ele>149</ele>
        <time>2020-10-16T14:13:31.000Z</time>
      </trkpt>
      <trkpt lat="48.27993" lon="-2.87563">
        <ele>149</ele>
        <time>2020-10-16T14:13:32.000Z</time>
      </trkpt>
      <trkpt lat="48.27993" lon="-2.87563">
        <ele>149</ele>
        <time>2020-10-16T14:13:33.000Z</time>
      </trkpt>
      <trkpt lat="48.27993" lon="-2.87563">
        <ele>149</ele>
        <time>2020-10-16T14:13:34.000Z</time>
      </trkpt>
      <trkpt lat="48.27993" lon="-2.87563">
        <ele>149</ele>
        <time>2020-10-16T14:13:35.000Z</time>
      </trkpt>
      <trkpt lat="48.27993" lon="-2.87563">
        <ele>149</ele>
        <time>2020-10-16T14:13:36.000Z</time>
      </trkpt>
      <trkpt lat="48.27993" lon="-2.87563">
        <ele>149</ele>
        <time>2020-10-16T14:13:37.000Z</time>
      </trkpt>
      <trkpt lat="48.27993" lon="-2.87563">
        <ele>149</ele>
        <time>2020-10-16T14:13:38.000Z</time>
      </trkpt>
      <trkpt lat="48.27993" lon="-2.87563">
        <ele>149</ele>
        <time>2020-10-16T14:13:39.000Z</time>
      </trkpt>
      <trkpt lat="48.27993" lon="-2.87563">
        <ele>149</ele>
        <time>2020-10-16T14:13:40.000Z</time>
      </trkpt>
      <trkpt lat="48.27993" lon="-2.87563">
        <ele>149</ele>
        <time>2020-10-16T14:13:41.000Z</time>
      </trkpt>
      <trkpt lat="48.27993" lon="-2.87563">
        <ele>149</ele>
        <time>2020-10-16T14:13:42.000Z</time>
      </trkpt>
      <trkpt lat="48.27993" lon="-2.87563">
        <ele>149</ele>
        <time>2020-10-16T14:13:43.000Z</time>
      </trkpt>
      <trkpt lat="48.27993" lon="-2.87563">
        <ele>149</ele>
        <time>2020-10-16T14:13:44.000Z</time>
      </trkpt>
      <trkpt lat="48.27993" lon="-2.87563">
        <ele>149</ele>
        <time>2020-10-16T14:13:45.000Z</time>
      </trkpt>
      <trkpt lat="48.27993" lon="-2.87563">
        <ele>149</ele>
        <time>2020-10-16T14:13:46.000Z</time>
      </trkpt>
      <trkpt lat="48.27993" lon="-2.87563">
        <ele>149</ele>
        <time>2020-10-16T14:13:47.000Z</time>
      </trkpt>
      <trkpt lat="48.27993" lon="-2.87563">
        <ele>149</ele>
        <time>2020-10-16T14:13:48.000Z</time>
      </trkpt>
      <trkpt lat="48.27993" lon="-2.87563">
        <ele>149</ele>
        <time>2020-10-16T14:13:49.000Z</time>
      </trkpt>
      <trkpt lat="48.27993" lon="-2.87563">
        <ele>149</ele>
        <time>2020-10-16T14:13:50.000Z</time>
      </trkpt>
      <trkpt lat="48.27993" lon="-2.87563">
        <ele>149</ele>
        <time>2020-10-16T14:13:51.000Z</time>
      </trkpt>
      <trkpt lat="48.27993" lon="-2.87563">
        <ele>149</ele>
        <time>2020-10-16T14:13:52.000Z</time>
      </trkpt>
      <trkpt lat="48.27993" lon="-2.87563">
        <ele>149</ele>
        <time>2020-10-16T14:13:53.000Z</time>
      </trkpt>
      <trkpt lat="48.27993" lon="-2.87563">
        <ele>149</ele>
        <time>2020-10-16T14:13:54.000Z</time>
      </trkpt>
      <trkpt lat="48.27993" lon="-2.87563">
        <ele>149</ele>
        <time>2020-10-16T14:13:55.000Z</time>
      </trkpt>
      <trkpt lat="48.27993" lon="-2.87563">
        <ele>149</ele>
        <time>2020-10-16T14:13:56.000Z</time>
      </trkpt>
      <trkpt lat="48.27993" lon="-2.87563">
        <ele>149</ele>
        <time>2020-10-16T14:13:57.000Z</time>
      </trkpt>
      <trkpt lat="48.27993" lon="-2.87563">
        <ele>149</ele>
        <time>2020-10-16T14:13:58.000Z</time>
      </trkpt>
      <trkpt lat="48.27993" lon="-2.87563">
        <ele>149</ele>
        <time>2020-10-16T14:13:59.000Z</time>
      </trkpt>
      <trkpt lat="48.27993" lon="-2.87563">
        <ele>149</ele>
        <time>2020-10-16T14:14:00.000Z</time>
      </trkpt>
      <trkpt lat="48.27993" lon="-2.87563">
        <ele>149</ele>
        <time>2020-10-16T14:14:01.000Z</time>
      </trkpt>
      <trkpt lat="48.27993" lon="-2.87563">
        <ele>149</ele>
        <time>2020-10-16T14:14:02.000Z</time>
      </trkpt>
      <trkpt lat="48.27993" lon="-2.87563">
        <ele>149</ele>
        <time>2020-10-16T14:14:03.000Z</time>
      </trkpt>
      <trkpt lat="48.27993" lon="-2.87563">
        <ele>149</ele>
        <time>2020-10-16T14:14:04.000Z</time>
      </trkpt>
      <trkpt lat="48.27993" lon="-2.87563">
        <ele>149</ele>
        <time>2020-10-16T14:14:05.000Z</time>
      </trkpt>
      <trkpt lat="48.27993" lon="-2.87563">
        <ele>149</ele>
        <time>2020-10-16T14:14:06.000Z</time>
      </trkpt>
      <trkpt lat="48.27993" lon="-2.87563">
        <ele>149</ele>
        <time>2020-10-16T14:14:07.000Z</time>
      </trkpt>
      <trkpt lat="48.27993" lon="-2.87563">
        <ele>149</ele>
        <time>2020-10-16T14:14:08.000Z</time>
      </trkpt>
      <trkpt lat="48.27993" lon="-2.87563">
        <ele>149</ele>
        <time>2020-10-16T14:14:09.000Z</time>
      </trkpt>
      <trkpt lat="48.27993" lon="-2.87563">
        <ele>149</ele>
        <time>2020-10-16T14:14:10.000Z</time>
      </trkpt>
      <trkpt lat="48.27993" lon="-2.87563">
        <ele>149</ele>
        <time>2020-10-16T14:14:11.000Z</time>
      </trkpt>
      <trkpt lat="48.27993" lon="-2.87563">
        <ele>149</ele>
        <time>2020-10-16T14:14:12.000Z</time>
      </trkpt>
      <trkpt lat="48.27993" lon="-2.87563">
        <ele>149</ele>
        <time>2020-10-16T14:14:13.000Z</time>
      </trkpt>
      <trkpt lat="48.27993" lon="-2.87563">
        <ele>149</ele>
        <time>2020-10-16T14:14:14.000Z</time>
      </trkpt>
      <trkpt lat="48.27993" lon="-2.87563">
        <ele>149</ele>
        <time>2020-10-16T14:14:15.000Z</time>
      </trkpt>
      <trkpt lat="48.27993" lon="-2.87563">
        <ele>149</ele>
        <time>2020-10-16T14:14:16.000Z</time>
      </trkpt>
      <trkpt lat="48.27993" lon="-2.87563">
        <ele>149</ele>
        <time>2020-10-16T14:14:17.000Z</time>
      </trkpt>
      <trkpt lat="48.27993" lon="-2.87563">
        <ele>149</ele>
        <time>2020-10-16T14:14:18.000Z</time>
      </trkpt>
      <trkpt lat="48.27993" lon="-2.87563">
        <ele>149</ele>
        <time>2020-10-16T14:14:19.000Z</time>
      </trkpt>
      <trkpt lat="48.27993" lon="-2.87563">
        <ele>149</ele>
        <time>2020-10-16T14:14:20.000Z</time>
      </trkpt>
      <trkpt lat="48.27993" lon="-2.87563">
        <ele>149</ele>
        <time>2020-10-16T14:14:21.000Z</time>
      </trkpt>
      <trkpt lat="48.27993" lon="-2.87563">
        <ele>149</ele>
        <time>2020-10-16T14:14:22.000Z</time>
      </trkpt>
      <trkpt lat="48.27993" lon="-2.87563">
        <ele>149</ele>
        <time>2020-10-16T14:14:23.000Z</time>
      </trkpt>
      <trkpt lat="48.27993" lon="-2.87563">
        <ele>149</ele>
        <time>2020-10-16T14:14:24.000Z</time>
      </trkpt>
      <trkpt lat="48.27993" lon="-2.87563">
        <ele>149</ele>
        <time>2020-10-16T14:14:25.000Z</time>
      </trkpt>
      <trkpt lat="48.27993" lon="-2.87563">
        <ele>149</ele>
        <time>2020-10-16T14:14:26.000Z</time>
      </trkpt>
      <trkpt lat="48.27993" lon="-2.87563">
        <ele>149</ele>
        <time>2020-10-16T14:14:27.000Z</time>
      </trkpt>
      <trkpt lat="48.27993" lon="-2.87563">
        <ele>149</ele>
        <time>2020-10-16T14:14:28.000Z</time>
      </trkpt>
      <trkpt lat="48.27993" lon="-2.87563">
        <ele>149</ele>
        <time>2020-10-16T14:14:29.000Z</time>
      </trkpt>
      <trkpt lat="48.27993" lon="-2.87563">
        <ele>149</ele>
        <time>2020-10-16T14:14:30.000Z</time>
      </trkpt>
      <trkpt lat="48.27993" lon="-2.87563">
        <ele>149</ele>
        <time>2020-10-16T14:14:31.000Z</time>
      </trkpt>
      <trkpt lat="48.27993" lon="-2.87563">
        <ele>149</ele>
        <time>2020-10-16T14:14:32.000Z</time>
      </trkpt>
      <trkpt lat="48.27993" lon="-2.87563">
        <ele>149</ele>
        <time>2020-10-16T14:14:33.000Z</time>
      </trkpt>
      <trkpt lat="48.27993" lon="-2.87563">
        <ele>149</ele>
        <time>2020-10-16T14:14:34.000Z</time>
      </trkpt>
      <trkpt lat="48.27993" lon="-2.87563">
        <ele>149</ele>
        <time>2020-10-16T14:14:35.000Z</time>
      </trkpt>
      <trkpt lat="48.27993" lon="-2.87563">
        <ele>149</ele>
        <time>2020-10-16T14:14:36.000Z</time>
      </trkpt>
      <trkpt lat="48.27993" lon="-2.87563">
        <ele>149</ele>
        <time>2020-10-16T14:14:37.000Z</time>
      </trkpt>
      <trkpt lat="48.27993" lon="-2.87563">
        <ele>149</ele>
        <time>2020-10-16T14:14:38.000Z</time>
      </trkpt>
      <trkpt lat="48.27993" lon="-2.87563">
        <ele>149</ele>
        <time>2020-10-16T14:14:39.000Z</time>
      </trkpt>
      <trkpt lat="48.27993" lon="-2.87563">
        <ele>149</ele>
        <time>2020-10-16T14:14:40.000Z</time>
      </trkpt>
      <trkpt lat="48.27993" lon="-2.87563">
        <ele>149</ele>
        <time>2020-10-16T14:14:41.000Z</time>
      </trkpt>
      <trkpt lat="48.27993" lon="-2.87563">
        <ele>149</ele>
        <time>2020-10-16T14:14:42.000Z</time>
      </trkpt>
      <trkpt lat="48.27993" lon="-2.87563">
        <ele>149</ele>
        <time>2020-10-16T14:14:43.000Z</time>
      </trkpt>
      <trkpt lat="48.27993" lon="-2.87563">
        <ele>149</ele>
        <time>2020-10-16T14:14:44.000Z</time>
      </trkpt>
      <trkpt lat="48.27993" lon="-2.87563">
        <ele>149</ele>
        <time>2020-10-16T14:14:45.000Z</time>
      </trkpt>
      <trkpt lat="48.27993" lon="-2.87563">
        <ele>149</ele>
        <time>2020-10-16T14:14:46.000Z</time>
      </trkpt>
      <trkpt lat="48.27993" lon="-2.87563">
        <ele>149</ele>
        <time>2020-10-16T14:14:47.000Z</time>
      </trkpt>
      <trkpt lat="48.27993" lon="-2.87563">
        <ele>149</ele>
        <time>2020-10-16T14:14:48.000Z</time>
      </trkpt>
      <trkpt lat="48.27993" lon="-2.87563">
        <ele>149</ele>
        <time>2020-10-16T14:14:49.000Z</time>
      </trkpt>
      <trkpt lat="48.27993" lon="-2.87563">
        <ele>149</ele>
        <time>2020-10-16T14:14:50.000Z</time>
      </trkpt>
      <trkpt lat="48.27993" lon="-2.87563">
        <ele>149</ele>
        <time>2020-10-16T14:14:51.000Z</time>
      </trkpt>
      <trkpt lat="48.27993" lon="-2.87563">
        <ele>149</ele>
        <time>2020-10-16T14:14:52.000Z</time>
      </trkpt>
      <trkpt lat="48.27993" lon="-2.87563">
        <ele>149</ele>
        <time>2020-10-16T14:14:53.000Z</time>
      </trkpt>
      <trkpt lat="48.27993" lon="-2.87563">
        <ele>149</ele>
        <time>2020-10-16T14:14:54.000Z</time>
      </trkpt>
      <trkpt lat="48.27993" lon="-2.87563">
        <ele>149</ele>
        <time>2020-10-16T14:14:55.000Z</time>
      </trkpt>
      <trkpt lat="48.27993" lon="-2.87563">
        <ele>149</ele>
        <time>2020-10-16T14:14:56.000Z</time>
      </trkpt>
      <trkpt lat="48.27993" lon="-2.87563">
        <ele>149</ele>
        <time>2020-10-16T14:14:57.000Z</time>
      </trkpt>
      <trkpt lat="48.27993" lon="-2.87563">
        <ele>149</ele>
        <time>2020-10-16T14:14:58.000Z</time>
      </trkpt>
      <trkpt lat="48.27993" lon="-2.87563">
        <ele>149</ele>
        <time>2020-10-16T14:14:59.000Z</time>
      </trkpt>
      <trkpt lat="48.27993" lon="-2.87563">
        <ele>149</ele>
        <time>2020-10-16T14:15:00.000Z</time>
      </trkpt>
      <trkpt lat="48.27993" lon="-2.87563">
        <ele>149</ele>
        <time>2020-10-16T14:15:01.000Z</time>
      </trkpt>
      <trkpt lat="48.27993" lon="-2.87563">
        <ele>149</ele>
        <time>2020-10-16T14:15:02.000Z</time>
      </trkpt>
      <trkpt lat="48.27993" lon="-2.87563">
        <ele>149</ele>
        <time>2020-10-16T14:15:03.000Z</time>
      </trkpt>
      <trkpt lat="48.27993" lon="-2.87563">
        <ele>149</ele>
        <time>2020-10-16T14:15:04.000Z</time>
      </trkpt>
      <trkpt lat="48.27993" lon="-2.87563">
        <ele>149</ele>
        <time>2020-10-16T14:15:05.000Z</time>
      </trkpt>
      <trkpt lat="48.27993" lon="-2.87563">
        <ele>149</ele>
        <time>2020-10-16T14:15:06.000Z</time>
      </trkpt>
      <trkpt lat="48.27993" lon="-2.87563">
        <ele>149</ele>
        <time>2020-10-16T14:15:07.000Z</time>
      </trkpt>
      <trkpt lat="48.27993" lon="-2.87563">
        <ele>149</ele>
        <time>2020-10-16T14:15:08.000Z</time>
      </trkpt>
      <trkpt lat="48.27993" lon="-2.87563">
        <ele>149</ele>
        <time>2020-10-16T14:15:09.000Z</time>
      </trkpt>
      <trkpt lat="48.27993" lon="-2.87563">
        <ele>149</ele>
        <time>2020-10-16T14:15:10.000Z</time>
      </trkpt>
      <trkpt lat="48.27993" lon="-2.87563">
        <ele>149</ele>
        <time>2020-10-16T14:15:11.000Z</time>
      </trkpt>
      <trkpt lat="48.27993" lon="-2.87563">
        <ele>149</ele>
        <time>2020-10-16T14:15:12.000Z</time>
      </trkpt>
      <trkpt lat="48.27993" lon="-2.87563">
        <ele>149</ele>
        <time>2020-10-16T14:15:13.000Z</time>
      </trkpt>
      <trkpt lat="48.27993" lon="-2.87563">
        <ele>149</ele>
        <time>2020-10-16T14:15:14.000Z</time>
      </trkpt>
      <trkpt lat="48.27993" lon="-2.87563">
        <ele>149</ele>
        <time>2020-10-16T14:15:15.000Z</time>
      </trkpt>
      <trkpt lat="48.27993" lon="-2.87563">
        <ele>149</ele>
        <time>2020-10-16T14:15:16.000Z</time>
      </trkpt>
      <trkpt lat="48.27993" lon="-2.87563">
        <ele>149</ele>
        <time>2020-10-16T14:15:17.000Z</time>
      </trkpt>
      <trkpt lat="48.27993" lon="-2.87563">
        <ele>149</ele>
        <time>2020-10-16T14:15:18.000Z</time>
      </trkpt>
      <trkpt lat="48.27993" lon="-2.87563">
        <ele>149</ele>
        <time>2020-10-16T14:15:19.000Z</time>
      </trkpt>
      <trkpt lat="48.27993" lon="-2.87563">
        <ele>149</ele>
        <time>2020-10-16T14:15:20.000Z</time>
      </trkpt>
      <trkpt lat="48.27993" lon="-2.87563">
        <ele>149</ele>
        <time>2020-10-16T14:15:21.000Z</time>
      </trkpt>
      <trkpt lat="48.27993" lon="-2.87563">
        <ele>149</ele>
        <time>2020-10-16T14:15:22.000Z</time>
      </trkpt>
      <trkpt lat="48.27993" lon="-2.87563">
        <ele>149</ele>
        <time>2020-10-16T14:15:23.000Z</time>
      </trkpt>
      <trkpt lat="48.27993" lon="-2.87563">
        <ele>149</ele>
        <time>2020-10-16T14:15:24.000Z</time>
      </trkpt>
      <trkpt lat="48.27993" lon="-2.87563">
        <ele>149</ele>
        <time>2020-10-16T14:15:25.000Z</time>
      </trkpt>
      <trkpt lat="48.27993" lon="-2.87563">
        <ele>149</ele>
        <time>2020-10-16T14:15:26.000Z</time>
      </trkpt>
      <trkpt lat="48.27993" lon="-2.87563">
        <ele>149</ele>
        <time>2020-10-16T14:15:27.000Z</time>
      </trkpt>
      <trkpt lat="48.27993" lon="-2.87563">
        <ele>149</ele>
        <time>2020-10-16T14:15:28.000Z</time>
      </trkpt>
      <trkpt lat="48.27993" lon="-2.87563">
        <ele>149</ele>
        <time>2020-10-16T14:15:29.000Z</time>
      </trkpt>
      <trkpt lat="48.27993" lon="-2.87563">
        <ele>149</ele>
        <time>2020-10-16T14:15:30.000Z</time>
      </trkpt>
      <trkpt lat="48.27993" lon="-2.87563">
        <ele>149</ele>
        <time>2020-10-16T14:15:31.000Z</time>
      </trkpt>
      <trkpt lat="48.27993" lon="-2.87563">
        <ele>149</ele>
        <time>2020-10-16T14:15:32.000Z</time>
      </trkpt>
      <trkpt lat="48.27993" lon="-2.87563">
        <ele>149</ele>
        <time>2020-10-16T14:15:33.000Z</time>
      </trkpt>
      <trkpt lat="48.27993" lon="-2.87563">
        <ele>149</ele>
        <time>2020-10-16T14:15:34.000Z</time>
      </trkpt>
      <trkpt lat="48.27993" lon="-2.87563">
        <ele>149</ele>
        <time>2020-10-16T14:15:35.000Z</time>
      </trkpt>
      <trkpt lat="48.27993" lon="-2.87563">
        <ele>149</ele>
        <time>2020-10-16T14:15:36.000Z</time>
      </trkpt>
      <trkpt lat="48.27993" lon="-2.87563">
        <ele>149</ele>
        <time>2020-10-16T14:15:37.000Z</time>
      </trkpt>
      <trkpt lat="48.27993" lon="-2.87563">
        <ele>149</ele>
        <time>2020-10-16T14:15:38.000Z</time>
      </trkpt>
      <trkpt lat="48.27993" lon="-2.87563">
        <ele>149</ele>
        <time>2020-10-16T14:15:39.000Z</time>
      </trkpt>
      <trkpt lat="48.27993" lon="-2.87563">
        <ele>149</ele>
        <time>2020-10-16T14:15:40.000Z</time>
      </trkpt>
      <trkpt lat="48.27993" lon="-2.87563">
        <ele>149</ele>
        <time>2020-10-16T14:15:41.000Z</time>
      </trkpt>
      <trkpt lat="48.27993" lon="-2.87563">
        <ele>149</ele>
        <time>2020-10-16T14:15:42.000Z</time>
      </trkpt>
      <trkpt lat="48.27993" lon="-2.87563">
        <ele>149</ele>
        <time>2020-10-16T14:15:43.000Z</time>
      </trkpt>
      <trkpt lat="48.27993" lon="-2.87563">
        <ele>149</ele>
        <time>2020-10-16T14:15:44.000Z</time>
      </trkpt>
      <trkpt lat="48.27993" lon="-2.87563">
        <ele>149</ele>
        <time>2020-10-16T14:15:45.000Z</time>
      </trkpt>
      <trkpt lat="48.27993" lon="-2.87563">
        <ele>149</ele>
        <time>2020-10-16T14:15:46.000Z</time>
      </trkpt>
      <trkpt lat="48.27993" lon="-2.87563">
        <ele>149</ele>
        <time>2020-10-16T14:15:47.000Z</time>
      </trkpt>
      <trkpt lat="48.27993" lon="-2.87563">
        <ele>149</ele>
        <time>2020-10-16T14:15:48.000Z</time>
      </trkpt>
      <trkpt lat="48.27993" lon="-2.87564">
        <ele>149</ele>
        <time>2020-10-16T14:15:49.000Z</time>
      </trkpt>
      <trkpt lat="48.27993" lon="-2.87564">
        <ele>149</ele>
        <time>2020-10-16T14:15:50.000Z</time>
      </trkpt>
      <trkpt lat="48.27993" lon="-2.87564">
        <ele>149</ele>
        <time>2020-10-16T14:15:51.000Z</time>
      </trkpt>
      <trkpt lat="48.27993" lon="-2.87564">
        <ele>149</ele>
        <time>2020-10-16T14:15:52.000Z</time>
      </trkpt>
      <trkpt lat="48.27993" lon="-2.87564">
        <ele>149</ele>
        <time>2020-10-16T14:15:53.000Z</time>
      </trkpt>
      <trkpt lat="48.27993" lon="-2.87564">
        <ele>149</ele>
        <time>2020-10-16T14:15:54.000Z</time>
      </trkpt>
      <trkpt lat="48.27993" lon="-2.87564">
        <ele>149</ele>
        <time>2020-10-16T14:15:55.000Z</time>
      </trkpt>
      <trkpt lat="48.27993" lon="-2.87564">
        <ele>149</ele>
        <time>2020-10-16T14:15:56.000Z</time>
      </trkpt>
      <trkpt lat="48.27993" lon="-2.87564">
        <ele>149</ele>
        <time>2020-10-16T14:15:57.000Z</time>
      </trkpt>
      <trkpt lat="48.27993" lon="-2.87564">
        <ele>149</ele>
        <time>2020-10-16T14:15:58.000Z</time>
      </trkpt>
      <trkpt lat="48.27993" lon="-2.87564">
        <ele>149</ele>
        <time>2020-10-16T14:15:59.000Z</time>
      </trkpt>
      <trkpt lat="48.27993" lon="-2.87564">
        <ele>149</ele>
        <time>2020-10-16T14:16:00.000Z</time>
      </trkpt>
      <trkpt lat="48.27993" lon="-2.87564">
        <ele>149</ele>
        <time>2020-10-16T14:16:01.000Z</time>
      </trkpt>
      <trkpt lat="48.27993" lon="-2.87564">
        <ele>149</ele>
        <time>2020-10-16T14:16:02.000Z</time>
      </trkpt>
      <trkpt lat="48.27993" lon="-2.87564">
        <ele>149</ele>
        <time>2020-10-16T14:16:03.000Z</time>
      </trkpt>
      <trkpt lat="48.27993" lon="-2.87564">
        <ele>149</ele>
        <time>2020-10-16T14:16:04.000Z</time>
      </trkpt>
      <trkpt lat="48.27993" lon="-2.87564">
        <ele>149</ele>
        <time>2020-10-16T14:16:05.000Z</time>
      </trkpt>
      <trkpt lat="48.27993" lon="-2.87564">
        <ele>149</ele>
        <time>2020-10-16T14:16:06.000Z</time>
      </trkpt>
      <trkpt lat="48.27993" lon="-2.87564">
        <ele>149</ele>
        <time>2020-10-16T14:16:07.000Z</time>
      </trkpt>
      <trkpt lat="48.27993" lon="-2.87564">
        <ele>149</ele>
        <time>2020-10-16T14:16:08.000Z</time>
      </trkpt>
      <trkpt lat="48.27993" lon="-2.87564">
        <ele>149</ele>
        <time>2020-10-16T14:16:09.000Z</time>
      </trkpt>
      <trkpt lat="48.27993" lon="-2.87564">
        <ele>149</ele>
        <time>2020-10-16T14:16:10.000Z</time>
      </trkpt>
      <trkpt lat="48.27993" lon="-2.87564">
        <ele>149</ele>
        <time>2020-10-16T14:16:11.000Z</time>
      </trkpt>
      <trkpt lat="48.27993" lon="-2.87564">
        <ele>149</ele>
        <time>2020-10-16T14:16:12.000Z</time>
      </trkpt>
      <trkpt lat="48.27993" lon="-2.87564">
        <ele>149</ele>
        <time>2020-10-16T14:16:13.000Z</time>
      </trkpt>
      <trkpt lat="48.27993" lon="-2.87564">
        <ele>149</ele>
        <time>2020-10-16T14:16:14.000Z</time>
      </trkpt>
      <trkpt lat="48.27993" lon="-2.87564">
        <ele>149</ele>
        <time>2020-10-16T14:16:15.000Z</time>
      </trkpt>
      <trkpt lat="48.27993" lon="-2.87564">
        <ele>149</ele>
        <time>2020-10-16T14:16:16.000Z</time>
      </trkpt>
      <trkpt lat="48.27993" lon="-2.87564">
        <ele>149</ele>
        <time>2020-10-16T14:16:17.000Z</time>
      </trkpt>
      <trkpt lat="48.27993" lon="-2.87564">
        <ele>149</ele>
        <time>2020-10-16T14:16:18.000Z</time>
      </trkpt>
      <trkpt lat="48.27993" lon="-2.87564">
        <ele>149</ele>
        <time>2020-10-16T14:16:19.000Z</time>
      </trkpt>
      <trkpt lat="48.27993" lon="-2.87564">
        <ele>149</ele>
        <time>2020-10-16T14:16:20.000Z</time>
      </trkpt>
      <trkpt lat="48.27993" lon="-2.87564">
        <ele>149</ele>
        <time>2020-10-16T14:16:21.000Z</time>
      </trkpt>
      <trkpt lat="48.27993" lon="-2.87564">
        <ele>149</ele>
        <time>2020-10-16T14:16:22.000Z</time>
      </trkpt>
      <trkpt lat="48.27993" lon="-2.87564">
        <ele>149</ele>
        <time>2020-10-16T14:16:23.000Z</time>
      </trkpt>
      <trkpt lat="48.27993" lon="-2.87564">
        <ele>149</ele>
        <time>2020-10-16T14:16:24.000Z</time>
      </trkpt>
      <trkpt lat="48.27993" lon="-2.87564">
        <ele>149</ele>
        <time>2020-10-16T14:16:25.000Z</time>
      </trkpt>
      <trkpt lat="48.27993" lon="-2.87564">
        <ele>149</ele>
        <time>2020-10-16T14:16:26.000Z</time>
      </trkpt>
      <trkpt lat="48.27993" lon="-2.87564">
        <ele>149</ele>
        <time>2020-10-16T14:16:27.000Z</time>
      </trkpt>
      <trkpt lat="48.27993" lon="-2.87564">
        <ele>149</ele>
        <time>2020-10-16T14:16:28.000Z</time>
      </trkpt>
      <trkpt lat="48.27993" lon="-2.87564">
        <ele>149</ele>
        <time>2020-10-16T14:16:29.000Z</time>
      </trkpt>
      <trkpt lat="48.27993" lon="-2.87564">
        <ele>149</ele>
        <time>2020-10-16T14:16:30.000Z</time>
      </trkpt>
      <trkpt lat="48.27993" lon="-2.87564">
        <ele>149</ele>
        <time>2020-10-16T14:16:31.000Z</time>
      </trkpt>
      <trkpt lat="48.27993" lon="-2.87564">
        <ele>149</ele>
        <time>2020-10-16T14:16:32.000Z</time>
      </trkpt>
      <trkpt lat="48.27993" lon="-2.87564">
        <ele>149</ele>
        <time>2020-10-16T14:16:33.000Z</time>
      </trkpt>
      <trkpt lat="48.27993" lon="-2.87564">
        <ele>149</ele>
        <time>2020-10-16T14:16:34.000Z</time>
      </trkpt>
      <trkpt lat="48.27993" lon="-2.87564">
        <ele>149</ele>
        <time>2020-10-16T14:16:35.000Z</time>
      </trkpt>
      <trkpt lat="48.27993" lon="-2.87564">
        <ele>149</ele>
        <time>2020-10-16T14:16:36.000Z</time>
      </trkpt>
      <trkpt lat="48.27993" lon="-2.87564">
        <ele>149</ele>
        <time>2020-10-16T14:16:37.000Z</time>
      </trkpt>
      <trkpt lat="48.27993" lon="-2.87564">
        <ele>149</ele>
        <time>2020-10-16T14:16:38.000Z</time>
      </trkpt>
      <trkpt lat="48.27993" lon="-2.87564">
        <ele>149</ele>
        <time>2020-10-16T14:16:39.000Z</time>
      </trkpt>
      <trkpt lat="48.27993" lon="-2.87564">
        <ele>149</ele>
        <time>2020-10-16T14:16:40.000Z</time>
      </trkpt>
      <trkpt lat="48.27993" lon="-2.87564">
        <ele>149</ele>
        <time>2020-10-16T14:16:41.000Z</time>
      </trkpt>
      <trkpt lat="48.27993" lon="-2.87564">
        <ele>149</ele>
        <time>2020-10-16T14:16:42.000Z</time>
      </trkpt>
      <trkpt lat="48.27993" lon="-2.87564">
        <ele>149</ele>
        <time>2020-10-16T14:16:43.000Z</time>
      </trkpt>
      <trkpt lat="48.27993" lon="-2.87564">
        <ele>149</ele>
        <time>2020-10-16T14:16:44.000Z</time>
      </trkpt>
      <trkpt lat="48.27993" lon="-2.87564">
        <ele>149</ele>
        <time>2020-10-16T14:16:45.000Z</time>
      </trkpt>
      <trkpt lat="48.27993" lon="-2.87564">
        <ele>149</ele>
        <time>2020-10-16T14:16:46.000Z</time>
      </trkpt>
      <trkpt lat="48.27993" lon="-2.87564">
        <ele>149</ele>
        <time>2020-10-16T14:16:47.000Z</time>
      </trkpt>
      <trkpt lat="48.27993" lon="-2.87564">
        <ele>149</ele>
        <time>2020-10-16T14:16:48.000Z</time>
      </trkpt>
      <trkpt lat="48.27993" lon="-2.87564">
        <ele>149</ele>
        <time>2020-10-16T14:16:49.000Z</time>
      </trkpt>
      <trkpt lat="48.27993" lon="-2.87564">
        <ele>149</ele>
        <time>2020-10-16T14:16:50.000Z</time>
      </trkpt>
      <trkpt lat="48.27993" lon="-2.87564">
        <ele>149</ele>
        <time>2020-10-16T14:16:51.000Z</time>
      </trkpt>
      <trkpt lat="48.27993" lon="-2.87564">
        <ele>149</ele>
        <time>2020-10-16T14:16:52.000Z</time>
      </trkpt>
      <trkpt lat="48.27993" lon="-2.87564">
        <ele>149</ele>
        <time>2020-10-16T14:16:53.000Z</time>
      </trkpt>
      <trkpt lat="48.27993" lon="-2.87564">
        <ele>149</ele>
        <time>2020-10-16T14:16:54.000Z</time>
      </trkpt>
      <trkpt lat="48.27993" lon="-2.87564">
        <ele>149</ele>
        <time>2020-10-16T14:16:55.000Z</time>
      </trkpt>
      <trkpt lat="48.27993" lon="-2.87564">
        <ele>149</ele>
        <time>2020-10-16T14:16:56.000Z</time>
      </trkpt>
      <trkpt lat="48.27993" lon="-2.87564">
        <ele>149</ele>
        <time>2020-10-16T14:16:57.000Z</time>
      </trkpt>
      <trkpt lat="48.27993" lon="-2.87564">
        <ele>149</ele>
        <time>2020-10-16T14:16:58.000Z</time>
      </trkpt>
      <trkpt lat="48.27993" lon="-2.87564">
        <ele>149</ele>
        <time>2020-10-16T14:16:59.000Z</time>
      </trkpt>
      <trkpt lat="48.27993" lon="-2.87564">
        <ele>149</ele>
        <time>2020-10-16T14:17:00.000Z</time>
      </trkpt>
      <trkpt lat="48.27993" lon="-2.87564">
        <ele>149</ele>
        <time>2020-10-16T14:17:01.000Z</time>
      </trkpt>
      <trkpt lat="48.27993" lon="-2.87564">
        <ele>149</ele>
        <time>2020-10-16T14:17:02.000Z</time>
      </trkpt>
      <trkpt lat="48.27993" lon="-2.87564">
        <ele>149</ele>
        <time>2020-10-16T14:17:03.000Z</time>
      </trkpt>
      <trkpt lat="48.27993" lon="-2.87564">
        <ele>149</ele>
        <time>2020-10-16T14:17:04.000Z</time>
      </trkpt>
      <trkpt lat="48.27993" lon="-2.87565">
        <ele>149</ele>
        <time>2020-10-16T14:17:05.000Z</time>
      </trkpt>
      <trkpt lat="48.27993" lon="-2.87565">
        <ele>149</ele>
        <time>2020-10-16T14:17:06.000Z</time>
      </trkpt>
      <trkpt lat="48.27993" lon="-2.87565">
        <ele>149</ele>
        <time>2020-10-16T14:17:07.000Z</time>
      </trkpt>
      <trkpt lat="48.27993" lon="-2.87565">
        <ele>149</ele>
        <time>2020-10-16T14:17:08.000Z</time>
      </trkpt>
      <trkpt lat="48.27993" lon="-2.87565">
        <ele>149</ele>
        <time>2020-10-16T14:17:09.000Z</time>
      </trkpt>
      <trkpt lat="48.27994" lon="-2.87565">
        <ele>149</ele>
        <time>2020-10-16T14:17:10.000Z</time>
      </trkpt>
      <trkpt lat="48.27994" lon="-2.87565">
        <ele>149</ele>
        <time>2020-10-16T14:17:11.000Z</time>
      </trkpt>
      <trkpt lat="48.27994" lon="-2.87565">
        <ele>149</ele>
        <time>2020-10-16T14:17:12.000Z</time>
      </trkpt>
      <trkpt lat="48.27994" lon="-2.87565">
        <ele>149</ele>
        <time>2020-10-16T14:17:13.000Z</time>
      </trkpt>
      <trkpt lat="48.27994" lon="-2.87565">
        <ele>149</ele>
        <time>2020-10-16T14:17:14.000Z</time>
      </trkpt>
      <trkpt lat="48.27994" lon="-2.87565">
        <ele>149</ele>
        <time>2020-10-16T14:17:15.000Z</time>
      </trkpt>
      <trkpt lat="48.27994" lon="-2.87565">
        <ele>149</ele>
        <time>2020-10-16T14:17:16.000Z</time>
      </trkpt>
      <trkpt lat="48.27994" lon="-2.87565">
        <ele>149</ele>
        <time>2020-10-16T14:17:17.000Z</time>
      </trkpt>
      <trkpt lat="48.27994" lon="-2.87565">
        <ele>149</ele>
        <time>2020-10-16T14:17:18.000Z</time>
      </trkpt>
      <trkpt lat="48.27994" lon="-2.87565">
        <ele>149</ele>
        <time>2020-10-16T14:17:19.000Z</time>
      </trkpt>
      <trkpt lat="48.27995" lon="-2.87565">
        <ele>149</ele>
        <time>2020-10-16T14:17:20.000Z</time>
      </trkpt>
      <trkpt lat="48.27995" lon="-2.87565">
        <ele>149</ele>
        <time>2020-10-16T14:17:21.000Z</time>
      </trkpt>
      <trkpt lat="48.27996" lon="-2.87565">
        <ele>149</ele>
        <time>2020-10-16T14:17:22.000Z</time>
      </trkpt>
      <trkpt lat="48.27999" lon="-2.87567">
        <ele>148.80000305176</ele>
        <time>2020-10-16T14:17:23.000Z</time>
      </trkpt>
      <trkpt lat="48.27999" lon="-2.87567">
        <ele>148.80000305176</ele>
        <time>2020-10-16T14:17:24.000Z</time>
      </trkpt>
      <trkpt lat="48.28001" lon="-2.87568">
        <ele>148.80000305176</ele>
        <time>2020-10-16T14:17:25.000Z</time>
      </trkpt>
      <trkpt lat="48.28003" lon="-2.8757">
        <ele>148.80000305176</ele>
        <time>2020-10-16T14:17:26.000Z</time>
      </trkpt>
      <trkpt lat="48.28005" lon="-2.87572">
        <ele>148.80000305176</ele>
        <time>2020-10-16T14:17:27.000Z</time>
      </trkpt>
      <trkpt lat="48.28007" lon="-2.87574">
        <ele>149</ele>
        <time>2020-10-16T14:17:28.000Z</time>
      </trkpt>
      <trkpt lat="48.28009" lon="-2.87576">
        <ele>149</ele>
        <time>2020-10-16T14:17:29.000Z</time>
      </trkpt>
      <trkpt lat="48.28011" lon="-2.87578">
        <ele>149</ele>
        <time>2020-10-16T14:17:30.000Z</time>
      </trkpt>
      <trkpt lat="48.28013" lon="-2.8758">
        <ele>149</ele>
        <time>2020-10-16T14:17:31.000Z</time>
      </trkpt>
      <trkpt lat="48.28015" lon="-2.87582">
        <ele>149</ele>
        <time>2020-10-16T14:17:32.000Z</time>
      </trkpt>
      <trkpt lat="48.28017" lon="-2.87585">
        <ele>149</ele>
        <time>2020-10-16T14:17:33.000Z</time>
      </trkpt>
      <trkpt lat="48.2802" lon="-2.87588">
        <ele>149</ele>
        <time>2020-10-16T14:17:34.000Z</time>
      </trkpt>
      <trkpt lat="48.28024" lon="-2.87592">
        <ele>148.80000305176</ele>
        <time>2020-10-16T14:17:35.000Z</time>
      </trkpt>
      <trkpt lat="48.28027" lon="-2.87596">
        <ele>148.60000610352</ele>
        <time>2020-10-16T14:17:36.000Z</time>
      </trkpt>
      <trkpt lat="48.28031" lon="-2.876">
        <ele>148.60000610352</ele>
        <time>2020-10-16T14:17:37.000Z</time>
      </trkpt>
      <trkpt lat="48.28035" lon="-2.87605">
        <ele>148.39999389648</ele>
        <time>2020-10-16T14:17:38.000Z</time>
      </trkpt>
      <trkpt lat="48.28039" lon="-2.8761">
        <ele>148.19999694824</ele>
        <time>2020-10-16T14:17:39.000Z</time>
      </trkpt>
      <trkpt lat="48.28044" lon="-2.87615">
        <ele>148.19999694824</ele>
        <time>2020-10-16T14:17:40.000Z</time>
      </trkpt>
      <trkpt lat="48.28048" lon="-2.87621">
        <ele>148</ele>
        <time>2020-10-16T14:17:41.000Z</time>
      </trkpt>
      <trkpt lat="48.28051" lon="-2.87626">
        <ele>148</ele>
        <time>2020-10-16T14:17:42.000Z</time>
      </trkpt>
      <trkpt lat="48.28054" lon="-2.8763">
        <ele>148</ele>
        <time>2020-10-16T14:17:43.000Z</time>
      </trkpt>
      <trkpt lat="48.28057" lon="-2.87635">
        <ele>148</ele>
        <time>2020-10-16T14:17:44.000Z</time>
      </trkpt>
      <trkpt lat="48.2806" lon="-2.8764">
        <ele>148.19999694824</ele>
        <time>2020-10-16T14:17:45.000Z</time>
      </trkpt>
      <trkpt lat="48.28063" lon="-2.87645">
        <ele>148.39999389648</ele>
        <time>2020-10-16T14:17:46.000Z</time>
      </trkpt>
      <trkpt lat="48.28065" lon="-2.8765">
        <ele>148.60000610352</ele>
        <time>2020-10-16T14:17:47.000Z</time>
      </trkpt>
      <trkpt lat="48.28067" lon="-2.87656">
        <ele>149</ele>
        <time>2020-10-16T14:17:48.000Z</time>
      </trkpt>
      <trkpt lat="48.28069" lon="-2.87661">
        <ele>149.19999694824</ele>
        <time>2020-10-16T14:17:49.000Z</time>
      </trkpt>
      <trkpt lat="48.2807" lon="-2.87666">
        <ele>149.39999389648</ele>
        <time>2020-10-16T14:17:50.000Z</time>
      </trkpt>
      <trkpt lat="48.28072" lon="-2.87671">
        <ele>149.80000305176</ele>
        <time>2020-10-16T14:17:51.000Z</time>
      </trkpt>
      <trkpt lat="48.28073" lon="-2.87676">
        <ele>150.19999694824</ele>
        <time>2020-10-16T14:17:52.000Z</time>
      </trkpt>
      <trkpt lat="48.28075" lon="-2.87681">
        <ele>150.39999389648</ele>
        <time>2020-10-16T14:17:53.000Z</time>
      </trkpt>
      <trkpt lat="48.28076" lon="-2.87687">
        <ele>150.80000305176</ele>
        <time>2020-10-16T14:17:54.000Z</time>
      </trkpt>
      <trkpt lat="48.28078" lon="-2.87692">
        <ele>151</ele>
        <time>2020-10-16T14:17:55.000Z</time>
      </trkpt>
      <trkpt lat="48.2808" lon="-2.87697">
        <ele>151.39999389648</ele>
        <time>2020-10-16T14:17:56.000Z</time>
      </trkpt>
      <trkpt lat="48.28082" lon="-2.87702">
        <ele>151.60000610352</ele>
        <time>2020-10-16T14:17:57.000Z</time>
      </trkpt>
      <trkpt lat="48.28084" lon="-2.87707">
        <ele>152</ele>
        <time>2020-10-16T14:17:58.000Z</time>
      </trkpt>
      <trkpt lat="48.28087" lon="-2.87711">
        <ele>152.19999694824</ele>
        <time>2020-10-16T14:17:59.000Z</time>
      </trkpt>
      <trkpt lat="48.28093" lon="-2.8772">
        <ele>152.39999389648</ele>
        <time>2020-10-16T14:18:00.000Z</time>
      </trkpt>
      <trkpt lat="48.28093" lon="-2.8772">
        <ele>152.39999389648</ele>
        <time>2020-10-16T14:18:01.000Z</time>
      </trkpt>
      <trkpt lat="48.28099" lon="-2.87727">
        <ele>152.60000610352</ele>
        <time>2020-10-16T14:18:02.000Z</time>
      </trkpt>
      <trkpt lat="48.28102" lon="-2.87731">
        <ele>153</ele>
        <time>2020-10-16T14:18:03.000Z</time>
      </trkpt>
      <trkpt lat="48.28102" lon="-2.87731">
        <ele>153</ele>
        <time>2020-10-16T14:18:04.000Z</time>
      </trkpt>
      <trkpt lat="48.28104" lon="-2.87735">
        <ele>153</ele>
        <time>2020-10-16T14:18:05.000Z</time>
      </trkpt>
      <trkpt lat="48.28107" lon="-2.87738">
        <ele>153.19999694824</ele>
        <time>2020-10-16T14:18:06.000Z</time>
      </trkpt>
      <trkpt lat="48.2811" lon="-2.87742">
        <ele>153.39999389648</ele>
        <time>2020-10-16T14:18:07.000Z</time>
      </trkpt>
      <trkpt lat="48.28114" lon="-2.87744">
        <ele>153.39999389648</ele>
        <time>2020-10-16T14:18:08.000Z</time>
      </trkpt>
      <trkpt lat="48.28118" lon="-2.87747">
        <ele>153.39999389648</ele>
        <time>2020-10-16T14:18:09.000Z</time>
      </trkpt>
      <trkpt lat="48.28123" lon="-2.87751">
        <ele>153.39999389648</ele>
        <time>2020-10-16T14:18:10.000Z</time>
      </trkpt>
      <trkpt lat="48.28127" lon="-2.87754">
        <ele>153.19999694824</ele>
        <time>2020-10-16T14:18:11.000Z</time>
      </trkpt>
      <trkpt lat="48.28131" lon="-2.87757">
        <ele>153.19999694824</ele>
        <time>2020-10-16T14:18:12.000Z</time>
      </trkpt>
      <trkpt lat="48.28137" lon="-2.8776">
        <ele>153</ele>
        <time>2020-10-16T14:18:13.000Z</time>
      </trkpt>
      <trkpt lat="48.28142" lon="-2.87762">
        <ele>153</ele>
        <time>2020-10-16T14:18:14.000Z</time>
      </trkpt>
      <trkpt lat="48.28146" lon="-2.87762">
        <ele>152.60000610352</ele>
        <time>2020-10-16T14:18:15.000Z</time>
      </trkpt>
      <trkpt lat="48.2815" lon="-2.87761">
        <ele>152</ele>
        <time>2020-10-16T14:18:16.000Z</time>
      </trkpt>
      <trkpt lat="48.28155" lon="-2.87759">
        <ele>151.39999389648</ele>
        <time>2020-10-16T14:18:17.000Z</time>
      </trkpt>
      <trkpt lat="48.2816" lon="-2.87757">
        <ele>150.80000305176</ele>
        <time>2020-10-16T14:18:18.000Z</time>
      </trkpt>
      <trkpt lat="48.28164" lon="-2.87755">
        <ele>150.19999694824</ele>
        <time>2020-10-16T14:18:19.000Z</time>
      </trkpt>
      <trkpt lat="48.28169" lon="-2.87753">
        <ele>149.60000610352</ele>
        <time>2020-10-16T14:18:20.000Z</time>
      </trkpt>
      <trkpt lat="48.28174" lon="-2.8775">
        <ele>148.80000305176</ele>
        <time>2020-10-16T14:18:21.000Z</time>
      </trkpt>
      <trkpt lat="48.28178" lon="-2.87747">
        <ele>148.19999694824</ele>
        <time>2020-10-16T14:18:22.000Z</time>
      </trkpt>
      <trkpt lat="48.28182" lon="-2.87744">
        <ele>147.80000305176</ele>
        <time>2020-10-16T14:18:23.000Z</time>
      </trkpt>
      <trkpt lat="48.28186" lon="-2.87741">
        <ele>147.60000610352</ele>
        <time>2020-10-16T14:18:24.000Z</time>
      </trkpt>
      <trkpt lat="48.28189" lon="-2.87738">
        <ele>147.39999389648</ele>
        <time>2020-10-16T14:18:25.000Z</time>
      </trkpt>
      <trkpt lat="48.28194" lon="-2.87735">
        <ele>147.19999694824</ele>
        <time>2020-10-16T14:18:26.000Z</time>
      </trkpt>
      <trkpt lat="48.28197" lon="-2.87732">
        <ele>147</ele>
        <time>2020-10-16T14:18:27.000Z</time>
      </trkpt>
      <trkpt lat="48.28201" lon="-2.8773">
        <ele>146.60000610352</ele>
        <time>2020-10-16T14:18:28.000Z</time>
      </trkpt>
      <trkpt lat="48.28205" lon="-2.87727">
        <ele>146.39999389648</ele>
        <time>2020-10-16T14:18:29.000Z</time>
      </trkpt>
      <trkpt lat="48.28209" lon="-2.87724">
        <ele>146.19999694824</ele>
        <time>2020-10-16T14:18:30.000Z</time>
      </trkpt>
      <trkpt lat="48.28218" lon="-2.87722">
        <ele>146.19999694824</ele>
        <time>2020-10-16T14:18:31.000Z</time>
      </trkpt>
      <trkpt lat="48.28218" lon="-2.87722">
        <ele>146.19999694824</ele>
        <time>2020-10-16T14:18:32.000Z</time>
      </trkpt>
      <trkpt lat="48.28222" lon="-2.87722">
        <ele>146.19999694824</ele>
        <time>2020-10-16T14:18:33.000Z</time>
      </trkpt>
      <trkpt lat="48.28226" lon="-2.87722">
        <ele>146.39999389648</ele>
        <time>2020-10-16T14:18:34.000Z</time>
      </trkpt>
      <trkpt lat="48.2823" lon="-2.87722">
        <ele>146.60000610352</ele>
        <time>2020-10-16T14:18:35.000Z</time>
      </trkpt>
      <trkpt lat="48.28234" lon="-2.87723">
        <ele>146.60000610352</ele>
        <time>2020-10-16T14:18:36.000Z</time>
      </trkpt>
      <trkpt lat="48.28237" lon="-2.87724">
        <ele>146.80000305176</ele>
        <time>2020-10-16T14:18:37.000Z</time>
      </trkpt>
      <trkpt lat="48.2824" lon="-2.87725">
        <ele>147</ele>
        <time>2020-10-16T14:18:38.000Z</time>
      </trkpt>
      <trkpt lat="48.28243" lon="-2.87726">
        <ele>147.39999389648</ele>
        <time>2020-10-16T14:18:39.000Z</time>
      </trkpt>
      <trkpt lat="48.28247" lon="-2.87728">
        <ele>147.60000610352</ele>
        <time>2020-10-16T14:18:40.000Z</time>
      </trkpt>
      <trkpt lat="48.2825" lon="-2.8773">
        <ele>147.80000305176</ele>
        <time>2020-10-16T14:18:41.000Z</time>
      </trkpt>
      <trkpt lat="48.28253" lon="-2.87731">
        <ele>148</ele>
        <time>2020-10-16T14:18:42.000Z</time>
      </trkpt>
      <trkpt lat="48.28256" lon="-2.87732">
        <ele>148.19999694824</ele>
        <time>2020-10-16T14:18:43.000Z</time>
      </trkpt>
      <trkpt lat="48.2826" lon="-2.87734">
        <ele>148.39999389648</ele>
        <time>2020-10-16T14:18:44.000Z</time>
      </trkpt>
      <trkpt lat="48.28264" lon="-2.87735">
        <ele>148.80000305176</ele>
        <time>2020-10-16T14:18:45.000Z</time>
      </trkpt>
      <trkpt lat="48.28267" lon="-2.87737">
        <ele>148.60000610352</ele>
        <time>2020-10-16T14:18:46.000Z</time>
      </trkpt>
      <trkpt lat="48.28271" lon="-2.87738">
        <ele>148.39999389648</ele>
        <time>2020-10-16T14:18:47.000Z</time>
      </trkpt>
      <trkpt lat="48.28275" lon="-2.8774">
        <ele>148.19999694824</ele>
        <time>2020-10-16T14:18:48.000Z</time>
      </trkpt>
      <trkpt lat="48.28278" lon="-2.87742">
        <ele>148</ele>
        <time>2020-10-16T14:18:49.000Z</time>
      </trkpt>
      <trkpt lat="48.28282" lon="-2.87744">
        <ele>147.80000305176</ele>
        <time>2020-10-16T14:18:50.000Z</time>
      </trkpt>
      <trkpt lat="48.28286" lon="-2.87747">
        <ele>147.60000610352</ele>
        <time>2020-10-16T14:18:51.000Z</time>
      </trkpt>
      <trkpt lat="48.28289" lon="-2.87749">
        <ele>147.60000610352</ele>
        <time>2020-10-16T14:18:52.000Z</time>
      </trkpt>
      <trkpt lat="48.28292" lon="-2.87752">
        <ele>147.39999389648</ele>
        <time>2020-10-16T14:18:53.000Z</time>
      </trkpt>
      <trkpt lat="48.28295" lon="-2.87757">
        <ele>147.60000610352</ele>
        <time>2020-10-16T14:18:54.000Z</time>
      </trkpt>
      <trkpt lat="48.28298" lon="-2.87762">
        <ele>147.19999694824</ele>
        <time>2020-10-16T14:18:55.000Z</time>
      </trkpt>
      <trkpt lat="48.283" lon="-2.87768">
        <ele>147.19999694824</ele>
        <time>2020-10-16T14:18:56.000Z</time>
      </trkpt>
      <trkpt lat="48.28302" lon="-2.87774">
        <ele>147</ele>
        <time>2020-10-16T14:18:57.000Z</time>
      </trkpt>
      <trkpt lat="48.28303" lon="-2.8778">
        <ele>147</ele>
        <time>2020-10-16T14:18:58.000Z</time>
      </trkpt>
      <trkpt lat="48.28303" lon="-2.87785">
        <ele>147</ele>
        <time>2020-10-16T14:18:59.000Z</time>
      </trkpt>
      <trkpt lat="48.28302" lon="-2.87791">
        <ele>147.19999694824</ele>
        <time>2020-10-16T14:19:00.000Z</time>
      </trkpt>
      <trkpt lat="48.28301" lon="-2.87801">
        <ele>147.39999389648</ele>
        <time>2020-10-16T14:19:01.000Z</time>
      </trkpt>
      <trkpt lat="48.28301" lon="-2.87801">
        <ele>147.39999389648</ele>
        <time>2020-10-16T14:19:02.000Z</time>
      </trkpt>
      <trkpt lat="48.283" lon="-2.87805">
        <ele>147.80000305176</ele>
        <time>2020-10-16T14:19:03.000Z</time>
      </trkpt>
      <trkpt lat="48.28299" lon="-2.87809">
        <ele>148.19999694824</ele>
        <time>2020-10-16T14:19:04.000Z</time>
      </trkpt>
      <trkpt lat="48.28295" lon="-2.87815">
        <ele>148.80000305176</ele>
        <time>2020-10-16T14:19:05.000Z</time>
      </trkpt>
      <trkpt lat="48.28295" lon="-2.87815">
        <ele>148.80000305176</ele>
        <time>2020-10-16T14:19:06.000Z</time>
      </trkpt>
      <trkpt lat="48.28293" lon="-2.87818">
        <ele>149.19999694824</ele>
        <time>2020-10-16T14:19:07.000Z</time>
      </trkpt>
      <trkpt lat="48.2829" lon="-2.8782">
        <ele>149.39999389648</ele>
        <time>2020-10-16T14:19:08.000Z</time>
      </trkpt>
      <trkpt lat="48.28288" lon="-2.87823">
        <ele>149.80000305176</ele>
        <time>2020-10-16T14:19:09.000Z</time>
      </trkpt>
      <trkpt lat="48.28285" lon="-2.87825">
        <ele>150</ele>
        <time>2020-10-16T14:19:10.000Z</time>
      </trkpt>
      <trkpt lat="48.28283" lon="-2.87829">
        <ele>150.39999389648</ele>
        <time>2020-10-16T14:19:11.000Z</time>
      </trkpt>
      <trkpt lat="48.2828" lon="-2.87834">
        <ele>151</ele>
        <time>2020-10-16T14:19:12.000Z</time>
      </trkpt>
      <trkpt lat="48.28278" lon="-2.87839">
        <ele>151.39999389648</ele>
        <time>2020-10-16T14:19:13.000Z</time>
      </trkpt>
      <trkpt lat="48.28275" lon="-2.87845">
        <ele>152</ele>
        <time>2020-10-16T14:19:14.000Z</time>
      </trkpt>
      <trkpt lat="48.28273" lon="-2.87851">
        <ele>152.39999389648</ele>
        <time>2020-10-16T14:19:15.000Z</time>
      </trkpt>
      <trkpt lat="48.28271" lon="-2.87857">
        <ele>152.80000305176</ele>
        <time>2020-10-16T14:19:16.000Z</time>
      </trkpt>
      <trkpt lat="48.28268" lon="-2.87863">
        <ele>153.19999694824</ele>
        <time>2020-10-16T14:19:17.000Z</time>
      </trkpt>
      <trkpt lat="48.28267" lon="-2.87868">
        <ele>153.60000610352</ele>
        <time>2020-10-16T14:19:18.000Z</time>
      </trkpt>
      <trkpt lat="48.28267" lon="-2.87873">
        <ele>154</ele>
        <time>2020-10-16T14:19:19.000Z</time>
      </trkpt>
      <trkpt lat="48.28267" lon="-2.87878">
        <ele>154.19999694824</ele>
        <time>2020-10-16T14:19:20.000Z</time>
      </trkpt>
      <trkpt lat="48.28268" lon="-2.87881">
        <ele>154.39999389648</ele>
        <time>2020-10-16T14:19:21.000Z</time>
      </trkpt>
      <trkpt lat="48.28268" lon="-2.87884">
        <ele>154.39999389648</ele>
        <time>2020-10-16T14:19:22.000Z</time>
      </trkpt>
      <trkpt lat="48.28268" lon="-2.87887">
        <ele>154.60000610352</ele>
        <time>2020-10-16T14:19:23.000Z</time>
      </trkpt>
      <trkpt lat="48.2827" lon="-2.87892">
        <ele>155</ele>
        <time>2020-10-16T14:19:24.000Z</time>
      </trkpt>
      <trkpt lat="48.2827" lon="-2.87892">
        <ele>155</ele>
        <time>2020-10-16T14:19:25.000Z</time>
      </trkpt>
      <trkpt lat="48.28272" lon="-2.87894">
        <ele>155</ele>
        <time>2020-10-16T14:19:26.000Z</time>
      </trkpt>
      <trkpt lat="48.28275" lon="-2.87895">
        <ele>154.80000305176</ele>
        <time>2020-10-16T14:19:27.000Z</time>
      </trkpt>
      <trkpt lat="48.28277" lon="-2.87895">
        <ele>154.80000305176</ele>
        <time>2020-10-16T14:19:28.000Z</time>
      </trkpt>
      <trkpt lat="48.2828" lon="-2.87894">
        <ele>154.60000610352</ele>
        <time>2020-10-16T14:19:29.000Z</time>
      </trkpt>
      <trkpt lat="48.28283" lon="-2.87894">
        <ele>154.60000610352</ele>
        <time>2020-10-16T14:19:30.000Z</time>
      </trkpt>
      <trkpt lat="48.28285" lon="-2.87893">
        <ele>154.39999389648</ele>
        <time>2020-10-16T14:19:31.000Z</time>
      </trkpt>
      <trkpt lat="48.28288" lon="-2.87892">
        <ele>154.19999694824</ele>
        <time>2020-10-16T14:19:32.000Z</time>
      </trkpt>
      <trkpt lat="48.28291" lon="-2.87891">
        <ele>154</ele>
        <time>2020-10-16T14:19:33.000Z</time>
      </trkpt>
      <trkpt lat="48.28294" lon="-2.8789">
        <ele>154</ele>
        <time>2020-10-16T14:19:34.000Z</time>
      </trkpt>
      <trkpt lat="48.28298" lon="-2.87889">
        <ele>153.80000305176</ele>
        <time>2020-10-16T14:19:35.000Z</time>
      </trkpt>
      <trkpt lat="48.28301" lon="-2.87889">
        <ele>153.60000610352</ele>
        <time>2020-10-16T14:19:36.000Z</time>
      </trkpt>
      <trkpt lat="48.28307" lon="-2.87888">
        <ele>153.39999389648</ele>
        <time>2020-10-16T14:19:37.000Z</time>
      </trkpt>
      <trkpt lat="48.28307" lon="-2.87888">
        <ele>153.39999389648</ele>
        <time>2020-10-16T14:19:38.000Z</time>
      </trkpt>
      <trkpt lat="48.2831" lon="-2.87887">
        <ele>153.39999389648</ele>
        <time>2020-10-16T14:19:39.000Z</time>
      </trkpt>
      <trkpt lat="48.28314" lon="-2.87887">
        <ele>153.19999694824</ele>
        <time>2020-10-16T14:19:40.000Z</time>
      </trkpt>
      <trkpt lat="48.28318" lon="-2.87887">
        <ele>153</ele>
        <time>2020-10-16T14:19:41.000Z</time>
      </trkpt>
      <trkpt lat="48.28322" lon="-2.87886">
        <ele>153</ele>
        <time>2020-10-16T14:19:42.000Z</time>
      </trkpt>
      <trkpt lat="48.28325" lon="-2.87885">
        <ele>152.80000305176</ele>
        <time>2020-10-16T14:19:43.000Z</time>
      </trkpt>
      <trkpt lat="48.28329" lon="-2.87884">
        <ele>152.60000610352</ele>
        <time>2020-10-16T14:19:44.000Z</time>
      </trkpt>
      <trkpt lat="48.28334" lon="-2.87884">
        <ele>152.39999389648</ele>
        <time>2020-10-16T14:19:45.000Z</time>
      </trkpt>
      <trkpt lat="48.28337" lon="-2.87884">
        <ele>152.39999389648</ele>
        <time>2020-10-16T14:19:46.000Z</time>
      </trkpt>
      <trkpt lat="48.2834" lon="-2.87884">
        <ele>152.39999389648</ele>
        <time>2020-10-16T14:19:47.000Z</time>
      </trkpt>
      <trkpt lat="48.28344" lon="-2.87884">
        <ele>152.19999694824</ele>
        <time>2020-10-16T14:19:48.000Z</time>
      </trkpt>
      <trkpt lat="48.28348" lon="-2.87885">
        <ele>152</ele>
        <time>2020-10-16T14:19:49.000Z</time>
      </trkpt>
      <trkpt lat="48.28352" lon="-2.87886">
        <ele>151.39999389648</ele>
        <time>2020-10-16T14:19:50.000Z</time>
      </trkpt>
      <trkpt lat="48.28355" lon="-2.87888">
        <ele>151</ele>
        <time>2020-10-16T14:19:51.000Z</time>
      </trkpt>
      <trkpt lat="48.28357" lon="-2.87891">
        <ele>150.60000610352</ele>
        <time>2020-10-16T14:19:52.000Z</time>
      </trkpt>
      <trkpt lat="48.28361" lon="-2.87894">
        <ele>150.19999694824</ele>
        <time>2020-10-16T14:19:53.000Z</time>
      </trkpt>
      <trkpt lat="48.28364" lon="-2.87898">
        <ele>149.80000305176</ele>
        <time>2020-10-16T14:19:54.000Z</time>
      </trkpt>
      <trkpt lat="48.28367" lon="-2.87901">
        <ele>149.39999389648</ele>
        <time>2020-10-16T14:19:55.000Z</time>
      </trkpt>
      <trkpt lat="48.2837" lon="-2.87906">
        <ele>150.19999694824</ele>
        <time>2020-10-16T14:19:56.000Z</time>
      </trkpt>
      <trkpt lat="48.28373" lon="-2.87911">
        <ele>150.80000305176</ele>
        <time>2020-10-16T14:19:57.000Z</time>
      </trkpt>
      <trkpt lat="48.28376" lon="-2.87915">
        <ele>151.39999389648</ele>
        <time>2020-10-16T14:19:58.000Z</time>
      </trkpt>
      <trkpt lat="48.28379" lon="-2.8792">
        <ele>152</ele>
        <time>2020-10-16T14:19:59.000Z</time>
      </trkpt>
      <trkpt lat="48.28386" lon="-2.87928">
        <ele>152.39999389648</ele>
        <time>2020-10-16T14:20:00.000Z</time>
      </trkpt>
      <trkpt lat="48.28386" lon="-2.87928">
        <ele>152.39999389648</ele>
        <time>2020-10-16T14:20:01.000Z</time>
      </trkpt>
      <trkpt lat="48.28391" lon="-2.87935">
        <ele>152.39999389648</ele>
        <time>2020-10-16T14:20:02.000Z</time>
      </trkpt>
      <trkpt lat="48.28394" lon="-2.87938">
        <ele>152.19999694824</ele>
        <time>2020-10-16T14:20:03.000Z</time>
      </trkpt>
      <trkpt lat="48.28394" lon="-2.87938">
        <ele>152.19999694824</ele>
        <time>2020-10-16T14:20:04.000Z</time>
      </trkpt>
      <trkpt lat="48.28397" lon="-2.87941">
        <ele>152.19999694824</ele>
        <time>2020-10-16T14:20:05.000Z</time>
      </trkpt>
      <trkpt lat="48.284" lon="-2.87944">
        <ele>152.19999694824</ele>
        <time>2020-10-16T14:20:06.000Z</time>
      </trkpt>
      <trkpt lat="48.28404" lon="-2.87948">
        <ele>152</ele>
        <time>2020-10-16T14:20:07.000Z</time>
      </trkpt>
      <trkpt lat="48.28408" lon="-2.87951">
        <ele>152.19999694824</ele>
        <time>2020-10-16T14:20:08.000Z</time>
      </trkpt>
      <trkpt lat="48.28411" lon="-2.87954">
        <ele>152.19999694824</ele>
        <time>2020-10-16T14:20:09.000Z</time>
      </trkpt>
      <trkpt lat="48.28415" lon="-2.87956">
        <ele>152.39999389648</ele>
        <time>2020-10-16T14:20:10.000Z</time>
      </trkpt>
      <trkpt lat="48.28418" lon="-2.87958">
        <ele>152.39999389648</ele>
        <time>2020-10-16T14:20:11.000Z</time>
      </trkpt>
      <trkpt lat="48.28421" lon="-2.87961">
        <ele>152.39999389648</ele>
        <time>2020-10-16T14:20:12.000Z</time>
      </trkpt>
      <trkpt lat="48.28425" lon="-2.87963">
        <ele>152.60000610352</ele>
        <time>2020-10-16T14:20:13.000Z</time>
      </trkpt>
      <trkpt lat="48.28429" lon="-2.87966">
        <ele>152.60000610352</ele>
        <time>2020-10-16T14:20:14.000Z</time>
      </trkpt>
      <trkpt lat="48.28433" lon="-2.87968">
        <ele>152.19999694824</ele>
        <time>2020-10-16T14:20:15.000Z</time>
      </trkpt>
      <trkpt lat="48.28437" lon="-2.87969">
        <ele>151.80000305176</ele>
        <time>2020-10-16T14:20:16.000Z</time>
      </trkpt>
      <trkpt lat="48.28441" lon="-2.8797">
        <ele>151.39999389648</ele>
        <time>2020-10-16T14:20:17.000Z</time>
      </trkpt>
      <trkpt lat="48.28444" lon="-2.87971">
        <ele>151</ele>
        <time>2020-10-16T14:20:18.000Z</time>
      </trkpt>
      <trkpt lat="48.28447" lon="-2.87973">
        <ele>150.60000610352</ele>
        <time>2020-10-16T14:20:19.000Z</time>
      </trkpt>
      <trkpt lat="48.2845" lon="-2.87974">
        <ele>150.39999389648</ele>
        <time>2020-10-16T14:20:20.000Z</time>
      </trkpt>
      <trkpt lat="48.28452" lon="-2.87976">
        <ele>150.19999694824</ele>
        <time>2020-10-16T14:20:21.000Z</time>
      </trkpt>
      <trkpt lat="48.28455" lon="-2.87978">
        <ele>150</ele>
        <time>2020-10-16T14:20:22.000Z</time>
      </trkpt>
      <trkpt lat="48.28458" lon="-2.8798">
        <ele>150</ele>
        <time>2020-10-16T14:20:23.000Z</time>
      </trkpt>
      <trkpt lat="48.2846" lon="-2.87983">
        <ele>150.19999694824</ele>
        <time>2020-10-16T14:20:24.000Z</time>
      </trkpt>
      <trkpt lat="48.28463" lon="-2.87985">
        <ele>150.39999389648</ele>
        <time>2020-10-16T14:20:25.000Z</time>
      </trkpt>
      <trkpt lat="48.28467" lon="-2.87989">
        <ele>150.60000610352</ele>
        <time>2020-10-16T14:20:26.000Z</time>
      </trkpt>
      <trkpt lat="48.28472" lon="-2.87994">
        <ele>151</ele>
        <time>2020-10-16T14:20:27.000Z</time>
      </trkpt>
      <trkpt lat="48.28472" lon="-2.87994">
        <ele>151</ele>
        <time>2020-10-16T14:20:28.000Z</time>
      </trkpt>
      <trkpt lat="48.28475" lon="-2.87996">
        <ele>151.19999694824</ele>
        <time>2020-10-16T14:20:29.000Z</time>
      </trkpt>
      <trkpt lat="48.28478" lon="-2.87999">
        <ele>151.39999389648</ele>
        <time>2020-10-16T14:20:30.000Z</time>
      </trkpt>
      <trkpt lat="48.28484" lon="-2.88004">
        <ele>151.80000305176</ele>
        <time>2020-10-16T14:20:31.000Z</time>
      </trkpt>
      <trkpt lat="48.28484" lon="-2.88004">
        <ele>151.80000305176</ele>
        <time>2020-10-16T14:20:32.000Z</time>
      </trkpt>
      <trkpt lat="48.28487" lon="-2.88006">
        <ele>151.80000305176</ele>
        <time>2020-10-16T14:20:33.000Z</time>
      </trkpt>
      <trkpt lat="48.28491" lon="-2.88009">
        <ele>151.80000305176</ele>
        <time>2020-10-16T14:20:34.000Z</time>
      </trkpt>
      <trkpt lat="48.28494" lon="-2.88012">
        <ele>151.80000305176</ele>
        <time>2020-10-16T14:20:35.000Z</time>
      </trkpt>
      <trkpt lat="48.28497" lon="-2.88014">
        <ele>151.80000305176</ele>
        <time>2020-10-16T14:20:36.000Z</time>
      </trkpt>
      <trkpt lat="48.285" lon="-2.88017">
        <ele>151.80000305176</ele>
        <time>2020-10-16T14:20:37.000Z</time>
      </trkpt>
      <trkpt lat="48.28503" lon="-2.8802">
        <ele>151.80000305176</ele>
        <time>2020-10-16T14:20:38.000Z</time>
      </trkpt>
      <trkpt lat="48.28506" lon="-2.88024">
        <ele>152</ele>
        <time>2020-10-16T14:20:39.000Z</time>
      </trkpt>
      <trkpt lat="48.28509" lon="-2.88026">
        <ele>152.19999694824</ele>
        <time>2020-10-16T14:20:40.000Z</time>
      </trkpt>
      <trkpt lat="48.28512" lon="-2.88029">
        <ele>152.19999694824</ele>
        <time>2020-10-16T14:20:41.000Z</time>
      </trkpt>
      <trkpt lat="48.28515" lon="-2.88031">
        <ele>152</ele>
        <time>2020-10-16T14:20:42.000Z</time>
      </trkpt>
      <trkpt lat="48.28518" lon="-2.88034">
        <ele>151.80000305176</ele>
        <time>2020-10-16T14:20:43.000Z</time>
      </trkpt>
      <trkpt lat="48.28521" lon="-2.88035">
        <ele>151.39999389648</ele>
        <time>2020-10-16T14:20:44.000Z</time>
      </trkpt>
      <trkpt lat="48.28525" lon="-2.88037">
        <ele>151</ele>
        <time>2020-10-16T14:20:45.000Z</time>
      </trkpt>
      <trkpt lat="48.28528" lon="-2.88039">
        <ele>150.60000610352</ele>
        <time>2020-10-16T14:20:46.000Z</time>
      </trkpt>
      <trkpt lat="48.28531" lon="-2.88041">
        <ele>150.19999694824</ele>
        <time>2020-10-16T14:20:47.000Z</time>
      </trkpt>
      <trkpt lat="48.28535" lon="-2.88042">
        <ele>149.80000305176</ele>
        <time>2020-10-16T14:20:48.000Z</time>
      </trkpt>
      <trkpt lat="48.28538" lon="-2.88044">
        <ele>149.39999389648</ele>
        <time>2020-10-16T14:20:49.000Z</time>
      </trkpt>
      <trkpt lat="48.28542" lon="-2.88046">
        <ele>149</ele>
        <time>2020-10-16T14:20:50.000Z</time>
      </trkpt>
      <trkpt lat="48.28545" lon="-2.88048">
        <ele>148.80000305176</ele>
        <time>2020-10-16T14:20:51.000Z</time>
      </trkpt>
      <trkpt lat="48.28548" lon="-2.88051">
        <ele>148.39999389648</ele>
        <time>2020-10-16T14:20:52.000Z</time>
      </trkpt>
      <trkpt lat="48.28552" lon="-2.88054">
        <ele>148.19999694824</ele>
        <time>2020-10-16T14:20:53.000Z</time>
      </trkpt>
      <trkpt lat="48.28555" lon="-2.88057">
        <ele>148.39999389648</ele>
        <time>2020-10-16T14:20:54.000Z</time>
      </trkpt>
      <trkpt lat="48.28559" lon="-2.88059">
        <ele>148.60000610352</ele>
        <time>2020-10-16T14:20:55.000Z</time>
      </trkpt>
      <trkpt lat="48.28562" lon="-2.88062">
        <ele>148.60000610352</ele>
        <time>2020-10-16T14:20:56.000Z</time>
      </trkpt>
      <trkpt lat="48.28566" lon="-2.88065">
        <ele>148.80000305176</ele>
        <time>2020-10-16T14:20:57.000Z</time>
      </trkpt>
      <trkpt lat="48.28569" lon="-2.88069">
        <ele>149.19999694824</ele>
        <time>2020-10-16T14:20:58.000Z</time>
      </trkpt>
      <trkpt lat="48.28572" lon="-2.88074">
        <ele>149.60000610352</ele>
        <time>2020-10-16T14:20:59.000Z</time>
      </trkpt>
      <trkpt lat="48.28575" lon="-2.88078">
        <ele>150.19999694824</ele>
        <time>2020-10-16T14:21:00.000Z</time>
      </trkpt>
      <trkpt lat="48.28577" lon="-2.88083">
        <ele>150.60000610352</ele>
        <time>2020-10-16T14:21:01.000Z</time>
      </trkpt>
      <trkpt lat="48.28579" lon="-2.88087">
        <ele>151.19999694824</ele>
        <time>2020-10-16T14:21:02.000Z</time>
      </trkpt>
      <trkpt lat="48.28583" lon="-2.88096">
        <ele>151.19999694824</ele>
        <time>2020-10-16T14:21:03.000Z</time>
      </trkpt>
      <trkpt lat="48.28583" lon="-2.88096">
        <ele>151.19999694824</ele>
        <time>2020-10-16T14:21:04.000Z</time>
      </trkpt>
      <trkpt lat="48.28585" lon="-2.88101">
        <ele>151</ele>
        <time>2020-10-16T14:21:05.000Z</time>
      </trkpt>
      <trkpt lat="48.28586" lon="-2.88106">
        <ele>151</ele>
        <time>2020-10-16T14:21:06.000Z</time>
      </trkpt>
      <trkpt lat="48.28587" lon="-2.88112">
        <ele>151</ele>
        <time>2020-10-16T14:21:07.000Z</time>
      </trkpt>
      <trkpt lat="48.28587" lon="-2.88118">
        <ele>151</ele>
        <time>2020-10-16T14:21:08.000Z</time>
      </trkpt>
      <trkpt lat="48.28586" lon="-2.88123">
        <ele>151.19999694824</ele>
        <time>2020-10-16T14:21:09.000Z</time>
      </trkpt>
      <trkpt lat="48.28585" lon="-2.88128">
        <ele>151.19999694824</ele>
        <time>2020-10-16T14:21:10.000Z</time>
      </trkpt>
      <trkpt lat="48.28584" lon="-2.88133">
        <ele>151.39999389648</ele>
        <time>2020-10-16T14:21:11.000Z</time>
      </trkpt>
      <trkpt lat="48.28583" lon="-2.88136">
        <ele>151.60000610352</ele>
        <time>2020-10-16T14:21:12.000Z</time>
      </trkpt>
      <trkpt lat="48.28581" lon="-2.88139">
        <ele>151.60000610352</ele>
        <time>2020-10-16T14:21:13.000Z</time>
      </trkpt>
      <trkpt lat="48.28579" lon="-2.88141">
        <ele>151.80000305176</ele>
        <time>2020-10-16T14:21:14.000Z</time>
      </trkpt>
      <trkpt lat="48.28577" lon="-2.88143">
        <ele>152</ele>
        <time>2020-10-16T14:21:15.000Z</time>
      </trkpt>
      <trkpt lat="48.28575" lon="-2.88145">
        <ele>152.19999694824</ele>
        <time>2020-10-16T14:21:16.000Z</time>
      </trkpt>
      <trkpt lat="48.28571" lon="-2.88147">
        <ele>152.60000610352</ele>
        <time>2020-10-16T14:21:17.000Z</time>
      </trkpt>
      <trkpt lat="48.28568" lon="-2.88149">
        <ele>152.80000305176</ele>
        <time>2020-10-16T14:21:18.000Z</time>
      </trkpt>
      <trkpt lat="48.28565" lon="-2.88151">
        <ele>153</ele>
        <time>2020-10-16T14:21:19.000Z</time>
      </trkpt>
      <trkpt lat="48.28562" lon="-2.88152">
        <ele>153.19999694824</ele>
        <time>2020-10-16T14:21:20.000Z</time>
      </trkpt>
      <trkpt lat="48.28559" lon="-2.88152">
        <ele>153.39999389648</ele>
        <time>2020-10-16T14:21:21.000Z</time>
      </trkpt>
      <trkpt lat="48.28556" lon="-2.88154">
        <ele>153.60000610352</ele>
        <time>2020-10-16T14:21:22.000Z</time>
      </trkpt>
      <trkpt lat="48.28549" lon="-2.88158">
        <ele>154.19999694824</ele>
        <time>2020-10-16T14:21:23.000Z</time>
      </trkpt>
      <trkpt lat="48.28549" lon="-2.88158">
        <ele>154.19999694824</ele>
        <time>2020-10-16T14:21:24.000Z</time>
      </trkpt>
      <trkpt lat="48.28547" lon="-2.8816">
        <ele>154.39999389648</ele>
        <time>2020-10-16T14:21:25.000Z</time>
      </trkpt>
      <trkpt lat="48.28544" lon="-2.88161">
        <ele>154.60000610352</ele>
        <time>2020-10-16T14:21:26.000Z</time>
      </trkpt>
      <trkpt lat="48.28541" lon="-2.88162">
        <ele>154.80000305176</ele>
        <time>2020-10-16T14:21:27.000Z</time>
      </trkpt>
      <trkpt lat="48.28538" lon="-2.88164">
        <ele>155.19999694824</ele>
        <time>2020-10-16T14:21:28.000Z</time>
      </trkpt>
      <trkpt lat="48.28535" lon="-2.88166">
        <ele>155.39999389648</ele>
        <time>2020-10-16T14:21:29.000Z</time>
      </trkpt>
      <trkpt lat="48.28531" lon="-2.88169">
        <ele>155.60000610352</ele>
        <time>2020-10-16T14:21:30.000Z</time>
      </trkpt>
      <trkpt lat="48.28528" lon="-2.88172">
        <ele>156</ele>
        <time>2020-10-16T14:21:31.000Z</time>
      </trkpt>
      <trkpt lat="48.28524" lon="-2.88174">
        <ele>156.19999694824</ele>
        <time>2020-10-16T14:21:32.000Z</time>
      </trkpt>
      <trkpt lat="48.28521" lon="-2.88179">
        <ele>156.19999694824</ele>
        <time>2020-10-16T14:21:33.000Z</time>
      </trkpt>
      <trkpt lat="48.28518" lon="-2.88181">
        <ele>156.39999389648</ele>
        <time>2020-10-16T14:21:34.000Z</time>
      </trkpt>
      <trkpt lat="48.28515" lon="-2.88185">
        <ele>156.60000610352</ele>
        <time>2020-10-16T14:21:35.000Z</time>
      </trkpt>
      <trkpt lat="48.28512" lon="-2.88189">
        <ele>156.60000610352</ele>
        <time>2020-10-16T14:21:36.000Z</time>
      </trkpt>
      <trkpt lat="48.28509" lon="-2.88192">
        <ele>156.80000305176</ele>
        <time>2020-10-16T14:21:37.000Z</time>
      </trkpt>
      <trkpt lat="48.28506" lon="-2.88196">
        <ele>156.80000305176</ele>
        <time>2020-10-16T14:21:38.000Z</time>
      </trkpt>
      <trkpt lat="48.28503" lon="-2.88201">
        <ele>156.80000305176</ele>
        <time>2020-10-16T14:21:39.000Z</time>
      </trkpt>
      <trkpt lat="48.28501" lon="-2.88204">
        <ele>156.80000305176</ele>
        <time>2020-10-16T14:21:40.000Z</time>
      </trkpt>
      <trkpt lat="48.28498" lon="-2.88208">
        <ele>157</ele>
        <time>2020-10-16T14:21:41.000Z</time>
      </trkpt>
      <trkpt lat="48.28489" lon="-2.88217">
        <ele>157</ele>
        <time>2020-10-16T14:21:42.000Z</time>
      </trkpt>
      <trkpt lat="48.28489" lon="-2.88217">
        <ele>157</ele>
        <time>2020-10-16T14:21:43.000Z</time>
      </trkpt>
      <trkpt lat="48.28486" lon="-2.88222">
        <ele>157.19999694824</ele>
        <time>2020-10-16T14:21:44.000Z</time>
      </trkpt>
      <trkpt lat="48.28482" lon="-2.88226">
        <ele>157.19999694824</ele>
        <time>2020-10-16T14:21:45.000Z</time>
      </trkpt>
      <trkpt lat="48.28477" lon="-2.88229">
        <ele>157.39999389648</ele>
        <time>2020-10-16T14:21:46.000Z</time>
      </trkpt>
      <trkpt lat="48.28473" lon="-2.88233">
        <ele>157.39999389648</ele>
        <time>2020-10-16T14:21:47.000Z</time>
      </trkpt>
      <trkpt lat="48.28469" lon="-2.88237">
        <ele>157.60000610352</ele>
        <time>2020-10-16T14:21:48.000Z</time>
      </trkpt>
      <trkpt lat="48.28466" lon="-2.88241">
        <ele>157.60000610352</ele>
        <time>2020-10-16T14:21:49.000Z</time>
      </trkpt>
      <trkpt lat="48.28462" lon="-2.88244">
        <ele>157.80000305176</ele>
        <time>2020-10-16T14:21:50.000Z</time>
      </trkpt>
      <trkpt lat="48.28458" lon="-2.88248">
        <ele>157.80000305176</ele>
        <time>2020-10-16T14:21:51.000Z</time>
      </trkpt>
      <trkpt lat="48.28456" lon="-2.88252">
        <ele>157.80000305176</ele>
        <time>2020-10-16T14:21:52.000Z</time>
      </trkpt>
      <trkpt lat="48.28454" lon="-2.88256">
        <ele>157.80000305176</ele>
        <time>2020-10-16T14:21:53.000Z</time>
      </trkpt>
      <trkpt lat="48.28452" lon="-2.8826">
        <ele>157.80000305176</ele>
        <time>2020-10-16T14:21:54.000Z</time>
      </trkpt>
      <trkpt lat="48.2845" lon="-2.88265">
        <ele>158</ele>
        <time>2020-10-16T14:21:55.000Z</time>
      </trkpt>
      <trkpt lat="48.2845" lon="-2.8827">
        <ele>157.80000305176</ele>
        <time>2020-10-16T14:21:56.000Z</time>
      </trkpt>
      <trkpt lat="48.28448" lon="-2.88274">
        <ele>157.80000305176</ele>
        <time>2020-10-16T14:21:57.000Z</time>
      </trkpt>
      <trkpt lat="48.28449" lon="-2.8828">
        <ele>157.80000305176</ele>
        <time>2020-10-16T14:21:58.000Z</time>
      </trkpt>
      <trkpt lat="48.2845" lon="-2.88286">
        <ele>157.60000610352</ele>
        <time>2020-10-16T14:21:59.000Z</time>
      </trkpt>
      <trkpt lat="48.28451" lon="-2.8829">
        <ele>157.60000610352</ele>
        <time>2020-10-16T14:22:00.000Z</time>
      </trkpt>
      <trkpt lat="48.28453" lon="-2.88295">
        <ele>157.39999389648</ele>
        <time>2020-10-16T14:22:01.000Z</time>
      </trkpt>
      <trkpt lat="48.28457" lon="-2.883">
        <ele>157.19999694824</ele>
        <time>2020-10-16T14:22:02.000Z</time>
      </trkpt>
      <trkpt lat="48.28457" lon="-2.883">
        <ele>157.19999694824</ele>
        <time>2020-10-16T14:22:03.000Z</time>
      </trkpt>
      <trkpt lat="48.2846" lon="-2.883">
        <ele>157</ele>
        <time>2020-10-16T14:22:04.000Z</time>
      </trkpt>
      <trkpt lat="48.28463" lon="-2.88301">
        <ele>156.80000305176</ele>
        <time>2020-10-16T14:22:05.000Z</time>
      </trkpt>
      <trkpt lat="48.28465" lon="-2.88301">
        <ele>156.80000305176</ele>
        <time>2020-10-16T14:22:06.000Z</time>
      </trkpt>
      <trkpt lat="48.28467" lon="-2.883">
        <ele>156.60000610352</ele>
        <time>2020-10-16T14:22:07.000Z</time>
      </trkpt>
      <trkpt lat="48.2847" lon="-2.883">
        <ele>156.60000610352</ele>
        <time>2020-10-16T14:22:08.000Z</time>
      </trkpt>
      <trkpt lat="48.28473" lon="-2.883">
        <ele>156.60000610352</ele>
        <time>2020-10-16T14:22:09.000Z</time>
      </trkpt>
      <trkpt lat="48.28476" lon="-2.88299">
        <ele>156.60000610352</ele>
        <time>2020-10-16T14:22:10.000Z</time>
      </trkpt>
      <trkpt lat="48.28479" lon="-2.88297">
        <ele>156.60000610352</ele>
        <time>2020-10-16T14:22:11.000Z</time>
      </trkpt>
      <trkpt lat="48.28483" lon="-2.88296">
        <ele>156.60000610352</ele>
        <time>2020-10-16T14:22:12.000Z</time>
      </trkpt>
      <trkpt lat="48.28488" lon="-2.88294">
        <ele>156.60000610352</ele>
        <time>2020-10-16T14:22:13.000Z</time>
      </trkpt>
      <trkpt lat="48.28492" lon="-2.88293">
        <ele>156.60000610352</ele>
        <time>2020-10-16T14:22:14.000Z</time>
      </trkpt>
      <trkpt lat="48.28496" lon="-2.88291">
        <ele>156.60000610352</ele>
        <time>2020-10-16T14:22:15.000Z</time>
      </trkpt>
      <trkpt lat="48.285" lon="-2.8829">
        <ele>156.80000305176</ele>
        <time>2020-10-16T14:22:16.000Z</time>
      </trkpt>
      <trkpt lat="48.28503" lon="-2.88289">
        <ele>156.80000305176</ele>
        <time>2020-10-16T14:22:17.000Z</time>
      </trkpt>
      <trkpt lat="48.28507" lon="-2.88289">
        <ele>156.80000305176</ele>
        <time>2020-10-16T14:22:18.000Z</time>
      </trkpt>
      <trkpt lat="48.28511" lon="-2.88289">
        <ele>157</ele>
        <time>2020-10-16T14:22:19.000Z</time>
      </trkpt>
      <trkpt lat="48.28514" lon="-2.88289">
        <ele>157</ele>
        <time>2020-10-16T14:22:20.000Z</time>
      </trkpt>
      <trkpt lat="48.28518" lon="-2.88288">
        <ele>156.80000305176</ele>
        <time>2020-10-16T14:22:21.000Z</time>
      </trkpt>
      <trkpt lat="48.28526" lon="-2.88285">
        <ele>156.60000610352</ele>
        <time>2020-10-16T14:22:22.000Z</time>
      </trkpt>
      <trkpt lat="48.28526" lon="-2.88285">
        <ele>156.60000610352</ele>
        <time>2020-10-16T14:22:23.000Z</time>
      </trkpt>
      <trkpt lat="48.2853" lon="-2.88284">
        <ele>156.39999389648</ele>
        <time>2020-10-16T14:22:24.000Z</time>
      </trkpt>
      <trkpt lat="48.28534" lon="-2.88283">
        <ele>156.39999389648</ele>
        <time>2020-10-16T14:22:25.000Z</time>
      </trkpt>
      <trkpt lat="48.28538" lon="-2.88283">
        <ele>156.39999389648</ele>
        <time>2020-10-16T14:22:26.000Z</time>
      </trkpt>
      <trkpt lat="48.28542" lon="-2.88283">
        <ele>156.19999694824</ele>
        <time>2020-10-16T14:22:27.000Z</time>
      </trkpt>
      <trkpt lat="48.28546" lon="-2.88282">
        <ele>156.19999694824</ele>
        <time>2020-10-16T14:22:28.000Z</time>
      </trkpt>
      <trkpt lat="48.2855" lon="-2.88281">
        <ele>156</ele>
        <time>2020-10-16T14:22:29.000Z</time>
      </trkpt>
      <trkpt lat="48.28554" lon="-2.8828">
        <ele>156</ele>
        <time>2020-10-16T14:22:30.000Z</time>
      </trkpt>
      <trkpt lat="48.28558" lon="-2.88279">
        <ele>155.80000305176</ele>
        <time>2020-10-16T14:22:31.000Z</time>
      </trkpt>
      <trkpt lat="48.28562" lon="-2.88278">
        <ele>155.80000305176</ele>
        <time>2020-10-16T14:22:32.000Z</time>
      </trkpt>
      <trkpt lat="48.28566" lon="-2.88277">
        <ele>155.60000610352</ele>
        <time>2020-10-16T14:22:33.000Z</time>
      </trkpt>
      <trkpt lat="48.2857" lon="-2.88276">
        <ele>155.39999389648</ele>
        <time>2020-10-16T14:22:34.000Z</time>
      </trkpt>
      <trkpt lat="48.28573" lon="-2.88275">
        <ele>155.39999389648</ele>
        <time>2020-10-16T14:22:35.000Z</time>
      </trkpt>
      <trkpt lat="48.28577" lon="-2.88274">
        <ele>155.19999694824</ele>
        <time>2020-10-16T14:22:36.000Z</time>
      </trkpt>
      <trkpt lat="48.28581" lon="-2.88272">
        <ele>155.19999694824</ele>
        <time>2020-10-16T14:22:37.000Z</time>
      </trkpt>
      <trkpt lat="48.28584" lon="-2.88272">
        <ele>155</ele>
        <time>2020-10-16T14:22:38.000Z</time>
      </trkpt>
      <trkpt lat="48.28588" lon="-2.88271">
        <ele>155</ele>
        <time>2020-10-16T14:22:39.000Z</time>
      </trkpt>
      <trkpt lat="48.28591" lon="-2.88271">
        <ele>155</ele>
        <time>2020-10-16T14:22:40.000Z</time>
      </trkpt>
      <trkpt lat="48.28595" lon="-2.88271">
        <ele>155</ele>
        <time>2020-10-16T14:22:41.000Z</time>
      </trkpt>
      <trkpt lat="48.28599" lon="-2.88271">
        <ele>154.80000305176</ele>
        <time>2020-10-16T14:22:42.000Z</time>
      </trkpt>
      <trkpt lat="48.28603" lon="-2.88271">
        <ele>154.19999694824</ele>
        <time>2020-10-16T14:22:43.000Z</time>
      </trkpt>
      <trkpt lat="48.28607" lon="-2.88271">
        <ele>153.80000305176</ele>
        <time>2020-10-16T14:22:44.000Z</time>
      </trkpt>
      <trkpt lat="48.2861" lon="-2.88271">
        <ele>153.39999389648</ele>
        <time>2020-10-16T14:22:45.000Z</time>
      </trkpt>
      <trkpt lat="48.28614" lon="-2.88271">
        <ele>153</ele>
        <time>2020-10-16T14:22:46.000Z</time>
      </trkpt>
      <trkpt lat="48.28618" lon="-2.88271">
        <ele>152.39999389648</ele>
        <time>2020-10-16T14:22:47.000Z</time>
      </trkpt>
      <trkpt lat="48.28621" lon="-2.88271">
        <ele>152</ele>
        <time>2020-10-16T14:22:48.000Z</time>
      </trkpt>
      <trkpt lat="48.28625" lon="-2.88272">
        <ele>151.80000305176</ele>
        <time>2020-10-16T14:22:49.000Z</time>
      </trkpt>
      <trkpt lat="48.28628" lon="-2.88273">
        <ele>151.39999389648</ele>
        <time>2020-10-16T14:22:50.000Z</time>
      </trkpt>
      <trkpt lat="48.28631" lon="-2.88275">
        <ele>151.19999694824</ele>
        <time>2020-10-16T14:22:51.000Z</time>
      </trkpt>
      <trkpt lat="48.28633" lon="-2.88277">
        <ele>151.19999694824</ele>
        <time>2020-10-16T14:22:52.000Z</time>
      </trkpt>
      <trkpt lat="48.28635" lon="-2.88279">
        <ele>151</ele>
        <time>2020-10-16T14:22:53.000Z</time>
      </trkpt>
      <trkpt lat="48.28636" lon="-2.88281">
        <ele>151</ele>
        <time>2020-10-16T14:22:54.000Z</time>
      </trkpt>
      <trkpt lat="48.28637" lon="-2.88281">
        <ele>151</ele>
        <time>2020-10-16T14:22:55.000Z</time>
      </trkpt>
      <trkpt lat="48.28638" lon="-2.88281">
        <ele>150.80000305176</ele>
        <time>2020-10-16T14:22:56.000Z</time>
      </trkpt>
      <trkpt lat="48.28638" lon="-2.88281">
        <ele>150.80000305176</ele>
        <time>2020-10-16T14:22:57.000Z</time>
      </trkpt>
      <trkpt lat="48.28638" lon="-2.8828">
        <ele>150.60000610352</ele>
        <time>2020-10-16T14:22:58.000Z</time>
      </trkpt>
      <trkpt lat="48.28639" lon="-2.8828">
        <ele>150.60000610352</ele>
        <time>2020-10-16T14:22:59.000Z</time>
      </trkpt>
      <trkpt lat="48.28639" lon="-2.88279">
        <ele>150.60000610352</ele>
        <time>2020-10-16T14:23:00.000Z</time>
      </trkpt>
      <trkpt lat="48.28639" lon="-2.88279">
        <ele>150.60000610352</ele>
        <time>2020-10-16T14:23:01.000Z</time>
      </trkpt>
      <trkpt lat="48.28639" lon="-2.88279">
        <ele>150.60000610352</ele>
        <time>2020-10-16T14:23:02.000Z</time>
      </trkpt>
      <trkpt lat="48.28639" lon="-2.88279">
        <ele>150.60000610352</ele>
        <time>2020-10-16T14:23:03.000Z</time>
      </trkpt>
      <trkpt lat="48.28639" lon="-2.88279">
        <ele>150.60000610352</ele>
        <time>2020-10-16T14:23:04.000Z</time>
      </trkpt>
      <trkpt lat="48.28639" lon="-2.88279">
        <ele>150.60000610352</ele>
        <time>2020-10-16T14:23:05.000Z</time>
      </trkpt>
      <trkpt lat="48.28639" lon="-2.88279">
        <ele>150.60000610352</ele>
        <time>2020-10-16T14:23:06.000Z</time>
      </trkpt>
      <trkpt lat="48.28639" lon="-2.88279">
        <ele>150.60000610352</ele>
        <time>2020-10-16T14:23:07.000Z</time>
      </trkpt>
      <trkpt lat="48.28639" lon="-2.88279">
        <ele>150.60000610352</ele>
        <time>2020-10-16T14:23:08.000Z</time>
      </trkpt>
      <trkpt lat="48.28639" lon="-2.88279">
        <ele>150.60000610352</ele>
        <time>2020-10-16T14:23:09.000Z</time>
      </trkpt>
      <trkpt lat="48.28639" lon="-2.88279">
        <ele>150.60000610352</ele>
        <time>2020-10-16T14:23:10.000Z</time>
      </trkpt>
      <trkpt lat="48.28639" lon="-2.88279">
        <ele>150.60000610352</ele>
        <time>2020-10-16T14:23:11.000Z</time>
      </trkpt>
      <trkpt lat="48.28639" lon="-2.88279">
        <ele>150.60000610352</ele>
        <time>2020-10-16T14:23:12.000Z</time>
      </trkpt>
      <trkpt lat="48.28639" lon="-2.88279">
        <ele>150.60000610352</ele>
        <time>2020-10-16T14:23:13.000Z</time>
      </trkpt>
      <trkpt lat="48.28639" lon="-2.88279">
        <ele>150.60000610352</ele>
        <time>2020-10-16T14:23:14.000Z</time>
      </trkpt>
      <trkpt lat="48.28639" lon="-2.88279">
        <ele>150.60000610352</ele>
        <time>2020-10-16T14:23:15.000Z</time>
      </trkpt>
      <trkpt lat="48.28639" lon="-2.88279">
        <ele>150.60000610352</ele>
        <time>2020-10-16T14:23:16.000Z</time>
      </trkpt>
      <trkpt lat="48.28639" lon="-2.8828">
        <ele>150.60000610352</ele>
        <time>2020-10-16T14:23:17.000Z</time>
      </trkpt>
      <trkpt lat="48.28639" lon="-2.8828">
        <ele>150.60000610352</ele>
        <time>2020-10-16T14:23:18.000Z</time>
      </trkpt>
      <trkpt lat="48.28639" lon="-2.88281">
        <ele>150.60000610352</ele>
        <time>2020-10-16T14:23:19.000Z</time>
      </trkpt>
      <trkpt lat="48.28639" lon="-2.88281">
        <ele>150.60000610352</ele>
        <time>2020-10-16T14:23:20.000Z</time>
      </trkpt>
      <trkpt lat="48.28639" lon="-2.88282">
        <ele>150.80000305176</ele>
        <time>2020-10-16T14:23:21.000Z</time>
      </trkpt>
      <trkpt lat="48.28638" lon="-2.88282">
        <ele>151</ele>
        <time>2020-10-16T14:23:22.000Z</time>
      </trkpt>
      <trkpt lat="48.28636" lon="-2.88283">
        <ele>151.19999694824</ele>
        <time>2020-10-16T14:23:23.000Z</time>
      </trkpt>
      <trkpt lat="48.28635" lon="-2.88284">
        <ele>151.39999389648</ele>
        <time>2020-10-16T14:23:24.000Z</time>
      </trkpt>
      <trkpt lat="48.28634" lon="-2.88284">
        <ele>151.60000610352</ele>
        <time>2020-10-16T14:23:25.000Z</time>
      </trkpt>
      <trkpt lat="48.28633" lon="-2.88285">
        <ele>151.80000305176</ele>
        <time>2020-10-16T14:23:26.000Z</time>
      </trkpt>
      <trkpt lat="48.28631" lon="-2.88286">
        <ele>152</ele>
        <time>2020-10-16T14:23:27.000Z</time>
      </trkpt>
      <trkpt lat="48.2863" lon="-2.88287">
        <ele>152.19999694824</ele>
        <time>2020-10-16T14:23:28.000Z</time>
      </trkpt>
      <trkpt lat="48.28628" lon="-2.88288">
        <ele>152.39999389648</ele>
        <time>2020-10-16T14:23:29.000Z</time>
      </trkpt>
      <trkpt lat="48.28627" lon="-2.88289">
        <ele>152.80000305176</ele>
        <time>2020-10-16T14:23:30.000Z</time>
      </trkpt>
      <trkpt lat="48.28625" lon="-2.8829">
        <ele>153</ele>
        <time>2020-10-16T14:23:31.000Z</time>
      </trkpt>
      <trkpt lat="48.28624" lon="-2.88292">
        <ele>153.19999694824</ele>
        <time>2020-10-16T14:23:32.000Z</time>
      </trkpt>
      <trkpt lat="48.28623" lon="-2.88293">
        <ele>153.39999389648</ele>
        <time>2020-10-16T14:23:33.000Z</time>
      </trkpt>
      <trkpt lat="48.28622" lon="-2.88294">
        <ele>153.60000610352</ele>
        <time>2020-10-16T14:23:34.000Z</time>
      </trkpt>
      <trkpt lat="48.28621" lon="-2.88295">
        <ele>153.80000305176</ele>
        <time>2020-10-16T14:23:35.000Z</time>
      </trkpt>
      <trkpt lat="48.2862" lon="-2.88296">
        <ele>154</ele>
        <time>2020-10-16T14:23:36.000Z</time>
      </trkpt>
      <trkpt lat="48.28618" lon="-2.88297">
        <ele>154.39999389648</ele>
        <time>2020-10-16T14:23:37.000Z</time>
      </trkpt>
      <trkpt lat="48.28616" lon="-2.88298">
        <ele>154.60000610352</ele>
        <time>2020-10-16T14:23:38.000Z</time>
      </trkpt>
      <trkpt lat="48.28615" lon="-2.883">
        <ele>155</ele>
        <time>2020-10-16T14:23:39.000Z</time>
      </trkpt>
      <trkpt lat="48.2861" lon="-2.88303">
        <ele>155.80000305176</ele>
        <time>2020-10-16T14:23:40.000Z</time>
      </trkpt>
      <trkpt lat="48.2861" lon="-2.88303">
        <ele>155.80000305176</ele>
        <time>2020-10-16T14:23:41.000Z</time>
      </trkpt>
      <trkpt lat="48.28608" lon="-2.88305">
        <ele>156</ele>
        <time>2020-10-16T14:23:42.000Z</time>
      </trkpt>
      <trkpt lat="48.28607" lon="-2.88307">
        <ele>156.39999389648</ele>
        <time>2020-10-16T14:23:43.000Z</time>
      </trkpt>
      <trkpt lat="48.28605" lon="-2.88308">
        <ele>156.80000305176</ele>
        <time>2020-10-16T14:23:44.000Z</time>
      </trkpt>
      <trkpt lat="48.28603" lon="-2.8831">
        <ele>157</ele>
        <time>2020-10-16T14:23:45.000Z</time>
      </trkpt>
      <trkpt lat="48.28601" lon="-2.88311">
        <ele>157.39999389648</ele>
        <time>2020-10-16T14:23:46.000Z</time>
      </trkpt>
      <trkpt lat="48.28599" lon="-2.88312">
        <ele>157.80000305176</ele>
        <time>2020-10-16T14:23:47.000Z</time>
      </trkpt>
      <trkpt lat="48.28597" lon="-2.88314">
        <ele>158</ele>
        <time>2020-10-16T14:23:48.000Z</time>
      </trkpt>
      <trkpt lat="48.28595" lon="-2.88316">
        <ele>158.19999694824</ele>
        <time>2020-10-16T14:23:49.000Z</time>
      </trkpt>
      <trkpt lat="48.28593" lon="-2.88318">
        <ele>158.39999389648</ele>
        <time>2020-10-16T14:23:50.000Z</time>
      </trkpt>
      <trkpt lat="48.28591" lon="-2.88319">
        <ele>158.39999389648</ele>
        <time>2020-10-16T14:23:51.000Z</time>
      </trkpt>
      <trkpt lat="48.2859" lon="-2.8832">
        <ele>158.60000610352</ele>
        <time>2020-10-16T14:23:52.000Z</time>
      </trkpt>
      <trkpt lat="48.28588" lon="-2.88322">
        <ele>158.80000305176</ele>
        <time>2020-10-16T14:23:53.000Z</time>
      </trkpt>
      <trkpt lat="48.28586" lon="-2.88323">
        <ele>158.80000305176</ele>
        <time>2020-10-16T14:23:54.000Z</time>
      </trkpt>
      <trkpt lat="48.28581" lon="-2.88326">
        <ele>159</ele>
        <time>2020-10-16T14:23:55.000Z</time>
      </trkpt>
      <trkpt lat="48.28581" lon="-2.88326">
        <ele>159</ele>
        <time>2020-10-16T14:23:56.000Z</time>
      </trkpt>
      <trkpt lat="48.28579" lon="-2.88328">
        <ele>159.19999694824</ele>
        <time>2020-10-16T14:23:57.000Z</time>
      </trkpt>
      <trkpt lat="48.28577" lon="-2.8833">
        <ele>159.39999389648</ele>
        <time>2020-10-16T14:23:58.000Z</time>
      </trkpt>
      <trkpt lat="48.28575" lon="-2.88331">
        <ele>159.39999389648</ele>
        <time>2020-10-16T14:23:59.000Z</time>
      </trkpt>
      <trkpt lat="48.28572" lon="-2.88335">
        <ele>159.60000610352</ele>
        <time>2020-10-16T14:24:00.000Z</time>
      </trkpt>
      <trkpt lat="48.28572" lon="-2.88335">
        <ele>159.60000610352</ele>
        <time>2020-10-16T14:24:01.000Z</time>
      </trkpt>
      <trkpt lat="48.28568" lon="-2.88338">
        <ele>159.80000305176</ele>
        <time>2020-10-16T14:24:02.000Z</time>
      </trkpt>
      <trkpt lat="48.28567" lon="-2.8834">
        <ele>160</ele>
        <time>2020-10-16T14:24:03.000Z</time>
      </trkpt>
      <trkpt lat="48.28567" lon="-2.8834">
        <ele>160</ele>
        <time>2020-10-16T14:24:04.000Z</time>
      </trkpt>
      <trkpt lat="48.28566" lon="-2.88342">
        <ele>160.19999694824</ele>
        <time>2020-10-16T14:24:05.000Z</time>
      </trkpt>
      <trkpt lat="48.28567" lon="-2.88345">
        <ele>160.39999389648</ele>
        <time>2020-10-16T14:24:06.000Z</time>
      </trkpt>
      <trkpt lat="48.28567" lon="-2.88346">
        <ele>160.60000610352</ele>
        <time>2020-10-16T14:24:07.000Z</time>
      </trkpt>
      <trkpt lat="48.28567" lon="-2.88346">
        <ele>160.60000610352</ele>
        <time>2020-10-16T14:24:08.000Z</time>
      </trkpt>
      <trkpt lat="48.28567" lon="-2.88346">
        <ele>160.60000610352</ele>
        <time>2020-10-16T14:24:09.000Z</time>
      </trkpt>
      <trkpt lat="48.28567" lon="-2.88346">
        <ele>160.60000610352</ele>
        <time>2020-10-16T14:24:10.000Z</time>
      </trkpt>
      <trkpt lat="48.28567" lon="-2.88346">
        <ele>160.39999389648</ele>
        <time>2020-10-16T14:24:11.000Z</time>
      </trkpt>
      <trkpt lat="48.28567" lon="-2.88345">
        <ele>160.39999389648</ele>
        <time>2020-10-16T14:24:12.000Z</time>
      </trkpt>
      <trkpt lat="48.28567" lon="-2.88345">
        <ele>160.39999389648</ele>
        <time>2020-10-16T14:24:13.000Z</time>
      </trkpt>
      <trkpt lat="48.28567" lon="-2.88345">
        <ele>160.39999389648</ele>
        <time>2020-10-16T14:24:14.000Z</time>
      </trkpt>
      <trkpt lat="48.28567" lon="-2.88345">
        <ele>160.39999389648</ele>
        <time>2020-10-16T14:24:15.000Z</time>
      </trkpt>
      <trkpt lat="48.28567" lon="-2.88345">
        <ele>160.39999389648</ele>
        <time>2020-10-16T14:24:16.000Z</time>
      </trkpt>
      <trkpt lat="48.28568" lon="-2.88345">
        <ele>160.39999389648</ele>
        <time>2020-10-16T14:24:17.000Z</time>
      </trkpt>
      <trkpt lat="48.28568" lon="-2.88345">
        <ele>160.39999389648</ele>
        <time>2020-10-16T14:24:18.000Z</time>
      </trkpt>
      <trkpt lat="48.28568" lon="-2.88344">
        <ele>160.39999389648</ele>
        <time>2020-10-16T14:24:19.000Z</time>
      </trkpt>
      <trkpt lat="48.28568" lon="-2.88344">
        <ele>160.39999389648</ele>
        <time>2020-10-16T14:24:20.000Z</time>
      </trkpt>
      <trkpt lat="48.28568" lon="-2.88344">
        <ele>160.39999389648</ele>
        <time>2020-10-16T14:24:21.000Z</time>
      </trkpt>
      <trkpt lat="48.28568" lon="-2.88344">
        <ele>160.39999389648</ele>
        <time>2020-10-16T14:24:22.000Z</time>
      </trkpt>
      <trkpt lat="48.28568" lon="-2.88344">
        <ele>160.39999389648</ele>
        <time>2020-10-16T14:24:23.000Z</time>
      </trkpt>
      <trkpt lat="48.28568" lon="-2.88345">
        <ele>160.39999389648</ele>
        <time>2020-10-16T14:24:24.000Z</time>
      </trkpt>
      <trkpt lat="48.28568" lon="-2.88345">
        <ele>160.39999389648</ele>
        <time>2020-10-16T14:24:25.000Z</time>
      </trkpt>
      <trkpt lat="48.28568" lon="-2.88345">
        <ele>160.39999389648</ele>
        <time>2020-10-16T14:24:26.000Z</time>
      </trkpt>
      <trkpt lat="48.28568" lon="-2.88344">
        <ele>160.39999389648</ele>
        <time>2020-10-16T14:24:27.000Z</time>
      </trkpt>
      <trkpt lat="48.28568" lon="-2.88343">
        <ele>160.19999694824</ele>
        <time>2020-10-16T14:24:28.000Z</time>
      </trkpt>
      <trkpt lat="48.28568" lon="-2.88342">
        <ele>160.19999694824</ele>
        <time>2020-10-16T14:24:29.000Z</time>
      </trkpt>
      <trkpt lat="48.28568" lon="-2.8834">
        <ele>160</ele>
        <time>2020-10-16T14:24:30.000Z</time>
      </trkpt>
      <trkpt lat="48.28567" lon="-2.88339">
        <ele>160</ele>
        <time>2020-10-16T14:24:31.000Z</time>
      </trkpt>
      <trkpt lat="48.28567" lon="-2.88339">
        <ele>160</ele>
        <time>2020-10-16T14:24:32.000Z</time>
      </trkpt>
      <trkpt lat="48.28567" lon="-2.88338">
        <ele>159.80000305176</ele>
        <time>2020-10-16T14:24:33.000Z</time>
      </trkpt>
      <trkpt lat="48.28567" lon="-2.88338">
        <ele>159.80000305176</ele>
        <time>2020-10-16T14:24:34.000Z</time>
      </trkpt>
      <trkpt lat="48.28567" lon="-2.88338">
        <ele>159.80000305176</ele>
        <time>2020-10-16T14:24:35.000Z</time>
      </trkpt>
      <trkpt lat="48.28567" lon="-2.88338">
        <ele>160</ele>
        <time>2020-10-16T14:24:36.000Z</time>
      </trkpt>
      <trkpt lat="48.28567" lon="-2.88338">
        <ele>160</ele>
        <time>2020-10-16T14:24:37.000Z</time>
      </trkpt>
      <trkpt lat="48.28567" lon="-2.88338">
        <ele>159.80000305176</ele>
        <time>2020-10-16T14:24:38.000Z</time>
      </trkpt>
      <trkpt lat="48.28567" lon="-2.88338">
        <ele>159.80000305176</ele>
        <time>2020-10-16T14:24:39.000Z</time>
      </trkpt>
      <trkpt lat="48.28567" lon="-2.88338">
        <ele>159.80000305176</ele>
        <time>2020-10-16T14:24:40.000Z</time>
      </trkpt>
      <trkpt lat="48.28567" lon="-2.88338">
        <ele>159.80000305176</ele>
        <time>2020-10-16T14:24:41.000Z</time>
      </trkpt>
      <trkpt lat="48.28567" lon="-2.88338">
        <ele>159.80000305176</ele>
        <time>2020-10-16T14:24:42.000Z</time>
      </trkpt>
      <trkpt lat="48.28567" lon="-2.88338">
        <ele>159.80000305176</ele>
        <time>2020-10-16T14:24:43.000Z</time>
      </trkpt>
      <trkpt lat="48.28567" lon="-2.88338">
        <ele>159.80000305176</ele>
        <time>2020-10-16T14:24:44.000Z</time>
      </trkpt>
      <trkpt lat="48.28567" lon="-2.88338">
        <ele>159.80000305176</ele>
        <time>2020-10-16T14:24:45.000Z</time>
      </trkpt>
      <trkpt lat="48.28567" lon="-2.88338">
        <ele>159.80000305176</ele>
        <time>2020-10-16T14:24:46.000Z</time>
      </trkpt>
      <trkpt lat="48.28567" lon="-2.88338">
        <ele>159.80000305176</ele>
        <time>2020-10-16T14:24:47.000Z</time>
      </trkpt>
      <trkpt lat="48.28567" lon="-2.88338">
        <ele>159.80000305176</ele>
        <time>2020-10-16T14:24:48.000Z</time>
      </trkpt>
      <trkpt lat="48.28567" lon="-2.88338">
        <ele>159.80000305176</ele>
        <time>2020-10-16T14:24:49.000Z</time>
      </trkpt>
      <trkpt lat="48.28567" lon="-2.88337">
        <ele>159.80000305176</ele>
        <time>2020-10-16T14:24:50.000Z</time>
      </trkpt>
      <trkpt lat="48.28567" lon="-2.88337">
        <ele>159.80000305176</ele>
        <time>2020-10-16T14:24:51.000Z</time>
      </trkpt>
      <trkpt lat="48.28567" lon="-2.88337">
        <ele>159.80000305176</ele>
        <time>2020-10-16T14:24:52.000Z</time>
      </trkpt>
      <trkpt lat="48.28567" lon="-2.88337">
        <ele>159.80000305176</ele>
        <time>2020-10-16T14:24:53.000Z</time>
      </trkpt>
      <trkpt lat="48.28567" lon="-2.88337">
        <ele>159.80000305176</ele>
        <time>2020-10-16T14:24:54.000Z</time>
      </trkpt>
      <trkpt lat="48.28567" lon="-2.88337">
        <ele>159.80000305176</ele>
        <time>2020-10-16T14:24:55.000Z</time>
      </trkpt>
      <trkpt lat="48.28567" lon="-2.88337">
        <ele>159.80000305176</ele>
        <time>2020-10-16T14:24:56.000Z</time>
      </trkpt>
      <trkpt lat="48.28566" lon="-2.88337">
        <ele>159.80000305176</ele>
        <time>2020-10-16T14:24:57.000Z</time>
      </trkpt>
      <trkpt lat="48.28566" lon="-2.88337">
        <ele>159.80000305176</ele>
        <time>2020-10-16T14:24:58.000Z</time>
      </trkpt>
      <trkpt lat="48.28567" lon="-2.88337">
        <ele>159.80000305176</ele>
        <time>2020-10-16T14:24:59.000Z</time>
      </trkpt>
      <trkpt lat="48.28567" lon="-2.88337">
        <ele>159.80000305176</ele>
        <time>2020-10-16T14:25:00.000Z</time>
      </trkpt>
      <trkpt lat="48.28567" lon="-2.88337">
        <ele>159.80000305176</ele>
        <time>2020-10-16T14:25:01.000Z</time>
      </trkpt>
      <trkpt lat="48.28567" lon="-2.88337">
        <ele>159.80000305176</ele>
        <time>2020-10-16T14:25:02.000Z</time>
      </trkpt>
      <trkpt lat="48.28567" lon="-2.88337">
        <ele>159.80000305176</ele>
        <time>2020-10-16T14:25:03.000Z</time>
      </trkpt>
      <trkpt lat="48.28567" lon="-2.88337">
        <ele>159.80000305176</ele>
        <time>2020-10-16T14:25:04.000Z</time>
      </trkpt>
      <trkpt lat="48.28567" lon="-2.88337">
        <ele>159.80000305176</ele>
        <time>2020-10-16T14:25:05.000Z</time>
      </trkpt>
      <trkpt lat="48.28567" lon="-2.88337">
        <ele>159.80000305176</ele>
        <time>2020-10-16T14:25:06.000Z</time>
      </trkpt>
      <trkpt lat="48.28567" lon="-2.88337">
        <ele>159.80000305176</ele>
        <time>2020-10-16T14:25:07.000Z</time>
      </trkpt>
      <trkpt lat="48.28567" lon="-2.88337">
        <ele>159.80000305176</ele>
        <time>2020-10-16T14:25:08.000Z</time>
      </trkpt>
      <trkpt lat="48.28567" lon="-2.88337">
        <ele>159.80000305176</ele>
        <time>2020-10-16T14:25:09.000Z</time>
      </trkpt>
      <trkpt lat="48.28567" lon="-2.88337">
        <ele>159.80000305176</ele>
        <time>2020-10-16T14:25:10.000Z</time>
      </trkpt>
      <trkpt lat="48.28567" lon="-2.88337">
        <ele>159.80000305176</ele>
        <time>2020-10-16T14:25:11.000Z</time>
      </trkpt>
      <trkpt lat="48.28567" lon="-2.88337">
        <ele>159.80000305176</ele>
        <time>2020-10-16T14:25:12.000Z</time>
      </trkpt>
      <trkpt lat="48.28567" lon="-2.88337">
        <ele>159.80000305176</ele>
        <time>2020-10-16T14:25:13.000Z</time>
      </trkpt>
      <trkpt lat="48.28567" lon="-2.88337">
        <ele>159.80000305176</ele>
        <time>2020-10-16T14:25:14.000Z</time>
      </trkpt>
      <trkpt lat="48.28567" lon="-2.88337">
        <ele>159.80000305176</ele>
        <time>2020-10-16T14:25:15.000Z</time>
      </trkpt>
      <trkpt lat="48.28566" lon="-2.88337">
        <ele>159.80000305176</ele>
        <time>2020-10-16T14:25:16.000Z</time>
      </trkpt>
      <trkpt lat="48.28566" lon="-2.88337">
        <ele>159.80000305176</ele>
        <time>2020-10-16T14:25:17.000Z</time>
      </trkpt>
      <trkpt lat="48.28566" lon="-2.88337">
        <ele>159.80000305176</ele>
        <time>2020-10-16T14:25:18.000Z</time>
      </trkpt>
      <trkpt lat="48.28566" lon="-2.88338">
        <ele>159.80000305176</ele>
        <time>2020-10-16T14:25:19.000Z</time>
      </trkpt>
      <trkpt lat="48.28567" lon="-2.88338">
        <ele>159.80000305176</ele>
        <time>2020-10-16T14:25:20.000Z</time>
      </trkpt>
      <trkpt lat="48.28567" lon="-2.88338">
        <ele>160</ele>
        <time>2020-10-16T14:25:21.000Z</time>
      </trkpt>
      <trkpt lat="48.28567" lon="-2.88339">
        <ele>160</ele>
        <time>2020-10-16T14:25:22.000Z</time>
      </trkpt>
      <trkpt lat="48.28567" lon="-2.88339">
        <ele>160</ele>
        <time>2020-10-16T14:25:23.000Z</time>
      </trkpt>
      <trkpt lat="48.28567" lon="-2.88339">
        <ele>160</ele>
        <time>2020-10-16T14:25:24.000Z</time>
      </trkpt>
      <trkpt lat="48.28567" lon="-2.88339">
        <ele>160</ele>
        <time>2020-10-16T14:25:25.000Z</time>
      </trkpt>
      <trkpt lat="48.28567" lon="-2.88339">
        <ele>160</ele>
        <time>2020-10-16T14:25:26.000Z</time>
      </trkpt>
      <trkpt lat="48.28567" lon="-2.8834">
        <ele>160</ele>
        <time>2020-10-16T14:25:27.000Z</time>
      </trkpt>
      <trkpt lat="48.28567" lon="-2.8834">
        <ele>160</ele>
        <time>2020-10-16T14:25:28.000Z</time>
      </trkpt>
      <trkpt lat="48.28568" lon="-2.8834">
        <ele>160</ele>
        <time>2020-10-16T14:25:29.000Z</time>
      </trkpt>
      <trkpt lat="48.28568" lon="-2.8834">
        <ele>160</ele>
        <time>2020-10-16T14:25:30.000Z</time>
      </trkpt>
      <trkpt lat="48.28568" lon="-2.8834">
        <ele>160</ele>
        <time>2020-10-16T14:25:31.000Z</time>
      </trkpt>
      <trkpt lat="48.28568" lon="-2.8834">
        <ele>160</ele>
        <time>2020-10-16T14:25:32.000Z</time>
      </trkpt>
      <trkpt lat="48.28568" lon="-2.8834">
        <ele>160</ele>
        <time>2020-10-16T14:25:33.000Z</time>
      </trkpt>
      <trkpt lat="48.28568" lon="-2.8834">
        <ele>160</ele>
        <time>2020-10-16T14:25:34.000Z</time>
      </trkpt>
      <trkpt lat="48.28568" lon="-2.8834">
        <ele>160</ele>
        <time>2020-10-16T14:25:35.000Z</time>
      </trkpt>
      <trkpt lat="48.28568" lon="-2.8834">
        <ele>160</ele>
        <time>2020-10-16T14:25:36.000Z</time>
      </trkpt>
      <trkpt lat="48.28568" lon="-2.8834">
        <ele>160</ele>
        <time>2020-10-16T14:25:37.000Z</time>
      </trkpt>
      <trkpt lat="48.28568" lon="-2.8834">
        <ele>160</ele>
        <time>2020-10-16T14:25:38.000Z</time>
      </trkpt>
      <trkpt lat="48.28568" lon="-2.8834">
        <ele>160</ele>
        <time>2020-10-16T14:25:39.000Z</time>
      </trkpt>
      <trkpt lat="48.28568" lon="-2.8834">
        <ele>160</ele>
        <time>2020-10-16T14:25:40.000Z</time>
      </trkpt>
      <trkpt lat="48.28568" lon="-2.8834">
        <ele>160</ele>
        <time>2020-10-16T14:25:41.000Z</time>
      </trkpt>
      <trkpt lat="48.28568" lon="-2.8834">
        <ele>160</ele>
        <time>2020-10-16T14:25:42.000Z</time>
      </trkpt>
      <trkpt lat="48.28568" lon="-2.8834">
        <ele>160</ele>
        <time>2020-10-16T14:25:43.000Z</time>
      </trkpt>
      <trkpt lat="48.28568" lon="-2.8834">
        <ele>160</ele>
        <time>2020-10-16T14:25:44.000Z</time>
      </trkpt>
      <trkpt lat="48.28568" lon="-2.8834">
        <ele>160</ele>
        <time>2020-10-16T14:25:45.000Z</time>
      </trkpt>
      <trkpt lat="48.28568" lon="-2.8834">
        <ele>160</ele>
        <time>2020-10-16T14:25:46.000Z</time>
      </trkpt>
      <trkpt lat="48.28568" lon="-2.8834">
        <ele>160</ele>
        <time>2020-10-16T14:25:47.000Z</time>
      </trkpt>
      <trkpt lat="48.28568" lon="-2.8834">
        <ele>160</ele>
        <time>2020-10-16T14:25:48.000Z</time>
      </trkpt>
      <trkpt lat="48.28568" lon="-2.8834">
        <ele>160</ele>
        <time>2020-10-16T14:25:49.000Z</time>
      </trkpt>
      <trkpt lat="48.28568" lon="-2.8834">
        <ele>160</ele>
        <time>2020-10-16T14:25:50.000Z</time>
      </trkpt>
      <trkpt lat="48.28567" lon="-2.8834">
        <ele>160</ele>
        <time>2020-10-16T14:25:51.000Z</time>
      </trkpt>
      <trkpt lat="48.28567" lon="-2.8834">
        <ele>160</ele>
        <time>2020-10-16T14:25:52.000Z</time>
      </trkpt>
      <trkpt lat="48.28568" lon="-2.8834">
        <ele>160</ele>
        <time>2020-10-16T14:25:53.000Z</time>
      </trkpt>
      <trkpt lat="48.28568" lon="-2.8834">
        <ele>160</ele>
        <time>2020-10-16T14:25:54.000Z</time>
      </trkpt>
      <trkpt lat="48.28568" lon="-2.8834">
        <ele>160</ele>
        <time>2020-10-16T14:25:55.000Z</time>
      </trkpt>
      <trkpt lat="48.28568" lon="-2.8834">
        <ele>160</ele>
        <time>2020-10-16T14:25:56.000Z</time>
      </trkpt>
      <trkpt lat="48.28568" lon="-2.8834">
        <ele>160</ele>
        <time>2020-10-16T14:25:57.000Z</time>
      </trkpt>
      <trkpt lat="48.28568" lon="-2.88341">
        <ele>160</ele>
        <time>2020-10-16T14:25:58.000Z</time>
      </trkpt>
      <trkpt lat="48.28568" lon="-2.88341">
        <ele>160</ele>
        <time>2020-10-16T14:25:59.000Z</time>
      </trkpt>
      <trkpt lat="48.28568" lon="-2.88342">
        <ele>160.19999694824</ele>
        <time>2020-10-16T14:26:00.000Z</time>
      </trkpt>
      <trkpt lat="48.28568" lon="-2.88344">
        <ele>160.39999389648</ele>
        <time>2020-10-16T14:26:01.000Z</time>
      </trkpt>
      <trkpt lat="48.28569" lon="-2.88344">
        <ele>160.39999389648</ele>
        <time>2020-10-16T14:26:02.000Z</time>
      </trkpt>
      <trkpt lat="48.2857" lon="-2.88344">
        <ele>160.39999389648</ele>
        <time>2020-10-16T14:26:03.000Z</time>
      </trkpt>
      <trkpt lat="48.2857" lon="-2.88345">
        <ele>160.39999389648</ele>
        <time>2020-10-16T14:26:04.000Z</time>
      </trkpt>
      <trkpt lat="48.2857" lon="-2.88345">
        <ele>160.39999389648</ele>
        <time>2020-10-16T14:26:05.000Z</time>
      </trkpt>
      <trkpt lat="48.2857" lon="-2.88345">
        <ele>160.39999389648</ele>
        <time>2020-10-16T14:26:06.000Z</time>
      </trkpt>
      <trkpt lat="48.2857" lon="-2.88346">
        <ele>160.60000610352</ele>
        <time>2020-10-16T14:26:07.000Z</time>
      </trkpt>
      <trkpt lat="48.2857" lon="-2.88346">
        <ele>160.60000610352</ele>
        <time>2020-10-16T14:26:08.000Z</time>
      </trkpt>
      <trkpt lat="48.2857" lon="-2.88346">
        <ele>160.60000610352</ele>
        <time>2020-10-16T14:26:09.000Z</time>
      </trkpt>
      <trkpt lat="48.2857" lon="-2.88345">
        <ele>160.39999389648</ele>
        <time>2020-10-16T14:26:10.000Z</time>
      </trkpt>
      <trkpt lat="48.2857" lon="-2.88345">
        <ele>160.39999389648</ele>
        <time>2020-10-16T14:26:11.000Z</time>
      </trkpt>
      <trkpt lat="48.2857" lon="-2.88345">
        <ele>160.39999389648</ele>
        <time>2020-10-16T14:26:12.000Z</time>
      </trkpt>
      <trkpt lat="48.28569" lon="-2.88346">
        <ele>160.60000610352</ele>
        <time>2020-10-16T14:26:13.000Z</time>
      </trkpt>
      <trkpt lat="48.28569" lon="-2.88348">
        <ele>160.60000610352</ele>
        <time>2020-10-16T14:26:14.000Z</time>
      </trkpt>
      <trkpt lat="48.28569" lon="-2.8835">
        <ele>160.80000305176</ele>
        <time>2020-10-16T14:26:15.000Z</time>
      </trkpt>
      <trkpt lat="48.28568" lon="-2.88352">
        <ele>161</ele>
        <time>2020-10-16T14:26:16.000Z</time>
      </trkpt>
      <trkpt lat="48.28568" lon="-2.88355">
        <ele>161.19999694824</ele>
        <time>2020-10-16T14:26:17.000Z</time>
      </trkpt>
      <trkpt lat="48.28568" lon="-2.8836">
        <ele>161.60000610352</ele>
        <time>2020-10-16T14:26:18.000Z</time>
      </trkpt>
      <trkpt lat="48.28568" lon="-2.8836">
        <ele>161.60000610352</ele>
        <time>2020-10-16T14:26:19.000Z</time>
      </trkpt>
      <trkpt lat="48.28568" lon="-2.88362">
        <ele>162</ele>
        <time>2020-10-16T14:26:20.000Z</time>
      </trkpt>
      <trkpt lat="48.28567" lon="-2.88365">
        <ele>162.19999694824</ele>
        <time>2020-10-16T14:26:21.000Z</time>
      </trkpt>
      <trkpt lat="48.28567" lon="-2.88368">
        <ele>162.39999389648</ele>
        <time>2020-10-16T14:26:22.000Z</time>
      </trkpt>
      <trkpt lat="48.28567" lon="-2.8837">
        <ele>162.60000610352</ele>
        <time>2020-10-16T14:26:23.000Z</time>
      </trkpt>
      <trkpt lat="48.28567" lon="-2.88373">
        <ele>162.80000305176</ele>
        <time>2020-10-16T14:26:24.000Z</time>
      </trkpt>
      <trkpt lat="48.28566" lon="-2.88375">
        <ele>162.80000305176</ele>
        <time>2020-10-16T14:26:25.000Z</time>
      </trkpt>
      <trkpt lat="48.28566" lon="-2.88378">
        <ele>163</ele>
        <time>2020-10-16T14:26:26.000Z</time>
      </trkpt>
      <trkpt lat="48.28567" lon="-2.88379">
        <ele>163.19999694824</ele>
        <time>2020-10-16T14:26:27.000Z</time>
      </trkpt>
      <trkpt lat="48.28567" lon="-2.88382">
        <ele>163.19999694824</ele>
        <time>2020-10-16T14:26:28.000Z</time>
      </trkpt>
      <trkpt lat="48.28566" lon="-2.88384">
        <ele>163.39999389648</ele>
        <time>2020-10-16T14:26:29.000Z</time>
      </trkpt>
      <trkpt lat="48.28566" lon="-2.88387">
        <ele>163.60000610352</ele>
        <time>2020-10-16T14:26:30.000Z</time>
      </trkpt>
      <trkpt lat="48.28566" lon="-2.8839">
        <ele>163.80000305176</ele>
        <time>2020-10-16T14:26:31.000Z</time>
      </trkpt>
      <trkpt lat="48.28566" lon="-2.88395">
        <ele>164</ele>
        <time>2020-10-16T14:26:32.000Z</time>
      </trkpt>
      <trkpt lat="48.28566" lon="-2.88395">
        <ele>164</ele>
        <time>2020-10-16T14:26:33.000Z</time>
      </trkpt>
      <trkpt lat="48.28566" lon="-2.88398">
        <ele>164.19999694824</ele>
        <time>2020-10-16T14:26:34.000Z</time>
      </trkpt>
      <trkpt lat="48.28565" lon="-2.884">
        <ele>164.39999389648</ele>
        <time>2020-10-16T14:26:35.000Z</time>
      </trkpt>
      <trkpt lat="48.28565" lon="-2.88403">
        <ele>164.60000610352</ele>
        <time>2020-10-16T14:26:36.000Z</time>
      </trkpt>
      <trkpt lat="48.28565" lon="-2.88406">
        <ele>164.80000305176</ele>
        <time>2020-10-16T14:26:37.000Z</time>
      </trkpt>
      <trkpt lat="48.28565" lon="-2.88409">
        <ele>165</ele>
        <time>2020-10-16T14:26:38.000Z</time>
      </trkpt>
      <trkpt lat="48.28565" lon="-2.88412">
        <ele>165.19999694824</ele>
        <time>2020-10-16T14:26:39.000Z</time>
      </trkpt>
      <trkpt lat="48.28565" lon="-2.88415">
        <ele>165.19999694824</ele>
        <time>2020-10-16T14:26:40.000Z</time>
      </trkpt>
      <trkpt lat="48.28565" lon="-2.88418">
        <ele>165.39999389648</ele>
        <time>2020-10-16T14:26:41.000Z</time>
      </trkpt>
      <trkpt lat="48.28565" lon="-2.88421">
        <ele>165.60000610352</ele>
        <time>2020-10-16T14:26:42.000Z</time>
      </trkpt>
      <trkpt lat="48.28565" lon="-2.88424">
        <ele>165.80000305176</ele>
        <time>2020-10-16T14:26:43.000Z</time>
      </trkpt>
      <trkpt lat="48.28564" lon="-2.88427">
        <ele>166</ele>
        <time>2020-10-16T14:26:44.000Z</time>
      </trkpt>
      <trkpt lat="48.28564" lon="-2.8843">
        <ele>166.19999694824</ele>
        <time>2020-10-16T14:26:45.000Z</time>
      </trkpt>
      <trkpt lat="48.28564" lon="-2.88433">
        <ele>166.39999389648</ele>
        <time>2020-10-16T14:26:46.000Z</time>
      </trkpt>
      <trkpt lat="48.28563" lon="-2.88436">
        <ele>166.60000610352</ele>
        <time>2020-10-16T14:26:47.000Z</time>
      </trkpt>
      <trkpt lat="48.28563" lon="-2.88439">
        <ele>166.80000305176</ele>
        <time>2020-10-16T14:26:48.000Z</time>
      </trkpt>
      <trkpt lat="48.28563" lon="-2.88442">
        <ele>167</ele>
        <time>2020-10-16T14:26:49.000Z</time>
      </trkpt>
      <trkpt lat="48.28562" lon="-2.88445">
        <ele>167.19999694824</ele>
        <time>2020-10-16T14:26:50.000Z</time>
      </trkpt>
      <trkpt lat="48.28562" lon="-2.88448">
        <ele>167.39999389648</ele>
        <time>2020-10-16T14:26:51.000Z</time>
      </trkpt>
      <trkpt lat="48.28562" lon="-2.88451">
        <ele>167.60000610352</ele>
        <time>2020-10-16T14:26:52.000Z</time>
      </trkpt>
      <trkpt lat="48.28561" lon="-2.88454">
        <ele>167.60000610352</ele>
        <time>2020-10-16T14:26:53.000Z</time>
      </trkpt>
      <trkpt lat="48.28561" lon="-2.88457">
        <ele>167.80000305176</ele>
        <time>2020-10-16T14:26:54.000Z</time>
      </trkpt>
      <trkpt lat="48.28561" lon="-2.88459">
        <ele>168</ele>
        <time>2020-10-16T14:26:55.000Z</time>
      </trkpt>
      <trkpt lat="48.2856" lon="-2.88462">
        <ele>168.19999694824</ele>
        <time>2020-10-16T14:26:56.000Z</time>
      </trkpt>
      <trkpt lat="48.2856" lon="-2.88465">
        <ele>168.39999389648</ele>
        <time>2020-10-16T14:26:57.000Z</time>
      </trkpt>
      <trkpt lat="48.28559" lon="-2.88468">
        <ele>168.60000610352</ele>
        <time>2020-10-16T14:26:58.000Z</time>
      </trkpt>
      <trkpt lat="48.28559" lon="-2.88471">
        <ele>168.80000305176</ele>
        <time>2020-10-16T14:26:59.000Z</time>
      </trkpt>
      <trkpt lat="48.28558" lon="-2.88474">
        <ele>169</ele>
        <time>2020-10-16T14:27:00.000Z</time>
      </trkpt>
      <trkpt lat="48.28557" lon="-2.88477">
        <ele>169.19999694824</ele>
        <time>2020-10-16T14:27:01.000Z</time>
      </trkpt>
      <trkpt lat="48.28556" lon="-2.88483">
        <ele>169.60000610352</ele>
        <time>2020-10-16T14:27:02.000Z</time>
      </trkpt>
      <trkpt lat="48.28556" lon="-2.88483">
        <ele>169.60000610352</ele>
        <time>2020-10-16T14:27:03.000Z</time>
      </trkpt>
      <trkpt lat="48.28556" lon="-2.88486">
        <ele>169.80000305176</ele>
        <time>2020-10-16T14:27:04.000Z</time>
      </trkpt>
      <trkpt lat="48.28555" lon="-2.88489">
        <ele>170</ele>
        <time>2020-10-16T14:27:05.000Z</time>
      </trkpt>
      <trkpt lat="48.28554" lon="-2.88491">
        <ele>170.19999694824</ele>
        <time>2020-10-16T14:27:06.000Z</time>
      </trkpt>
      <trkpt lat="48.28553" lon="-2.88493">
        <ele>170.19999694824</ele>
        <time>2020-10-16T14:27:07.000Z</time>
      </trkpt>
      <trkpt lat="48.28552" lon="-2.88495">
        <ele>170.39999389648</ele>
        <time>2020-10-16T14:27:08.000Z</time>
      </trkpt>
      <trkpt lat="48.28552" lon="-2.88498">
        <ele>170.60000610352</ele>
        <time>2020-10-16T14:27:09.000Z</time>
      </trkpt>
      <trkpt lat="48.28551" lon="-2.88501">
        <ele>170.80000305176</ele>
        <time>2020-10-16T14:27:10.000Z</time>
      </trkpt>
      <trkpt lat="48.28549" lon="-2.88506">
        <ele>171.19999694824</ele>
        <time>2020-10-16T14:27:11.000Z</time>
      </trkpt>
      <trkpt lat="48.28549" lon="-2.88506">
        <ele>171.19999694824</ele>
        <time>2020-10-16T14:27:12.000Z</time>
      </trkpt>
      <trkpt lat="48.28548" lon="-2.88509">
        <ele>171.39999389648</ele>
        <time>2020-10-16T14:27:13.000Z</time>
      </trkpt>
      <trkpt lat="48.28548" lon="-2.88512">
        <ele>171.60000610352</ele>
        <time>2020-10-16T14:27:14.000Z</time>
      </trkpt>
      <trkpt lat="48.28547" lon="-2.88514">
        <ele>171.80000305176</ele>
        <time>2020-10-16T14:27:15.000Z</time>
      </trkpt>
      <trkpt lat="48.28546" lon="-2.88517">
        <ele>172</ele>
        <time>2020-10-16T14:27:16.000Z</time>
      </trkpt>
      <trkpt lat="48.28546" lon="-2.8852">
        <ele>172.19999694824</ele>
        <time>2020-10-16T14:27:17.000Z</time>
      </trkpt>
      <trkpt lat="48.28545" lon="-2.88522">
        <ele>172.39999389648</ele>
        <time>2020-10-16T14:27:18.000Z</time>
      </trkpt>
      <trkpt lat="48.28544" lon="-2.88525">
        <ele>172.60000610352</ele>
        <time>2020-10-16T14:27:19.000Z</time>
      </trkpt>
      <trkpt lat="48.28543" lon="-2.88528">
        <ele>172.80000305176</ele>
        <time>2020-10-16T14:27:20.000Z</time>
      </trkpt>
      <trkpt lat="48.28542" lon="-2.8853">
        <ele>173</ele>
        <time>2020-10-16T14:27:21.000Z</time>
      </trkpt>
      <trkpt lat="48.28541" lon="-2.88533">
        <ele>173.19999694824</ele>
        <time>2020-10-16T14:27:22.000Z</time>
      </trkpt>
      <trkpt lat="48.28541" lon="-2.88535">
        <ele>173.39999389648</ele>
        <time>2020-10-16T14:27:23.000Z</time>
      </trkpt>
      <trkpt lat="48.2854" lon="-2.88538">
        <ele>173.60000610352</ele>
        <time>2020-10-16T14:27:24.000Z</time>
      </trkpt>
      <trkpt lat="48.28539" lon="-2.88541">
        <ele>173.80000305176</ele>
        <time>2020-10-16T14:27:25.000Z</time>
      </trkpt>
      <trkpt lat="48.28538" lon="-2.88543">
        <ele>174</ele>
        <time>2020-10-16T14:27:26.000Z</time>
      </trkpt>
      <trkpt lat="48.28537" lon="-2.88549">
        <ele>174.39999389648</ele>
        <time>2020-10-16T14:27:27.000Z</time>
      </trkpt>
      <trkpt lat="48.28537" lon="-2.88549">
        <ele>174.39999389648</ele>
        <time>2020-10-16T14:27:28.000Z</time>
      </trkpt>
      <trkpt lat="48.28536" lon="-2.88551">
        <ele>174.60000610352</ele>
        <time>2020-10-16T14:27:29.000Z</time>
      </trkpt>
      <trkpt lat="48.28535" lon="-2.88554">
        <ele>175</ele>
        <time>2020-10-16T14:27:30.000Z</time>
      </trkpt>
      <trkpt lat="48.28534" lon="-2.88557">
        <ele>175.19999694824</ele>
        <time>2020-10-16T14:27:31.000Z</time>
      </trkpt>
      <trkpt lat="48.28533" lon="-2.8856">
        <ele>175.39999389648</ele>
        <time>2020-10-16T14:27:32.000Z</time>
      </trkpt>
      <trkpt lat="48.28533" lon="-2.88562">
        <ele>175.60000610352</ele>
        <time>2020-10-16T14:27:33.000Z</time>
      </trkpt>
      <trkpt lat="48.28532" lon="-2.88565">
        <ele>175.80000305176</ele>
        <time>2020-10-16T14:27:34.000Z</time>
      </trkpt>
      <trkpt lat="48.28531" lon="-2.88568">
        <ele>176</ele>
        <time>2020-10-16T14:27:35.000Z</time>
      </trkpt>
      <trkpt lat="48.2853" lon="-2.8857">
        <ele>176.19999694824</ele>
        <time>2020-10-16T14:27:36.000Z</time>
      </trkpt>
      <trkpt lat="48.28529" lon="-2.88573">
        <ele>176.39999389648</ele>
        <time>2020-10-16T14:27:37.000Z</time>
      </trkpt>
      <trkpt lat="48.28528" lon="-2.88576">
        <ele>176.60000610352</ele>
        <time>2020-10-16T14:27:38.000Z</time>
      </trkpt>
      <trkpt lat="48.28527" lon="-2.88579">
        <ele>176.80000305176</ele>
        <time>2020-10-16T14:27:39.000Z</time>
      </trkpt>
      <trkpt lat="48.28527" lon="-2.88581">
        <ele>177</ele>
        <time>2020-10-16T14:27:40.000Z</time>
      </trkpt>
      <trkpt lat="48.28526" lon="-2.88584">
        <ele>177.19999694824</ele>
        <time>2020-10-16T14:27:41.000Z</time>
      </trkpt>
      <trkpt lat="48.28525" lon="-2.88587">
        <ele>177.60000610352</ele>
        <time>2020-10-16T14:27:42.000Z</time>
      </trkpt>
      <trkpt lat="48.28524" lon="-2.8859">
        <ele>177.80000305176</ele>
        <time>2020-10-16T14:27:43.000Z</time>
      </trkpt>
      <trkpt lat="48.28523" lon="-2.88592">
        <ele>178</ele>
        <time>2020-10-16T14:27:44.000Z</time>
      </trkpt>
      <trkpt lat="48.28523" lon="-2.88595">
        <ele>178.19999694824</ele>
        <time>2020-10-16T14:27:45.000Z</time>
      </trkpt>
      <trkpt lat="48.28522" lon="-2.88598">
        <ele>178.19999694824</ele>
        <time>2020-10-16T14:27:46.000Z</time>
      </trkpt>
      <trkpt lat="48.28521" lon="-2.88601">
        <ele>178.39999389648</ele>
        <time>2020-10-16T14:27:47.000Z</time>
      </trkpt>
      <trkpt lat="48.2852" lon="-2.88603">
        <ele>178.60000610352</ele>
        <time>2020-10-16T14:27:48.000Z</time>
      </trkpt>
      <trkpt lat="48.28519" lon="-2.88606">
        <ele>178.80000305176</ele>
        <time>2020-10-16T14:27:49.000Z</time>
      </trkpt>
      <trkpt lat="48.28518" lon="-2.88609">
        <ele>179</ele>
        <time>2020-10-16T14:27:50.000Z</time>
      </trkpt>
      <trkpt lat="48.28518" lon="-2.88612">
        <ele>179.19999694824</ele>
        <time>2020-10-16T14:27:51.000Z</time>
      </trkpt>
      <trkpt lat="48.28517" lon="-2.88615">
        <ele>179.39999389648</ele>
        <time>2020-10-16T14:27:52.000Z</time>
      </trkpt>
      <trkpt lat="48.28516" lon="-2.88618">
        <ele>179.60000610352</ele>
        <time>2020-10-16T14:27:53.000Z</time>
      </trkpt>
      <trkpt lat="48.28515" lon="-2.8862">
        <ele>179.80000305176</ele>
        <time>2020-10-16T14:27:54.000Z</time>
      </trkpt>
      <trkpt lat="48.28514" lon="-2.88623">
        <ele>180</ele>
        <time>2020-10-16T14:27:55.000Z</time>
      </trkpt>
      <trkpt lat="48.28512" lon="-2.88629">
        <ele>180.39999389648</ele>
        <time>2020-10-16T14:27:56.000Z</time>
      </trkpt>
      <trkpt lat="48.28512" lon="-2.88629">
        <ele>180.39999389648</ele>
        <time>2020-10-16T14:27:57.000Z</time>
      </trkpt>
      <trkpt lat="48.28511" lon="-2.88631">
        <ele>180.39999389648</ele>
        <time>2020-10-16T14:27:58.000Z</time>
      </trkpt>
      <trkpt lat="48.28511" lon="-2.88634">
        <ele>180.60000610352</ele>
        <time>2020-10-16T14:27:59.000Z</time>
      </trkpt>
      <trkpt lat="48.28508" lon="-2.8864">
        <ele>181</ele>
        <time>2020-10-16T14:28:00.000Z</time>
      </trkpt>
      <trkpt lat="48.28508" lon="-2.8864">
        <ele>181</ele>
        <time>2020-10-16T14:28:01.000Z</time>
      </trkpt>
      <trkpt lat="48.28507" lon="-2.88643">
        <ele>181</ele>
        <time>2020-10-16T14:28:02.000Z</time>
      </trkpt>
      <trkpt lat="48.28507" lon="-2.88645">
        <ele>181.19999694824</ele>
        <time>2020-10-16T14:28:03.000Z</time>
      </trkpt>
      <trkpt lat="48.28506" lon="-2.88648">
        <ele>181.39999389648</ele>
        <time>2020-10-16T14:28:04.000Z</time>
      </trkpt>
      <trkpt lat="48.28505" lon="-2.88651">
        <ele>181.60000610352</ele>
        <time>2020-10-16T14:28:05.000Z</time>
      </trkpt>
      <trkpt lat="48.28503" lon="-2.88657">
        <ele>182</ele>
        <time>2020-10-16T14:28:06.000Z</time>
      </trkpt>
      <trkpt lat="48.28503" lon="-2.88657">
        <ele>182</ele>
        <time>2020-10-16T14:28:07.000Z</time>
      </trkpt>
      <trkpt lat="48.28502" lon="-2.8866">
        <ele>182</ele>
        <time>2020-10-16T14:28:08.000Z</time>
      </trkpt>
      <trkpt lat="48.28501" lon="-2.88662">
        <ele>182.19999694824</ele>
        <time>2020-10-16T14:28:09.000Z</time>
      </trkpt>
      <trkpt lat="48.285" lon="-2.88665">
        <ele>182.39999389648</ele>
        <time>2020-10-16T14:28:10.000Z</time>
      </trkpt>
      <trkpt lat="48.28499" lon="-2.88668">
        <ele>182.60000610352</ele>
        <time>2020-10-16T14:28:11.000Z</time>
      </trkpt>
      <trkpt lat="48.28498" lon="-2.88671">
        <ele>182.80000305176</ele>
        <time>2020-10-16T14:28:12.000Z</time>
      </trkpt>
      <trkpt lat="48.28497" lon="-2.88674">
        <ele>182.80000305176</ele>
        <time>2020-10-16T14:28:13.000Z</time>
      </trkpt>
      <trkpt lat="48.28496" lon="-2.88677">
        <ele>183</ele>
        <time>2020-10-16T14:28:14.000Z</time>
      </trkpt>
      <trkpt lat="48.28495" lon="-2.8868">
        <ele>183.19999694824</ele>
        <time>2020-10-16T14:28:15.000Z</time>
      </trkpt>
      <trkpt lat="48.28494" lon="-2.88687">
        <ele>183.60000610352</ele>
        <time>2020-10-16T14:28:16.000Z</time>
      </trkpt>
      <trkpt lat="48.28494" lon="-2.88687">
        <ele>183.60000610352</ele>
        <time>2020-10-16T14:28:17.000Z</time>
      </trkpt>
      <trkpt lat="48.28493" lon="-2.8869">
        <ele>183.80000305176</ele>
        <time>2020-10-16T14:28:18.000Z</time>
      </trkpt>
      <trkpt lat="48.28491" lon="-2.88693">
        <ele>184</ele>
        <time>2020-10-16T14:28:19.000Z</time>
      </trkpt>
      <trkpt lat="48.2849" lon="-2.88697">
        <ele>184.19999694824</ele>
        <time>2020-10-16T14:28:20.000Z</time>
      </trkpt>
      <trkpt lat="48.28488" lon="-2.887">
        <ele>184.39999389648</ele>
        <time>2020-10-16T14:28:21.000Z</time>
      </trkpt>
      <trkpt lat="48.28487" lon="-2.88704">
        <ele>184.39999389648</ele>
        <time>2020-10-16T14:28:22.000Z</time>
      </trkpt>
      <trkpt lat="48.28486" lon="-2.88707">
        <ele>184.60000610352</ele>
        <time>2020-10-16T14:28:23.000Z</time>
      </trkpt>
      <trkpt lat="48.28484" lon="-2.88711">
        <ele>184.80000305176</ele>
        <time>2020-10-16T14:28:24.000Z</time>
      </trkpt>
      <trkpt lat="48.28483" lon="-2.88714">
        <ele>185</ele>
        <time>2020-10-16T14:28:25.000Z</time>
      </trkpt>
      <trkpt lat="48.28482" lon="-2.88718">
        <ele>185.19999694824</ele>
        <time>2020-10-16T14:28:26.000Z</time>
      </trkpt>
      <trkpt lat="48.2848" lon="-2.88721">
        <ele>185.39999389648</ele>
        <time>2020-10-16T14:28:27.000Z</time>
      </trkpt>
      <trkpt lat="48.28479" lon="-2.88725">
        <ele>185.39999389648</ele>
        <time>2020-10-16T14:28:28.000Z</time>
      </trkpt>
      <trkpt lat="48.28477" lon="-2.88728">
        <ele>185.60000610352</ele>
        <time>2020-10-16T14:28:29.000Z</time>
      </trkpt>
      <trkpt lat="48.28476" lon="-2.88731">
        <ele>185.80000305176</ele>
        <time>2020-10-16T14:28:30.000Z</time>
      </trkpt>
      <trkpt lat="48.28474" lon="-2.88735">
        <ele>186</ele>
        <time>2020-10-16T14:28:31.000Z</time>
      </trkpt>
      <trkpt lat="48.28473" lon="-2.88738">
        <ele>186.19999694824</ele>
        <time>2020-10-16T14:28:32.000Z</time>
      </trkpt>
      <trkpt lat="48.28471" lon="-2.88741">
        <ele>186.19999694824</ele>
        <time>2020-10-16T14:28:33.000Z</time>
      </trkpt>
      <trkpt lat="48.28469" lon="-2.88745">
        <ele>186.39999389648</ele>
        <time>2020-10-16T14:28:34.000Z</time>
      </trkpt>
      <trkpt lat="48.28466" lon="-2.88751">
        <ele>186.80000305176</ele>
        <time>2020-10-16T14:28:35.000Z</time>
      </trkpt>
      <trkpt lat="48.28466" lon="-2.88751">
        <ele>186.80000305176</ele>
        <time>2020-10-16T14:28:36.000Z</time>
      </trkpt>
      <trkpt lat="48.28464" lon="-2.88755">
        <ele>187</ele>
        <time>2020-10-16T14:28:37.000Z</time>
      </trkpt>
      <trkpt lat="48.28463" lon="-2.88758">
        <ele>187</ele>
        <time>2020-10-16T14:28:38.000Z</time>
      </trkpt>
      <trkpt lat="48.28461" lon="-2.88761">
        <ele>187.39999389648</ele>
        <time>2020-10-16T14:28:39.000Z</time>
      </trkpt>
      <trkpt lat="48.28459" lon="-2.88765">
        <ele>187.60000610352</ele>
        <time>2020-10-16T14:28:40.000Z</time>
      </trkpt>
      <trkpt lat="48.28457" lon="-2.88768">
        <ele>187.80000305176</ele>
        <time>2020-10-16T14:28:41.000Z</time>
      </trkpt>
      <trkpt lat="48.28455" lon="-2.88771">
        <ele>187.80000305176</ele>
        <time>2020-10-16T14:28:42.000Z</time>
      </trkpt>
      <trkpt lat="48.28454" lon="-2.88775">
        <ele>188</ele>
        <time>2020-10-16T14:28:43.000Z</time>
      </trkpt>
      <trkpt lat="48.28452" lon="-2.88778">
        <ele>188.19999694824</ele>
        <time>2020-10-16T14:28:44.000Z</time>
      </trkpt>
      <trkpt lat="48.2845" lon="-2.88781">
        <ele>188.39999389648</ele>
        <time>2020-10-16T14:28:45.000Z</time>
      </trkpt>
      <trkpt lat="48.28448" lon="-2.88785">
        <ele>188.60000610352</ele>
        <time>2020-10-16T14:28:46.000Z</time>
      </trkpt>
      <trkpt lat="48.28446" lon="-2.88788">
        <ele>188.80000305176</ele>
        <time>2020-10-16T14:28:47.000Z</time>
      </trkpt>
      <trkpt lat="48.28444" lon="-2.88791">
        <ele>189</ele>
        <time>2020-10-16T14:28:48.000Z</time>
      </trkpt>
      <trkpt lat="48.28443" lon="-2.88794">
        <ele>189.19999694824</ele>
        <time>2020-10-16T14:28:49.000Z</time>
      </trkpt>
      <trkpt lat="48.28441" lon="-2.88798">
        <ele>189.39999389648</ele>
        <time>2020-10-16T14:28:50.000Z</time>
      </trkpt>
      <trkpt lat="48.28439" lon="-2.88801">
        <ele>189.60000610352</ele>
        <time>2020-10-16T14:28:51.000Z</time>
      </trkpt>
      <trkpt lat="48.28437" lon="-2.88804">
        <ele>189.80000305176</ele>
        <time>2020-10-16T14:28:52.000Z</time>
      </trkpt>
      <trkpt lat="48.28435" lon="-2.88807">
        <ele>190</ele>
        <time>2020-10-16T14:28:53.000Z</time>
      </trkpt>
      <trkpt lat="48.28433" lon="-2.8881">
        <ele>190.19999694824</ele>
        <time>2020-10-16T14:28:54.000Z</time>
      </trkpt>
      <trkpt lat="48.28431" lon="-2.88814">
        <ele>190.39999389648</ele>
        <time>2020-10-16T14:28:55.000Z</time>
      </trkpt>
      <trkpt lat="48.28429" lon="-2.88817">
        <ele>190.60000610352</ele>
        <time>2020-10-16T14:28:56.000Z</time>
      </trkpt>
      <trkpt lat="48.28428" lon="-2.8882">
        <ele>190.80000305176</ele>
        <time>2020-10-16T14:28:57.000Z</time>
      </trkpt>
      <trkpt lat="48.28426" lon="-2.88823">
        <ele>191</ele>
        <time>2020-10-16T14:28:58.000Z</time>
      </trkpt>
      <trkpt lat="48.28424" lon="-2.88826">
        <ele>191.19999694824</ele>
        <time>2020-10-16T14:28:59.000Z</time>
      </trkpt>
      <trkpt lat="48.28422" lon="-2.8883">
        <ele>191.39999389648</ele>
        <time>2020-10-16T14:29:00.000Z</time>
      </trkpt>
      <trkpt lat="48.28421" lon="-2.88833">
        <ele>191.60000610352</ele>
        <time>2020-10-16T14:29:01.000Z</time>
      </trkpt>
      <trkpt lat="48.28417" lon="-2.88839">
        <ele>192</ele>
        <time>2020-10-16T14:29:02.000Z</time>
      </trkpt>
      <trkpt lat="48.28417" lon="-2.88839">
        <ele>192</ele>
        <time>2020-10-16T14:29:03.000Z</time>
      </trkpt>
      <trkpt lat="48.28415" lon="-2.88843">
        <ele>192.19999694824</ele>
        <time>2020-10-16T14:29:04.000Z</time>
      </trkpt>
      <trkpt lat="48.28414" lon="-2.88846">
        <ele>192.60000610352</ele>
        <time>2020-10-16T14:29:05.000Z</time>
      </trkpt>
      <trkpt lat="48.28412" lon="-2.8885">
        <ele>192.80000305176</ele>
        <time>2020-10-16T14:29:06.000Z</time>
      </trkpt>
      <trkpt lat="48.28411" lon="-2.88853">
        <ele>193.19999694824</ele>
        <time>2020-10-16T14:29:07.000Z</time>
      </trkpt>
      <trkpt lat="48.28409" lon="-2.88856">
        <ele>193.39999389648</ele>
        <time>2020-10-16T14:29:08.000Z</time>
      </trkpt>
      <trkpt lat="48.28407" lon="-2.88859">
        <ele>193.60000610352</ele>
        <time>2020-10-16T14:29:09.000Z</time>
      </trkpt>
      <trkpt lat="48.28406" lon="-2.88863">
        <ele>194</ele>
        <time>2020-10-16T14:29:10.000Z</time>
      </trkpt>
      <trkpt lat="48.28404" lon="-2.88866">
        <ele>194.19999694824</ele>
        <time>2020-10-16T14:29:11.000Z</time>
      </trkpt>
      <trkpt lat="48.28401" lon="-2.88873">
        <ele>194.60000610352</ele>
        <time>2020-10-16T14:29:12.000Z</time>
      </trkpt>
      <trkpt lat="48.28401" lon="-2.88873">
        <ele>194.60000610352</ele>
        <time>2020-10-16T14:29:13.000Z</time>
      </trkpt>
      <trkpt lat="48.284" lon="-2.88877">
        <ele>194.80000305176</ele>
        <time>2020-10-16T14:29:14.000Z</time>
      </trkpt>
      <trkpt lat="48.28399" lon="-2.8888">
        <ele>195</ele>
        <time>2020-10-16T14:29:15.000Z</time>
      </trkpt>
      <trkpt lat="48.28397" lon="-2.88884">
        <ele>195.19999694824</ele>
        <time>2020-10-16T14:29:16.000Z</time>
      </trkpt>
      <trkpt lat="48.28396" lon="-2.88887">
        <ele>195.39999389648</ele>
        <time>2020-10-16T14:29:17.000Z</time>
      </trkpt>
      <trkpt lat="48.28395" lon="-2.8889">
        <ele>195.60000610352</ele>
        <time>2020-10-16T14:29:18.000Z</time>
      </trkpt>
      <trkpt lat="48.28394" lon="-2.88894">
        <ele>195.80000305176</ele>
        <time>2020-10-16T14:29:19.000Z</time>
      </trkpt>
      <trkpt lat="48.28392" lon="-2.88897">
        <ele>196.19999694824</ele>
        <time>2020-10-16T14:29:20.000Z</time>
      </trkpt>
      <trkpt lat="48.28391" lon="-2.88901">
        <ele>196.39999389648</ele>
        <time>2020-10-16T14:29:21.000Z</time>
      </trkpt>
      <trkpt lat="48.2839" lon="-2.88904">
        <ele>196.60000610352</ele>
        <time>2020-10-16T14:29:22.000Z</time>
      </trkpt>
      <trkpt lat="48.28389" lon="-2.88907">
        <ele>196.80000305176</ele>
        <time>2020-10-16T14:29:23.000Z</time>
      </trkpt>
      <trkpt lat="48.28388" lon="-2.88911">
        <ele>197</ele>
        <time>2020-10-16T14:29:24.000Z</time>
      </trkpt>
      <trkpt lat="48.28387" lon="-2.88914">
        <ele>197</ele>
        <time>2020-10-16T14:29:25.000Z</time>
      </trkpt>
      <trkpt lat="48.28386" lon="-2.88917">
        <ele>197.19999694824</ele>
        <time>2020-10-16T14:29:26.000Z</time>
      </trkpt>
      <trkpt lat="48.28385" lon="-2.8892">
        <ele>197.39999389648</ele>
        <time>2020-10-16T14:29:27.000Z</time>
      </trkpt>
      <trkpt lat="48.28384" lon="-2.88923">
        <ele>197.60000610352</ele>
        <time>2020-10-16T14:29:28.000Z</time>
      </trkpt>
      <trkpt lat="48.28383" lon="-2.88926">
        <ele>197.80000305176</ele>
        <time>2020-10-16T14:29:29.000Z</time>
      </trkpt>
      <trkpt lat="48.28382" lon="-2.88929">
        <ele>198.19999694824</ele>
        <time>2020-10-16T14:29:30.000Z</time>
      </trkpt>
      <trkpt lat="48.28381" lon="-2.88932">
        <ele>198.39999389648</ele>
        <time>2020-10-16T14:29:31.000Z</time>
      </trkpt>
      <trkpt lat="48.2838" lon="-2.88935">
        <ele>198.60000610352</ele>
        <time>2020-10-16T14:29:32.000Z</time>
      </trkpt>
      <trkpt lat="48.28379" lon="-2.88938">
        <ele>198.80000305176</ele>
        <time>2020-10-16T14:29:33.000Z</time>
      </trkpt>
      <trkpt lat="48.28378" lon="-2.88945">
        <ele>199.39999389648</ele>
        <time>2020-10-16T14:29:34.000Z</time>
      </trkpt>
      <trkpt lat="48.28378" lon="-2.88945">
        <ele>199.39999389648</ele>
        <time>2020-10-16T14:29:35.000Z</time>
      </trkpt>
      <trkpt lat="48.28377" lon="-2.88948">
        <ele>199.60000610352</ele>
        <time>2020-10-16T14:29:36.000Z</time>
      </trkpt>
      <trkpt lat="48.28376" lon="-2.88951">
        <ele>200</ele>
        <time>2020-10-16T14:29:37.000Z</time>
      </trkpt>
      <trkpt lat="48.28375" lon="-2.88953">
        <ele>200.19999694824</ele>
        <time>2020-10-16T14:29:38.000Z</time>
      </trkpt>
      <trkpt lat="48.28374" lon="-2.88956">
        <ele>200.39999389648</ele>
        <time>2020-10-16T14:29:39.000Z</time>
      </trkpt>
      <trkpt lat="48.28373" lon="-2.88959">
        <ele>200.60000610352</ele>
        <time>2020-10-16T14:29:40.000Z</time>
      </trkpt>
      <trkpt lat="48.28372" lon="-2.88962">
        <ele>200.80000305176</ele>
        <time>2020-10-16T14:29:41.000Z</time>
      </trkpt>
      <trkpt lat="48.28371" lon="-2.88965">
        <ele>201.19999694824</ele>
        <time>2020-10-16T14:29:42.000Z</time>
      </trkpt>
      <trkpt lat="48.2837" lon="-2.88968">
        <ele>201.39999389648</ele>
        <time>2020-10-16T14:29:43.000Z</time>
      </trkpt>
      <trkpt lat="48.28369" lon="-2.88971">
        <ele>201.60000610352</ele>
        <time>2020-10-16T14:29:44.000Z</time>
      </trkpt>
      <trkpt lat="48.28368" lon="-2.88974">
        <ele>201.80000305176</ele>
        <time>2020-10-16T14:29:45.000Z</time>
      </trkpt>
      <trkpt lat="48.28368" lon="-2.88977">
        <ele>202</ele>
        <time>2020-10-16T14:29:46.000Z</time>
      </trkpt>
      <trkpt lat="48.28367" lon="-2.8898">
        <ele>202.39999389648</ele>
        <time>2020-10-16T14:29:47.000Z</time>
      </trkpt>
      <trkpt lat="48.28366" lon="-2.88983">
        <ele>202.60000610352</ele>
        <time>2020-10-16T14:29:48.000Z</time>
      </trkpt>
      <trkpt lat="48.28365" lon="-2.88986">
        <ele>202.80000305176</ele>
        <time>2020-10-16T14:29:49.000Z</time>
      </trkpt>
      <trkpt lat="48.28365" lon="-2.88989">
        <ele>203</ele>
        <time>2020-10-16T14:29:50.000Z</time>
      </trkpt>
      <trkpt lat="48.28364" lon="-2.88992">
        <ele>203.19999694824</ele>
        <time>2020-10-16T14:29:51.000Z</time>
      </trkpt>
      <trkpt lat="48.28363" lon="-2.88995">
        <ele>203.39999389648</ele>
        <time>2020-10-16T14:29:52.000Z</time>
      </trkpt>
      <trkpt lat="48.28363" lon="-2.88998">
        <ele>203.60000610352</ele>
        <time>2020-10-16T14:29:53.000Z</time>
      </trkpt>
      <trkpt lat="48.28362" lon="-2.89001">
        <ele>203.80000305176</ele>
        <time>2020-10-16T14:29:54.000Z</time>
      </trkpt>
      <trkpt lat="48.28361" lon="-2.89004">
        <ele>204</ele>
        <time>2020-10-16T14:29:55.000Z</time>
      </trkpt>
      <trkpt lat="48.2836" lon="-2.89007">
        <ele>204.19999694824</ele>
        <time>2020-10-16T14:29:56.000Z</time>
      </trkpt>
      <trkpt lat="48.2836" lon="-2.8901">
        <ele>204.60000610352</ele>
        <time>2020-10-16T14:29:57.000Z</time>
      </trkpt>
      <trkpt lat="48.28359" lon="-2.89014">
        <ele>204.80000305176</ele>
        <time>2020-10-16T14:29:58.000Z</time>
      </trkpt>
      <trkpt lat="48.28359" lon="-2.89017">
        <ele>205.19999694824</ele>
        <time>2020-10-16T14:29:59.000Z</time>
      </trkpt>
      <trkpt lat="48.28358" lon="-2.8902">
        <ele>205.39999389648</ele>
        <time>2020-10-16T14:30:00.000Z</time>
      </trkpt>
      <trkpt lat="48.28357" lon="-2.89023">
        <ele>205.80000305176</ele>
        <time>2020-10-16T14:30:01.000Z</time>
      </trkpt>
      <trkpt lat="48.28355" lon="-2.89025">
        <ele>206</ele>
        <time>2020-10-16T14:30:02.000Z</time>
      </trkpt>
      <trkpt lat="48.28354" lon="-2.89028">
        <ele>206.39999389648</ele>
        <time>2020-10-16T14:30:03.000Z</time>
      </trkpt>
      <trkpt lat="48.28352" lon="-2.8903">
        <ele>206.60000610352</ele>
        <time>2020-10-16T14:30:04.000Z</time>
      </trkpt>
      <trkpt lat="48.28351" lon="-2.89033">
        <ele>207</ele>
        <time>2020-10-16T14:30:05.000Z</time>
      </trkpt>
      <trkpt lat="48.28349" lon="-2.89035">
        <ele>207.19999694824</ele>
        <time>2020-10-16T14:30:06.000Z</time>
      </trkpt>
      <trkpt lat="48.28346" lon="-2.8904">
        <ele>207.80000305176</ele>
        <time>2020-10-16T14:30:07.000Z</time>
      </trkpt>
      <trkpt lat="48.28346" lon="-2.8904">
        <ele>207.80000305176</ele>
        <time>2020-10-16T14:30:08.000Z</time>
      </trkpt>
      <trkpt lat="48.28345" lon="-2.89043">
        <ele>208.19999694824</ele>
        <time>2020-10-16T14:30:09.000Z</time>
      </trkpt>
      <trkpt lat="48.28344" lon="-2.89046">
        <ele>208.39999389648</ele>
        <time>2020-10-16T14:30:10.000Z</time>
      </trkpt>
      <trkpt lat="48.28343" lon="-2.89049">
        <ele>208.60000610352</ele>
        <time>2020-10-16T14:30:11.000Z</time>
      </trkpt>
      <trkpt lat="48.28341" lon="-2.89052">
        <ele>209</ele>
        <time>2020-10-16T14:30:12.000Z</time>
      </trkpt>
      <trkpt lat="48.2834" lon="-2.89054">
        <ele>209.19999694824</ele>
        <time>2020-10-16T14:30:13.000Z</time>
      </trkpt>
      <trkpt lat="48.28338" lon="-2.8906">
        <ele>209.80000305176</ele>
        <time>2020-10-16T14:30:14.000Z</time>
      </trkpt>
      <trkpt lat="48.28338" lon="-2.8906">
        <ele>209.80000305176</ele>
        <time>2020-10-16T14:30:15.000Z</time>
      </trkpt>
      <trkpt lat="48.28337" lon="-2.89064">
        <ele>210.19999694824</ele>
        <time>2020-10-16T14:30:16.000Z</time>
      </trkpt>
      <trkpt lat="48.28336" lon="-2.89067">
        <ele>210.39999389648</ele>
        <time>2020-10-16T14:30:17.000Z</time>
      </trkpt>
      <trkpt lat="48.28335" lon="-2.8907">
        <ele>210.80000305176</ele>
        <time>2020-10-16T14:30:18.000Z</time>
      </trkpt>
      <trkpt lat="48.28334" lon="-2.89073">
        <ele>211</ele>
        <time>2020-10-16T14:30:19.000Z</time>
      </trkpt>
      <trkpt lat="48.28333" lon="-2.89076">
        <ele>211.39999389648</ele>
        <time>2020-10-16T14:30:20.000Z</time>
      </trkpt>
      <trkpt lat="48.28332" lon="-2.89079">
        <ele>211.60000610352</ele>
        <time>2020-10-16T14:30:21.000Z</time>
      </trkpt>
      <trkpt lat="48.28331" lon="-2.89082">
        <ele>212</ele>
        <time>2020-10-16T14:30:22.000Z</time>
      </trkpt>
      <trkpt lat="48.2833" lon="-2.89085">
        <ele>212.19999694824</ele>
        <time>2020-10-16T14:30:23.000Z</time>
      </trkpt>
      <trkpt lat="48.28329" lon="-2.89088">
        <ele>212.39999389648</ele>
        <time>2020-10-16T14:30:24.000Z</time>
      </trkpt>
      <trkpt lat="48.28328" lon="-2.89091">
        <ele>212.80000305176</ele>
        <time>2020-10-16T14:30:25.000Z</time>
      </trkpt>
      <trkpt lat="48.28327" lon="-2.89094">
        <ele>213.19999694824</ele>
        <time>2020-10-16T14:30:26.000Z</time>
      </trkpt>
      <trkpt lat="48.28326" lon="-2.89098">
        <ele>213.39999389648</ele>
        <time>2020-10-16T14:30:27.000Z</time>
      </trkpt>
      <trkpt lat="48.28325" lon="-2.89101">
        <ele>213.80000305176</ele>
        <time>2020-10-16T14:30:28.000Z</time>
      </trkpt>
      <trkpt lat="48.28325" lon="-2.89104">
        <ele>214.19999694824</ele>
        <time>2020-10-16T14:30:29.000Z</time>
      </trkpt>
      <trkpt lat="48.28324" lon="-2.89107">
        <ele>214.39999389648</ele>
        <time>2020-10-16T14:30:30.000Z</time>
      </trkpt>
      <trkpt lat="48.28323" lon="-2.8911">
        <ele>214.80000305176</ele>
        <time>2020-10-16T14:30:31.000Z</time>
      </trkpt>
      <trkpt lat="48.28322" lon="-2.89114">
        <ele>215.19999694824</ele>
        <time>2020-10-16T14:30:32.000Z</time>
      </trkpt>
      <trkpt lat="48.2832" lon="-2.8912">
        <ele>215.80000305176</ele>
        <time>2020-10-16T14:30:33.000Z</time>
      </trkpt>
      <trkpt lat="48.2832" lon="-2.8912">
        <ele>215.80000305176</ele>
        <time>2020-10-16T14:30:34.000Z</time>
      </trkpt>
      <trkpt lat="48.28319" lon="-2.89123">
        <ele>216</ele>
        <time>2020-10-16T14:30:35.000Z</time>
      </trkpt>
      <trkpt lat="48.28318" lon="-2.89126">
        <ele>216.39999389648</ele>
        <time>2020-10-16T14:30:36.000Z</time>
      </trkpt>
      <trkpt lat="48.28317" lon="-2.89129">
        <ele>216.60000610352</ele>
        <time>2020-10-16T14:30:37.000Z</time>
      </trkpt>
      <trkpt lat="48.28317" lon="-2.89132">
        <ele>217</ele>
        <time>2020-10-16T14:30:38.000Z</time>
      </trkpt>
      <trkpt lat="48.28316" lon="-2.89135">
        <ele>217.19999694824</ele>
        <time>2020-10-16T14:30:39.000Z</time>
      </trkpt>
      <trkpt lat="48.28315" lon="-2.89138">
        <ele>217.60000610352</ele>
        <time>2020-10-16T14:30:40.000Z</time>
      </trkpt>
      <trkpt lat="48.28314" lon="-2.89141">
        <ele>217.80000305176</ele>
        <time>2020-10-16T14:30:41.000Z</time>
      </trkpt>
      <trkpt lat="48.28313" lon="-2.89144">
        <ele>218.19999694824</ele>
        <time>2020-10-16T14:30:42.000Z</time>
      </trkpt>
      <trkpt lat="48.28312" lon="-2.89147">
        <ele>218.39999389648</ele>
        <time>2020-10-16T14:30:43.000Z</time>
      </trkpt>
      <trkpt lat="48.28311" lon="-2.8915">
        <ele>218.80000305176</ele>
        <time>2020-10-16T14:30:44.000Z</time>
      </trkpt>
      <trkpt lat="48.2831" lon="-2.89153">
        <ele>219</ele>
        <time>2020-10-16T14:30:45.000Z</time>
      </trkpt>
      <trkpt lat="48.28309" lon="-2.89156">
        <ele>219.39999389648</ele>
        <time>2020-10-16T14:30:46.000Z</time>
      </trkpt>
      <trkpt lat="48.28308" lon="-2.89159">
        <ele>219.60000610352</ele>
        <time>2020-10-16T14:30:47.000Z</time>
      </trkpt>
      <trkpt lat="48.28307" lon="-2.89162">
        <ele>220</ele>
        <time>2020-10-16T14:30:48.000Z</time>
      </trkpt>
      <trkpt lat="48.28306" lon="-2.89165">
        <ele>220.19999694824</ele>
        <time>2020-10-16T14:30:49.000Z</time>
      </trkpt>
      <trkpt lat="48.28305" lon="-2.89167">
        <ele>220.60000610352</ele>
        <time>2020-10-16T14:30:50.000Z</time>
      </trkpt>
      <trkpt lat="48.28304" lon="-2.8917">
        <ele>220.80000305176</ele>
        <time>2020-10-16T14:30:51.000Z</time>
      </trkpt>
      <trkpt lat="48.28302" lon="-2.89173">
        <ele>221</ele>
        <time>2020-10-16T14:30:52.000Z</time>
      </trkpt>
      <trkpt lat="48.28301" lon="-2.89179">
        <ele>221.80000305176</ele>
        <time>2020-10-16T14:30:53.000Z</time>
      </trkpt>
      <trkpt lat="48.28301" lon="-2.89179">
        <ele>221.80000305176</ele>
        <time>2020-10-16T14:30:54.000Z</time>
      </trkpt>
      <trkpt lat="48.283" lon="-2.89182">
        <ele>222</ele>
        <time>2020-10-16T14:30:55.000Z</time>
      </trkpt>
      <trkpt lat="48.28299" lon="-2.89185">
        <ele>222.39999389648</ele>
        <time>2020-10-16T14:30:56.000Z</time>
      </trkpt>
      <trkpt lat="48.28297" lon="-2.89187">
        <ele>222.80000305176</ele>
        <time>2020-10-16T14:30:57.000Z</time>
      </trkpt>
      <trkpt lat="48.28295" lon="-2.8919">
        <ele>223</ele>
        <time>2020-10-16T14:30:58.000Z</time>
      </trkpt>
      <trkpt lat="48.28294" lon="-2.89193">
        <ele>223.39999389648</ele>
        <time>2020-10-16T14:30:59.000Z</time>
      </trkpt>
      <trkpt lat="48.28293" lon="-2.89195">
        <ele>223.60000610352</ele>
        <time>2020-10-16T14:31:00.000Z</time>
      </trkpt>
      <trkpt lat="48.28291" lon="-2.89198">
        <ele>224</ele>
        <time>2020-10-16T14:31:01.000Z</time>
      </trkpt>
      <trkpt lat="48.28288" lon="-2.89202">
        <ele>224.60000610352</ele>
        <time>2020-10-16T14:31:02.000Z</time>
      </trkpt>
      <trkpt lat="48.28288" lon="-2.89202">
        <ele>224.60000610352</ele>
        <time>2020-10-16T14:31:03.000Z</time>
      </trkpt>
      <trkpt lat="48.28286" lon="-2.89205">
        <ele>225</ele>
        <time>2020-10-16T14:31:04.000Z</time>
      </trkpt>
      <trkpt lat="48.28284" lon="-2.89207">
        <ele>225.19999694824</ele>
        <time>2020-10-16T14:31:05.000Z</time>
      </trkpt>
      <trkpt lat="48.28283" lon="-2.8921">
        <ele>225.60000610352</ele>
        <time>2020-10-16T14:31:06.000Z</time>
      </trkpt>
      <trkpt lat="48.28281" lon="-2.89212">
        <ele>225.80000305176</ele>
        <time>2020-10-16T14:31:07.000Z</time>
      </trkpt>
      <trkpt lat="48.28279" lon="-2.89215">
        <ele>226.19999694824</ele>
        <time>2020-10-16T14:31:08.000Z</time>
      </trkpt>
      <trkpt lat="48.28278" lon="-2.89217">
        <ele>226.60000610352</ele>
        <time>2020-10-16T14:31:09.000Z</time>
      </trkpt>
      <trkpt lat="48.28276" lon="-2.8922">
        <ele>226.80000305176</ele>
        <time>2020-10-16T14:31:10.000Z</time>
      </trkpt>
      <trkpt lat="48.28275" lon="-2.89223">
        <ele>227.19999694824</ele>
        <time>2020-10-16T14:31:11.000Z</time>
      </trkpt>
      <trkpt lat="48.28274" lon="-2.89225">
        <ele>227.39999389648</ele>
        <time>2020-10-16T14:31:12.000Z</time>
      </trkpt>
      <trkpt lat="48.28271" lon="-2.8923">
        <ele>228</ele>
        <time>2020-10-16T14:31:13.000Z</time>
      </trkpt>
      <trkpt lat="48.28271" lon="-2.8923">
        <ele>228</ele>
        <time>2020-10-16T14:31:14.000Z</time>
      </trkpt>
      <trkpt lat="48.28269" lon="-2.89232">
        <ele>228.39999389648</ele>
        <time>2020-10-16T14:31:15.000Z</time>
      </trkpt>
      <trkpt lat="48.28267" lon="-2.89234">
        <ele>228.60000610352</ele>
        <time>2020-10-16T14:31:16.000Z</time>
      </trkpt>
      <trkpt lat="48.28266" lon="-2.89236">
        <ele>229</ele>
        <time>2020-10-16T14:31:17.000Z</time>
      </trkpt>
      <trkpt lat="48.28264" lon="-2.89239">
        <ele>229.19999694824</ele>
        <time>2020-10-16T14:31:18.000Z</time>
      </trkpt>
      <trkpt lat="48.28262" lon="-2.89241">
        <ele>229.60000610352</ele>
        <time>2020-10-16T14:31:19.000Z</time>
      </trkpt>
      <trkpt lat="48.2826" lon="-2.89244">
        <ele>229.80000305176</ele>
        <time>2020-10-16T14:31:20.000Z</time>
      </trkpt>
      <trkpt lat="48.28259" lon="-2.89246">
        <ele>230.19999694824</ele>
        <time>2020-10-16T14:31:21.000Z</time>
      </trkpt>
      <trkpt lat="48.28257" lon="-2.89248">
        <ele>230.39999389648</ele>
        <time>2020-10-16T14:31:22.000Z</time>
      </trkpt>
      <trkpt lat="48.28256" lon="-2.89251">
        <ele>230.80000305176</ele>
        <time>2020-10-16T14:31:23.000Z</time>
      </trkpt>
      <trkpt lat="48.28254" lon="-2.89253">
        <ele>231</ele>
        <time>2020-10-16T14:31:24.000Z</time>
      </trkpt>
      <trkpt lat="48.28253" lon="-2.89256">
        <ele>231.39999389648</ele>
        <time>2020-10-16T14:31:25.000Z</time>
      </trkpt>
      <trkpt lat="48.28251" lon="-2.89258">
        <ele>231.60000610352</ele>
        <time>2020-10-16T14:31:26.000Z</time>
      </trkpt>
      <trkpt lat="48.2825" lon="-2.89261">
        <ele>231.80000305176</ele>
        <time>2020-10-16T14:31:27.000Z</time>
      </trkpt>
      <trkpt lat="48.28248" lon="-2.89264">
        <ele>232</ele>
        <time>2020-10-16T14:31:28.000Z</time>
      </trkpt>
      <trkpt lat="48.28246" lon="-2.89267">
        <ele>232</ele>
        <time>2020-10-16T14:31:29.000Z</time>
      </trkpt>
      <trkpt lat="48.28245" lon="-2.89269">
        <ele>232.19999694824</ele>
        <time>2020-10-16T14:31:30.000Z</time>
      </trkpt>
      <trkpt lat="48.28243" lon="-2.89272">
        <ele>232.39999389648</ele>
        <time>2020-10-16T14:31:31.000Z</time>
      </trkpt>
      <trkpt lat="48.2824" lon="-2.89277">
        <ele>232.60000610352</ele>
        <time>2020-10-16T14:31:32.000Z</time>
      </trkpt>
      <trkpt lat="48.2824" lon="-2.89277">
        <ele>232.60000610352</ele>
        <time>2020-10-16T14:31:33.000Z</time>
      </trkpt>
      <trkpt lat="48.28238" lon="-2.8928">
        <ele>232.80000305176</ele>
        <time>2020-10-16T14:31:34.000Z</time>
      </trkpt>
      <trkpt lat="48.28237" lon="-2.89282">
        <ele>232.80000305176</ele>
        <time>2020-10-16T14:31:35.000Z</time>
      </trkpt>
      <trkpt lat="48.28235" lon="-2.89285">
        <ele>233</ele>
        <time>2020-10-16T14:31:36.000Z</time>
      </trkpt>
      <trkpt lat="48.28233" lon="-2.89287">
        <ele>233.19999694824</ele>
        <time>2020-10-16T14:31:37.000Z</time>
      </trkpt>
      <trkpt lat="48.28232" lon="-2.8929">
        <ele>233.39999389648</ele>
        <time>2020-10-16T14:31:38.000Z</time>
      </trkpt>
      <trkpt lat="48.2823" lon="-2.89293">
        <ele>233.39999389648</ele>
        <time>2020-10-16T14:31:39.000Z</time>
      </trkpt>
      <trkpt lat="48.28229" lon="-2.89295">
        <ele>233.60000610352</ele>
        <time>2020-10-16T14:31:40.000Z</time>
      </trkpt>
      <trkpt lat="48.28227" lon="-2.89298">
        <ele>233.80000305176</ele>
        <time>2020-10-16T14:31:41.000Z</time>
      </trkpt>
      <trkpt lat="48.28226" lon="-2.89301">
        <ele>234</ele>
        <time>2020-10-16T14:31:42.000Z</time>
      </trkpt>
      <trkpt lat="48.28224" lon="-2.89303">
        <ele>234</ele>
        <time>2020-10-16T14:31:43.000Z</time>
      </trkpt>
      <trkpt lat="48.28223" lon="-2.89306">
        <ele>234.19999694824</ele>
        <time>2020-10-16T14:31:44.000Z</time>
      </trkpt>
      <trkpt lat="48.28221" lon="-2.89308">
        <ele>234.39999389648</ele>
        <time>2020-10-16T14:31:45.000Z</time>
      </trkpt>
      <trkpt lat="48.28219" lon="-2.89311">
        <ele>234.60000610352</ele>
        <time>2020-10-16T14:31:46.000Z</time>
      </trkpt>
      <trkpt lat="48.28218" lon="-2.89313">
        <ele>234.60000610352</ele>
        <time>2020-10-16T14:31:47.000Z</time>
      </trkpt>
      <trkpt lat="48.28216" lon="-2.89316">
        <ele>234.80000305176</ele>
        <time>2020-10-16T14:31:48.000Z</time>
      </trkpt>
      <trkpt lat="48.28214" lon="-2.89319">
        <ele>235</ele>
        <time>2020-10-16T14:31:49.000Z</time>
      </trkpt>
      <trkpt lat="48.28213" lon="-2.89321">
        <ele>235.19999694824</ele>
        <time>2020-10-16T14:31:50.000Z</time>
      </trkpt>
      <trkpt lat="48.28211" lon="-2.89324">
        <ele>235.19999694824</ele>
        <time>2020-10-16T14:31:51.000Z</time>
      </trkpt>
      <trkpt lat="48.28209" lon="-2.89326">
        <ele>235.39999389648</ele>
        <time>2020-10-16T14:31:52.000Z</time>
      </trkpt>
      <trkpt lat="48.28207" lon="-2.89328">
        <ele>235.60000610352</ele>
        <time>2020-10-16T14:31:53.000Z</time>
      </trkpt>
      <trkpt lat="48.28206" lon="-2.89331">
        <ele>235.80000305176</ele>
        <time>2020-10-16T14:31:54.000Z</time>
      </trkpt>
      <trkpt lat="48.28204" lon="-2.89334">
        <ele>235.80000305176</ele>
        <time>2020-10-16T14:31:55.000Z</time>
      </trkpt>
      <trkpt lat="48.28203" lon="-2.89336">
        <ele>236</ele>
        <time>2020-10-16T14:31:56.000Z</time>
      </trkpt>
      <trkpt lat="48.28201" lon="-2.89339">
        <ele>236.19999694824</ele>
        <time>2020-10-16T14:31:57.000Z</time>
      </trkpt>
      <trkpt lat="48.28199" lon="-2.89342">
        <ele>236.39999389648</ele>
        <time>2020-10-16T14:31:58.000Z</time>
      </trkpt>
      <trkpt lat="48.28198" lon="-2.89345">
        <ele>236.39999389648</ele>
        <time>2020-10-16T14:31:59.000Z</time>
      </trkpt>
      <trkpt lat="48.28194" lon="-2.8935">
        <ele>236.60000610352</ele>
        <time>2020-10-16T14:32:00.000Z</time>
      </trkpt>
      <trkpt lat="48.28194" lon="-2.8935">
        <ele>236.60000610352</ele>
        <time>2020-10-16T14:32:01.000Z</time>
      </trkpt>
      <trkpt lat="48.28192" lon="-2.89353">
        <ele>236.80000305176</ele>
        <time>2020-10-16T14:32:02.000Z</time>
      </trkpt>
      <trkpt lat="48.28191" lon="-2.89356">
        <ele>236.80000305176</ele>
        <time>2020-10-16T14:32:03.000Z</time>
      </trkpt>
      <trkpt lat="48.28189" lon="-2.89359">
        <ele>237</ele>
        <time>2020-10-16T14:32:04.000Z</time>
      </trkpt>
      <trkpt lat="48.28187" lon="-2.89362">
        <ele>237</ele>
        <time>2020-10-16T14:32:05.000Z</time>
      </trkpt>
      <trkpt lat="48.28185" lon="-2.89365">
        <ele>237.19999694824</ele>
        <time>2020-10-16T14:32:06.000Z</time>
      </trkpt>
      <trkpt lat="48.28183" lon="-2.89368">
        <ele>237.19999694824</ele>
        <time>2020-10-16T14:32:07.000Z</time>
      </trkpt>
      <trkpt lat="48.28179" lon="-2.89374">
        <ele>237.39999389648</ele>
        <time>2020-10-16T14:32:08.000Z</time>
      </trkpt>
      <trkpt lat="48.28179" lon="-2.89374">
        <ele>237.39999389648</ele>
        <time>2020-10-16T14:32:09.000Z</time>
      </trkpt>
      <trkpt lat="48.28177" lon="-2.89378">
        <ele>237.60000610352</ele>
        <time>2020-10-16T14:32:10.000Z</time>
      </trkpt>
      <trkpt lat="48.28175" lon="-2.89381">
        <ele>237.60000610352</ele>
        <time>2020-10-16T14:32:11.000Z</time>
      </trkpt>
      <trkpt lat="48.28173" lon="-2.89384">
        <ele>237.80000305176</ele>
        <time>2020-10-16T14:32:12.000Z</time>
      </trkpt>
      <trkpt lat="48.28171" lon="-2.89387">
        <ele>237.80000305176</ele>
        <time>2020-10-16T14:32:13.000Z</time>
      </trkpt>
      <trkpt lat="48.28169" lon="-2.89391">
        <ele>238</ele>
        <time>2020-10-16T14:32:14.000Z</time>
      </trkpt>
      <trkpt lat="48.28167" lon="-2.89394">
        <ele>238.19999694824</ele>
        <time>2020-10-16T14:32:15.000Z</time>
      </trkpt>
      <trkpt lat="48.28164" lon="-2.89397">
        <ele>238.19999694824</ele>
        <time>2020-10-16T14:32:16.000Z</time>
      </trkpt>
      <trkpt lat="48.28162" lon="-2.894">
        <ele>238.39999389648</ele>
        <time>2020-10-16T14:32:17.000Z</time>
      </trkpt>
      <trkpt lat="48.2816" lon="-2.89403">
        <ele>238.39999389648</ele>
        <time>2020-10-16T14:32:18.000Z</time>
      </trkpt>
      <trkpt lat="48.28158" lon="-2.89406">
        <ele>238.60000610352</ele>
        <time>2020-10-16T14:32:19.000Z</time>
      </trkpt>
      <trkpt lat="48.28155" lon="-2.89409">
        <ele>238.80000305176</ele>
        <time>2020-10-16T14:32:20.000Z</time>
      </trkpt>
      <trkpt lat="48.28152" lon="-2.89412">
        <ele>238.80000305176</ele>
        <time>2020-10-16T14:32:21.000Z</time>
      </trkpt>
      <trkpt lat="48.28149" lon="-2.89415">
        <ele>239</ele>
        <time>2020-10-16T14:32:22.000Z</time>
      </trkpt>
      <trkpt lat="48.28147" lon="-2.89418">
        <ele>239.19999694824</ele>
        <time>2020-10-16T14:32:23.000Z</time>
      </trkpt>
      <trkpt lat="48.28143" lon="-2.89421">
        <ele>239.19999694824</ele>
        <time>2020-10-16T14:32:24.000Z</time>
      </trkpt>
      <trkpt lat="48.2814" lon="-2.89424">
        <ele>239.39999389648</ele>
        <time>2020-10-16T14:32:25.000Z</time>
      </trkpt>
      <trkpt lat="48.28136" lon="-2.89427">
        <ele>239.60000610352</ele>
        <time>2020-10-16T14:32:26.000Z</time>
      </trkpt>
      <trkpt lat="48.28133" lon="-2.89431">
        <ele>239.60000610352</ele>
        <time>2020-10-16T14:32:27.000Z</time>
      </trkpt>
      <trkpt lat="48.28129" lon="-2.89434">
        <ele>239.60000610352</ele>
        <time>2020-10-16T14:32:28.000Z</time>
      </trkpt>
      <trkpt lat="48.28125" lon="-2.89437">
        <ele>239.80000305176</ele>
        <time>2020-10-16T14:32:29.000Z</time>
      </trkpt>
      <trkpt lat="48.28121" lon="-2.89441">
        <ele>239.80000305176</ele>
        <time>2020-10-16T14:32:30.000Z</time>
      </trkpt>
      <trkpt lat="48.28117" lon="-2.89444">
        <ele>240</ele>
        <time>2020-10-16T14:32:31.000Z</time>
      </trkpt>
      <trkpt lat="48.28113" lon="-2.89447">
        <ele>240.19999694824</ele>
        <time>2020-10-16T14:32:32.000Z</time>
      </trkpt>
      <trkpt lat="48.28109" lon="-2.89451">
        <ele>240.19999694824</ele>
        <time>2020-10-16T14:32:33.000Z</time>
      </trkpt>
      <trkpt lat="48.28105" lon="-2.89455">
        <ele>240.39999389648</ele>
        <time>2020-10-16T14:32:34.000Z</time>
      </trkpt>
      <trkpt lat="48.28102" lon="-2.89458">
        <ele>240.39999389648</ele>
        <time>2020-10-16T14:32:35.000Z</time>
      </trkpt>
      <trkpt lat="48.28098" lon="-2.89462">
        <ele>240.39999389648</ele>
        <time>2020-10-16T14:32:36.000Z</time>
      </trkpt>
      <trkpt lat="48.28094" lon="-2.89466">
        <ele>240.39999389648</ele>
        <time>2020-10-16T14:32:37.000Z</time>
      </trkpt>
      <trkpt lat="48.28091" lon="-2.8947">
        <ele>240.39999389648</ele>
        <time>2020-10-16T14:32:38.000Z</time>
      </trkpt>
      <trkpt lat="48.28088" lon="-2.89474">
        <ele>240.39999389648</ele>
        <time>2020-10-16T14:32:39.000Z</time>
      </trkpt>
      <trkpt lat="48.28084" lon="-2.89478">
        <ele>240.39999389648</ele>
        <time>2020-10-16T14:32:40.000Z</time>
      </trkpt>
      <trkpt lat="48.28081" lon="-2.89482">
        <ele>240.19999694824</ele>
        <time>2020-10-16T14:32:41.000Z</time>
      </trkpt>
      <trkpt lat="48.28077" lon="-2.89487">
        <ele>240.19999694824</ele>
        <time>2020-10-16T14:32:42.000Z</time>
      </trkpt>
      <trkpt lat="48.28074" lon="-2.89491">
        <ele>240.19999694824</ele>
        <time>2020-10-16T14:32:43.000Z</time>
      </trkpt>
      <trkpt lat="48.28071" lon="-2.89496">
        <ele>240.19999694824</ele>
        <time>2020-10-16T14:32:44.000Z</time>
      </trkpt>
      <trkpt lat="48.28068" lon="-2.89501">
        <ele>240</ele>
        <time>2020-10-16T14:32:45.000Z</time>
      </trkpt>
      <trkpt lat="48.28065" lon="-2.89506">
        <ele>240</ele>
        <time>2020-10-16T14:32:46.000Z</time>
      </trkpt>
      <trkpt lat="48.28062" lon="-2.89511">
        <ele>240</ele>
        <time>2020-10-16T14:32:47.000Z</time>
      </trkpt>
      <trkpt lat="48.28059" lon="-2.89517">
        <ele>240</ele>
        <time>2020-10-16T14:32:48.000Z</time>
      </trkpt>
      <trkpt lat="48.28056" lon="-2.89522">
        <ele>240</ele>
        <time>2020-10-16T14:32:49.000Z</time>
      </trkpt>
      <trkpt lat="48.28052" lon="-2.89528">
        <ele>240</ele>
        <time>2020-10-16T14:32:50.000Z</time>
      </trkpt>
      <trkpt lat="48.28046" lon="-2.89539">
        <ele>240</ele>
        <time>2020-10-16T14:32:51.000Z</time>
      </trkpt>
      <trkpt lat="48.28046" lon="-2.89539">
        <ele>240</ele>
        <time>2020-10-16T14:32:52.000Z</time>
      </trkpt>
      <trkpt lat="48.28042" lon="-2.89545">
        <ele>240</ele>
        <time>2020-10-16T14:32:53.000Z</time>
      </trkpt>
      <trkpt lat="48.28039" lon="-2.8955">
        <ele>240</ele>
        <time>2020-10-16T14:32:54.000Z</time>
      </trkpt>
      <trkpt lat="48.28035" lon="-2.89556">
        <ele>240</ele>
        <time>2020-10-16T14:32:55.000Z</time>
      </trkpt>
      <trkpt lat="48.28032" lon="-2.89562">
        <ele>240</ele>
        <time>2020-10-16T14:32:56.000Z</time>
      </trkpt>
      <trkpt lat="48.28028" lon="-2.89567">
        <ele>240</ele>
        <time>2020-10-16T14:32:57.000Z</time>
      </trkpt>
      <trkpt lat="48.28025" lon="-2.89573">
        <ele>240</ele>
        <time>2020-10-16T14:32:58.000Z</time>
      </trkpt>
      <trkpt lat="48.28021" lon="-2.89579">
        <ele>240</ele>
        <time>2020-10-16T14:32:59.000Z</time>
      </trkpt>
      <trkpt lat="48.28017" lon="-2.89585">
        <ele>240</ele>
        <time>2020-10-16T14:33:00.000Z</time>
      </trkpt>
      <trkpt lat="48.28014" lon="-2.89591">
        <ele>240</ele>
        <time>2020-10-16T14:33:01.000Z</time>
      </trkpt>
      <trkpt lat="48.28008" lon="-2.89603">
        <ele>240</ele>
        <time>2020-10-16T14:33:02.000Z</time>
      </trkpt>
      <trkpt lat="48.28008" lon="-2.89603">
        <ele>240</ele>
        <time>2020-10-16T14:33:03.000Z</time>
      </trkpt>
      <trkpt lat="48.28005" lon="-2.89609">
        <ele>240</ele>
        <time>2020-10-16T14:33:04.000Z</time>
      </trkpt>
      <trkpt lat="48.28001" lon="-2.89614">
        <ele>240</ele>
        <time>2020-10-16T14:33:05.000Z</time>
      </trkpt>
      <trkpt lat="48.27999" lon="-2.8962">
        <ele>240</ele>
        <time>2020-10-16T14:33:06.000Z</time>
      </trkpt>
      <trkpt lat="48.27996" lon="-2.89625">
        <ele>240</ele>
        <time>2020-10-16T14:33:07.000Z</time>
      </trkpt>
      <trkpt lat="48.27993" lon="-2.89631">
        <ele>240</ele>
        <time>2020-10-16T14:33:08.000Z</time>
      </trkpt>
      <trkpt lat="48.2799" lon="-2.89637">
        <ele>240</ele>
        <time>2020-10-16T14:33:09.000Z</time>
      </trkpt>
      <trkpt lat="48.27988" lon="-2.89643">
        <ele>240</ele>
        <time>2020-10-16T14:33:10.000Z</time>
      </trkpt>
      <trkpt lat="48.27982" lon="-2.89654">
        <ele>240</ele>
        <time>2020-10-16T14:33:11.000Z</time>
      </trkpt>
      <trkpt lat="48.27982" lon="-2.89654">
        <ele>240</ele>
        <time>2020-10-16T14:33:12.000Z</time>
      </trkpt>
      <trkpt lat="48.2798" lon="-2.8966">
        <ele>240</ele>
        <time>2020-10-16T14:33:13.000Z</time>
      </trkpt>
      <trkpt lat="48.27978" lon="-2.89665">
        <ele>240</ele>
        <time>2020-10-16T14:33:14.000Z</time>
      </trkpt>
      <trkpt lat="48.27975" lon="-2.8967">
        <ele>240</ele>
        <time>2020-10-16T14:33:15.000Z</time>
      </trkpt>
      <trkpt lat="48.27973" lon="-2.89675">
        <ele>240</ele>
        <time>2020-10-16T14:33:16.000Z</time>
      </trkpt>
      <trkpt lat="48.27971" lon="-2.89679">
        <ele>240.19999694824</ele>
        <time>2020-10-16T14:33:17.000Z</time>
      </trkpt>
      <trkpt lat="48.27969" lon="-2.89684">
        <ele>240.39999389648</ele>
        <time>2020-10-16T14:33:18.000Z</time>
      </trkpt>
      <trkpt lat="48.27967" lon="-2.89688">
        <ele>240.39999389648</ele>
        <time>2020-10-16T14:33:19.000Z</time>
      </trkpt>
      <trkpt lat="48.27965" lon="-2.89693">
        <ele>240.60000610352</ele>
        <time>2020-10-16T14:33:20.000Z</time>
      </trkpt>
      <trkpt lat="48.27962" lon="-2.89697">
        <ele>240.80000305176</ele>
        <time>2020-10-16T14:33:21.000Z</time>
      </trkpt>
      <trkpt lat="48.2796" lon="-2.89702">
        <ele>241</ele>
        <time>2020-10-16T14:33:22.000Z</time>
      </trkpt>
      <trkpt lat="48.27958" lon="-2.89706">
        <ele>241.19999694824</ele>
        <time>2020-10-16T14:33:23.000Z</time>
      </trkpt>
      <trkpt lat="48.27955" lon="-2.89709">
        <ele>241.19999694824</ele>
        <time>2020-10-16T14:33:24.000Z</time>
      </trkpt>
      <trkpt lat="48.27952" lon="-2.89713">
        <ele>241.39999389648</ele>
        <time>2020-10-16T14:33:25.000Z</time>
      </trkpt>
      <trkpt lat="48.27949" lon="-2.89717">
        <ele>241.60000610352</ele>
        <time>2020-10-16T14:33:26.000Z</time>
      </trkpt>
      <trkpt lat="48.27946" lon="-2.8972">
        <ele>241.80000305176</ele>
        <time>2020-10-16T14:33:27.000Z</time>
      </trkpt>
      <trkpt lat="48.27943" lon="-2.89724">
        <ele>241.80000305176</ele>
        <time>2020-10-16T14:33:28.000Z</time>
      </trkpt>
      <trkpt lat="48.27939" lon="-2.89727">
        <ele>242</ele>
        <time>2020-10-16T14:33:29.000Z</time>
      </trkpt>
      <trkpt lat="48.27936" lon="-2.8973">
        <ele>242.19999694824</ele>
        <time>2020-10-16T14:33:30.000Z</time>
      </trkpt>
      <trkpt lat="48.27933" lon="-2.89733">
        <ele>242.39999389648</ele>
        <time>2020-10-16T14:33:31.000Z</time>
      </trkpt>
      <trkpt lat="48.2793" lon="-2.89736">
        <ele>242.60000610352</ele>
        <time>2020-10-16T14:33:32.000Z</time>
      </trkpt>
      <trkpt lat="48.27926" lon="-2.89739">
        <ele>242.39999389648</ele>
        <time>2020-10-16T14:33:33.000Z</time>
      </trkpt>
      <trkpt lat="48.27923" lon="-2.89742">
        <ele>242.39999389648</ele>
        <time>2020-10-16T14:33:34.000Z</time>
      </trkpt>
      <trkpt lat="48.2792" lon="-2.89746">
        <ele>242.19999694824</ele>
        <time>2020-10-16T14:33:35.000Z</time>
      </trkpt>
      <trkpt lat="48.27916" lon="-2.89749">
        <ele>242.19999694824</ele>
        <time>2020-10-16T14:33:36.000Z</time>
      </trkpt>
      <trkpt lat="48.27913" lon="-2.89752">
        <ele>242.19999694824</ele>
        <time>2020-10-16T14:33:37.000Z</time>
      </trkpt>
      <trkpt lat="48.27907" lon="-2.8976">
        <ele>242</ele>
        <time>2020-10-16T14:33:38.000Z</time>
      </trkpt>
      <trkpt lat="48.27907" lon="-2.8976">
        <ele>242</ele>
        <time>2020-10-16T14:33:39.000Z</time>
      </trkpt>
      <trkpt lat="48.27903" lon="-2.89763">
        <ele>242.19999694824</ele>
        <time>2020-10-16T14:33:40.000Z</time>
      </trkpt>
      <trkpt lat="48.279" lon="-2.89766">
        <ele>242.19999694824</ele>
        <time>2020-10-16T14:33:41.000Z</time>
      </trkpt>
      <trkpt lat="48.27896" lon="-2.89769">
        <ele>242.19999694824</ele>
        <time>2020-10-16T14:33:42.000Z</time>
      </trkpt>
      <trkpt lat="48.27893" lon="-2.89773">
        <ele>242.19999694824</ele>
        <time>2020-10-16T14:33:43.000Z</time>
      </trkpt>
      <trkpt lat="48.27889" lon="-2.89776">
        <ele>242.19999694824</ele>
        <time>2020-10-16T14:33:44.000Z</time>
      </trkpt>
      <trkpt lat="48.27886" lon="-2.89779">
        <ele>242.19999694824</ele>
        <time>2020-10-16T14:33:45.000Z</time>
      </trkpt>
      <trkpt lat="48.27883" lon="-2.89783">
        <ele>242.39999389648</ele>
        <time>2020-10-16T14:33:46.000Z</time>
      </trkpt>
      <trkpt lat="48.27879" lon="-2.89786">
        <ele>242.39999389648</ele>
        <time>2020-10-16T14:33:47.000Z</time>
      </trkpt>
      <trkpt lat="48.27875" lon="-2.8979">
        <ele>242.39999389648</ele>
        <time>2020-10-16T14:33:48.000Z</time>
      </trkpt>
      <trkpt lat="48.27872" lon="-2.89793">
        <ele>242.39999389648</ele>
        <time>2020-10-16T14:33:49.000Z</time>
      </trkpt>
      <trkpt lat="48.27868" lon="-2.89797">
        <ele>242.39999389648</ele>
        <time>2020-10-16T14:33:50.000Z</time>
      </trkpt>
      <trkpt lat="48.27865" lon="-2.89801">
        <ele>242.60000610352</ele>
        <time>2020-10-16T14:33:51.000Z</time>
      </trkpt>
      <trkpt lat="48.27861" lon="-2.89804">
        <ele>242.60000610352</ele>
        <time>2020-10-16T14:33:52.000Z</time>
      </trkpt>
      <trkpt lat="48.27857" lon="-2.89808">
        <ele>242.60000610352</ele>
        <time>2020-10-16T14:33:53.000Z</time>
      </trkpt>
      <trkpt lat="48.27854" lon="-2.89811">
        <ele>242.60000610352</ele>
        <time>2020-10-16T14:33:54.000Z</time>
      </trkpt>
      <trkpt lat="48.2785" lon="-2.89816">
        <ele>242.80000305176</ele>
        <time>2020-10-16T14:33:55.000Z</time>
      </trkpt>
      <trkpt lat="48.27847" lon="-2.8982">
        <ele>242.80000305176</ele>
        <time>2020-10-16T14:33:56.000Z</time>
      </trkpt>
      <trkpt lat="48.27843" lon="-2.89824">
        <ele>242.80000305176</ele>
        <time>2020-10-16T14:33:57.000Z</time>
      </trkpt>
      <trkpt lat="48.2784" lon="-2.89829">
        <ele>242.80000305176</ele>
        <time>2020-10-16T14:33:58.000Z</time>
      </trkpt>
      <trkpt lat="48.27837" lon="-2.89833">
        <ele>243</ele>
        <time>2020-10-16T14:33:59.000Z</time>
      </trkpt>
      <trkpt lat="48.27834" lon="-2.89837">
        <ele>243</ele>
        <time>2020-10-16T14:34:00.000Z</time>
      </trkpt>
      <trkpt lat="48.27831" lon="-2.89842">
        <ele>243</ele>
        <time>2020-10-16T14:34:01.000Z</time>
      </trkpt>
      <trkpt lat="48.27828" lon="-2.89846">
        <ele>243</ele>
        <time>2020-10-16T14:34:02.000Z</time>
      </trkpt>
      <trkpt lat="48.27825" lon="-2.8985">
        <ele>243</ele>
        <time>2020-10-16T14:34:03.000Z</time>
      </trkpt>
      <trkpt lat="48.27822" lon="-2.89854">
        <ele>242.80000305176</ele>
        <time>2020-10-16T14:34:04.000Z</time>
      </trkpt>
      <trkpt lat="48.27819" lon="-2.89858">
        <ele>242.80000305176</ele>
        <time>2020-10-16T14:34:05.000Z</time>
      </trkpt>
      <trkpt lat="48.27816" lon="-2.89861">
        <ele>242.80000305176</ele>
        <time>2020-10-16T14:34:06.000Z</time>
      </trkpt>
      <trkpt lat="48.27813" lon="-2.89865">
        <ele>242.80000305176</ele>
        <time>2020-10-16T14:34:07.000Z</time>
      </trkpt>
      <trkpt lat="48.2781" lon="-2.89869">
        <ele>242.80000305176</ele>
        <time>2020-10-16T14:34:08.000Z</time>
      </trkpt>
      <trkpt lat="48.27806" lon="-2.89873">
        <ele>242.60000610352</ele>
        <time>2020-10-16T14:34:09.000Z</time>
      </trkpt>
      <trkpt lat="48.27802" lon="-2.89877">
        <ele>242.60000610352</ele>
        <time>2020-10-16T14:34:10.000Z</time>
      </trkpt>
      <trkpt lat="48.27798" lon="-2.89881">
        <ele>242.60000610352</ele>
        <time>2020-10-16T14:34:11.000Z</time>
      </trkpt>
      <trkpt lat="48.27794" lon="-2.89885">
        <ele>242.39999389648</ele>
        <time>2020-10-16T14:34:12.000Z</time>
      </trkpt>
      <trkpt lat="48.2779" lon="-2.89889">
        <ele>242.19999694824</ele>
        <time>2020-10-16T14:34:13.000Z</time>
      </trkpt>
      <trkpt lat="48.27786" lon="-2.89892">
        <ele>242.19999694824</ele>
        <time>2020-10-16T14:34:14.000Z</time>
      </trkpt>
      <trkpt lat="48.27779" lon="-2.89899">
        <ele>242</ele>
        <time>2020-10-16T14:34:15.000Z</time>
      </trkpt>
      <trkpt lat="48.27779" lon="-2.89899">
        <ele>242</ele>
        <time>2020-10-16T14:34:16.000Z</time>
      </trkpt>
      <trkpt lat="48.27776" lon="-2.89902">
        <ele>241.80000305176</ele>
        <time>2020-10-16T14:34:17.000Z</time>
      </trkpt>
      <trkpt lat="48.27772" lon="-2.89904">
        <ele>241.80000305176</ele>
        <time>2020-10-16T14:34:18.000Z</time>
      </trkpt>
      <trkpt lat="48.27769" lon="-2.89906">
        <ele>241.60000610352</ele>
        <time>2020-10-16T14:34:19.000Z</time>
      </trkpt>
      <trkpt lat="48.27766" lon="-2.89907">
        <ele>241.39999389648</ele>
        <time>2020-10-16T14:34:20.000Z</time>
      </trkpt>
      <trkpt lat="48.27763" lon="-2.89908">
        <ele>241.19999694824</ele>
        <time>2020-10-16T14:34:21.000Z</time>
      </trkpt>
      <trkpt lat="48.2776" lon="-2.8991">
        <ele>241</ele>
        <time>2020-10-16T14:34:22.000Z</time>
      </trkpt>
      <trkpt lat="48.27757" lon="-2.89911">
        <ele>240.80000305176</ele>
        <time>2020-10-16T14:34:23.000Z</time>
      </trkpt>
      <trkpt lat="48.27753" lon="-2.89912">
        <ele>240.60000610352</ele>
        <time>2020-10-16T14:34:24.000Z</time>
      </trkpt>
      <trkpt lat="48.27749" lon="-2.89913">
        <ele>240.19999694824</ele>
        <time>2020-10-16T14:34:25.000Z</time>
      </trkpt>
      <trkpt lat="48.27745" lon="-2.89914">
        <ele>239.80000305176</ele>
        <time>2020-10-16T14:34:26.000Z</time>
      </trkpt>
      <trkpt lat="48.2774" lon="-2.89916">
        <ele>239.39999389648</ele>
        <time>2020-10-16T14:34:27.000Z</time>
      </trkpt>
      <trkpt lat="48.27735" lon="-2.89918">
        <ele>239</ele>
        <time>2020-10-16T14:34:28.000Z</time>
      </trkpt>
      <trkpt lat="48.2773" lon="-2.89921">
        <ele>238.60000610352</ele>
        <time>2020-10-16T14:34:29.000Z</time>
      </trkpt>
      <trkpt lat="48.27724" lon="-2.89923">
        <ele>238.19999694824</ele>
        <time>2020-10-16T14:34:30.000Z</time>
      </trkpt>
      <trkpt lat="48.27718" lon="-2.89926">
        <ele>237.80000305176</ele>
        <time>2020-10-16T14:34:31.000Z</time>
      </trkpt>
      <trkpt lat="48.27711" lon="-2.8993">
        <ele>237.39999389648</ele>
        <time>2020-10-16T14:34:32.000Z</time>
      </trkpt>
      <trkpt lat="48.27705" lon="-2.89934">
        <ele>237</ele>
        <time>2020-10-16T14:34:33.000Z</time>
      </trkpt>
      <trkpt lat="48.27699" lon="-2.8994">
        <ele>236.60000610352</ele>
        <time>2020-10-16T14:34:34.000Z</time>
      </trkpt>
      <trkpt lat="48.27693" lon="-2.89945">
        <ele>236.39999389648</ele>
        <time>2020-10-16T14:34:35.000Z</time>
      </trkpt>
      <trkpt lat="48.27688" lon="-2.8995">
        <ele>236</ele>
        <time>2020-10-16T14:34:36.000Z</time>
      </trkpt>
      <trkpt lat="48.27683" lon="-2.89955">
        <ele>235.80000305176</ele>
        <time>2020-10-16T14:34:37.000Z</time>
      </trkpt>
      <trkpt lat="48.27678" lon="-2.89958">
        <ele>235.60000610352</ele>
        <time>2020-10-16T14:34:38.000Z</time>
      </trkpt>
      <trkpt lat="48.27673" lon="-2.89962">
        <ele>235.39999389648</ele>
        <time>2020-10-16T14:34:39.000Z</time>
      </trkpt>
      <trkpt lat="48.27668" lon="-2.89966">
        <ele>235.19999694824</ele>
        <time>2020-10-16T14:34:40.000Z</time>
      </trkpt>
      <trkpt lat="48.27663" lon="-2.89969">
        <ele>235</ele>
        <time>2020-10-16T14:34:41.000Z</time>
      </trkpt>
      <trkpt lat="48.27658" lon="-2.89973">
        <ele>234.80000305176</ele>
        <time>2020-10-16T14:34:42.000Z</time>
      </trkpt>
      <trkpt lat="48.27653" lon="-2.89976">
        <ele>234.60000610352</ele>
        <time>2020-10-16T14:34:43.000Z</time>
      </trkpt>
      <trkpt lat="48.27647" lon="-2.89979">
        <ele>234.39999389648</ele>
        <time>2020-10-16T14:34:44.000Z</time>
      </trkpt>
      <trkpt lat="48.27642" lon="-2.89982">
        <ele>234.19999694824</ele>
        <time>2020-10-16T14:34:45.000Z</time>
      </trkpt>
      <trkpt lat="48.27637" lon="-2.89984">
        <ele>233.80000305176</ele>
        <time>2020-10-16T14:34:46.000Z</time>
      </trkpt>
      <trkpt lat="48.27632" lon="-2.89987">
        <ele>233.60000610352</ele>
        <time>2020-10-16T14:34:47.000Z</time>
      </trkpt>
      <trkpt lat="48.27627" lon="-2.8999">
        <ele>233.39999389648</ele>
        <time>2020-10-16T14:34:48.000Z</time>
      </trkpt>
      <trkpt lat="48.27616" lon="-2.89996">
        <ele>232.80000305176</ele>
        <time>2020-10-16T14:34:49.000Z</time>
      </trkpt>
      <trkpt lat="48.27616" lon="-2.89996">
        <ele>232.80000305176</ele>
        <time>2020-10-16T14:34:50.000Z</time>
      </trkpt>
      <trkpt lat="48.2761" lon="-2.89999">
        <ele>232.60000610352</ele>
        <time>2020-10-16T14:34:51.000Z</time>
      </trkpt>
      <trkpt lat="48.27604" lon="-2.90002">
        <ele>232.39999389648</ele>
        <time>2020-10-16T14:34:52.000Z</time>
      </trkpt>
      <trkpt lat="48.27598" lon="-2.90005">
        <ele>232</ele>
        <time>2020-10-16T14:34:53.000Z</time>
      </trkpt>
      <trkpt lat="48.27592" lon="-2.90008">
        <ele>232</ele>
        <time>2020-10-16T14:34:54.000Z</time>
      </trkpt>
      <trkpt lat="48.27586" lon="-2.90011">
        <ele>231.80000305176</ele>
        <time>2020-10-16T14:34:55.000Z</time>
      </trkpt>
      <trkpt lat="48.27581" lon="-2.90015">
        <ele>231.80000305176</ele>
        <time>2020-10-16T14:34:56.000Z</time>
      </trkpt>
      <trkpt lat="48.27575" lon="-2.90018">
        <ele>231.80000305176</ele>
        <time>2020-10-16T14:34:57.000Z</time>
      </trkpt>
      <trkpt lat="48.27569" lon="-2.90022">
        <ele>231.80000305176</ele>
        <time>2020-10-16T14:34:58.000Z</time>
      </trkpt>
      <trkpt lat="48.27563" lon="-2.90026">
        <ele>231.80000305176</ele>
        <time>2020-10-16T14:34:59.000Z</time>
      </trkpt>
      <trkpt lat="48.27557" lon="-2.90029">
        <ele>231.60000610352</ele>
        <time>2020-10-16T14:35:00.000Z</time>
      </trkpt>
      <trkpt lat="48.27551" lon="-2.90032">
        <ele>231.60000610352</ele>
        <time>2020-10-16T14:35:01.000Z</time>
      </trkpt>
      <trkpt lat="48.27538" lon="-2.90038">
        <ele>231.39999389648</ele>
        <time>2020-10-16T14:35:02.000Z</time>
      </trkpt>
      <trkpt lat="48.27538" lon="-2.90038">
        <ele>231.39999389648</ele>
        <time>2020-10-16T14:35:03.000Z</time>
      </trkpt>
      <trkpt lat="48.27532" lon="-2.90041">
        <ele>231.19999694824</ele>
        <time>2020-10-16T14:35:04.000Z</time>
      </trkpt>
      <trkpt lat="48.27525" lon="-2.90043">
        <ele>231.19999694824</ele>
        <time>2020-10-16T14:35:05.000Z</time>
      </trkpt>
      <trkpt lat="48.27518" lon="-2.90044">
        <ele>231</ele>
        <time>2020-10-16T14:35:06.000Z</time>
      </trkpt>
      <trkpt lat="48.27512" lon="-2.90045">
        <ele>230.80000305176</ele>
        <time>2020-10-16T14:35:07.000Z</time>
      </trkpt>
      <trkpt lat="48.27505" lon="-2.90046">
        <ele>230.80000305176</ele>
        <time>2020-10-16T14:35:08.000Z</time>
      </trkpt>
      <trkpt lat="48.27499" lon="-2.90046">
        <ele>230.60000610352</ele>
        <time>2020-10-16T14:35:09.000Z</time>
      </trkpt>
      <trkpt lat="48.27492" lon="-2.90046">
        <ele>230.39999389648</ele>
        <time>2020-10-16T14:35:10.000Z</time>
      </trkpt>
      <trkpt lat="48.27485" lon="-2.90045">
        <ele>230.19999694824</ele>
        <time>2020-10-16T14:35:11.000Z</time>
      </trkpt>
      <trkpt lat="48.27478" lon="-2.90044">
        <ele>230</ele>
        <time>2020-10-16T14:35:12.000Z</time>
      </trkpt>
      <trkpt lat="48.27471" lon="-2.90042">
        <ele>229.60000610352</ele>
        <time>2020-10-16T14:35:13.000Z</time>
      </trkpt>
      <trkpt lat="48.27464" lon="-2.90041">
        <ele>229.19999694824</ele>
        <time>2020-10-16T14:35:14.000Z</time>
      </trkpt>
      <trkpt lat="48.27457" lon="-2.90039">
        <ele>229</ele>
        <time>2020-10-16T14:35:15.000Z</time>
      </trkpt>
      <trkpt lat="48.27442" lon="-2.90038">
        <ele>228.39999389648</ele>
        <time>2020-10-16T14:35:16.000Z</time>
      </trkpt>
      <trkpt lat="48.27442" lon="-2.90038">
        <ele>228.39999389648</ele>
        <time>2020-10-16T14:35:17.000Z</time>
      </trkpt>
      <trkpt lat="48.27435" lon="-2.90039">
        <ele>228</ele>
        <time>2020-10-16T14:35:18.000Z</time>
      </trkpt>
      <trkpt lat="48.27427" lon="-2.9004">
        <ele>227.80000305176</ele>
        <time>2020-10-16T14:35:19.000Z</time>
      </trkpt>
      <trkpt lat="48.27419" lon="-2.90042">
        <ele>227.39999389648</ele>
        <time>2020-10-16T14:35:20.000Z</time>
      </trkpt>
      <trkpt lat="48.27411" lon="-2.90044">
        <ele>227</ele>
        <time>2020-10-16T14:35:21.000Z</time>
      </trkpt>
      <trkpt lat="48.27404" lon="-2.90047">
        <ele>226.60000610352</ele>
        <time>2020-10-16T14:35:22.000Z</time>
      </trkpt>
      <trkpt lat="48.27396" lon="-2.9005">
        <ele>226.19999694824</ele>
        <time>2020-10-16T14:35:23.000Z</time>
      </trkpt>
      <trkpt lat="48.27388" lon="-2.90053">
        <ele>225.80000305176</ele>
        <time>2020-10-16T14:35:24.000Z</time>
      </trkpt>
      <trkpt lat="48.2738" lon="-2.90057">
        <ele>225.39999389648</ele>
        <time>2020-10-16T14:35:25.000Z</time>
      </trkpt>
      <trkpt lat="48.27372" lon="-2.9006">
        <ele>225.19999694824</ele>
        <time>2020-10-16T14:35:26.000Z</time>
      </trkpt>
      <trkpt lat="48.27364" lon="-2.90064">
        <ele>224.80000305176</ele>
        <time>2020-10-16T14:35:27.000Z</time>
      </trkpt>
      <trkpt lat="48.27356" lon="-2.90068">
        <ele>224.60000610352</ele>
        <time>2020-10-16T14:35:28.000Z</time>
      </trkpt>
      <trkpt lat="48.27347" lon="-2.90072">
        <ele>224.19999694824</ele>
        <time>2020-10-16T14:35:29.000Z</time>
      </trkpt>
      <trkpt lat="48.27338" lon="-2.90076">
        <ele>223.39999389648</ele>
        <time>2020-10-16T14:35:30.000Z</time>
      </trkpt>
      <trkpt lat="48.27329" lon="-2.9008">
        <ele>222.60000610352</ele>
        <time>2020-10-16T14:35:31.000Z</time>
      </trkpt>
      <trkpt lat="48.2732" lon="-2.90084">
        <ele>222</ele>
        <time>2020-10-16T14:35:32.000Z</time>
      </trkpt>
      <trkpt lat="48.27311" lon="-2.90089">
        <ele>221.19999694824</ele>
        <time>2020-10-16T14:35:33.000Z</time>
      </trkpt>
      <trkpt lat="48.27302" lon="-2.90094">
        <ele>220.39999389648</ele>
        <time>2020-10-16T14:35:34.000Z</time>
      </trkpt>
      <trkpt lat="48.27292" lon="-2.90099">
        <ele>219.60000610352</ele>
        <time>2020-10-16T14:35:35.000Z</time>
      </trkpt>
      <trkpt lat="48.27283" lon="-2.90105">
        <ele>218.80000305176</ele>
        <time>2020-10-16T14:35:36.000Z</time>
      </trkpt>
      <trkpt lat="48.27273" lon="-2.90112">
        <ele>218.19999694824</ele>
        <time>2020-10-16T14:35:37.000Z</time>
      </trkpt>
      <trkpt lat="48.27263" lon="-2.90119">
        <ele>217.39999389648</ele>
        <time>2020-10-16T14:35:38.000Z</time>
      </trkpt>
      <trkpt lat="48.27254" lon="-2.90125">
        <ele>217</ele>
        <time>2020-10-16T14:35:39.000Z</time>
      </trkpt>
      <trkpt lat="48.27244" lon="-2.90132">
        <ele>216.60000610352</ele>
        <time>2020-10-16T14:35:40.000Z</time>
      </trkpt>
      <trkpt lat="48.27234" lon="-2.9014">
        <ele>216.39999389648</ele>
        <time>2020-10-16T14:35:41.000Z</time>
      </trkpt>
      <trkpt lat="48.27225" lon="-2.90147">
        <ele>216</ele>
        <time>2020-10-16T14:35:42.000Z</time>
      </trkpt>
      <trkpt lat="48.27215" lon="-2.90154">
        <ele>215.60000610352</ele>
        <time>2020-10-16T14:35:43.000Z</time>
      </trkpt>
      <trkpt lat="48.27205" lon="-2.90162">
        <ele>215.19999694824</ele>
        <time>2020-10-16T14:35:44.000Z</time>
      </trkpt>
      <trkpt lat="48.27195" lon="-2.90169">
        <ele>215</ele>
        <time>2020-10-16T14:35:45.000Z</time>
      </trkpt>
      <trkpt lat="48.27185" lon="-2.90176">
        <ele>214.39999389648</ele>
        <time>2020-10-16T14:35:46.000Z</time>
      </trkpt>
      <trkpt lat="48.27174" lon="-2.90183">
        <ele>213.80000305176</ele>
        <time>2020-10-16T14:35:47.000Z</time>
      </trkpt>
      <trkpt lat="48.27153" lon="-2.90195">
        <ele>212.19999694824</ele>
        <time>2020-10-16T14:35:48.000Z</time>
      </trkpt>
      <trkpt lat="48.27153" lon="-2.90195">
        <ele>212.19999694824</ele>
        <time>2020-10-16T14:35:49.000Z</time>
      </trkpt>
      <trkpt lat="48.27143" lon="-2.902">
        <ele>211.39999389648</ele>
        <time>2020-10-16T14:35:50.000Z</time>
      </trkpt>
      <trkpt lat="48.27132" lon="-2.90205">
        <ele>210.60000610352</ele>
        <time>2020-10-16T14:35:51.000Z</time>
      </trkpt>
      <trkpt lat="48.27121" lon="-2.9021">
        <ele>209.80000305176</ele>
        <time>2020-10-16T14:35:52.000Z</time>
      </trkpt>
      <trkpt lat="48.2711" lon="-2.90215">
        <ele>209</ele>
        <time>2020-10-16T14:35:53.000Z</time>
      </trkpt>
      <trkpt lat="48.27099" lon="-2.9022">
        <ele>208.19999694824</ele>
        <time>2020-10-16T14:35:54.000Z</time>
      </trkpt>
      <trkpt lat="48.27088" lon="-2.90224">
        <ele>207.39999389648</ele>
        <time>2020-10-16T14:35:55.000Z</time>
      </trkpt>
      <trkpt lat="48.27077" lon="-2.90229">
        <ele>206.39999389648</ele>
        <time>2020-10-16T14:35:56.000Z</time>
      </trkpt>
      <trkpt lat="48.27066" lon="-2.90234">
        <ele>205.39999389648</ele>
        <time>2020-10-16T14:35:57.000Z</time>
      </trkpt>
      <trkpt lat="48.27055" lon="-2.90239">
        <ele>204.60000610352</ele>
        <time>2020-10-16T14:35:58.000Z</time>
      </trkpt>
      <trkpt lat="48.27043" lon="-2.90243">
        <ele>203.60000610352</ele>
        <time>2020-10-16T14:35:59.000Z</time>
      </trkpt>
      <trkpt lat="48.2702" lon="-2.90253">
        <ele>201.60000610352</ele>
        <time>2020-10-16T14:36:00.000Z</time>
      </trkpt>
      <trkpt lat="48.2702" lon="-2.90253">
        <ele>201.60000610352</ele>
        <time>2020-10-16T14:36:01.000Z</time>
      </trkpt>
      <trkpt lat="48.26997" lon="-2.90263">
        <ele>200</ele>
        <time>2020-10-16T14:36:02.000Z</time>
      </trkpt>
      <trkpt lat="48.26997" lon="-2.90263">
        <ele>200</ele>
        <time>2020-10-16T14:36:03.000Z</time>
      </trkpt>
      <trkpt lat="48.26986" lon="-2.90267">
        <ele>199.19999694824</ele>
        <time>2020-10-16T14:36:04.000Z</time>
      </trkpt>
      <trkpt lat="48.26974" lon="-2.90272">
        <ele>198.60000610352</ele>
        <time>2020-10-16T14:36:05.000Z</time>
      </trkpt>
      <trkpt lat="48.26963" lon="-2.90276">
        <ele>197.80000305176</ele>
        <time>2020-10-16T14:36:06.000Z</time>
      </trkpt>
      <trkpt lat="48.26951" lon="-2.9028">
        <ele>197</ele>
        <time>2020-10-16T14:36:07.000Z</time>
      </trkpt>
      <trkpt lat="48.26939" lon="-2.90283">
        <ele>196.19999694824</ele>
        <time>2020-10-16T14:36:08.000Z</time>
      </trkpt>
      <trkpt lat="48.26927" lon="-2.90286">
        <ele>195.60000610352</ele>
        <time>2020-10-16T14:36:09.000Z</time>
      </trkpt>
      <trkpt lat="48.26916" lon="-2.90289">
        <ele>194.80000305176</ele>
        <time>2020-10-16T14:36:10.000Z</time>
      </trkpt>
      <trkpt lat="48.26904" lon="-2.90292">
        <ele>194</ele>
        <time>2020-10-16T14:36:11.000Z</time>
      </trkpt>
      <trkpt lat="48.26892" lon="-2.90294">
        <ele>193.39999389648</ele>
        <time>2020-10-16T14:36:12.000Z</time>
      </trkpt>
      <trkpt lat="48.26881" lon="-2.90297">
        <ele>192.80000305176</ele>
        <time>2020-10-16T14:36:13.000Z</time>
      </trkpt>
      <trkpt lat="48.26869" lon="-2.903">
        <ele>192.19999694824</ele>
        <time>2020-10-16T14:36:14.000Z</time>
      </trkpt>
      <trkpt lat="48.26857" lon="-2.90303">
        <ele>191.80000305176</ele>
        <time>2020-10-16T14:36:15.000Z</time>
      </trkpt>
      <trkpt lat="48.26845" lon="-2.90305">
        <ele>191.19999694824</ele>
        <time>2020-10-16T14:36:16.000Z</time>
      </trkpt>
      <trkpt lat="48.26822" lon="-2.9031">
        <ele>189.60000610352</ele>
        <time>2020-10-16T14:36:17.000Z</time>
      </trkpt>
      <trkpt lat="48.26822" lon="-2.9031">
        <ele>189.60000610352</ele>
        <time>2020-10-16T14:36:18.000Z</time>
      </trkpt>
      <trkpt lat="48.2681" lon="-2.90312">
        <ele>188.80000305176</ele>
        <time>2020-10-16T14:36:19.000Z</time>
      </trkpt>
      <trkpt lat="48.26798" lon="-2.90314">
        <ele>188</ele>
        <time>2020-10-16T14:36:20.000Z</time>
      </trkpt>
      <trkpt lat="48.26787" lon="-2.90316">
        <ele>187.19999694824</ele>
        <time>2020-10-16T14:36:21.000Z</time>
      </trkpt>
      <trkpt lat="48.26775" lon="-2.90318">
        <ele>186.60000610352</ele>
        <time>2020-10-16T14:36:22.000Z</time>
      </trkpt>
      <trkpt lat="48.26764" lon="-2.90321">
        <ele>185.80000305176</ele>
        <time>2020-10-16T14:36:23.000Z</time>
      </trkpt>
      <trkpt lat="48.26754" lon="-2.90323">
        <ele>185.39999389648</ele>
        <time>2020-10-16T14:36:24.000Z</time>
      </trkpt>
      <trkpt lat="48.26744" lon="-2.90327">
        <ele>185</ele>
        <time>2020-10-16T14:36:25.000Z</time>
      </trkpt>
      <trkpt lat="48.26734" lon="-2.90332">
        <ele>184.60000610352</ele>
        <time>2020-10-16T14:36:26.000Z</time>
      </trkpt>
      <trkpt lat="48.26725" lon="-2.9034">
        <ele>184</ele>
        <time>2020-10-16T14:36:27.000Z</time>
      </trkpt>
      <trkpt lat="48.26716" lon="-2.9035">
        <ele>183.39999389648</ele>
        <time>2020-10-16T14:36:28.000Z</time>
      </trkpt>
      <trkpt lat="48.26709" lon="-2.90361">
        <ele>182.39999389648</ele>
        <time>2020-10-16T14:36:29.000Z</time>
      </trkpt>
      <trkpt lat="48.26702" lon="-2.90374">
        <ele>181.39999389648</ele>
        <time>2020-10-16T14:36:30.000Z</time>
      </trkpt>
      <trkpt lat="48.26695" lon="-2.90388">
        <ele>180.39999389648</ele>
        <time>2020-10-16T14:36:31.000Z</time>
      </trkpt>
      <trkpt lat="48.26689" lon="-2.90403">
        <ele>179.39999389648</ele>
        <time>2020-10-16T14:36:32.000Z</time>
      </trkpt>
      <trkpt lat="48.26683" lon="-2.90417">
        <ele>178.39999389648</ele>
        <time>2020-10-16T14:36:33.000Z</time>
      </trkpt>
      <trkpt lat="48.26676" lon="-2.90432">
        <ele>177.60000610352</ele>
        <time>2020-10-16T14:36:34.000Z</time>
      </trkpt>
      <trkpt lat="48.26669" lon="-2.90446">
        <ele>177</ele>
        <time>2020-10-16T14:36:35.000Z</time>
      </trkpt>
      <trkpt lat="48.26663" lon="-2.90461">
        <ele>176.39999389648</ele>
        <time>2020-10-16T14:36:36.000Z</time>
      </trkpt>
      <trkpt lat="48.26656" lon="-2.90476">
        <ele>175.80000305176</ele>
        <time>2020-10-16T14:36:37.000Z</time>
      </trkpt>
      <trkpt lat="48.26649" lon="-2.9049">
        <ele>175.19999694824</ele>
        <time>2020-10-16T14:36:38.000Z</time>
      </trkpt>
      <trkpt lat="48.26642" lon="-2.90504">
        <ele>174.60000610352</ele>
        <time>2020-10-16T14:36:39.000Z</time>
      </trkpt>
      <trkpt lat="48.26633" lon="-2.90516">
        <ele>173.80000305176</ele>
        <time>2020-10-16T14:36:40.000Z</time>
      </trkpt>
      <trkpt lat="48.26624" lon="-2.90527">
        <ele>173.19999694824</ele>
        <time>2020-10-16T14:36:41.000Z</time>
      </trkpt>
      <trkpt lat="48.26614" lon="-2.90536">
        <ele>172.60000610352</ele>
        <time>2020-10-16T14:36:42.000Z</time>
      </trkpt>
      <trkpt lat="48.26604" lon="-2.90544">
        <ele>172.19999694824</ele>
        <time>2020-10-16T14:36:43.000Z</time>
      </trkpt>
      <trkpt lat="48.26595" lon="-2.90551">
        <ele>171.80000305176</ele>
        <time>2020-10-16T14:36:44.000Z</time>
      </trkpt>
      <trkpt lat="48.26585" lon="-2.90555">
        <ele>171.39999389648</ele>
        <time>2020-10-16T14:36:45.000Z</time>
      </trkpt>
      <trkpt lat="48.26575" lon="-2.90558">
        <ele>171</ele>
        <time>2020-10-16T14:36:46.000Z</time>
      </trkpt>
      <trkpt lat="48.26553" lon="-2.90555">
        <ele>171</ele>
        <time>2020-10-16T14:36:47.000Z</time>
      </trkpt>
      <trkpt lat="48.26553" lon="-2.90555">
        <ele>171</ele>
        <time>2020-10-16T14:36:48.000Z</time>
      </trkpt>
      <trkpt lat="48.26543" lon="-2.90554">
        <ele>170.60000610352</ele>
        <time>2020-10-16T14:36:49.000Z</time>
      </trkpt>
      <trkpt lat="48.26532" lon="-2.90554">
        <ele>170</ele>
        <time>2020-10-16T14:36:50.000Z</time>
      </trkpt>
      <trkpt lat="48.26521" lon="-2.90555">
        <ele>169.39999389648</ele>
        <time>2020-10-16T14:36:51.000Z</time>
      </trkpt>
      <trkpt lat="48.26511" lon="-2.90557">
        <ele>169</ele>
        <time>2020-10-16T14:36:52.000Z</time>
      </trkpt>
      <trkpt lat="48.26501" lon="-2.90559">
        <ele>169.80000305176</ele>
        <time>2020-10-16T14:36:53.000Z</time>
      </trkpt>
      <trkpt lat="48.26492" lon="-2.90561">
        <ele>170.60000610352</ele>
        <time>2020-10-16T14:36:54.000Z</time>
      </trkpt>
      <trkpt lat="48.26483" lon="-2.90563">
        <ele>171.39999389648</ele>
        <time>2020-10-16T14:36:55.000Z</time>
      </trkpt>
      <trkpt lat="48.26475" lon="-2.90565">
        <ele>172.19999694824</ele>
        <time>2020-10-16T14:36:56.000Z</time>
      </trkpt>
      <trkpt lat="48.26468" lon="-2.90566">
        <ele>172.80000305176</ele>
        <time>2020-10-16T14:36:57.000Z</time>
      </trkpt>
      <trkpt lat="48.26461" lon="-2.90566">
        <ele>173.60000610352</ele>
        <time>2020-10-16T14:36:58.000Z</time>
      </trkpt>
      <trkpt lat="48.26455" lon="-2.90565">
        <ele>174.19999694824</ele>
        <time>2020-10-16T14:36:59.000Z</time>
      </trkpt>
      <trkpt lat="48.2645" lon="-2.90563">
        <ele>174.19999694824</ele>
        <time>2020-10-16T14:37:00.000Z</time>
      </trkpt>
      <trkpt lat="48.26448" lon="-2.90558">
        <ele>174</ele>
        <time>2020-10-16T14:37:01.000Z</time>
      </trkpt>
      <trkpt lat="48.26446" lon="-2.90548">
        <ele>173.60000610352</ele>
        <time>2020-10-16T14:37:02.000Z</time>
      </trkpt>
      <trkpt lat="48.26446" lon="-2.90548">
        <ele>173.60000610352</ele>
        <time>2020-10-16T14:37:03.000Z</time>
      </trkpt>
      <trkpt lat="48.26446" lon="-2.90545">
        <ele>173.39999389648</ele>
        <time>2020-10-16T14:37:04.000Z</time>
      </trkpt>
      <trkpt lat="48.26446" lon="-2.90541">
        <ele>173.19999694824</ele>
        <time>2020-10-16T14:37:05.000Z</time>
      </trkpt>
      <trkpt lat="48.26445" lon="-2.90537">
        <ele>173</ele>
        <time>2020-10-16T14:37:06.000Z</time>
      </trkpt>
      <trkpt lat="48.26444" lon="-2.90533">
        <ele>172.80000305176</ele>
        <time>2020-10-16T14:37:07.000Z</time>
      </trkpt>
      <trkpt lat="48.26444" lon="-2.90529">
        <ele>172.80000305176</ele>
        <time>2020-10-16T14:37:08.000Z</time>
      </trkpt>
      <trkpt lat="48.26442" lon="-2.90525">
        <ele>172.60000610352</ele>
        <time>2020-10-16T14:37:09.000Z</time>
      </trkpt>
      <trkpt lat="48.26441" lon="-2.90521">
        <ele>172.39999389648</ele>
        <time>2020-10-16T14:37:10.000Z</time>
      </trkpt>
      <trkpt lat="48.2644" lon="-2.90517">
        <ele>172.19999694824</ele>
        <time>2020-10-16T14:37:11.000Z</time>
      </trkpt>
      <trkpt lat="48.26438" lon="-2.90513">
        <ele>172</ele>
        <time>2020-10-16T14:37:12.000Z</time>
      </trkpt>
      <trkpt lat="48.26437" lon="-2.9051">
        <ele>172</ele>
        <time>2020-10-16T14:37:13.000Z</time>
      </trkpt>
      <trkpt lat="48.26435" lon="-2.90507">
        <ele>172</ele>
        <time>2020-10-16T14:37:14.000Z</time>
      </trkpt>
      <trkpt lat="48.26433" lon="-2.90506">
        <ele>172</ele>
        <time>2020-10-16T14:37:15.000Z</time>
      </trkpt>
      <trkpt lat="48.2643" lon="-2.90505">
        <ele>172</ele>
        <time>2020-10-16T14:37:16.000Z</time>
      </trkpt>
      <trkpt lat="48.26428" lon="-2.90505">
        <ele>172</ele>
        <time>2020-10-16T14:37:17.000Z</time>
      </trkpt>
      <trkpt lat="48.26425" lon="-2.90506">
        <ele>172.19999694824</ele>
        <time>2020-10-16T14:37:18.000Z</time>
      </trkpt>
      <trkpt lat="48.26423" lon="-2.90508">
        <ele>172.39999389648</ele>
        <time>2020-10-16T14:37:19.000Z</time>
      </trkpt>
      <trkpt lat="48.26421" lon="-2.9051">
        <ele>172.39999389648</ele>
        <time>2020-10-16T14:37:20.000Z</time>
      </trkpt>
      <trkpt lat="48.26419" lon="-2.90513">
        <ele>172.60000610352</ele>
        <time>2020-10-16T14:37:21.000Z</time>
      </trkpt>
      <trkpt lat="48.26418" lon="-2.90516">
        <ele>172.80000305176</ele>
        <time>2020-10-16T14:37:22.000Z</time>
      </trkpt>
      <trkpt lat="48.26415" lon="-2.90522">
        <ele>173</ele>
        <time>2020-10-16T14:37:23.000Z</time>
      </trkpt>
      <trkpt lat="48.26415" lon="-2.90522">
        <ele>173</ele>
        <time>2020-10-16T14:37:24.000Z</time>
      </trkpt>
      <trkpt lat="48.26414" lon="-2.90526">
        <ele>173.19999694824</ele>
        <time>2020-10-16T14:37:25.000Z</time>
      </trkpt>
      <trkpt lat="48.26412" lon="-2.90529">
        <ele>173.39999389648</ele>
        <time>2020-10-16T14:37:26.000Z</time>
      </trkpt>
      <trkpt lat="48.26411" lon="-2.90532">
        <ele>173.60000610352</ele>
        <time>2020-10-16T14:37:27.000Z</time>
      </trkpt>
      <trkpt lat="48.2641" lon="-2.90535">
        <ele>173.80000305176</ele>
        <time>2020-10-16T14:37:28.000Z</time>
      </trkpt>
      <trkpt lat="48.26409" lon="-2.90538">
        <ele>174</ele>
        <time>2020-10-16T14:37:29.000Z</time>
      </trkpt>
      <trkpt lat="48.26408" lon="-2.90541">
        <ele>174.19999694824</ele>
        <time>2020-10-16T14:37:30.000Z</time>
      </trkpt>
      <trkpt lat="48.26407" lon="-2.90544">
        <ele>174.39999389648</ele>
        <time>2020-10-16T14:37:31.000Z</time>
      </trkpt>
      <trkpt lat="48.26406" lon="-2.90547">
        <ele>174.39999389648</ele>
        <time>2020-10-16T14:37:32.000Z</time>
      </trkpt>
      <trkpt lat="48.26405" lon="-2.9055">
        <ele>174.60000610352</ele>
        <time>2020-10-16T14:37:33.000Z</time>
      </trkpt>
      <trkpt lat="48.26404" lon="-2.90553">
        <ele>174.80000305176</ele>
        <time>2020-10-16T14:37:34.000Z</time>
      </trkpt>
      <trkpt lat="48.26402" lon="-2.90556">
        <ele>175</ele>
        <time>2020-10-16T14:37:35.000Z</time>
      </trkpt>
      <trkpt lat="48.26401" lon="-2.90559">
        <ele>175.19999694824</ele>
        <time>2020-10-16T14:37:36.000Z</time>
      </trkpt>
      <trkpt lat="48.26399" lon="-2.90562">
        <ele>175.39999389648</ele>
        <time>2020-10-16T14:37:37.000Z</time>
      </trkpt>
      <trkpt lat="48.26398" lon="-2.90565">
        <ele>175.60000610352</ele>
        <time>2020-10-16T14:37:38.000Z</time>
      </trkpt>
      <trkpt lat="48.26397" lon="-2.90568">
        <ele>175.80000305176</ele>
        <time>2020-10-16T14:37:39.000Z</time>
      </trkpt>
      <trkpt lat="48.26396" lon="-2.90572">
        <ele>176</ele>
        <time>2020-10-16T14:37:40.000Z</time>
      </trkpt>
      <trkpt lat="48.26394" lon="-2.90575">
        <ele>176.19999694824</ele>
        <time>2020-10-16T14:37:41.000Z</time>
      </trkpt>
      <trkpt lat="48.26393" lon="-2.90579">
        <ele>176.39999389648</ele>
        <time>2020-10-16T14:37:42.000Z</time>
      </trkpt>
      <trkpt lat="48.26392" lon="-2.90583">
        <ele>176.60000610352</ele>
        <time>2020-10-16T14:37:43.000Z</time>
      </trkpt>
      <trkpt lat="48.26391" lon="-2.90587">
        <ele>176.80000305176</ele>
        <time>2020-10-16T14:37:44.000Z</time>
      </trkpt>
      <trkpt lat="48.26389" lon="-2.9059">
        <ele>177</ele>
        <time>2020-10-16T14:37:45.000Z</time>
      </trkpt>
      <trkpt lat="48.26388" lon="-2.90594">
        <ele>177.19999694824</ele>
        <time>2020-10-16T14:37:46.000Z</time>
      </trkpt>
      <trkpt lat="48.26387" lon="-2.90598">
        <ele>177.39999389648</ele>
        <time>2020-10-16T14:37:47.000Z</time>
      </trkpt>
      <trkpt lat="48.26386" lon="-2.90602">
        <ele>177.80000305176</ele>
        <time>2020-10-16T14:37:48.000Z</time>
      </trkpt>
      <trkpt lat="48.26385" lon="-2.90606">
        <ele>178</ele>
        <time>2020-10-16T14:37:49.000Z</time>
      </trkpt>
      <trkpt lat="48.26384" lon="-2.9061">
        <ele>178.19999694824</ele>
        <time>2020-10-16T14:37:50.000Z</time>
      </trkpt>
      <trkpt lat="48.26383" lon="-2.90614">
        <ele>178.60000610352</ele>
        <time>2020-10-16T14:37:51.000Z</time>
      </trkpt>
      <trkpt lat="48.26382" lon="-2.90618">
        <ele>178.80000305176</ele>
        <time>2020-10-16T14:37:52.000Z</time>
      </trkpt>
      <trkpt lat="48.2638" lon="-2.90622">
        <ele>179</ele>
        <time>2020-10-16T14:37:53.000Z</time>
      </trkpt>
      <trkpt lat="48.26379" lon="-2.90626">
        <ele>179.39999389648</ele>
        <time>2020-10-16T14:37:54.000Z</time>
      </trkpt>
      <trkpt lat="48.26377" lon="-2.90629">
        <ele>179.60000610352</ele>
        <time>2020-10-16T14:37:55.000Z</time>
      </trkpt>
      <trkpt lat="48.26376" lon="-2.90633">
        <ele>179.80000305176</ele>
        <time>2020-10-16T14:37:56.000Z</time>
      </trkpt>
      <trkpt lat="48.26374" lon="-2.90638">
        <ele>180.19999694824</ele>
        <time>2020-10-16T14:37:57.000Z</time>
      </trkpt>
      <trkpt lat="48.26373" lon="-2.90642">
        <ele>180.39999389648</ele>
        <time>2020-10-16T14:37:58.000Z</time>
      </trkpt>
      <trkpt lat="48.26372" lon="-2.90647">
        <ele>180.80000305176</ele>
        <time>2020-10-16T14:37:59.000Z</time>
      </trkpt>
      <trkpt lat="48.26371" lon="-2.90652">
        <ele>181</ele>
        <time>2020-10-16T14:38:00.000Z</time>
      </trkpt>
      <trkpt lat="48.2637" lon="-2.90656">
        <ele>181</ele>
        <time>2020-10-16T14:38:01.000Z</time>
      </trkpt>
      <trkpt lat="48.26369" lon="-2.9066">
        <ele>181.19999694824</ele>
        <time>2020-10-16T14:38:02.000Z</time>
      </trkpt>
      <trkpt lat="48.26368" lon="-2.90664">
        <ele>181.39999389648</ele>
        <time>2020-10-16T14:38:03.000Z</time>
      </trkpt>
      <trkpt lat="48.26367" lon="-2.90667">
        <ele>181.39999389648</ele>
        <time>2020-10-16T14:38:04.000Z</time>
      </trkpt>
      <trkpt lat="48.26365" lon="-2.90671">
        <ele>181.60000610352</ele>
        <time>2020-10-16T14:38:05.000Z</time>
      </trkpt>
      <trkpt lat="48.26362" lon="-2.90676">
        <ele>182</ele>
        <time>2020-10-16T14:38:06.000Z</time>
      </trkpt>
      <trkpt lat="48.26362" lon="-2.90676">
        <ele>182</ele>
        <time>2020-10-16T14:38:07.000Z</time>
      </trkpt>
      <trkpt lat="48.2636" lon="-2.90678">
        <ele>182.19999694824</ele>
        <time>2020-10-16T14:38:08.000Z</time>
      </trkpt>
      <trkpt lat="48.26358" lon="-2.90679">
        <ele>182.39999389648</ele>
        <time>2020-10-16T14:38:09.000Z</time>
      </trkpt>
      <trkpt lat="48.26356" lon="-2.90679">
        <ele>182.60000610352</ele>
        <time>2020-10-16T14:38:10.000Z</time>
      </trkpt>
      <trkpt lat="48.26353" lon="-2.90679">
        <ele>182.80000305176</ele>
        <time>2020-10-16T14:38:11.000Z</time>
      </trkpt>
      <trkpt lat="48.2635" lon="-2.90678">
        <ele>183</ele>
        <time>2020-10-16T14:38:12.000Z</time>
      </trkpt>
      <trkpt lat="48.26346" lon="-2.90677">
        <ele>183.19999694824</ele>
        <time>2020-10-16T14:38:13.000Z</time>
      </trkpt>
      <trkpt lat="48.26342" lon="-2.90677">
        <ele>183.19999694824</ele>
        <time>2020-10-16T14:38:14.000Z</time>
      </trkpt>
      <trkpt lat="48.26337" lon="-2.90679">
        <ele>183.19999694824</ele>
        <time>2020-10-16T14:38:15.000Z</time>
      </trkpt>
      <trkpt lat="48.26333" lon="-2.9068">
        <ele>183.19999694824</ele>
        <time>2020-10-16T14:38:16.000Z</time>
      </trkpt>
      <trkpt lat="48.26328" lon="-2.90683">
        <ele>183.19999694824</ele>
        <time>2020-10-16T14:38:17.000Z</time>
      </trkpt>
      <trkpt lat="48.26321" lon="-2.90688">
        <ele>183.39999389648</ele>
        <time>2020-10-16T14:38:18.000Z</time>
      </trkpt>
      <trkpt lat="48.26321" lon="-2.90688">
        <ele>183.39999389648</ele>
        <time>2020-10-16T14:38:19.000Z</time>
      </trkpt>
      <trkpt lat="48.26316" lon="-2.9069">
        <ele>183.39999389648</ele>
        <time>2020-10-16T14:38:20.000Z</time>
      </trkpt>
      <trkpt lat="48.26312" lon="-2.90692">
        <ele>183.39999389648</ele>
        <time>2020-10-16T14:38:21.000Z</time>
      </trkpt>
      <trkpt lat="48.26308" lon="-2.90694">
        <ele>183.39999389648</ele>
        <time>2020-10-16T14:38:22.000Z</time>
      </trkpt>
      <trkpt lat="48.26303" lon="-2.90696">
        <ele>183.19999694824</ele>
        <time>2020-10-16T14:38:23.000Z</time>
      </trkpt>
      <trkpt lat="48.26297" lon="-2.90697">
        <ele>183.19999694824</ele>
        <time>2020-10-16T14:38:24.000Z</time>
      </trkpt>
      <trkpt lat="48.26292" lon="-2.907">
        <ele>183.19999694824</ele>
        <time>2020-10-16T14:38:25.000Z</time>
      </trkpt>
      <trkpt lat="48.26285" lon="-2.90704">
        <ele>183.39999389648</ele>
        <time>2020-10-16T14:38:26.000Z</time>
      </trkpt>
      <trkpt lat="48.26279" lon="-2.90707">
        <ele>183.39999389648</ele>
        <time>2020-10-16T14:38:27.000Z</time>
      </trkpt>
      <trkpt lat="48.26272" lon="-2.90711">
        <ele>183.39999389648</ele>
        <time>2020-10-16T14:38:28.000Z</time>
      </trkpt>
      <trkpt lat="48.26265" lon="-2.90715">
        <ele>183.60000610352</ele>
        <time>2020-10-16T14:38:29.000Z</time>
      </trkpt>
      <trkpt lat="48.26258" lon="-2.9072">
        <ele>183.60000610352</ele>
        <time>2020-10-16T14:38:30.000Z</time>
      </trkpt>
      <trkpt lat="48.26243" lon="-2.90728">
        <ele>183.39999389648</ele>
        <time>2020-10-16T14:38:31.000Z</time>
      </trkpt>
      <trkpt lat="48.26243" lon="-2.90728">
        <ele>183.39999389648</ele>
        <time>2020-10-16T14:38:32.000Z</time>
      </trkpt>
      <trkpt lat="48.26234" lon="-2.90732">
        <ele>183.19999694824</ele>
        <time>2020-10-16T14:38:33.000Z</time>
      </trkpt>
      <trkpt lat="48.26226" lon="-2.90736">
        <ele>183</ele>
        <time>2020-10-16T14:38:34.000Z</time>
      </trkpt>
      <trkpt lat="48.26219" lon="-2.90742">
        <ele>183.19999694824</ele>
        <time>2020-10-16T14:38:35.000Z</time>
      </trkpt>
      <trkpt lat="48.26212" lon="-2.90749">
        <ele>183.19999694824</ele>
        <time>2020-10-16T14:38:36.000Z</time>
      </trkpt>
      <trkpt lat="48.26206" lon="-2.90758">
        <ele>183.80000305176</ele>
        <time>2020-10-16T14:38:37.000Z</time>
      </trkpt>
      <trkpt lat="48.26201" lon="-2.90766">
        <ele>184</ele>
        <time>2020-10-16T14:38:38.000Z</time>
      </trkpt>
      <trkpt lat="48.26195" lon="-2.90773">
        <ele>184.19999694824</ele>
        <time>2020-10-16T14:38:39.000Z</time>
      </trkpt>
      <trkpt lat="48.26191" lon="-2.9078">
        <ele>184.60000610352</ele>
        <time>2020-10-16T14:38:40.000Z</time>
      </trkpt>
      <trkpt lat="48.26186" lon="-2.90786">
        <ele>184.80000305176</ele>
        <time>2020-10-16T14:38:41.000Z</time>
      </trkpt>
      <trkpt lat="48.26182" lon="-2.90791">
        <ele>185</ele>
        <time>2020-10-16T14:38:42.000Z</time>
      </trkpt>
      <trkpt lat="48.26178" lon="-2.90797">
        <ele>185.39999389648</ele>
        <time>2020-10-16T14:38:43.000Z</time>
      </trkpt>
      <trkpt lat="48.26174" lon="-2.90803">
        <ele>185.60000610352</ele>
        <time>2020-10-16T14:38:44.000Z</time>
      </trkpt>
      <trkpt lat="48.2617" lon="-2.90808">
        <ele>185.80000305176</ele>
        <time>2020-10-16T14:38:45.000Z</time>
      </trkpt>
      <trkpt lat="48.26166" lon="-2.90813">
        <ele>185.80000305176</ele>
        <time>2020-10-16T14:38:46.000Z</time>
      </trkpt>
      <trkpt lat="48.26162" lon="-2.90817">
        <ele>186</ele>
        <time>2020-10-16T14:38:47.000Z</time>
      </trkpt>
      <trkpt lat="48.26158" lon="-2.90822">
        <ele>186.19999694824</ele>
        <time>2020-10-16T14:38:48.000Z</time>
      </trkpt>
      <trkpt lat="48.26154" lon="-2.90827">
        <ele>186.39999389648</ele>
        <time>2020-10-16T14:38:49.000Z</time>
      </trkpt>
      <trkpt lat="48.2615" lon="-2.90832">
        <ele>186.60000610352</ele>
        <time>2020-10-16T14:38:50.000Z</time>
      </trkpt>
      <trkpt lat="48.26147" lon="-2.90836">
        <ele>186.80000305176</ele>
        <time>2020-10-16T14:38:51.000Z</time>
      </trkpt>
      <trkpt lat="48.26143" lon="-2.90841">
        <ele>186.80000305176</ele>
        <time>2020-10-16T14:38:52.000Z</time>
      </trkpt>
      <trkpt lat="48.2614" lon="-2.90845">
        <ele>186.80000305176</ele>
        <time>2020-10-16T14:38:53.000Z</time>
      </trkpt>
      <trkpt lat="48.26136" lon="-2.9085">
        <ele>186.60000610352</ele>
        <time>2020-10-16T14:38:54.000Z</time>
      </trkpt>
      <trkpt lat="48.26132" lon="-2.90853">
        <ele>186.39999389648</ele>
        <time>2020-10-16T14:38:55.000Z</time>
      </trkpt>
      <trkpt lat="48.26129" lon="-2.90857">
        <ele>186.39999389648</ele>
        <time>2020-10-16T14:38:56.000Z</time>
      </trkpt>
      <trkpt lat="48.26125" lon="-2.9086">
        <ele>186.19999694824</ele>
        <time>2020-10-16T14:38:57.000Z</time>
      </trkpt>
      <trkpt lat="48.26121" lon="-2.90862">
        <ele>186</ele>
        <time>2020-10-16T14:38:58.000Z</time>
      </trkpt>
      <trkpt lat="48.26117" lon="-2.90864">
        <ele>185.80000305176</ele>
        <time>2020-10-16T14:38:59.000Z</time>
      </trkpt>
      <trkpt lat="48.26114" lon="-2.90865">
        <ele>185.60000610352</ele>
        <time>2020-10-16T14:39:00.000Z</time>
      </trkpt>
      <trkpt lat="48.2611" lon="-2.90867">
        <ele>185.39999389648</ele>
        <time>2020-10-16T14:39:01.000Z</time>
      </trkpt>
      <trkpt lat="48.26106" lon="-2.90868">
        <ele>185.19999694824</ele>
        <time>2020-10-16T14:39:02.000Z</time>
      </trkpt>
      <trkpt lat="48.26102" lon="-2.90869">
        <ele>185</ele>
        <time>2020-10-16T14:39:03.000Z</time>
      </trkpt>
      <trkpt lat="48.26094" lon="-2.90869">
        <ele>184.80000305176</ele>
        <time>2020-10-16T14:39:04.000Z</time>
      </trkpt>
      <trkpt lat="48.26094" lon="-2.90869">
        <ele>184.80000305176</ele>
        <time>2020-10-16T14:39:05.000Z</time>
      </trkpt>
      <trkpt lat="48.26089" lon="-2.90869">
        <ele>184.80000305176</ele>
        <time>2020-10-16T14:39:06.000Z</time>
      </trkpt>
      <trkpt lat="48.26084" lon="-2.90869">
        <ele>185</ele>
        <time>2020-10-16T14:39:07.000Z</time>
      </trkpt>
      <trkpt lat="48.2608" lon="-2.90869">
        <ele>185</ele>
        <time>2020-10-16T14:39:08.000Z</time>
      </trkpt>
      <trkpt lat="48.26075" lon="-2.90869">
        <ele>185.19999694824</ele>
        <time>2020-10-16T14:39:09.000Z</time>
      </trkpt>
      <trkpt lat="48.26071" lon="-2.90869">
        <ele>185.19999694824</ele>
        <time>2020-10-16T14:39:10.000Z</time>
      </trkpt>
      <trkpt lat="48.26067" lon="-2.90869">
        <ele>185.39999389648</ele>
        <time>2020-10-16T14:39:11.000Z</time>
      </trkpt>
      <trkpt lat="48.26063" lon="-2.90868">
        <ele>185.60000610352</ele>
        <time>2020-10-16T14:39:12.000Z</time>
      </trkpt>
      <trkpt lat="48.26059" lon="-2.90868">
        <ele>185.80000305176</ele>
        <time>2020-10-16T14:39:13.000Z</time>
      </trkpt>
      <trkpt lat="48.26055" lon="-2.90868">
        <ele>186.19999694824</ele>
        <time>2020-10-16T14:39:14.000Z</time>
      </trkpt>
      <trkpt lat="48.26051" lon="-2.90868">
        <ele>186.39999389648</ele>
        <time>2020-10-16T14:39:15.000Z</time>
      </trkpt>
      <trkpt lat="48.26048" lon="-2.90867">
        <ele>186.60000610352</ele>
        <time>2020-10-16T14:39:16.000Z</time>
      </trkpt>
      <trkpt lat="48.26044" lon="-2.90867">
        <ele>186.80000305176</ele>
        <time>2020-10-16T14:39:17.000Z</time>
      </trkpt>
      <trkpt lat="48.26037" lon="-2.90866">
        <ele>187.19999694824</ele>
        <time>2020-10-16T14:39:18.000Z</time>
      </trkpt>
      <trkpt lat="48.26037" lon="-2.90866">
        <ele>187.19999694824</ele>
        <time>2020-10-16T14:39:19.000Z</time>
      </trkpt>
      <trkpt lat="48.26034" lon="-2.90866">
        <ele>187.39999389648</ele>
        <time>2020-10-16T14:39:20.000Z</time>
      </trkpt>
      <trkpt lat="48.26031" lon="-2.90866">
        <ele>187.60000610352</ele>
        <time>2020-10-16T14:39:21.000Z</time>
      </trkpt>
      <trkpt lat="48.26027" lon="-2.90866">
        <ele>187.80000305176</ele>
        <time>2020-10-16T14:39:22.000Z</time>
      </trkpt>
      <trkpt lat="48.26024" lon="-2.90866">
        <ele>188</ele>
        <time>2020-10-16T14:39:23.000Z</time>
      </trkpt>
      <trkpt lat="48.26021" lon="-2.90866">
        <ele>188.19999694824</ele>
        <time>2020-10-16T14:39:24.000Z</time>
      </trkpt>
      <trkpt lat="48.26017" lon="-2.90866">
        <ele>188.39999389648</ele>
        <time>2020-10-16T14:39:25.000Z</time>
      </trkpt>
      <trkpt lat="48.26014" lon="-2.90865">
        <ele>188.60000610352</ele>
        <time>2020-10-16T14:39:26.000Z</time>
      </trkpt>
      <trkpt lat="48.2601" lon="-2.90864">
        <ele>189</ele>
        <time>2020-10-16T14:39:27.000Z</time>
      </trkpt>
      <trkpt lat="48.26007" lon="-2.90864">
        <ele>189.60000610352</ele>
        <time>2020-10-16T14:39:28.000Z</time>
      </trkpt>
      <trkpt lat="48.26004" lon="-2.90864">
        <ele>190</ele>
        <time>2020-10-16T14:39:29.000Z</time>
      </trkpt>
      <trkpt lat="48.26" lon="-2.90864">
        <ele>190.39999389648</ele>
        <time>2020-10-16T14:39:30.000Z</time>
      </trkpt>
      <trkpt lat="48.25997" lon="-2.90864">
        <ele>191</ele>
        <time>2020-10-16T14:39:31.000Z</time>
      </trkpt>
      <trkpt lat="48.25993" lon="-2.90864">
        <ele>191.60000610352</ele>
        <time>2020-10-16T14:39:32.000Z</time>
      </trkpt>
      <trkpt lat="48.2599" lon="-2.90865">
        <ele>192</ele>
        <time>2020-10-16T14:39:33.000Z</time>
      </trkpt>
      <trkpt lat="48.25986" lon="-2.90865">
        <ele>192.39999389648</ele>
        <time>2020-10-16T14:39:34.000Z</time>
      </trkpt>
      <trkpt lat="48.25983" lon="-2.90865">
        <ele>192.80000305176</ele>
        <time>2020-10-16T14:39:35.000Z</time>
      </trkpt>
      <trkpt lat="48.2598" lon="-2.90866">
        <ele>193.19999694824</ele>
        <time>2020-10-16T14:39:36.000Z</time>
      </trkpt>
      <trkpt lat="48.25977" lon="-2.90867">
        <ele>193.60000610352</ele>
        <time>2020-10-16T14:39:37.000Z</time>
      </trkpt>
      <trkpt lat="48.25974" lon="-2.90867">
        <ele>194</ele>
        <time>2020-10-16T14:39:38.000Z</time>
      </trkpt>
      <trkpt lat="48.25971" lon="-2.90868">
        <ele>194.39999389648</ele>
        <time>2020-10-16T14:39:39.000Z</time>
      </trkpt>
      <trkpt lat="48.25968" lon="-2.9087">
        <ele>194.60000610352</ele>
        <time>2020-10-16T14:39:40.000Z</time>
      </trkpt>
      <trkpt lat="48.25963" lon="-2.90872">
        <ele>195.19999694824</ele>
        <time>2020-10-16T14:39:41.000Z</time>
      </trkpt>
      <trkpt lat="48.25963" lon="-2.90872">
        <ele>195.19999694824</ele>
        <time>2020-10-16T14:39:42.000Z</time>
      </trkpt>
      <trkpt lat="48.25961" lon="-2.90872">
        <ele>195.60000610352</ele>
        <time>2020-10-16T14:39:43.000Z</time>
      </trkpt>
      <trkpt lat="48.25958" lon="-2.90873">
        <ele>196</ele>
        <time>2020-10-16T14:39:44.000Z</time>
      </trkpt>
      <trkpt lat="48.25956" lon="-2.90874">
        <ele>196.19999694824</ele>
        <time>2020-10-16T14:39:45.000Z</time>
      </trkpt>
      <trkpt lat="48.25954" lon="-2.90875">
        <ele>196.39999389648</ele>
        <time>2020-10-16T14:39:46.000Z</time>
      </trkpt>
      <trkpt lat="48.25952" lon="-2.90876">
        <ele>196.80000305176</ele>
        <time>2020-10-16T14:39:47.000Z</time>
      </trkpt>
      <trkpt lat="48.2595" lon="-2.90877">
        <ele>197</ele>
        <time>2020-10-16T14:39:48.000Z</time>
      </trkpt>
      <trkpt lat="48.25948" lon="-2.90878">
        <ele>197.19999694824</ele>
        <time>2020-10-16T14:39:49.000Z</time>
      </trkpt>
      <trkpt lat="48.25946" lon="-2.90879">
        <ele>197.39999389648</ele>
        <time>2020-10-16T14:39:50.000Z</time>
      </trkpt>
      <trkpt lat="48.25944" lon="-2.9088">
        <ele>197.80000305176</ele>
        <time>2020-10-16T14:39:51.000Z</time>
      </trkpt>
      <trkpt lat="48.25942" lon="-2.90881">
        <ele>198</ele>
        <time>2020-10-16T14:39:52.000Z</time>
      </trkpt>
      <trkpt lat="48.25941" lon="-2.90883">
        <ele>198.19999694824</ele>
        <time>2020-10-16T14:39:53.000Z</time>
      </trkpt>
      <trkpt lat="48.25939" lon="-2.90885">
        <ele>198.39999389648</ele>
        <time>2020-10-16T14:39:54.000Z</time>
      </trkpt>
      <trkpt lat="48.25937" lon="-2.90887">
        <ele>198.60000610352</ele>
        <time>2020-10-16T14:39:55.000Z</time>
      </trkpt>
      <trkpt lat="48.25936" lon="-2.9089">
        <ele>198.80000305176</ele>
        <time>2020-10-16T14:39:56.000Z</time>
      </trkpt>
      <trkpt lat="48.25934" lon="-2.90892">
        <ele>199</ele>
        <time>2020-10-16T14:39:57.000Z</time>
      </trkpt>
      <trkpt lat="48.25933" lon="-2.90895">
        <ele>199.19999694824</ele>
        <time>2020-10-16T14:39:58.000Z</time>
      </trkpt>
      <trkpt lat="48.25932" lon="-2.90898">
        <ele>199.39999389648</ele>
        <time>2020-10-16T14:39:59.000Z</time>
      </trkpt>
      <trkpt lat="48.25928" lon="-2.90902">
        <ele>199.80000305176</ele>
        <time>2020-10-16T14:40:00.000Z</time>
      </trkpt>
      <trkpt lat="48.25928" lon="-2.90902">
        <ele>199.80000305176</ele>
        <time>2020-10-16T14:40:01.000Z</time>
      </trkpt>
      <trkpt lat="48.25926" lon="-2.90904">
        <ele>200</ele>
        <time>2020-10-16T14:40:02.000Z</time>
      </trkpt>
      <trkpt lat="48.25924" lon="-2.90906">
        <ele>200</ele>
        <time>2020-10-16T14:40:03.000Z</time>
      </trkpt>
      <trkpt lat="48.2592" lon="-2.90911">
        <ele>200.19999694824</ele>
        <time>2020-10-16T14:40:04.000Z</time>
      </trkpt>
      <trkpt lat="48.2592" lon="-2.90911">
        <ele>200.19999694824</ele>
        <time>2020-10-16T14:40:05.000Z</time>
      </trkpt>
      <trkpt lat="48.25919" lon="-2.90914">
        <ele>200.39999389648</ele>
        <time>2020-10-16T14:40:06.000Z</time>
      </trkpt>
      <trkpt lat="48.25917" lon="-2.90918">
        <ele>200.60000610352</ele>
        <time>2020-10-16T14:40:07.000Z</time>
      </trkpt>
      <trkpt lat="48.25916" lon="-2.90921">
        <ele>200.60000610352</ele>
        <time>2020-10-16T14:40:08.000Z</time>
      </trkpt>
      <trkpt lat="48.25915" lon="-2.90924">
        <ele>200.80000305176</ele>
        <time>2020-10-16T14:40:09.000Z</time>
      </trkpt>
      <trkpt lat="48.25913" lon="-2.90927">
        <ele>201</ele>
        <time>2020-10-16T14:40:10.000Z</time>
      </trkpt>
      <trkpt lat="48.25912" lon="-2.90931">
        <ele>201.19999694824</ele>
        <time>2020-10-16T14:40:11.000Z</time>
      </trkpt>
      <trkpt lat="48.25911" lon="-2.90935">
        <ele>201.19999694824</ele>
        <time>2020-10-16T14:40:12.000Z</time>
      </trkpt>
      <trkpt lat="48.25909" lon="-2.90938">
        <ele>201.39999389648</ele>
        <time>2020-10-16T14:40:13.000Z</time>
      </trkpt>
      <trkpt lat="48.25908" lon="-2.9094">
        <ele>201.60000610352</ele>
        <time>2020-10-16T14:40:14.000Z</time>
      </trkpt>
      <trkpt lat="48.25906" lon="-2.90942">
        <ele>201.80000305176</ele>
        <time>2020-10-16T14:40:15.000Z</time>
      </trkpt>
      <trkpt lat="48.25905" lon="-2.90946">
        <ele>202</ele>
        <time>2020-10-16T14:40:16.000Z</time>
      </trkpt>
      <trkpt lat="48.25903" lon="-2.90948">
        <ele>202.19999694824</ele>
        <time>2020-10-16T14:40:17.000Z</time>
      </trkpt>
      <trkpt lat="48.25901" lon="-2.90955">
        <ele>202.39999389648</ele>
        <time>2020-10-16T14:40:18.000Z</time>
      </trkpt>
      <trkpt lat="48.25901" lon="-2.90955">
        <ele>202.39999389648</ele>
        <time>2020-10-16T14:40:19.000Z</time>
      </trkpt>
      <trkpt lat="48.259" lon="-2.90958">
        <ele>202.60000610352</ele>
        <time>2020-10-16T14:40:20.000Z</time>
      </trkpt>
      <trkpt lat="48.25898" lon="-2.90961">
        <ele>202.60000610352</ele>
        <time>2020-10-16T14:40:21.000Z</time>
      </trkpt>
      <trkpt lat="48.25896" lon="-2.90965">
        <ele>202.80000305176</ele>
        <time>2020-10-16T14:40:22.000Z</time>
      </trkpt>
      <trkpt lat="48.25895" lon="-2.90968">
        <ele>202.80000305176</ele>
        <time>2020-10-16T14:40:23.000Z</time>
      </trkpt>
      <trkpt lat="48.25893" lon="-2.9097">
        <ele>203</ele>
        <time>2020-10-16T14:40:24.000Z</time>
      </trkpt>
      <trkpt lat="48.25892" lon="-2.90973">
        <ele>203.19999694824</ele>
        <time>2020-10-16T14:40:25.000Z</time>
      </trkpt>
      <trkpt lat="48.2589" lon="-2.90976">
        <ele>203.19999694824</ele>
        <time>2020-10-16T14:40:26.000Z</time>
      </trkpt>
      <trkpt lat="48.25889" lon="-2.90978">
        <ele>203.39999389648</ele>
        <time>2020-10-16T14:40:27.000Z</time>
      </trkpt>
      <trkpt lat="48.25887" lon="-2.90981">
        <ele>203.60000610352</ele>
        <time>2020-10-16T14:40:28.000Z</time>
      </trkpt>
      <trkpt lat="48.25885" lon="-2.90983">
        <ele>203.60000610352</ele>
        <time>2020-10-16T14:40:29.000Z</time>
      </trkpt>
      <trkpt lat="48.25884" lon="-2.90986">
        <ele>203.80000305176</ele>
        <time>2020-10-16T14:40:30.000Z</time>
      </trkpt>
      <trkpt lat="48.25882" lon="-2.90988">
        <ele>204</ele>
        <time>2020-10-16T14:40:31.000Z</time>
      </trkpt>
      <trkpt lat="48.25881" lon="-2.9099">
        <ele>204</ele>
        <time>2020-10-16T14:40:32.000Z</time>
      </trkpt>
      <trkpt lat="48.2588" lon="-2.90992">
        <ele>204.19999694824</ele>
        <time>2020-10-16T14:40:33.000Z</time>
      </trkpt>
      <trkpt lat="48.25879" lon="-2.90994">
        <ele>204.19999694824</ele>
        <time>2020-10-16T14:40:34.000Z</time>
      </trkpt>
      <trkpt lat="48.25877" lon="-2.90996">
        <ele>204.39999389648</ele>
        <time>2020-10-16T14:40:35.000Z</time>
      </trkpt>
      <trkpt lat="48.25875" lon="-2.90998">
        <ele>204.60000610352</ele>
        <time>2020-10-16T14:40:36.000Z</time>
      </trkpt>
      <trkpt lat="48.25873" lon="-2.90999">
        <ele>204.80000305176</ele>
        <time>2020-10-16T14:40:37.000Z</time>
      </trkpt>
      <trkpt lat="48.25871" lon="-2.91">
        <ele>204.80000305176</ele>
        <time>2020-10-16T14:40:38.000Z</time>
      </trkpt>
      <trkpt lat="48.25869" lon="-2.91001">
        <ele>205</ele>
        <time>2020-10-16T14:40:39.000Z</time>
      </trkpt>
      <trkpt lat="48.25867" lon="-2.91001">
        <ele>205.19999694824</ele>
        <time>2020-10-16T14:40:40.000Z</time>
      </trkpt>
      <trkpt lat="48.25865" lon="-2.91001">
        <ele>205.39999389648</ele>
        <time>2020-10-16T14:40:41.000Z</time>
      </trkpt>
      <trkpt lat="48.25862" lon="-2.91001">
        <ele>205.60000610352</ele>
        <time>2020-10-16T14:40:42.000Z</time>
      </trkpt>
      <trkpt lat="48.25857" lon="-2.91">
        <ele>206</ele>
        <time>2020-10-16T14:40:43.000Z</time>
      </trkpt>
      <trkpt lat="48.25857" lon="-2.91">
        <ele>206</ele>
        <time>2020-10-16T14:40:44.000Z</time>
      </trkpt>
      <trkpt lat="48.25855" lon="-2.90999">
        <ele>206.19999694824</ele>
        <time>2020-10-16T14:40:45.000Z</time>
      </trkpt>
      <trkpt lat="48.25853" lon="-2.90999">
        <ele>206.39999389648</ele>
        <time>2020-10-16T14:40:46.000Z</time>
      </trkpt>
      <trkpt lat="48.25851" lon="-2.91">
        <ele>206.60000610352</ele>
        <time>2020-10-16T14:40:47.000Z</time>
      </trkpt>
      <trkpt lat="48.25848" lon="-2.91">
        <ele>206.60000610352</ele>
        <time>2020-10-16T14:40:48.000Z</time>
      </trkpt>
      <trkpt lat="48.25846" lon="-2.90999">
        <ele>206.80000305176</ele>
        <time>2020-10-16T14:40:49.000Z</time>
      </trkpt>
      <trkpt lat="48.25843" lon="-2.90999">
        <ele>207</ele>
        <time>2020-10-16T14:40:50.000Z</time>
      </trkpt>
      <trkpt lat="48.25841" lon="-2.90999">
        <ele>207.39999389648</ele>
        <time>2020-10-16T14:40:51.000Z</time>
      </trkpt>
      <trkpt lat="48.25838" lon="-2.91">
        <ele>207.60000610352</ele>
        <time>2020-10-16T14:40:52.000Z</time>
      </trkpt>
      <trkpt lat="48.25836" lon="-2.91">
        <ele>207.80000305176</ele>
        <time>2020-10-16T14:40:53.000Z</time>
      </trkpt>
      <trkpt lat="48.25834" lon="-2.91">
        <ele>208</ele>
        <time>2020-10-16T14:40:54.000Z</time>
      </trkpt>
      <trkpt lat="48.25832" lon="-2.91001">
        <ele>208.39999389648</ele>
        <time>2020-10-16T14:40:55.000Z</time>
      </trkpt>
      <trkpt lat="48.2583" lon="-2.91001">
        <ele>208.60000610352</ele>
        <time>2020-10-16T14:40:56.000Z</time>
      </trkpt>
      <trkpt lat="48.25827" lon="-2.91">
        <ele>208.80000305176</ele>
        <time>2020-10-16T14:40:57.000Z</time>
      </trkpt>
      <trkpt lat="48.25825" lon="-2.91">
        <ele>209</ele>
        <time>2020-10-16T14:40:58.000Z</time>
      </trkpt>
      <trkpt lat="48.25823" lon="-2.91">
        <ele>209.19999694824</ele>
        <time>2020-10-16T14:40:59.000Z</time>
      </trkpt>
      <trkpt lat="48.25821" lon="-2.91">
        <ele>209.39999389648</ele>
        <time>2020-10-16T14:41:00.000Z</time>
      </trkpt>
      <trkpt lat="48.25819" lon="-2.91">
        <ele>209.60000610352</ele>
        <time>2020-10-16T14:41:01.000Z</time>
      </trkpt>
      <trkpt lat="48.25817" lon="-2.90999">
        <ele>210</ele>
        <time>2020-10-16T14:41:02.000Z</time>
      </trkpt>
      <trkpt lat="48.25812" lon="-2.90999">
        <ele>210.39999389648</ele>
        <time>2020-10-16T14:41:03.000Z</time>
      </trkpt>
      <trkpt lat="48.25812" lon="-2.90999">
        <ele>210.39999389648</ele>
        <time>2020-10-16T14:41:04.000Z</time>
      </trkpt>
      <trkpt lat="48.2581" lon="-2.90999">
        <ele>210.60000610352</ele>
        <time>2020-10-16T14:41:05.000Z</time>
      </trkpt>
      <trkpt lat="48.25808" lon="-2.90999">
        <ele>210.80000305176</ele>
        <time>2020-10-16T14:41:06.000Z</time>
      </trkpt>
      <trkpt lat="48.25806" lon="-2.90999">
        <ele>211</ele>
        <time>2020-10-16T14:41:07.000Z</time>
      </trkpt>
      <trkpt lat="48.25804" lon="-2.90999">
        <ele>211.19999694824</ele>
        <time>2020-10-16T14:41:08.000Z</time>
      </trkpt>
      <trkpt lat="48.25801" lon="-2.90998">
        <ele>211.60000610352</ele>
        <time>2020-10-16T14:41:09.000Z</time>
      </trkpt>
      <trkpt lat="48.25799" lon="-2.90998">
        <ele>211.80000305176</ele>
        <time>2020-10-16T14:41:10.000Z</time>
      </trkpt>
      <trkpt lat="48.25797" lon="-2.90998">
        <ele>212</ele>
        <time>2020-10-16T14:41:11.000Z</time>
      </trkpt>
      <trkpt lat="48.25795" lon="-2.90997">
        <ele>212.19999694824</ele>
        <time>2020-10-16T14:41:12.000Z</time>
      </trkpt>
      <trkpt lat="48.25793" lon="-2.90997">
        <ele>212.39999389648</ele>
        <time>2020-10-16T14:41:13.000Z</time>
      </trkpt>
      <trkpt lat="48.25789" lon="-2.90997">
        <ele>212.80000305176</ele>
        <time>2020-10-16T14:41:14.000Z</time>
      </trkpt>
      <trkpt lat="48.25789" lon="-2.90997">
        <ele>212.80000305176</ele>
        <time>2020-10-16T14:41:15.000Z</time>
      </trkpt>
      <trkpt lat="48.25787" lon="-2.90997">
        <ele>213</ele>
        <time>2020-10-16T14:41:16.000Z</time>
      </trkpt>
      <trkpt lat="48.25785" lon="-2.90996">
        <ele>213.19999694824</ele>
        <time>2020-10-16T14:41:17.000Z</time>
      </trkpt>
      <trkpt lat="48.25783" lon="-2.90996">
        <ele>213.39999389648</ele>
        <time>2020-10-16T14:41:18.000Z</time>
      </trkpt>
      <trkpt lat="48.25781" lon="-2.90996">
        <ele>213.60000610352</ele>
        <time>2020-10-16T14:41:19.000Z</time>
      </trkpt>
      <trkpt lat="48.25779" lon="-2.90995">
        <ele>213.80000305176</ele>
        <time>2020-10-16T14:41:20.000Z</time>
      </trkpt>
      <trkpt lat="48.25777" lon="-2.90995">
        <ele>214</ele>
        <time>2020-10-16T14:41:21.000Z</time>
      </trkpt>
      <trkpt lat="48.25773" lon="-2.90993">
        <ele>214.39999389648</ele>
        <time>2020-10-16T14:41:22.000Z</time>
      </trkpt>
      <trkpt lat="48.25773" lon="-2.90993">
        <ele>214.39999389648</ele>
        <time>2020-10-16T14:41:23.000Z</time>
      </trkpt>
      <trkpt lat="48.25771" lon="-2.90993">
        <ele>214.80000305176</ele>
        <time>2020-10-16T14:41:24.000Z</time>
      </trkpt>
      <trkpt lat="48.25769" lon="-2.90993">
        <ele>215</ele>
        <time>2020-10-16T14:41:25.000Z</time>
      </trkpt>
      <trkpt lat="48.25767" lon="-2.90993">
        <ele>215.19999694824</ele>
        <time>2020-10-16T14:41:26.000Z</time>
      </trkpt>
      <trkpt lat="48.25765" lon="-2.90992">
        <ele>215.39999389648</ele>
        <time>2020-10-16T14:41:27.000Z</time>
      </trkpt>
      <trkpt lat="48.25763" lon="-2.90992">
        <ele>215.60000610352</ele>
        <time>2020-10-16T14:41:28.000Z</time>
      </trkpt>
      <trkpt lat="48.25761" lon="-2.90991">
        <ele>215.80000305176</ele>
        <time>2020-10-16T14:41:29.000Z</time>
      </trkpt>
      <trkpt lat="48.25759" lon="-2.90991">
        <ele>216</ele>
        <time>2020-10-16T14:41:30.000Z</time>
      </trkpt>
      <trkpt lat="48.25755" lon="-2.9099">
        <ele>216.19999694824</ele>
        <time>2020-10-16T14:41:31.000Z</time>
      </trkpt>
      <trkpt lat="48.25755" lon="-2.9099">
        <ele>216.19999694824</ele>
        <time>2020-10-16T14:41:32.000Z</time>
      </trkpt>
      <trkpt lat="48.25752" lon="-2.9099">
        <ele>216.39999389648</ele>
        <time>2020-10-16T14:41:33.000Z</time>
      </trkpt>
      <trkpt lat="48.2575" lon="-2.9099">
        <ele>216.60000610352</ele>
        <time>2020-10-16T14:41:34.000Z</time>
      </trkpt>
      <trkpt lat="48.25748" lon="-2.9099">
        <ele>216.60000610352</ele>
        <time>2020-10-16T14:41:35.000Z</time>
      </trkpt>
      <trkpt lat="48.25746" lon="-2.90989">
        <ele>216.80000305176</ele>
        <time>2020-10-16T14:41:36.000Z</time>
      </trkpt>
      <trkpt lat="48.25744" lon="-2.90989">
        <ele>217</ele>
        <time>2020-10-16T14:41:37.000Z</time>
      </trkpt>
      <trkpt lat="48.25742" lon="-2.90988">
        <ele>217</ele>
        <time>2020-10-16T14:41:38.000Z</time>
      </trkpt>
      <trkpt lat="48.25739" lon="-2.90988">
        <ele>217.19999694824</ele>
        <time>2020-10-16T14:41:39.000Z</time>
      </trkpt>
      <trkpt lat="48.25737" lon="-2.90988">
        <ele>217.39999389648</ele>
        <time>2020-10-16T14:41:40.000Z</time>
      </trkpt>
      <trkpt lat="48.25735" lon="-2.90988">
        <ele>217.60000610352</ele>
        <time>2020-10-16T14:41:41.000Z</time>
      </trkpt>
      <trkpt lat="48.25733" lon="-2.90988">
        <ele>217.60000610352</ele>
        <time>2020-10-16T14:41:42.000Z</time>
      </trkpt>
      <trkpt lat="48.25731" lon="-2.90987">
        <ele>217.80000305176</ele>
        <time>2020-10-16T14:41:43.000Z</time>
      </trkpt>
      <trkpt lat="48.25729" lon="-2.90987">
        <ele>218</ele>
        <time>2020-10-16T14:41:44.000Z</time>
      </trkpt>
      <trkpt lat="48.25727" lon="-2.90987">
        <ele>218</ele>
        <time>2020-10-16T14:41:45.000Z</time>
      </trkpt>
      <trkpt lat="48.25725" lon="-2.90987">
        <ele>218.19999694824</ele>
        <time>2020-10-16T14:41:46.000Z</time>
      </trkpt>
      <trkpt lat="48.25723" lon="-2.90986">
        <ele>218.39999389648</ele>
        <time>2020-10-16T14:41:47.000Z</time>
      </trkpt>
      <trkpt lat="48.2572" lon="-2.90986">
        <ele>218.60000610352</ele>
        <time>2020-10-16T14:41:48.000Z</time>
      </trkpt>
      <trkpt lat="48.25718" lon="-2.90986">
        <ele>218.80000305176</ele>
        <time>2020-10-16T14:41:49.000Z</time>
      </trkpt>
      <trkpt lat="48.25716" lon="-2.90986">
        <ele>218.80000305176</ele>
        <time>2020-10-16T14:41:50.000Z</time>
      </trkpt>
      <trkpt lat="48.25714" lon="-2.90986">
        <ele>219</ele>
        <time>2020-10-16T14:41:51.000Z</time>
      </trkpt>
      <trkpt lat="48.25711" lon="-2.90986">
        <ele>219.19999694824</ele>
        <time>2020-10-16T14:41:52.000Z</time>
      </trkpt>
      <trkpt lat="48.25709" lon="-2.90986">
        <ele>219.39999389648</ele>
        <time>2020-10-16T14:41:53.000Z</time>
      </trkpt>
      <trkpt lat="48.25707" lon="-2.90986">
        <ele>219.39999389648</ele>
        <time>2020-10-16T14:41:54.000Z</time>
      </trkpt>
      <trkpt lat="48.25706" lon="-2.90985">
        <ele>219.60000610352</ele>
        <time>2020-10-16T14:41:55.000Z</time>
      </trkpt>
      <trkpt lat="48.25704" lon="-2.90985">
        <ele>219.80000305176</ele>
        <time>2020-10-16T14:41:56.000Z</time>
      </trkpt>
      <trkpt lat="48.25702" lon="-2.90985">
        <ele>219.80000305176</ele>
        <time>2020-10-16T14:41:57.000Z</time>
      </trkpt>
      <trkpt lat="48.257" lon="-2.90985">
        <ele>220</ele>
        <time>2020-10-16T14:41:58.000Z</time>
      </trkpt>
      <trkpt lat="48.25698" lon="-2.90984">
        <ele>220.19999694824</ele>
        <time>2020-10-16T14:41:59.000Z</time>
      </trkpt>
      <trkpt lat="48.25696" lon="-2.90984">
        <ele>220.39999389648</ele>
        <time>2020-10-16T14:42:00.000Z</time>
      </trkpt>
      <trkpt lat="48.25694" lon="-2.90984">
        <ele>220.60000610352</ele>
        <time>2020-10-16T14:42:01.000Z</time>
      </trkpt>
      <trkpt lat="48.25691" lon="-2.90983">
        <ele>220.80000305176</ele>
        <time>2020-10-16T14:42:02.000Z</time>
      </trkpt>
      <trkpt lat="48.25689" lon="-2.90983">
        <ele>220.80000305176</ele>
        <time>2020-10-16T14:42:03.000Z</time>
      </trkpt>
      <trkpt lat="48.25687" lon="-2.90982">
        <ele>221</ele>
        <time>2020-10-16T14:42:04.000Z</time>
      </trkpt>
      <trkpt lat="48.25684" lon="-2.90982">
        <ele>221.19999694824</ele>
        <time>2020-10-16T14:42:05.000Z</time>
      </trkpt>
      <trkpt lat="48.25682" lon="-2.90982">
        <ele>221.39999389648</ele>
        <time>2020-10-16T14:42:06.000Z</time>
      </trkpt>
      <trkpt lat="48.2568" lon="-2.90982">
        <ele>221.60000610352</ele>
        <time>2020-10-16T14:42:07.000Z</time>
      </trkpt>
      <trkpt lat="48.25678" lon="-2.90982">
        <ele>221.80000305176</ele>
        <time>2020-10-16T14:42:08.000Z</time>
      </trkpt>
      <trkpt lat="48.25675" lon="-2.90982">
        <ele>222.19999694824</ele>
        <time>2020-10-16T14:42:09.000Z</time>
      </trkpt>
      <trkpt lat="48.25673" lon="-2.90981">
        <ele>222.39999389648</ele>
        <time>2020-10-16T14:42:10.000Z</time>
      </trkpt>
      <trkpt lat="48.25671" lon="-2.90981">
        <ele>222.80000305176</ele>
        <time>2020-10-16T14:42:11.000Z</time>
      </trkpt>
      <trkpt lat="48.25668" lon="-2.9098">
        <ele>223</ele>
        <time>2020-10-16T14:42:12.000Z</time>
      </trkpt>
      <trkpt lat="48.25666" lon="-2.9098">
        <ele>223.39999389648</ele>
        <time>2020-10-16T14:42:13.000Z</time>
      </trkpt>
      <trkpt lat="48.2566" lon="-2.90978">
        <ele>224</ele>
        <time>2020-10-16T14:42:14.000Z</time>
      </trkpt>
      <trkpt lat="48.2566" lon="-2.90978">
        <ele>224</ele>
        <time>2020-10-16T14:42:15.000Z</time>
      </trkpt>
      <trkpt lat="48.25658" lon="-2.90978">
        <ele>224.19999694824</ele>
        <time>2020-10-16T14:42:16.000Z</time>
      </trkpt>
      <trkpt lat="48.25655" lon="-2.90978">
        <ele>224.60000610352</ele>
        <time>2020-10-16T14:42:17.000Z</time>
      </trkpt>
      <trkpt lat="48.25653" lon="-2.90977">
        <ele>224.80000305176</ele>
        <time>2020-10-16T14:42:18.000Z</time>
      </trkpt>
      <trkpt lat="48.2565" lon="-2.90977">
        <ele>225.19999694824</ele>
        <time>2020-10-16T14:42:19.000Z</time>
      </trkpt>
      <trkpt lat="48.25648" lon="-2.90977">
        <ele>225.39999389648</ele>
        <time>2020-10-16T14:42:20.000Z</time>
      </trkpt>
      <trkpt lat="48.25643" lon="-2.90976">
        <ele>226</ele>
        <time>2020-10-16T14:42:21.000Z</time>
      </trkpt>
      <trkpt lat="48.25643" lon="-2.90976">
        <ele>226</ele>
        <time>2020-10-16T14:42:22.000Z</time>
      </trkpt>
      <trkpt lat="48.25641" lon="-2.90976">
        <ele>226.19999694824</ele>
        <time>2020-10-16T14:42:23.000Z</time>
      </trkpt>
      <trkpt lat="48.25638" lon="-2.90976">
        <ele>226.60000610352</ele>
        <time>2020-10-16T14:42:24.000Z</time>
      </trkpt>
      <trkpt lat="48.25636" lon="-2.90975">
        <ele>226.80000305176</ele>
        <time>2020-10-16T14:42:25.000Z</time>
      </trkpt>
      <trkpt lat="48.25633" lon="-2.90975">
        <ele>227.19999694824</ele>
        <time>2020-10-16T14:42:26.000Z</time>
      </trkpt>
      <trkpt lat="48.25631" lon="-2.90975">
        <ele>227.39999389648</ele>
        <time>2020-10-16T14:42:27.000Z</time>
      </trkpt>
      <trkpt lat="48.25629" lon="-2.90974">
        <ele>227.60000610352</ele>
        <time>2020-10-16T14:42:28.000Z</time>
      </trkpt>
      <trkpt lat="48.25626" lon="-2.90973">
        <ele>228</ele>
        <time>2020-10-16T14:42:29.000Z</time>
      </trkpt>
      <trkpt lat="48.25624" lon="-2.90972">
        <ele>228.19999694824</ele>
        <time>2020-10-16T14:42:30.000Z</time>
      </trkpt>
      <trkpt lat="48.25622" lon="-2.90972">
        <ele>228.39999389648</ele>
        <time>2020-10-16T14:42:31.000Z</time>
      </trkpt>
      <trkpt lat="48.25619" lon="-2.90972">
        <ele>228.80000305176</ele>
        <time>2020-10-16T14:42:32.000Z</time>
      </trkpt>
      <trkpt lat="48.25617" lon="-2.90972">
        <ele>229</ele>
        <time>2020-10-16T14:42:33.000Z</time>
      </trkpt>
      <trkpt lat="48.25615" lon="-2.90972">
        <ele>229.39999389648</ele>
        <time>2020-10-16T14:42:34.000Z</time>
      </trkpt>
      <trkpt lat="48.25613" lon="-2.90972">
        <ele>229.60000610352</ele>
        <time>2020-10-16T14:42:35.000Z</time>
      </trkpt>
      <trkpt lat="48.2561" lon="-2.90972">
        <ele>229.80000305176</ele>
        <time>2020-10-16T14:42:36.000Z</time>
      </trkpt>
      <trkpt lat="48.25608" lon="-2.90972">
        <ele>230.19999694824</ele>
        <time>2020-10-16T14:42:37.000Z</time>
      </trkpt>
      <trkpt lat="48.25606" lon="-2.90971">
        <ele>230.39999389648</ele>
        <time>2020-10-16T14:42:38.000Z</time>
      </trkpt>
      <trkpt lat="48.25604" lon="-2.9097">
        <ele>230.60000610352</ele>
        <time>2020-10-16T14:42:39.000Z</time>
      </trkpt>
      <trkpt lat="48.25601" lon="-2.90969">
        <ele>231</ele>
        <time>2020-10-16T14:42:40.000Z</time>
      </trkpt>
      <trkpt lat="48.25599" lon="-2.90968">
        <ele>231.19999694824</ele>
        <time>2020-10-16T14:42:41.000Z</time>
      </trkpt>
      <trkpt lat="48.25597" lon="-2.90968">
        <ele>231.39999389648</ele>
        <time>2020-10-16T14:42:42.000Z</time>
      </trkpt>
      <trkpt lat="48.25594" lon="-2.90967">
        <ele>231.80000305176</ele>
        <time>2020-10-16T14:42:43.000Z</time>
      </trkpt>
      <trkpt lat="48.25592" lon="-2.90967">
        <ele>232.39999389648</ele>
        <time>2020-10-16T14:42:44.000Z</time>
      </trkpt>
      <trkpt lat="48.2559" lon="-2.90966">
        <ele>232.80000305176</ele>
        <time>2020-10-16T14:42:45.000Z</time>
      </trkpt>
      <trkpt lat="48.25587" lon="-2.90965">
        <ele>233.19999694824</ele>
        <time>2020-10-16T14:42:46.000Z</time>
      </trkpt>
      <trkpt lat="48.25585" lon="-2.90963">
        <ele>233.80000305176</ele>
        <time>2020-10-16T14:42:47.000Z</time>
      </trkpt>
      <trkpt lat="48.25583" lon="-2.90962">
        <ele>234.19999694824</ele>
        <time>2020-10-16T14:42:48.000Z</time>
      </trkpt>
      <trkpt lat="48.25581" lon="-2.90961">
        <ele>234.60000610352</ele>
        <time>2020-10-16T14:42:49.000Z</time>
      </trkpt>
      <trkpt lat="48.25579" lon="-2.90959">
        <ele>235</ele>
        <time>2020-10-16T14:42:50.000Z</time>
      </trkpt>
      <trkpt lat="48.25577" lon="-2.90958">
        <ele>235.39999389648</ele>
        <time>2020-10-16T14:42:51.000Z</time>
      </trkpt>
      <trkpt lat="48.25575" lon="-2.90956">
        <ele>235.80000305176</ele>
        <time>2020-10-16T14:42:52.000Z</time>
      </trkpt>
      <trkpt lat="48.25573" lon="-2.90955">
        <ele>236.19999694824</ele>
        <time>2020-10-16T14:42:53.000Z</time>
      </trkpt>
      <trkpt lat="48.25571" lon="-2.90953">
        <ele>236.39999389648</ele>
        <time>2020-10-16T14:42:54.000Z</time>
      </trkpt>
      <trkpt lat="48.25569" lon="-2.90951">
        <ele>236.80000305176</ele>
        <time>2020-10-16T14:42:55.000Z</time>
      </trkpt>
      <trkpt lat="48.25568" lon="-2.9095">
        <ele>237</ele>
        <time>2020-10-16T14:42:56.000Z</time>
      </trkpt>
      <trkpt lat="48.25566" lon="-2.90948">
        <ele>237.39999389648</ele>
        <time>2020-10-16T14:42:57.000Z</time>
      </trkpt>
      <trkpt lat="48.25565" lon="-2.90947">
        <ele>237.60000610352</ele>
        <time>2020-10-16T14:42:58.000Z</time>
      </trkpt>
      <trkpt lat="48.25563" lon="-2.90945">
        <ele>237.80000305176</ele>
        <time>2020-10-16T14:42:59.000Z</time>
      </trkpt>
      <trkpt lat="48.25562" lon="-2.90944">
        <ele>238</ele>
        <time>2020-10-16T14:43:00.000Z</time>
      </trkpt>
      <trkpt lat="48.25559" lon="-2.90941">
        <ele>238.60000610352</ele>
        <time>2020-10-16T14:43:01.000Z</time>
      </trkpt>
      <trkpt lat="48.25559" lon="-2.90941">
        <ele>238.60000610352</ele>
        <time>2020-10-16T14:43:02.000Z</time>
      </trkpt>
      <trkpt lat="48.25558" lon="-2.9094">
        <ele>238.80000305176</ele>
        <time>2020-10-16T14:43:03.000Z</time>
      </trkpt>
      <trkpt lat="48.25554" lon="-2.90937">
        <ele>239.19999694824</ele>
        <time>2020-10-16T14:43:04.000Z</time>
      </trkpt>
      <trkpt lat="48.25554" lon="-2.90937">
        <ele>239.19999694824</ele>
        <time>2020-10-16T14:43:05.000Z</time>
      </trkpt>
      <trkpt lat="48.25553" lon="-2.90936">
        <ele>239.60000610352</ele>
        <time>2020-10-16T14:43:06.000Z</time>
      </trkpt>
      <trkpt lat="48.25551" lon="-2.90934">
        <ele>240</ele>
        <time>2020-10-16T14:43:07.000Z</time>
      </trkpt>
      <trkpt lat="48.25549" lon="-2.90933">
        <ele>240.19999694824</ele>
        <time>2020-10-16T14:43:08.000Z</time>
      </trkpt>
      <trkpt lat="48.25547" lon="-2.90931">
        <ele>240.60000610352</ele>
        <time>2020-10-16T14:43:09.000Z</time>
      </trkpt>
      <trkpt lat="48.25546" lon="-2.9093">
        <ele>240.80000305176</ele>
        <time>2020-10-16T14:43:10.000Z</time>
      </trkpt>
      <trkpt lat="48.25544" lon="-2.90928">
        <ele>241</ele>
        <time>2020-10-16T14:43:11.000Z</time>
      </trkpt>
      <trkpt lat="48.25542" lon="-2.90926">
        <ele>241.39999389648</ele>
        <time>2020-10-16T14:43:12.000Z</time>
      </trkpt>
      <trkpt lat="48.25541" lon="-2.90925">
        <ele>241.60000610352</ele>
        <time>2020-10-16T14:43:13.000Z</time>
      </trkpt>
      <trkpt lat="48.25539" lon="-2.90923">
        <ele>242</ele>
        <time>2020-10-16T14:43:14.000Z</time>
      </trkpt>
      <trkpt lat="48.25537" lon="-2.90922">
        <ele>242.19999694824</ele>
        <time>2020-10-16T14:43:15.000Z</time>
      </trkpt>
      <trkpt lat="48.25536" lon="-2.9092">
        <ele>242.60000610352</ele>
        <time>2020-10-16T14:43:16.000Z</time>
      </trkpt>
      <trkpt lat="48.25534" lon="-2.90919">
        <ele>243</ele>
        <time>2020-10-16T14:43:17.000Z</time>
      </trkpt>
      <trkpt lat="48.25533" lon="-2.90917">
        <ele>243.19999694824</ele>
        <time>2020-10-16T14:43:18.000Z</time>
      </trkpt>
      <trkpt lat="48.25531" lon="-2.90915">
        <ele>243.60000610352</ele>
        <time>2020-10-16T14:43:19.000Z</time>
      </trkpt>
      <trkpt lat="48.2553" lon="-2.90914">
        <ele>243.80000305176</ele>
        <time>2020-10-16T14:43:20.000Z</time>
      </trkpt>
      <trkpt lat="48.25528" lon="-2.90912">
        <ele>244.19999694824</ele>
        <time>2020-10-16T14:43:21.000Z</time>
      </trkpt>
      <trkpt lat="48.25526" lon="-2.9091">
        <ele>244.60000610352</ele>
        <time>2020-10-16T14:43:22.000Z</time>
      </trkpt>
      <trkpt lat="48.25525" lon="-2.90909">
        <ele>244.80000305176</ele>
        <time>2020-10-16T14:43:23.000Z</time>
      </trkpt>
      <trkpt lat="48.25523" lon="-2.90907">
        <ele>245</ele>
        <time>2020-10-16T14:43:24.000Z</time>
      </trkpt>
      <trkpt lat="48.25522" lon="-2.90906">
        <ele>245.39999389648</ele>
        <time>2020-10-16T14:43:25.000Z</time>
      </trkpt>
      <trkpt lat="48.2552" lon="-2.90904">
        <ele>245.60000610352</ele>
        <time>2020-10-16T14:43:26.000Z</time>
      </trkpt>
      <trkpt lat="48.25518" lon="-2.90903">
        <ele>246</ele>
        <time>2020-10-16T14:43:27.000Z</time>
      </trkpt>
      <trkpt lat="48.25517" lon="-2.90901">
        <ele>246.19999694824</ele>
        <time>2020-10-16T14:43:28.000Z</time>
      </trkpt>
      <trkpt lat="48.25515" lon="-2.90899">
        <ele>246.60000610352</ele>
        <time>2020-10-16T14:43:29.000Z</time>
      </trkpt>
      <trkpt lat="48.25513" lon="-2.90898">
        <ele>246.80000305176</ele>
        <time>2020-10-16T14:43:30.000Z</time>
      </trkpt>
      <trkpt lat="48.25512" lon="-2.90896">
        <ele>247.19999694824</ele>
        <time>2020-10-16T14:43:31.000Z</time>
      </trkpt>
      <trkpt lat="48.2551" lon="-2.90895">
        <ele>247.39999389648</ele>
        <time>2020-10-16T14:43:32.000Z</time>
      </trkpt>
      <trkpt lat="48.25509" lon="-2.90894">
        <ele>247.60000610352</ele>
        <time>2020-10-16T14:43:33.000Z</time>
      </trkpt>
      <trkpt lat="48.25507" lon="-2.90892">
        <ele>247.80000305176</ele>
        <time>2020-10-16T14:43:34.000Z</time>
      </trkpt>
      <trkpt lat="48.25506" lon="-2.90891">
        <ele>248</ele>
        <time>2020-10-16T14:43:35.000Z</time>
      </trkpt>
      <trkpt lat="48.25504" lon="-2.90889">
        <ele>248.19999694824</ele>
        <time>2020-10-16T14:43:36.000Z</time>
      </trkpt>
      <trkpt lat="48.25501" lon="-2.90887">
        <ele>248.60000610352</ele>
        <time>2020-10-16T14:43:37.000Z</time>
      </trkpt>
      <trkpt lat="48.25501" lon="-2.90887">
        <ele>248.60000610352</ele>
        <time>2020-10-16T14:43:38.000Z</time>
      </trkpt>
      <trkpt lat="48.255" lon="-2.90885">
        <ele>248.80000305176</ele>
        <time>2020-10-16T14:43:39.000Z</time>
      </trkpt>
      <trkpt lat="48.25498" lon="-2.90884">
        <ele>249</ele>
        <time>2020-10-16T14:43:40.000Z</time>
      </trkpt>
      <trkpt lat="48.25497" lon="-2.90882">
        <ele>249.19999694824</ele>
        <time>2020-10-16T14:43:41.000Z</time>
      </trkpt>
      <trkpt lat="48.25495" lon="-2.90881">
        <ele>249.39999389648</ele>
        <time>2020-10-16T14:43:42.000Z</time>
      </trkpt>
      <trkpt lat="48.25494" lon="-2.9088">
        <ele>249.60000610352</ele>
        <time>2020-10-16T14:43:43.000Z</time>
      </trkpt>
      <trkpt lat="48.25493" lon="-2.90879">
        <ele>249.80000305176</ele>
        <time>2020-10-16T14:43:44.000Z</time>
      </trkpt>
      <trkpt lat="48.25491" lon="-2.90877">
        <ele>250.19999694824</ele>
        <time>2020-10-16T14:43:45.000Z</time>
      </trkpt>
      <trkpt lat="48.25489" lon="-2.90876">
        <ele>250.39999389648</ele>
        <time>2020-10-16T14:43:46.000Z</time>
      </trkpt>
      <trkpt lat="48.25488" lon="-2.90874">
        <ele>250.60000610352</ele>
        <time>2020-10-16T14:43:47.000Z</time>
      </trkpt>
      <trkpt lat="48.25486" lon="-2.90873">
        <ele>250.80000305176</ele>
        <time>2020-10-16T14:43:48.000Z</time>
      </trkpt>
      <trkpt lat="48.25485" lon="-2.90872">
        <ele>251</ele>
        <time>2020-10-16T14:43:49.000Z</time>
      </trkpt>
      <trkpt lat="48.25483" lon="-2.9087">
        <ele>251.19999694824</ele>
        <time>2020-10-16T14:43:50.000Z</time>
      </trkpt>
      <trkpt lat="48.25481" lon="-2.90869">
        <ele>251.60000610352</ele>
        <time>2020-10-16T14:43:51.000Z</time>
      </trkpt>
      <trkpt lat="48.25479" lon="-2.90868">
        <ele>251.80000305176</ele>
        <time>2020-10-16T14:43:52.000Z</time>
      </trkpt>
      <trkpt lat="48.25478" lon="-2.90866">
        <ele>252</ele>
        <time>2020-10-16T14:43:53.000Z</time>
      </trkpt>
      <trkpt lat="48.25476" lon="-2.90865">
        <ele>252.19999694824</ele>
        <time>2020-10-16T14:43:54.000Z</time>
      </trkpt>
      <trkpt lat="48.25474" lon="-2.90863">
        <ele>252.39999389648</ele>
        <time>2020-10-16T14:43:55.000Z</time>
      </trkpt>
      <trkpt lat="48.25473" lon="-2.90862">
        <ele>252.60000610352</ele>
        <time>2020-10-16T14:43:56.000Z</time>
      </trkpt>
      <trkpt lat="48.25471" lon="-2.90861">
        <ele>252.80000305176</ele>
        <time>2020-10-16T14:43:57.000Z</time>
      </trkpt>
      <trkpt lat="48.25469" lon="-2.9086">
        <ele>253</ele>
        <time>2020-10-16T14:43:58.000Z</time>
      </trkpt>
      <trkpt lat="48.25468" lon="-2.90859">
        <ele>253.19999694824</ele>
        <time>2020-10-16T14:43:59.000Z</time>
      </trkpt>
      <trkpt lat="48.25464" lon="-2.90857">
        <ele>253.60000610352</ele>
        <time>2020-10-16T14:44:00.000Z</time>
      </trkpt>
      <trkpt lat="48.25464" lon="-2.90857">
        <ele>253.60000610352</ele>
        <time>2020-10-16T14:44:01.000Z</time>
      </trkpt>
      <trkpt lat="48.25463" lon="-2.90857">
        <ele>253.80000305176</ele>
        <time>2020-10-16T14:44:02.000Z</time>
      </trkpt>
      <trkpt lat="48.25461" lon="-2.90855">
        <ele>254</ele>
        <time>2020-10-16T14:44:03.000Z</time>
      </trkpt>
      <trkpt lat="48.25459" lon="-2.90855">
        <ele>254.19999694824</ele>
        <time>2020-10-16T14:44:04.000Z</time>
      </trkpt>
      <trkpt lat="48.25457" lon="-2.90854">
        <ele>254.39999389648</ele>
        <time>2020-10-16T14:44:05.000Z</time>
      </trkpt>
      <trkpt lat="48.25456" lon="-2.90853">
        <ele>254.60000610352</ele>
        <time>2020-10-16T14:44:06.000Z</time>
      </trkpt>
      <trkpt lat="48.25454" lon="-2.90852">
        <ele>254.80000305176</ele>
        <time>2020-10-16T14:44:07.000Z</time>
      </trkpt>
      <trkpt lat="48.25453" lon="-2.90852">
        <ele>255</ele>
        <time>2020-10-16T14:44:08.000Z</time>
      </trkpt>
      <trkpt lat="48.25451" lon="-2.90851">
        <ele>255.19999694824</ele>
        <time>2020-10-16T14:44:09.000Z</time>
      </trkpt>
      <trkpt lat="48.25449" lon="-2.9085">
        <ele>255.60000610352</ele>
        <time>2020-10-16T14:44:10.000Z</time>
      </trkpt>
      <trkpt lat="48.25447" lon="-2.90849">
        <ele>255.80000305176</ele>
        <time>2020-10-16T14:44:11.000Z</time>
      </trkpt>
      <trkpt lat="48.25445" lon="-2.90849">
        <ele>256</ele>
        <time>2020-10-16T14:44:12.000Z</time>
      </trkpt>
      <trkpt lat="48.25444" lon="-2.90848">
        <ele>256.20001220703</ele>
        <time>2020-10-16T14:44:13.000Z</time>
      </trkpt>
      <trkpt lat="48.25442" lon="-2.90847">
        <ele>256.39999389648</ele>
        <time>2020-10-16T14:44:14.000Z</time>
      </trkpt>
      <trkpt lat="48.2544" lon="-2.90847">
        <ele>256.79998779297</ele>
        <time>2020-10-16T14:44:15.000Z</time>
      </trkpt>
      <trkpt lat="48.25436" lon="-2.90846">
        <ele>257.20001220703</ele>
        <time>2020-10-16T14:44:16.000Z</time>
      </trkpt>
      <trkpt lat="48.25436" lon="-2.90846">
        <ele>257.20001220703</ele>
        <time>2020-10-16T14:44:17.000Z</time>
      </trkpt>
      <trkpt lat="48.25434" lon="-2.90845">
        <ele>257.39999389648</ele>
        <time>2020-10-16T14:44:18.000Z</time>
      </trkpt>
      <trkpt lat="48.25432" lon="-2.90845">
        <ele>257.79998779297</ele>
        <time>2020-10-16T14:44:19.000Z</time>
      </trkpt>
      <trkpt lat="48.2543" lon="-2.90845">
        <ele>258</ele>
        <time>2020-10-16T14:44:20.000Z</time>
      </trkpt>
      <trkpt lat="48.25429" lon="-2.90845">
        <ele>258.20001220703</ele>
        <time>2020-10-16T14:44:21.000Z</time>
      </trkpt>
      <trkpt lat="48.25427" lon="-2.90845">
        <ele>258.20001220703</ele>
        <time>2020-10-16T14:44:22.000Z</time>
      </trkpt>
      <trkpt lat="48.25426" lon="-2.90846">
        <ele>258.39999389648</ele>
        <time>2020-10-16T14:44:23.000Z</time>
      </trkpt>
      <trkpt lat="48.25424" lon="-2.90846">
        <ele>258.60000610352</ele>
        <time>2020-10-16T14:44:24.000Z</time>
      </trkpt>
      <trkpt lat="48.25422" lon="-2.90847">
        <ele>258.79998779297</ele>
        <time>2020-10-16T14:44:25.000Z</time>
      </trkpt>
      <trkpt lat="48.2542" lon="-2.90848">
        <ele>259</ele>
        <time>2020-10-16T14:44:26.000Z</time>
      </trkpt>
      <trkpt lat="48.25418" lon="-2.90848">
        <ele>259</ele>
        <time>2020-10-16T14:44:27.000Z</time>
      </trkpt>
      <trkpt lat="48.25417" lon="-2.90849">
        <ele>259.20001220703</ele>
        <time>2020-10-16T14:44:28.000Z</time>
      </trkpt>
      <trkpt lat="48.25415" lon="-2.9085">
        <ele>259.39999389648</ele>
        <time>2020-10-16T14:44:29.000Z</time>
      </trkpt>
      <trkpt lat="48.25413" lon="-2.90851">
        <ele>259.39999389648</ele>
        <time>2020-10-16T14:44:30.000Z</time>
      </trkpt>
      <trkpt lat="48.25411" lon="-2.90852">
        <ele>259.60000610352</ele>
        <time>2020-10-16T14:44:31.000Z</time>
      </trkpt>
      <trkpt lat="48.25409" lon="-2.90853">
        <ele>259.79998779297</ele>
        <time>2020-10-16T14:44:32.000Z</time>
      </trkpt>
      <trkpt lat="48.25408" lon="-2.90854">
        <ele>260</ele>
        <time>2020-10-16T14:44:33.000Z</time>
      </trkpt>
      <trkpt lat="48.25406" lon="-2.90855">
        <ele>260.20001220703</ele>
        <time>2020-10-16T14:44:34.000Z</time>
      </trkpt>
      <trkpt lat="48.25404" lon="-2.90857">
        <ele>260.39999389648</ele>
        <time>2020-10-16T14:44:35.000Z</time>
      </trkpt>
      <trkpt lat="48.25402" lon="-2.90858">
        <ele>260.39999389648</ele>
        <time>2020-10-16T14:44:36.000Z</time>
      </trkpt>
      <trkpt lat="48.25401" lon="-2.9086">
        <ele>260.60000610352</ele>
        <time>2020-10-16T14:44:37.000Z</time>
      </trkpt>
      <trkpt lat="48.25398" lon="-2.90862">
        <ele>261</ele>
        <time>2020-10-16T14:44:38.000Z</time>
      </trkpt>
      <trkpt lat="48.25398" lon="-2.90862">
        <ele>261</ele>
        <time>2020-10-16T14:44:39.000Z</time>
      </trkpt>
      <trkpt lat="48.25396" lon="-2.90863">
        <ele>261</ele>
        <time>2020-10-16T14:44:40.000Z</time>
      </trkpt>
      <trkpt lat="48.25395" lon="-2.90865">
        <ele>261.20001220703</ele>
        <time>2020-10-16T14:44:41.000Z</time>
      </trkpt>
      <trkpt lat="48.25393" lon="-2.90867">
        <ele>261.39999389648</ele>
        <time>2020-10-16T14:44:42.000Z</time>
      </trkpt>
      <trkpt lat="48.25392" lon="-2.90869">
        <ele>261.60000610352</ele>
        <time>2020-10-16T14:44:43.000Z</time>
      </trkpt>
      <trkpt lat="48.2539" lon="-2.90871">
        <ele>261.79998779297</ele>
        <time>2020-10-16T14:44:44.000Z</time>
      </trkpt>
      <trkpt lat="48.25389" lon="-2.90873">
        <ele>262</ele>
        <time>2020-10-16T14:44:45.000Z</time>
      </trkpt>
      <trkpt lat="48.25387" lon="-2.90874">
        <ele>262.20001220703</ele>
        <time>2020-10-16T14:44:46.000Z</time>
      </trkpt>
      <trkpt lat="48.25386" lon="-2.90876">
        <ele>262.39999389648</ele>
        <time>2020-10-16T14:44:47.000Z</time>
      </trkpt>
      <trkpt lat="48.25384" lon="-2.90878">
        <ele>262.60000610352</ele>
        <time>2020-10-16T14:44:48.000Z</time>
      </trkpt>
      <trkpt lat="48.25383" lon="-2.9088">
        <ele>262.79998779297</ele>
        <time>2020-10-16T14:44:49.000Z</time>
      </trkpt>
      <trkpt lat="48.25379" lon="-2.90884">
        <ele>263</ele>
        <time>2020-10-16T14:44:50.000Z</time>
      </trkpt>
      <trkpt lat="48.25379" lon="-2.90884">
        <ele>263</ele>
        <time>2020-10-16T14:44:51.000Z</time>
      </trkpt>
      <trkpt lat="48.25378" lon="-2.90886">
        <ele>263.20001220703</ele>
        <time>2020-10-16T14:44:52.000Z</time>
      </trkpt>
      <trkpt lat="48.25376" lon="-2.90888">
        <ele>263.39999389648</ele>
        <time>2020-10-16T14:44:53.000Z</time>
      </trkpt>
      <trkpt lat="48.25374" lon="-2.9089">
        <ele>263.60000610352</ele>
        <time>2020-10-16T14:44:54.000Z</time>
      </trkpt>
      <trkpt lat="48.25373" lon="-2.90892">
        <ele>263.79998779297</ele>
        <time>2020-10-16T14:44:55.000Z</time>
      </trkpt>
      <trkpt lat="48.25371" lon="-2.90894">
        <ele>264.20001220703</ele>
        <time>2020-10-16T14:44:56.000Z</time>
      </trkpt>
      <trkpt lat="48.25369" lon="-2.90896">
        <ele>264.39999389648</ele>
        <time>2020-10-16T14:44:57.000Z</time>
      </trkpt>
      <trkpt lat="48.25367" lon="-2.90898">
        <ele>264.60000610352</ele>
        <time>2020-10-16T14:44:58.000Z</time>
      </trkpt>
      <trkpt lat="48.25365" lon="-2.90901">
        <ele>264.79998779297</ele>
        <time>2020-10-16T14:44:59.000Z</time>
      </trkpt>
      <trkpt lat="48.25364" lon="-2.90903">
        <ele>265</ele>
        <time>2020-10-16T14:45:00.000Z</time>
      </trkpt>
      <trkpt lat="48.25362" lon="-2.90904">
        <ele>265.20001220703</ele>
        <time>2020-10-16T14:45:01.000Z</time>
      </trkpt>
      <trkpt lat="48.2536" lon="-2.90906">
        <ele>265.39999389648</ele>
        <time>2020-10-16T14:45:02.000Z</time>
      </trkpt>
      <trkpt lat="48.25357" lon="-2.9091">
        <ele>265.79998779297</ele>
        <time>2020-10-16T14:45:03.000Z</time>
      </trkpt>
      <trkpt lat="48.25357" lon="-2.9091">
        <ele>265.79998779297</ele>
        <time>2020-10-16T14:45:04.000Z</time>
      </trkpt>
      <trkpt lat="48.25355" lon="-2.90912">
        <ele>266</ele>
        <time>2020-10-16T14:45:05.000Z</time>
      </trkpt>
      <trkpt lat="48.25353" lon="-2.90914">
        <ele>266.20001220703</ele>
        <time>2020-10-16T14:45:06.000Z</time>
      </trkpt>
      <trkpt lat="48.25352" lon="-2.90916">
        <ele>266.39999389648</ele>
        <time>2020-10-16T14:45:07.000Z</time>
      </trkpt>
      <trkpt lat="48.2535" lon="-2.90918">
        <ele>266.60000610352</ele>
        <time>2020-10-16T14:45:08.000Z</time>
      </trkpt>
      <trkpt lat="48.25348" lon="-2.9092">
        <ele>266.79998779297</ele>
        <time>2020-10-16T14:45:09.000Z</time>
      </trkpt>
      <trkpt lat="48.25346" lon="-2.90922">
        <ele>267</ele>
        <time>2020-10-16T14:45:10.000Z</time>
      </trkpt>
      <trkpt lat="48.25345" lon="-2.90925">
        <ele>267.20001220703</ele>
        <time>2020-10-16T14:45:11.000Z</time>
      </trkpt>
      <trkpt lat="48.25343" lon="-2.90927">
        <ele>267.39999389648</ele>
        <time>2020-10-16T14:45:12.000Z</time>
      </trkpt>
      <trkpt lat="48.25341" lon="-2.90929">
        <ele>267.60000610352</ele>
        <time>2020-10-16T14:45:13.000Z</time>
      </trkpt>
      <trkpt lat="48.25339" lon="-2.90931">
        <ele>267.79998779297</ele>
        <time>2020-10-16T14:45:14.000Z</time>
      </trkpt>
      <trkpt lat="48.25338" lon="-2.90933">
        <ele>268</ele>
        <time>2020-10-16T14:45:15.000Z</time>
      </trkpt>
      <trkpt lat="48.25336" lon="-2.90934">
        <ele>268</ele>
        <time>2020-10-16T14:45:16.000Z</time>
      </trkpt>
      <trkpt lat="48.25334" lon="-2.90935">
        <ele>268.20001220703</ele>
        <time>2020-10-16T14:45:17.000Z</time>
      </trkpt>
      <trkpt lat="48.25334" lon="-2.90935">
        <ele>268.20001220703</ele>
        <time>2020-10-16T14:45:18.000Z</time>
      </trkpt>
      <trkpt lat="48.25334" lon="-2.90935">
        <ele>268.20001220703</ele>
        <time>2020-10-16T14:45:19.000Z</time>
      </trkpt>
      <trkpt lat="48.25334" lon="-2.90935">
        <ele>268.20001220703</ele>
        <time>2020-10-16T14:45:20.000Z</time>
      </trkpt>
      <trkpt lat="48.25334" lon="-2.90935">
        <ele>268.20001220703</ele>
        <time>2020-10-16T14:45:21.000Z</time>
      </trkpt>
      <trkpt lat="48.25334" lon="-2.90936">
        <ele>268.20001220703</ele>
        <time>2020-10-16T14:45:22.000Z</time>
      </trkpt>
      <trkpt lat="48.25334" lon="-2.90936">
        <ele>268.20001220703</ele>
        <time>2020-10-16T14:45:23.000Z</time>
      </trkpt>
      <trkpt lat="48.25334" lon="-2.90935">
        <ele>268.20001220703</ele>
        <time>2020-10-16T14:45:24.000Z</time>
      </trkpt>
      <trkpt lat="48.25334" lon="-2.90935">
        <ele>268.20001220703</ele>
        <time>2020-10-16T14:45:25.000Z</time>
      </trkpt>
      <trkpt lat="48.25334" lon="-2.90935">
        <ele>268.20001220703</ele>
        <time>2020-10-16T14:45:26.000Z</time>
      </trkpt>
      <trkpt lat="48.25334" lon="-2.90936">
        <ele>268.20001220703</ele>
        <time>2020-10-16T14:45:27.000Z</time>
      </trkpt>
      <trkpt lat="48.25334" lon="-2.90936">
        <ele>268.20001220703</ele>
        <time>2020-10-16T14:45:28.000Z</time>
      </trkpt>
      <trkpt lat="48.25334" lon="-2.90936">
        <ele>268.20001220703</ele>
        <time>2020-10-16T14:45:29.000Z</time>
      </trkpt>
      <trkpt lat="48.25334" lon="-2.90936">
        <ele>268.20001220703</ele>
        <time>2020-10-16T14:45:30.000Z</time>
      </trkpt>
      <trkpt lat="48.25334" lon="-2.90936">
        <ele>268.39999389648</ele>
        <time>2020-10-16T14:45:31.000Z</time>
      </trkpt>
      <trkpt lat="48.25334" lon="-2.90937">
        <ele>268.39999389648</ele>
        <time>2020-10-16T14:45:32.000Z</time>
      </trkpt>
      <trkpt lat="48.25334" lon="-2.90937">
        <ele>268.39999389648</ele>
        <time>2020-10-16T14:45:33.000Z</time>
      </trkpt>
      <trkpt lat="48.25334" lon="-2.90937">
        <ele>268.39999389648</ele>
        <time>2020-10-16T14:45:34.000Z</time>
      </trkpt>
      <trkpt lat="48.25334" lon="-2.90937">
        <ele>268.39999389648</ele>
        <time>2020-10-16T14:45:35.000Z</time>
      </trkpt>
      <trkpt lat="48.25334" lon="-2.90937">
        <ele>268.20001220703</ele>
        <time>2020-10-16T14:45:36.000Z</time>
      </trkpt>
      <trkpt lat="48.25334" lon="-2.90937">
        <ele>268.39999389648</ele>
        <time>2020-10-16T14:45:37.000Z</time>
      </trkpt>
      <trkpt lat="48.25334" lon="-2.90937">
        <ele>268.39999389648</ele>
        <time>2020-10-16T14:45:38.000Z</time>
      </trkpt>
      <trkpt lat="48.25334" lon="-2.90937">
        <ele>268.39999389648</ele>
        <time>2020-10-16T14:45:39.000Z</time>
      </trkpt>
      <trkpt lat="48.25334" lon="-2.90937">
        <ele>268.39999389648</ele>
        <time>2020-10-16T14:45:40.000Z</time>
      </trkpt>
      <trkpt lat="48.25334" lon="-2.90937">
        <ele>268.39999389648</ele>
        <time>2020-10-16T14:45:41.000Z</time>
      </trkpt>
      <trkpt lat="48.25334" lon="-2.90937">
        <ele>268.39999389648</ele>
        <time>2020-10-16T14:45:42.000Z</time>
      </trkpt>
      <trkpt lat="48.25334" lon="-2.90937">
        <ele>268.39999389648</ele>
        <time>2020-10-16T14:45:43.000Z</time>
      </trkpt>
      <trkpt lat="48.25334" lon="-2.90937">
        <ele>268.39999389648</ele>
        <time>2020-10-16T14:45:44.000Z</time>
      </trkpt>
      <trkpt lat="48.25334" lon="-2.90937">
        <ele>268.39999389648</ele>
        <time>2020-10-16T14:45:45.000Z</time>
      </trkpt>
      <trkpt lat="48.25334" lon="-2.90937">
        <ele>268.39999389648</ele>
        <time>2020-10-16T14:45:46.000Z</time>
      </trkpt>
      <trkpt lat="48.25334" lon="-2.90938">
        <ele>268.39999389648</ele>
        <time>2020-10-16T14:45:47.000Z</time>
      </trkpt>
      <trkpt lat="48.25334" lon="-2.90938">
        <ele>268.39999389648</ele>
        <time>2020-10-16T14:45:48.000Z</time>
      </trkpt>
      <trkpt lat="48.25334" lon="-2.90938">
        <ele>268.39999389648</ele>
        <time>2020-10-16T14:45:49.000Z</time>
      </trkpt>
      <trkpt lat="48.25334" lon="-2.90938">
        <ele>268.39999389648</ele>
        <time>2020-10-16T14:45:50.000Z</time>
      </trkpt>
      <trkpt lat="48.25334" lon="-2.90938">
        <ele>268.39999389648</ele>
        <time>2020-10-16T14:45:51.000Z</time>
      </trkpt>
      <trkpt lat="48.25334" lon="-2.90938">
        <ele>268.39999389648</ele>
        <time>2020-10-16T14:45:52.000Z</time>
      </trkpt>
      <trkpt lat="48.25334" lon="-2.90937">
        <ele>268.39999389648</ele>
        <time>2020-10-16T14:45:53.000Z</time>
      </trkpt>
      <trkpt lat="48.25334" lon="-2.90937">
        <ele>268.39999389648</ele>
        <time>2020-10-16T14:45:54.000Z</time>
      </trkpt>
      <trkpt lat="48.25334" lon="-2.90937">
        <ele>268.39999389648</ele>
        <time>2020-10-16T14:45:55.000Z</time>
      </trkpt>
      <trkpt lat="48.25334" lon="-2.90938">
        <ele>268.39999389648</ele>
        <time>2020-10-16T14:45:56.000Z</time>
      </trkpt>
      <trkpt lat="48.25334" lon="-2.90937">
        <ele>268.39999389648</ele>
        <time>2020-10-16T14:45:57.000Z</time>
      </trkpt>
      <trkpt lat="48.25334" lon="-2.90937">
        <ele>268.39999389648</ele>
        <time>2020-10-16T14:45:58.000Z</time>
      </trkpt>
      <trkpt lat="48.25334" lon="-2.90937">
        <ele>268.39999389648</ele>
        <time>2020-10-16T14:45:59.000Z</time>
      </trkpt>
      <trkpt lat="48.25334" lon="-2.90937">
        <ele>268.39999389648</ele>
        <time>2020-10-16T14:46:00.000Z</time>
      </trkpt>
      <trkpt lat="48.25334" lon="-2.90937">
        <ele>268.39999389648</ele>
        <time>2020-10-16T14:46:01.000Z</time>
      </trkpt>
      <trkpt lat="48.25334" lon="-2.90937">
        <ele>268.39999389648</ele>
        <time>2020-10-16T14:46:02.000Z</time>
      </trkpt>
      <trkpt lat="48.25334" lon="-2.90937">
        <ele>268.39999389648</ele>
        <time>2020-10-16T14:46:03.000Z</time>
      </trkpt>
      <trkpt lat="48.25334" lon="-2.90937">
        <ele>268.39999389648</ele>
        <time>2020-10-16T14:46:04.000Z</time>
      </trkpt>
      <trkpt lat="48.25334" lon="-2.90937">
        <ele>268.39999389648</ele>
        <time>2020-10-16T14:46:05.000Z</time>
      </trkpt>
      <trkpt lat="48.25334" lon="-2.90937">
        <ele>268.39999389648</ele>
        <time>2020-10-16T14:46:06.000Z</time>
      </trkpt>
      <trkpt lat="48.25334" lon="-2.90937">
        <ele>268.39999389648</ele>
        <time>2020-10-16T14:46:07.000Z</time>
      </trkpt>
      <trkpt lat="48.25334" lon="-2.90937">
        <ele>268.39999389648</ele>
        <time>2020-10-16T14:46:08.000Z</time>
      </trkpt>
      <trkpt lat="48.25334" lon="-2.90937">
        <ele>268.39999389648</ele>
        <time>2020-10-16T14:46:09.000Z</time>
      </trkpt>
      <trkpt lat="48.25334" lon="-2.90937">
        <ele>268.39999389648</ele>
        <time>2020-10-16T14:46:10.000Z</time>
      </trkpt>
      <trkpt lat="48.25334" lon="-2.90937">
        <ele>268.39999389648</ele>
        <time>2020-10-16T14:46:11.000Z</time>
      </trkpt>
      <trkpt lat="48.25334" lon="-2.90937">
        <ele>268.39999389648</ele>
        <time>2020-10-16T14:46:12.000Z</time>
      </trkpt>
      <trkpt lat="48.25334" lon="-2.90937">
        <ele>268.39999389648</ele>
        <time>2020-10-16T14:46:13.000Z</time>
      </trkpt>
      <trkpt lat="48.25334" lon="-2.90937">
        <ele>268.39999389648</ele>
        <time>2020-10-16T14:46:14.000Z</time>
      </trkpt>
      <trkpt lat="48.25334" lon="-2.90937">
        <ele>268.39999389648</ele>
        <time>2020-10-16T14:46:15.000Z</time>
      </trkpt>
      <trkpt lat="48.25334" lon="-2.90937">
        <ele>268.39999389648</ele>
        <time>2020-10-16T14:46:16.000Z</time>
      </trkpt>
      <trkpt lat="48.25334" lon="-2.90937">
        <ele>268.39999389648</ele>
        <time>2020-10-16T14:46:17.000Z</time>
      </trkpt>
      <trkpt lat="48.25334" lon="-2.90938">
        <ele>268.39999389648</ele>
        <time>2020-10-16T14:46:18.000Z</time>
      </trkpt>
      <trkpt lat="48.25334" lon="-2.90938">
        <ele>268.39999389648</ele>
        <time>2020-10-16T14:46:19.000Z</time>
      </trkpt>
      <trkpt lat="48.25334" lon="-2.90938">
        <ele>268.39999389648</ele>
        <time>2020-10-16T14:46:20.000Z</time>
      </trkpt>
      <trkpt lat="48.25333" lon="-2.90938">
        <ele>268.39999389648</ele>
        <time>2020-10-16T14:46:21.000Z</time>
      </trkpt>
      <trkpt lat="48.25333" lon="-2.90938">
        <ele>268.39999389648</ele>
        <time>2020-10-16T14:46:22.000Z</time>
      </trkpt>
      <trkpt lat="48.25332" lon="-2.90939">
        <ele>268.39999389648</ele>
        <time>2020-10-16T14:46:23.000Z</time>
      </trkpt>
      <trkpt lat="48.25332" lon="-2.90939">
        <ele>268.60000610352</ele>
        <time>2020-10-16T14:46:24.000Z</time>
      </trkpt>
      <trkpt lat="48.25332" lon="-2.90939">
        <ele>268.60000610352</ele>
        <time>2020-10-16T14:46:25.000Z</time>
      </trkpt>
      <trkpt lat="48.25332" lon="-2.90939">
        <ele>268.60000610352</ele>
        <time>2020-10-16T14:46:26.000Z</time>
      </trkpt>
      <trkpt lat="48.25332" lon="-2.90939">
        <ele>268.60000610352</ele>
        <time>2020-10-16T14:46:27.000Z</time>
      </trkpt>
      <trkpt lat="48.25332" lon="-2.90939">
        <ele>268.60000610352</ele>
        <time>2020-10-16T14:46:28.000Z</time>
      </trkpt>
      <trkpt lat="48.25332" lon="-2.90939">
        <ele>268.60000610352</ele>
        <time>2020-10-16T14:46:29.000Z</time>
      </trkpt>
      <trkpt lat="48.25332" lon="-2.90939">
        <ele>268.60000610352</ele>
        <time>2020-10-16T14:46:30.000Z</time>
      </trkpt>
      <trkpt lat="48.25332" lon="-2.90939">
        <ele>268.60000610352</ele>
        <time>2020-10-16T14:46:31.000Z</time>
      </trkpt>
      <trkpt lat="48.2533" lon="-2.90941">
        <ele>268.79998779297</ele>
        <time>2020-10-16T14:46:32.000Z</time>
      </trkpt>
      <trkpt lat="48.2533" lon="-2.90941">
        <ele>268.79998779297</ele>
        <time>2020-10-16T14:46:33.000Z</time>
      </trkpt>
      <trkpt lat="48.25328" lon="-2.90944">
        <ele>269</ele>
        <time>2020-10-16T14:46:34.000Z</time>
      </trkpt>
      <trkpt lat="48.25328" lon="-2.90944">
        <ele>269</ele>
        <time>2020-10-16T14:46:35.000Z</time>
      </trkpt>
      <trkpt lat="48.25325" lon="-2.90947">
        <ele>269.39999389648</ele>
        <time>2020-10-16T14:46:36.000Z</time>
      </trkpt>
      <trkpt lat="48.25325" lon="-2.90947">
        <ele>269.39999389648</ele>
        <time>2020-10-16T14:46:37.000Z</time>
      </trkpt>
      <trkpt lat="48.25324" lon="-2.90949">
        <ele>269.39999389648</ele>
        <time>2020-10-16T14:46:38.000Z</time>
      </trkpt>
      <trkpt lat="48.25321" lon="-2.90953">
        <ele>269.79998779297</ele>
        <time>2020-10-16T14:46:39.000Z</time>
      </trkpt>
      <trkpt lat="48.25321" lon="-2.90953">
        <ele>269.79998779297</ele>
        <time>2020-10-16T14:46:40.000Z</time>
      </trkpt>
      <trkpt lat="48.25319" lon="-2.90955">
        <ele>270</ele>
        <time>2020-10-16T14:46:41.000Z</time>
      </trkpt>
      <trkpt lat="48.25316" lon="-2.90958">
        <ele>270.39999389648</ele>
        <time>2020-10-16T14:46:42.000Z</time>
      </trkpt>
      <trkpt lat="48.25316" lon="-2.90958">
        <ele>270.39999389648</ele>
        <time>2020-10-16T14:46:43.000Z</time>
      </trkpt>
      <trkpt lat="48.25314" lon="-2.90961">
        <ele>270.60000610352</ele>
        <time>2020-10-16T14:46:44.000Z</time>
      </trkpt>
      <trkpt lat="48.25314" lon="-2.90961">
        <ele>270.60000610352</ele>
        <time>2020-10-16T14:46:45.000Z</time>
      </trkpt>
      <trkpt lat="48.25311" lon="-2.90963">
        <ele>270.79998779297</ele>
        <time>2020-10-16T14:46:46.000Z</time>
      </trkpt>
      <trkpt lat="48.25311" lon="-2.90963">
        <ele>270.79998779297</ele>
        <time>2020-10-16T14:46:47.000Z</time>
      </trkpt>
      <trkpt lat="48.2531" lon="-2.90966">
        <ele>271</ele>
        <time>2020-10-16T14:46:48.000Z</time>
      </trkpt>
      <trkpt lat="48.25307" lon="-2.9097">
        <ele>271.39999389648</ele>
        <time>2020-10-16T14:46:49.000Z</time>
      </trkpt>
      <trkpt lat="48.25307" lon="-2.9097">
        <ele>271.39999389648</ele>
        <time>2020-10-16T14:46:50.000Z</time>
      </trkpt>
      <trkpt lat="48.25306" lon="-2.90971">
        <ele>271.60000610352</ele>
        <time>2020-10-16T14:46:51.000Z</time>
      </trkpt>
      <trkpt lat="48.25302" lon="-2.90975">
        <ele>272</ele>
        <time>2020-10-16T14:46:52.000Z</time>
      </trkpt>
      <trkpt lat="48.25302" lon="-2.90975">
        <ele>272</ele>
        <time>2020-10-16T14:46:53.000Z</time>
      </trkpt>
      <trkpt lat="48.253" lon="-2.90977">
        <ele>272.20001220703</ele>
        <time>2020-10-16T14:46:54.000Z</time>
      </trkpt>
      <trkpt lat="48.25296" lon="-2.90982">
        <ele>272.60000610352</ele>
        <time>2020-10-16T14:46:55.000Z</time>
      </trkpt>
      <trkpt lat="48.25296" lon="-2.90982">
        <ele>272.60000610352</ele>
        <time>2020-10-16T14:46:56.000Z</time>
      </trkpt>
      <trkpt lat="48.25294" lon="-2.90984">
        <ele>272.79998779297</ele>
        <time>2020-10-16T14:46:57.000Z</time>
      </trkpt>
      <trkpt lat="48.2529" lon="-2.90988">
        <ele>273.20001220703</ele>
        <time>2020-10-16T14:46:58.000Z</time>
      </trkpt>
      <trkpt lat="48.2529" lon="-2.90988">
        <ele>273.20001220703</ele>
        <time>2020-10-16T14:46:59.000Z</time>
      </trkpt>
      <trkpt lat="48.25288" lon="-2.9099">
        <ele>273.39999389648</ele>
        <time>2020-10-16T14:47:00.000Z</time>
      </trkpt>
      <trkpt lat="48.25286" lon="-2.90992">
        <ele>273.60000610352</ele>
        <time>2020-10-16T14:47:01.000Z</time>
      </trkpt>
      <trkpt lat="48.25283" lon="-2.90996">
        <ele>274</ele>
        <time>2020-10-16T14:47:02.000Z</time>
      </trkpt>
      <trkpt lat="48.25283" lon="-2.90996">
        <ele>274</ele>
        <time>2020-10-16T14:47:03.000Z</time>
      </trkpt>
      <trkpt lat="48.2528" lon="-2.90998">
        <ele>274.20001220703</ele>
        <time>2020-10-16T14:47:04.000Z</time>
      </trkpt>
      <trkpt lat="48.25278" lon="-2.91">
        <ele>274.60000610352</ele>
        <time>2020-10-16T14:47:05.000Z</time>
      </trkpt>
      <trkpt lat="48.25273" lon="-2.91003">
        <ele>275</ele>
        <time>2020-10-16T14:47:06.000Z</time>
      </trkpt>
      <trkpt lat="48.25273" lon="-2.91003">
        <ele>275</ele>
        <time>2020-10-16T14:47:07.000Z</time>
      </trkpt>
      <trkpt lat="48.25271" lon="-2.91004">
        <ele>275.20001220703</ele>
        <time>2020-10-16T14:47:08.000Z</time>
      </trkpt>
      <trkpt lat="48.25266" lon="-2.91007">
        <ele>275.60000610352</ele>
        <time>2020-10-16T14:47:09.000Z</time>
      </trkpt>
      <trkpt lat="48.25266" lon="-2.91007">
        <ele>275.60000610352</ele>
        <time>2020-10-16T14:47:10.000Z</time>
      </trkpt>
      <trkpt lat="48.25264" lon="-2.91008">
        <ele>275.79998779297</ele>
        <time>2020-10-16T14:47:11.000Z</time>
      </trkpt>
      <trkpt lat="48.25259" lon="-2.9101">
        <ele>276</ele>
        <time>2020-10-16T14:47:12.000Z</time>
      </trkpt>
      <trkpt lat="48.25259" lon="-2.9101">
        <ele>276</ele>
        <time>2020-10-16T14:47:13.000Z</time>
      </trkpt>
      <trkpt lat="48.25255" lon="-2.91012">
        <ele>276.20001220703</ele>
        <time>2020-10-16T14:47:14.000Z</time>
      </trkpt>
      <trkpt lat="48.25255" lon="-2.91012">
        <ele>276.20001220703</ele>
        <time>2020-10-16T14:47:15.000Z</time>
      </trkpt>
      <trkpt lat="48.25252" lon="-2.91013">
        <ele>276.39999389648</ele>
        <time>2020-10-16T14:47:16.000Z</time>
      </trkpt>
      <trkpt lat="48.25247" lon="-2.91014">
        <ele>276.60000610352</ele>
        <time>2020-10-16T14:47:17.000Z</time>
      </trkpt>
      <trkpt lat="48.25247" lon="-2.91014">
        <ele>276.60000610352</ele>
        <time>2020-10-16T14:47:18.000Z</time>
      </trkpt>
      <trkpt lat="48.25245" lon="-2.91014">
        <ele>276.60000610352</ele>
        <time>2020-10-16T14:47:19.000Z</time>
      </trkpt>
      <trkpt lat="48.25241" lon="-2.91015">
        <ele>276.79998779297</ele>
        <time>2020-10-16T14:47:20.000Z</time>
      </trkpt>
      <trkpt lat="48.25241" lon="-2.91015">
        <ele>276.79998779297</ele>
        <time>2020-10-16T14:47:21.000Z</time>
      </trkpt>
      <trkpt lat="48.25236" lon="-2.91015">
        <ele>277</ele>
        <time>2020-10-16T14:47:22.000Z</time>
      </trkpt>
      <trkpt lat="48.25236" lon="-2.91015">
        <ele>277</ele>
        <time>2020-10-16T14:47:23.000Z</time>
      </trkpt>
      <trkpt lat="48.25234" lon="-2.91015">
        <ele>277.20001220703</ele>
        <time>2020-10-16T14:47:24.000Z</time>
      </trkpt>
      <trkpt lat="48.25229" lon="-2.91016">
        <ele>277.39999389648</ele>
        <time>2020-10-16T14:47:25.000Z</time>
      </trkpt>
      <trkpt lat="48.25229" lon="-2.91016">
        <ele>277.39999389648</ele>
        <time>2020-10-16T14:47:26.000Z</time>
      </trkpt>
      <trkpt lat="48.25224" lon="-2.91016">
        <ele>277.60000610352</ele>
        <time>2020-10-16T14:47:27.000Z</time>
      </trkpt>
      <trkpt lat="48.25224" lon="-2.91016">
        <ele>277.60000610352</ele>
        <time>2020-10-16T14:47:28.000Z</time>
      </trkpt>
      <trkpt lat="48.25219" lon="-2.91016">
        <ele>277.79998779297</ele>
        <time>2020-10-16T14:47:29.000Z</time>
      </trkpt>
      <trkpt lat="48.25219" lon="-2.91016">
        <ele>277.79998779297</ele>
        <time>2020-10-16T14:47:30.000Z</time>
      </trkpt>
      <trkpt lat="48.25214" lon="-2.91016">
        <ele>278.20001220703</ele>
        <time>2020-10-16T14:47:31.000Z</time>
      </trkpt>
      <trkpt lat="48.25214" lon="-2.91016">
        <ele>278.20001220703</ele>
        <time>2020-10-16T14:47:32.000Z</time>
      </trkpt>
      <trkpt lat="48.25209" lon="-2.91016">
        <ele>278.39999389648</ele>
        <time>2020-10-16T14:47:33.000Z</time>
      </trkpt>
      <trkpt lat="48.25209" lon="-2.91016">
        <ele>278.39999389648</ele>
        <time>2020-10-16T14:47:34.000Z</time>
      </trkpt>
      <trkpt lat="48.25204" lon="-2.91016">
        <ele>278.60000610352</ele>
        <time>2020-10-16T14:47:35.000Z</time>
      </trkpt>
      <trkpt lat="48.25204" lon="-2.91016">
        <ele>278.60000610352</ele>
        <time>2020-10-16T14:47:36.000Z</time>
      </trkpt>
      <trkpt lat="48.25199" lon="-2.91016">
        <ele>278.79998779297</ele>
        <time>2020-10-16T14:47:37.000Z</time>
      </trkpt>
      <trkpt lat="48.25199" lon="-2.91016">
        <ele>278.79998779297</ele>
        <time>2020-10-16T14:47:38.000Z</time>
      </trkpt>
      <trkpt lat="48.25194" lon="-2.91017">
        <ele>279</ele>
        <time>2020-10-16T14:47:39.000Z</time>
      </trkpt>
      <trkpt lat="48.25194" lon="-2.91017">
        <ele>279</ele>
        <time>2020-10-16T14:47:40.000Z</time>
      </trkpt>
      <trkpt lat="48.25189" lon="-2.91017">
        <ele>279.39999389648</ele>
        <time>2020-10-16T14:47:41.000Z</time>
      </trkpt>
      <trkpt lat="48.25189" lon="-2.91017">
        <ele>279.39999389648</ele>
        <time>2020-10-16T14:47:42.000Z</time>
      </trkpt>
      <trkpt lat="48.25184" lon="-2.91016">
        <ele>279.60000610352</ele>
        <time>2020-10-16T14:47:43.000Z</time>
      </trkpt>
      <trkpt lat="48.25184" lon="-2.91016">
        <ele>279.60000610352</ele>
        <time>2020-10-16T14:47:44.000Z</time>
      </trkpt>
      <trkpt lat="48.25178" lon="-2.91017">
        <ele>279.79998779297</ele>
        <time>2020-10-16T14:47:45.000Z</time>
      </trkpt>
      <trkpt lat="48.25178" lon="-2.91017">
        <ele>279.79998779297</ele>
        <time>2020-10-16T14:47:46.000Z</time>
      </trkpt>
      <trkpt lat="48.25173" lon="-2.91017">
        <ele>279.79998779297</ele>
        <time>2020-10-16T14:47:47.000Z</time>
      </trkpt>
      <trkpt lat="48.25173" lon="-2.91017">
        <ele>279.79998779297</ele>
        <time>2020-10-16T14:47:48.000Z</time>
      </trkpt>
      <trkpt lat="48.25167" lon="-2.91017">
        <ele>280</ele>
        <time>2020-10-16T14:47:49.000Z</time>
      </trkpt>
      <trkpt lat="48.25167" lon="-2.91017">
        <ele>280</ele>
        <time>2020-10-16T14:47:50.000Z</time>
      </trkpt>
      <trkpt lat="48.25162" lon="-2.91017">
        <ele>280</ele>
        <time>2020-10-16T14:47:51.000Z</time>
      </trkpt>
      <trkpt lat="48.25162" lon="-2.91017">
        <ele>280</ele>
        <time>2020-10-16T14:47:52.000Z</time>
      </trkpt>
      <trkpt lat="48.25159" lon="-2.91018">
        <ele>280.20001220703</ele>
        <time>2020-10-16T14:47:53.000Z</time>
      </trkpt>
      <trkpt lat="48.25153" lon="-2.91017">
        <ele>280.20001220703</ele>
        <time>2020-10-16T14:47:54.000Z</time>
      </trkpt>
      <trkpt lat="48.25153" lon="-2.91017">
        <ele>280.20001220703</ele>
        <time>2020-10-16T14:47:55.000Z</time>
      </trkpt>
      <trkpt lat="48.2515" lon="-2.91017">
        <ele>280.39999389648</ele>
        <time>2020-10-16T14:47:56.000Z</time>
      </trkpt>
      <trkpt lat="48.25144" lon="-2.91017">
        <ele>280.39999389648</ele>
        <time>2020-10-16T14:47:57.000Z</time>
      </trkpt>
      <trkpt lat="48.25144" lon="-2.91017">
        <ele>280.39999389648</ele>
        <time>2020-10-16T14:47:58.000Z</time>
      </trkpt>
      <trkpt lat="48.25141" lon="-2.91018">
        <ele>280.60000610352</ele>
        <time>2020-10-16T14:47:59.000Z</time>
      </trkpt>
      <trkpt lat="48.25138" lon="-2.91018">
        <ele>280.60000610352</ele>
        <time>2020-10-16T14:48:00.000Z</time>
      </trkpt>
      <trkpt lat="48.25135" lon="-2.91017">
        <ele>280.60000610352</ele>
        <time>2020-10-16T14:48:01.000Z</time>
      </trkpt>
      <trkpt lat="48.25129" lon="-2.91017">
        <ele>280.79998779297</ele>
        <time>2020-10-16T14:48:02.000Z</time>
      </trkpt>
      <trkpt lat="48.25129" lon="-2.91017">
        <ele>280.79998779297</ele>
        <time>2020-10-16T14:48:03.000Z</time>
      </trkpt>
      <trkpt lat="48.25122" lon="-2.91018">
        <ele>281</ele>
        <time>2020-10-16T14:48:04.000Z</time>
      </trkpt>
      <trkpt lat="48.25122" lon="-2.91018">
        <ele>281</ele>
        <time>2020-10-16T14:48:05.000Z</time>
      </trkpt>
      <trkpt lat="48.25118" lon="-2.91018">
        <ele>281</ele>
        <time>2020-10-16T14:48:06.000Z</time>
      </trkpt>
      <trkpt lat="48.2511" lon="-2.91019">
        <ele>281.20001220703</ele>
        <time>2020-10-16T14:48:07.000Z</time>
      </trkpt>
      <trkpt lat="48.2511" lon="-2.91019">
        <ele>281.20001220703</ele>
        <time>2020-10-16T14:48:08.000Z</time>
      </trkpt>
      <trkpt lat="48.25102" lon="-2.91019">
        <ele>281.39999389648</ele>
        <time>2020-10-16T14:48:09.000Z</time>
      </trkpt>
      <trkpt lat="48.25102" lon="-2.91019">
        <ele>281.39999389648</ele>
        <time>2020-10-16T14:48:10.000Z</time>
      </trkpt>
      <trkpt lat="48.25094" lon="-2.91019">
        <ele>281.60000610352</ele>
        <time>2020-10-16T14:48:11.000Z</time>
      </trkpt>
      <trkpt lat="48.25094" lon="-2.91019">
        <ele>281.60000610352</ele>
        <time>2020-10-16T14:48:12.000Z</time>
      </trkpt>
      <trkpt lat="48.25089" lon="-2.91019">
        <ele>281.39999389648</ele>
        <time>2020-10-16T14:48:13.000Z</time>
      </trkpt>
      <trkpt lat="48.2508" lon="-2.91019">
        <ele>281.20001220703</ele>
        <time>2020-10-16T14:48:14.000Z</time>
      </trkpt>
      <trkpt lat="48.2508" lon="-2.91019">
        <ele>281.20001220703</ele>
        <time>2020-10-16T14:48:15.000Z</time>
      </trkpt>
      <trkpt lat="48.25075" lon="-2.91019">
        <ele>281</ele>
        <time>2020-10-16T14:48:16.000Z</time>
      </trkpt>
      <trkpt lat="48.2507" lon="-2.91019">
        <ele>280.79998779297</ele>
        <time>2020-10-16T14:48:17.000Z</time>
      </trkpt>
      <trkpt lat="48.25059" lon="-2.9102">
        <ele>280.39999389648</ele>
        <time>2020-10-16T14:48:18.000Z</time>
      </trkpt>
      <trkpt lat="48.25059" lon="-2.9102">
        <ele>280.39999389648</ele>
        <time>2020-10-16T14:48:19.000Z</time>
      </trkpt>
      <trkpt lat="48.25053" lon="-2.9102">
        <ele>280.20001220703</ele>
        <time>2020-10-16T14:48:20.000Z</time>
      </trkpt>
      <trkpt lat="48.25042" lon="-2.9102">
        <ele>279.79998779297</ele>
        <time>2020-10-16T14:48:21.000Z</time>
      </trkpt>
      <trkpt lat="48.25042" lon="-2.9102">
        <ele>279.79998779297</ele>
        <time>2020-10-16T14:48:22.000Z</time>
      </trkpt>
      <trkpt lat="48.25036" lon="-2.9102">
        <ele>279.60000610352</ele>
        <time>2020-10-16T14:48:23.000Z</time>
      </trkpt>
      <trkpt lat="48.25024" lon="-2.9102">
        <ele>279</ele>
        <time>2020-10-16T14:48:24.000Z</time>
      </trkpt>
      <trkpt lat="48.25024" lon="-2.9102">
        <ele>279</ele>
        <time>2020-10-16T14:48:25.000Z</time>
      </trkpt>
      <trkpt lat="48.25012" lon="-2.9102">
        <ele>278.60000610352</ele>
        <time>2020-10-16T14:48:26.000Z</time>
      </trkpt>
      <trkpt lat="48.25012" lon="-2.9102">
        <ele>278.60000610352</ele>
        <time>2020-10-16T14:48:27.000Z</time>
      </trkpt>
      <trkpt lat="48.25006" lon="-2.9102">
        <ele>278.60000610352</ele>
        <time>2020-10-16T14:48:28.000Z</time>
      </trkpt>
      <trkpt lat="48.24994" lon="-2.91021">
        <ele>278.60000610352</ele>
        <time>2020-10-16T14:48:29.000Z</time>
      </trkpt>
      <trkpt lat="48.24994" lon="-2.91021">
        <ele>278.60000610352</ele>
        <time>2020-10-16T14:48:30.000Z</time>
      </trkpt>
      <trkpt lat="48.24988" lon="-2.91021">
        <ele>278.39999389648</ele>
        <time>2020-10-16T14:48:31.000Z</time>
      </trkpt>
      <trkpt lat="48.24977" lon="-2.91022">
        <ele>278.20001220703</ele>
        <time>2020-10-16T14:48:32.000Z</time>
      </trkpt>
      <trkpt lat="48.24977" lon="-2.91022">
        <ele>278.20001220703</ele>
        <time>2020-10-16T14:48:33.000Z</time>
      </trkpt>
      <trkpt lat="48.24972" lon="-2.91021">
        <ele>278</ele>
        <time>2020-10-16T14:48:34.000Z</time>
      </trkpt>
      <trkpt lat="48.24961" lon="-2.91021">
        <ele>277.79998779297</ele>
        <time>2020-10-16T14:48:35.000Z</time>
      </trkpt>
      <trkpt lat="48.24955" lon="-2.91022">
        <ele>277.60000610352</ele>
        <time>2020-10-16T14:48:36.000Z</time>
      </trkpt>
      <trkpt lat="48.24955" lon="-2.91022">
        <ele>277.60000610352</ele>
        <time>2020-10-16T14:48:37.000Z</time>
      </trkpt>
      <trkpt lat="48.24949" lon="-2.91022">
        <ele>277.39999389648</ele>
        <time>2020-10-16T14:48:38.000Z</time>
      </trkpt>
      <trkpt lat="48.24938" lon="-2.91022">
        <ele>277.20001220703</ele>
        <time>2020-10-16T14:48:39.000Z</time>
      </trkpt>
      <trkpt lat="48.24938" lon="-2.91022">
        <ele>277.20001220703</ele>
        <time>2020-10-16T14:48:40.000Z</time>
      </trkpt>
      <trkpt lat="48.24932" lon="-2.91022">
        <ele>277</ele>
        <time>2020-10-16T14:48:41.000Z</time>
      </trkpt>
      <trkpt lat="48.24921" lon="-2.91022">
        <ele>276.79998779297</ele>
        <time>2020-10-16T14:48:42.000Z</time>
      </trkpt>
      <trkpt lat="48.24921" lon="-2.91022">
        <ele>276.79998779297</ele>
        <time>2020-10-16T14:48:43.000Z</time>
      </trkpt>
      <trkpt lat="48.24916" lon="-2.91022">
        <ele>276.60000610352</ele>
        <time>2020-10-16T14:48:44.000Z</time>
      </trkpt>
      <trkpt lat="48.24907" lon="-2.91022">
        <ele>276.39999389648</ele>
        <time>2020-10-16T14:48:45.000Z</time>
      </trkpt>
      <trkpt lat="48.24907" lon="-2.91022">
        <ele>276.39999389648</ele>
        <time>2020-10-16T14:48:46.000Z</time>
      </trkpt>
      <trkpt lat="48.24903" lon="-2.91022">
        <ele>276.20001220703</ele>
        <time>2020-10-16T14:48:47.000Z</time>
      </trkpt>
      <trkpt lat="48.24895" lon="-2.91026">
        <ele>276</ele>
        <time>2020-10-16T14:48:48.000Z</time>
      </trkpt>
      <trkpt lat="48.24895" lon="-2.91026">
        <ele>276</ele>
        <time>2020-10-16T14:48:49.000Z</time>
      </trkpt>
      <trkpt lat="48.24892" lon="-2.91031">
        <ele>276</ele>
        <time>2020-10-16T14:48:50.000Z</time>
      </trkpt>
      <trkpt lat="48.24888" lon="-2.91044">
        <ele>276</ele>
        <time>2020-10-16T14:48:51.000Z</time>
      </trkpt>
      <trkpt lat="48.24888" lon="-2.91044">
        <ele>276</ele>
        <time>2020-10-16T14:48:52.000Z</time>
      </trkpt>
      <trkpt lat="48.24888" lon="-2.9105">
        <ele>276</ele>
        <time>2020-10-16T14:48:53.000Z</time>
      </trkpt>
      <trkpt lat="48.24889" lon="-2.91065">
        <ele>276</ele>
        <time>2020-10-16T14:48:54.000Z</time>
      </trkpt>
      <trkpt lat="48.24889" lon="-2.91072">
        <ele>276</ele>
        <time>2020-10-16T14:48:55.000Z</time>
      </trkpt>
      <trkpt lat="48.24889" lon="-2.91072">
        <ele>276</ele>
        <time>2020-10-16T14:48:56.000Z</time>
      </trkpt>
      <trkpt lat="48.2489" lon="-2.91079">
        <ele>276</ele>
        <time>2020-10-16T14:48:57.000Z</time>
      </trkpt>
      <trkpt lat="48.24892" lon="-2.91094">
        <ele>276</ele>
        <time>2020-10-16T14:48:58.000Z</time>
      </trkpt>
      <trkpt lat="48.24892" lon="-2.91094">
        <ele>276</ele>
        <time>2020-10-16T14:48:59.000Z</time>
      </trkpt>
      <trkpt lat="48.24893" lon="-2.91102">
        <ele>275.79998779297</ele>
        <time>2020-10-16T14:49:00.000Z</time>
      </trkpt>
      <trkpt lat="48.24894" lon="-2.9111">
        <ele>275.39999389648</ele>
        <time>2020-10-16T14:49:01.000Z</time>
      </trkpt>
      <trkpt lat="48.24896" lon="-2.91125">
        <ele>275</ele>
        <time>2020-10-16T14:49:02.000Z</time>
      </trkpt>
      <trkpt lat="48.24896" lon="-2.91125">
        <ele>275</ele>
        <time>2020-10-16T14:49:03.000Z</time>
      </trkpt>
      <trkpt lat="48.24899" lon="-2.91139">
        <ele>275.20001220703</ele>
        <time>2020-10-16T14:49:04.000Z</time>
      </trkpt>
      <trkpt lat="48.24899" lon="-2.91139">
        <ele>275.20001220703</ele>
        <time>2020-10-16T14:49:05.000Z</time>
      </trkpt>
      <trkpt lat="48.24901" lon="-2.91153">
        <ele>275.39999389648</ele>
        <time>2020-10-16T14:49:06.000Z</time>
      </trkpt>
      <trkpt lat="48.24901" lon="-2.91153">
        <ele>275.39999389648</ele>
        <time>2020-10-16T14:49:07.000Z</time>
      </trkpt>
      <trkpt lat="48.24902" lon="-2.9116">
        <ele>275.39999389648</ele>
        <time>2020-10-16T14:49:08.000Z</time>
      </trkpt>
      <trkpt lat="48.24905" lon="-2.91171">
        <ele>275.60000610352</ele>
        <time>2020-10-16T14:49:09.000Z</time>
      </trkpt>
      <trkpt lat="48.24905" lon="-2.91171">
        <ele>275.60000610352</ele>
        <time>2020-10-16T14:49:10.000Z</time>
      </trkpt>
      <trkpt lat="48.24907" lon="-2.91183">
        <ele>275.39999389648</ele>
        <time>2020-10-16T14:49:11.000Z</time>
      </trkpt>
      <trkpt lat="48.24907" lon="-2.91183">
        <ele>275.39999389648</ele>
        <time>2020-10-16T14:49:12.000Z</time>
      </trkpt>
      <trkpt lat="48.2491" lon="-2.91198">
        <ele>275</ele>
        <time>2020-10-16T14:49:13.000Z</time>
      </trkpt>
      <trkpt lat="48.2491" lon="-2.91198">
        <ele>275</ele>
        <time>2020-10-16T14:49:14.000Z</time>
      </trkpt>
      <trkpt lat="48.24911" lon="-2.91206">
        <ele>275</ele>
        <time>2020-10-16T14:49:15.000Z</time>
      </trkpt>
      <trkpt lat="48.24913" lon="-2.9122">
        <ele>275</ele>
        <time>2020-10-16T14:49:16.000Z</time>
      </trkpt>
      <trkpt lat="48.24913" lon="-2.9122">
        <ele>275</ele>
        <time>2020-10-16T14:49:17.000Z</time>
      </trkpt>
      <trkpt lat="48.24914" lon="-2.91227">
        <ele>275</ele>
        <time>2020-10-16T14:49:18.000Z</time>
      </trkpt>
      <trkpt lat="48.24917" lon="-2.91242">
        <ele>275.20001220703</ele>
        <time>2020-10-16T14:49:19.000Z</time>
      </trkpt>
      <trkpt lat="48.24917" lon="-2.91242">
        <ele>275.20001220703</ele>
        <time>2020-10-16T14:49:20.000Z</time>
      </trkpt>
      <trkpt lat="48.24918" lon="-2.91249">
        <ele>275.20001220703</ele>
        <time>2020-10-16T14:49:21.000Z</time>
      </trkpt>
      <trkpt lat="48.24921" lon="-2.91266">
        <ele>275.20001220703</ele>
        <time>2020-10-16T14:49:22.000Z</time>
      </trkpt>
      <trkpt lat="48.24921" lon="-2.91266">
        <ele>275.20001220703</ele>
        <time>2020-10-16T14:49:23.000Z</time>
      </trkpt>
      <trkpt lat="48.24923" lon="-2.91274">
        <ele>275</ele>
        <time>2020-10-16T14:49:24.000Z</time>
      </trkpt>
      <trkpt lat="48.24925" lon="-2.91292">
        <ele>274.20001220703</ele>
        <time>2020-10-16T14:49:25.000Z</time>
      </trkpt>
      <trkpt lat="48.24925" lon="-2.91292">
        <ele>274.20001220703</ele>
        <time>2020-10-16T14:49:26.000Z</time>
      </trkpt>
      <trkpt lat="48.24926" lon="-2.91309">
        <ele>273.39999389648</ele>
        <time>2020-10-16T14:49:27.000Z</time>
      </trkpt>
      <trkpt lat="48.24926" lon="-2.91309">
        <ele>273.39999389648</ele>
        <time>2020-10-16T14:49:28.000Z</time>
      </trkpt>
      <trkpt lat="48.24927" lon="-2.91317">
        <ele>273</ele>
        <time>2020-10-16T14:49:29.000Z</time>
      </trkpt>
      <trkpt lat="48.24928" lon="-2.91332">
        <ele>272.39999389648</ele>
        <time>2020-10-16T14:49:30.000Z</time>
      </trkpt>
      <trkpt lat="48.24928" lon="-2.91332">
        <ele>272.39999389648</ele>
        <time>2020-10-16T14:49:31.000Z</time>
      </trkpt>
      <trkpt lat="48.24928" lon="-2.9134">
        <ele>272</ele>
        <time>2020-10-16T14:49:32.000Z</time>
      </trkpt>
      <trkpt lat="48.24928" lon="-2.91356">
        <ele>271.79998779297</ele>
        <time>2020-10-16T14:49:33.000Z</time>
      </trkpt>
      <trkpt lat="48.24928" lon="-2.91356">
        <ele>271.79998779297</ele>
        <time>2020-10-16T14:49:34.000Z</time>
      </trkpt>
      <trkpt lat="48.24928" lon="-2.91363">
        <ele>271.79998779297</ele>
        <time>2020-10-16T14:49:35.000Z</time>
      </trkpt>
      <trkpt lat="48.24927" lon="-2.9138">
        <ele>271.60000610352</ele>
        <time>2020-10-16T14:49:36.000Z</time>
      </trkpt>
      <trkpt lat="48.24927" lon="-2.9138">
        <ele>271.60000610352</ele>
        <time>2020-10-16T14:49:37.000Z</time>
      </trkpt>
      <trkpt lat="48.24927" lon="-2.91389">
        <ele>271.39999389648</ele>
        <time>2020-10-16T14:49:38.000Z</time>
      </trkpt>
      <trkpt lat="48.24926" lon="-2.91407">
        <ele>271.20001220703</ele>
        <time>2020-10-16T14:49:39.000Z</time>
      </trkpt>
      <trkpt lat="48.24926" lon="-2.91407">
        <ele>271.20001220703</ele>
        <time>2020-10-16T14:49:40.000Z</time>
      </trkpt>
      <trkpt lat="48.24925" lon="-2.91415">
        <ele>271.20001220703</ele>
        <time>2020-10-16T14:49:41.000Z</time>
      </trkpt>
      <trkpt lat="48.24923" lon="-2.91429">
        <ele>271</ele>
        <time>2020-10-16T14:49:42.000Z</time>
      </trkpt>
      <trkpt lat="48.24923" lon="-2.91429">
        <ele>271</ele>
        <time>2020-10-16T14:49:43.000Z</time>
      </trkpt>
      <trkpt lat="48.2492" lon="-2.91439">
        <ele>271</ele>
        <time>2020-10-16T14:49:44.000Z</time>
      </trkpt>
      <trkpt lat="48.2492" lon="-2.91439">
        <ele>271</ele>
        <time>2020-10-16T14:49:45.000Z</time>
      </trkpt>
      <trkpt lat="48.24918" lon="-2.91442">
        <ele>271</ele>
        <time>2020-10-16T14:49:46.000Z</time>
      </trkpt>
      <trkpt lat="48.24915" lon="-2.91442">
        <ele>271.20001220703</ele>
        <time>2020-10-16T14:49:47.000Z</time>
      </trkpt>
      <trkpt lat="48.24915" lon="-2.91442">
        <ele>271.20001220703</ele>
        <time>2020-10-16T14:49:48.000Z</time>
      </trkpt>
      <trkpt lat="48.24912" lon="-2.91438">
        <ele>271.20001220703</ele>
        <time>2020-10-16T14:49:49.000Z</time>
      </trkpt>
      <trkpt lat="48.24912" lon="-2.91438">
        <ele>271.20001220703</ele>
        <time>2020-10-16T14:49:50.000Z</time>
      </trkpt>
      <trkpt lat="48.24911" lon="-2.91435">
        <ele>271.20001220703</ele>
        <time>2020-10-16T14:49:51.000Z</time>
      </trkpt>
      <trkpt lat="48.24909" lon="-2.91428">
        <ele>271</ele>
        <time>2020-10-16T14:49:52.000Z</time>
      </trkpt>
      <trkpt lat="48.24909" lon="-2.91428">
        <ele>271</ele>
        <time>2020-10-16T14:49:53.000Z</time>
      </trkpt>
      <trkpt lat="48.24908" lon="-2.91424">
        <ele>271</ele>
        <time>2020-10-16T14:49:54.000Z</time>
      </trkpt>
      <trkpt lat="48.24905" lon="-2.91416">
        <ele>271</ele>
        <time>2020-10-16T14:49:55.000Z</time>
      </trkpt>
      <trkpt lat="48.24905" lon="-2.91416">
        <ele>271</ele>
        <time>2020-10-16T14:49:56.000Z</time>
      </trkpt>
      <trkpt lat="48.24902" lon="-2.91407">
        <ele>271.20001220703</ele>
        <time>2020-10-16T14:49:57.000Z</time>
      </trkpt>
      <trkpt lat="48.24902" lon="-2.91407">
        <ele>271.20001220703</ele>
        <time>2020-10-16T14:49:58.000Z</time>
      </trkpt>
      <trkpt lat="48.249" lon="-2.91398">
        <ele>271.39999389648</ele>
        <time>2020-10-16T14:49:59.000Z</time>
      </trkpt>
      <trkpt lat="48.24898" lon="-2.91393">
        <ele>271.39999389648</ele>
        <time>2020-10-16T14:50:00.000Z</time>
      </trkpt>
      <trkpt lat="48.24897" lon="-2.91388">
        <ele>271.39999389648</ele>
        <time>2020-10-16T14:50:01.000Z</time>
      </trkpt>
      <trkpt lat="48.24897" lon="-2.91388">
        <ele>271.39999389648</ele>
        <time>2020-10-16T14:50:02.000Z</time>
      </trkpt>
      <trkpt lat="48.24894" lon="-2.91378">
        <ele>271.60000610352</ele>
        <time>2020-10-16T14:50:03.000Z</time>
      </trkpt>
      <trkpt lat="48.24894" lon="-2.91378">
        <ele>271.60000610352</ele>
        <time>2020-10-16T14:50:04.000Z</time>
      </trkpt>
      <trkpt lat="48.2489" lon="-2.91366">
        <ele>271.20001220703</ele>
        <time>2020-10-16T14:50:05.000Z</time>
      </trkpt>
      <trkpt lat="48.2489" lon="-2.91366">
        <ele>271.20001220703</ele>
        <time>2020-10-16T14:50:06.000Z</time>
      </trkpt>
      <trkpt lat="48.24887" lon="-2.91354">
        <ele>270.79998779297</ele>
        <time>2020-10-16T14:50:07.000Z</time>
      </trkpt>
      <trkpt lat="48.24887" lon="-2.91354">
        <ele>270.79998779297</ele>
        <time>2020-10-16T14:50:08.000Z</time>
      </trkpt>
      <trkpt lat="48.24882" lon="-2.91341">
        <ele>270.39999389648</ele>
        <time>2020-10-16T14:50:09.000Z</time>
      </trkpt>
      <trkpt lat="48.24882" lon="-2.91341">
        <ele>270.39999389648</ele>
        <time>2020-10-16T14:50:10.000Z</time>
      </trkpt>
      <trkpt lat="48.24876" lon="-2.91328">
        <ele>270.60000610352</ele>
        <time>2020-10-16T14:50:11.000Z</time>
      </trkpt>
      <trkpt lat="48.24876" lon="-2.91328">
        <ele>270.60000610352</ele>
        <time>2020-10-16T14:50:12.000Z</time>
      </trkpt>
      <trkpt lat="48.24868" lon="-2.91316">
        <ele>270.79998779297</ele>
        <time>2020-10-16T14:50:13.000Z</time>
      </trkpt>
      <trkpt lat="48.24864" lon="-2.9131">
        <ele>270.39999389648</ele>
        <time>2020-10-16T14:50:14.000Z</time>
      </trkpt>
      <trkpt lat="48.24864" lon="-2.9131">
        <ele>270.39999389648</ele>
        <time>2020-10-16T14:50:15.000Z</time>
      </trkpt>
      <trkpt lat="48.24854" lon="-2.91297">
        <ele>269.79998779297</ele>
        <time>2020-10-16T14:50:16.000Z</time>
      </trkpt>
      <trkpt lat="48.24854" lon="-2.91297">
        <ele>269.79998779297</ele>
        <time>2020-10-16T14:50:17.000Z</time>
      </trkpt>
      <trkpt lat="48.24844" lon="-2.91283">
        <ele>268.79998779297</ele>
        <time>2020-10-16T14:50:18.000Z</time>
      </trkpt>
      <trkpt lat="48.24844" lon="-2.91283">
        <ele>268.79998779297</ele>
        <time>2020-10-16T14:50:19.000Z</time>
      </trkpt>
      <trkpt lat="48.24833" lon="-2.91269">
        <ele>268</ele>
        <time>2020-10-16T14:50:20.000Z</time>
      </trkpt>
      <trkpt lat="48.24833" lon="-2.91269">
        <ele>268</ele>
        <time>2020-10-16T14:50:21.000Z</time>
      </trkpt>
      <trkpt lat="48.24822" lon="-2.91255">
        <ele>268</ele>
        <time>2020-10-16T14:50:22.000Z</time>
      </trkpt>
      <trkpt lat="48.24822" lon="-2.91255">
        <ele>268</ele>
        <time>2020-10-16T14:50:23.000Z</time>
      </trkpt>
      <trkpt lat="48.24811" lon="-2.9124">
        <ele>268</ele>
        <time>2020-10-16T14:50:24.000Z</time>
      </trkpt>
      <trkpt lat="48.24811" lon="-2.9124">
        <ele>268</ele>
        <time>2020-10-16T14:50:25.000Z</time>
      </trkpt>
      <trkpt lat="48.248" lon="-2.91226">
        <ele>267.79998779297</ele>
        <time>2020-10-16T14:50:26.000Z</time>
      </trkpt>
      <trkpt lat="48.248" lon="-2.91226">
        <ele>267.79998779297</ele>
        <time>2020-10-16T14:50:27.000Z</time>
      </trkpt>
      <trkpt lat="48.24789" lon="-2.91212">
        <ele>268</ele>
        <time>2020-10-16T14:50:28.000Z</time>
      </trkpt>
      <trkpt lat="48.24789" lon="-2.91212">
        <ele>268</ele>
        <time>2020-10-16T14:50:29.000Z</time>
      </trkpt>
      <trkpt lat="48.24783" lon="-2.91205">
        <ele>268.20001220703</ele>
        <time>2020-10-16T14:50:30.000Z</time>
      </trkpt>
      <trkpt lat="48.24778" lon="-2.91197">
        <ele>268.39999389648</ele>
        <time>2020-10-16T14:50:31.000Z</time>
      </trkpt>
      <trkpt lat="48.24768" lon="-2.91184">
        <ele>268.60000610352</ele>
        <time>2020-10-16T14:50:32.000Z</time>
      </trkpt>
      <trkpt lat="48.24768" lon="-2.91184">
        <ele>268.60000610352</ele>
        <time>2020-10-16T14:50:33.000Z</time>
      </trkpt>
      <trkpt lat="48.24762" lon="-2.91177">
        <ele>268.79998779297</ele>
        <time>2020-10-16T14:50:34.000Z</time>
      </trkpt>
      <trkpt lat="48.24757" lon="-2.9117">
        <ele>269</ele>
        <time>2020-10-16T14:50:35.000Z</time>
      </trkpt>
      <trkpt lat="48.24746" lon="-2.91156">
        <ele>269</ele>
        <time>2020-10-16T14:50:36.000Z</time>
      </trkpt>
      <trkpt lat="48.24746" lon="-2.91156">
        <ele>269</ele>
        <time>2020-10-16T14:50:37.000Z</time>
      </trkpt>
      <trkpt lat="48.24735" lon="-2.91142">
        <ele>269</ele>
        <time>2020-10-16T14:50:38.000Z</time>
      </trkpt>
      <trkpt lat="48.24735" lon="-2.91142">
        <ele>269</ele>
        <time>2020-10-16T14:50:39.000Z</time>
      </trkpt>
      <trkpt lat="48.24723" lon="-2.91132">
        <ele>269</ele>
        <time>2020-10-16T14:50:40.000Z</time>
      </trkpt>
      <trkpt lat="48.24723" lon="-2.91132">
        <ele>269</ele>
        <time>2020-10-16T14:50:41.000Z</time>
      </trkpt>
      <trkpt lat="48.2471" lon="-2.91126">
        <ele>269.60000610352</ele>
        <time>2020-10-16T14:50:42.000Z</time>
      </trkpt>
      <trkpt lat="48.2471" lon="-2.91126">
        <ele>269.60000610352</ele>
        <time>2020-10-16T14:50:43.000Z</time>
      </trkpt>
      <trkpt lat="48.24697" lon="-2.91125">
        <ele>270</ele>
        <time>2020-10-16T14:50:44.000Z</time>
      </trkpt>
      <trkpt lat="48.24697" lon="-2.91125">
        <ele>270</ele>
        <time>2020-10-16T14:50:45.000Z</time>
      </trkpt>
      <trkpt lat="48.24684" lon="-2.91125">
        <ele>270.39999389648</ele>
        <time>2020-10-16T14:50:46.000Z</time>
      </trkpt>
      <trkpt lat="48.24684" lon="-2.91125">
        <ele>270.39999389648</ele>
        <time>2020-10-16T14:50:47.000Z</time>
      </trkpt>
      <trkpt lat="48.24673" lon="-2.91126">
        <ele>270.60000610352</ele>
        <time>2020-10-16T14:50:48.000Z</time>
      </trkpt>
      <trkpt lat="48.24673" lon="-2.91126">
        <ele>270.60000610352</ele>
        <time>2020-10-16T14:50:49.000Z</time>
      </trkpt>
      <trkpt lat="48.24663" lon="-2.91127">
        <ele>270.79998779297</ele>
        <time>2020-10-16T14:50:50.000Z</time>
      </trkpt>
      <trkpt lat="48.24663" lon="-2.91127">
        <ele>270.79998779297</ele>
        <time>2020-10-16T14:50:51.000Z</time>
      </trkpt>
      <trkpt lat="48.24654" lon="-2.91128">
        <ele>271.20001220703</ele>
        <time>2020-10-16T14:50:52.000Z</time>
      </trkpt>
      <trkpt lat="48.24654" lon="-2.91128">
        <ele>271.20001220703</ele>
        <time>2020-10-16T14:50:53.000Z</time>
      </trkpt>
      <trkpt lat="48.24646" lon="-2.91129">
        <ele>271.39999389648</ele>
        <time>2020-10-16T14:50:54.000Z</time>
      </trkpt>
      <trkpt lat="48.24646" lon="-2.91129">
        <ele>271.39999389648</ele>
        <time>2020-10-16T14:50:55.000Z</time>
      </trkpt>
      <trkpt lat="48.24638" lon="-2.91131">
        <ele>271.60000610352</ele>
        <time>2020-10-16T14:50:56.000Z</time>
      </trkpt>
      <trkpt lat="48.24638" lon="-2.91131">
        <ele>271.60000610352</ele>
        <time>2020-10-16T14:50:57.000Z</time>
      </trkpt>
      <trkpt lat="48.24631" lon="-2.91131">
        <ele>272</ele>
        <time>2020-10-16T14:50:58.000Z</time>
      </trkpt>
      <trkpt lat="48.24631" lon="-2.91131">
        <ele>272</ele>
        <time>2020-10-16T14:50:59.000Z</time>
      </trkpt>
      <trkpt lat="48.24627" lon="-2.91131">
        <ele>272</ele>
        <time>2020-10-16T14:51:00.000Z</time>
      </trkpt>
      <trkpt lat="48.24624" lon="-2.91132">
        <ele>272.20001220703</ele>
        <time>2020-10-16T14:51:01.000Z</time>
      </trkpt>
      <trkpt lat="48.24617" lon="-2.91133">
        <ele>272.39999389648</ele>
        <time>2020-10-16T14:51:02.000Z</time>
      </trkpt>
      <trkpt lat="48.24617" lon="-2.91133">
        <ele>272.39999389648</ele>
        <time>2020-10-16T14:51:03.000Z</time>
      </trkpt>
      <trkpt lat="48.24613" lon="-2.91133">
        <ele>272.60000610352</ele>
        <time>2020-10-16T14:51:04.000Z</time>
      </trkpt>
      <trkpt lat="48.2461" lon="-2.91133">
        <ele>272.60000610352</ele>
        <time>2020-10-16T14:51:05.000Z</time>
      </trkpt>
      <trkpt lat="48.24603" lon="-2.91135">
        <ele>273</ele>
        <time>2020-10-16T14:51:06.000Z</time>
      </trkpt>
      <trkpt lat="48.24603" lon="-2.91135">
        <ele>273</ele>
        <time>2020-10-16T14:51:07.000Z</time>
      </trkpt>
      <trkpt lat="48.24599" lon="-2.91136">
        <ele>273</ele>
        <time>2020-10-16T14:51:08.000Z</time>
      </trkpt>
      <trkpt lat="48.24594" lon="-2.91137">
        <ele>273.20001220703</ele>
        <time>2020-10-16T14:51:09.000Z</time>
      </trkpt>
      <trkpt lat="48.24586" lon="-2.91138">
        <ele>273.39999389648</ele>
        <time>2020-10-16T14:51:10.000Z</time>
      </trkpt>
      <trkpt lat="48.24586" lon="-2.91138">
        <ele>273.39999389648</ele>
        <time>2020-10-16T14:51:11.000Z</time>
      </trkpt>
      <trkpt lat="48.24577" lon="-2.91139">
        <ele>273.60000610352</ele>
        <time>2020-10-16T14:51:12.000Z</time>
      </trkpt>
      <trkpt lat="48.24573" lon="-2.9114">
        <ele>273.60000610352</ele>
        <time>2020-10-16T14:51:13.000Z</time>
      </trkpt>
      <trkpt lat="48.24573" lon="-2.9114">
        <ele>273.60000610352</ele>
        <time>2020-10-16T14:51:14.000Z</time>
      </trkpt>
      <trkpt lat="48.24564" lon="-2.91141">
        <ele>273.79998779297</ele>
        <time>2020-10-16T14:51:15.000Z</time>
      </trkpt>
      <trkpt lat="48.24564" lon="-2.91141">
        <ele>273.79998779297</ele>
        <time>2020-10-16T14:51:16.000Z</time>
      </trkpt>
      <trkpt lat="48.24556" lon="-2.91143">
        <ele>274</ele>
        <time>2020-10-16T14:51:17.000Z</time>
      </trkpt>
      <trkpt lat="48.24556" lon="-2.91143">
        <ele>274</ele>
        <time>2020-10-16T14:51:18.000Z</time>
      </trkpt>
      <trkpt lat="48.24549" lon="-2.91144">
        <ele>274.20001220703</ele>
        <time>2020-10-16T14:51:19.000Z</time>
      </trkpt>
      <trkpt lat="48.24549" lon="-2.91144">
        <ele>274.20001220703</ele>
        <time>2020-10-16T14:51:20.000Z</time>
      </trkpt>
      <trkpt lat="48.24542" lon="-2.91145">
        <ele>274.39999389648</ele>
        <time>2020-10-16T14:51:21.000Z</time>
      </trkpt>
      <trkpt lat="48.24542" lon="-2.91145">
        <ele>274.39999389648</ele>
        <time>2020-10-16T14:51:22.000Z</time>
      </trkpt>
      <trkpt lat="48.24535" lon="-2.91147">
        <ele>274.39999389648</ele>
        <time>2020-10-16T14:51:23.000Z</time>
      </trkpt>
      <trkpt lat="48.24535" lon="-2.91147">
        <ele>274.39999389648</ele>
        <time>2020-10-16T14:51:24.000Z</time>
      </trkpt>
      <trkpt lat="48.24527" lon="-2.9115">
        <ele>274.39999389648</ele>
        <time>2020-10-16T14:51:25.000Z</time>
      </trkpt>
      <trkpt lat="48.24527" lon="-2.9115">
        <ele>274.39999389648</ele>
        <time>2020-10-16T14:51:26.000Z</time>
      </trkpt>
      <trkpt lat="48.24519" lon="-2.91152">
        <ele>274.39999389648</ele>
        <time>2020-10-16T14:51:27.000Z</time>
      </trkpt>
      <trkpt lat="48.24519" lon="-2.91152">
        <ele>274.39999389648</ele>
        <time>2020-10-16T14:51:28.000Z</time>
      </trkpt>
      <trkpt lat="48.24512" lon="-2.91154">
        <ele>274.39999389648</ele>
        <time>2020-10-16T14:51:29.000Z</time>
      </trkpt>
      <trkpt lat="48.24512" lon="-2.91154">
        <ele>274.39999389648</ele>
        <time>2020-10-16T14:51:30.000Z</time>
      </trkpt>
      <trkpt lat="48.24504" lon="-2.91158">
        <ele>274.39999389648</ele>
        <time>2020-10-16T14:51:31.000Z</time>
      </trkpt>
      <trkpt lat="48.24504" lon="-2.91158">
        <ele>274.39999389648</ele>
        <time>2020-10-16T14:51:32.000Z</time>
      </trkpt>
      <trkpt lat="48.24496" lon="-2.91161">
        <ele>274.20001220703</ele>
        <time>2020-10-16T14:51:33.000Z</time>
      </trkpt>
      <trkpt lat="48.24496" lon="-2.91161">
        <ele>274.20001220703</ele>
        <time>2020-10-16T14:51:34.000Z</time>
      </trkpt>
      <trkpt lat="48.24488" lon="-2.91165">
        <ele>274.20001220703</ele>
        <time>2020-10-16T14:51:35.000Z</time>
      </trkpt>
      <trkpt lat="48.24488" lon="-2.91165">
        <ele>274.20001220703</ele>
        <time>2020-10-16T14:51:36.000Z</time>
      </trkpt>
      <trkpt lat="48.2448" lon="-2.91169">
        <ele>274.20001220703</ele>
        <time>2020-10-16T14:51:37.000Z</time>
      </trkpt>
      <trkpt lat="48.2448" lon="-2.91169">
        <ele>274.20001220703</ele>
        <time>2020-10-16T14:51:38.000Z</time>
      </trkpt>
      <trkpt lat="48.24471" lon="-2.91172">
        <ele>274</ele>
        <time>2020-10-16T14:51:39.000Z</time>
      </trkpt>
      <trkpt lat="48.24471" lon="-2.91172">
        <ele>274</ele>
        <time>2020-10-16T14:51:40.000Z</time>
      </trkpt>
      <trkpt lat="48.24462" lon="-2.91175">
        <ele>274</ele>
        <time>2020-10-16T14:51:41.000Z</time>
      </trkpt>
      <trkpt lat="48.24462" lon="-2.91175">
        <ele>274</ele>
        <time>2020-10-16T14:51:42.000Z</time>
      </trkpt>
      <trkpt lat="48.24453" lon="-2.91178">
        <ele>274</ele>
        <time>2020-10-16T14:51:43.000Z</time>
      </trkpt>
      <trkpt lat="48.24453" lon="-2.91178">
        <ele>274</ele>
        <time>2020-10-16T14:51:44.000Z</time>
      </trkpt>
      <trkpt lat="48.24443" lon="-2.91182">
        <ele>274</ele>
        <time>2020-10-16T14:51:45.000Z</time>
      </trkpt>
      <trkpt lat="48.24443" lon="-2.91182">
        <ele>274</ele>
        <time>2020-10-16T14:51:46.000Z</time>
      </trkpt>
      <trkpt lat="48.24433" lon="-2.91185">
        <ele>274</ele>
        <time>2020-10-16T14:51:47.000Z</time>
      </trkpt>
      <trkpt lat="48.24433" lon="-2.91185">
        <ele>274</ele>
        <time>2020-10-16T14:51:48.000Z</time>
      </trkpt>
      <trkpt lat="48.24423" lon="-2.91189">
        <ele>274</ele>
        <time>2020-10-16T14:51:49.000Z</time>
      </trkpt>
      <trkpt lat="48.24423" lon="-2.91189">
        <ele>274</ele>
        <time>2020-10-16T14:51:50.000Z</time>
      </trkpt>
      <trkpt lat="48.24413" lon="-2.91193">
        <ele>274.20001220703</ele>
        <time>2020-10-16T14:51:51.000Z</time>
      </trkpt>
      <trkpt lat="48.24413" lon="-2.91193">
        <ele>274.20001220703</ele>
        <time>2020-10-16T14:51:52.000Z</time>
      </trkpt>
      <trkpt lat="48.24404" lon="-2.91198">
        <ele>274.39999389648</ele>
        <time>2020-10-16T14:51:53.000Z</time>
      </trkpt>
      <trkpt lat="48.24404" lon="-2.91198">
        <ele>274.39999389648</ele>
        <time>2020-10-16T14:51:54.000Z</time>
      </trkpt>
      <trkpt lat="48.24394" lon="-2.91202">
        <ele>274.39999389648</ele>
        <time>2020-10-16T14:51:55.000Z</time>
      </trkpt>
      <trkpt lat="48.24394" lon="-2.91202">
        <ele>274.39999389648</ele>
        <time>2020-10-16T14:51:56.000Z</time>
      </trkpt>
      <trkpt lat="48.24384" lon="-2.91206">
        <ele>274.60000610352</ele>
        <time>2020-10-16T14:51:57.000Z</time>
      </trkpt>
      <trkpt lat="48.24384" lon="-2.91206">
        <ele>274.60000610352</ele>
        <time>2020-10-16T14:51:58.000Z</time>
      </trkpt>
      <trkpt lat="48.24374" lon="-2.91209">
        <ele>274.60000610352</ele>
        <time>2020-10-16T14:51:59.000Z</time>
      </trkpt>
      <trkpt lat="48.24374" lon="-2.91209">
        <ele>274.60000610352</ele>
        <time>2020-10-16T14:52:00.000Z</time>
      </trkpt>
      <trkpt lat="48.24365" lon="-2.91213">
        <ele>274.60000610352</ele>
        <time>2020-10-16T14:52:01.000Z</time>
      </trkpt>
      <trkpt lat="48.24365" lon="-2.91213">
        <ele>274.60000610352</ele>
        <time>2020-10-16T14:52:02.000Z</time>
      </trkpt>
      <trkpt lat="48.24355" lon="-2.91217">
        <ele>274.79998779297</ele>
        <time>2020-10-16T14:52:03.000Z</time>
      </trkpt>
      <trkpt lat="48.24355" lon="-2.91217">
        <ele>274.79998779297</ele>
        <time>2020-10-16T14:52:04.000Z</time>
      </trkpt>
      <trkpt lat="48.24346" lon="-2.91221">
        <ele>274.60000610352</ele>
        <time>2020-10-16T14:52:05.000Z</time>
      </trkpt>
      <trkpt lat="48.24346" lon="-2.91221">
        <ele>274.60000610352</ele>
        <time>2020-10-16T14:52:06.000Z</time>
      </trkpt>
      <trkpt lat="48.24337" lon="-2.91225">
        <ele>275.39999389648</ele>
        <time>2020-10-16T14:52:07.000Z</time>
      </trkpt>
      <trkpt lat="48.24337" lon="-2.91225">
        <ele>275.39999389648</ele>
        <time>2020-10-16T14:52:08.000Z</time>
      </trkpt>
      <trkpt lat="48.24327" lon="-2.91228">
        <ele>276</ele>
        <time>2020-10-16T14:52:09.000Z</time>
      </trkpt>
      <trkpt lat="48.24327" lon="-2.91228">
        <ele>276</ele>
        <time>2020-10-16T14:52:10.000Z</time>
      </trkpt>
      <trkpt lat="48.24318" lon="-2.91231">
        <ele>276.60000610352</ele>
        <time>2020-10-16T14:52:11.000Z</time>
      </trkpt>
      <trkpt lat="48.24313" lon="-2.91233">
        <ele>276.79998779297</ele>
        <time>2020-10-16T14:52:12.000Z</time>
      </trkpt>
      <trkpt lat="48.24313" lon="-2.91233">
        <ele>276.79998779297</ele>
        <time>2020-10-16T14:52:13.000Z</time>
      </trkpt>
      <trkpt lat="48.24309" lon="-2.91236">
        <ele>277</ele>
        <time>2020-10-16T14:52:14.000Z</time>
      </trkpt>
      <trkpt lat="48.24301" lon="-2.91239">
        <ele>277.60000610352</ele>
        <time>2020-10-16T14:52:15.000Z</time>
      </trkpt>
      <trkpt lat="48.24301" lon="-2.91239">
        <ele>277.60000610352</ele>
        <time>2020-10-16T14:52:16.000Z</time>
      </trkpt>
      <trkpt lat="48.24293" lon="-2.91242">
        <ele>278.20001220703</ele>
        <time>2020-10-16T14:52:17.000Z</time>
      </trkpt>
      <trkpt lat="48.24293" lon="-2.91242">
        <ele>278.20001220703</ele>
        <time>2020-10-16T14:52:18.000Z</time>
      </trkpt>
      <trkpt lat="48.24289" lon="-2.91244">
        <ele>278.39999389648</ele>
        <time>2020-10-16T14:52:19.000Z</time>
      </trkpt>
      <trkpt lat="48.24281" lon="-2.91249">
        <ele>278.79998779297</ele>
        <time>2020-10-16T14:52:20.000Z</time>
      </trkpt>
      <trkpt lat="48.24281" lon="-2.91249">
        <ele>278.79998779297</ele>
        <time>2020-10-16T14:52:21.000Z</time>
      </trkpt>
      <trkpt lat="48.24276" lon="-2.91251">
        <ele>279.20001220703</ele>
        <time>2020-10-16T14:52:22.000Z</time>
      </trkpt>
      <trkpt lat="48.24267" lon="-2.91256">
        <ele>279.60000610352</ele>
        <time>2020-10-16T14:52:23.000Z</time>
      </trkpt>
      <trkpt lat="48.24267" lon="-2.91256">
        <ele>279.60000610352</ele>
        <time>2020-10-16T14:52:24.000Z</time>
      </trkpt>
      <trkpt lat="48.24263" lon="-2.91259">
        <ele>279.79998779297</ele>
        <time>2020-10-16T14:52:25.000Z</time>
      </trkpt>
      <trkpt lat="48.24255" lon="-2.91263">
        <ele>279.79998779297</ele>
        <time>2020-10-16T14:52:26.000Z</time>
      </trkpt>
      <trkpt lat="48.24255" lon="-2.91263">
        <ele>279.79998779297</ele>
        <time>2020-10-16T14:52:27.000Z</time>
      </trkpt>
      <trkpt lat="48.24252" lon="-2.91265">
        <ele>279.79998779297</ele>
        <time>2020-10-16T14:52:28.000Z</time>
      </trkpt>
      <trkpt lat="48.24247" lon="-2.91269">
        <ele>279.60000610352</ele>
        <time>2020-10-16T14:52:29.000Z</time>
      </trkpt>
      <trkpt lat="48.24247" lon="-2.91269">
        <ele>279.60000610352</ele>
        <time>2020-10-16T14:52:30.000Z</time>
      </trkpt>
      <trkpt lat="48.24246" lon="-2.91271">
        <ele>279.39999389648</ele>
        <time>2020-10-16T14:52:31.000Z</time>
      </trkpt>
      <trkpt lat="48.24242" lon="-2.91275">
        <ele>279.20001220703</ele>
        <time>2020-10-16T14:52:32.000Z</time>
      </trkpt>
      <trkpt lat="48.24242" lon="-2.91275">
        <ele>279.20001220703</ele>
        <time>2020-10-16T14:52:33.000Z</time>
      </trkpt>
      <trkpt lat="48.24238" lon="-2.91279">
        <ele>279</ele>
        <time>2020-10-16T14:52:34.000Z</time>
      </trkpt>
      <trkpt lat="48.24238" lon="-2.91279">
        <ele>279</ele>
        <time>2020-10-16T14:52:35.000Z</time>
      </trkpt>
      <trkpt lat="48.24235" lon="-2.91284">
        <ele>278.79998779297</ele>
        <time>2020-10-16T14:52:36.000Z</time>
      </trkpt>
      <trkpt lat="48.24235" lon="-2.91284">
        <ele>278.79998779297</ele>
        <time>2020-10-16T14:52:37.000Z</time>
      </trkpt>
      <trkpt lat="48.24233" lon="-2.91287">
        <ele>278.60000610352</ele>
        <time>2020-10-16T14:52:38.000Z</time>
      </trkpt>
      <trkpt lat="48.24231" lon="-2.9129">
        <ele>278.39999389648</ele>
        <time>2020-10-16T14:52:39.000Z</time>
      </trkpt>
      <trkpt lat="48.24231" lon="-2.9129">
        <ele>278.39999389648</ele>
        <time>2020-10-16T14:52:40.000Z</time>
      </trkpt>
      <trkpt lat="48.24231" lon="-2.9129">
        <ele>278.20001220703</ele>
        <time>2020-10-16T14:52:41.000Z</time>
      </trkpt>
      <trkpt lat="48.24231" lon="-2.9129">
        <ele>278.20001220703</ele>
        <time>2020-10-16T14:52:42.000Z</time>
      </trkpt>
      <trkpt lat="48.24231" lon="-2.9129">
        <ele>278.39999389648</ele>
        <time>2020-10-16T14:52:43.000Z</time>
      </trkpt>
      <trkpt lat="48.24231" lon="-2.9129">
        <ele>278.39999389648</ele>
        <time>2020-10-16T14:52:44.000Z</time>
      </trkpt>
      <trkpt lat="48.24231" lon="-2.9129">
        <ele>278.39999389648</ele>
        <time>2020-10-16T14:52:45.000Z</time>
      </trkpt>
      <trkpt lat="48.24231" lon="-2.9129">
        <ele>278.39999389648</ele>
        <time>2020-10-16T14:52:46.000Z</time>
      </trkpt>
      <trkpt lat="48.24231" lon="-2.9129">
        <ele>278.39999389648</ele>
        <time>2020-10-16T14:52:47.000Z</time>
      </trkpt>
      <trkpt lat="48.24231" lon="-2.9129">
        <ele>278.39999389648</ele>
        <time>2020-10-16T14:52:48.000Z</time>
      </trkpt>
      <trkpt lat="48.24231" lon="-2.9129">
        <ele>278.39999389648</ele>
        <time>2020-10-16T14:52:49.000Z</time>
      </trkpt>
      <trkpt lat="48.24231" lon="-2.9129">
        <ele>278.39999389648</ele>
        <time>2020-10-16T14:52:50.000Z</time>
      </trkpt>
      <trkpt lat="48.24231" lon="-2.9129">
        <ele>278.39999389648</ele>
        <time>2020-10-16T14:52:51.000Z</time>
      </trkpt>
      <trkpt lat="48.24231" lon="-2.9129">
        <ele>278.39999389648</ele>
        <time>2020-10-16T14:52:52.000Z</time>
      </trkpt>
      <trkpt lat="48.24231" lon="-2.9129">
        <ele>278.39999389648</ele>
        <time>2020-10-16T14:52:53.000Z</time>
      </trkpt>
      <trkpt lat="48.24231" lon="-2.9129">
        <ele>278.39999389648</ele>
        <time>2020-10-16T14:52:54.000Z</time>
      </trkpt>
      <trkpt lat="48.24231" lon="-2.9129">
        <ele>278.39999389648</ele>
        <time>2020-10-16T14:52:55.000Z</time>
      </trkpt>
      <trkpt lat="48.24231" lon="-2.9129">
        <ele>278.39999389648</ele>
        <time>2020-10-16T14:52:56.000Z</time>
      </trkpt>
      <trkpt lat="48.24231" lon="-2.9129">
        <ele>278.39999389648</ele>
        <time>2020-10-16T14:52:57.000Z</time>
      </trkpt>
      <trkpt lat="48.24231" lon="-2.9129">
        <ele>278.39999389648</ele>
        <time>2020-10-16T14:52:58.000Z</time>
      </trkpt>
      <trkpt lat="48.24231" lon="-2.9129">
        <ele>278.39999389648</ele>
        <time>2020-10-16T14:52:59.000Z</time>
      </trkpt>
      <trkpt lat="48.24231" lon="-2.9129">
        <ele>278.39999389648</ele>
        <time>2020-10-16T14:53:00.000Z</time>
      </trkpt>
      <trkpt lat="48.24231" lon="-2.9129">
        <ele>278.39999389648</ele>
        <time>2020-10-16T14:53:01.000Z</time>
      </trkpt>
      <trkpt lat="48.24231" lon="-2.9129">
        <ele>278.39999389648</ele>
        <time>2020-10-16T14:53:02.000Z</time>
      </trkpt>
      <trkpt lat="48.24231" lon="-2.9129">
        <ele>278.39999389648</ele>
        <time>2020-10-16T14:53:03.000Z</time>
      </trkpt>
      <trkpt lat="48.24231" lon="-2.9129">
        <ele>278.39999389648</ele>
        <time>2020-10-16T14:53:04.000Z</time>
      </trkpt>
      <trkpt lat="48.24231" lon="-2.9129">
        <ele>278.39999389648</ele>
        <time>2020-10-16T14:53:05.000Z</time>
      </trkpt>
      <trkpt lat="48.24231" lon="-2.9129">
        <ele>278.39999389648</ele>
        <time>2020-10-16T14:53:06.000Z</time>
      </trkpt>
      <trkpt lat="48.24231" lon="-2.9129">
        <ele>278.39999389648</ele>
        <time>2020-10-16T14:53:07.000Z</time>
      </trkpt>
      <trkpt lat="48.24231" lon="-2.9129">
        <ele>278.39999389648</ele>
        <time>2020-10-16T14:53:08.000Z</time>
      </trkpt>
      <trkpt lat="48.24231" lon="-2.9129">
        <ele>278.39999389648</ele>
        <time>2020-10-16T14:53:09.000Z</time>
      </trkpt>
      <trkpt lat="48.24231" lon="-2.9129">
        <ele>278.39999389648</ele>
        <time>2020-10-16T14:53:10.000Z</time>
      </trkpt>
      <trkpt lat="48.24231" lon="-2.9129">
        <ele>278.39999389648</ele>
        <time>2020-10-16T14:53:11.000Z</time>
      </trkpt>
      <trkpt lat="48.24231" lon="-2.9129">
        <ele>278.39999389648</ele>
        <time>2020-10-16T14:53:12.000Z</time>
      </trkpt>
      <trkpt lat="48.24231" lon="-2.9129">
        <ele>278.39999389648</ele>
        <time>2020-10-16T14:53:13.000Z</time>
      </trkpt>
      <trkpt lat="48.24231" lon="-2.9129">
        <ele>278.39999389648</ele>
        <time>2020-10-16T14:53:14.000Z</time>
      </trkpt>
      <trkpt lat="48.24231" lon="-2.9129">
        <ele>278.39999389648</ele>
        <time>2020-10-16T14:53:15.000Z</time>
      </trkpt>
      <trkpt lat="48.24231" lon="-2.9129">
        <ele>278.39999389648</ele>
        <time>2020-10-16T14:53:16.000Z</time>
      </trkpt>
      <trkpt lat="48.24231" lon="-2.9129">
        <ele>278.39999389648</ele>
        <time>2020-10-16T14:53:17.000Z</time>
      </trkpt>
      <trkpt lat="48.24231" lon="-2.9129">
        <ele>278.39999389648</ele>
        <time>2020-10-16T14:53:18.000Z</time>
      </trkpt>
      <trkpt lat="48.24231" lon="-2.9129">
        <ele>278.39999389648</ele>
        <time>2020-10-16T14:53:19.000Z</time>
      </trkpt>
      <trkpt lat="48.24231" lon="-2.9129">
        <ele>278.39999389648</ele>
        <time>2020-10-16T14:53:20.000Z</time>
      </trkpt>
      <trkpt lat="48.24231" lon="-2.9129">
        <ele>278.39999389648</ele>
        <time>2020-10-16T14:53:21.000Z</time>
      </trkpt>
      <trkpt lat="48.24231" lon="-2.9129">
        <ele>278.39999389648</ele>
        <time>2020-10-16T14:53:22.000Z</time>
      </trkpt>
      <trkpt lat="48.24231" lon="-2.9129">
        <ele>278.39999389648</ele>
        <time>2020-10-16T14:53:23.000Z</time>
      </trkpt>
      <trkpt lat="48.24231" lon="-2.9129">
        <ele>278.39999389648</ele>
        <time>2020-10-16T14:53:24.000Z</time>
      </trkpt>
      <trkpt lat="48.24231" lon="-2.9129">
        <ele>278.39999389648</ele>
        <time>2020-10-16T14:53:25.000Z</time>
      </trkpt>
      <trkpt lat="48.24231" lon="-2.9129">
        <ele>278.39999389648</ele>
        <time>2020-10-16T14:53:26.000Z</time>
      </trkpt>
      <trkpt lat="48.24229" lon="-2.91293">
        <ele>278.20001220703</ele>
        <time>2020-10-16T14:53:27.000Z</time>
      </trkpt>
      <trkpt lat="48.24229" lon="-2.91293">
        <ele>278.20001220703</ele>
        <time>2020-10-16T14:53:28.000Z</time>
      </trkpt>
      <trkpt lat="48.24227" lon="-2.91297">
        <ele>277.79998779297</ele>
        <time>2020-10-16T14:53:29.000Z</time>
      </trkpt>
      <trkpt lat="48.24227" lon="-2.91297">
        <ele>277.79998779297</ele>
        <time>2020-10-16T14:53:30.000Z</time>
      </trkpt>
      <trkpt lat="48.24225" lon="-2.91299">
        <ele>277.79998779297</ele>
        <time>2020-10-16T14:53:31.000Z</time>
      </trkpt>
      <trkpt lat="48.24222" lon="-2.91305">
        <ele>277.39999389648</ele>
        <time>2020-10-16T14:53:32.000Z</time>
      </trkpt>
      <trkpt lat="48.24222" lon="-2.91305">
        <ele>277.39999389648</ele>
        <time>2020-10-16T14:53:33.000Z</time>
      </trkpt>
      <trkpt lat="48.2422" lon="-2.91308">
        <ele>277.20001220703</ele>
        <time>2020-10-16T14:53:34.000Z</time>
      </trkpt>
      <trkpt lat="48.24215" lon="-2.91314">
        <ele>276.79998779297</ele>
        <time>2020-10-16T14:53:35.000Z</time>
      </trkpt>
      <trkpt lat="48.24215" lon="-2.91314">
        <ele>276.79998779297</ele>
        <time>2020-10-16T14:53:36.000Z</time>
      </trkpt>
      <trkpt lat="48.24213" lon="-2.91317">
        <ele>276.60000610352</ele>
        <time>2020-10-16T14:53:37.000Z</time>
      </trkpt>
      <trkpt lat="48.24207" lon="-2.91323">
        <ele>276.20001220703</ele>
        <time>2020-10-16T14:53:38.000Z</time>
      </trkpt>
      <trkpt lat="48.24207" lon="-2.91323">
        <ele>276.20001220703</ele>
        <time>2020-10-16T14:53:39.000Z</time>
      </trkpt>
      <trkpt lat="48.24204" lon="-2.91327">
        <ele>276</ele>
        <time>2020-10-16T14:53:40.000Z</time>
      </trkpt>
      <trkpt lat="48.24196" lon="-2.91335">
        <ele>275.79998779297</ele>
        <time>2020-10-16T14:53:41.000Z</time>
      </trkpt>
      <trkpt lat="48.24196" lon="-2.91335">
        <ele>275.79998779297</ele>
        <time>2020-10-16T14:53:42.000Z</time>
      </trkpt>
      <trkpt lat="48.24187" lon="-2.91342">
        <ele>275.39999389648</ele>
        <time>2020-10-16T14:53:43.000Z</time>
      </trkpt>
      <trkpt lat="48.24187" lon="-2.91342">
        <ele>275.39999389648</ele>
        <time>2020-10-16T14:53:44.000Z</time>
      </trkpt>
      <trkpt lat="48.24178" lon="-2.9135">
        <ele>274.79998779297</ele>
        <time>2020-10-16T14:53:45.000Z</time>
      </trkpt>
      <trkpt lat="48.24178" lon="-2.9135">
        <ele>274.79998779297</ele>
        <time>2020-10-16T14:53:46.000Z</time>
      </trkpt>
      <trkpt lat="48.24169" lon="-2.91357">
        <ele>274.79998779297</ele>
        <time>2020-10-16T14:53:47.000Z</time>
      </trkpt>
      <trkpt lat="48.24169" lon="-2.91357">
        <ele>274.79998779297</ele>
        <time>2020-10-16T14:53:48.000Z</time>
      </trkpt>
      <trkpt lat="48.24164" lon="-2.9136">
        <ele>274.79998779297</ele>
        <time>2020-10-16T14:53:49.000Z</time>
      </trkpt>
      <trkpt lat="48.24154" lon="-2.91367">
        <ele>274.79998779297</ele>
        <time>2020-10-16T14:53:50.000Z</time>
      </trkpt>
      <trkpt lat="48.24154" lon="-2.91367">
        <ele>274.79998779297</ele>
        <time>2020-10-16T14:53:51.000Z</time>
      </trkpt>
      <trkpt lat="48.24149" lon="-2.91371">
        <ele>274.79998779297</ele>
        <time>2020-10-16T14:53:52.000Z</time>
      </trkpt>
      <trkpt lat="48.24139" lon="-2.91378">
        <ele>274.79998779297</ele>
        <time>2020-10-16T14:53:53.000Z</time>
      </trkpt>
      <trkpt lat="48.24139" lon="-2.91378">
        <ele>274.79998779297</ele>
        <time>2020-10-16T14:53:54.000Z</time>
      </trkpt>
      <trkpt lat="48.24134" lon="-2.91382">
        <ele>274.60000610352</ele>
        <time>2020-10-16T14:53:55.000Z</time>
      </trkpt>
      <trkpt lat="48.24124" lon="-2.9139">
        <ele>274.39999389648</ele>
        <time>2020-10-16T14:53:56.000Z</time>
      </trkpt>
      <trkpt lat="48.24124" lon="-2.9139">
        <ele>274.39999389648</ele>
        <time>2020-10-16T14:53:57.000Z</time>
      </trkpt>
      <trkpt lat="48.24119" lon="-2.91394">
        <ele>274.39999389648</ele>
        <time>2020-10-16T14:53:58.000Z</time>
      </trkpt>
      <trkpt lat="48.24108" lon="-2.91401">
        <ele>274.20001220703</ele>
        <time>2020-10-16T14:53:59.000Z</time>
      </trkpt>
      <trkpt lat="48.24102" lon="-2.91404">
        <ele>274.20001220703</ele>
        <time>2020-10-16T14:54:00.000Z</time>
      </trkpt>
      <trkpt lat="48.24102" lon="-2.91404">
        <ele>274.20001220703</ele>
        <time>2020-10-16T14:54:01.000Z</time>
      </trkpt>
      <trkpt lat="48.24091" lon="-2.91411">
        <ele>273.79998779297</ele>
        <time>2020-10-16T14:54:02.000Z</time>
      </trkpt>
      <trkpt lat="48.24091" lon="-2.91411">
        <ele>273.79998779297</ele>
        <time>2020-10-16T14:54:03.000Z</time>
      </trkpt>
      <trkpt lat="48.24086" lon="-2.91414">
        <ele>273.60000610352</ele>
        <time>2020-10-16T14:54:04.000Z</time>
      </trkpt>
      <trkpt lat="48.24081" lon="-2.91418">
        <ele>273.39999389648</ele>
        <time>2020-10-16T14:54:05.000Z</time>
      </trkpt>
      <trkpt lat="48.24076" lon="-2.91422">
        <ele>273.20001220703</ele>
        <time>2020-10-16T14:54:06.000Z</time>
      </trkpt>
      <trkpt lat="48.2407" lon="-2.91426">
        <ele>272.79998779297</ele>
        <time>2020-10-16T14:54:07.000Z</time>
      </trkpt>
      <trkpt lat="48.24064" lon="-2.91431">
        <ele>272.39999389648</ele>
        <time>2020-10-16T14:54:08.000Z</time>
      </trkpt>
      <trkpt lat="48.24059" lon="-2.91435">
        <ele>272</ele>
        <time>2020-10-16T14:54:09.000Z</time>
      </trkpt>
      <trkpt lat="48.24053" lon="-2.91438">
        <ele>271.79998779297</ele>
        <time>2020-10-16T14:54:10.000Z</time>
      </trkpt>
      <trkpt lat="48.24046" lon="-2.91442">
        <ele>271.39999389648</ele>
        <time>2020-10-16T14:54:11.000Z</time>
      </trkpt>
      <trkpt lat="48.24041" lon="-2.91446">
        <ele>271</ele>
        <time>2020-10-16T14:54:12.000Z</time>
      </trkpt>
      <trkpt lat="48.24035" lon="-2.9145">
        <ele>270.79998779297</ele>
        <time>2020-10-16T14:54:13.000Z</time>
      </trkpt>
      <trkpt lat="48.24029" lon="-2.91454">
        <ele>270.39999389648</ele>
        <time>2020-10-16T14:54:14.000Z</time>
      </trkpt>
      <trkpt lat="48.24022" lon="-2.91458">
        <ele>270</ele>
        <time>2020-10-16T14:54:15.000Z</time>
      </trkpt>
      <trkpt lat="48.24016" lon="-2.91462">
        <ele>269.79998779297</ele>
        <time>2020-10-16T14:54:16.000Z</time>
      </trkpt>
      <trkpt lat="48.24009" lon="-2.91467">
        <ele>269.39999389648</ele>
        <time>2020-10-16T14:54:17.000Z</time>
      </trkpt>
      <trkpt lat="48.24003" lon="-2.91471">
        <ele>268.79998779297</ele>
        <time>2020-10-16T14:54:18.000Z</time>
      </trkpt>
      <trkpt lat="48.23996" lon="-2.91475">
        <ele>268.39999389648</ele>
        <time>2020-10-16T14:54:19.000Z</time>
      </trkpt>
      <trkpt lat="48.23989" lon="-2.9148">
        <ele>268</ele>
        <time>2020-10-16T14:54:20.000Z</time>
      </trkpt>
      <trkpt lat="48.23981" lon="-2.91484">
        <ele>267.60000610352</ele>
        <time>2020-10-16T14:54:21.000Z</time>
      </trkpt>
      <trkpt lat="48.23973" lon="-2.91488">
        <ele>267</ele>
        <time>2020-10-16T14:54:22.000Z</time>
      </trkpt>
      <trkpt lat="48.23965" lon="-2.91492">
        <ele>266.79998779297</ele>
        <time>2020-10-16T14:54:23.000Z</time>
      </trkpt>
      <trkpt lat="48.23957" lon="-2.91495">
        <ele>266.39999389648</ele>
        <time>2020-10-16T14:54:24.000Z</time>
      </trkpt>
      <trkpt lat="48.23949" lon="-2.91497">
        <ele>266</ele>
        <time>2020-10-16T14:54:25.000Z</time>
      </trkpt>
      <trkpt lat="48.23942" lon="-2.91499">
        <ele>265.79998779297</ele>
        <time>2020-10-16T14:54:26.000Z</time>
      </trkpt>
      <trkpt lat="48.23934" lon="-2.91501">
        <ele>265.39999389648</ele>
        <time>2020-10-16T14:54:27.000Z</time>
      </trkpt>
      <trkpt lat="48.23926" lon="-2.91503">
        <ele>265</ele>
        <time>2020-10-16T14:54:28.000Z</time>
      </trkpt>
      <trkpt lat="48.23918" lon="-2.91505">
        <ele>264.60000610352</ele>
        <time>2020-10-16T14:54:29.000Z</time>
      </trkpt>
      <trkpt lat="48.23909" lon="-2.91507">
        <ele>264</ele>
        <time>2020-10-16T14:54:30.000Z</time>
      </trkpt>
      <trkpt lat="48.239" lon="-2.91509">
        <ele>263.60000610352</ele>
        <time>2020-10-16T14:54:31.000Z</time>
      </trkpt>
      <trkpt lat="48.23892" lon="-2.91511">
        <ele>263</ele>
        <time>2020-10-16T14:54:32.000Z</time>
      </trkpt>
      <trkpt lat="48.23883" lon="-2.91513">
        <ele>262.60000610352</ele>
        <time>2020-10-16T14:54:33.000Z</time>
      </trkpt>
      <trkpt lat="48.23868" lon="-2.9152">
        <ele>261.39999389648</ele>
        <time>2020-10-16T14:54:34.000Z</time>
      </trkpt>
      <trkpt lat="48.23868" lon="-2.9152">
        <ele>261.39999389648</ele>
        <time>2020-10-16T14:54:35.000Z</time>
      </trkpt>
      <trkpt lat="48.23861" lon="-2.91523">
        <ele>261</ele>
        <time>2020-10-16T14:54:36.000Z</time>
      </trkpt>
      <trkpt lat="48.23853" lon="-2.91525">
        <ele>260.39999389648</ele>
        <time>2020-10-16T14:54:37.000Z</time>
      </trkpt>
      <trkpt lat="48.23846" lon="-2.91527">
        <ele>260</ele>
        <time>2020-10-16T14:54:38.000Z</time>
      </trkpt>
      <trkpt lat="48.23839" lon="-2.91529">
        <ele>259.60000610352</ele>
        <time>2020-10-16T14:54:39.000Z</time>
      </trkpt>
      <trkpt lat="48.23832" lon="-2.9153">
        <ele>259.20001220703</ele>
        <time>2020-10-16T14:54:40.000Z</time>
      </trkpt>
      <trkpt lat="48.23826" lon="-2.9153">
        <ele>259</ele>
        <time>2020-10-16T14:54:41.000Z</time>
      </trkpt>
      <trkpt lat="48.2382" lon="-2.91529">
        <ele>258.60000610352</ele>
        <time>2020-10-16T14:54:42.000Z</time>
      </trkpt>
      <trkpt lat="48.23814" lon="-2.91527">
        <ele>258</ele>
        <time>2020-10-16T14:54:43.000Z</time>
      </trkpt>
      <trkpt lat="48.23809" lon="-2.91525">
        <ele>257.39999389648</ele>
        <time>2020-10-16T14:54:44.000Z</time>
      </trkpt>
      <trkpt lat="48.23803" lon="-2.91522">
        <ele>257</ele>
        <time>2020-10-16T14:54:45.000Z</time>
      </trkpt>
      <trkpt lat="48.23797" lon="-2.91518">
        <ele>256.39999389648</ele>
        <time>2020-10-16T14:54:46.000Z</time>
      </trkpt>
      <trkpt lat="48.23792" lon="-2.91512">
        <ele>255.80000305176</ele>
        <time>2020-10-16T14:54:47.000Z</time>
      </trkpt>
      <trkpt lat="48.23781" lon="-2.91498">
        <ele>255</ele>
        <time>2020-10-16T14:54:48.000Z</time>
      </trkpt>
      <trkpt lat="48.23781" lon="-2.91498">
        <ele>255</ele>
        <time>2020-10-16T14:54:49.000Z</time>
      </trkpt>
      <trkpt lat="48.23776" lon="-2.91491">
        <ele>254.39999389648</ele>
        <time>2020-10-16T14:54:50.000Z</time>
      </trkpt>
      <trkpt lat="48.2377" lon="-2.91483">
        <ele>253.80000305176</ele>
        <time>2020-10-16T14:54:51.000Z</time>
      </trkpt>
      <trkpt lat="48.23764" lon="-2.91475">
        <ele>253.19999694824</ele>
        <time>2020-10-16T14:54:52.000Z</time>
      </trkpt>
      <trkpt lat="48.23759" lon="-2.91468">
        <ele>252.60000610352</ele>
        <time>2020-10-16T14:54:53.000Z</time>
      </trkpt>
      <trkpt lat="48.23753" lon="-2.9146">
        <ele>251.80000305176</ele>
        <time>2020-10-16T14:54:54.000Z</time>
      </trkpt>
      <trkpt lat="48.23747" lon="-2.91452">
        <ele>251</ele>
        <time>2020-10-16T14:54:55.000Z</time>
      </trkpt>
      <trkpt lat="48.23741" lon="-2.91443">
        <ele>250.19999694824</ele>
        <time>2020-10-16T14:54:56.000Z</time>
      </trkpt>
      <trkpt lat="48.23734" lon="-2.91434">
        <ele>249.60000610352</ele>
        <time>2020-10-16T14:54:57.000Z</time>
      </trkpt>
      <trkpt lat="48.23728" lon="-2.91425">
        <ele>249</ele>
        <time>2020-10-16T14:54:58.000Z</time>
      </trkpt>
      <trkpt lat="48.23722" lon="-2.91416">
        <ele>248.19999694824</ele>
        <time>2020-10-16T14:54:59.000Z</time>
      </trkpt>
      <trkpt lat="48.23716" lon="-2.91407">
        <ele>247.19999694824</ele>
        <time>2020-10-16T14:55:00.000Z</time>
      </trkpt>
      <trkpt lat="48.2371" lon="-2.91398">
        <ele>246.39999389648</ele>
        <time>2020-10-16T14:55:01.000Z</time>
      </trkpt>
      <trkpt lat="48.23703" lon="-2.91389">
        <ele>245.60000610352</ele>
        <time>2020-10-16T14:55:02.000Z</time>
      </trkpt>
      <trkpt lat="48.23696" lon="-2.9138">
        <ele>244.80000305176</ele>
        <time>2020-10-16T14:55:03.000Z</time>
      </trkpt>
      <trkpt lat="48.2369" lon="-2.91371">
        <ele>244.19999694824</ele>
        <time>2020-10-16T14:55:04.000Z</time>
      </trkpt>
      <trkpt lat="48.23683" lon="-2.91362">
        <ele>243.39999389648</ele>
        <time>2020-10-16T14:55:05.000Z</time>
      </trkpt>
      <trkpt lat="48.23677" lon="-2.91352">
        <ele>242.80000305176</ele>
        <time>2020-10-16T14:55:06.000Z</time>
      </trkpt>
      <trkpt lat="48.2367" lon="-2.91343">
        <ele>242.19999694824</ele>
        <time>2020-10-16T14:55:07.000Z</time>
      </trkpt>
      <trkpt lat="48.23664" lon="-2.91334">
        <ele>241.39999389648</ele>
        <time>2020-10-16T14:55:08.000Z</time>
      </trkpt>
      <trkpt lat="48.23658" lon="-2.91326">
        <ele>240.80000305176</ele>
        <time>2020-10-16T14:55:09.000Z</time>
      </trkpt>
      <trkpt lat="48.23653" lon="-2.91318">
        <ele>240.19999694824</ele>
        <time>2020-10-16T14:55:10.000Z</time>
      </trkpt>
      <trkpt lat="48.23648" lon="-2.91309">
        <ele>239.60000610352</ele>
        <time>2020-10-16T14:55:11.000Z</time>
      </trkpt>
      <trkpt lat="48.23644" lon="-2.913">
        <ele>239.19999694824</ele>
        <time>2020-10-16T14:55:12.000Z</time>
      </trkpt>
      <trkpt lat="48.2364" lon="-2.9129">
        <ele>238.80000305176</ele>
        <time>2020-10-16T14:55:13.000Z</time>
      </trkpt>
      <trkpt lat="48.23637" lon="-2.91278">
        <ele>238.19999694824</ele>
        <time>2020-10-16T14:55:14.000Z</time>
      </trkpt>
      <trkpt lat="48.23635" lon="-2.91266">
        <ele>237.80000305176</ele>
        <time>2020-10-16T14:55:15.000Z</time>
      </trkpt>
      <trkpt lat="48.23634" lon="-2.91255">
        <ele>237.60000610352</ele>
        <time>2020-10-16T14:55:16.000Z</time>
      </trkpt>
      <trkpt lat="48.23634" lon="-2.91243">
        <ele>237.39999389648</ele>
        <time>2020-10-16T14:55:17.000Z</time>
      </trkpt>
      <trkpt lat="48.23634" lon="-2.91232">
        <ele>237.19999694824</ele>
        <time>2020-10-16T14:55:18.000Z</time>
      </trkpt>
      <trkpt lat="48.23634" lon="-2.9122">
        <ele>237.19999694824</ele>
        <time>2020-10-16T14:55:19.000Z</time>
      </trkpt>
      <trkpt lat="48.23635" lon="-2.91209">
        <ele>237.19999694824</ele>
        <time>2020-10-16T14:55:20.000Z</time>
      </trkpt>
      <trkpt lat="48.23636" lon="-2.91198">
        <ele>237.39999389648</ele>
        <time>2020-10-16T14:55:21.000Z</time>
      </trkpt>
      <trkpt lat="48.23636" lon="-2.91188">
        <ele>237.39999389648</ele>
        <time>2020-10-16T14:55:22.000Z</time>
      </trkpt>
      <trkpt lat="48.23637" lon="-2.91177">
        <ele>237.39999389648</ele>
        <time>2020-10-16T14:55:23.000Z</time>
      </trkpt>
      <trkpt lat="48.23637" lon="-2.91167">
        <ele>237.39999389648</ele>
        <time>2020-10-16T14:55:24.000Z</time>
      </trkpt>
      <trkpt lat="48.23638" lon="-2.91157">
        <ele>237.60000610352</ele>
        <time>2020-10-16T14:55:25.000Z</time>
      </trkpt>
      <trkpt lat="48.23638" lon="-2.91147">
        <ele>237.60000610352</ele>
        <time>2020-10-16T14:55:26.000Z</time>
      </trkpt>
      <trkpt lat="48.23639" lon="-2.91137">
        <ele>237.60000610352</ele>
        <time>2020-10-16T14:55:27.000Z</time>
      </trkpt>
      <trkpt lat="48.23639" lon="-2.91127">
        <ele>237.80000305176</ele>
        <time>2020-10-16T14:55:28.000Z</time>
      </trkpt>
      <trkpt lat="48.2364" lon="-2.91118">
        <ele>237.60000610352</ele>
        <time>2020-10-16T14:55:29.000Z</time>
      </trkpt>
      <trkpt lat="48.23641" lon="-2.91109">
        <ele>237.60000610352</ele>
        <time>2020-10-16T14:55:30.000Z</time>
      </trkpt>
      <trkpt lat="48.23641" lon="-2.91099">
        <ele>237.60000610352</ele>
        <time>2020-10-16T14:55:31.000Z</time>
      </trkpt>
      <trkpt lat="48.23642" lon="-2.9109">
        <ele>237.60000610352</ele>
        <time>2020-10-16T14:55:32.000Z</time>
      </trkpt>
      <trkpt lat="48.23643" lon="-2.9108">
        <ele>237.19999694824</ele>
        <time>2020-10-16T14:55:33.000Z</time>
      </trkpt>
      <trkpt lat="48.23644" lon="-2.9107">
        <ele>237</ele>
        <time>2020-10-16T14:55:34.000Z</time>
      </trkpt>
      <trkpt lat="48.23645" lon="-2.9106">
        <ele>236.80000305176</ele>
        <time>2020-10-16T14:55:35.000Z</time>
      </trkpt>
      <trkpt lat="48.23647" lon="-2.91051">
        <ele>236.80000305176</ele>
        <time>2020-10-16T14:55:36.000Z</time>
      </trkpt>
      <trkpt lat="48.23648" lon="-2.91042">
        <ele>236.60000610352</ele>
        <time>2020-10-16T14:55:37.000Z</time>
      </trkpt>
      <trkpt lat="48.2365" lon="-2.91032">
        <ele>236.39999389648</ele>
        <time>2020-10-16T14:55:38.000Z</time>
      </trkpt>
      <trkpt lat="48.23651" lon="-2.91022">
        <ele>236.19999694824</ele>
        <time>2020-10-16T14:55:39.000Z</time>
      </trkpt>
      <trkpt lat="48.23652" lon="-2.91013">
        <ele>236</ele>
        <time>2020-10-16T14:55:40.000Z</time>
      </trkpt>
      <trkpt lat="48.23653" lon="-2.91003">
        <ele>235.80000305176</ele>
        <time>2020-10-16T14:55:41.000Z</time>
      </trkpt>
      <trkpt lat="48.23654" lon="-2.90993">
        <ele>235.60000610352</ele>
        <time>2020-10-16T14:55:42.000Z</time>
      </trkpt>
      <trkpt lat="48.23655" lon="-2.90983">
        <ele>235.19999694824</ele>
        <time>2020-10-16T14:55:43.000Z</time>
      </trkpt>
      <trkpt lat="48.23656" lon="-2.90973">
        <ele>235</ele>
        <time>2020-10-16T14:55:44.000Z</time>
      </trkpt>
      <trkpt lat="48.23657" lon="-2.90963">
        <ele>234.80000305176</ele>
        <time>2020-10-16T14:55:45.000Z</time>
      </trkpt>
      <trkpt lat="48.23658" lon="-2.90952">
        <ele>234.60000610352</ele>
        <time>2020-10-16T14:55:46.000Z</time>
      </trkpt>
      <trkpt lat="48.23659" lon="-2.90942">
        <ele>234.19999694824</ele>
        <time>2020-10-16T14:55:47.000Z</time>
      </trkpt>
      <trkpt lat="48.2366" lon="-2.90931">
        <ele>234.19999694824</ele>
        <time>2020-10-16T14:55:48.000Z</time>
      </trkpt>
      <trkpt lat="48.23662" lon="-2.90921">
        <ele>234</ele>
        <time>2020-10-16T14:55:49.000Z</time>
      </trkpt>
      <trkpt lat="48.23663" lon="-2.9091">
        <ele>234</ele>
        <time>2020-10-16T14:55:50.000Z</time>
      </trkpt>
      <trkpt lat="48.23664" lon="-2.90899">
        <ele>234</ele>
        <time>2020-10-16T14:55:51.000Z</time>
      </trkpt>
      <trkpt lat="48.23665" lon="-2.90889">
        <ele>234</ele>
        <time>2020-10-16T14:55:52.000Z</time>
      </trkpt>
      <trkpt lat="48.23666" lon="-2.90879">
        <ele>234</ele>
        <time>2020-10-16T14:55:53.000Z</time>
      </trkpt>
      <trkpt lat="48.23667" lon="-2.90869">
        <ele>234</ele>
        <time>2020-10-16T14:55:54.000Z</time>
      </trkpt>
      <trkpt lat="48.23668" lon="-2.90859">
        <ele>234</ele>
        <time>2020-10-16T14:55:55.000Z</time>
      </trkpt>
      <trkpt lat="48.23669" lon="-2.9085">
        <ele>234</ele>
        <time>2020-10-16T14:55:56.000Z</time>
      </trkpt>
      <trkpt lat="48.23669" lon="-2.90841">
        <ele>234</ele>
        <time>2020-10-16T14:55:57.000Z</time>
      </trkpt>
      <trkpt lat="48.2367" lon="-2.90832">
        <ele>234</ele>
        <time>2020-10-16T14:55:58.000Z</time>
      </trkpt>
      <trkpt lat="48.23671" lon="-2.90824">
        <ele>234</ele>
        <time>2020-10-16T14:55:59.000Z</time>
      </trkpt>
      <trkpt lat="48.23671" lon="-2.90809">
        <ele>234</ele>
        <time>2020-10-16T14:56:00.000Z</time>
      </trkpt>
      <trkpt lat="48.23671" lon="-2.90809">
        <ele>234</ele>
        <time>2020-10-16T14:56:01.000Z</time>
      </trkpt>
      <trkpt lat="48.23672" lon="-2.90802">
        <ele>233.80000305176</ele>
        <time>2020-10-16T14:56:02.000Z</time>
      </trkpt>
      <trkpt lat="48.23673" lon="-2.90796">
        <ele>233.80000305176</ele>
        <time>2020-10-16T14:56:03.000Z</time>
      </trkpt>
      <trkpt lat="48.23673" lon="-2.90791">
        <ele>233.80000305176</ele>
        <time>2020-10-16T14:56:04.000Z</time>
      </trkpt>
      <trkpt lat="48.23673" lon="-2.90787">
        <ele>233.80000305176</ele>
        <time>2020-10-16T14:56:05.000Z</time>
      </trkpt>
      <trkpt lat="48.23674" lon="-2.90784">
        <ele>233.80000305176</ele>
        <time>2020-10-16T14:56:06.000Z</time>
      </trkpt>
      <trkpt lat="48.23674" lon="-2.90783">
        <ele>233.80000305176</ele>
        <time>2020-10-16T14:56:07.000Z</time>
      </trkpt>
      <trkpt lat="48.23674" lon="-2.90783">
        <ele>233.80000305176</ele>
        <time>2020-10-16T14:56:08.000Z</time>
      </trkpt>
      <trkpt lat="48.23673" lon="-2.90782">
        <ele>233.80000305176</ele>
        <time>2020-10-16T14:56:09.000Z</time>
      </trkpt>
      <trkpt lat="48.23673" lon="-2.90782">
        <ele>233.80000305176</ele>
        <time>2020-10-16T14:56:10.000Z</time>
      </trkpt>
      <trkpt lat="48.23673" lon="-2.90782">
        <ele>233.80000305176</ele>
        <time>2020-10-16T14:56:11.000Z</time>
      </trkpt>
      <trkpt lat="48.23673" lon="-2.90782">
        <ele>233.60000610352</ele>
        <time>2020-10-16T14:56:12.000Z</time>
      </trkpt>
      <trkpt lat="48.23673" lon="-2.90782">
        <ele>233.60000610352</ele>
        <time>2020-10-16T14:56:13.000Z</time>
      </trkpt>
      <trkpt lat="48.23673" lon="-2.90782">
        <ele>233.60000610352</ele>
        <time>2020-10-16T14:56:14.000Z</time>
      </trkpt>
      <trkpt lat="48.23673" lon="-2.90782">
        <ele>233.60000610352</ele>
        <time>2020-10-16T14:56:15.000Z</time>
      </trkpt>
      <trkpt lat="48.23673" lon="-2.90782">
        <ele>233.60000610352</ele>
        <time>2020-10-16T14:56:16.000Z</time>
      </trkpt>
      <trkpt lat="48.23673" lon="-2.90782">
        <ele>233.60000610352</ele>
        <time>2020-10-16T14:56:17.000Z</time>
      </trkpt>
      <trkpt lat="48.23673" lon="-2.90782">
        <ele>233.60000610352</ele>
        <time>2020-10-16T14:56:18.000Z</time>
      </trkpt>
      <trkpt lat="48.23673" lon="-2.90782">
        <ele>233.60000610352</ele>
        <time>2020-10-16T14:56:19.000Z</time>
      </trkpt>
      <trkpt lat="48.23673" lon="-2.90782">
        <ele>233.60000610352</ele>
        <time>2020-10-16T14:56:20.000Z</time>
      </trkpt>
      <trkpt lat="48.23673" lon="-2.90782">
        <ele>233.60000610352</ele>
        <time>2020-10-16T14:56:21.000Z</time>
      </trkpt>
      <trkpt lat="48.23673" lon="-2.90782">
        <ele>233.60000610352</ele>
        <time>2020-10-16T14:56:22.000Z</time>
      </trkpt>
      <trkpt lat="48.23673" lon="-2.90782">
        <ele>233.60000610352</ele>
        <time>2020-10-16T14:56:23.000Z</time>
      </trkpt>
      <trkpt lat="48.23673" lon="-2.90782">
        <ele>233.60000610352</ele>
        <time>2020-10-16T14:56:24.000Z</time>
      </trkpt>
      <trkpt lat="48.23673" lon="-2.90782">
        <ele>233.60000610352</ele>
        <time>2020-10-16T14:56:25.000Z</time>
      </trkpt>
      <trkpt lat="48.23673" lon="-2.90782">
        <ele>233.60000610352</ele>
        <time>2020-10-16T14:56:26.000Z</time>
      </trkpt>
      <trkpt lat="48.23673" lon="-2.90782">
        <ele>233.60000610352</ele>
        <time>2020-10-16T14:56:27.000Z</time>
      </trkpt>
      <trkpt lat="48.23673" lon="-2.90782">
        <ele>233.60000610352</ele>
        <time>2020-10-16T14:56:28.000Z</time>
      </trkpt>
      <trkpt lat="48.23673" lon="-2.90782">
        <ele>233.60000610352</ele>
        <time>2020-10-16T14:56:29.000Z</time>
      </trkpt>
      <trkpt lat="48.23673" lon="-2.90782">
        <ele>233.60000610352</ele>
        <time>2020-10-16T14:56:30.000Z</time>
      </trkpt>
      <trkpt lat="48.23673" lon="-2.90782">
        <ele>233.60000610352</ele>
        <time>2020-10-16T14:56:31.000Z</time>
      </trkpt>
      <trkpt lat="48.23673" lon="-2.90782">
        <ele>233.60000610352</ele>
        <time>2020-10-16T14:56:32.000Z</time>
      </trkpt>
      <trkpt lat="48.23673" lon="-2.90782">
        <ele>233.60000610352</ele>
        <time>2020-10-16T14:56:33.000Z</time>
      </trkpt>
      <trkpt lat="48.23673" lon="-2.90782">
        <ele>233.60000610352</ele>
        <time>2020-10-16T14:56:34.000Z</time>
      </trkpt>
      <trkpt lat="48.23673" lon="-2.90782">
        <ele>233.60000610352</ele>
        <time>2020-10-16T14:56:35.000Z</time>
      </trkpt>
      <trkpt lat="48.23673" lon="-2.90782">
        <ele>233.60000610352</ele>
        <time>2020-10-16T14:56:36.000Z</time>
      </trkpt>
      <trkpt lat="48.23673" lon="-2.90782">
        <ele>233.60000610352</ele>
        <time>2020-10-16T14:56:37.000Z</time>
      </trkpt>
      <trkpt lat="48.23673" lon="-2.90782">
        <ele>233.60000610352</ele>
        <time>2020-10-16T14:56:38.000Z</time>
      </trkpt>
      <trkpt lat="48.23673" lon="-2.90782">
        <ele>233.60000610352</ele>
        <time>2020-10-16T14:56:39.000Z</time>
      </trkpt>
      <trkpt lat="48.23673" lon="-2.90782">
        <ele>233.60000610352</ele>
        <time>2020-10-16T14:56:40.000Z</time>
      </trkpt>
      <trkpt lat="48.23673" lon="-2.90782">
        <ele>233.60000610352</ele>
        <time>2020-10-16T14:56:41.000Z</time>
      </trkpt>
      <trkpt lat="48.23673" lon="-2.90782">
        <ele>233.60000610352</ele>
        <time>2020-10-16T14:56:42.000Z</time>
      </trkpt>
      <trkpt lat="48.23673" lon="-2.90782">
        <ele>233.60000610352</ele>
        <time>2020-10-16T14:56:43.000Z</time>
      </trkpt>
      <trkpt lat="48.23673" lon="-2.90782">
        <ele>233.60000610352</ele>
        <time>2020-10-16T14:56:44.000Z</time>
      </trkpt>
      <trkpt lat="48.23673" lon="-2.90782">
        <ele>233.60000610352</ele>
        <time>2020-10-16T14:56:45.000Z</time>
      </trkpt>
      <trkpt lat="48.23673" lon="-2.90782">
        <ele>233.60000610352</ele>
        <time>2020-10-16T14:56:46.000Z</time>
      </trkpt>
      <trkpt lat="48.23673" lon="-2.90782">
        <ele>233.60000610352</ele>
        <time>2020-10-16T14:56:47.000Z</time>
      </trkpt>
      <trkpt lat="48.23673" lon="-2.90782">
        <ele>233.60000610352</ele>
        <time>2020-10-16T14:56:48.000Z</time>
      </trkpt>
      <trkpt lat="48.23673" lon="-2.90782">
        <ele>233.60000610352</ele>
        <time>2020-10-16T14:56:49.000Z</time>
      </trkpt>
      <trkpt lat="48.23673" lon="-2.90782">
        <ele>233.60000610352</ele>
        <time>2020-10-16T14:56:50.000Z</time>
      </trkpt>
      <trkpt lat="48.23673" lon="-2.90782">
        <ele>233.60000610352</ele>
        <time>2020-10-16T14:56:51.000Z</time>
      </trkpt>
      <trkpt lat="48.23673" lon="-2.90782">
        <ele>233.60000610352</ele>
        <time>2020-10-16T14:56:52.000Z</time>
      </trkpt>
      <trkpt lat="48.23673" lon="-2.90782">
        <ele>233.60000610352</ele>
        <time>2020-10-16T14:56:53.000Z</time>
      </trkpt>
      <trkpt lat="48.23673" lon="-2.90782">
        <ele>233.60000610352</ele>
        <time>2020-10-16T14:56:54.000Z</time>
      </trkpt>
      <trkpt lat="48.23673" lon="-2.90782">
        <ele>233.60000610352</ele>
        <time>2020-10-16T14:56:55.000Z</time>
      </trkpt>
      <trkpt lat="48.23673" lon="-2.90782">
        <ele>233.60000610352</ele>
        <time>2020-10-16T14:56:56.000Z</time>
      </trkpt>
      <trkpt lat="48.23673" lon="-2.90782">
        <ele>233.60000610352</ele>
        <time>2020-10-16T14:56:57.000Z</time>
      </trkpt>
      <trkpt lat="48.23673" lon="-2.90782">
        <ele>233.60000610352</ele>
        <time>2020-10-16T14:56:58.000Z</time>
      </trkpt>
      <trkpt lat="48.23673" lon="-2.90782">
        <ele>233.60000610352</ele>
        <time>2020-10-16T14:56:59.000Z</time>
      </trkpt>
      <trkpt lat="48.23673" lon="-2.90782">
        <ele>233.60000610352</ele>
        <time>2020-10-16T14:57:00.000Z</time>
      </trkpt>
      <trkpt lat="48.23673" lon="-2.90782">
        <ele>233.60000610352</ele>
        <time>2020-10-16T14:57:01.000Z</time>
      </trkpt>
      <trkpt lat="48.23673" lon="-2.90782">
        <ele>233.60000610352</ele>
        <time>2020-10-16T14:57:02.000Z</time>
      </trkpt>
      <trkpt lat="48.23673" lon="-2.90782">
        <ele>233.60000610352</ele>
        <time>2020-10-16T14:57:03.000Z</time>
      </trkpt>
      <trkpt lat="48.23673" lon="-2.90782">
        <ele>233.60000610352</ele>
        <time>2020-10-16T14:57:04.000Z</time>
      </trkpt>
      <trkpt lat="48.23673" lon="-2.90782">
        <ele>233.60000610352</ele>
        <time>2020-10-16T14:57:05.000Z</time>
      </trkpt>
      <trkpt lat="48.23673" lon="-2.90782">
        <ele>233.60000610352</ele>
        <time>2020-10-16T14:57:06.000Z</time>
      </trkpt>
      <trkpt lat="48.23673" lon="-2.90782">
        <ele>233.60000610352</ele>
        <time>2020-10-16T14:57:07.000Z</time>
      </trkpt>
      <trkpt lat="48.23673" lon="-2.90782">
        <ele>233.60000610352</ele>
        <time>2020-10-16T14:57:08.000Z</time>
      </trkpt>
      <trkpt lat="48.23673" lon="-2.90782">
        <ele>233.60000610352</ele>
        <time>2020-10-16T14:57:09.000Z</time>
      </trkpt>
      <trkpt lat="48.23673" lon="-2.90782">
        <ele>233.60000610352</ele>
        <time>2020-10-16T14:57:10.000Z</time>
      </trkpt>
      <trkpt lat="48.23673" lon="-2.90782">
        <ele>233.60000610352</ele>
        <time>2020-10-16T14:57:11.000Z</time>
      </trkpt>
      <trkpt lat="48.23673" lon="-2.90782">
        <ele>233.60000610352</ele>
        <time>2020-10-16T14:57:12.000Z</time>
      </trkpt>
      <trkpt lat="48.23673" lon="-2.90782">
        <ele>233.60000610352</ele>
        <time>2020-10-16T14:57:13.000Z</time>
      </trkpt>
      <trkpt lat="48.23673" lon="-2.90782">
        <ele>233.60000610352</ele>
        <time>2020-10-16T14:57:14.000Z</time>
      </trkpt>
      <trkpt lat="48.23673" lon="-2.90782">
        <ele>233.60000610352</ele>
        <time>2020-10-16T14:57:15.000Z</time>
      </trkpt>
      <trkpt lat="48.23673" lon="-2.90782">
        <ele>233.60000610352</ele>
        <time>2020-10-16T14:57:16.000Z</time>
      </trkpt>
      <trkpt lat="48.23673" lon="-2.90782">
        <ele>233.60000610352</ele>
        <time>2020-10-16T14:57:17.000Z</time>
      </trkpt>
      <trkpt lat="48.23673" lon="-2.90782">
        <ele>233.60000610352</ele>
        <time>2020-10-16T14:57:18.000Z</time>
      </trkpt>
      <trkpt lat="48.23673" lon="-2.90782">
        <ele>233.60000610352</ele>
        <time>2020-10-16T14:57:19.000Z</time>
      </trkpt>
      <trkpt lat="48.23673" lon="-2.90782">
        <ele>233.60000610352</ele>
        <time>2020-10-16T14:57:20.000Z</time>
      </trkpt>
      <trkpt lat="48.23673" lon="-2.90782">
        <ele>233.60000610352</ele>
        <time>2020-10-16T14:57:21.000Z</time>
      </trkpt>
      <trkpt lat="48.23673" lon="-2.90782">
        <ele>233.60000610352</ele>
        <time>2020-10-16T14:57:22.000Z</time>
      </trkpt>
      <trkpt lat="48.23673" lon="-2.90782">
        <ele>233.60000610352</ele>
        <time>2020-10-16T14:57:23.000Z</time>
      </trkpt>
      <trkpt lat="48.23673" lon="-2.90782">
        <ele>233.60000610352</ele>
        <time>2020-10-16T14:57:24.000Z</time>
      </trkpt>
      <trkpt lat="48.23673" lon="-2.90782">
        <ele>233.60000610352</ele>
        <time>2020-10-16T14:57:25.000Z</time>
      </trkpt>
      <trkpt lat="48.23673" lon="-2.90782">
        <ele>233.60000610352</ele>
        <time>2020-10-16T14:57:26.000Z</time>
      </trkpt>
      <trkpt lat="48.23673" lon="-2.90782">
        <ele>233.60000610352</ele>
        <time>2020-10-16T14:57:27.000Z</time>
      </trkpt>
      <trkpt lat="48.23673" lon="-2.90782">
        <ele>233.60000610352</ele>
        <time>2020-10-16T14:57:28.000Z</time>
      </trkpt>
      <trkpt lat="48.23673" lon="-2.90782">
        <ele>233.60000610352</ele>
        <time>2020-10-16T14:57:29.000Z</time>
      </trkpt>
      <trkpt lat="48.23673" lon="-2.90782">
        <ele>233.60000610352</ele>
        <time>2020-10-16T14:57:30.000Z</time>
      </trkpt>
      <trkpt lat="48.23673" lon="-2.90782">
        <ele>233.60000610352</ele>
        <time>2020-10-16T14:57:31.000Z</time>
      </trkpt>
      <trkpt lat="48.23673" lon="-2.90782">
        <ele>233.60000610352</ele>
        <time>2020-10-16T14:57:32.000Z</time>
      </trkpt>
      <trkpt lat="48.23673" lon="-2.90782">
        <ele>233.60000610352</ele>
        <time>2020-10-16T14:57:33.000Z</time>
      </trkpt>
      <trkpt lat="48.23673" lon="-2.90782">
        <ele>233.60000610352</ele>
        <time>2020-10-16T14:57:34.000Z</time>
      </trkpt>
      <trkpt lat="48.23673" lon="-2.90782">
        <ele>233.60000610352</ele>
        <time>2020-10-16T14:57:35.000Z</time>
      </trkpt>
      <trkpt lat="48.23673" lon="-2.90782">
        <ele>233.60000610352</ele>
        <time>2020-10-16T14:57:36.000Z</time>
      </trkpt>
      <trkpt lat="48.23673" lon="-2.90782">
        <ele>233.60000610352</ele>
        <time>2020-10-16T14:57:37.000Z</time>
      </trkpt>
      <trkpt lat="48.23673" lon="-2.90782">
        <ele>233.60000610352</ele>
        <time>2020-10-16T14:57:38.000Z</time>
      </trkpt>
      <trkpt lat="48.23673" lon="-2.90782">
        <ele>233.60000610352</ele>
        <time>2020-10-16T14:57:39.000Z</time>
      </trkpt>
      <trkpt lat="48.23673" lon="-2.90782">
        <ele>233.60000610352</ele>
        <time>2020-10-16T14:57:40.000Z</time>
      </trkpt>
      <trkpt lat="48.23673" lon="-2.90782">
        <ele>233.60000610352</ele>
        <time>2020-10-16T14:57:41.000Z</time>
      </trkpt>
      <trkpt lat="48.23673" lon="-2.90782">
        <ele>233.60000610352</ele>
        <time>2020-10-16T14:57:42.000Z</time>
      </trkpt>
      <trkpt lat="48.23673" lon="-2.90782">
        <ele>233.60000610352</ele>
        <time>2020-10-16T14:57:43.000Z</time>
      </trkpt>
      <trkpt lat="48.23673" lon="-2.90782">
        <ele>233.60000610352</ele>
        <time>2020-10-16T14:57:44.000Z</time>
      </trkpt>
      <trkpt lat="48.23673" lon="-2.90782">
        <ele>233.60000610352</ele>
        <time>2020-10-16T14:57:45.000Z</time>
      </trkpt>
      <trkpt lat="48.23673" lon="-2.90782">
        <ele>233.60000610352</ele>
        <time>2020-10-16T14:57:46.000Z</time>
      </trkpt>
      <trkpt lat="48.23673" lon="-2.90782">
        <ele>233.60000610352</ele>
        <time>2020-10-16T14:57:47.000Z</time>
      </trkpt>
      <trkpt lat="48.23673" lon="-2.90782">
        <ele>233.60000610352</ele>
        <time>2020-10-16T14:57:48.000Z</time>
      </trkpt>
      <trkpt lat="48.23673" lon="-2.90782">
        <ele>233.60000610352</ele>
        <time>2020-10-16T14:57:49.000Z</time>
      </trkpt>
      <trkpt lat="48.23673" lon="-2.90782">
        <ele>233.60000610352</ele>
        <time>2020-10-16T14:57:50.000Z</time>
      </trkpt>
      <trkpt lat="48.23673" lon="-2.90782">
        <ele>233.60000610352</ele>
        <time>2020-10-16T14:57:51.000Z</time>
      </trkpt>
      <trkpt lat="48.23673" lon="-2.90782">
        <ele>233.60000610352</ele>
        <time>2020-10-16T14:57:52.000Z</time>
      </trkpt>
      <trkpt lat="48.23673" lon="-2.90782">
        <ele>233.60000610352</ele>
        <time>2020-10-16T14:57:53.000Z</time>
      </trkpt>
      <trkpt lat="48.23673" lon="-2.90782">
        <ele>233.60000610352</ele>
        <time>2020-10-16T14:57:54.000Z</time>
      </trkpt>
      <trkpt lat="48.23673" lon="-2.90782">
        <ele>233.60000610352</ele>
        <time>2020-10-16T14:57:55.000Z</time>
      </trkpt>
      <trkpt lat="48.23673" lon="-2.90782">
        <ele>233.60000610352</ele>
        <time>2020-10-16T14:57:56.000Z</time>
      </trkpt>
      <trkpt lat="48.23673" lon="-2.90782">
        <ele>233.60000610352</ele>
        <time>2020-10-16T14:57:57.000Z</time>
      </trkpt>
      <trkpt lat="48.23673" lon="-2.90782">
        <ele>233.60000610352</ele>
        <time>2020-10-16T14:57:58.000Z</time>
      </trkpt>
      <trkpt lat="48.23673" lon="-2.90782">
        <ele>233.60000610352</ele>
        <time>2020-10-16T14:57:59.000Z</time>
      </trkpt>
      <trkpt lat="48.23673" lon="-2.90782">
        <ele>233.60000610352</ele>
        <time>2020-10-16T14:58:00.000Z</time>
      </trkpt>
      <trkpt lat="48.23673" lon="-2.90782">
        <ele>233.60000610352</ele>
        <time>2020-10-16T14:58:01.000Z</time>
      </trkpt>
      <trkpt lat="48.23673" lon="-2.90782">
        <ele>233.60000610352</ele>
        <time>2020-10-16T14:58:02.000Z</time>
      </trkpt>
      <trkpt lat="48.23673" lon="-2.90782">
        <ele>233.60000610352</ele>
        <time>2020-10-16T14:58:03.000Z</time>
      </trkpt>
      <trkpt lat="48.23673" lon="-2.90782">
        <ele>233.60000610352</ele>
        <time>2020-10-16T14:58:04.000Z</time>
      </trkpt>
      <trkpt lat="48.23673" lon="-2.90782">
        <ele>233.60000610352</ele>
        <time>2020-10-16T14:58:05.000Z</time>
      </trkpt>
      <trkpt lat="48.23673" lon="-2.90782">
        <ele>233.60000610352</ele>
        <time>2020-10-16T14:58:06.000Z</time>
      </trkpt>
      <trkpt lat="48.23673" lon="-2.90782">
        <ele>233.60000610352</ele>
        <time>2020-10-16T14:58:07.000Z</time>
      </trkpt>
      <trkpt lat="48.23673" lon="-2.90782">
        <ele>233.60000610352</ele>
        <time>2020-10-16T14:58:08.000Z</time>
      </trkpt>
      <trkpt lat="48.23673" lon="-2.90782">
        <ele>233.60000610352</ele>
        <time>2020-10-16T14:58:09.000Z</time>
      </trkpt>
      <trkpt lat="48.23673" lon="-2.90782">
        <ele>233.60000610352</ele>
        <time>2020-10-16T14:58:10.000Z</time>
      </trkpt>
      <trkpt lat="48.23673" lon="-2.90782">
        <ele>233.60000610352</ele>
        <time>2020-10-16T14:58:11.000Z</time>
      </trkpt>
      <trkpt lat="48.23673" lon="-2.90782">
        <ele>233.60000610352</ele>
        <time>2020-10-16T14:58:12.000Z</time>
      </trkpt>
      <trkpt lat="48.23673" lon="-2.90782">
        <ele>233.60000610352</ele>
        <time>2020-10-16T14:58:13.000Z</time>
      </trkpt>
      <trkpt lat="48.23673" lon="-2.90782">
        <ele>233.60000610352</ele>
        <time>2020-10-16T14:58:14.000Z</time>
      </trkpt>
      <trkpt lat="48.23673" lon="-2.90782">
        <ele>233.60000610352</ele>
        <time>2020-10-16T14:58:15.000Z</time>
      </trkpt>
      <trkpt lat="48.23673" lon="-2.90782">
        <ele>233.60000610352</ele>
        <time>2020-10-16T14:58:16.000Z</time>
      </trkpt>
      <trkpt lat="48.23673" lon="-2.90782">
        <ele>233.60000610352</ele>
        <time>2020-10-16T14:58:17.000Z</time>
      </trkpt>
      <trkpt lat="48.23673" lon="-2.90782">
        <ele>233.60000610352</ele>
        <time>2020-10-16T14:58:18.000Z</time>
      </trkpt>
      <trkpt lat="48.23673" lon="-2.90782">
        <ele>233.60000610352</ele>
        <time>2020-10-16T14:58:19.000Z</time>
      </trkpt>
      <trkpt lat="48.23673" lon="-2.90782">
        <ele>233.60000610352</ele>
        <time>2020-10-16T14:58:20.000Z</time>
      </trkpt>
      <trkpt lat="48.23673" lon="-2.90782">
        <ele>233.60000610352</ele>
        <time>2020-10-16T14:58:21.000Z</time>
      </trkpt>
      <trkpt lat="48.23673" lon="-2.90782">
        <ele>233.60000610352</ele>
        <time>2020-10-16T14:58:22.000Z</time>
      </trkpt>
      <trkpt lat="48.23673" lon="-2.90782">
        <ele>233.60000610352</ele>
        <time>2020-10-16T14:58:23.000Z</time>
      </trkpt>
      <trkpt lat="48.23673" lon="-2.90782">
        <ele>233.60000610352</ele>
        <time>2020-10-16T14:58:24.000Z</time>
      </trkpt>
      <trkpt lat="48.23673" lon="-2.90782">
        <ele>233.60000610352</ele>
        <time>2020-10-16T14:58:25.000Z</time>
      </trkpt>
      <trkpt lat="48.23673" lon="-2.90782">
        <ele>233.60000610352</ele>
        <time>2020-10-16T14:58:26.000Z</time>
      </trkpt>
      <trkpt lat="48.23673" lon="-2.90782">
        <ele>233.60000610352</ele>
        <time>2020-10-16T14:58:27.000Z</time>
      </trkpt>
      <trkpt lat="48.23673" lon="-2.90782">
        <ele>233.60000610352</ele>
        <time>2020-10-16T14:58:28.000Z</time>
      </trkpt>
      <trkpt lat="48.23673" lon="-2.90782">
        <ele>233.60000610352</ele>
        <time>2020-10-16T14:58:29.000Z</time>
      </trkpt>
      <trkpt lat="48.23673" lon="-2.90782">
        <ele>233.60000610352</ele>
        <time>2020-10-16T14:58:30.000Z</time>
      </trkpt>
      <trkpt lat="48.23673" lon="-2.90782">
        <ele>233.60000610352</ele>
        <time>2020-10-16T14:58:31.000Z</time>
      </trkpt>
      <trkpt lat="48.23673" lon="-2.90782">
        <ele>233.60000610352</ele>
        <time>2020-10-16T14:58:32.000Z</time>
      </trkpt>
      <trkpt lat="48.23673" lon="-2.90782">
        <ele>233.60000610352</ele>
        <time>2020-10-16T14:58:33.000Z</time>
      </trkpt>
      <trkpt lat="48.23673" lon="-2.90782">
        <ele>233.60000610352</ele>
        <time>2020-10-16T14:58:34.000Z</time>
      </trkpt>
      <trkpt lat="48.23673" lon="-2.90782">
        <ele>233.60000610352</ele>
        <time>2020-10-16T14:58:35.000Z</time>
      </trkpt>
      <trkpt lat="48.23673" lon="-2.90782">
        <ele>233.60000610352</ele>
        <time>2020-10-16T14:58:36.000Z</time>
      </trkpt>
      <trkpt lat="48.23673" lon="-2.90782">
        <ele>233.60000610352</ele>
        <time>2020-10-16T14:58:37.000Z</time>
      </trkpt>
      <trkpt lat="48.23673" lon="-2.90782">
        <ele>233.60000610352</ele>
        <time>2020-10-16T14:58:38.000Z</time>
      </trkpt>
      <trkpt lat="48.23673" lon="-2.90782">
        <ele>233.60000610352</ele>
        <time>2020-10-16T14:58:39.000Z</time>
      </trkpt>
      <trkpt lat="48.23673" lon="-2.90782">
        <ele>233.60000610352</ele>
        <time>2020-10-16T14:58:40.000Z</time>
      </trkpt>
      <trkpt lat="48.23673" lon="-2.90782">
        <ele>233.60000610352</ele>
        <time>2020-10-16T14:58:41.000Z</time>
      </trkpt>
      <trkpt lat="48.23673" lon="-2.90782">
        <ele>233.60000610352</ele>
        <time>2020-10-16T14:58:42.000Z</time>
      </trkpt>
      <trkpt lat="48.23673" lon="-2.90782">
        <ele>233.60000610352</ele>
        <time>2020-10-16T14:58:43.000Z</time>
      </trkpt>
      <trkpt lat="48.23673" lon="-2.90782">
        <ele>233.60000610352</ele>
        <time>2020-10-16T14:58:44.000Z</time>
      </trkpt>
      <trkpt lat="48.23673" lon="-2.90782">
        <ele>233.60000610352</ele>
        <time>2020-10-16T14:58:45.000Z</time>
      </trkpt>
      <trkpt lat="48.23673" lon="-2.90782">
        <ele>233.60000610352</ele>
        <time>2020-10-16T14:58:46.000Z</time>
      </trkpt>
      <trkpt lat="48.23673" lon="-2.90782">
        <ele>233.60000610352</ele>
        <time>2020-10-16T14:58:47.000Z</time>
      </trkpt>
      <trkpt lat="48.23673" lon="-2.90782">
        <ele>233.60000610352</ele>
        <time>2020-10-16T14:58:48.000Z</time>
      </trkpt>
      <trkpt lat="48.23673" lon="-2.90782">
        <ele>233.60000610352</ele>
        <time>2020-10-16T14:58:49.000Z</time>
      </trkpt>
      <trkpt lat="48.23673" lon="-2.90782">
        <ele>233.60000610352</ele>
        <time>2020-10-16T14:58:50.000Z</time>
      </trkpt>
      <trkpt lat="48.23673" lon="-2.90782">
        <ele>233.60000610352</ele>
        <time>2020-10-16T14:58:51.000Z</time>
      </trkpt>
      <trkpt lat="48.23673" lon="-2.90782">
        <ele>233.60000610352</ele>
        <time>2020-10-16T14:58:52.000Z</time>
      </trkpt>
      <trkpt lat="48.23673" lon="-2.90782">
        <ele>233.60000610352</ele>
        <time>2020-10-16T14:58:53.000Z</time>
      </trkpt>
      <trkpt lat="48.23673" lon="-2.90782">
        <ele>233.60000610352</ele>
        <time>2020-10-16T14:58:54.000Z</time>
      </trkpt>
      <trkpt lat="48.23673" lon="-2.90782">
        <ele>233.60000610352</ele>
        <time>2020-10-16T14:58:55.000Z</time>
      </trkpt>
      <trkpt lat="48.23673" lon="-2.90782">
        <ele>233.60000610352</ele>
        <time>2020-10-16T14:58:56.000Z</time>
      </trkpt>
      <trkpt lat="48.23673" lon="-2.90782">
        <ele>233.60000610352</ele>
        <time>2020-10-16T14:58:57.000Z</time>
      </trkpt>
      <trkpt lat="48.23673" lon="-2.90782">
        <ele>233.60000610352</ele>
        <time>2020-10-16T14:58:58.000Z</time>
      </trkpt>
      <trkpt lat="48.23673" lon="-2.90782">
        <ele>233.60000610352</ele>
        <time>2020-10-16T14:58:59.000Z</time>
      </trkpt>
      <trkpt lat="48.23673" lon="-2.90782">
        <ele>233.60000610352</ele>
        <time>2020-10-16T14:59:00.000Z</time>
      </trkpt>
      <trkpt lat="48.23673" lon="-2.90782">
        <ele>233.60000610352</ele>
        <time>2020-10-16T14:59:01.000Z</time>
      </trkpt>
      <trkpt lat="48.23673" lon="-2.90782">
        <ele>233.60000610352</ele>
        <time>2020-10-16T14:59:02.000Z</time>
      </trkpt>
      <trkpt lat="48.23673" lon="-2.90782">
        <ele>233.60000610352</ele>
        <time>2020-10-16T14:59:03.000Z</time>
      </trkpt>
      <trkpt lat="48.23673" lon="-2.90782">
        <ele>233.60000610352</ele>
        <time>2020-10-16T14:59:04.000Z</time>
      </trkpt>
      <trkpt lat="48.23673" lon="-2.90782">
        <ele>233.60000610352</ele>
        <time>2020-10-16T14:59:05.000Z</time>
      </trkpt>
      <trkpt lat="48.23673" lon="-2.90782">
        <ele>233.60000610352</ele>
        <time>2020-10-16T14:59:06.000Z</time>
      </trkpt>
      <trkpt lat="48.23673" lon="-2.90782">
        <ele>233.60000610352</ele>
        <time>2020-10-16T14:59:07.000Z</time>
      </trkpt>
      <trkpt lat="48.23673" lon="-2.90782">
        <ele>233.60000610352</ele>
        <time>2020-10-16T14:59:08.000Z</time>
      </trkpt>
      <trkpt lat="48.23673" lon="-2.90782">
        <ele>233.60000610352</ele>
        <time>2020-10-16T14:59:09.000Z</time>
      </trkpt>
      <trkpt lat="48.23673" lon="-2.90781">
        <ele>233.60000610352</ele>
        <time>2020-10-16T14:59:10.000Z</time>
      </trkpt>
      <trkpt lat="48.23673" lon="-2.90781">
        <ele>233.60000610352</ele>
        <time>2020-10-16T14:59:11.000Z</time>
      </trkpt>
      <trkpt lat="48.23673" lon="-2.90779">
        <ele>233.80000305176</ele>
        <time>2020-10-16T14:59:12.000Z</time>
      </trkpt>
      <trkpt lat="48.23674" lon="-2.90774">
        <ele>233.60000610352</ele>
        <time>2020-10-16T14:59:13.000Z</time>
      </trkpt>
      <trkpt lat="48.23674" lon="-2.90774">
        <ele>233.60000610352</ele>
        <time>2020-10-16T14:59:14.000Z</time>
      </trkpt>
      <trkpt lat="48.23674" lon="-2.90771">
        <ele>233.60000610352</ele>
        <time>2020-10-16T14:59:15.000Z</time>
      </trkpt>
      <trkpt lat="48.23675" lon="-2.90763">
        <ele>233.60000610352</ele>
        <time>2020-10-16T14:59:16.000Z</time>
      </trkpt>
      <trkpt lat="48.23675" lon="-2.90763">
        <ele>233.60000610352</ele>
        <time>2020-10-16T14:59:17.000Z</time>
      </trkpt>
      <trkpt lat="48.23675" lon="-2.90754">
        <ele>233.60000610352</ele>
        <time>2020-10-16T14:59:18.000Z</time>
      </trkpt>
      <trkpt lat="48.23675" lon="-2.90754">
        <ele>233.60000610352</ele>
        <time>2020-10-16T14:59:19.000Z</time>
      </trkpt>
      <trkpt lat="48.23675" lon="-2.90745">
        <ele>233.19999694824</ele>
        <time>2020-10-16T14:59:20.000Z</time>
      </trkpt>
      <trkpt lat="48.23675" lon="-2.90745">
        <ele>233.19999694824</ele>
        <time>2020-10-16T14:59:21.000Z</time>
      </trkpt>
      <trkpt lat="48.23676" lon="-2.90734">
        <ele>233</ele>
        <time>2020-10-16T14:59:22.000Z</time>
      </trkpt>
      <trkpt lat="48.23676" lon="-2.90734">
        <ele>233</ele>
        <time>2020-10-16T14:59:23.000Z</time>
      </trkpt>
      <trkpt lat="48.23676" lon="-2.90728">
        <ele>232.80000305176</ele>
        <time>2020-10-16T14:59:24.000Z</time>
      </trkpt>
      <trkpt lat="48.23676" lon="-2.90715">
        <ele>232.19999694824</ele>
        <time>2020-10-16T14:59:25.000Z</time>
      </trkpt>
      <trkpt lat="48.23676" lon="-2.90715">
        <ele>232.19999694824</ele>
        <time>2020-10-16T14:59:26.000Z</time>
      </trkpt>
      <trkpt lat="48.23675" lon="-2.90709">
        <ele>232</ele>
        <time>2020-10-16T14:59:27.000Z</time>
      </trkpt>
      <trkpt lat="48.23676" lon="-2.90697">
        <ele>231.60000610352</ele>
        <time>2020-10-16T14:59:28.000Z</time>
      </trkpt>
      <trkpt lat="48.23676" lon="-2.90697">
        <ele>231.60000610352</ele>
        <time>2020-10-16T14:59:29.000Z</time>
      </trkpt>
      <trkpt lat="48.23676" lon="-2.9069">
        <ele>231.39999389648</ele>
        <time>2020-10-16T14:59:30.000Z</time>
      </trkpt>
      <trkpt lat="48.23676" lon="-2.90677">
        <ele>230.80000305176</ele>
        <time>2020-10-16T14:59:31.000Z</time>
      </trkpt>
      <trkpt lat="48.23676" lon="-2.90677">
        <ele>230.80000305176</ele>
        <time>2020-10-16T14:59:32.000Z</time>
      </trkpt>
      <trkpt lat="48.23677" lon="-2.9067">
        <ele>230.80000305176</ele>
        <time>2020-10-16T14:59:33.000Z</time>
      </trkpt>
      <trkpt lat="48.23677" lon="-2.90656">
        <ele>230.80000305176</ele>
        <time>2020-10-16T14:59:34.000Z</time>
      </trkpt>
      <trkpt lat="48.23677" lon="-2.90656">
        <ele>230.80000305176</ele>
        <time>2020-10-16T14:59:35.000Z</time>
      </trkpt>
      <trkpt lat="48.23677" lon="-2.90649">
        <ele>230.80000305176</ele>
        <time>2020-10-16T14:59:36.000Z</time>
      </trkpt>
      <trkpt lat="48.23678" lon="-2.90636">
        <ele>231</ele>
        <time>2020-10-16T14:59:37.000Z</time>
      </trkpt>
      <trkpt lat="48.23678" lon="-2.90636">
        <ele>231</ele>
        <time>2020-10-16T14:59:38.000Z</time>
      </trkpt>
      <trkpt lat="48.23679" lon="-2.90628">
        <ele>231</ele>
        <time>2020-10-16T14:59:39.000Z</time>
      </trkpt>
      <trkpt lat="48.23679" lon="-2.90613">
        <ele>231</ele>
        <time>2020-10-16T14:59:40.000Z</time>
      </trkpt>
      <trkpt lat="48.23679" lon="-2.90613">
        <ele>231</ele>
        <time>2020-10-16T14:59:41.000Z</time>
      </trkpt>
      <trkpt lat="48.2368" lon="-2.90606">
        <ele>231</ele>
        <time>2020-10-16T14:59:42.000Z</time>
      </trkpt>
      <trkpt lat="48.23682" lon="-2.90591">
        <ele>231.19999694824</ele>
        <time>2020-10-16T14:59:43.000Z</time>
      </trkpt>
      <trkpt lat="48.23683" lon="-2.90584">
        <ele>231</ele>
        <time>2020-10-16T14:59:44.000Z</time>
      </trkpt>
      <trkpt lat="48.23683" lon="-2.90584">
        <ele>231</ele>
        <time>2020-10-16T14:59:45.000Z</time>
      </trkpt>
      <trkpt lat="48.23684" lon="-2.90577">
        <ele>231</ele>
        <time>2020-10-16T14:59:46.000Z</time>
      </trkpt>
      <trkpt lat="48.23685" lon="-2.90562">
        <ele>230.60000610352</ele>
        <time>2020-10-16T14:59:47.000Z</time>
      </trkpt>
      <trkpt lat="48.23685" lon="-2.90562">
        <ele>230.60000610352</ele>
        <time>2020-10-16T14:59:48.000Z</time>
      </trkpt>
      <trkpt lat="48.23686" lon="-2.90547">
        <ele>230.19999694824</ele>
        <time>2020-10-16T14:59:49.000Z</time>
      </trkpt>
      <trkpt lat="48.23686" lon="-2.90547">
        <ele>230.19999694824</ele>
        <time>2020-10-16T14:59:50.000Z</time>
      </trkpt>
      <trkpt lat="48.23687" lon="-2.90539">
        <ele>230.19999694824</ele>
        <time>2020-10-16T14:59:51.000Z</time>
      </trkpt>
      <trkpt lat="48.23688" lon="-2.90523">
        <ele>229.80000305176</ele>
        <time>2020-10-16T14:59:52.000Z</time>
      </trkpt>
      <trkpt lat="48.23688" lon="-2.90523">
        <ele>229.80000305176</ele>
        <time>2020-10-16T14:59:53.000Z</time>
      </trkpt>
      <trkpt lat="48.23689" lon="-2.90516">
        <ele>229.60000610352</ele>
        <time>2020-10-16T14:59:54.000Z</time>
      </trkpt>
      <trkpt lat="48.2369" lon="-2.90499">
        <ele>229.19999694824</ele>
        <time>2020-10-16T14:59:55.000Z</time>
      </trkpt>
      <trkpt lat="48.2369" lon="-2.90499">
        <ele>229.19999694824</ele>
        <time>2020-10-16T14:59:56.000Z</time>
      </trkpt>
      <trkpt lat="48.23691" lon="-2.9049">
        <ele>229</ele>
        <time>2020-10-16T14:59:57.000Z</time>
      </trkpt>
      <trkpt lat="48.23693" lon="-2.90473">
        <ele>228.39999389648</ele>
        <time>2020-10-16T14:59:58.000Z</time>
      </trkpt>
      <trkpt lat="48.23693" lon="-2.90473">
        <ele>228.39999389648</ele>
        <time>2020-10-16T14:59:59.000Z</time>
      </trkpt>
      <trkpt lat="48.23695" lon="-2.90464">
        <ele>228.19999694824</ele>
        <time>2020-10-16T15:00:00.000Z</time>
      </trkpt>
      <trkpt lat="48.23696" lon="-2.90455">
        <ele>228</ele>
        <time>2020-10-16T15:00:01.000Z</time>
      </trkpt>
      <trkpt lat="48.23699" lon="-2.90436">
        <ele>227.39999389648</ele>
        <time>2020-10-16T15:00:02.000Z</time>
      </trkpt>
      <trkpt lat="48.23699" lon="-2.90436">
        <ele>227.39999389648</ele>
        <time>2020-10-16T15:00:03.000Z</time>
      </trkpt>
      <trkpt lat="48.23703" lon="-2.90417">
        <ele>226.80000305176</ele>
        <time>2020-10-16T15:00:04.000Z</time>
      </trkpt>
      <trkpt lat="48.23703" lon="-2.90417">
        <ele>226.80000305176</ele>
        <time>2020-10-16T15:00:05.000Z</time>
      </trkpt>
      <trkpt lat="48.23707" lon="-2.90396">
        <ele>226</ele>
        <time>2020-10-16T15:00:06.000Z</time>
      </trkpt>
      <trkpt lat="48.23707" lon="-2.90396">
        <ele>226</ele>
        <time>2020-10-16T15:00:07.000Z</time>
      </trkpt>
      <trkpt lat="48.23712" lon="-2.90375">
        <ele>225</ele>
        <time>2020-10-16T15:00:08.000Z</time>
      </trkpt>
      <trkpt lat="48.23712" lon="-2.90375">
        <ele>225</ele>
        <time>2020-10-16T15:00:09.000Z</time>
      </trkpt>
      <trkpt lat="48.23717" lon="-2.90352">
        <ele>224</ele>
        <time>2020-10-16T15:00:10.000Z</time>
      </trkpt>
      <trkpt lat="48.23717" lon="-2.90352">
        <ele>224</ele>
        <time>2020-10-16T15:00:11.000Z</time>
      </trkpt>
      <trkpt lat="48.23722" lon="-2.90328">
        <ele>222.80000305176</ele>
        <time>2020-10-16T15:00:12.000Z</time>
      </trkpt>
      <trkpt lat="48.23722" lon="-2.90328">
        <ele>222.80000305176</ele>
        <time>2020-10-16T15:00:13.000Z</time>
      </trkpt>
      <trkpt lat="48.23727" lon="-2.90303">
        <ele>221.60000610352</ele>
        <time>2020-10-16T15:00:14.000Z</time>
      </trkpt>
      <trkpt lat="48.23727" lon="-2.90303">
        <ele>221.60000610352</ele>
        <time>2020-10-16T15:00:15.000Z</time>
      </trkpt>
      <trkpt lat="48.23734" lon="-2.90277">
        <ele>220.60000610352</ele>
        <time>2020-10-16T15:00:16.000Z</time>
      </trkpt>
      <trkpt lat="48.23734" lon="-2.90277">
        <ele>220.60000610352</ele>
        <time>2020-10-16T15:00:17.000Z</time>
      </trkpt>
      <trkpt lat="48.23745" lon="-2.90255">
        <ele>219.80000305176</ele>
        <time>2020-10-16T15:00:18.000Z</time>
      </trkpt>
      <trkpt lat="48.23745" lon="-2.90255">
        <ele>219.80000305176</ele>
        <time>2020-10-16T15:00:19.000Z</time>
      </trkpt>
      <trkpt lat="48.2376" lon="-2.9024">
        <ele>219.60000610352</ele>
        <time>2020-10-16T15:00:20.000Z</time>
      </trkpt>
      <trkpt lat="48.2376" lon="-2.9024">
        <ele>219.60000610352</ele>
        <time>2020-10-16T15:00:21.000Z</time>
      </trkpt>
      <trkpt lat="48.23777" lon="-2.90229">
        <ele>220</ele>
        <time>2020-10-16T15:00:22.000Z</time>
      </trkpt>
      <trkpt lat="48.23777" lon="-2.90229">
        <ele>220</ele>
        <time>2020-10-16T15:00:23.000Z</time>
      </trkpt>
      <trkpt lat="48.23793" lon="-2.90217">
        <ele>220</ele>
        <time>2020-10-16T15:00:24.000Z</time>
      </trkpt>
      <trkpt lat="48.23793" lon="-2.90217">
        <ele>220</ele>
        <time>2020-10-16T15:00:25.000Z</time>
      </trkpt>
      <trkpt lat="48.23806" lon="-2.90201">
        <ele>219.60000610352</ele>
        <time>2020-10-16T15:00:26.000Z</time>
      </trkpt>
      <trkpt lat="48.23806" lon="-2.90201">
        <ele>219.60000610352</ele>
        <time>2020-10-16T15:00:27.000Z</time>
      </trkpt>
      <trkpt lat="48.23816" lon="-2.90179">
        <ele>218.60000610352</ele>
        <time>2020-10-16T15:00:28.000Z</time>
      </trkpt>
      <trkpt lat="48.23816" lon="-2.90179">
        <ele>218.60000610352</ele>
        <time>2020-10-16T15:00:29.000Z</time>
      </trkpt>
      <trkpt lat="48.23823" lon="-2.90153">
        <ele>216.39999389648</ele>
        <time>2020-10-16T15:00:30.000Z</time>
      </trkpt>
      <trkpt lat="48.23823" lon="-2.90153">
        <ele>216.39999389648</ele>
        <time>2020-10-16T15:00:31.000Z</time>
      </trkpt>
      <trkpt lat="48.23826" lon="-2.90124">
        <ele>213.60000610352</ele>
        <time>2020-10-16T15:00:32.000Z</time>
      </trkpt>
      <trkpt lat="48.23826" lon="-2.90124">
        <ele>213.60000610352</ele>
        <time>2020-10-16T15:00:33.000Z</time>
      </trkpt>
      <trkpt lat="48.23829" lon="-2.90095">
        <ele>211</ele>
        <time>2020-10-16T15:00:34.000Z</time>
      </trkpt>
      <trkpt lat="48.23829" lon="-2.90095">
        <ele>211</ele>
        <time>2020-10-16T15:00:35.000Z</time>
      </trkpt>
      <trkpt lat="48.23832" lon="-2.90064">
        <ele>209.39999389648</ele>
        <time>2020-10-16T15:00:36.000Z</time>
      </trkpt>
      <trkpt lat="48.23832" lon="-2.90064">
        <ele>209.39999389648</ele>
        <time>2020-10-16T15:00:37.000Z</time>
      </trkpt>
      <trkpt lat="48.23833" lon="-2.9003">
        <ele>207.80000305176</ele>
        <time>2020-10-16T15:00:38.000Z</time>
      </trkpt>
      <trkpt lat="48.23833" lon="-2.9003">
        <ele>207.80000305176</ele>
        <time>2020-10-16T15:00:39.000Z</time>
      </trkpt>
      <trkpt lat="48.23832" lon="-2.89996">
        <ele>206.19999694824</ele>
        <time>2020-10-16T15:00:40.000Z</time>
      </trkpt>
      <trkpt lat="48.23832" lon="-2.89996">
        <ele>206.19999694824</ele>
        <time>2020-10-16T15:00:41.000Z</time>
      </trkpt>
      <trkpt lat="48.23832" lon="-2.89967">
        <ele>205.19999694824</ele>
        <time>2020-10-16T15:00:42.000Z</time>
      </trkpt>
      <trkpt lat="48.23831" lon="-2.89953">
        <ele>204.80000305176</ele>
        <time>2020-10-16T15:00:43.000Z</time>
      </trkpt>
      <trkpt lat="48.23831" lon="-2.89953">
        <ele>204.80000305176</ele>
        <time>2020-10-16T15:00:44.000Z</time>
      </trkpt>
      <trkpt lat="48.23832" lon="-2.89931">
        <ele>204</ele>
        <time>2020-10-16T15:00:45.000Z</time>
      </trkpt>
      <trkpt lat="48.23832" lon="-2.89931">
        <ele>204</ele>
        <time>2020-10-16T15:00:46.000Z</time>
      </trkpt>
      <trkpt lat="48.23832" lon="-2.89914">
        <ele>203.39999389648</ele>
        <time>2020-10-16T15:00:47.000Z</time>
      </trkpt>
      <trkpt lat="48.23832" lon="-2.89914">
        <ele>203.39999389648</ele>
        <time>2020-10-16T15:00:48.000Z</time>
      </trkpt>
      <trkpt lat="48.2383" lon="-2.89902">
        <ele>203</ele>
        <time>2020-10-16T15:00:49.000Z</time>
      </trkpt>
      <trkpt lat="48.2383" lon="-2.89902">
        <ele>203</ele>
        <time>2020-10-16T15:00:50.000Z</time>
      </trkpt>
      <trkpt lat="48.23828" lon="-2.89896">
        <ele>202.80000305176</ele>
        <time>2020-10-16T15:00:51.000Z</time>
      </trkpt>
      <trkpt lat="48.23828" lon="-2.89896">
        <ele>202.80000305176</ele>
        <time>2020-10-16T15:00:52.000Z</time>
      </trkpt>
      <trkpt lat="48.23826" lon="-2.89891">
        <ele>202.60000610352</ele>
        <time>2020-10-16T15:00:53.000Z</time>
      </trkpt>
      <trkpt lat="48.23826" lon="-2.89891">
        <ele>202.60000610352</ele>
        <time>2020-10-16T15:00:54.000Z</time>
      </trkpt>
      <trkpt lat="48.23825" lon="-2.89882">
        <ele>202.19999694824</ele>
        <time>2020-10-16T15:00:55.000Z</time>
      </trkpt>
      <trkpt lat="48.23825" lon="-2.89882">
        <ele>202.19999694824</ele>
        <time>2020-10-16T15:00:56.000Z</time>
      </trkpt>
      <trkpt lat="48.23826" lon="-2.89872">
        <ele>202</ele>
        <time>2020-10-16T15:00:57.000Z</time>
      </trkpt>
      <trkpt lat="48.23826" lon="-2.89872">
        <ele>202</ele>
        <time>2020-10-16T15:00:58.000Z</time>
      </trkpt>
      <trkpt lat="48.2383" lon="-2.8986">
        <ele>201.60000610352</ele>
        <time>2020-10-16T15:00:59.000Z</time>
      </trkpt>
      <trkpt lat="48.2383" lon="-2.8986">
        <ele>201.60000610352</ele>
        <time>2020-10-16T15:01:00.000Z</time>
      </trkpt>
      <trkpt lat="48.23834" lon="-2.89848">
        <ele>201</ele>
        <time>2020-10-16T15:01:01.000Z</time>
      </trkpt>
      <trkpt lat="48.23834" lon="-2.89848">
        <ele>201</ele>
        <time>2020-10-16T15:01:02.000Z</time>
      </trkpt>
      <trkpt lat="48.23839" lon="-2.89835">
        <ele>200.60000610352</ele>
        <time>2020-10-16T15:01:03.000Z</time>
      </trkpt>
      <trkpt lat="48.23839" lon="-2.89835">
        <ele>200.60000610352</ele>
        <time>2020-10-16T15:01:04.000Z</time>
      </trkpt>
      <trkpt lat="48.23841" lon="-2.89827">
        <ele>200.39999389648</ele>
        <time>2020-10-16T15:01:05.000Z</time>
      </trkpt>
      <trkpt lat="48.23844" lon="-2.8982">
        <ele>200.19999694824</ele>
        <time>2020-10-16T15:01:06.000Z</time>
      </trkpt>
      <trkpt lat="48.23848" lon="-2.89804">
        <ele>199.80000305176</ele>
        <time>2020-10-16T15:01:07.000Z</time>
      </trkpt>
      <trkpt lat="48.23848" lon="-2.89804">
        <ele>199.80000305176</ele>
        <time>2020-10-16T15:01:08.000Z</time>
      </trkpt>
      <trkpt lat="48.23852" lon="-2.89786">
        <ele>199.19999694824</ele>
        <time>2020-10-16T15:01:09.000Z</time>
      </trkpt>
      <trkpt lat="48.23852" lon="-2.89786">
        <ele>199.19999694824</ele>
        <time>2020-10-16T15:01:10.000Z</time>
      </trkpt>
      <trkpt lat="48.23857" lon="-2.89768">
        <ele>198.60000610352</ele>
        <time>2020-10-16T15:01:11.000Z</time>
      </trkpt>
      <trkpt lat="48.23857" lon="-2.89768">
        <ele>198.60000610352</ele>
        <time>2020-10-16T15:01:12.000Z</time>
      </trkpt>
      <trkpt lat="48.23861" lon="-2.89749">
        <ele>198</ele>
        <time>2020-10-16T15:01:13.000Z</time>
      </trkpt>
      <trkpt lat="48.23861" lon="-2.89749">
        <ele>198</ele>
        <time>2020-10-16T15:01:14.000Z</time>
      </trkpt>
      <trkpt lat="48.23865" lon="-2.8973">
        <ele>197.60000610352</ele>
        <time>2020-10-16T15:01:15.000Z</time>
      </trkpt>
      <trkpt lat="48.23865" lon="-2.8973">
        <ele>197.60000610352</ele>
        <time>2020-10-16T15:01:16.000Z</time>
      </trkpt>
      <trkpt lat="48.23869" lon="-2.89712">
        <ele>197</ele>
        <time>2020-10-16T15:01:17.000Z</time>
      </trkpt>
      <trkpt lat="48.23869" lon="-2.89712">
        <ele>197</ele>
        <time>2020-10-16T15:01:18.000Z</time>
      </trkpt>
      <trkpt lat="48.23874" lon="-2.89694">
        <ele>196.39999389648</ele>
        <time>2020-10-16T15:01:19.000Z</time>
      </trkpt>
      <trkpt lat="48.23874" lon="-2.89694">
        <ele>196.39999389648</ele>
        <time>2020-10-16T15:01:20.000Z</time>
      </trkpt>
      <trkpt lat="48.23878" lon="-2.89675">
        <ele>195.80000305176</ele>
        <time>2020-10-16T15:01:21.000Z</time>
      </trkpt>
      <trkpt lat="48.23878" lon="-2.89675">
        <ele>195.80000305176</ele>
        <time>2020-10-16T15:01:22.000Z</time>
      </trkpt>
      <trkpt lat="48.23882" lon="-2.89657">
        <ele>195.80000305176</ele>
        <time>2020-10-16T15:01:23.000Z</time>
      </trkpt>
      <trkpt lat="48.23882" lon="-2.89657">
        <ele>195.80000305176</ele>
        <time>2020-10-16T15:01:24.000Z</time>
      </trkpt>
      <trkpt lat="48.23886" lon="-2.89639">
        <ele>196</ele>
        <time>2020-10-16T15:01:25.000Z</time>
      </trkpt>
      <trkpt lat="48.23886" lon="-2.89639">
        <ele>196</ele>
        <time>2020-10-16T15:01:26.000Z</time>
      </trkpt>
      <trkpt lat="48.2389" lon="-2.89621">
        <ele>196</ele>
        <time>2020-10-16T15:01:27.000Z</time>
      </trkpt>
      <trkpt lat="48.2389" lon="-2.89621">
        <ele>196</ele>
        <time>2020-10-16T15:01:28.000Z</time>
      </trkpt>
      <trkpt lat="48.23894" lon="-2.89603">
        <ele>195.80000305176</ele>
        <time>2020-10-16T15:01:29.000Z</time>
      </trkpt>
      <trkpt lat="48.23894" lon="-2.89603">
        <ele>195.80000305176</ele>
        <time>2020-10-16T15:01:30.000Z</time>
      </trkpt>
      <trkpt lat="48.23897" lon="-2.89585">
        <ele>195.80000305176</ele>
        <time>2020-10-16T15:01:31.000Z</time>
      </trkpt>
      <trkpt lat="48.23897" lon="-2.89585">
        <ele>195.80000305176</ele>
        <time>2020-10-16T15:01:32.000Z</time>
      </trkpt>
      <trkpt lat="48.23901" lon="-2.89568">
        <ele>195.39999389648</ele>
        <time>2020-10-16T15:01:33.000Z</time>
      </trkpt>
      <trkpt lat="48.23901" lon="-2.89568">
        <ele>195.39999389648</ele>
        <time>2020-10-16T15:01:34.000Z</time>
      </trkpt>
      <trkpt lat="48.23905" lon="-2.89551">
        <ele>195.19999694824</ele>
        <time>2020-10-16T15:01:35.000Z</time>
      </trkpt>
      <trkpt lat="48.23905" lon="-2.89551">
        <ele>195.19999694824</ele>
        <time>2020-10-16T15:01:36.000Z</time>
      </trkpt>
      <trkpt lat="48.23909" lon="-2.89534">
        <ele>195</ele>
        <time>2020-10-16T15:01:37.000Z</time>
      </trkpt>
      <trkpt lat="48.23909" lon="-2.89534">
        <ele>195</ele>
        <time>2020-10-16T15:01:38.000Z</time>
      </trkpt>
      <trkpt lat="48.23912" lon="-2.89517">
        <ele>194.60000610352</ele>
        <time>2020-10-16T15:01:39.000Z</time>
      </trkpt>
      <trkpt lat="48.23912" lon="-2.89517">
        <ele>194.60000610352</ele>
        <time>2020-10-16T15:01:40.000Z</time>
      </trkpt>
      <trkpt lat="48.23916" lon="-2.895">
        <ele>194.39999389648</ele>
        <time>2020-10-16T15:01:41.000Z</time>
      </trkpt>
      <trkpt lat="48.23916" lon="-2.895">
        <ele>194.39999389648</ele>
        <time>2020-10-16T15:01:42.000Z</time>
      </trkpt>
      <trkpt lat="48.2392" lon="-2.89482">
        <ele>194</ele>
        <time>2020-10-16T15:01:43.000Z</time>
      </trkpt>
      <trkpt lat="48.2392" lon="-2.89482">
        <ele>194</ele>
        <time>2020-10-16T15:01:44.000Z</time>
      </trkpt>
      <trkpt lat="48.23924" lon="-2.89465">
        <ele>193.80000305176</ele>
        <time>2020-10-16T15:01:45.000Z</time>
      </trkpt>
      <trkpt lat="48.23924" lon="-2.89465">
        <ele>193.80000305176</ele>
        <time>2020-10-16T15:01:46.000Z</time>
      </trkpt>
      <trkpt lat="48.23927" lon="-2.89448">
        <ele>193.60000610352</ele>
        <time>2020-10-16T15:01:47.000Z</time>
      </trkpt>
      <trkpt lat="48.23927" lon="-2.89448">
        <ele>193.60000610352</ele>
        <time>2020-10-16T15:01:48.000Z</time>
      </trkpt>
      <trkpt lat="48.23931" lon="-2.89431">
        <ele>193.19999694824</ele>
        <time>2020-10-16T15:01:49.000Z</time>
      </trkpt>
      <trkpt lat="48.23931" lon="-2.89431">
        <ele>193.19999694824</ele>
        <time>2020-10-16T15:01:50.000Z</time>
      </trkpt>
      <trkpt lat="48.23935" lon="-2.89413">
        <ele>192.80000305176</ele>
        <time>2020-10-16T15:01:51.000Z</time>
      </trkpt>
      <trkpt lat="48.23935" lon="-2.89413">
        <ele>192.80000305176</ele>
        <time>2020-10-16T15:01:52.000Z</time>
      </trkpt>
      <trkpt lat="48.23938" lon="-2.89396">
        <ele>192.60000610352</ele>
        <time>2020-10-16T15:01:53.000Z</time>
      </trkpt>
      <trkpt lat="48.23938" lon="-2.89396">
        <ele>192.60000610352</ele>
        <time>2020-10-16T15:01:54.000Z</time>
      </trkpt>
      <trkpt lat="48.23942" lon="-2.89379">
        <ele>192.39999389648</ele>
        <time>2020-10-16T15:01:55.000Z</time>
      </trkpt>
      <trkpt lat="48.23942" lon="-2.89379">
        <ele>192.39999389648</ele>
        <time>2020-10-16T15:01:56.000Z</time>
      </trkpt>
      <trkpt lat="48.23944" lon="-2.89362">
        <ele>192</ele>
        <time>2020-10-16T15:01:57.000Z</time>
      </trkpt>
      <trkpt lat="48.23944" lon="-2.89362">
        <ele>192</ele>
        <time>2020-10-16T15:01:58.000Z</time>
      </trkpt>
      <trkpt lat="48.23942" lon="-2.89346">
        <ele>192</ele>
        <time>2020-10-16T15:01:59.000Z</time>
      </trkpt>
      <trkpt lat="48.23941" lon="-2.89338">
        <ele>191.80000305176</ele>
        <time>2020-10-16T15:02:00.000Z</time>
      </trkpt>
      <trkpt lat="48.2394" lon="-2.8933">
        <ele>191.60000610352</ele>
        <time>2020-10-16T15:02:01.000Z</time>
      </trkpt>
      <trkpt lat="48.2394" lon="-2.8933">
        <ele>191.60000610352</ele>
        <time>2020-10-16T15:02:02.000Z</time>
      </trkpt>
      <trkpt lat="48.23938" lon="-2.89323">
        <ele>191.60000610352</ele>
        <time>2020-10-16T15:02:03.000Z</time>
      </trkpt>
      <trkpt lat="48.23935" lon="-2.89309">
        <ele>191.39999389648</ele>
        <time>2020-10-16T15:02:04.000Z</time>
      </trkpt>
      <trkpt lat="48.23935" lon="-2.89309">
        <ele>191.39999389648</ele>
        <time>2020-10-16T15:02:05.000Z</time>
      </trkpt>
      <trkpt lat="48.23932" lon="-2.89296">
        <ele>191.39999389648</ele>
        <time>2020-10-16T15:02:06.000Z</time>
      </trkpt>
      <trkpt lat="48.23932" lon="-2.89296">
        <ele>191.39999389648</ele>
        <time>2020-10-16T15:02:07.000Z</time>
      </trkpt>
      <trkpt lat="48.2393" lon="-2.89282">
        <ele>191.19999694824</ele>
        <time>2020-10-16T15:02:08.000Z</time>
      </trkpt>
      <trkpt lat="48.2393" lon="-2.89282">
        <ele>191.19999694824</ele>
        <time>2020-10-16T15:02:09.000Z</time>
      </trkpt>
      <trkpt lat="48.23927" lon="-2.89268">
        <ele>191.19999694824</ele>
        <time>2020-10-16T15:02:10.000Z</time>
      </trkpt>
      <trkpt lat="48.23927" lon="-2.89268">
        <ele>191.19999694824</ele>
        <time>2020-10-16T15:02:11.000Z</time>
      </trkpt>
      <trkpt lat="48.23924" lon="-2.89254">
        <ele>191</ele>
        <time>2020-10-16T15:02:12.000Z</time>
      </trkpt>
      <trkpt lat="48.23924" lon="-2.89254">
        <ele>191</ele>
        <time>2020-10-16T15:02:13.000Z</time>
      </trkpt>
      <trkpt lat="48.23921" lon="-2.8924">
        <ele>191</ele>
        <time>2020-10-16T15:02:14.000Z</time>
      </trkpt>
      <trkpt lat="48.23921" lon="-2.8924">
        <ele>191</ele>
        <time>2020-10-16T15:02:15.000Z</time>
      </trkpt>
      <trkpt lat="48.23919" lon="-2.89226">
        <ele>191.19999694824</ele>
        <time>2020-10-16T15:02:16.000Z</time>
      </trkpt>
      <trkpt lat="48.23919" lon="-2.89226">
        <ele>191.19999694824</ele>
        <time>2020-10-16T15:02:17.000Z</time>
      </trkpt>
      <trkpt lat="48.23917" lon="-2.89211">
        <ele>191.19999694824</ele>
        <time>2020-10-16T15:02:18.000Z</time>
      </trkpt>
      <trkpt lat="48.23917" lon="-2.89211">
        <ele>191.19999694824</ele>
        <time>2020-10-16T15:02:19.000Z</time>
      </trkpt>
      <trkpt lat="48.23917" lon="-2.89196">
        <ele>191.19999694824</ele>
        <time>2020-10-16T15:02:20.000Z</time>
      </trkpt>
      <trkpt lat="48.23917" lon="-2.89196">
        <ele>191.19999694824</ele>
        <time>2020-10-16T15:02:21.000Z</time>
      </trkpt>
      <trkpt lat="48.23917" lon="-2.8918">
        <ele>191</ele>
        <time>2020-10-16T15:02:22.000Z</time>
      </trkpt>
      <trkpt lat="48.23917" lon="-2.8918">
        <ele>191</ele>
        <time>2020-10-16T15:02:23.000Z</time>
      </trkpt>
      <trkpt lat="48.23917" lon="-2.89165">
        <ele>190.80000305176</ele>
        <time>2020-10-16T15:02:24.000Z</time>
      </trkpt>
      <trkpt lat="48.23917" lon="-2.89165">
        <ele>190.80000305176</ele>
        <time>2020-10-16T15:02:25.000Z</time>
      </trkpt>
      <trkpt lat="48.23917" lon="-2.89149">
        <ele>190.80000305176</ele>
        <time>2020-10-16T15:02:26.000Z</time>
      </trkpt>
      <trkpt lat="48.23917" lon="-2.89149">
        <ele>190.80000305176</ele>
        <time>2020-10-16T15:02:27.000Z</time>
      </trkpt>
      <trkpt lat="48.23916" lon="-2.89134">
        <ele>190.60000610352</ele>
        <time>2020-10-16T15:02:28.000Z</time>
      </trkpt>
      <trkpt lat="48.23916" lon="-2.89134">
        <ele>190.60000610352</ele>
        <time>2020-10-16T15:02:29.000Z</time>
      </trkpt>
      <trkpt lat="48.23915" lon="-2.89126">
        <ele>190.39999389648</ele>
        <time>2020-10-16T15:02:30.000Z</time>
      </trkpt>
      <trkpt lat="48.23914" lon="-2.8911">
        <ele>190.19999694824</ele>
        <time>2020-10-16T15:02:31.000Z</time>
      </trkpt>
      <trkpt lat="48.23914" lon="-2.8911">
        <ele>190.19999694824</ele>
        <time>2020-10-16T15:02:32.000Z</time>
      </trkpt>
      <trkpt lat="48.23914" lon="-2.89102">
        <ele>190.19999694824</ele>
        <time>2020-10-16T15:02:33.000Z</time>
      </trkpt>
      <trkpt lat="48.23914" lon="-2.89086">
        <ele>190</ele>
        <time>2020-10-16T15:02:34.000Z</time>
      </trkpt>
      <trkpt lat="48.23914" lon="-2.89086">
        <ele>190</ele>
        <time>2020-10-16T15:02:35.000Z</time>
      </trkpt>
      <trkpt lat="48.23914" lon="-2.89077">
        <ele>189.80000305176</ele>
        <time>2020-10-16T15:02:36.000Z</time>
      </trkpt>
      <trkpt lat="48.23914" lon="-2.89061">
        <ele>189.39999389648</ele>
        <time>2020-10-16T15:02:37.000Z</time>
      </trkpt>
      <trkpt lat="48.23914" lon="-2.89061">
        <ele>189.39999389648</ele>
        <time>2020-10-16T15:02:38.000Z</time>
      </trkpt>
      <trkpt lat="48.23917" lon="-2.89044">
        <ele>189</ele>
        <time>2020-10-16T15:02:39.000Z</time>
      </trkpt>
      <trkpt lat="48.23917" lon="-2.89044">
        <ele>189</ele>
        <time>2020-10-16T15:02:40.000Z</time>
      </trkpt>
      <trkpt lat="48.2392" lon="-2.89025">
        <ele>188.60000610352</ele>
        <time>2020-10-16T15:02:41.000Z</time>
      </trkpt>
      <trkpt lat="48.23922" lon="-2.89016">
        <ele>188.39999389648</ele>
        <time>2020-10-16T15:02:42.000Z</time>
      </trkpt>
      <trkpt lat="48.23922" lon="-2.89016">
        <ele>188.39999389648</ele>
        <time>2020-10-16T15:02:43.000Z</time>
      </trkpt>
      <trkpt lat="48.23926" lon="-2.88998">
        <ele>188</ele>
        <time>2020-10-16T15:02:44.000Z</time>
      </trkpt>
      <trkpt lat="48.23926" lon="-2.88998">
        <ele>188</ele>
        <time>2020-10-16T15:02:45.000Z</time>
      </trkpt>
      <trkpt lat="48.23928" lon="-2.88989">
        <ele>187.80000305176</ele>
        <time>2020-10-16T15:02:46.000Z</time>
      </trkpt>
      <trkpt lat="48.23932" lon="-2.8897">
        <ele>187.39999389648</ele>
        <time>2020-10-16T15:02:47.000Z</time>
      </trkpt>
      <trkpt lat="48.23932" lon="-2.8897">
        <ele>187.39999389648</ele>
        <time>2020-10-16T15:02:48.000Z</time>
      </trkpt>
      <trkpt lat="48.23934" lon="-2.8896">
        <ele>187.19999694824</ele>
        <time>2020-10-16T15:02:49.000Z</time>
      </trkpt>
      <trkpt lat="48.23935" lon="-2.88942">
        <ele>186.80000305176</ele>
        <time>2020-10-16T15:02:50.000Z</time>
      </trkpt>
      <trkpt lat="48.23935" lon="-2.88942">
        <ele>186.80000305176</ele>
        <time>2020-10-16T15:02:51.000Z</time>
      </trkpt>
      <trkpt lat="48.23935" lon="-2.88923">
        <ele>186.60000610352</ele>
        <time>2020-10-16T15:02:52.000Z</time>
      </trkpt>
      <trkpt lat="48.23935" lon="-2.88923">
        <ele>186.60000610352</ele>
        <time>2020-10-16T15:02:53.000Z</time>
      </trkpt>
      <trkpt lat="48.23935" lon="-2.88915">
        <ele>186.39999389648</ele>
        <time>2020-10-16T15:02:54.000Z</time>
      </trkpt>
      <trkpt lat="48.23935" lon="-2.88898">
        <ele>186</ele>
        <time>2020-10-16T15:02:55.000Z</time>
      </trkpt>
      <trkpt lat="48.23935" lon="-2.88898">
        <ele>186</ele>
        <time>2020-10-16T15:02:56.000Z</time>
      </trkpt>
      <trkpt lat="48.23937" lon="-2.88889">
        <ele>185.60000610352</ele>
        <time>2020-10-16T15:02:57.000Z</time>
      </trkpt>
      <trkpt lat="48.23943" lon="-2.88872">
        <ele>184.80000305176</ele>
        <time>2020-10-16T15:02:58.000Z</time>
      </trkpt>
      <trkpt lat="48.23943" lon="-2.88872">
        <ele>184.80000305176</ele>
        <time>2020-10-16T15:02:59.000Z</time>
      </trkpt>
      <trkpt lat="48.23948" lon="-2.88864">
        <ele>184.19999694824</ele>
        <time>2020-10-16T15:03:00.000Z</time>
      </trkpt>
      <trkpt lat="48.23959" lon="-2.88848">
        <ele>183</ele>
        <time>2020-10-16T15:03:01.000Z</time>
      </trkpt>
      <trkpt lat="48.23965" lon="-2.88839">
        <ele>182.39999389648</ele>
        <time>2020-10-16T15:03:02.000Z</time>
      </trkpt>
      <trkpt lat="48.23965" lon="-2.88839">
        <ele>182.39999389648</ele>
        <time>2020-10-16T15:03:03.000Z</time>
      </trkpt>
      <trkpt lat="48.23978" lon="-2.88821">
        <ele>181.19999694824</ele>
        <time>2020-10-16T15:03:04.000Z</time>
      </trkpt>
      <trkpt lat="48.23978" lon="-2.88821">
        <ele>181.19999694824</ele>
        <time>2020-10-16T15:03:05.000Z</time>
      </trkpt>
      <trkpt lat="48.23984" lon="-2.88812">
        <ele>180.60000610352</ele>
        <time>2020-10-16T15:03:06.000Z</time>
      </trkpt>
      <trkpt lat="48.23998" lon="-2.88792">
        <ele>179.39999389648</ele>
        <time>2020-10-16T15:03:07.000Z</time>
      </trkpt>
      <trkpt lat="48.23998" lon="-2.88792">
        <ele>179.39999389648</ele>
        <time>2020-10-16T15:03:08.000Z</time>
      </trkpt>
      <trkpt lat="48.24005" lon="-2.88781">
        <ele>178.80000305176</ele>
        <time>2020-10-16T15:03:09.000Z</time>
      </trkpt>
      <trkpt lat="48.24017" lon="-2.88757">
        <ele>177.60000610352</ele>
        <time>2020-10-16T15:03:10.000Z</time>
      </trkpt>
      <trkpt lat="48.24017" lon="-2.88757">
        <ele>177.60000610352</ele>
        <time>2020-10-16T15:03:11.000Z</time>
      </trkpt>
      <trkpt lat="48.24022" lon="-2.88745">
        <ele>177.39999389648</ele>
        <time>2020-10-16T15:03:12.000Z</time>
      </trkpt>
      <trkpt lat="48.24027" lon="-2.88718">
        <ele>176.80000305176</ele>
        <time>2020-10-16T15:03:13.000Z</time>
      </trkpt>
      <trkpt lat="48.24027" lon="-2.88718">
        <ele>176.80000305176</ele>
        <time>2020-10-16T15:03:14.000Z</time>
      </trkpt>
      <trkpt lat="48.24028" lon="-2.88691">
        <ele>176.39999389648</ele>
        <time>2020-10-16T15:03:15.000Z</time>
      </trkpt>
      <trkpt lat="48.24028" lon="-2.88691">
        <ele>176.39999389648</ele>
        <time>2020-10-16T15:03:16.000Z</time>
      </trkpt>
      <trkpt lat="48.24027" lon="-2.88678">
        <ele>176.39999389648</ele>
        <time>2020-10-16T15:03:17.000Z</time>
      </trkpt>
      <trkpt lat="48.24025" lon="-2.88654">
        <ele>176.19999694824</ele>
        <time>2020-10-16T15:03:18.000Z</time>
      </trkpt>
      <trkpt lat="48.24025" lon="-2.88654">
        <ele>176.19999694824</ele>
        <time>2020-10-16T15:03:19.000Z</time>
      </trkpt>
      <trkpt lat="48.24023" lon="-2.88631">
        <ele>176.39999389648</ele>
        <time>2020-10-16T15:03:20.000Z</time>
      </trkpt>
      <trkpt lat="48.24022" lon="-2.8862">
        <ele>176.39999389648</ele>
        <time>2020-10-16T15:03:21.000Z</time>
      </trkpt>
      <trkpt lat="48.24022" lon="-2.8862">
        <ele>176.39999389648</ele>
        <time>2020-10-16T15:03:22.000Z</time>
      </trkpt>
      <trkpt lat="48.24022" lon="-2.8861">
        <ele>176.39999389648</ele>
        <time>2020-10-16T15:03:23.000Z</time>
      </trkpt>
      <trkpt lat="48.24024" lon="-2.88589">
        <ele>176.19999694824</ele>
        <time>2020-10-16T15:03:24.000Z</time>
      </trkpt>
      <trkpt lat="48.24024" lon="-2.88589">
        <ele>176.19999694824</ele>
        <time>2020-10-16T15:03:25.000Z</time>
      </trkpt>
      <trkpt lat="48.24026" lon="-2.88569">
        <ele>175.80000305176</ele>
        <time>2020-10-16T15:03:26.000Z</time>
      </trkpt>
      <trkpt lat="48.24026" lon="-2.88569">
        <ele>175.80000305176</ele>
        <time>2020-10-16T15:03:27.000Z</time>
      </trkpt>
      <trkpt lat="48.24028" lon="-2.88559">
        <ele>175.60000610352</ele>
        <time>2020-10-16T15:03:28.000Z</time>
      </trkpt>
      <trkpt lat="48.24031" lon="-2.88541">
        <ele>175</ele>
        <time>2020-10-16T15:03:29.000Z</time>
      </trkpt>
      <trkpt lat="48.24031" lon="-2.88541">
        <ele>175</ele>
        <time>2020-10-16T15:03:30.000Z</time>
      </trkpt>
      <trkpt lat="48.24035" lon="-2.88523">
        <ele>174.39999389648</ele>
        <time>2020-10-16T15:03:31.000Z</time>
      </trkpt>
      <trkpt lat="48.24035" lon="-2.88523">
        <ele>174.39999389648</ele>
        <time>2020-10-16T15:03:32.000Z</time>
      </trkpt>
      <trkpt lat="48.24036" lon="-2.88514">
        <ele>174</ele>
        <time>2020-10-16T15:03:33.000Z</time>
      </trkpt>
      <trkpt lat="48.24039" lon="-2.88496">
        <ele>173.60000610352</ele>
        <time>2020-10-16T15:03:34.000Z</time>
      </trkpt>
      <trkpt lat="48.24039" lon="-2.88496">
        <ele>173.60000610352</ele>
        <time>2020-10-16T15:03:35.000Z</time>
      </trkpt>
      <trkpt lat="48.24041" lon="-2.88487">
        <ele>173.60000610352</ele>
        <time>2020-10-16T15:03:36.000Z</time>
      </trkpt>
      <trkpt lat="48.24045" lon="-2.8847">
        <ele>173.39999389648</ele>
        <time>2020-10-16T15:03:37.000Z</time>
      </trkpt>
      <trkpt lat="48.24045" lon="-2.8847">
        <ele>173.39999389648</ele>
        <time>2020-10-16T15:03:38.000Z</time>
      </trkpt>
      <trkpt lat="48.24048" lon="-2.88461">
        <ele>173.39999389648</ele>
        <time>2020-10-16T15:03:39.000Z</time>
      </trkpt>
      <trkpt lat="48.24052" lon="-2.88445">
        <ele>173.39999389648</ele>
        <time>2020-10-16T15:03:40.000Z</time>
      </trkpt>
      <trkpt lat="48.24052" lon="-2.88445">
        <ele>173.39999389648</ele>
        <time>2020-10-16T15:03:41.000Z</time>
      </trkpt>
      <trkpt lat="48.24056" lon="-2.88429">
        <ele>173.19999694824</ele>
        <time>2020-10-16T15:03:42.000Z</time>
      </trkpt>
      <trkpt lat="48.24056" lon="-2.88429">
        <ele>173.19999694824</ele>
        <time>2020-10-16T15:03:43.000Z</time>
      </trkpt>
      <trkpt lat="48.24058" lon="-2.88422">
        <ele>173.39999389648</ele>
        <time>2020-10-16T15:03:44.000Z</time>
      </trkpt>
      <trkpt lat="48.24061" lon="-2.88407">
        <ele>173.80000305176</ele>
        <time>2020-10-16T15:03:45.000Z</time>
      </trkpt>
      <trkpt lat="48.24061" lon="-2.88407">
        <ele>173.80000305176</ele>
        <time>2020-10-16T15:03:46.000Z</time>
      </trkpt>
      <trkpt lat="48.24062" lon="-2.884">
        <ele>174.19999694824</ele>
        <time>2020-10-16T15:03:47.000Z</time>
      </trkpt>
      <trkpt lat="48.24064" lon="-2.88387">
        <ele>174.60000610352</ele>
        <time>2020-10-16T15:03:48.000Z</time>
      </trkpt>
      <trkpt lat="48.24064" lon="-2.88387">
        <ele>174.60000610352</ele>
        <time>2020-10-16T15:03:49.000Z</time>
      </trkpt>
      <trkpt lat="48.24066" lon="-2.88381">
        <ele>174.80000305176</ele>
        <time>2020-10-16T15:03:50.000Z</time>
      </trkpt>
      <trkpt lat="48.24068" lon="-2.8837">
        <ele>175.19999694824</ele>
        <time>2020-10-16T15:03:51.000Z</time>
      </trkpt>
      <trkpt lat="48.24068" lon="-2.8837">
        <ele>175.19999694824</ele>
        <time>2020-10-16T15:03:52.000Z</time>
      </trkpt>
      <trkpt lat="48.2407" lon="-2.88359">
        <ele>175.80000305176</ele>
        <time>2020-10-16T15:03:53.000Z</time>
      </trkpt>
      <trkpt lat="48.2407" lon="-2.88359">
        <ele>175.80000305176</ele>
        <time>2020-10-16T15:03:54.000Z</time>
      </trkpt>
      <trkpt lat="48.24072" lon="-2.88349">
        <ele>176.39999389648</ele>
        <time>2020-10-16T15:03:55.000Z</time>
      </trkpt>
      <trkpt lat="48.24072" lon="-2.88349">
        <ele>176.39999389648</ele>
        <time>2020-10-16T15:03:56.000Z</time>
      </trkpt>
      <trkpt lat="48.24074" lon="-2.88339">
        <ele>176.80000305176</ele>
        <time>2020-10-16T15:03:57.000Z</time>
      </trkpt>
      <trkpt lat="48.24074" lon="-2.88339">
        <ele>176.80000305176</ele>
        <time>2020-10-16T15:03:58.000Z</time>
      </trkpt>
      <trkpt lat="48.24074" lon="-2.88334">
        <ele>177.19999694824</ele>
        <time>2020-10-16T15:03:59.000Z</time>
      </trkpt>
      <trkpt lat="48.24075" lon="-2.88325">
        <ele>177.60000610352</ele>
        <time>2020-10-16T15:04:00.000Z</time>
      </trkpt>
      <trkpt lat="48.24075" lon="-2.88325">
        <ele>177.60000610352</ele>
        <time>2020-10-16T15:04:01.000Z</time>
      </trkpt>
      <trkpt lat="48.24077" lon="-2.88315">
        <ele>178</ele>
        <time>2020-10-16T15:04:02.000Z</time>
      </trkpt>
      <trkpt lat="48.24077" lon="-2.88315">
        <ele>178</ele>
        <time>2020-10-16T15:04:03.000Z</time>
      </trkpt>
      <trkpt lat="48.24079" lon="-2.88306">
        <ele>178.39999389648</ele>
        <time>2020-10-16T15:04:04.000Z</time>
      </trkpt>
      <trkpt lat="48.24079" lon="-2.88306">
        <ele>178.39999389648</ele>
        <time>2020-10-16T15:04:05.000Z</time>
      </trkpt>
      <trkpt lat="48.2408" lon="-2.88301">
        <ele>178.60000610352</ele>
        <time>2020-10-16T15:04:06.000Z</time>
      </trkpt>
      <trkpt lat="48.24082" lon="-2.88292">
        <ele>179</ele>
        <time>2020-10-16T15:04:07.000Z</time>
      </trkpt>
      <trkpt lat="48.24082" lon="-2.88292">
        <ele>179</ele>
        <time>2020-10-16T15:04:08.000Z</time>
      </trkpt>
      <trkpt lat="48.24083" lon="-2.88288">
        <ele>179.19999694824</ele>
        <time>2020-10-16T15:04:09.000Z</time>
      </trkpt>
      <trkpt lat="48.24084" lon="-2.8828">
        <ele>179.60000610352</ele>
        <time>2020-10-16T15:04:10.000Z</time>
      </trkpt>
      <trkpt lat="48.24084" lon="-2.8828">
        <ele>179.60000610352</ele>
        <time>2020-10-16T15:04:11.000Z</time>
      </trkpt>
      <trkpt lat="48.24083" lon="-2.88277">
        <ele>179.80000305176</ele>
        <time>2020-10-16T15:04:12.000Z</time>
      </trkpt>
      <trkpt lat="48.24081" lon="-2.88272">
        <ele>180.19999694824</ele>
        <time>2020-10-16T15:04:13.000Z</time>
      </trkpt>
      <trkpt lat="48.24081" lon="-2.88272">
        <ele>180.19999694824</ele>
        <time>2020-10-16T15:04:14.000Z</time>
      </trkpt>
      <trkpt lat="48.2408" lon="-2.8827">
        <ele>180.39999389648</ele>
        <time>2020-10-16T15:04:15.000Z</time>
      </trkpt>
      <trkpt lat="48.24077" lon="-2.88267">
        <ele>180.60000610352</ele>
        <time>2020-10-16T15:04:16.000Z</time>
      </trkpt>
      <trkpt lat="48.24077" lon="-2.88267">
        <ele>180.60000610352</ele>
        <time>2020-10-16T15:04:17.000Z</time>
      </trkpt>
      <trkpt lat="48.24075" lon="-2.88266">
        <ele>180.60000610352</ele>
        <time>2020-10-16T15:04:18.000Z</time>
      </trkpt>
      <trkpt lat="48.24072" lon="-2.88266">
        <ele>180.80000305176</ele>
        <time>2020-10-16T15:04:19.000Z</time>
      </trkpt>
      <trkpt lat="48.24071" lon="-2.88267">
        <ele>180.80000305176</ele>
        <time>2020-10-16T15:04:20.000Z</time>
      </trkpt>
      <trkpt lat="48.24071" lon="-2.88267">
        <ele>180.80000305176</ele>
        <time>2020-10-16T15:04:21.000Z</time>
      </trkpt>
      <trkpt lat="48.24068" lon="-2.88266">
        <ele>180.80000305176</ele>
        <time>2020-10-16T15:04:22.000Z</time>
      </trkpt>
      <trkpt lat="48.24068" lon="-2.88266">
        <ele>180.80000305176</ele>
        <time>2020-10-16T15:04:23.000Z</time>
      </trkpt>
      <trkpt lat="48.24067" lon="-2.88265">
        <ele>181</ele>
        <time>2020-10-16T15:04:24.000Z</time>
      </trkpt>
      <trkpt lat="48.24065" lon="-2.88263">
        <ele>181</ele>
        <time>2020-10-16T15:04:25.000Z</time>
      </trkpt>
      <trkpt lat="48.24065" lon="-2.88263">
        <ele>181</ele>
        <time>2020-10-16T15:04:26.000Z</time>
      </trkpt>
      <trkpt lat="48.24064" lon="-2.88261">
        <ele>181</ele>
        <time>2020-10-16T15:04:27.000Z</time>
      </trkpt>
      <trkpt lat="48.24062" lon="-2.88258">
        <ele>181.19999694824</ele>
        <time>2020-10-16T15:04:28.000Z</time>
      </trkpt>
      <trkpt lat="48.24062" lon="-2.88258">
        <ele>181.19999694824</ele>
        <time>2020-10-16T15:04:29.000Z</time>
      </trkpt>
      <trkpt lat="48.2406" lon="-2.88257">
        <ele>181.19999694824</ele>
        <time>2020-10-16T15:04:30.000Z</time>
      </trkpt>
      <trkpt lat="48.24058" lon="-2.88256">
        <ele>181.39999389648</ele>
        <time>2020-10-16T15:04:31.000Z</time>
      </trkpt>
      <trkpt lat="48.24053" lon="-2.88253">
        <ele>181.60000610352</ele>
        <time>2020-10-16T15:04:32.000Z</time>
      </trkpt>
      <trkpt lat="48.24053" lon="-2.88253">
        <ele>181.60000610352</ele>
        <time>2020-10-16T15:04:33.000Z</time>
      </trkpt>
      <trkpt lat="48.24051" lon="-2.88252">
        <ele>181.60000610352</ele>
        <time>2020-10-16T15:04:34.000Z</time>
      </trkpt>
      <trkpt lat="48.24046" lon="-2.8825">
        <ele>182</ele>
        <time>2020-10-16T15:04:35.000Z</time>
      </trkpt>
      <trkpt lat="48.24046" lon="-2.8825">
        <ele>182</ele>
        <time>2020-10-16T15:04:36.000Z</time>
      </trkpt>
      <trkpt lat="48.24041" lon="-2.88246">
        <ele>182.19999694824</ele>
        <time>2020-10-16T15:04:37.000Z</time>
      </trkpt>
      <trkpt lat="48.24041" lon="-2.88246">
        <ele>182.19999694824</ele>
        <time>2020-10-16T15:04:38.000Z</time>
      </trkpt>
      <trkpt lat="48.24038" lon="-2.88243">
        <ele>182.39999389648</ele>
        <time>2020-10-16T15:04:39.000Z</time>
      </trkpt>
      <trkpt lat="48.24034" lon="-2.88236">
        <ele>182.80000305176</ele>
        <time>2020-10-16T15:04:40.000Z</time>
      </trkpt>
      <trkpt lat="48.24034" lon="-2.88236">
        <ele>182.80000305176</ele>
        <time>2020-10-16T15:04:41.000Z</time>
      </trkpt>
      <trkpt lat="48.24032" lon="-2.88232">
        <ele>182.60000610352</ele>
        <time>2020-10-16T15:04:42.000Z</time>
      </trkpt>
      <trkpt lat="48.24028" lon="-2.88224">
        <ele>182.39999389648</ele>
        <time>2020-10-16T15:04:43.000Z</time>
      </trkpt>
      <trkpt lat="48.24028" lon="-2.88224">
        <ele>182.39999389648</ele>
        <time>2020-10-16T15:04:44.000Z</time>
      </trkpt>
      <trkpt lat="48.24026" lon="-2.8822">
        <ele>182.19999694824</ele>
        <time>2020-10-16T15:04:45.000Z</time>
      </trkpt>
      <trkpt lat="48.24022" lon="-2.88212">
        <ele>182</ele>
        <time>2020-10-16T15:04:46.000Z</time>
      </trkpt>
      <trkpt lat="48.24022" lon="-2.88212">
        <ele>182</ele>
        <time>2020-10-16T15:04:47.000Z</time>
      </trkpt>
      <trkpt lat="48.24018" lon="-2.88202">
        <ele>181.80000305176</ele>
        <time>2020-10-16T15:04:48.000Z</time>
      </trkpt>
      <trkpt lat="48.24018" lon="-2.88202">
        <ele>181.80000305176</ele>
        <time>2020-10-16T15:04:49.000Z</time>
      </trkpt>
      <trkpt lat="48.24016" lon="-2.88197">
        <ele>181.60000610352</ele>
        <time>2020-10-16T15:04:50.000Z</time>
      </trkpt>
      <trkpt lat="48.24012" lon="-2.88188">
        <ele>181.39999389648</ele>
        <time>2020-10-16T15:04:51.000Z</time>
      </trkpt>
      <trkpt lat="48.24012" lon="-2.88188">
        <ele>181.39999389648</ele>
        <time>2020-10-16T15:04:52.000Z</time>
      </trkpt>
      <trkpt lat="48.2401" lon="-2.88183">
        <ele>181.19999694824</ele>
        <time>2020-10-16T15:04:53.000Z</time>
      </trkpt>
      <trkpt lat="48.24006" lon="-2.88173">
        <ele>180.60000610352</ele>
        <time>2020-10-16T15:04:54.000Z</time>
      </trkpt>
      <trkpt lat="48.24006" lon="-2.88173">
        <ele>180.60000610352</ele>
        <time>2020-10-16T15:04:55.000Z</time>
      </trkpt>
      <trkpt lat="48.24002" lon="-2.88161">
        <ele>180</ele>
        <time>2020-10-16T15:04:56.000Z</time>
      </trkpt>
      <trkpt lat="48.24002" lon="-2.88161">
        <ele>180</ele>
        <time>2020-10-16T15:04:57.000Z</time>
      </trkpt>
      <trkpt lat="48.24" lon="-2.88155">
        <ele>179.60000610352</ele>
        <time>2020-10-16T15:04:58.000Z</time>
      </trkpt>
      <trkpt lat="48.23995" lon="-2.88142">
        <ele>178.60000610352</ele>
        <time>2020-10-16T15:04:59.000Z</time>
      </trkpt>
      <trkpt lat="48.23995" lon="-2.88142">
        <ele>178.60000610352</ele>
        <time>2020-10-16T15:05:00.000Z</time>
      </trkpt>
      <trkpt lat="48.2399" lon="-2.88128">
        <ele>177.80000305176</ele>
        <time>2020-10-16T15:05:01.000Z</time>
      </trkpt>
      <trkpt lat="48.2399" lon="-2.88128">
        <ele>177.80000305176</ele>
        <time>2020-10-16T15:05:02.000Z</time>
      </trkpt>
      <trkpt lat="48.23984" lon="-2.88113">
        <ele>176.80000305176</ele>
        <time>2020-10-16T15:05:03.000Z</time>
      </trkpt>
      <trkpt lat="48.23984" lon="-2.88113">
        <ele>176.80000305176</ele>
        <time>2020-10-16T15:05:04.000Z</time>
      </trkpt>
      <trkpt lat="48.23977" lon="-2.88095">
        <ele>175.60000610352</ele>
        <time>2020-10-16T15:05:05.000Z</time>
      </trkpt>
      <trkpt lat="48.23977" lon="-2.88095">
        <ele>175.60000610352</ele>
        <time>2020-10-16T15:05:06.000Z</time>
      </trkpt>
      <trkpt lat="48.2397" lon="-2.88076">
        <ele>174.19999694824</ele>
        <time>2020-10-16T15:05:07.000Z</time>
      </trkpt>
      <trkpt lat="48.2397" lon="-2.88076">
        <ele>174.19999694824</ele>
        <time>2020-10-16T15:05:08.000Z</time>
      </trkpt>
      <trkpt lat="48.23961" lon="-2.88056">
        <ele>172.60000610352</ele>
        <time>2020-10-16T15:05:09.000Z</time>
      </trkpt>
      <trkpt lat="48.23961" lon="-2.88056">
        <ele>172.60000610352</ele>
        <time>2020-10-16T15:05:10.000Z</time>
      </trkpt>
      <trkpt lat="48.2395" lon="-2.88035">
        <ele>170.80000305176</ele>
        <time>2020-10-16T15:05:11.000Z</time>
      </trkpt>
      <trkpt lat="48.2395" lon="-2.88035">
        <ele>170.80000305176</ele>
        <time>2020-10-16T15:05:12.000Z</time>
      </trkpt>
      <trkpt lat="48.23944" lon="-2.88024">
        <ele>169.80000305176</ele>
        <time>2020-10-16T15:05:13.000Z</time>
      </trkpt>
      <trkpt lat="48.23931" lon="-2.88003">
        <ele>167.80000305176</ele>
        <time>2020-10-16T15:05:14.000Z</time>
      </trkpt>
      <trkpt lat="48.23931" lon="-2.88003">
        <ele>167.80000305176</ele>
        <time>2020-10-16T15:05:15.000Z</time>
      </trkpt>
      <trkpt lat="48.23917" lon="-2.87979">
        <ele>166</ele>
        <time>2020-10-16T15:05:16.000Z</time>
      </trkpt>
      <trkpt lat="48.23917" lon="-2.87979">
        <ele>166</ele>
        <time>2020-10-16T15:05:17.000Z</time>
      </trkpt>
      <trkpt lat="48.2391" lon="-2.87967">
        <ele>165</ele>
        <time>2020-10-16T15:05:18.000Z</time>
      </trkpt>
      <trkpt lat="48.23893" lon="-2.87945">
        <ele>163.19999694824</ele>
        <time>2020-10-16T15:05:19.000Z</time>
      </trkpt>
      <trkpt lat="48.23893" lon="-2.87945">
        <ele>163.19999694824</ele>
        <time>2020-10-16T15:05:20.000Z</time>
      </trkpt>
      <trkpt lat="48.23875" lon="-2.87925">
        <ele>162.19999694824</ele>
        <time>2020-10-16T15:05:21.000Z</time>
      </trkpt>
      <trkpt lat="48.23875" lon="-2.87925">
        <ele>162.19999694824</ele>
        <time>2020-10-16T15:05:22.000Z</time>
      </trkpt>
      <trkpt lat="48.23856" lon="-2.87908">
        <ele>160.39999389648</ele>
        <time>2020-10-16T15:05:23.000Z</time>
      </trkpt>
      <trkpt lat="48.23856" lon="-2.87908">
        <ele>160.39999389648</ele>
        <time>2020-10-16T15:05:24.000Z</time>
      </trkpt>
      <trkpt lat="48.23835" lon="-2.87894">
        <ele>160.80000305176</ele>
        <time>2020-10-16T15:05:25.000Z</time>
      </trkpt>
      <trkpt lat="48.23835" lon="-2.87894">
        <ele>160.80000305176</ele>
        <time>2020-10-16T15:05:26.000Z</time>
      </trkpt>
      <trkpt lat="48.23814" lon="-2.8788">
        <ele>163</ele>
        <time>2020-10-16T15:05:27.000Z</time>
      </trkpt>
      <trkpt lat="48.23814" lon="-2.8788">
        <ele>163</ele>
        <time>2020-10-16T15:05:28.000Z</time>
      </trkpt>
      <trkpt lat="48.23805" lon="-2.87872">
        <ele>163.19999694824</ele>
        <time>2020-10-16T15:05:29.000Z</time>
      </trkpt>
      <trkpt lat="48.23787" lon="-2.87855">
        <ele>162.19999694824</ele>
        <time>2020-10-16T15:05:30.000Z</time>
      </trkpt>
      <trkpt lat="48.23787" lon="-2.87855">
        <ele>162.19999694824</ele>
        <time>2020-10-16T15:05:31.000Z</time>
      </trkpt>
      <trkpt lat="48.23778" lon="-2.87847">
        <ele>161.80000305176</ele>
        <time>2020-10-16T15:05:32.000Z</time>
      </trkpt>
      <trkpt lat="48.23762" lon="-2.87829">
        <ele>161</ele>
        <time>2020-10-16T15:05:33.000Z</time>
      </trkpt>
      <trkpt lat="48.23762" lon="-2.87829">
        <ele>161</ele>
        <time>2020-10-16T15:05:34.000Z</time>
      </trkpt>
      <trkpt lat="48.23755" lon="-2.87821">
        <ele>160.39999389648</ele>
        <time>2020-10-16T15:05:35.000Z</time>
      </trkpt>
      <trkpt lat="48.23742" lon="-2.87805">
        <ele>159</ele>
        <time>2020-10-16T15:05:36.000Z</time>
      </trkpt>
      <trkpt lat="48.23742" lon="-2.87805">
        <ele>159</ele>
        <time>2020-10-16T15:05:37.000Z</time>
      </trkpt>
      <trkpt lat="48.23736" lon="-2.87796">
        <ele>158.19999694824</ele>
        <time>2020-10-16T15:05:38.000Z</time>
      </trkpt>
      <trkpt lat="48.23727" lon="-2.8778">
        <ele>157.39999389648</ele>
        <time>2020-10-16T15:05:39.000Z</time>
      </trkpt>
      <trkpt lat="48.23727" lon="-2.8778">
        <ele>157.39999389648</ele>
        <time>2020-10-16T15:05:40.000Z</time>
      </trkpt>
      <trkpt lat="48.23723" lon="-2.87771">
        <ele>157.39999389648</ele>
        <time>2020-10-16T15:05:41.000Z</time>
      </trkpt>
      <trkpt lat="48.23716" lon="-2.87753">
        <ele>157.19999694824</ele>
        <time>2020-10-16T15:05:42.000Z</time>
      </trkpt>
      <trkpt lat="48.23716" lon="-2.87753">
        <ele>157.19999694824</ele>
        <time>2020-10-16T15:05:43.000Z</time>
      </trkpt>
      <trkpt lat="48.2371" lon="-2.87735">
        <ele>157</ele>
        <time>2020-10-16T15:05:44.000Z</time>
      </trkpt>
      <trkpt lat="48.2371" lon="-2.87735">
        <ele>157</ele>
        <time>2020-10-16T15:05:45.000Z</time>
      </trkpt>
      <trkpt lat="48.23705" lon="-2.87715">
        <ele>157.19999694824</ele>
        <time>2020-10-16T15:05:46.000Z</time>
      </trkpt>
      <trkpt lat="48.23705" lon="-2.87715">
        <ele>157.19999694824</ele>
        <time>2020-10-16T15:05:47.000Z</time>
      </trkpt>
      <trkpt lat="48.23703" lon="-2.87705">
        <ele>157.39999389648</ele>
        <time>2020-10-16T15:05:48.000Z</time>
      </trkpt>
      <trkpt lat="48.237" lon="-2.87686">
        <ele>157.60000610352</ele>
        <time>2020-10-16T15:05:49.000Z</time>
      </trkpt>
      <trkpt lat="48.237" lon="-2.87686">
        <ele>157.60000610352</ele>
        <time>2020-10-16T15:05:50.000Z</time>
      </trkpt>
      <trkpt lat="48.23699" lon="-2.87676">
        <ele>157.80000305176</ele>
        <time>2020-10-16T15:05:51.000Z</time>
      </trkpt>
      <trkpt lat="48.23696" lon="-2.87656">
        <ele>157.60000610352</ele>
        <time>2020-10-16T15:05:52.000Z</time>
      </trkpt>
      <trkpt lat="48.23696" lon="-2.87656">
        <ele>157.60000610352</ele>
        <time>2020-10-16T15:05:53.000Z</time>
      </trkpt>
      <trkpt lat="48.23694" lon="-2.87646">
        <ele>157.60000610352</ele>
        <time>2020-10-16T15:05:54.000Z</time>
      </trkpt>
      <trkpt lat="48.23691" lon="-2.87627">
        <ele>157.80000305176</ele>
        <time>2020-10-16T15:05:55.000Z</time>
      </trkpt>
      <trkpt lat="48.23691" lon="-2.87627">
        <ele>157.80000305176</ele>
        <time>2020-10-16T15:05:56.000Z</time>
      </trkpt>
      <trkpt lat="48.2369" lon="-2.87617">
        <ele>157.80000305176</ele>
        <time>2020-10-16T15:05:57.000Z</time>
      </trkpt>
      <trkpt lat="48.23687" lon="-2.87599">
        <ele>158</ele>
        <time>2020-10-16T15:05:58.000Z</time>
      </trkpt>
      <trkpt lat="48.23687" lon="-2.87599">
        <ele>158</ele>
        <time>2020-10-16T15:05:59.000Z</time>
      </trkpt>
      <trkpt lat="48.23685" lon="-2.87581">
        <ele>158.19999694824</ele>
        <time>2020-10-16T15:06:00.000Z</time>
      </trkpt>
      <trkpt lat="48.23685" lon="-2.87581">
        <ele>158.19999694824</ele>
        <time>2020-10-16T15:06:01.000Z</time>
      </trkpt>
      <trkpt lat="48.23684" lon="-2.87571">
        <ele>158.80000305176</ele>
        <time>2020-10-16T15:06:02.000Z</time>
      </trkpt>
      <trkpt lat="48.23683" lon="-2.87562">
        <ele>159.60000610352</ele>
        <time>2020-10-16T15:06:03.000Z</time>
      </trkpt>
      <trkpt lat="48.23681" lon="-2.87553">
        <ele>160.19999694824</ele>
        <time>2020-10-16T15:06:04.000Z</time>
      </trkpt>
      <trkpt lat="48.2368" lon="-2.87543">
        <ele>161</ele>
        <time>2020-10-16T15:06:05.000Z</time>
      </trkpt>
      <trkpt lat="48.23679" lon="-2.87534">
        <ele>161.60000610352</ele>
        <time>2020-10-16T15:06:06.000Z</time>
      </trkpt>
      <trkpt lat="48.23678" lon="-2.87525">
        <ele>162.19999694824</ele>
        <time>2020-10-16T15:06:07.000Z</time>
      </trkpt>
      <trkpt lat="48.23677" lon="-2.87516">
        <ele>162.60000610352</ele>
        <time>2020-10-16T15:06:08.000Z</time>
      </trkpt>
      <trkpt lat="48.23676" lon="-2.87506">
        <ele>163.19999694824</ele>
        <time>2020-10-16T15:06:09.000Z</time>
      </trkpt>
      <trkpt lat="48.23674" lon="-2.87497">
        <ele>163</ele>
        <time>2020-10-16T15:06:10.000Z</time>
      </trkpt>
      <trkpt lat="48.23673" lon="-2.87487">
        <ele>162.60000610352</ele>
        <time>2020-10-16T15:06:11.000Z</time>
      </trkpt>
      <trkpt lat="48.23672" lon="-2.87478">
        <ele>162.19999694824</ele>
        <time>2020-10-16T15:06:12.000Z</time>
      </trkpt>
      <trkpt lat="48.23669" lon="-2.87459">
        <ele>161.39999389648</ele>
        <time>2020-10-16T15:06:13.000Z</time>
      </trkpt>
      <trkpt lat="48.23669" lon="-2.87459">
        <ele>161.39999389648</ele>
        <time>2020-10-16T15:06:14.000Z</time>
      </trkpt>
      <trkpt lat="48.23668" lon="-2.8745">
        <ele>161</ele>
        <time>2020-10-16T15:06:15.000Z</time>
      </trkpt>
      <trkpt lat="48.23667" lon="-2.8744">
        <ele>160.80000305176</ele>
        <time>2020-10-16T15:06:16.000Z</time>
      </trkpt>
      <trkpt lat="48.23665" lon="-2.8743">
        <ele>161</ele>
        <time>2020-10-16T15:06:17.000Z</time>
      </trkpt>
      <trkpt lat="48.23663" lon="-2.8742">
        <ele>161.39999389648</ele>
        <time>2020-10-16T15:06:18.000Z</time>
      </trkpt>
      <trkpt lat="48.23662" lon="-2.8741">
        <ele>161</ele>
        <time>2020-10-16T15:06:19.000Z</time>
      </trkpt>
      <trkpt lat="48.23661" lon="-2.87399">
        <ele>160.60000610352</ele>
        <time>2020-10-16T15:06:20.000Z</time>
      </trkpt>
      <trkpt lat="48.2366" lon="-2.87389">
        <ele>160.39999389648</ele>
        <time>2020-10-16T15:06:21.000Z</time>
      </trkpt>
      <trkpt lat="48.23659" lon="-2.87379">
        <ele>160</ele>
        <time>2020-10-16T15:06:22.000Z</time>
      </trkpt>
      <trkpt lat="48.23658" lon="-2.87368">
        <ele>159.80000305176</ele>
        <time>2020-10-16T15:06:23.000Z</time>
      </trkpt>
      <trkpt lat="48.23656" lon="-2.87358">
        <ele>159.60000610352</ele>
        <time>2020-10-16T15:06:24.000Z</time>
      </trkpt>
      <trkpt lat="48.23655" lon="-2.87348">
        <ele>159.80000305176</ele>
        <time>2020-10-16T15:06:25.000Z</time>
      </trkpt>
      <trkpt lat="48.23653" lon="-2.87338">
        <ele>159.80000305176</ele>
        <time>2020-10-16T15:06:26.000Z</time>
      </trkpt>
      <trkpt lat="48.23652" lon="-2.87328">
        <ele>160</ele>
        <time>2020-10-16T15:06:27.000Z</time>
      </trkpt>
      <trkpt lat="48.23651" lon="-2.87318">
        <ele>159.80000305176</ele>
        <time>2020-10-16T15:06:28.000Z</time>
      </trkpt>
      <trkpt lat="48.2365" lon="-2.87308">
        <ele>159.80000305176</ele>
        <time>2020-10-16T15:06:29.000Z</time>
      </trkpt>
      <trkpt lat="48.2365" lon="-2.87298">
        <ele>159.60000610352</ele>
        <time>2020-10-16T15:06:30.000Z</time>
      </trkpt>
      <trkpt lat="48.23648" lon="-2.87288">
        <ele>159.60000610352</ele>
        <time>2020-10-16T15:06:31.000Z</time>
      </trkpt>
      <trkpt lat="48.23648" lon="-2.87277">
        <ele>159.60000610352</ele>
        <time>2020-10-16T15:06:32.000Z</time>
      </trkpt>
      <trkpt lat="48.23647" lon="-2.87266">
        <ele>160</ele>
        <time>2020-10-16T15:06:33.000Z</time>
      </trkpt>
      <trkpt lat="48.23646" lon="-2.87256">
        <ele>160.19999694824</ele>
        <time>2020-10-16T15:06:34.000Z</time>
      </trkpt>
      <trkpt lat="48.23647" lon="-2.87246">
        <ele>159</ele>
        <time>2020-10-16T15:06:35.000Z</time>
      </trkpt>
      <trkpt lat="48.23647" lon="-2.87235">
        <ele>158.19999694824</ele>
        <time>2020-10-16T15:06:36.000Z</time>
      </trkpt>
      <trkpt lat="48.23646" lon="-2.87225">
        <ele>157.39999389648</ele>
        <time>2020-10-16T15:06:37.000Z</time>
      </trkpt>
      <trkpt lat="48.23647" lon="-2.87214">
        <ele>156.19999694824</ele>
        <time>2020-10-16T15:06:38.000Z</time>
      </trkpt>
      <trkpt lat="48.23646" lon="-2.87203">
        <ele>155.60000610352</ele>
        <time>2020-10-16T15:06:39.000Z</time>
      </trkpt>
      <trkpt lat="48.23646" lon="-2.87193">
        <ele>155</ele>
        <time>2020-10-16T15:06:40.000Z</time>
      </trkpt>
      <trkpt lat="48.23644" lon="-2.87182">
        <ele>154.60000610352</ele>
        <time>2020-10-16T15:06:41.000Z</time>
      </trkpt>
      <trkpt lat="48.23643" lon="-2.87171">
        <ele>154</ele>
        <time>2020-10-16T15:06:42.000Z</time>
      </trkpt>
      <trkpt lat="48.23642" lon="-2.87159">
        <ele>153.80000305176</ele>
        <time>2020-10-16T15:06:43.000Z</time>
      </trkpt>
      <trkpt lat="48.2364" lon="-2.87147">
        <ele>153.60000610352</ele>
        <time>2020-10-16T15:06:44.000Z</time>
      </trkpt>
      <trkpt lat="48.23638" lon="-2.87135">
        <ele>153.60000610352</ele>
        <time>2020-10-16T15:06:45.000Z</time>
      </trkpt>
      <trkpt lat="48.23636" lon="-2.87124">
        <ele>153</ele>
        <time>2020-10-16T15:06:46.000Z</time>
      </trkpt>
      <trkpt lat="48.23635" lon="-2.87112">
        <ele>152.19999694824</ele>
        <time>2020-10-16T15:06:47.000Z</time>
      </trkpt>
      <trkpt lat="48.23632" lon="-2.87099">
        <ele>151.39999389648</ele>
        <time>2020-10-16T15:06:48.000Z</time>
      </trkpt>
      <trkpt lat="48.2363" lon="-2.87087">
        <ele>150.60000610352</ele>
        <time>2020-10-16T15:06:49.000Z</time>
      </trkpt>
      <trkpt lat="48.23627" lon="-2.87075">
        <ele>150</ele>
        <time>2020-10-16T15:06:50.000Z</time>
      </trkpt>
      <trkpt lat="48.23624" lon="-2.87064">
        <ele>149.39999389648</ele>
        <time>2020-10-16T15:06:51.000Z</time>
      </trkpt>
      <trkpt lat="48.2362" lon="-2.87053">
        <ele>148.80000305176</ele>
        <time>2020-10-16T15:06:52.000Z</time>
      </trkpt>
      <trkpt lat="48.23616" lon="-2.87043">
        <ele>148.19999694824</ele>
        <time>2020-10-16T15:06:53.000Z</time>
      </trkpt>
      <trkpt lat="48.23612" lon="-2.87034">
        <ele>147.80000305176</ele>
        <time>2020-10-16T15:06:54.000Z</time>
      </trkpt>
      <trkpt lat="48.23609" lon="-2.87025">
        <ele>147.19999694824</ele>
        <time>2020-10-16T15:06:55.000Z</time>
      </trkpt>
      <trkpt lat="48.23605" lon="-2.87016">
        <ele>146.60000610352</ele>
        <time>2020-10-16T15:06:56.000Z</time>
      </trkpt>
      <trkpt lat="48.23601" lon="-2.87006">
        <ele>146.19999694824</ele>
        <time>2020-10-16T15:06:57.000Z</time>
      </trkpt>
      <trkpt lat="48.23596" lon="-2.86997">
        <ele>145.39999389648</ele>
        <time>2020-10-16T15:06:58.000Z</time>
      </trkpt>
      <trkpt lat="48.23592" lon="-2.86989">
        <ele>144.19999694824</ele>
        <time>2020-10-16T15:06:59.000Z</time>
      </trkpt>
      <trkpt lat="48.23586" lon="-2.86981">
        <ele>142.80000305176</ele>
        <time>2020-10-16T15:07:00.000Z</time>
      </trkpt>
      <trkpt lat="48.23581" lon="-2.86973">
        <ele>141.39999389648</ele>
        <time>2020-10-16T15:07:01.000Z</time>
      </trkpt>
      <trkpt lat="48.23574" lon="-2.86965">
        <ele>140</ele>
        <time>2020-10-16T15:07:02.000Z</time>
      </trkpt>
      <trkpt lat="48.2356" lon="-2.86951">
        <ele>138</ele>
        <time>2020-10-16T15:07:03.000Z</time>
      </trkpt>
      <trkpt lat="48.2356" lon="-2.86951">
        <ele>138</ele>
        <time>2020-10-16T15:07:04.000Z</time>
      </trkpt>
      <trkpt lat="48.23551" lon="-2.86946">
        <ele>137.39999389648</ele>
        <time>2020-10-16T15:07:05.000Z</time>
      </trkpt>
      <trkpt lat="48.23543" lon="-2.86942">
        <ele>137</ele>
        <time>2020-10-16T15:07:06.000Z</time>
      </trkpt>
      <trkpt lat="48.23535" lon="-2.86939">
        <ele>136.80000305176</ele>
        <time>2020-10-16T15:07:07.000Z</time>
      </trkpt>
      <trkpt lat="48.23526" lon="-2.86936">
        <ele>136.60000610352</ele>
        <time>2020-10-16T15:07:08.000Z</time>
      </trkpt>
      <trkpt lat="48.23517" lon="-2.86934">
        <ele>136.39999389648</ele>
        <time>2020-10-16T15:07:09.000Z</time>
      </trkpt>
      <trkpt lat="48.23509" lon="-2.86932">
        <ele>136.19999694824</ele>
        <time>2020-10-16T15:07:10.000Z</time>
      </trkpt>
      <trkpt lat="48.235" lon="-2.8693">
        <ele>135.60000610352</ele>
        <time>2020-10-16T15:07:11.000Z</time>
      </trkpt>
      <trkpt lat="48.23491" lon="-2.86928">
        <ele>135.39999389648</ele>
        <time>2020-10-16T15:07:12.000Z</time>
      </trkpt>
      <trkpt lat="48.23483" lon="-2.86926">
        <ele>135</ele>
        <time>2020-10-16T15:07:13.000Z</time>
      </trkpt>
      <trkpt lat="48.23465" lon="-2.8692">
        <ele>134.19999694824</ele>
        <time>2020-10-16T15:07:14.000Z</time>
      </trkpt>
      <trkpt lat="48.23465" lon="-2.8692">
        <ele>134.19999694824</ele>
        <time>2020-10-16T15:07:15.000Z</time>
      </trkpt>
      <trkpt lat="48.23456" lon="-2.86917">
        <ele>133.80000305176</ele>
        <time>2020-10-16T15:07:16.000Z</time>
      </trkpt>
      <trkpt lat="48.23447" lon="-2.86913">
        <ele>133.19999694824</ele>
        <time>2020-10-16T15:07:17.000Z</time>
      </trkpt>
      <trkpt lat="48.23439" lon="-2.86908">
        <ele>132.80000305176</ele>
        <time>2020-10-16T15:07:18.000Z</time>
      </trkpt>
      <trkpt lat="48.23431" lon="-2.86902">
        <ele>132.60000610352</ele>
        <time>2020-10-16T15:07:19.000Z</time>
      </trkpt>
      <trkpt lat="48.23424" lon="-2.86897">
        <ele>132.60000610352</ele>
        <time>2020-10-16T15:07:20.000Z</time>
      </trkpt>
      <trkpt lat="48.23417" lon="-2.86891">
        <ele>132.60000610352</ele>
        <time>2020-10-16T15:07:21.000Z</time>
      </trkpt>
      <trkpt lat="48.2341" lon="-2.86886">
        <ele>132.39999389648</ele>
        <time>2020-10-16T15:07:22.000Z</time>
      </trkpt>
      <trkpt lat="48.23404" lon="-2.86881">
        <ele>132.39999389648</ele>
        <time>2020-10-16T15:07:23.000Z</time>
      </trkpt>
      <trkpt lat="48.23398" lon="-2.86876">
        <ele>132.39999389648</ele>
        <time>2020-10-16T15:07:24.000Z</time>
      </trkpt>
      <trkpt lat="48.23392" lon="-2.86872">
        <ele>132.39999389648</ele>
        <time>2020-10-16T15:07:25.000Z</time>
      </trkpt>
      <trkpt lat="48.23386" lon="-2.86867">
        <ele>132.39999389648</ele>
        <time>2020-10-16T15:07:26.000Z</time>
      </trkpt>
      <trkpt lat="48.2338" lon="-2.86862">
        <ele>132.39999389648</ele>
        <time>2020-10-16T15:07:27.000Z</time>
      </trkpt>
      <trkpt lat="48.23375" lon="-2.86857">
        <ele>132.39999389648</ele>
        <time>2020-10-16T15:07:28.000Z</time>
      </trkpt>
      <trkpt lat="48.2337" lon="-2.86853">
        <ele>132.39999389648</ele>
        <time>2020-10-16T15:07:29.000Z</time>
      </trkpt>
      <trkpt lat="48.23365" lon="-2.86849">
        <ele>132.60000610352</ele>
        <time>2020-10-16T15:07:30.000Z</time>
      </trkpt>
      <trkpt lat="48.2336" lon="-2.86844">
        <ele>132.60000610352</ele>
        <time>2020-10-16T15:07:31.000Z</time>
      </trkpt>
      <trkpt lat="48.23355" lon="-2.8684">
        <ele>132.60000610352</ele>
        <time>2020-10-16T15:07:32.000Z</time>
      </trkpt>
      <trkpt lat="48.2335" lon="-2.86835">
        <ele>132.60000610352</ele>
        <time>2020-10-16T15:07:33.000Z</time>
      </trkpt>
      <trkpt lat="48.23345" lon="-2.8683">
        <ele>132.39999389648</ele>
        <time>2020-10-16T15:07:34.000Z</time>
      </trkpt>
      <trkpt lat="48.23339" lon="-2.86824">
        <ele>132.19999694824</ele>
        <time>2020-10-16T15:07:35.000Z</time>
      </trkpt>
      <trkpt lat="48.23329" lon="-2.86814">
        <ele>131.60000610352</ele>
        <time>2020-10-16T15:07:36.000Z</time>
      </trkpt>
      <trkpt lat="48.23329" lon="-2.86814">
        <ele>131.60000610352</ele>
        <time>2020-10-16T15:07:37.000Z</time>
      </trkpt>
      <trkpt lat="48.23323" lon="-2.86809">
        <ele>131.39999389648</ele>
        <time>2020-10-16T15:07:38.000Z</time>
      </trkpt>
      <trkpt lat="48.23318" lon="-2.86804">
        <ele>131.19999694824</ele>
        <time>2020-10-16T15:07:39.000Z</time>
      </trkpt>
      <trkpt lat="48.23313" lon="-2.86799">
        <ele>131</ele>
        <time>2020-10-16T15:07:40.000Z</time>
      </trkpt>
      <trkpt lat="48.23308" lon="-2.86794">
        <ele>130.80000305176</ele>
        <time>2020-10-16T15:07:41.000Z</time>
      </trkpt>
      <trkpt lat="48.23303" lon="-2.86789">
        <ele>130.80000305176</ele>
        <time>2020-10-16T15:07:42.000Z</time>
      </trkpt>
      <trkpt lat="48.23299" lon="-2.86782">
        <ele>130.80000305176</ele>
        <time>2020-10-16T15:07:43.000Z</time>
      </trkpt>
      <trkpt lat="48.23295" lon="-2.86776">
        <ele>131</ele>
        <time>2020-10-16T15:07:44.000Z</time>
      </trkpt>
      <trkpt lat="48.23291" lon="-2.86768">
        <ele>131</ele>
        <time>2020-10-16T15:07:45.000Z</time>
      </trkpt>
      <trkpt lat="48.23287" lon="-2.86761">
        <ele>131</ele>
        <time>2020-10-16T15:07:46.000Z</time>
      </trkpt>
      <trkpt lat="48.23283" lon="-2.86753">
        <ele>130.80000305176</ele>
        <time>2020-10-16T15:07:47.000Z</time>
      </trkpt>
      <trkpt lat="48.23279" lon="-2.86744">
        <ele>130.39999389648</ele>
        <time>2020-10-16T15:07:48.000Z</time>
      </trkpt>
      <trkpt lat="48.23275" lon="-2.86736">
        <ele>130.39999389648</ele>
        <time>2020-10-16T15:07:49.000Z</time>
      </trkpt>
      <trkpt lat="48.23272" lon="-2.86727">
        <ele>130.19999694824</ele>
        <time>2020-10-16T15:07:50.000Z</time>
      </trkpt>
      <trkpt lat="48.2327" lon="-2.86717">
        <ele>130</ele>
        <time>2020-10-16T15:07:51.000Z</time>
      </trkpt>
      <trkpt lat="48.23267" lon="-2.86708">
        <ele>130</ele>
        <time>2020-10-16T15:07:52.000Z</time>
      </trkpt>
      <trkpt lat="48.23264" lon="-2.86698">
        <ele>129.80000305176</ele>
        <time>2020-10-16T15:07:53.000Z</time>
      </trkpt>
      <trkpt lat="48.23261" lon="-2.86688">
        <ele>129.60000610352</ele>
        <time>2020-10-16T15:07:54.000Z</time>
      </trkpt>
      <trkpt lat="48.23259" lon="-2.86678">
        <ele>129.39999389648</ele>
        <time>2020-10-16T15:07:55.000Z</time>
      </trkpt>
      <trkpt lat="48.23256" lon="-2.86668">
        <ele>129.19999694824</ele>
        <time>2020-10-16T15:07:56.000Z</time>
      </trkpt>
      <trkpt lat="48.23254" lon="-2.86658">
        <ele>128.60000610352</ele>
        <time>2020-10-16T15:07:57.000Z</time>
      </trkpt>
      <trkpt lat="48.23251" lon="-2.86648">
        <ele>128.19999694824</ele>
        <time>2020-10-16T15:07:58.000Z</time>
      </trkpt>
      <trkpt lat="48.23248" lon="-2.86637">
        <ele>127.59999847412</ele>
        <time>2020-10-16T15:07:59.000Z</time>
      </trkpt>
      <trkpt lat="48.23243" lon="-2.86616">
        <ele>126.59999847412</ele>
        <time>2020-10-16T15:08:00.000Z</time>
      </trkpt>
      <trkpt lat="48.23243" lon="-2.86616">
        <ele>126.59999847412</ele>
        <time>2020-10-16T15:08:01.000Z</time>
      </trkpt>
      <trkpt lat="48.2324" lon="-2.86606">
        <ele>126</ele>
        <time>2020-10-16T15:08:02.000Z</time>
      </trkpt>
      <trkpt lat="48.23238" lon="-2.86595">
        <ele>125.40000152588</ele>
        <time>2020-10-16T15:08:03.000Z</time>
      </trkpt>
      <trkpt lat="48.23235" lon="-2.86584">
        <ele>125</ele>
        <time>2020-10-16T15:08:04.000Z</time>
      </trkpt>
      <trkpt lat="48.23232" lon="-2.86573">
        <ele>124.40000152588</ele>
        <time>2020-10-16T15:08:05.000Z</time>
      </trkpt>
      <trkpt lat="48.23229" lon="-2.86562">
        <ele>123.80000305176</ele>
        <time>2020-10-16T15:08:06.000Z</time>
      </trkpt>
      <trkpt lat="48.23226" lon="-2.86551">
        <ele>123.40000152588</ele>
        <time>2020-10-16T15:08:07.000Z</time>
      </trkpt>
      <trkpt lat="48.23223" lon="-2.8654">
        <ele>122.80000305176</ele>
        <time>2020-10-16T15:08:08.000Z</time>
      </trkpt>
      <trkpt lat="48.2322" lon="-2.8653">
        <ele>122.40000152588</ele>
        <time>2020-10-16T15:08:09.000Z</time>
      </trkpt>
      <trkpt lat="48.23217" lon="-2.86518">
        <ele>122</ele>
        <time>2020-10-16T15:08:10.000Z</time>
      </trkpt>
      <trkpt lat="48.23214" lon="-2.86507">
        <ele>121.59999847412</ele>
        <time>2020-10-16T15:08:11.000Z</time>
      </trkpt>
      <trkpt lat="48.23212" lon="-2.86496">
        <ele>121.40000152588</ele>
        <time>2020-10-16T15:08:12.000Z</time>
      </trkpt>
      <trkpt lat="48.23209" lon="-2.86485">
        <ele>121.19999694824</ele>
        <time>2020-10-16T15:08:13.000Z</time>
      </trkpt>
      <trkpt lat="48.23202" lon="-2.86462">
        <ele>120.40000152588</ele>
        <time>2020-10-16T15:08:14.000Z</time>
      </trkpt>
      <trkpt lat="48.23202" lon="-2.86462">
        <ele>120.40000152588</ele>
        <time>2020-10-16T15:08:15.000Z</time>
      </trkpt>
      <trkpt lat="48.232" lon="-2.86451">
        <ele>120</ele>
        <time>2020-10-16T15:08:16.000Z</time>
      </trkpt>
      <trkpt lat="48.23197" lon="-2.86439">
        <ele>119.59999847412</ele>
        <time>2020-10-16T15:08:17.000Z</time>
      </trkpt>
      <trkpt lat="48.23194" lon="-2.86428">
        <ele>119</ele>
        <time>2020-10-16T15:08:18.000Z</time>
      </trkpt>
      <trkpt lat="48.23191" lon="-2.86417">
        <ele>118.59999847412</ele>
        <time>2020-10-16T15:08:19.000Z</time>
      </trkpt>
      <trkpt lat="48.23188" lon="-2.86405">
        <ele>118.40000152588</ele>
        <time>2020-10-16T15:08:20.000Z</time>
      </trkpt>
      <trkpt lat="48.23185" lon="-2.86394">
        <ele>118</ele>
        <time>2020-10-16T15:08:21.000Z</time>
      </trkpt>
      <trkpt lat="48.23182" lon="-2.86383">
        <ele>117.80000305176</ele>
        <time>2020-10-16T15:08:22.000Z</time>
      </trkpt>
      <trkpt lat="48.2318" lon="-2.86371">
        <ele>117.40000152588</ele>
        <time>2020-10-16T15:08:23.000Z</time>
      </trkpt>
      <trkpt lat="48.23177" lon="-2.8636">
        <ele>117.19999694824</ele>
        <time>2020-10-16T15:08:24.000Z</time>
      </trkpt>
      <trkpt lat="48.23174" lon="-2.86349">
        <ele>116.80000305176</ele>
        <time>2020-10-16T15:08:25.000Z</time>
      </trkpt>
      <trkpt lat="48.2317" lon="-2.86337">
        <ele>116.19999694824</ele>
        <time>2020-10-16T15:08:26.000Z</time>
      </trkpt>
      <trkpt lat="48.23167" lon="-2.86326">
        <ele>115.59999847412</ele>
        <time>2020-10-16T15:08:27.000Z</time>
      </trkpt>
      <trkpt lat="48.23164" lon="-2.86315">
        <ele>115</ele>
        <time>2020-10-16T15:08:28.000Z</time>
      </trkpt>
      <trkpt lat="48.23161" lon="-2.86303">
        <ele>114.19999694824</ele>
        <time>2020-10-16T15:08:29.000Z</time>
      </trkpt>
      <trkpt lat="48.23157" lon="-2.86292">
        <ele>113.59999847412</ele>
        <time>2020-10-16T15:08:30.000Z</time>
      </trkpt>
      <trkpt lat="48.23154" lon="-2.8628">
        <ele>113</ele>
        <time>2020-10-16T15:08:31.000Z</time>
      </trkpt>
      <trkpt lat="48.23149" lon="-2.8627">
        <ele>112.80000305176</ele>
        <time>2020-10-16T15:08:32.000Z</time>
      </trkpt>
      <trkpt lat="48.23144" lon="-2.86259">
        <ele>112.59999847412</ele>
        <time>2020-10-16T15:08:33.000Z</time>
      </trkpt>
      <trkpt lat="48.23139" lon="-2.86249">
        <ele>112.40000152588</ele>
        <time>2020-10-16T15:08:34.000Z</time>
      </trkpt>
      <trkpt lat="48.23133" lon="-2.8624">
        <ele>112.40000152588</ele>
        <time>2020-10-16T15:08:35.000Z</time>
      </trkpt>
      <trkpt lat="48.23126" lon="-2.86231">
        <ele>112.19999694824</ele>
        <time>2020-10-16T15:08:36.000Z</time>
      </trkpt>
      <trkpt lat="48.2312" lon="-2.86223">
        <ele>112.19999694824</ele>
        <time>2020-10-16T15:08:37.000Z</time>
      </trkpt>
      <trkpt lat="48.23114" lon="-2.86215">
        <ele>112.19999694824</ele>
        <time>2020-10-16T15:08:38.000Z</time>
      </trkpt>
      <trkpt lat="48.23107" lon="-2.86207">
        <ele>112.19999694824</ele>
        <time>2020-10-16T15:08:39.000Z</time>
      </trkpt>
      <trkpt lat="48.23101" lon="-2.862">
        <ele>112.19999694824</ele>
        <time>2020-10-16T15:08:40.000Z</time>
      </trkpt>
      <trkpt lat="48.23095" lon="-2.86193">
        <ele>112.19999694824</ele>
        <time>2020-10-16T15:08:41.000Z</time>
      </trkpt>
      <trkpt lat="48.23088" lon="-2.86187">
        <ele>111.40000152588</ele>
        <time>2020-10-16T15:08:42.000Z</time>
      </trkpt>
      <trkpt lat="48.23074" lon="-2.86174">
        <ele>110.80000305176</ele>
        <time>2020-10-16T15:08:43.000Z</time>
      </trkpt>
      <trkpt lat="48.23074" lon="-2.86174">
        <ele>110.80000305176</ele>
        <time>2020-10-16T15:08:44.000Z</time>
      </trkpt>
      <trkpt lat="48.23066" lon="-2.86167">
        <ele>110.19999694824</ele>
        <time>2020-10-16T15:08:45.000Z</time>
      </trkpt>
      <trkpt lat="48.23059" lon="-2.8616">
        <ele>109.40000152588</ele>
        <time>2020-10-16T15:08:46.000Z</time>
      </trkpt>
      <trkpt lat="48.23051" lon="-2.86152">
        <ele>108.80000305176</ele>
        <time>2020-10-16T15:08:47.000Z</time>
      </trkpt>
      <trkpt lat="48.23045" lon="-2.86143">
        <ele>108</ele>
        <time>2020-10-16T15:08:48.000Z</time>
      </trkpt>
      <trkpt lat="48.23038" lon="-2.86135">
        <ele>107.40000152588</ele>
        <time>2020-10-16T15:08:49.000Z</time>
      </trkpt>
      <trkpt lat="48.23033" lon="-2.86126">
        <ele>107</ele>
        <time>2020-10-16T15:08:50.000Z</time>
      </trkpt>
      <trkpt lat="48.23028" lon="-2.86118">
        <ele>106.59999847412</ele>
        <time>2020-10-16T15:08:51.000Z</time>
      </trkpt>
      <trkpt lat="48.23023" lon="-2.86109">
        <ele>106</ele>
        <time>2020-10-16T15:08:52.000Z</time>
      </trkpt>
      <trkpt lat="48.23019" lon="-2.86102">
        <ele>105.59999847412</ele>
        <time>2020-10-16T15:08:53.000Z</time>
      </trkpt>
      <trkpt lat="48.23015" lon="-2.86096">
        <ele>105.40000152588</ele>
        <time>2020-10-16T15:08:54.000Z</time>
      </trkpt>
      <trkpt lat="48.23009" lon="-2.86091">
        <ele>105.19999694824</ele>
        <time>2020-10-16T15:08:55.000Z</time>
      </trkpt>
      <trkpt lat="48.23004" lon="-2.86088">
        <ele>105.19999694824</ele>
        <time>2020-10-16T15:08:56.000Z</time>
      </trkpt>
      <trkpt lat="48.22997" lon="-2.86087">
        <ele>105.59999847412</ele>
        <time>2020-10-16T15:08:57.000Z</time>
      </trkpt>
      <trkpt lat="48.22991" lon="-2.86086">
        <ele>105.80000305176</ele>
        <time>2020-10-16T15:08:58.000Z</time>
      </trkpt>
      <trkpt lat="48.22985" lon="-2.86087">
        <ele>106</ele>
        <time>2020-10-16T15:08:59.000Z</time>
      </trkpt>
      <trkpt lat="48.22979" lon="-2.86087">
        <ele>106.19999694824</ele>
        <time>2020-10-16T15:09:00.000Z</time>
      </trkpt>
      <trkpt lat="48.22972" lon="-2.86087">
        <ele>106.40000152588</ele>
        <time>2020-10-16T15:09:01.000Z</time>
      </trkpt>
      <trkpt lat="48.22959" lon="-2.86086">
        <ele>106.80000305176</ele>
        <time>2020-10-16T15:09:02.000Z</time>
      </trkpt>
      <trkpt lat="48.22952" lon="-2.86085">
        <ele>107.19999694824</ele>
        <time>2020-10-16T15:09:03.000Z</time>
      </trkpt>
      <trkpt lat="48.22952" lon="-2.86085">
        <ele>107.19999694824</ele>
        <time>2020-10-16T15:09:04.000Z</time>
      </trkpt>
      <trkpt lat="48.22946" lon="-2.86084">
        <ele>107.40000152588</ele>
        <time>2020-10-16T15:09:05.000Z</time>
      </trkpt>
      <trkpt lat="48.2294" lon="-2.86083">
        <ele>107.59999847412</ele>
        <time>2020-10-16T15:09:06.000Z</time>
      </trkpt>
      <trkpt lat="48.22934" lon="-2.86083">
        <ele>107.59999847412</ele>
        <time>2020-10-16T15:09:07.000Z</time>
      </trkpt>
      <trkpt lat="48.22928" lon="-2.86083">
        <ele>107.80000305176</ele>
        <time>2020-10-16T15:09:08.000Z</time>
      </trkpt>
      <trkpt lat="48.22922" lon="-2.86084">
        <ele>107.59999847412</ele>
        <time>2020-10-16T15:09:09.000Z</time>
      </trkpt>
      <trkpt lat="48.22916" lon="-2.86085">
        <ele>107.59999847412</ele>
        <time>2020-10-16T15:09:10.000Z</time>
      </trkpt>
      <trkpt lat="48.22909" lon="-2.86086">
        <ele>107.40000152588</ele>
        <time>2020-10-16T15:09:11.000Z</time>
      </trkpt>
      <trkpt lat="48.22903" lon="-2.86088">
        <ele>107.40000152588</ele>
        <time>2020-10-16T15:09:12.000Z</time>
      </trkpt>
      <trkpt lat="48.22896" lon="-2.86089">
        <ele>107.19999694824</ele>
        <time>2020-10-16T15:09:13.000Z</time>
      </trkpt>
      <trkpt lat="48.22885" lon="-2.86092">
        <ele>107</ele>
        <time>2020-10-16T15:09:14.000Z</time>
      </trkpt>
      <trkpt lat="48.22885" lon="-2.86092">
        <ele>107</ele>
        <time>2020-10-16T15:09:15.000Z</time>
      </trkpt>
      <trkpt lat="48.22879" lon="-2.86094">
        <ele>107</ele>
        <time>2020-10-16T15:09:16.000Z</time>
      </trkpt>
      <trkpt lat="48.22873" lon="-2.86096">
        <ele>107</ele>
        <time>2020-10-16T15:09:17.000Z</time>
      </trkpt>
      <trkpt lat="48.22867" lon="-2.86098">
        <ele>107</ele>
        <time>2020-10-16T15:09:18.000Z</time>
      </trkpt>
      <trkpt lat="48.22862" lon="-2.861">
        <ele>107</ele>
        <time>2020-10-16T15:09:19.000Z</time>
      </trkpt>
      <trkpt lat="48.22856" lon="-2.86102">
        <ele>106.80000305176</ele>
        <time>2020-10-16T15:09:20.000Z</time>
      </trkpt>
      <trkpt lat="48.22851" lon="-2.86105">
        <ele>106.80000305176</ele>
        <time>2020-10-16T15:09:21.000Z</time>
      </trkpt>
      <trkpt lat="48.22845" lon="-2.86107">
        <ele>106.80000305176</ele>
        <time>2020-10-16T15:09:22.000Z</time>
      </trkpt>
      <trkpt lat="48.22834" lon="-2.86112">
        <ele>106.19999694824</ele>
        <time>2020-10-16T15:09:23.000Z</time>
      </trkpt>
      <trkpt lat="48.22834" lon="-2.86112">
        <ele>106.19999694824</ele>
        <time>2020-10-16T15:09:24.000Z</time>
      </trkpt>
      <trkpt lat="48.22829" lon="-2.86116">
        <ele>105.80000305176</ele>
        <time>2020-10-16T15:09:25.000Z</time>
      </trkpt>
      <trkpt lat="48.22823" lon="-2.86121">
        <ele>105.59999847412</ele>
        <time>2020-10-16T15:09:26.000Z</time>
      </trkpt>
      <trkpt lat="48.22818" lon="-2.86126">
        <ele>105.59999847412</ele>
        <time>2020-10-16T15:09:27.000Z</time>
      </trkpt>
      <trkpt lat="48.22814" lon="-2.86133">
        <ele>105.40000152588</ele>
        <time>2020-10-16T15:09:28.000Z</time>
      </trkpt>
      <trkpt lat="48.2281" lon="-2.8614">
        <ele>105.40000152588</ele>
        <time>2020-10-16T15:09:29.000Z</time>
      </trkpt>
      <trkpt lat="48.22806" lon="-2.86147">
        <ele>105.40000152588</ele>
        <time>2020-10-16T15:09:30.000Z</time>
      </trkpt>
      <trkpt lat="48.22802" lon="-2.86154">
        <ele>105.40000152588</ele>
        <time>2020-10-16T15:09:31.000Z</time>
      </trkpt>
      <trkpt lat="48.22799" lon="-2.86161">
        <ele>105.59999847412</ele>
        <time>2020-10-16T15:09:32.000Z</time>
      </trkpt>
      <trkpt lat="48.22796" lon="-2.86168">
        <ele>105.59999847412</ele>
        <time>2020-10-16T15:09:33.000Z</time>
      </trkpt>
      <trkpt lat="48.22792" lon="-2.86175">
        <ele>105.59999847412</ele>
        <time>2020-10-16T15:09:34.000Z</time>
      </trkpt>
      <trkpt lat="48.22789" lon="-2.86182">
        <ele>105.40000152588</ele>
        <time>2020-10-16T15:09:35.000Z</time>
      </trkpt>
      <trkpt lat="48.22785" lon="-2.86189">
        <ele>105.19999694824</ele>
        <time>2020-10-16T15:09:36.000Z</time>
      </trkpt>
      <trkpt lat="48.22782" lon="-2.86196">
        <ele>105</ele>
        <time>2020-10-16T15:09:37.000Z</time>
      </trkpt>
      <trkpt lat="48.22779" lon="-2.86202">
        <ele>104.80000305176</ele>
        <time>2020-10-16T15:09:38.000Z</time>
      </trkpt>
      <trkpt lat="48.22776" lon="-2.86209">
        <ele>104.59999847412</ele>
        <time>2020-10-16T15:09:39.000Z</time>
      </trkpt>
      <trkpt lat="48.22772" lon="-2.86216">
        <ele>104.40000152588</ele>
        <time>2020-10-16T15:09:40.000Z</time>
      </trkpt>
      <trkpt lat="48.22769" lon="-2.86223">
        <ele>104.19999694824</ele>
        <time>2020-10-16T15:09:41.000Z</time>
      </trkpt>
      <trkpt lat="48.22766" lon="-2.8623">
        <ele>104</ele>
        <time>2020-10-16T15:09:42.000Z</time>
      </trkpt>
      <trkpt lat="48.22762" lon="-2.86237">
        <ele>103.80000305176</ele>
        <time>2020-10-16T15:09:43.000Z</time>
      </trkpt>
      <trkpt lat="48.22759" lon="-2.86243">
        <ele>103.80000305176</ele>
        <time>2020-10-16T15:09:44.000Z</time>
      </trkpt>
      <trkpt lat="48.22756" lon="-2.8625">
        <ele>103.80000305176</ele>
        <time>2020-10-16T15:09:45.000Z</time>
      </trkpt>
      <trkpt lat="48.22753" lon="-2.86257">
        <ele>103.80000305176</ele>
        <time>2020-10-16T15:09:46.000Z</time>
      </trkpt>
      <trkpt lat="48.2275" lon="-2.86264">
        <ele>104</ele>
        <time>2020-10-16T15:09:47.000Z</time>
      </trkpt>
      <trkpt lat="48.22747" lon="-2.8627">
        <ele>104.19999694824</ele>
        <time>2020-10-16T15:09:48.000Z</time>
      </trkpt>
      <trkpt lat="48.22744" lon="-2.86277">
        <ele>104.59999847412</ele>
        <time>2020-10-16T15:09:49.000Z</time>
      </trkpt>
      <trkpt lat="48.22741" lon="-2.86284">
        <ele>105</ele>
        <time>2020-10-16T15:09:50.000Z</time>
      </trkpt>
      <trkpt lat="48.22738" lon="-2.8629">
        <ele>105.40000152588</ele>
        <time>2020-10-16T15:09:51.000Z</time>
      </trkpt>
      <trkpt lat="48.22735" lon="-2.86297">
        <ele>105.80000305176</ele>
        <time>2020-10-16T15:09:52.000Z</time>
      </trkpt>
      <trkpt lat="48.22731" lon="-2.86303">
        <ele>106.19999694824</ele>
        <time>2020-10-16T15:09:53.000Z</time>
      </trkpt>
      <trkpt lat="48.22728" lon="-2.86309">
        <ele>106.59999847412</ele>
        <time>2020-10-16T15:09:54.000Z</time>
      </trkpt>
      <trkpt lat="48.22725" lon="-2.86315">
        <ele>106.80000305176</ele>
        <time>2020-10-16T15:09:55.000Z</time>
      </trkpt>
      <trkpt lat="48.22722" lon="-2.86321">
        <ele>107</ele>
        <time>2020-10-16T15:09:56.000Z</time>
      </trkpt>
      <trkpt lat="48.22718" lon="-2.86326">
        <ele>107.40000152588</ele>
        <time>2020-10-16T15:09:57.000Z</time>
      </trkpt>
      <trkpt lat="48.22715" lon="-2.86331">
        <ele>107.59999847412</ele>
        <time>2020-10-16T15:09:58.000Z</time>
      </trkpt>
      <trkpt lat="48.22711" lon="-2.86337">
        <ele>107.80000305176</ele>
        <time>2020-10-16T15:09:59.000Z</time>
      </trkpt>
      <trkpt lat="48.22704" lon="-2.86346">
        <ele>108.40000152588</ele>
        <time>2020-10-16T15:10:00.000Z</time>
      </trkpt>
      <trkpt lat="48.22704" lon="-2.86346">
        <ele>108.40000152588</ele>
        <time>2020-10-16T15:10:01.000Z</time>
      </trkpt>
      <trkpt lat="48.227" lon="-2.8635">
        <ele>108.59999847412</ele>
        <time>2020-10-16T15:10:02.000Z</time>
      </trkpt>
      <trkpt lat="48.22696" lon="-2.86354">
        <ele>108.59999847412</ele>
        <time>2020-10-16T15:10:03.000Z</time>
      </trkpt>
      <trkpt lat="48.22691" lon="-2.86357">
        <ele>108.80000305176</ele>
        <time>2020-10-16T15:10:04.000Z</time>
      </trkpt>
      <trkpt lat="48.22687" lon="-2.86361">
        <ele>109</ele>
        <time>2020-10-16T15:10:05.000Z</time>
      </trkpt>
      <trkpt lat="48.22683" lon="-2.86365">
        <ele>109</ele>
        <time>2020-10-16T15:10:06.000Z</time>
      </trkpt>
      <trkpt lat="48.22679" lon="-2.86368">
        <ele>109.19999694824</ele>
        <time>2020-10-16T15:10:07.000Z</time>
      </trkpt>
      <trkpt lat="48.22674" lon="-2.86371">
        <ele>109.19999694824</ele>
        <time>2020-10-16T15:10:08.000Z</time>
      </trkpt>
      <trkpt lat="48.22669" lon="-2.86375">
        <ele>109.40000152588</ele>
        <time>2020-10-16T15:10:09.000Z</time>
      </trkpt>
      <trkpt lat="48.22664" lon="-2.86378">
        <ele>109.59999847412</ele>
        <time>2020-10-16T15:10:10.000Z</time>
      </trkpt>
      <trkpt lat="48.22659" lon="-2.86382">
        <ele>109.80000305176</ele>
        <time>2020-10-16T15:10:11.000Z</time>
      </trkpt>
      <trkpt lat="48.22655" lon="-2.86386">
        <ele>110</ele>
        <time>2020-10-16T15:10:12.000Z</time>
      </trkpt>
      <trkpt lat="48.22645" lon="-2.86393">
        <ele>110.40000152588</ele>
        <time>2020-10-16T15:10:13.000Z</time>
      </trkpt>
      <trkpt lat="48.22645" lon="-2.86393">
        <ele>110.40000152588</ele>
        <time>2020-10-16T15:10:14.000Z</time>
      </trkpt>
      <trkpt lat="48.22641" lon="-2.86397">
        <ele>110.59999847412</ele>
        <time>2020-10-16T15:10:15.000Z</time>
      </trkpt>
      <trkpt lat="48.22636" lon="-2.864">
        <ele>110.59999847412</ele>
        <time>2020-10-16T15:10:16.000Z</time>
      </trkpt>
      <trkpt lat="48.22632" lon="-2.86404">
        <ele>110.80000305176</ele>
        <time>2020-10-16T15:10:17.000Z</time>
      </trkpt>
      <trkpt lat="48.22627" lon="-2.86407">
        <ele>111</ele>
        <time>2020-10-16T15:10:18.000Z</time>
      </trkpt>
      <trkpt lat="48.22622" lon="-2.86411">
        <ele>111.19999694824</ele>
        <time>2020-10-16T15:10:19.000Z</time>
      </trkpt>
      <trkpt lat="48.22618" lon="-2.86414">
        <ele>111.40000152588</ele>
        <time>2020-10-16T15:10:20.000Z</time>
      </trkpt>
      <trkpt lat="48.22613" lon="-2.86417">
        <ele>111.40000152588</ele>
        <time>2020-10-16T15:10:21.000Z</time>
      </trkpt>
      <trkpt lat="48.22608" lon="-2.86419">
        <ele>111.40000152588</ele>
        <time>2020-10-16T15:10:22.000Z</time>
      </trkpt>
      <trkpt lat="48.22603" lon="-2.86421">
        <ele>111.19999694824</ele>
        <time>2020-10-16T15:10:23.000Z</time>
      </trkpt>
      <trkpt lat="48.22593" lon="-2.86422">
        <ele>111</ele>
        <time>2020-10-16T15:10:24.000Z</time>
      </trkpt>
      <trkpt lat="48.22593" lon="-2.86422">
        <ele>111</ele>
        <time>2020-10-16T15:10:25.000Z</time>
      </trkpt>
      <trkpt lat="48.22588" lon="-2.86421">
        <ele>111.19999694824</ele>
        <time>2020-10-16T15:10:26.000Z</time>
      </trkpt>
      <trkpt lat="48.22583" lon="-2.86419">
        <ele>111.19999694824</ele>
        <time>2020-10-16T15:10:27.000Z</time>
      </trkpt>
      <trkpt lat="48.22578" lon="-2.86416">
        <ele>111.19999694824</ele>
        <time>2020-10-16T15:10:28.000Z</time>
      </trkpt>
      <trkpt lat="48.22572" lon="-2.86412">
        <ele>111</ele>
        <time>2020-10-16T15:10:29.000Z</time>
      </trkpt>
      <trkpt lat="48.22566" lon="-2.86408">
        <ele>111</ele>
        <time>2020-10-16T15:10:30.000Z</time>
      </trkpt>
      <trkpt lat="48.22553" lon="-2.86399">
        <ele>110.80000305176</ele>
        <time>2020-10-16T15:10:31.000Z</time>
      </trkpt>
      <trkpt lat="48.22553" lon="-2.86399">
        <ele>110.80000305176</ele>
        <time>2020-10-16T15:10:32.000Z</time>
      </trkpt>
      <trkpt lat="48.22547" lon="-2.86395">
        <ele>110.59999847412</ele>
        <time>2020-10-16T15:10:33.000Z</time>
      </trkpt>
      <trkpt lat="48.22542" lon="-2.86391">
        <ele>110.59999847412</ele>
        <time>2020-10-16T15:10:34.000Z</time>
      </trkpt>
      <trkpt lat="48.22536" lon="-2.86388">
        <ele>110.59999847412</ele>
        <time>2020-10-16T15:10:35.000Z</time>
      </trkpt>
      <trkpt lat="48.22529" lon="-2.86384">
        <ele>110.40000152588</ele>
        <time>2020-10-16T15:10:36.000Z</time>
      </trkpt>
      <trkpt lat="48.22523" lon="-2.86381">
        <ele>110.40000152588</ele>
        <time>2020-10-16T15:10:37.000Z</time>
      </trkpt>
      <trkpt lat="48.22517" lon="-2.86378">
        <ele>110.40000152588</ele>
        <time>2020-10-16T15:10:38.000Z</time>
      </trkpt>
      <trkpt lat="48.22512" lon="-2.86374">
        <ele>110.40000152588</ele>
        <time>2020-10-16T15:10:39.000Z</time>
      </trkpt>
      <trkpt lat="48.22506" lon="-2.86371">
        <ele>111.59999847412</ele>
        <time>2020-10-16T15:10:40.000Z</time>
      </trkpt>
      <trkpt lat="48.22501" lon="-2.86367">
        <ele>112.80000305176</ele>
        <time>2020-10-16T15:10:41.000Z</time>
      </trkpt>
      <trkpt lat="48.22495" lon="-2.86363">
        <ele>113.80000305176</ele>
        <time>2020-10-16T15:10:42.000Z</time>
      </trkpt>
      <trkpt lat="48.2249" lon="-2.86359">
        <ele>114.80000305176</ele>
        <time>2020-10-16T15:10:43.000Z</time>
      </trkpt>
      <trkpt lat="48.22484" lon="-2.86355">
        <ele>116</ele>
        <time>2020-10-16T15:10:44.000Z</time>
      </trkpt>
      <trkpt lat="48.22479" lon="-2.8635">
        <ele>117</ele>
        <time>2020-10-16T15:10:45.000Z</time>
      </trkpt>
      <trkpt lat="48.22475" lon="-2.86345">
        <ele>117.80000305176</ele>
        <time>2020-10-16T15:10:46.000Z</time>
      </trkpt>
      <trkpt lat="48.2247" lon="-2.8634">
        <ele>118.59999847412</ele>
        <time>2020-10-16T15:10:47.000Z</time>
      </trkpt>
      <trkpt lat="48.22466" lon="-2.86334">
        <ele>119.40000152588</ele>
        <time>2020-10-16T15:10:48.000Z</time>
      </trkpt>
      <trkpt lat="48.22463" lon="-2.86329">
        <ele>120.40000152588</ele>
        <time>2020-10-16T15:10:49.000Z</time>
      </trkpt>
      <trkpt lat="48.22459" lon="-2.86324">
        <ele>121.19999694824</ele>
        <time>2020-10-16T15:10:50.000Z</time>
      </trkpt>
      <trkpt lat="48.22455" lon="-2.86319">
        <ele>122</ele>
        <time>2020-10-16T15:10:51.000Z</time>
      </trkpt>
      <trkpt lat="48.22449" lon="-2.8631">
        <ele>121.80000305176</ele>
        <time>2020-10-16T15:10:52.000Z</time>
      </trkpt>
      <trkpt lat="48.22449" lon="-2.8631">
        <ele>121.80000305176</ele>
        <time>2020-10-16T15:10:53.000Z</time>
      </trkpt>
      <trkpt lat="48.22446" lon="-2.86305">
        <ele>121</ele>
        <time>2020-10-16T15:10:54.000Z</time>
      </trkpt>
      <trkpt lat="48.22443" lon="-2.86302">
        <ele>120.40000152588</ele>
        <time>2020-10-16T15:10:55.000Z</time>
      </trkpt>
      <trkpt lat="48.22441" lon="-2.86299">
        <ele>120.19999694824</ele>
        <time>2020-10-16T15:10:56.000Z</time>
      </trkpt>
      <trkpt lat="48.22439" lon="-2.86296">
        <ele>119.80000305176</ele>
        <time>2020-10-16T15:10:57.000Z</time>
      </trkpt>
      <trkpt lat="48.22436" lon="-2.86294">
        <ele>119.59999847412</ele>
        <time>2020-10-16T15:10:58.000Z</time>
      </trkpt>
      <trkpt lat="48.22435" lon="-2.86293">
        <ele>119.40000152588</ele>
        <time>2020-10-16T15:10:59.000Z</time>
      </trkpt>
      <trkpt lat="48.22434" lon="-2.86291">
        <ele>119.19999694824</ele>
        <time>2020-10-16T15:11:00.000Z</time>
      </trkpt>
      <trkpt lat="48.22432" lon="-2.8629">
        <ele>119</ele>
        <time>2020-10-16T15:11:01.000Z</time>
      </trkpt>
      <trkpt lat="48.22432" lon="-2.86289">
        <ele>119</ele>
        <time>2020-10-16T15:11:02.000Z</time>
      </trkpt>
      <trkpt lat="48.22432" lon="-2.86288">
        <ele>118.80000305176</ele>
        <time>2020-10-16T15:11:03.000Z</time>
      </trkpt>
      <trkpt lat="48.22432" lon="-2.86288">
        <ele>118.80000305176</ele>
        <time>2020-10-16T15:11:04.000Z</time>
      </trkpt>
      <trkpt lat="48.22431" lon="-2.86288">
        <ele>118.59999847412</ele>
        <time>2020-10-16T15:11:05.000Z</time>
      </trkpt>
      <trkpt lat="48.22431" lon="-2.86286">
        <ele>118.40000152588</ele>
        <time>2020-10-16T15:11:06.000Z</time>
      </trkpt>
      <trkpt lat="48.22428" lon="-2.86283">
        <ele>118</ele>
        <time>2020-10-16T15:11:07.000Z</time>
      </trkpt>
      <trkpt lat="48.22428" lon="-2.86283">
        <ele>118</ele>
        <time>2020-10-16T15:11:08.000Z</time>
      </trkpt>
      <trkpt lat="48.22426" lon="-2.86281">
        <ele>117.59999847412</ele>
        <time>2020-10-16T15:11:09.000Z</time>
      </trkpt>
      <trkpt lat="48.22424" lon="-2.86278">
        <ele>117.40000152588</ele>
        <time>2020-10-16T15:11:10.000Z</time>
      </trkpt>
      <trkpt lat="48.22421" lon="-2.86276">
        <ele>117</ele>
        <time>2020-10-16T15:11:11.000Z</time>
      </trkpt>
      <trkpt lat="48.22419" lon="-2.86274">
        <ele>116.80000305176</ele>
        <time>2020-10-16T15:11:12.000Z</time>
      </trkpt>
      <trkpt lat="48.22417" lon="-2.86271">
        <ele>116.40000152588</ele>
        <time>2020-10-16T15:11:13.000Z</time>
      </trkpt>
      <trkpt lat="48.22415" lon="-2.86269">
        <ele>116.19999694824</ele>
        <time>2020-10-16T15:11:14.000Z</time>
      </trkpt>
      <trkpt lat="48.22413" lon="-2.86266">
        <ele>116</ele>
        <time>2020-10-16T15:11:15.000Z</time>
      </trkpt>
      <trkpt lat="48.2241" lon="-2.86263">
        <ele>116.19999694824</ele>
        <time>2020-10-16T15:11:16.000Z</time>
      </trkpt>
      <trkpt lat="48.22407" lon="-2.86261">
        <ele>116.59999847412</ele>
        <time>2020-10-16T15:11:17.000Z</time>
      </trkpt>
      <trkpt lat="48.22404" lon="-2.86259">
        <ele>116.80000305176</ele>
        <time>2020-10-16T15:11:18.000Z</time>
      </trkpt>
      <trkpt lat="48.22402" lon="-2.86256">
        <ele>117</ele>
        <time>2020-10-16T15:11:19.000Z</time>
      </trkpt>
      <trkpt lat="48.22399" lon="-2.86254">
        <ele>117.19999694824</ele>
        <time>2020-10-16T15:11:20.000Z</time>
      </trkpt>
      <trkpt lat="48.22395" lon="-2.86251">
        <ele>117.59999847412</ele>
        <time>2020-10-16T15:11:21.000Z</time>
      </trkpt>
      <trkpt lat="48.22392" lon="-2.86248">
        <ele>117.80000305176</ele>
        <time>2020-10-16T15:11:22.000Z</time>
      </trkpt>
      <trkpt lat="48.22389" lon="-2.86246">
        <ele>118.19999694824</ele>
        <time>2020-10-16T15:11:23.000Z</time>
      </trkpt>
      <trkpt lat="48.22386" lon="-2.86243">
        <ele>118.40000152588</ele>
        <time>2020-10-16T15:11:24.000Z</time>
      </trkpt>
      <trkpt lat="48.22382" lon="-2.8624">
        <ele>118.80000305176</ele>
        <time>2020-10-16T15:11:25.000Z</time>
      </trkpt>
      <trkpt lat="48.22378" lon="-2.86237">
        <ele>119.19999694824</ele>
        <time>2020-10-16T15:11:26.000Z</time>
      </trkpt>
      <trkpt lat="48.22374" lon="-2.86234">
        <ele>119.59999847412</ele>
        <time>2020-10-16T15:11:27.000Z</time>
      </trkpt>
      <trkpt lat="48.22371" lon="-2.86232">
        <ele>120</ele>
        <time>2020-10-16T15:11:28.000Z</time>
      </trkpt>
      <trkpt lat="48.22367" lon="-2.8623">
        <ele>120</ele>
        <time>2020-10-16T15:11:29.000Z</time>
      </trkpt>
      <trkpt lat="48.22364" lon="-2.86228">
        <ele>120</ele>
        <time>2020-10-16T15:11:30.000Z</time>
      </trkpt>
      <trkpt lat="48.22359" lon="-2.86227">
        <ele>120</ele>
        <time>2020-10-16T15:11:31.000Z</time>
      </trkpt>
      <trkpt lat="48.22354" lon="-2.86224">
        <ele>120</ele>
        <time>2020-10-16T15:11:32.000Z</time>
      </trkpt>
      <trkpt lat="48.2235" lon="-2.86222">
        <ele>119.80000305176</ele>
        <time>2020-10-16T15:11:33.000Z</time>
      </trkpt>
      <trkpt lat="48.22345" lon="-2.8622">
        <ele>119.59999847412</ele>
        <time>2020-10-16T15:11:34.000Z</time>
      </trkpt>
      <trkpt lat="48.22341" lon="-2.86217">
        <ele>119.19999694824</ele>
        <time>2020-10-16T15:11:35.000Z</time>
      </trkpt>
      <trkpt lat="48.22337" lon="-2.86214">
        <ele>118.40000152588</ele>
        <time>2020-10-16T15:11:36.000Z</time>
      </trkpt>
      <trkpt lat="48.22332" lon="-2.8621">
        <ele>117.59999847412</ele>
        <time>2020-10-16T15:11:37.000Z</time>
      </trkpt>
      <trkpt lat="48.22329" lon="-2.86206">
        <ele>116.80000305176</ele>
        <time>2020-10-16T15:11:38.000Z</time>
      </trkpt>
      <trkpt lat="48.22325" lon="-2.86203">
        <ele>116.19999694824</ele>
        <time>2020-10-16T15:11:39.000Z</time>
      </trkpt>
      <trkpt lat="48.22322" lon="-2.86199">
        <ele>115.40000152588</ele>
        <time>2020-10-16T15:11:40.000Z</time>
      </trkpt>
      <trkpt lat="48.22318" lon="-2.86195">
        <ele>114.80000305176</ele>
        <time>2020-10-16T15:11:41.000Z</time>
      </trkpt>
      <trkpt lat="48.22315" lon="-2.8619">
        <ele>114.19999694824</ele>
        <time>2020-10-16T15:11:42.000Z</time>
      </trkpt>
      <trkpt lat="48.22312" lon="-2.86185">
        <ele>113.80000305176</ele>
        <time>2020-10-16T15:11:43.000Z</time>
      </trkpt>
      <trkpt lat="48.22308" lon="-2.8618">
        <ele>113.19999694824</ele>
        <time>2020-10-16T15:11:44.000Z</time>
      </trkpt>
      <trkpt lat="48.22304" lon="-2.86175">
        <ele>112.80000305176</ele>
        <time>2020-10-16T15:11:45.000Z</time>
      </trkpt>
      <trkpt lat="48.223" lon="-2.8617">
        <ele>112.59999847412</ele>
        <time>2020-10-16T15:11:46.000Z</time>
      </trkpt>
      <trkpt lat="48.22297" lon="-2.86166">
        <ele>112.40000152588</ele>
        <time>2020-10-16T15:11:47.000Z</time>
      </trkpt>
      <trkpt lat="48.22293" lon="-2.86162">
        <ele>112.19999694824</ele>
        <time>2020-10-16T15:11:48.000Z</time>
      </trkpt>
      <trkpt lat="48.2229" lon="-2.86157">
        <ele>112</ele>
        <time>2020-10-16T15:11:49.000Z</time>
      </trkpt>
      <trkpt lat="48.22288" lon="-2.86153">
        <ele>111.80000305176</ele>
        <time>2020-10-16T15:11:50.000Z</time>
      </trkpt>
      <trkpt lat="48.22285" lon="-2.86149">
        <ele>111.59999847412</ele>
        <time>2020-10-16T15:11:51.000Z</time>
      </trkpt>
      <trkpt lat="48.22281" lon="-2.86145">
        <ele>111.19999694824</ele>
        <time>2020-10-16T15:11:52.000Z</time>
      </trkpt>
      <trkpt lat="48.22278" lon="-2.86141">
        <ele>110.80000305176</ele>
        <time>2020-10-16T15:11:53.000Z</time>
      </trkpt>
      <trkpt lat="48.22274" lon="-2.86136">
        <ele>110.40000152588</ele>
        <time>2020-10-16T15:11:54.000Z</time>
      </trkpt>
      <trkpt lat="48.22271" lon="-2.86131">
        <ele>109.80000305176</ele>
        <time>2020-10-16T15:11:55.000Z</time>
      </trkpt>
      <trkpt lat="48.22268" lon="-2.86126">
        <ele>109.19999694824</ele>
        <time>2020-10-16T15:11:56.000Z</time>
      </trkpt>
      <trkpt lat="48.22264" lon="-2.8612">
        <ele>108.59999847412</ele>
        <time>2020-10-16T15:11:57.000Z</time>
      </trkpt>
      <trkpt lat="48.22261" lon="-2.86114">
        <ele>108</ele>
        <time>2020-10-16T15:11:58.000Z</time>
      </trkpt>
      <trkpt lat="48.22258" lon="-2.86108">
        <ele>107</ele>
        <time>2020-10-16T15:11:59.000Z</time>
      </trkpt>
      <trkpt lat="48.22255" lon="-2.86102">
        <ele>106</ele>
        <time>2020-10-16T15:12:00.000Z</time>
      </trkpt>
      <trkpt lat="48.22252" lon="-2.86096">
        <ele>105.40000152588</ele>
        <time>2020-10-16T15:12:01.000Z</time>
      </trkpt>
      <trkpt lat="48.22249" lon="-2.86089">
        <ele>105.19999694824</ele>
        <time>2020-10-16T15:12:02.000Z</time>
      </trkpt>
      <trkpt lat="48.22246" lon="-2.86082">
        <ele>105</ele>
        <time>2020-10-16T15:12:03.000Z</time>
      </trkpt>
      <trkpt lat="48.22244" lon="-2.86075">
        <ele>104.80000305176</ele>
        <time>2020-10-16T15:12:04.000Z</time>
      </trkpt>
      <trkpt lat="48.22242" lon="-2.86068">
        <ele>104.40000152588</ele>
        <time>2020-10-16T15:12:05.000Z</time>
      </trkpt>
      <trkpt lat="48.2224" lon="-2.86059">
        <ele>104.19999694824</ele>
        <time>2020-10-16T15:12:06.000Z</time>
      </trkpt>
      <trkpt lat="48.22239" lon="-2.86051">
        <ele>103.80000305176</ele>
        <time>2020-10-16T15:12:07.000Z</time>
      </trkpt>
      <trkpt lat="48.22238" lon="-2.86042">
        <ele>103.59999847412</ele>
        <time>2020-10-16T15:12:08.000Z</time>
      </trkpt>
      <trkpt lat="48.22237" lon="-2.86034">
        <ele>103.40000152588</ele>
        <time>2020-10-16T15:12:09.000Z</time>
      </trkpt>
      <trkpt lat="48.22236" lon="-2.86026">
        <ele>103.40000152588</ele>
        <time>2020-10-16T15:12:10.000Z</time>
      </trkpt>
      <trkpt lat="48.22233" lon="-2.8601">
        <ele>103.80000305176</ele>
        <time>2020-10-16T15:12:11.000Z</time>
      </trkpt>
      <trkpt lat="48.22233" lon="-2.8601">
        <ele>103.80000305176</ele>
        <time>2020-10-16T15:12:12.000Z</time>
      </trkpt>
      <trkpt lat="48.22231" lon="-2.86002">
        <ele>103.80000305176</ele>
        <time>2020-10-16T15:12:13.000Z</time>
      </trkpt>
      <trkpt lat="48.22229" lon="-2.85995">
        <ele>104</ele>
        <time>2020-10-16T15:12:14.000Z</time>
      </trkpt>
      <trkpt lat="48.22226" lon="-2.85988">
        <ele>104.19999694824</ele>
        <time>2020-10-16T15:12:15.000Z</time>
      </trkpt>
      <trkpt lat="48.22224" lon="-2.85981">
        <ele>104.19999694824</ele>
        <time>2020-10-16T15:12:16.000Z</time>
      </trkpt>
      <trkpt lat="48.22222" lon="-2.85975">
        <ele>104.40000152588</ele>
        <time>2020-10-16T15:12:17.000Z</time>
      </trkpt>
      <trkpt lat="48.22219" lon="-2.85969">
        <ele>104.59999847412</ele>
        <time>2020-10-16T15:12:18.000Z</time>
      </trkpt>
      <trkpt lat="48.22216" lon="-2.85963">
        <ele>104.80000305176</ele>
        <time>2020-10-16T15:12:19.000Z</time>
      </trkpt>
      <trkpt lat="48.22213" lon="-2.85958">
        <ele>105</ele>
        <time>2020-10-16T15:12:20.000Z</time>
      </trkpt>
      <trkpt lat="48.2221" lon="-2.85952">
        <ele>105.19999694824</ele>
        <time>2020-10-16T15:12:21.000Z</time>
      </trkpt>
      <trkpt lat="48.22207" lon="-2.85947">
        <ele>105.19999694824</ele>
        <time>2020-10-16T15:12:22.000Z</time>
      </trkpt>
      <trkpt lat="48.22204" lon="-2.85941">
        <ele>105.40000152588</ele>
        <time>2020-10-16T15:12:23.000Z</time>
      </trkpt>
      <trkpt lat="48.22201" lon="-2.85936">
        <ele>105.59999847412</ele>
        <time>2020-10-16T15:12:24.000Z</time>
      </trkpt>
      <trkpt lat="48.22198" lon="-2.8593">
        <ele>105.80000305176</ele>
        <time>2020-10-16T15:12:25.000Z</time>
      </trkpt>
      <trkpt lat="48.22195" lon="-2.85925">
        <ele>106</ele>
        <time>2020-10-16T15:12:26.000Z</time>
      </trkpt>
      <trkpt lat="48.2219" lon="-2.85921">
        <ele>106.19999694824</ele>
        <time>2020-10-16T15:12:27.000Z</time>
      </trkpt>
      <trkpt lat="48.22186" lon="-2.85917">
        <ele>106.40000152588</ele>
        <time>2020-10-16T15:12:28.000Z</time>
      </trkpt>
      <trkpt lat="48.22181" lon="-2.85914">
        <ele>106.40000152588</ele>
        <time>2020-10-16T15:12:29.000Z</time>
      </trkpt>
      <trkpt lat="48.22176" lon="-2.85912">
        <ele>106.40000152588</ele>
        <time>2020-10-16T15:12:30.000Z</time>
      </trkpt>
      <trkpt lat="48.22167" lon="-2.85908">
        <ele>106.80000305176</ele>
        <time>2020-10-16T15:12:31.000Z</time>
      </trkpt>
      <trkpt lat="48.22167" lon="-2.85908">
        <ele>106.80000305176</ele>
        <time>2020-10-16T15:12:32.000Z</time>
      </trkpt>
      <trkpt lat="48.22162" lon="-2.85906">
        <ele>107</ele>
        <time>2020-10-16T15:12:33.000Z</time>
      </trkpt>
      <trkpt lat="48.22158" lon="-2.85905">
        <ele>107.19999694824</ele>
        <time>2020-10-16T15:12:34.000Z</time>
      </trkpt>
      <trkpt lat="48.22153" lon="-2.85903">
        <ele>107.40000152588</ele>
        <time>2020-10-16T15:12:35.000Z</time>
      </trkpt>
      <trkpt lat="48.22148" lon="-2.85902">
        <ele>107.59999847412</ele>
        <time>2020-10-16T15:12:36.000Z</time>
      </trkpt>
      <trkpt lat="48.22144" lon="-2.85901">
        <ele>108</ele>
        <time>2020-10-16T15:12:37.000Z</time>
      </trkpt>
      <trkpt lat="48.22139" lon="-2.859">
        <ele>108.19999694824</ele>
        <time>2020-10-16T15:12:38.000Z</time>
      </trkpt>
      <trkpt lat="48.22135" lon="-2.859">
        <ele>108.59999847412</ele>
        <time>2020-10-16T15:12:39.000Z</time>
      </trkpt>
      <trkpt lat="48.22131" lon="-2.85899">
        <ele>108.80000305176</ele>
        <time>2020-10-16T15:12:40.000Z</time>
      </trkpt>
      <trkpt lat="48.22127" lon="-2.85898">
        <ele>109</ele>
        <time>2020-10-16T15:12:41.000Z</time>
      </trkpt>
      <trkpt lat="48.22123" lon="-2.85897">
        <ele>109.19999694824</ele>
        <time>2020-10-16T15:12:42.000Z</time>
      </trkpt>
      <trkpt lat="48.22119" lon="-2.85896">
        <ele>109.19999694824</ele>
        <time>2020-10-16T15:12:43.000Z</time>
      </trkpt>
      <trkpt lat="48.22114" lon="-2.85895">
        <ele>109.19999694824</ele>
        <time>2020-10-16T15:12:44.000Z</time>
      </trkpt>
      <trkpt lat="48.2211" lon="-2.85894">
        <ele>109</ele>
        <time>2020-10-16T15:12:45.000Z</time>
      </trkpt>
      <trkpt lat="48.22105" lon="-2.85892">
        <ele>108.80000305176</ele>
        <time>2020-10-16T15:12:46.000Z</time>
      </trkpt>
      <trkpt lat="48.221" lon="-2.8589">
        <ele>108.59999847412</ele>
        <time>2020-10-16T15:12:47.000Z</time>
      </trkpt>
      <trkpt lat="48.22095" lon="-2.85889">
        <ele>108.59999847412</ele>
        <time>2020-10-16T15:12:48.000Z</time>
      </trkpt>
      <trkpt lat="48.2209" lon="-2.85886">
        <ele>108.40000152588</ele>
        <time>2020-10-16T15:12:49.000Z</time>
      </trkpt>
      <trkpt lat="48.22079" lon="-2.85883">
        <ele>108.40000152588</ele>
        <time>2020-10-16T15:12:50.000Z</time>
      </trkpt>
      <trkpt lat="48.22079" lon="-2.85883">
        <ele>108.40000152588</ele>
        <time>2020-10-16T15:12:51.000Z</time>
      </trkpt>
      <trkpt lat="48.22075" lon="-2.85881">
        <ele>108.19999694824</ele>
        <time>2020-10-16T15:12:52.000Z</time>
      </trkpt>
      <trkpt lat="48.22072" lon="-2.8588">
        <ele>108.19999694824</ele>
        <time>2020-10-16T15:12:53.000Z</time>
      </trkpt>
      <trkpt lat="48.22067" lon="-2.85879">
        <ele>108.19999694824</ele>
        <time>2020-10-16T15:12:54.000Z</time>
      </trkpt>
      <trkpt lat="48.22063" lon="-2.85878">
        <ele>108.19999694824</ele>
        <time>2020-10-16T15:12:55.000Z</time>
      </trkpt>
      <trkpt lat="48.22058" lon="-2.85877">
        <ele>108.40000152588</ele>
        <time>2020-10-16T15:12:56.000Z</time>
      </trkpt>
      <trkpt lat="48.22052" lon="-2.85876">
        <ele>108.40000152588</ele>
        <time>2020-10-16T15:12:57.000Z</time>
      </trkpt>
      <trkpt lat="48.22046" lon="-2.85874">
        <ele>108.40000152588</ele>
        <time>2020-10-16T15:12:58.000Z</time>
      </trkpt>
      <trkpt lat="48.22042" lon="-2.85873">
        <ele>108.40000152588</ele>
        <time>2020-10-16T15:12:59.000Z</time>
      </trkpt>
      <trkpt lat="48.22038" lon="-2.85872">
        <ele>108.40000152588</ele>
        <time>2020-10-16T15:13:00.000Z</time>
      </trkpt>
      <trkpt lat="48.22034" lon="-2.85871">
        <ele>108.40000152588</ele>
        <time>2020-10-16T15:13:01.000Z</time>
      </trkpt>
      <trkpt lat="48.2203" lon="-2.85869">
        <ele>108.19999694824</ele>
        <time>2020-10-16T15:13:02.000Z</time>
      </trkpt>
      <trkpt lat="48.22026" lon="-2.85867">
        <ele>108.19999694824</ele>
        <time>2020-10-16T15:13:03.000Z</time>
      </trkpt>
      <trkpt lat="48.22014" lon="-2.85862">
        <ele>108</ele>
        <time>2020-10-16T15:13:04.000Z</time>
      </trkpt>
      <trkpt lat="48.22014" lon="-2.85862">
        <ele>108</ele>
        <time>2020-10-16T15:13:05.000Z</time>
      </trkpt>
      <trkpt lat="48.22009" lon="-2.8586">
        <ele>107.59999847412</ele>
        <time>2020-10-16T15:13:06.000Z</time>
      </trkpt>
      <trkpt lat="48.22005" lon="-2.85857">
        <ele>107.40000152588</ele>
        <time>2020-10-16T15:13:07.000Z</time>
      </trkpt>
      <trkpt lat="48.22001" lon="-2.85855">
        <ele>107</ele>
        <time>2020-10-16T15:13:08.000Z</time>
      </trkpt>
      <trkpt lat="48.21996" lon="-2.85853">
        <ele>106.80000305176</ele>
        <time>2020-10-16T15:13:09.000Z</time>
      </trkpt>
      <trkpt lat="48.21987" lon="-2.8585">
        <ele>106</ele>
        <time>2020-10-16T15:13:10.000Z</time>
      </trkpt>
      <trkpt lat="48.21987" lon="-2.8585">
        <ele>106</ele>
        <time>2020-10-16T15:13:11.000Z</time>
      </trkpt>
      <trkpt lat="48.21982" lon="-2.85848">
        <ele>105.59999847412</ele>
        <time>2020-10-16T15:13:12.000Z</time>
      </trkpt>
      <trkpt lat="48.21977" lon="-2.85846">
        <ele>105.19999694824</ele>
        <time>2020-10-16T15:13:13.000Z</time>
      </trkpt>
      <trkpt lat="48.21972" lon="-2.85844">
        <ele>104.80000305176</ele>
        <time>2020-10-16T15:13:14.000Z</time>
      </trkpt>
      <trkpt lat="48.21967" lon="-2.85843">
        <ele>104.59999847412</ele>
        <time>2020-10-16T15:13:15.000Z</time>
      </trkpt>
      <trkpt lat="48.2196" lon="-2.85841">
        <ele>104</ele>
        <time>2020-10-16T15:13:16.000Z</time>
      </trkpt>
      <trkpt lat="48.21953" lon="-2.85841">
        <ele>103.80000305176</ele>
        <time>2020-10-16T15:13:17.000Z</time>
      </trkpt>
      <trkpt lat="48.21947" lon="-2.85841">
        <ele>103.80000305176</ele>
        <time>2020-10-16T15:13:18.000Z</time>
      </trkpt>
      <trkpt lat="48.21941" lon="-2.85843">
        <ele>103.80000305176</ele>
        <time>2020-10-16T15:13:19.000Z</time>
      </trkpt>
      <trkpt lat="48.21935" lon="-2.85843">
        <ele>103.80000305176</ele>
        <time>2020-10-16T15:13:20.000Z</time>
      </trkpt>
      <trkpt lat="48.21928" lon="-2.85843">
        <ele>103.59999847412</ele>
        <time>2020-10-16T15:13:21.000Z</time>
      </trkpt>
      <trkpt lat="48.21919" lon="-2.85843">
        <ele>103.40000152588</ele>
        <time>2020-10-16T15:13:22.000Z</time>
      </trkpt>
      <trkpt lat="48.2191" lon="-2.85843">
        <ele>103.59999847412</ele>
        <time>2020-10-16T15:13:23.000Z</time>
      </trkpt>
      <trkpt lat="48.21902" lon="-2.85843">
        <ele>103.80000305176</ele>
        <time>2020-10-16T15:13:24.000Z</time>
      </trkpt>
      <trkpt lat="48.21895" lon="-2.85844">
        <ele>104</ele>
        <time>2020-10-16T15:13:25.000Z</time>
      </trkpt>
      <trkpt lat="48.21888" lon="-2.85845">
        <ele>104</ele>
        <time>2020-10-16T15:13:26.000Z</time>
      </trkpt>
      <trkpt lat="48.21882" lon="-2.85845">
        <ele>104.19999694824</ele>
        <time>2020-10-16T15:13:27.000Z</time>
      </trkpt>
      <trkpt lat="48.21876" lon="-2.85846">
        <ele>104.40000152588</ele>
        <time>2020-10-16T15:13:28.000Z</time>
      </trkpt>
      <trkpt lat="48.2187" lon="-2.85846">
        <ele>104.40000152588</ele>
        <time>2020-10-16T15:13:29.000Z</time>
      </trkpt>
      <trkpt lat="48.21864" lon="-2.85846">
        <ele>104.59999847412</ele>
        <time>2020-10-16T15:13:30.000Z</time>
      </trkpt>
      <trkpt lat="48.21858" lon="-2.85846">
        <ele>104.59999847412</ele>
        <time>2020-10-16T15:13:31.000Z</time>
      </trkpt>
      <trkpt lat="48.21853" lon="-2.85846">
        <ele>104.59999847412</ele>
        <time>2020-10-16T15:13:32.000Z</time>
      </trkpt>
      <trkpt lat="48.21847" lon="-2.85847">
        <ele>104.80000305176</ele>
        <time>2020-10-16T15:13:33.000Z</time>
      </trkpt>
      <trkpt lat="48.21843" lon="-2.85847">
        <ele>104.80000305176</ele>
        <time>2020-10-16T15:13:34.000Z</time>
      </trkpt>
      <trkpt lat="48.21839" lon="-2.85848">
        <ele>105</ele>
        <time>2020-10-16T15:13:35.000Z</time>
      </trkpt>
      <trkpt lat="48.21834" lon="-2.85849">
        <ele>105.19999694824</ele>
        <time>2020-10-16T15:13:36.000Z</time>
      </trkpt>
      <trkpt lat="48.2183" lon="-2.85851">
        <ele>105.40000152588</ele>
        <time>2020-10-16T15:13:37.000Z</time>
      </trkpt>
      <trkpt lat="48.21826" lon="-2.85852">
        <ele>105.59999847412</ele>
        <time>2020-10-16T15:13:38.000Z</time>
      </trkpt>
      <trkpt lat="48.21822" lon="-2.85854">
        <ele>105.80000305176</ele>
        <time>2020-10-16T15:13:39.000Z</time>
      </trkpt>
      <trkpt lat="48.21819" lon="-2.85855">
        <ele>106</ele>
        <time>2020-10-16T15:13:40.000Z</time>
      </trkpt>
      <trkpt lat="48.21815" lon="-2.85857">
        <ele>106.19999694824</ele>
        <time>2020-10-16T15:13:41.000Z</time>
      </trkpt>
      <trkpt lat="48.21811" lon="-2.85858">
        <ele>106.40000152588</ele>
        <time>2020-10-16T15:13:42.000Z</time>
      </trkpt>
      <trkpt lat="48.21806" lon="-2.85859">
        <ele>106.59999847412</ele>
        <time>2020-10-16T15:13:43.000Z</time>
      </trkpt>
      <trkpt lat="48.21802" lon="-2.85859">
        <ele>106.80000305176</ele>
        <time>2020-10-16T15:13:44.000Z</time>
      </trkpt>
      <trkpt lat="48.21798" lon="-2.85859">
        <ele>106.80000305176</ele>
        <time>2020-10-16T15:13:45.000Z</time>
      </trkpt>
      <trkpt lat="48.21794" lon="-2.85859">
        <ele>107</ele>
        <time>2020-10-16T15:13:46.000Z</time>
      </trkpt>
      <trkpt lat="48.21789" lon="-2.85858">
        <ele>107</ele>
        <time>2020-10-16T15:13:47.000Z</time>
      </trkpt>
      <trkpt lat="48.21784" lon="-2.85856">
        <ele>106.80000305176</ele>
        <time>2020-10-16T15:13:48.000Z</time>
      </trkpt>
      <trkpt lat="48.21776" lon="-2.85854">
        <ele>106.80000305176</ele>
        <time>2020-10-16T15:13:49.000Z</time>
      </trkpt>
      <trkpt lat="48.21776" lon="-2.85854">
        <ele>106.80000305176</ele>
        <time>2020-10-16T15:13:50.000Z</time>
      </trkpt>
      <trkpt lat="48.21772" lon="-2.85853">
        <ele>106.80000305176</ele>
        <time>2020-10-16T15:13:51.000Z</time>
      </trkpt>
      <trkpt lat="48.21768" lon="-2.85851">
        <ele>106.80000305176</ele>
        <time>2020-10-16T15:13:52.000Z</time>
      </trkpt>
      <trkpt lat="48.21764" lon="-2.85849">
        <ele>106.80000305176</ele>
        <time>2020-10-16T15:13:53.000Z</time>
      </trkpt>
      <trkpt lat="48.21759" lon="-2.85848">
        <ele>106.80000305176</ele>
        <time>2020-10-16T15:13:54.000Z</time>
      </trkpt>
      <trkpt lat="48.21755" lon="-2.85846">
        <ele>107</ele>
        <time>2020-10-16T15:13:55.000Z</time>
      </trkpt>
      <trkpt lat="48.2175" lon="-2.85844">
        <ele>107</ele>
        <time>2020-10-16T15:13:56.000Z</time>
      </trkpt>
      <trkpt lat="48.21745" lon="-2.85842">
        <ele>107</ele>
        <time>2020-10-16T15:13:57.000Z</time>
      </trkpt>
      <trkpt lat="48.21739" lon="-2.85838">
        <ele>107</ele>
        <time>2020-10-16T15:13:58.000Z</time>
      </trkpt>
      <trkpt lat="48.21734" lon="-2.85835">
        <ele>107</ele>
        <time>2020-10-16T15:13:59.000Z</time>
      </trkpt>
      <trkpt lat="48.21725" lon="-2.85829">
        <ele>107</ele>
        <time>2020-10-16T15:14:00.000Z</time>
      </trkpt>
      <trkpt lat="48.21725" lon="-2.85829">
        <ele>107</ele>
        <time>2020-10-16T15:14:01.000Z</time>
      </trkpt>
      <trkpt lat="48.2172" lon="-2.85826">
        <ele>107</ele>
        <time>2020-10-16T15:14:02.000Z</time>
      </trkpt>
      <trkpt lat="48.21715" lon="-2.85822">
        <ele>107</ele>
        <time>2020-10-16T15:14:03.000Z</time>
      </trkpt>
      <trkpt lat="48.21711" lon="-2.85819">
        <ele>107</ele>
        <time>2020-10-16T15:14:04.000Z</time>
      </trkpt>
      <trkpt lat="48.21702" lon="-2.85813">
        <ele>106.80000305176</ele>
        <time>2020-10-16T15:14:05.000Z</time>
      </trkpt>
      <trkpt lat="48.21702" lon="-2.85813">
        <ele>106.80000305176</ele>
        <time>2020-10-16T15:14:06.000Z</time>
      </trkpt>
      <trkpt lat="48.21698" lon="-2.8581">
        <ele>106.59999847412</ele>
        <time>2020-10-16T15:14:07.000Z</time>
      </trkpt>
      <trkpt lat="48.21693" lon="-2.85805">
        <ele>106.19999694824</ele>
        <time>2020-10-16T15:14:08.000Z</time>
      </trkpt>
      <trkpt lat="48.21688" lon="-2.85801">
        <ele>105.80000305176</ele>
        <time>2020-10-16T15:14:09.000Z</time>
      </trkpt>
      <trkpt lat="48.21683" lon="-2.85795">
        <ele>105.19999694824</ele>
        <time>2020-10-16T15:14:10.000Z</time>
      </trkpt>
      <trkpt lat="48.21678" lon="-2.85791">
        <ele>104.80000305176</ele>
        <time>2020-10-16T15:14:11.000Z</time>
      </trkpt>
      <trkpt lat="48.21672" lon="-2.85785">
        <ele>104.19999694824</ele>
        <time>2020-10-16T15:14:12.000Z</time>
      </trkpt>
      <trkpt lat="48.21667" lon="-2.85779">
        <ele>103.59999847412</ele>
        <time>2020-10-16T15:14:13.000Z</time>
      </trkpt>
      <trkpt lat="48.21662" lon="-2.85774">
        <ele>103.19999694824</ele>
        <time>2020-10-16T15:14:14.000Z</time>
      </trkpt>
      <trkpt lat="48.21656" lon="-2.85768">
        <ele>102.80000305176</ele>
        <time>2020-10-16T15:14:15.000Z</time>
      </trkpt>
      <trkpt lat="48.21649" lon="-2.85764">
        <ele>102.80000305176</ele>
        <time>2020-10-16T15:14:16.000Z</time>
      </trkpt>
      <trkpt lat="48.21643" lon="-2.8576">
        <ele>102.59999847412</ele>
        <time>2020-10-16T15:14:17.000Z</time>
      </trkpt>
      <trkpt lat="48.21637" lon="-2.85756">
        <ele>102.59999847412</ele>
        <time>2020-10-16T15:14:18.000Z</time>
      </trkpt>
      <trkpt lat="48.21632" lon="-2.85752">
        <ele>102.59999847412</ele>
        <time>2020-10-16T15:14:19.000Z</time>
      </trkpt>
      <trkpt lat="48.21627" lon="-2.85748">
        <ele>102.80000305176</ele>
        <time>2020-10-16T15:14:20.000Z</time>
      </trkpt>
      <trkpt lat="48.21622" lon="-2.85743">
        <ele>103</ele>
        <time>2020-10-16T15:14:21.000Z</time>
      </trkpt>
      <trkpt lat="48.21618" lon="-2.85739">
        <ele>103.19999694824</ele>
        <time>2020-10-16T15:14:22.000Z</time>
      </trkpt>
      <trkpt lat="48.21614" lon="-2.85735">
        <ele>103.19999694824</ele>
        <time>2020-10-16T15:14:23.000Z</time>
      </trkpt>
      <trkpt lat="48.2161" lon="-2.85731">
        <ele>102.80000305176</ele>
        <time>2020-10-16T15:14:24.000Z</time>
      </trkpt>
      <trkpt lat="48.21605" lon="-2.85727">
        <ele>102.59999847412</ele>
        <time>2020-10-16T15:14:25.000Z</time>
      </trkpt>
      <trkpt lat="48.21599" lon="-2.85722">
        <ele>102</ele>
        <time>2020-10-16T15:14:26.000Z</time>
      </trkpt>
      <trkpt lat="48.21594" lon="-2.85718">
        <ele>101.80000305176</ele>
        <time>2020-10-16T15:14:27.000Z</time>
      </trkpt>
      <trkpt lat="48.21589" lon="-2.85714">
        <ele>101.59999847412</ele>
        <time>2020-10-16T15:14:28.000Z</time>
      </trkpt>
      <trkpt lat="48.21584" lon="-2.8571">
        <ele>101.59999847412</ele>
        <time>2020-10-16T15:14:29.000Z</time>
      </trkpt>
      <trkpt lat="48.21579" lon="-2.85707">
        <ele>101.40000152588</ele>
        <time>2020-10-16T15:14:30.000Z</time>
      </trkpt>
      <trkpt lat="48.21574" lon="-2.85704">
        <ele>101.40000152588</ele>
        <time>2020-10-16T15:14:31.000Z</time>
      </trkpt>
      <trkpt lat="48.21569" lon="-2.857">
        <ele>101.19999694824</ele>
        <time>2020-10-16T15:14:32.000Z</time>
      </trkpt>
      <trkpt lat="48.21565" lon="-2.85697">
        <ele>101.40000152588</ele>
        <time>2020-10-16T15:14:33.000Z</time>
      </trkpt>
      <trkpt lat="48.2156" lon="-2.85694">
        <ele>101.40000152588</ele>
        <time>2020-10-16T15:14:34.000Z</time>
      </trkpt>
      <trkpt lat="48.21554" lon="-2.8569">
        <ele>101.59999847412</ele>
        <time>2020-10-16T15:14:35.000Z</time>
      </trkpt>
      <trkpt lat="48.2155" lon="-2.85686">
        <ele>101.59999847412</ele>
        <time>2020-10-16T15:14:36.000Z</time>
      </trkpt>
      <trkpt lat="48.21546" lon="-2.85684">
        <ele>101.80000305176</ele>
        <time>2020-10-16T15:14:37.000Z</time>
      </trkpt>
      <trkpt lat="48.21542" lon="-2.85681">
        <ele>101.80000305176</ele>
        <time>2020-10-16T15:14:38.000Z</time>
      </trkpt>
      <trkpt lat="48.21538" lon="-2.85679">
        <ele>102</ele>
        <time>2020-10-16T15:14:39.000Z</time>
      </trkpt>
      <trkpt lat="48.21534" lon="-2.85677">
        <ele>102</ele>
        <time>2020-10-16T15:14:40.000Z</time>
      </trkpt>
      <trkpt lat="48.2153" lon="-2.85674">
        <ele>102.19999694824</ele>
        <time>2020-10-16T15:14:41.000Z</time>
      </trkpt>
      <trkpt lat="48.21526" lon="-2.85671">
        <ele>102.40000152588</ele>
        <time>2020-10-16T15:14:42.000Z</time>
      </trkpt>
      <trkpt lat="48.21522" lon="-2.85668">
        <ele>102.59999847412</ele>
        <time>2020-10-16T15:14:43.000Z</time>
      </trkpt>
      <trkpt lat="48.21517" lon="-2.85664">
        <ele>102.59999847412</ele>
        <time>2020-10-16T15:14:44.000Z</time>
      </trkpt>
      <trkpt lat="48.21513" lon="-2.85659">
        <ele>102.59999847412</ele>
        <time>2020-10-16T15:14:45.000Z</time>
      </trkpt>
      <trkpt lat="48.21509" lon="-2.85653">
        <ele>102.40000152588</ele>
        <time>2020-10-16T15:14:46.000Z</time>
      </trkpt>
      <trkpt lat="48.21505" lon="-2.85646">
        <ele>102.19999694824</ele>
        <time>2020-10-16T15:14:47.000Z</time>
      </trkpt>
      <trkpt lat="48.21497" lon="-2.85631">
        <ele>101.80000305176</ele>
        <time>2020-10-16T15:14:48.000Z</time>
      </trkpt>
      <trkpt lat="48.21497" lon="-2.85631">
        <ele>101.80000305176</ele>
        <time>2020-10-16T15:14:49.000Z</time>
      </trkpt>
      <trkpt lat="48.21494" lon="-2.85622">
        <ele>101.59999847412</ele>
        <time>2020-10-16T15:14:50.000Z</time>
      </trkpt>
      <trkpt lat="48.21491" lon="-2.85614">
        <ele>101.40000152588</ele>
        <time>2020-10-16T15:14:51.000Z</time>
      </trkpt>
      <trkpt lat="48.21487" lon="-2.85605">
        <ele>101.40000152588</ele>
        <time>2020-10-16T15:14:52.000Z</time>
      </trkpt>
      <trkpt lat="48.21484" lon="-2.85595">
        <ele>101.40000152588</ele>
        <time>2020-10-16T15:14:53.000Z</time>
      </trkpt>
      <trkpt lat="48.21481" lon="-2.85586">
        <ele>101.40000152588</ele>
        <time>2020-10-16T15:14:54.000Z</time>
      </trkpt>
      <trkpt lat="48.21478" lon="-2.85576">
        <ele>101.40000152588</ele>
        <time>2020-10-16T15:14:55.000Z</time>
      </trkpt>
      <trkpt lat="48.21475" lon="-2.85567">
        <ele>101.40000152588</ele>
        <time>2020-10-16T15:14:56.000Z</time>
      </trkpt>
      <trkpt lat="48.21472" lon="-2.85558">
        <ele>101.59999847412</ele>
        <time>2020-10-16T15:14:57.000Z</time>
      </trkpt>
      <trkpt lat="48.21468" lon="-2.8555">
        <ele>101.59999847412</ele>
        <time>2020-10-16T15:14:58.000Z</time>
      </trkpt>
      <trkpt lat="48.21464" lon="-2.85542">
        <ele>101.19999694824</ele>
        <time>2020-10-16T15:14:59.000Z</time>
      </trkpt>
      <trkpt lat="48.21459" lon="-2.85534">
        <ele>101</ele>
        <time>2020-10-16T15:15:00.000Z</time>
      </trkpt>
      <trkpt lat="48.21453" lon="-2.85526">
        <ele>100.59999847412</ele>
        <time>2020-10-16T15:15:01.000Z</time>
      </trkpt>
      <trkpt lat="48.21443" lon="-2.85514">
        <ele>100.19999694824</ele>
        <time>2020-10-16T15:15:02.000Z</time>
      </trkpt>
      <trkpt lat="48.21438" lon="-2.85508">
        <ele>100</ele>
        <time>2020-10-16T15:15:03.000Z</time>
      </trkpt>
      <trkpt lat="48.21438" lon="-2.85508">
        <ele>100</ele>
        <time>2020-10-16T15:15:04.000Z</time>
      </trkpt>
      <trkpt lat="48.21434" lon="-2.85502">
        <ele>99.800003051758</ele>
        <time>2020-10-16T15:15:05.000Z</time>
      </trkpt>
      <trkpt lat="48.21426" lon="-2.85491">
        <ele>99.599998474121</ele>
        <time>2020-10-16T15:15:06.000Z</time>
      </trkpt>
      <trkpt lat="48.21426" lon="-2.85491">
        <ele>99.599998474121</ele>
        <time>2020-10-16T15:15:07.000Z</time>
      </trkpt>
      <trkpt lat="48.21422" lon="-2.85485">
        <ele>99.599998474121</ele>
        <time>2020-10-16T15:15:08.000Z</time>
      </trkpt>
      <trkpt lat="48.21417" lon="-2.85481">
        <ele>99.599998474121</ele>
        <time>2020-10-16T15:15:09.000Z</time>
      </trkpt>
      <trkpt lat="48.21412" lon="-2.85476">
        <ele>99.800003051758</ele>
        <time>2020-10-16T15:15:10.000Z</time>
      </trkpt>
      <trkpt lat="48.21407" lon="-2.85471">
        <ele>99.800003051758</ele>
        <time>2020-10-16T15:15:11.000Z</time>
      </trkpt>
      <trkpt lat="48.21403" lon="-2.85466">
        <ele>99.800003051758</ele>
        <time>2020-10-16T15:15:12.000Z</time>
      </trkpt>
      <trkpt lat="48.21398" lon="-2.85461">
        <ele>99.800003051758</ele>
        <time>2020-10-16T15:15:13.000Z</time>
      </trkpt>
      <trkpt lat="48.21394" lon="-2.85457">
        <ele>100</ele>
        <time>2020-10-16T15:15:14.000Z</time>
      </trkpt>
      <trkpt lat="48.21389" lon="-2.85452">
        <ele>100</ele>
        <time>2020-10-16T15:15:15.000Z</time>
      </trkpt>
      <trkpt lat="48.21384" lon="-2.85448">
        <ele>100</ele>
        <time>2020-10-16T15:15:16.000Z</time>
      </trkpt>
      <trkpt lat="48.21379" lon="-2.85444">
        <ele>100.19999694824</ele>
        <time>2020-10-16T15:15:17.000Z</time>
      </trkpt>
      <trkpt lat="48.21374" lon="-2.8544">
        <ele>100.19999694824</ele>
        <time>2020-10-16T15:15:18.000Z</time>
      </trkpt>
      <trkpt lat="48.2137" lon="-2.85436">
        <ele>100.40000152588</ele>
        <time>2020-10-16T15:15:19.000Z</time>
      </trkpt>
      <trkpt lat="48.21365" lon="-2.85432">
        <ele>100.40000152588</ele>
        <time>2020-10-16T15:15:20.000Z</time>
      </trkpt>
      <trkpt lat="48.21361" lon="-2.85428">
        <ele>100.40000152588</ele>
        <time>2020-10-16T15:15:21.000Z</time>
      </trkpt>
      <trkpt lat="48.21357" lon="-2.85424">
        <ele>100.40000152588</ele>
        <time>2020-10-16T15:15:22.000Z</time>
      </trkpt>
      <trkpt lat="48.21353" lon="-2.85419">
        <ele>100.59999847412</ele>
        <time>2020-10-16T15:15:23.000Z</time>
      </trkpt>
      <trkpt lat="48.21349" lon="-2.85415">
        <ele>100.59999847412</ele>
        <time>2020-10-16T15:15:24.000Z</time>
      </trkpt>
      <trkpt lat="48.21345" lon="-2.8541">
        <ele>100.80000305176</ele>
        <time>2020-10-16T15:15:25.000Z</time>
      </trkpt>
      <trkpt lat="48.21341" lon="-2.85405">
        <ele>100.80000305176</ele>
        <time>2020-10-16T15:15:26.000Z</time>
      </trkpt>
      <trkpt lat="48.21337" lon="-2.854">
        <ele>100.80000305176</ele>
        <time>2020-10-16T15:15:27.000Z</time>
      </trkpt>
      <trkpt lat="48.21333" lon="-2.85394">
        <ele>100.80000305176</ele>
        <time>2020-10-16T15:15:28.000Z</time>
      </trkpt>
      <trkpt lat="48.21329" lon="-2.85389">
        <ele>101</ele>
        <time>2020-10-16T15:15:29.000Z</time>
      </trkpt>
      <trkpt lat="48.21325" lon="-2.85382">
        <ele>101</ele>
        <time>2020-10-16T15:15:30.000Z</time>
      </trkpt>
      <trkpt lat="48.21322" lon="-2.85376">
        <ele>101</ele>
        <time>2020-10-16T15:15:31.000Z</time>
      </trkpt>
      <trkpt lat="48.21318" lon="-2.85369">
        <ele>101</ele>
        <time>2020-10-16T15:15:32.000Z</time>
      </trkpt>
      <trkpt lat="48.21314" lon="-2.85362">
        <ele>101.19999694824</ele>
        <time>2020-10-16T15:15:33.000Z</time>
      </trkpt>
      <trkpt lat="48.21311" lon="-2.85356">
        <ele>101.40000152588</ele>
        <time>2020-10-16T15:15:34.000Z</time>
      </trkpt>
      <trkpt lat="48.21307" lon="-2.85349">
        <ele>101.80000305176</ele>
        <time>2020-10-16T15:15:35.000Z</time>
      </trkpt>
      <trkpt lat="48.21304" lon="-2.85342">
        <ele>102</ele>
        <time>2020-10-16T15:15:36.000Z</time>
      </trkpt>
      <trkpt lat="48.21301" lon="-2.85335">
        <ele>102.19999694824</ele>
        <time>2020-10-16T15:15:37.000Z</time>
      </trkpt>
      <trkpt lat="48.21298" lon="-2.85328">
        <ele>102.19999694824</ele>
        <time>2020-10-16T15:15:38.000Z</time>
      </trkpt>
      <trkpt lat="48.21295" lon="-2.85321">
        <ele>102.40000152588</ele>
        <time>2020-10-16T15:15:39.000Z</time>
      </trkpt>
      <trkpt lat="48.21293" lon="-2.85314">
        <ele>102.40000152588</ele>
        <time>2020-10-16T15:15:40.000Z</time>
      </trkpt>
      <trkpt lat="48.21291" lon="-2.85307">
        <ele>102.40000152588</ele>
        <time>2020-10-16T15:15:41.000Z</time>
      </trkpt>
      <trkpt lat="48.21288" lon="-2.853">
        <ele>102.40000152588</ele>
        <time>2020-10-16T15:15:42.000Z</time>
      </trkpt>
      <trkpt lat="48.21285" lon="-2.85293">
        <ele>102.19999694824</ele>
        <time>2020-10-16T15:15:43.000Z</time>
      </trkpt>
      <trkpt lat="48.21283" lon="-2.85287">
        <ele>102.19999694824</ele>
        <time>2020-10-16T15:15:44.000Z</time>
      </trkpt>
      <trkpt lat="48.2128" lon="-2.85279">
        <ele>102</ele>
        <time>2020-10-16T15:15:45.000Z</time>
      </trkpt>
      <trkpt lat="48.21278" lon="-2.85272">
        <ele>101.80000305176</ele>
        <time>2020-10-16T15:15:46.000Z</time>
      </trkpt>
      <trkpt lat="48.21275" lon="-2.85264">
        <ele>101.59999847412</ele>
        <time>2020-10-16T15:15:47.000Z</time>
      </trkpt>
      <trkpt lat="48.21273" lon="-2.85256">
        <ele>101.40000152588</ele>
        <time>2020-10-16T15:15:48.000Z</time>
      </trkpt>
      <trkpt lat="48.2127" lon="-2.85248">
        <ele>101.59999847412</ele>
        <time>2020-10-16T15:15:49.000Z</time>
      </trkpt>
      <trkpt lat="48.21267" lon="-2.8524">
        <ele>101.19999694824</ele>
        <time>2020-10-16T15:15:50.000Z</time>
      </trkpt>
      <trkpt lat="48.21263" lon="-2.85232">
        <ele>100.80000305176</ele>
        <time>2020-10-16T15:15:51.000Z</time>
      </trkpt>
      <trkpt lat="48.21259" lon="-2.85225">
        <ele>100.59999847412</ele>
        <time>2020-10-16T15:15:52.000Z</time>
      </trkpt>
      <trkpt lat="48.21254" lon="-2.85218">
        <ele>100.19999694824</ele>
        <time>2020-10-16T15:15:53.000Z</time>
      </trkpt>
      <trkpt lat="48.2125" lon="-2.85212">
        <ele>99.800003051758</ele>
        <time>2020-10-16T15:15:54.000Z</time>
      </trkpt>
      <trkpt lat="48.21245" lon="-2.85206">
        <ele>99.599998474121</ele>
        <time>2020-10-16T15:15:55.000Z</time>
      </trkpt>
      <trkpt lat="48.2124" lon="-2.85202">
        <ele>99.400001525879</ele>
        <time>2020-10-16T15:15:56.000Z</time>
      </trkpt>
      <trkpt lat="48.21235" lon="-2.85198">
        <ele>99.199996948242</ele>
        <time>2020-10-16T15:15:57.000Z</time>
      </trkpt>
      <trkpt lat="48.21231" lon="-2.85194">
        <ele>98.800003051758</ele>
        <time>2020-10-16T15:15:58.000Z</time>
      </trkpt>
      <trkpt lat="48.21226" lon="-2.8519">
        <ele>98.599998474121</ele>
        <time>2020-10-16T15:15:59.000Z</time>
      </trkpt>
      <trkpt lat="48.21216" lon="-2.85183">
        <ele>98</ele>
        <time>2020-10-16T15:16:00.000Z</time>
      </trkpt>
      <trkpt lat="48.21216" lon="-2.85183">
        <ele>98</ele>
        <time>2020-10-16T15:16:01.000Z</time>
      </trkpt>
      <trkpt lat="48.21211" lon="-2.85179">
        <ele>97.800003051758</ele>
        <time>2020-10-16T15:16:02.000Z</time>
      </trkpt>
      <trkpt lat="48.21206" lon="-2.85176">
        <ele>97.599998474121</ele>
        <time>2020-10-16T15:16:03.000Z</time>
      </trkpt>
      <trkpt lat="48.21201" lon="-2.85172">
        <ele>97.199996948242</ele>
        <time>2020-10-16T15:16:04.000Z</time>
      </trkpt>
      <trkpt lat="48.21196" lon="-2.85169">
        <ele>97.199996948242</ele>
        <time>2020-10-16T15:16:05.000Z</time>
      </trkpt>
      <trkpt lat="48.21185" lon="-2.85161">
        <ele>96.800003051758</ele>
        <time>2020-10-16T15:16:06.000Z</time>
      </trkpt>
      <trkpt lat="48.21185" lon="-2.85161">
        <ele>96.800003051758</ele>
        <time>2020-10-16T15:16:07.000Z</time>
      </trkpt>
      <trkpt lat="48.2118" lon="-2.85157">
        <ele>96.800003051758</ele>
        <time>2020-10-16T15:16:08.000Z</time>
      </trkpt>
      <trkpt lat="48.21175" lon="-2.85153">
        <ele>96.800003051758</ele>
        <time>2020-10-16T15:16:09.000Z</time>
      </trkpt>
      <trkpt lat="48.21171" lon="-2.8515">
        <ele>96.800003051758</ele>
        <time>2020-10-16T15:16:10.000Z</time>
      </trkpt>
      <trkpt lat="48.21166" lon="-2.85146">
        <ele>96.800003051758</ele>
        <time>2020-10-16T15:16:11.000Z</time>
      </trkpt>
      <trkpt lat="48.21161" lon="-2.85142">
        <ele>96.800003051758</ele>
        <time>2020-10-16T15:16:12.000Z</time>
      </trkpt>
      <trkpt lat="48.21156" lon="-2.85139">
        <ele>96.800003051758</ele>
        <time>2020-10-16T15:16:13.000Z</time>
      </trkpt>
      <trkpt lat="48.21152" lon="-2.85135">
        <ele>96.800003051758</ele>
        <time>2020-10-16T15:16:14.000Z</time>
      </trkpt>
      <trkpt lat="48.21147" lon="-2.85131">
        <ele>96.800003051758</ele>
        <time>2020-10-16T15:16:15.000Z</time>
      </trkpt>
      <trkpt lat="48.21142" lon="-2.85128">
        <ele>96.800003051758</ele>
        <time>2020-10-16T15:16:16.000Z</time>
      </trkpt>
      <trkpt lat="48.21137" lon="-2.85124">
        <ele>97</ele>
        <time>2020-10-16T15:16:17.000Z</time>
      </trkpt>
      <trkpt lat="48.21132" lon="-2.8512">
        <ele>97.199996948242</ele>
        <time>2020-10-16T15:16:18.000Z</time>
      </trkpt>
      <trkpt lat="48.21128" lon="-2.85116">
        <ele>97.199996948242</ele>
        <time>2020-10-16T15:16:19.000Z</time>
      </trkpt>
      <trkpt lat="48.21123" lon="-2.85112">
        <ele>97.400001525879</ele>
        <time>2020-10-16T15:16:20.000Z</time>
      </trkpt>
      <trkpt lat="48.21119" lon="-2.85109">
        <ele>97.400001525879</ele>
        <time>2020-10-16T15:16:21.000Z</time>
      </trkpt>
      <trkpt lat="48.21114" lon="-2.85105">
        <ele>97.599998474121</ele>
        <time>2020-10-16T15:16:22.000Z</time>
      </trkpt>
      <trkpt lat="48.21109" lon="-2.85103">
        <ele>97.599998474121</ele>
        <time>2020-10-16T15:16:23.000Z</time>
      </trkpt>
      <trkpt lat="48.21105" lon="-2.85101">
        <ele>97.800003051758</ele>
        <time>2020-10-16T15:16:24.000Z</time>
      </trkpt>
      <trkpt lat="48.211" lon="-2.85099">
        <ele>97.800003051758</ele>
        <time>2020-10-16T15:16:25.000Z</time>
      </trkpt>
      <trkpt lat="48.21095" lon="-2.85098">
        <ele>98</ele>
        <time>2020-10-16T15:16:26.000Z</time>
      </trkpt>
      <trkpt lat="48.21091" lon="-2.85098">
        <ele>98</ele>
        <time>2020-10-16T15:16:27.000Z</time>
      </trkpt>
      <trkpt lat="48.21086" lon="-2.85098">
        <ele>98</ele>
        <time>2020-10-16T15:16:28.000Z</time>
      </trkpt>
      <trkpt lat="48.21082" lon="-2.85098">
        <ele>98</ele>
        <time>2020-10-16T15:16:29.000Z</time>
      </trkpt>
      <trkpt lat="48.21078" lon="-2.85098">
        <ele>97.800003051758</ele>
        <time>2020-10-16T15:16:30.000Z</time>
      </trkpt>
      <trkpt lat="48.2107" lon="-2.85099">
        <ele>97.800003051758</ele>
        <time>2020-10-16T15:16:31.000Z</time>
      </trkpt>
      <trkpt lat="48.2107" lon="-2.85099">
        <ele>97.800003051758</ele>
        <time>2020-10-16T15:16:32.000Z</time>
      </trkpt>
      <trkpt lat="48.21066" lon="-2.85099">
        <ele>97.800003051758</ele>
        <time>2020-10-16T15:16:33.000Z</time>
      </trkpt>
      <trkpt lat="48.21063" lon="-2.851">
        <ele>97.800003051758</ele>
        <time>2020-10-16T15:16:34.000Z</time>
      </trkpt>
      <trkpt lat="48.2106" lon="-2.85101">
        <ele>97.800003051758</ele>
        <time>2020-10-16T15:16:35.000Z</time>
      </trkpt>
      <trkpt lat="48.21056" lon="-2.85103">
        <ele>97.599998474121</ele>
        <time>2020-10-16T15:16:36.000Z</time>
      </trkpt>
      <trkpt lat="48.21053" lon="-2.85105">
        <ele>97.599998474121</ele>
        <time>2020-10-16T15:16:37.000Z</time>
      </trkpt>
      <trkpt lat="48.21051" lon="-2.85109">
        <ele>97.800003051758</ele>
        <time>2020-10-16T15:16:38.000Z</time>
      </trkpt>
      <trkpt lat="48.21049" lon="-2.85114">
        <ele>97.800003051758</ele>
        <time>2020-10-16T15:16:39.000Z</time>
      </trkpt>
      <trkpt lat="48.21048" lon="-2.8512">
        <ele>97.800003051758</ele>
        <time>2020-10-16T15:16:40.000Z</time>
      </trkpt>
      <trkpt lat="48.21048" lon="-2.85125">
        <ele>97.800003051758</ele>
        <time>2020-10-16T15:16:41.000Z</time>
      </trkpt>
      <trkpt lat="48.21047" lon="-2.85131">
        <ele>98</ele>
        <time>2020-10-16T15:16:42.000Z</time>
      </trkpt>
      <trkpt lat="48.21048" lon="-2.85136">
        <ele>98</ele>
        <time>2020-10-16T15:16:43.000Z</time>
      </trkpt>
      <trkpt lat="48.21048" lon="-2.85142">
        <ele>98</ele>
        <time>2020-10-16T15:16:44.000Z</time>
      </trkpt>
      <trkpt lat="48.21049" lon="-2.85148">
        <ele>98</ele>
        <time>2020-10-16T15:16:45.000Z</time>
      </trkpt>
      <trkpt lat="48.2105" lon="-2.85161">
        <ele>98</ele>
        <time>2020-10-16T15:16:46.000Z</time>
      </trkpt>
      <trkpt lat="48.2105" lon="-2.85161">
        <ele>98</ele>
        <time>2020-10-16T15:16:47.000Z</time>
      </trkpt>
      <trkpt lat="48.21051" lon="-2.85167">
        <ele>98</ele>
        <time>2020-10-16T15:16:48.000Z</time>
      </trkpt>
      <trkpt lat="48.21051" lon="-2.85173">
        <ele>98</ele>
        <time>2020-10-16T15:16:49.000Z</time>
      </trkpt>
      <trkpt lat="48.21051" lon="-2.85179">
        <ele>98</ele>
        <time>2020-10-16T15:16:50.000Z</time>
      </trkpt>
      <trkpt lat="48.21051" lon="-2.85186">
        <ele>98.199996948242</ele>
        <time>2020-10-16T15:16:51.000Z</time>
      </trkpt>
      <trkpt lat="48.21052" lon="-2.85192">
        <ele>98.199996948242</ele>
        <time>2020-10-16T15:16:52.000Z</time>
      </trkpt>
      <trkpt lat="48.21052" lon="-2.85199">
        <ele>98.400001525879</ele>
        <time>2020-10-16T15:16:53.000Z</time>
      </trkpt>
      <trkpt lat="48.21052" lon="-2.85205">
        <ele>98.400001525879</ele>
        <time>2020-10-16T15:16:54.000Z</time>
      </trkpt>
      <trkpt lat="48.21052" lon="-2.85212">
        <ele>98.400001525879</ele>
        <time>2020-10-16T15:16:55.000Z</time>
      </trkpt>
      <trkpt lat="48.21052" lon="-2.85218">
        <ele>98.599998474121</ele>
        <time>2020-10-16T15:16:56.000Z</time>
      </trkpt>
      <trkpt lat="48.21053" lon="-2.85224">
        <ele>98.599998474121</ele>
        <time>2020-10-16T15:16:57.000Z</time>
      </trkpt>
      <trkpt lat="48.21053" lon="-2.85231">
        <ele>98.599998474121</ele>
        <time>2020-10-16T15:16:58.000Z</time>
      </trkpt>
      <trkpt lat="48.21053" lon="-2.85237">
        <ele>98.800003051758</ele>
        <time>2020-10-16T15:16:59.000Z</time>
      </trkpt>
      <trkpt lat="48.21053" lon="-2.85243">
        <ele>98.800003051758</ele>
        <time>2020-10-16T15:17:00.000Z</time>
      </trkpt>
      <trkpt lat="48.21053" lon="-2.85249">
        <ele>99</ele>
        <time>2020-10-16T15:17:01.000Z</time>
      </trkpt>
      <trkpt lat="48.21053" lon="-2.85255">
        <ele>99</ele>
        <time>2020-10-16T15:17:02.000Z</time>
      </trkpt>
      <trkpt lat="48.21053" lon="-2.8526">
        <ele>99</ele>
        <time>2020-10-16T15:17:03.000Z</time>
      </trkpt>
      <trkpt lat="48.21052" lon="-2.85266">
        <ele>99</ele>
        <time>2020-10-16T15:17:04.000Z</time>
      </trkpt>
      <trkpt lat="48.21052" lon="-2.85272">
        <ele>99</ele>
        <time>2020-10-16T15:17:05.000Z</time>
      </trkpt>
      <trkpt lat="48.21051" lon="-2.85278">
        <ele>99</ele>
        <time>2020-10-16T15:17:06.000Z</time>
      </trkpt>
      <trkpt lat="48.21051" lon="-2.85284">
        <ele>99</ele>
        <time>2020-10-16T15:17:07.000Z</time>
      </trkpt>
      <trkpt lat="48.21051" lon="-2.8529">
        <ele>99</ele>
        <time>2020-10-16T15:17:08.000Z</time>
      </trkpt>
      <trkpt lat="48.21051" lon="-2.85296">
        <ele>99</ele>
        <time>2020-10-16T15:17:09.000Z</time>
      </trkpt>
      <trkpt lat="48.21051" lon="-2.85302">
        <ele>99</ele>
        <time>2020-10-16T15:17:10.000Z</time>
      </trkpt>
      <trkpt lat="48.21051" lon="-2.85308">
        <ele>99</ele>
        <time>2020-10-16T15:17:11.000Z</time>
      </trkpt>
      <trkpt lat="48.21051" lon="-2.85314">
        <ele>99</ele>
        <time>2020-10-16T15:17:12.000Z</time>
      </trkpt>
      <trkpt lat="48.2105" lon="-2.8532">
        <ele>99</ele>
        <time>2020-10-16T15:17:13.000Z</time>
      </trkpt>
      <trkpt lat="48.2105" lon="-2.85326">
        <ele>99</ele>
        <time>2020-10-16T15:17:14.000Z</time>
      </trkpt>
      <trkpt lat="48.2105" lon="-2.85332">
        <ele>99</ele>
        <time>2020-10-16T15:17:15.000Z</time>
      </trkpt>
      <trkpt lat="48.21049" lon="-2.85338">
        <ele>99</ele>
        <time>2020-10-16T15:17:16.000Z</time>
      </trkpt>
      <trkpt lat="48.21049" lon="-2.85344">
        <ele>99.199996948242</ele>
        <time>2020-10-16T15:17:17.000Z</time>
      </trkpt>
      <trkpt lat="48.21048" lon="-2.8535">
        <ele>99.199996948242</ele>
        <time>2020-10-16T15:17:18.000Z</time>
      </trkpt>
      <trkpt lat="48.21048" lon="-2.85356">
        <ele>99.400001525879</ele>
        <time>2020-10-16T15:17:19.000Z</time>
      </trkpt>
      <trkpt lat="48.21047" lon="-2.85361">
        <ele>99.599998474121</ele>
        <time>2020-10-16T15:17:20.000Z</time>
      </trkpt>
      <trkpt lat="48.21046" lon="-2.85367">
        <ele>99.599998474121</ele>
        <time>2020-10-16T15:17:21.000Z</time>
      </trkpt>
      <trkpt lat="48.21045" lon="-2.85373">
        <ele>99.800003051758</ele>
        <time>2020-10-16T15:17:22.000Z</time>
      </trkpt>
      <trkpt lat="48.21044" lon="-2.85378">
        <ele>100</ele>
        <time>2020-10-16T15:17:23.000Z</time>
      </trkpt>
      <trkpt lat="48.21044" lon="-2.85384">
        <ele>100</ele>
        <time>2020-10-16T15:17:24.000Z</time>
      </trkpt>
      <trkpt lat="48.21043" lon="-2.8539">
        <ele>100.19999694824</ele>
        <time>2020-10-16T15:17:25.000Z</time>
      </trkpt>
      <trkpt lat="48.21042" lon="-2.85396">
        <ele>100.40000152588</ele>
        <time>2020-10-16T15:17:26.000Z</time>
      </trkpt>
      <trkpt lat="48.21041" lon="-2.85401">
        <ele>100.40000152588</ele>
        <time>2020-10-16T15:17:27.000Z</time>
      </trkpt>
      <trkpt lat="48.2104" lon="-2.85407">
        <ele>100.59999847412</ele>
        <time>2020-10-16T15:17:28.000Z</time>
      </trkpt>
      <trkpt lat="48.21039" lon="-2.85413">
        <ele>100.80000305176</ele>
        <time>2020-10-16T15:17:29.000Z</time>
      </trkpt>
      <trkpt lat="48.21038" lon="-2.85419">
        <ele>101</ele>
        <time>2020-10-16T15:17:30.000Z</time>
      </trkpt>
      <trkpt lat="48.21037" lon="-2.85425">
        <ele>101</ele>
        <time>2020-10-16T15:17:31.000Z</time>
      </trkpt>
      <trkpt lat="48.21036" lon="-2.8543">
        <ele>101</ele>
        <time>2020-10-16T15:17:32.000Z</time>
      </trkpt>
      <trkpt lat="48.21036" lon="-2.85436">
        <ele>101.19999694824</ele>
        <time>2020-10-16T15:17:33.000Z</time>
      </trkpt>
      <trkpt lat="48.21035" lon="-2.85443">
        <ele>101.19999694824</ele>
        <time>2020-10-16T15:17:34.000Z</time>
      </trkpt>
      <trkpt lat="48.21034" lon="-2.85449">
        <ele>101.40000152588</ele>
        <time>2020-10-16T15:17:35.000Z</time>
      </trkpt>
      <trkpt lat="48.21033" lon="-2.85455">
        <ele>101.40000152588</ele>
        <time>2020-10-16T15:17:36.000Z</time>
      </trkpt>
      <trkpt lat="48.21032" lon="-2.85461">
        <ele>101.40000152588</ele>
        <time>2020-10-16T15:17:37.000Z</time>
      </trkpt>
      <trkpt lat="48.21031" lon="-2.85467">
        <ele>101.59999847412</ele>
        <time>2020-10-16T15:17:38.000Z</time>
      </trkpt>
      <trkpt lat="48.21031" lon="-2.85473">
        <ele>101.59999847412</ele>
        <time>2020-10-16T15:17:39.000Z</time>
      </trkpt>
      <trkpt lat="48.2103" lon="-2.85479">
        <ele>101.59999847412</ele>
        <time>2020-10-16T15:17:40.000Z</time>
      </trkpt>
      <trkpt lat="48.21029" lon="-2.85484">
        <ele>101.80000305176</ele>
        <time>2020-10-16T15:17:41.000Z</time>
      </trkpt>
      <trkpt lat="48.21027" lon="-2.8549">
        <ele>101.80000305176</ele>
        <time>2020-10-16T15:17:42.000Z</time>
      </trkpt>
      <trkpt lat="48.21026" lon="-2.85496">
        <ele>102</ele>
        <time>2020-10-16T15:17:43.000Z</time>
      </trkpt>
      <trkpt lat="48.21024" lon="-2.85502">
        <ele>102.19999694824</ele>
        <time>2020-10-16T15:17:44.000Z</time>
      </trkpt>
      <trkpt lat="48.21023" lon="-2.85507">
        <ele>102.19999694824</ele>
        <time>2020-10-16T15:17:45.000Z</time>
      </trkpt>
      <trkpt lat="48.21021" lon="-2.85513">
        <ele>102.40000152588</ele>
        <time>2020-10-16T15:17:46.000Z</time>
      </trkpt>
      <trkpt lat="48.21019" lon="-2.85518">
        <ele>102.40000152588</ele>
        <time>2020-10-16T15:17:47.000Z</time>
      </trkpt>
      <trkpt lat="48.21016" lon="-2.85523">
        <ele>102.59999847412</ele>
        <time>2020-10-16T15:17:48.000Z</time>
      </trkpt>
      <trkpt lat="48.21014" lon="-2.85528">
        <ele>102.59999847412</ele>
        <time>2020-10-16T15:17:49.000Z</time>
      </trkpt>
      <trkpt lat="48.21012" lon="-2.85534">
        <ele>102.59999847412</ele>
        <time>2020-10-16T15:17:50.000Z</time>
      </trkpt>
      <trkpt lat="48.2101" lon="-2.85539">
        <ele>102.80000305176</ele>
        <time>2020-10-16T15:17:51.000Z</time>
      </trkpt>
      <trkpt lat="48.21007" lon="-2.85543">
        <ele>103</ele>
        <time>2020-10-16T15:17:52.000Z</time>
      </trkpt>
      <trkpt lat="48.21004" lon="-2.85548">
        <ele>103.19999694824</ele>
        <time>2020-10-16T15:17:53.000Z</time>
      </trkpt>
      <trkpt lat="48.21002" lon="-2.85553">
        <ele>103.40000152588</ele>
        <time>2020-10-16T15:17:54.000Z</time>
      </trkpt>
      <trkpt lat="48.20999" lon="-2.85558">
        <ele>103.80000305176</ele>
        <time>2020-10-16T15:17:55.000Z</time>
      </trkpt>
      <trkpt lat="48.20997" lon="-2.85563">
        <ele>104</ele>
        <time>2020-10-16T15:17:56.000Z</time>
      </trkpt>
      <trkpt lat="48.20994" lon="-2.85567">
        <ele>104.19999694824</ele>
        <time>2020-10-16T15:17:57.000Z</time>
      </trkpt>
      <trkpt lat="48.20992" lon="-2.85572">
        <ele>104.40000152588</ele>
        <time>2020-10-16T15:17:58.000Z</time>
      </trkpt>
      <trkpt lat="48.20989" lon="-2.85577">
        <ele>104.59999847412</ele>
        <time>2020-10-16T15:17:59.000Z</time>
      </trkpt>
      <trkpt lat="48.20984" lon="-2.85587">
        <ele>105</ele>
        <time>2020-10-16T15:18:00.000Z</time>
      </trkpt>
      <trkpt lat="48.20984" lon="-2.85587">
        <ele>105</ele>
        <time>2020-10-16T15:18:01.000Z</time>
      </trkpt>
      <trkpt lat="48.20982" lon="-2.85592">
        <ele>105</ele>
        <time>2020-10-16T15:18:02.000Z</time>
      </trkpt>
      <trkpt lat="48.20979" lon="-2.85597">
        <ele>105</ele>
        <time>2020-10-16T15:18:03.000Z</time>
      </trkpt>
      <trkpt lat="48.20977" lon="-2.85602">
        <ele>105</ele>
        <time>2020-10-16T15:18:04.000Z</time>
      </trkpt>
      <trkpt lat="48.20973" lon="-2.85611">
        <ele>105.19999694824</ele>
        <time>2020-10-16T15:18:05.000Z</time>
      </trkpt>
      <trkpt lat="48.20973" lon="-2.85611">
        <ele>105.19999694824</ele>
        <time>2020-10-16T15:18:06.000Z</time>
      </trkpt>
      <trkpt lat="48.20971" lon="-2.85615">
        <ele>105.19999694824</ele>
        <time>2020-10-16T15:18:07.000Z</time>
      </trkpt>
      <trkpt lat="48.20969" lon="-2.85618">
        <ele>105.19999694824</ele>
        <time>2020-10-16T15:18:08.000Z</time>
      </trkpt>
      <trkpt lat="48.20966" lon="-2.85619">
        <ele>105.19999694824</ele>
        <time>2020-10-16T15:18:09.000Z</time>
      </trkpt>
      <trkpt lat="48.20963" lon="-2.85619">
        <ele>105.40000152588</ele>
        <time>2020-10-16T15:18:10.000Z</time>
      </trkpt>
      <trkpt lat="48.2096" lon="-2.85618">
        <ele>105.59999847412</ele>
        <time>2020-10-16T15:18:11.000Z</time>
      </trkpt>
      <trkpt lat="48.20956" lon="-2.85616">
        <ele>105.59999847412</ele>
        <time>2020-10-16T15:18:12.000Z</time>
      </trkpt>
      <trkpt lat="48.20953" lon="-2.85615">
        <ele>105.80000305176</ele>
        <time>2020-10-16T15:18:13.000Z</time>
      </trkpt>
      <trkpt lat="48.2095" lon="-2.85613">
        <ele>106</ele>
        <time>2020-10-16T15:18:14.000Z</time>
      </trkpt>
      <trkpt lat="48.20947" lon="-2.85611">
        <ele>106</ele>
        <time>2020-10-16T15:18:15.000Z</time>
      </trkpt>
      <trkpt lat="48.2094" lon="-2.85606">
        <ele>106.40000152588</ele>
        <time>2020-10-16T15:18:16.000Z</time>
      </trkpt>
      <trkpt lat="48.2094" lon="-2.85606">
        <ele>106.40000152588</ele>
        <time>2020-10-16T15:18:17.000Z</time>
      </trkpt>
      <trkpt lat="48.20936" lon="-2.85603">
        <ele>106.59999847412</ele>
        <time>2020-10-16T15:18:18.000Z</time>
      </trkpt>
      <trkpt lat="48.20932" lon="-2.856">
        <ele>106.80000305176</ele>
        <time>2020-10-16T15:18:19.000Z</time>
      </trkpt>
      <trkpt lat="48.20929" lon="-2.85598">
        <ele>106.80000305176</ele>
        <time>2020-10-16T15:18:20.000Z</time>
      </trkpt>
      <trkpt lat="48.20925" lon="-2.85596">
        <ele>107.19999694824</ele>
        <time>2020-10-16T15:18:21.000Z</time>
      </trkpt>
      <trkpt lat="48.20922" lon="-2.85593">
        <ele>107.59999847412</ele>
        <time>2020-10-16T15:18:22.000Z</time>
      </trkpt>
      <trkpt lat="48.20919" lon="-2.85591">
        <ele>108</ele>
        <time>2020-10-16T15:18:23.000Z</time>
      </trkpt>
      <trkpt lat="48.20915" lon="-2.85589">
        <ele>108.19999694824</ele>
        <time>2020-10-16T15:18:24.000Z</time>
      </trkpt>
      <trkpt lat="48.20912" lon="-2.85586">
        <ele>108.59999847412</ele>
        <time>2020-10-16T15:18:25.000Z</time>
      </trkpt>
      <trkpt lat="48.20909" lon="-2.85584">
        <ele>109</ele>
        <time>2020-10-16T15:18:26.000Z</time>
      </trkpt>
      <trkpt lat="48.20906" lon="-2.85581">
        <ele>109.19999694824</ele>
        <time>2020-10-16T15:18:27.000Z</time>
      </trkpt>
      <trkpt lat="48.20903" lon="-2.85579">
        <ele>109.40000152588</ele>
        <time>2020-10-16T15:18:28.000Z</time>
      </trkpt>
      <trkpt lat="48.209" lon="-2.85577">
        <ele>109.80000305176</ele>
        <time>2020-10-16T15:18:29.000Z</time>
      </trkpt>
      <trkpt lat="48.20897" lon="-2.85575">
        <ele>110</ele>
        <time>2020-10-16T15:18:30.000Z</time>
      </trkpt>
      <trkpt lat="48.20894" lon="-2.85573">
        <ele>110.19999694824</ele>
        <time>2020-10-16T15:18:31.000Z</time>
      </trkpt>
      <trkpt lat="48.20891" lon="-2.85571">
        <ele>110.59999847412</ele>
        <time>2020-10-16T15:18:32.000Z</time>
      </trkpt>
      <trkpt lat="48.20889" lon="-2.85569">
        <ele>110.80000305176</ele>
        <time>2020-10-16T15:18:33.000Z</time>
      </trkpt>
      <trkpt lat="48.20886" lon="-2.85567">
        <ele>111</ele>
        <time>2020-10-16T15:18:34.000Z</time>
      </trkpt>
      <trkpt lat="48.20883" lon="-2.85564">
        <ele>111.40000152588</ele>
        <time>2020-10-16T15:18:35.000Z</time>
      </trkpt>
      <trkpt lat="48.20881" lon="-2.85562">
        <ele>111.59999847412</ele>
        <time>2020-10-16T15:18:36.000Z</time>
      </trkpt>
      <trkpt lat="48.20875" lon="-2.85558">
        <ele>112.19999694824</ele>
        <time>2020-10-16T15:18:37.000Z</time>
      </trkpt>
      <trkpt lat="48.20875" lon="-2.85558">
        <ele>112.19999694824</ele>
        <time>2020-10-16T15:18:38.000Z</time>
      </trkpt>
      <trkpt lat="48.20872" lon="-2.85555">
        <ele>112.40000152588</ele>
        <time>2020-10-16T15:18:39.000Z</time>
      </trkpt>
      <trkpt lat="48.20869" lon="-2.85553">
        <ele>112.59999847412</ele>
        <time>2020-10-16T15:18:40.000Z</time>
      </trkpt>
      <trkpt lat="48.20867" lon="-2.8555">
        <ele>113</ele>
        <time>2020-10-16T15:18:41.000Z</time>
      </trkpt>
      <trkpt lat="48.20865" lon="-2.85548">
        <ele>113.19999694824</ele>
        <time>2020-10-16T15:18:42.000Z</time>
      </trkpt>
      <trkpt lat="48.20862" lon="-2.85546">
        <ele>113.40000152588</ele>
        <time>2020-10-16T15:18:43.000Z</time>
      </trkpt>
      <trkpt lat="48.20857" lon="-2.85542">
        <ele>113.80000305176</ele>
        <time>2020-10-16T15:18:44.000Z</time>
      </trkpt>
      <trkpt lat="48.20857" lon="-2.85542">
        <ele>113.80000305176</ele>
        <time>2020-10-16T15:18:45.000Z</time>
      </trkpt>
      <trkpt lat="48.20855" lon="-2.8554">
        <ele>114.19999694824</ele>
        <time>2020-10-16T15:18:46.000Z</time>
      </trkpt>
      <trkpt lat="48.20852" lon="-2.85537">
        <ele>114.40000152588</ele>
        <time>2020-10-16T15:18:47.000Z</time>
      </trkpt>
      <trkpt lat="48.2085" lon="-2.85535">
        <ele>114.59999847412</ele>
        <time>2020-10-16T15:18:48.000Z</time>
      </trkpt>
      <trkpt lat="48.20847" lon="-2.85533">
        <ele>114.80000305176</ele>
        <time>2020-10-16T15:18:49.000Z</time>
      </trkpt>
      <trkpt lat="48.20845" lon="-2.85531">
        <ele>115</ele>
        <time>2020-10-16T15:18:50.000Z</time>
      </trkpt>
      <trkpt lat="48.20843" lon="-2.8553">
        <ele>115.40000152588</ele>
        <time>2020-10-16T15:18:51.000Z</time>
      </trkpt>
      <trkpt lat="48.2084" lon="-2.85528">
        <ele>115.80000305176</ele>
        <time>2020-10-16T15:18:52.000Z</time>
      </trkpt>
      <trkpt lat="48.20838" lon="-2.85526">
        <ele>116</ele>
        <time>2020-10-16T15:18:53.000Z</time>
      </trkpt>
      <trkpt lat="48.20835" lon="-2.85524">
        <ele>116.40000152588</ele>
        <time>2020-10-16T15:18:54.000Z</time>
      </trkpt>
      <trkpt lat="48.20833" lon="-2.85522">
        <ele>116.80000305176</ele>
        <time>2020-10-16T15:18:55.000Z</time>
      </trkpt>
      <trkpt lat="48.2083" lon="-2.8552">
        <ele>117.19999694824</ele>
        <time>2020-10-16T15:18:56.000Z</time>
      </trkpt>
      <trkpt lat="48.20827" lon="-2.85518">
        <ele>117.19999694824</ele>
        <time>2020-10-16T15:18:57.000Z</time>
      </trkpt>
      <trkpt lat="48.20825" lon="-2.85516">
        <ele>117.40000152588</ele>
        <time>2020-10-16T15:18:58.000Z</time>
      </trkpt>
      <trkpt lat="48.20822" lon="-2.85514">
        <ele>117.59999847412</ele>
        <time>2020-10-16T15:18:59.000Z</time>
      </trkpt>
      <trkpt lat="48.2082" lon="-2.85512">
        <ele>117.80000305176</ele>
        <time>2020-10-16T15:19:00.000Z</time>
      </trkpt>
      <trkpt lat="48.20817" lon="-2.8551">
        <ele>117.80000305176</ele>
        <time>2020-10-16T15:19:01.000Z</time>
      </trkpt>
      <trkpt lat="48.20815" lon="-2.85508">
        <ele>118</ele>
        <time>2020-10-16T15:19:02.000Z</time>
      </trkpt>
      <trkpt lat="48.20812" lon="-2.85505">
        <ele>118.19999694824</ele>
        <time>2020-10-16T15:19:03.000Z</time>
      </trkpt>
      <trkpt lat="48.20806" lon="-2.85501">
        <ele>118.80000305176</ele>
        <time>2020-10-16T15:19:04.000Z</time>
      </trkpt>
      <trkpt lat="48.20806" lon="-2.85501">
        <ele>118.80000305176</ele>
        <time>2020-10-16T15:19:05.000Z</time>
      </trkpt>
      <trkpt lat="48.20803" lon="-2.85499">
        <ele>119</ele>
        <time>2020-10-16T15:19:06.000Z</time>
      </trkpt>
      <trkpt lat="48.208" lon="-2.85497">
        <ele>119.19999694824</ele>
        <time>2020-10-16T15:19:07.000Z</time>
      </trkpt>
      <trkpt lat="48.20797" lon="-2.85494">
        <ele>119.59999847412</ele>
        <time>2020-10-16T15:19:08.000Z</time>
      </trkpt>
      <trkpt lat="48.20794" lon="-2.85491">
        <ele>120</ele>
        <time>2020-10-16T15:19:09.000Z</time>
      </trkpt>
      <trkpt lat="48.20791" lon="-2.85489">
        <ele>120.19999694824</ele>
        <time>2020-10-16T15:19:10.000Z</time>
      </trkpt>
      <trkpt lat="48.20788" lon="-2.85486">
        <ele>120.40000152588</ele>
        <time>2020-10-16T15:19:11.000Z</time>
      </trkpt>
      <trkpt lat="48.20785" lon="-2.85483">
        <ele>120.80000305176</ele>
        <time>2020-10-16T15:19:12.000Z</time>
      </trkpt>
      <trkpt lat="48.20782" lon="-2.85481">
        <ele>120.80000305176</ele>
        <time>2020-10-16T15:19:13.000Z</time>
      </trkpt>
      <trkpt lat="48.20779" lon="-2.85478">
        <ele>120.59999847412</ele>
        <time>2020-10-16T15:19:14.000Z</time>
      </trkpt>
      <trkpt lat="48.20776" lon="-2.85476">
        <ele>120.40000152588</ele>
        <time>2020-10-16T15:19:15.000Z</time>
      </trkpt>
      <trkpt lat="48.20773" lon="-2.85473">
        <ele>120.40000152588</ele>
        <time>2020-10-16T15:19:16.000Z</time>
      </trkpt>
      <trkpt lat="48.2077" lon="-2.85471">
        <ele>120.19999694824</ele>
        <time>2020-10-16T15:19:17.000Z</time>
      </trkpt>
      <trkpt lat="48.20767" lon="-2.85468">
        <ele>120.19999694824</ele>
        <time>2020-10-16T15:19:18.000Z</time>
      </trkpt>
      <trkpt lat="48.20764" lon="-2.85466">
        <ele>120</ele>
        <time>2020-10-16T15:19:19.000Z</time>
      </trkpt>
      <trkpt lat="48.2076" lon="-2.85464">
        <ele>120</ele>
        <time>2020-10-16T15:19:20.000Z</time>
      </trkpt>
      <trkpt lat="48.20757" lon="-2.85461">
        <ele>120</ele>
        <time>2020-10-16T15:19:21.000Z</time>
      </trkpt>
      <trkpt lat="48.20754" lon="-2.85459">
        <ele>119.80000305176</ele>
        <time>2020-10-16T15:19:22.000Z</time>
      </trkpt>
      <trkpt lat="48.20749" lon="-2.85454">
        <ele>119.80000305176</ele>
        <time>2020-10-16T15:19:23.000Z</time>
      </trkpt>
      <trkpt lat="48.20749" lon="-2.85454">
        <ele>119.80000305176</ele>
        <time>2020-10-16T15:19:24.000Z</time>
      </trkpt>
      <trkpt lat="48.20745" lon="-2.85453">
        <ele>119.80000305176</ele>
        <time>2020-10-16T15:19:25.000Z</time>
      </trkpt>
      <trkpt lat="48.20742" lon="-2.85451">
        <ele>119.80000305176</ele>
        <time>2020-10-16T15:19:26.000Z</time>
      </trkpt>
      <trkpt lat="48.20739" lon="-2.85448">
        <ele>119.59999847412</ele>
        <time>2020-10-16T15:19:27.000Z</time>
      </trkpt>
      <trkpt lat="48.20736" lon="-2.85446">
        <ele>119.59999847412</ele>
        <time>2020-10-16T15:19:28.000Z</time>
      </trkpt>
      <trkpt lat="48.20732" lon="-2.85444">
        <ele>119.40000152588</ele>
        <time>2020-10-16T15:19:29.000Z</time>
      </trkpt>
      <trkpt lat="48.20729" lon="-2.85442">
        <ele>119.19999694824</ele>
        <time>2020-10-16T15:19:30.000Z</time>
      </trkpt>
      <trkpt lat="48.20721" lon="-2.85439">
        <ele>118.80000305176</ele>
        <time>2020-10-16T15:19:31.000Z</time>
      </trkpt>
      <trkpt lat="48.20721" lon="-2.85439">
        <ele>118.80000305176</ele>
        <time>2020-10-16T15:19:32.000Z</time>
      </trkpt>
      <trkpt lat="48.20717" lon="-2.85438">
        <ele>118.59999847412</ele>
        <time>2020-10-16T15:19:33.000Z</time>
      </trkpt>
      <trkpt lat="48.20712" lon="-2.85437">
        <ele>118.59999847412</ele>
        <time>2020-10-16T15:19:34.000Z</time>
      </trkpt>
      <trkpt lat="48.20708" lon="-2.85435">
        <ele>118.40000152588</ele>
        <time>2020-10-16T15:19:35.000Z</time>
      </trkpt>
      <trkpt lat="48.20703" lon="-2.85434">
        <ele>118.19999694824</ele>
        <time>2020-10-16T15:19:36.000Z</time>
      </trkpt>
      <trkpt lat="48.20698" lon="-2.85433">
        <ele>118.19999694824</ele>
        <time>2020-10-16T15:19:37.000Z</time>
      </trkpt>
      <trkpt lat="48.20693" lon="-2.85433">
        <ele>118</ele>
        <time>2020-10-16T15:19:38.000Z</time>
      </trkpt>
      <trkpt lat="48.20688" lon="-2.85432">
        <ele>118</ele>
        <time>2020-10-16T15:19:39.000Z</time>
      </trkpt>
      <trkpt lat="48.20684" lon="-2.85431">
        <ele>117.80000305176</ele>
        <time>2020-10-16T15:19:40.000Z</time>
      </trkpt>
      <trkpt lat="48.20678" lon="-2.8543">
        <ele>117.80000305176</ele>
        <time>2020-10-16T15:19:41.000Z</time>
      </trkpt>
      <trkpt lat="48.20673" lon="-2.85429">
        <ele>117.40000152588</ele>
        <time>2020-10-16T15:19:42.000Z</time>
      </trkpt>
      <trkpt lat="48.20667" lon="-2.85428">
        <ele>117.19999694824</ele>
        <time>2020-10-16T15:19:43.000Z</time>
      </trkpt>
      <trkpt lat="48.20661" lon="-2.85427">
        <ele>117</ele>
        <time>2020-10-16T15:19:44.000Z</time>
      </trkpt>
      <trkpt lat="48.20655" lon="-2.85426">
        <ele>116.59999847412</ele>
        <time>2020-10-16T15:19:45.000Z</time>
      </trkpt>
      <trkpt lat="48.20648" lon="-2.85425">
        <ele>116.40000152588</ele>
        <time>2020-10-16T15:19:46.000Z</time>
      </trkpt>
      <trkpt lat="48.20642" lon="-2.85423">
        <ele>116.19999694824</ele>
        <time>2020-10-16T15:19:47.000Z</time>
      </trkpt>
      <trkpt lat="48.20635" lon="-2.85421">
        <ele>115.80000305176</ele>
        <time>2020-10-16T15:19:48.000Z</time>
      </trkpt>
      <trkpt lat="48.20628" lon="-2.85419">
        <ele>115.40000152588</ele>
        <time>2020-10-16T15:19:49.000Z</time>
      </trkpt>
      <trkpt lat="48.2062" lon="-2.85416">
        <ele>115</ele>
        <time>2020-10-16T15:19:50.000Z</time>
      </trkpt>
      <trkpt lat="48.20613" lon="-2.85413">
        <ele>114.59999847412</ele>
        <time>2020-10-16T15:19:51.000Z</time>
      </trkpt>
      <trkpt lat="48.20605" lon="-2.85409">
        <ele>114</ele>
        <time>2020-10-16T15:19:52.000Z</time>
      </trkpt>
      <trkpt lat="48.20597" lon="-2.85405">
        <ele>113.80000305176</ele>
        <time>2020-10-16T15:19:53.000Z</time>
      </trkpt>
      <trkpt lat="48.20589" lon="-2.85401">
        <ele>113</ele>
        <time>2020-10-16T15:19:54.000Z</time>
      </trkpt>
      <trkpt lat="48.20581" lon="-2.85397">
        <ele>112.19999694824</ele>
        <time>2020-10-16T15:19:55.000Z</time>
      </trkpt>
      <trkpt lat="48.20573" lon="-2.85394">
        <ele>111.40000152588</ele>
        <time>2020-10-16T15:19:56.000Z</time>
      </trkpt>
      <trkpt lat="48.20564" lon="-2.85391">
        <ele>110.40000152588</ele>
        <time>2020-10-16T15:19:57.000Z</time>
      </trkpt>
      <trkpt lat="48.20554" lon="-2.85388">
        <ele>109.59999847412</ele>
        <time>2020-10-16T15:19:58.000Z</time>
      </trkpt>
      <trkpt lat="48.20542" lon="-2.85386">
        <ele>108.59999847412</ele>
        <time>2020-10-16T15:19:59.000Z</time>
      </trkpt>
      <trkpt lat="48.20518" lon="-2.85386">
        <ele>107.19999694824</ele>
        <time>2020-10-16T15:20:00.000Z</time>
      </trkpt>
      <trkpt lat="48.20518" lon="-2.85386">
        <ele>107.19999694824</ele>
        <time>2020-10-16T15:20:01.000Z</time>
      </trkpt>
      <trkpt lat="48.20494" lon="-2.85386">
        <ele>107</ele>
        <time>2020-10-16T15:20:02.000Z</time>
      </trkpt>
      <trkpt lat="48.20494" lon="-2.85386">
        <ele>107</ele>
        <time>2020-10-16T15:20:03.000Z</time>
      </trkpt>
      <trkpt lat="48.20483" lon="-2.85385">
        <ele>107</ele>
        <time>2020-10-16T15:20:04.000Z</time>
      </trkpt>
      <trkpt lat="48.20472" lon="-2.85384">
        <ele>107.19999694824</ele>
        <time>2020-10-16T15:20:05.000Z</time>
      </trkpt>
      <trkpt lat="48.20462" lon="-2.85382">
        <ele>107</ele>
        <time>2020-10-16T15:20:06.000Z</time>
      </trkpt>
      <trkpt lat="48.20452" lon="-2.85379">
        <ele>106.80000305176</ele>
        <time>2020-10-16T15:20:07.000Z</time>
      </trkpt>
      <trkpt lat="48.20442" lon="-2.85376">
        <ele>106.59999847412</ele>
        <time>2020-10-16T15:20:08.000Z</time>
      </trkpt>
      <trkpt lat="48.20434" lon="-2.85373">
        <ele>106.40000152588</ele>
        <time>2020-10-16T15:20:09.000Z</time>
      </trkpt>
      <trkpt lat="48.20425" lon="-2.85371">
        <ele>106.40000152588</ele>
        <time>2020-10-16T15:20:10.000Z</time>
      </trkpt>
      <trkpt lat="48.20418" lon="-2.85368">
        <ele>106.40000152588</ele>
        <time>2020-10-16T15:20:11.000Z</time>
      </trkpt>
      <trkpt lat="48.20411" lon="-2.85366">
        <ele>106.59999847412</ele>
        <time>2020-10-16T15:20:12.000Z</time>
      </trkpt>
      <trkpt lat="48.20405" lon="-2.85365">
        <ele>106.59999847412</ele>
        <time>2020-10-16T15:20:13.000Z</time>
      </trkpt>
      <trkpt lat="48.20399" lon="-2.85363">
        <ele>106.80000305176</ele>
        <time>2020-10-16T15:20:14.000Z</time>
      </trkpt>
      <trkpt lat="48.20393" lon="-2.8536">
        <ele>106.80000305176</ele>
        <time>2020-10-16T15:20:15.000Z</time>
      </trkpt>
      <trkpt lat="48.20387" lon="-2.85358">
        <ele>106.80000305176</ele>
        <time>2020-10-16T15:20:16.000Z</time>
      </trkpt>
      <trkpt lat="48.20381" lon="-2.85355">
        <ele>106.80000305176</ele>
        <time>2020-10-16T15:20:17.000Z</time>
      </trkpt>
      <trkpt lat="48.20375" lon="-2.85353">
        <ele>106.80000305176</ele>
        <time>2020-10-16T15:20:18.000Z</time>
      </trkpt>
      <trkpt lat="48.20369" lon="-2.8535">
        <ele>107</ele>
        <time>2020-10-16T15:20:19.000Z</time>
      </trkpt>
      <trkpt lat="48.20364" lon="-2.85348">
        <ele>107</ele>
        <time>2020-10-16T15:20:20.000Z</time>
      </trkpt>
      <trkpt lat="48.20358" lon="-2.85345">
        <ele>107</ele>
        <time>2020-10-16T15:20:21.000Z</time>
      </trkpt>
      <trkpt lat="48.20348" lon="-2.8534">
        <ele>107</ele>
        <time>2020-10-16T15:20:22.000Z</time>
      </trkpt>
      <trkpt lat="48.20348" lon="-2.8534">
        <ele>107</ele>
        <time>2020-10-16T15:20:23.000Z</time>
      </trkpt>
      <trkpt lat="48.20342" lon="-2.85337">
        <ele>106.80000305176</ele>
        <time>2020-10-16T15:20:24.000Z</time>
      </trkpt>
      <trkpt lat="48.20337" lon="-2.85334">
        <ele>106.80000305176</ele>
        <time>2020-10-16T15:20:25.000Z</time>
      </trkpt>
      <trkpt lat="48.20331" lon="-2.8533">
        <ele>106.80000305176</ele>
        <time>2020-10-16T15:20:26.000Z</time>
      </trkpt>
      <trkpt lat="48.20326" lon="-2.85327">
        <ele>106.80000305176</ele>
        <time>2020-10-16T15:20:27.000Z</time>
      </trkpt>
      <trkpt lat="48.20321" lon="-2.85324">
        <ele>106.59999847412</ele>
        <time>2020-10-16T15:20:28.000Z</time>
      </trkpt>
      <trkpt lat="48.20316" lon="-2.8532">
        <ele>106.40000152588</ele>
        <time>2020-10-16T15:20:29.000Z</time>
      </trkpt>
      <trkpt lat="48.20312" lon="-2.85316">
        <ele>106.19999694824</ele>
        <time>2020-10-16T15:20:30.000Z</time>
      </trkpt>
      <trkpt lat="48.20307" lon="-2.85312">
        <ele>106</ele>
        <time>2020-10-16T15:20:31.000Z</time>
      </trkpt>
      <trkpt lat="48.20303" lon="-2.85307">
        <ele>105.80000305176</ele>
        <time>2020-10-16T15:20:32.000Z</time>
      </trkpt>
      <trkpt lat="48.20298" lon="-2.85301">
        <ele>105.59999847412</ele>
        <time>2020-10-16T15:20:33.000Z</time>
      </trkpt>
      <trkpt lat="48.20293" lon="-2.85296">
        <ele>105.19999694824</ele>
        <time>2020-10-16T15:20:34.000Z</time>
      </trkpt>
      <trkpt lat="48.20288" lon="-2.85291">
        <ele>104.80000305176</ele>
        <time>2020-10-16T15:20:35.000Z</time>
      </trkpt>
      <trkpt lat="48.20283" lon="-2.85287">
        <ele>104.40000152588</ele>
        <time>2020-10-16T15:20:36.000Z</time>
      </trkpt>
      <trkpt lat="48.20277" lon="-2.85282">
        <ele>104.19999694824</ele>
        <time>2020-10-16T15:20:37.000Z</time>
      </trkpt>
      <trkpt lat="48.20271" lon="-2.85277">
        <ele>103.80000305176</ele>
        <time>2020-10-16T15:20:38.000Z</time>
      </trkpt>
      <trkpt lat="48.20265" lon="-2.85273">
        <ele>103.59999847412</ele>
        <time>2020-10-16T15:20:39.000Z</time>
      </trkpt>
      <trkpt lat="48.20259" lon="-2.85269">
        <ele>103.19999694824</ele>
        <time>2020-10-16T15:20:40.000Z</time>
      </trkpt>
      <trkpt lat="48.20254" lon="-2.85265">
        <ele>102.80000305176</ele>
        <time>2020-10-16T15:20:41.000Z</time>
      </trkpt>
      <trkpt lat="48.20239" lon="-2.85255">
        <ele>102.59999847412</ele>
        <time>2020-10-16T15:20:42.000Z</time>
      </trkpt>
      <trkpt lat="48.20239" lon="-2.85255">
        <ele>102.59999847412</ele>
        <time>2020-10-16T15:20:43.000Z</time>
      </trkpt>
      <trkpt lat="48.20233" lon="-2.85251">
        <ele>102.40000152588</ele>
        <time>2020-10-16T15:20:44.000Z</time>
      </trkpt>
      <trkpt lat="48.20226" lon="-2.85247">
        <ele>102.19999694824</ele>
        <time>2020-10-16T15:20:45.000Z</time>
      </trkpt>
      <trkpt lat="48.2022" lon="-2.85243">
        <ele>102.19999694824</ele>
        <time>2020-10-16T15:20:46.000Z</time>
      </trkpt>
      <trkpt lat="48.20214" lon="-2.85239">
        <ele>102.19999694824</ele>
        <time>2020-10-16T15:20:47.000Z</time>
      </trkpt>
      <trkpt lat="48.20208" lon="-2.85235">
        <ele>102</ele>
        <time>2020-10-16T15:20:48.000Z</time>
      </trkpt>
      <trkpt lat="48.20202" lon="-2.85231">
        <ele>102</ele>
        <time>2020-10-16T15:20:49.000Z</time>
      </trkpt>
      <trkpt lat="48.20197" lon="-2.85228">
        <ele>101.80000305176</ele>
        <time>2020-10-16T15:20:50.000Z</time>
      </trkpt>
      <trkpt lat="48.20192" lon="-2.85225">
        <ele>101.80000305176</ele>
        <time>2020-10-16T15:20:51.000Z</time>
      </trkpt>
      <trkpt lat="48.20187" lon="-2.85221">
        <ele>101.59999847412</ele>
        <time>2020-10-16T15:20:52.000Z</time>
      </trkpt>
      <trkpt lat="48.20182" lon="-2.85217">
        <ele>101.59999847412</ele>
        <time>2020-10-16T15:20:53.000Z</time>
      </trkpt>
      <trkpt lat="48.20177" lon="-2.85214">
        <ele>101.40000152588</ele>
        <time>2020-10-16T15:20:54.000Z</time>
      </trkpt>
      <trkpt lat="48.20172" lon="-2.85211">
        <ele>101</ele>
        <time>2020-10-16T15:20:55.000Z</time>
      </trkpt>
      <trkpt lat="48.20166" lon="-2.85208">
        <ele>100.59999847412</ele>
        <time>2020-10-16T15:20:56.000Z</time>
      </trkpt>
      <trkpt lat="48.20161" lon="-2.85205">
        <ele>100.19999694824</ele>
        <time>2020-10-16T15:20:57.000Z</time>
      </trkpt>
      <trkpt lat="48.20154" lon="-2.85201">
        <ele>99.800003051758</ele>
        <time>2020-10-16T15:20:58.000Z</time>
      </trkpt>
      <trkpt lat="48.20148" lon="-2.85197">
        <ele>99.599998474121</ele>
        <time>2020-10-16T15:20:59.000Z</time>
      </trkpt>
      <trkpt lat="48.20141" lon="-2.85194">
        <ele>99.800003051758</ele>
        <time>2020-10-16T15:21:00.000Z</time>
      </trkpt>
      <trkpt lat="48.20135" lon="-2.85191">
        <ele>99.800003051758</ele>
        <time>2020-10-16T15:21:01.000Z</time>
      </trkpt>
      <trkpt lat="48.20122" lon="-2.85185">
        <ele>99.800003051758</ele>
        <time>2020-10-16T15:21:02.000Z</time>
      </trkpt>
      <trkpt lat="48.20122" lon="-2.85185">
        <ele>99.800003051758</ele>
        <time>2020-10-16T15:21:03.000Z</time>
      </trkpt>
      <trkpt lat="48.20116" lon="-2.85182">
        <ele>99.800003051758</ele>
        <time>2020-10-16T15:21:04.000Z</time>
      </trkpt>
      <trkpt lat="48.2011" lon="-2.85179">
        <ele>99.800003051758</ele>
        <time>2020-10-16T15:21:05.000Z</time>
      </trkpt>
      <trkpt lat="48.20104" lon="-2.85176">
        <ele>100</ele>
        <time>2020-10-16T15:21:06.000Z</time>
      </trkpt>
      <trkpt lat="48.20099" lon="-2.85173">
        <ele>100</ele>
        <time>2020-10-16T15:21:07.000Z</time>
      </trkpt>
      <trkpt lat="48.20093" lon="-2.8517">
        <ele>100.19999694824</ele>
        <time>2020-10-16T15:21:08.000Z</time>
      </trkpt>
      <trkpt lat="48.20083" lon="-2.85163">
        <ele>101</ele>
        <time>2020-10-16T15:21:09.000Z</time>
      </trkpt>
      <trkpt lat="48.20083" lon="-2.85163">
        <ele>101</ele>
        <time>2020-10-16T15:21:10.000Z</time>
      </trkpt>
      <trkpt lat="48.20078" lon="-2.85161">
        <ele>101.40000152588</ele>
        <time>2020-10-16T15:21:11.000Z</time>
      </trkpt>
      <trkpt lat="48.20074" lon="-2.85158">
        <ele>101.80000305176</ele>
        <time>2020-10-16T15:21:12.000Z</time>
      </trkpt>
      <trkpt lat="48.20069" lon="-2.85155">
        <ele>102.19999694824</ele>
        <time>2020-10-16T15:21:13.000Z</time>
      </trkpt>
      <trkpt lat="48.20065" lon="-2.85153">
        <ele>102.59999847412</ele>
        <time>2020-10-16T15:21:14.000Z</time>
      </trkpt>
      <trkpt lat="48.20061" lon="-2.8515">
        <ele>103</ele>
        <time>2020-10-16T15:21:15.000Z</time>
      </trkpt>
      <trkpt lat="48.20057" lon="-2.85148">
        <ele>103.40000152588</ele>
        <time>2020-10-16T15:21:16.000Z</time>
      </trkpt>
      <trkpt lat="48.20053" lon="-2.85145">
        <ele>103.59999847412</ele>
        <time>2020-10-16T15:21:17.000Z</time>
      </trkpt>
      <trkpt lat="48.2005" lon="-2.85143">
        <ele>104</ele>
        <time>2020-10-16T15:21:18.000Z</time>
      </trkpt>
      <trkpt lat="48.20047" lon="-2.85143">
        <ele>104.19999694824</ele>
        <time>2020-10-16T15:21:19.000Z</time>
      </trkpt>
      <trkpt lat="48.20044" lon="-2.85144">
        <ele>104.59999847412</ele>
        <time>2020-10-16T15:21:20.000Z</time>
      </trkpt>
      <trkpt lat="48.2004" lon="-2.85145">
        <ele>105</ele>
        <time>2020-10-16T15:21:21.000Z</time>
      </trkpt>
      <trkpt lat="48.20037" lon="-2.85148">
        <ele>105.19999694824</ele>
        <time>2020-10-16T15:21:22.000Z</time>
      </trkpt>
      <trkpt lat="48.20034" lon="-2.85151">
        <ele>105.59999847412</ele>
        <time>2020-10-16T15:21:23.000Z</time>
      </trkpt>
      <trkpt lat="48.20031" lon="-2.85154">
        <ele>106</ele>
        <time>2020-10-16T15:21:24.000Z</time>
      </trkpt>
      <trkpt lat="48.20028" lon="-2.85158">
        <ele>106.19999694824</ele>
        <time>2020-10-16T15:21:25.000Z</time>
      </trkpt>
      <trkpt lat="48.20026" lon="-2.85161">
        <ele>106.59999847412</ele>
        <time>2020-10-16T15:21:26.000Z</time>
      </trkpt>
      <trkpt lat="48.20024" lon="-2.85164">
        <ele>106.80000305176</ele>
        <time>2020-10-16T15:21:27.000Z</time>
      </trkpt>
      <trkpt lat="48.20022" lon="-2.85168">
        <ele>107</ele>
        <time>2020-10-16T15:21:28.000Z</time>
      </trkpt>
      <trkpt lat="48.2002" lon="-2.85171">
        <ele>107.19999694824</ele>
        <time>2020-10-16T15:21:29.000Z</time>
      </trkpt>
      <trkpt lat="48.20018" lon="-2.85174">
        <ele>107.40000152588</ele>
        <time>2020-10-16T15:21:30.000Z</time>
      </trkpt>
      <trkpt lat="48.20016" lon="-2.85178">
        <ele>107.59999847412</ele>
        <time>2020-10-16T15:21:31.000Z</time>
      </trkpt>
      <trkpt lat="48.20014" lon="-2.85181">
        <ele>107.80000305176</ele>
        <time>2020-10-16T15:21:32.000Z</time>
      </trkpt>
      <trkpt lat="48.20012" lon="-2.85185">
        <ele>108.19999694824</ele>
        <time>2020-10-16T15:21:33.000Z</time>
      </trkpt>
      <trkpt lat="48.2001" lon="-2.85188">
        <ele>108.40000152588</ele>
        <time>2020-10-16T15:21:34.000Z</time>
      </trkpt>
      <trkpt lat="48.20008" lon="-2.85191">
        <ele>108.40000152588</ele>
        <time>2020-10-16T15:21:35.000Z</time>
      </trkpt>
      <trkpt lat="48.20005" lon="-2.85194">
        <ele>108.59999847412</ele>
        <time>2020-10-16T15:21:36.000Z</time>
      </trkpt>
      <trkpt lat="48.20003" lon="-2.85197">
        <ele>108.80000305176</ele>
        <time>2020-10-16T15:21:37.000Z</time>
      </trkpt>
      <trkpt lat="48.2" lon="-2.85199">
        <ele>109</ele>
        <time>2020-10-16T15:21:38.000Z</time>
      </trkpt>
      <trkpt lat="48.19998" lon="-2.85201">
        <ele>109.19999694824</ele>
        <time>2020-10-16T15:21:39.000Z</time>
      </trkpt>
      <trkpt lat="48.19995" lon="-2.85204">
        <ele>109.40000152588</ele>
        <time>2020-10-16T15:21:40.000Z</time>
      </trkpt>
      <trkpt lat="48.1999" lon="-2.85208">
        <ele>109.80000305176</ele>
        <time>2020-10-16T15:21:41.000Z</time>
      </trkpt>
      <trkpt lat="48.1999" lon="-2.85208">
        <ele>109.80000305176</ele>
        <time>2020-10-16T15:21:42.000Z</time>
      </trkpt>
      <trkpt lat="48.19988" lon="-2.8521">
        <ele>109.80000305176</ele>
        <time>2020-10-16T15:21:43.000Z</time>
      </trkpt>
      <trkpt lat="48.19986" lon="-2.85212">
        <ele>110</ele>
        <time>2020-10-16T15:21:44.000Z</time>
      </trkpt>
      <trkpt lat="48.19984" lon="-2.85215">
        <ele>110.19999694824</ele>
        <time>2020-10-16T15:21:45.000Z</time>
      </trkpt>
      <trkpt lat="48.19981" lon="-2.85217">
        <ele>110.40000152588</ele>
        <time>2020-10-16T15:21:46.000Z</time>
      </trkpt>
      <trkpt lat="48.19978" lon="-2.85219">
        <ele>110.59999847412</ele>
        <time>2020-10-16T15:21:47.000Z</time>
      </trkpt>
      <trkpt lat="48.19976" lon="-2.85221">
        <ele>110.80000305176</ele>
        <time>2020-10-16T15:21:48.000Z</time>
      </trkpt>
      <trkpt lat="48.19974" lon="-2.85223">
        <ele>110.80000305176</ele>
        <time>2020-10-16T15:21:49.000Z</time>
      </trkpt>
      <trkpt lat="48.19972" lon="-2.85225">
        <ele>111</ele>
        <time>2020-10-16T15:21:50.000Z</time>
      </trkpt>
      <trkpt lat="48.1997" lon="-2.85227">
        <ele>111.19999694824</ele>
        <time>2020-10-16T15:21:51.000Z</time>
      </trkpt>
      <trkpt lat="48.19968" lon="-2.8523">
        <ele>111.40000152588</ele>
        <time>2020-10-16T15:21:52.000Z</time>
      </trkpt>
      <trkpt lat="48.19966" lon="-2.85234">
        <ele>111.40000152588</ele>
        <time>2020-10-16T15:21:53.000Z</time>
      </trkpt>
      <trkpt lat="48.19964" lon="-2.85237">
        <ele>111.59999847412</ele>
        <time>2020-10-16T15:21:54.000Z</time>
      </trkpt>
      <trkpt lat="48.19963" lon="-2.8524">
        <ele>111.80000305176</ele>
        <time>2020-10-16T15:21:55.000Z</time>
      </trkpt>
      <trkpt lat="48.19961" lon="-2.85244">
        <ele>111.80000305176</ele>
        <time>2020-10-16T15:21:56.000Z</time>
      </trkpt>
      <trkpt lat="48.1996" lon="-2.85248">
        <ele>112</ele>
        <time>2020-10-16T15:21:57.000Z</time>
      </trkpt>
      <trkpt lat="48.19958" lon="-2.85251">
        <ele>112.19999694824</ele>
        <time>2020-10-16T15:21:58.000Z</time>
      </trkpt>
      <trkpt lat="48.19957" lon="-2.85256">
        <ele>112.19999694824</ele>
        <time>2020-10-16T15:21:59.000Z</time>
      </trkpt>
      <trkpt lat="48.19955" lon="-2.85259">
        <ele>112.40000152588</ele>
        <time>2020-10-16T15:22:00.000Z</time>
      </trkpt>
      <trkpt lat="48.19954" lon="-2.85264">
        <ele>112.40000152588</ele>
        <time>2020-10-16T15:22:01.000Z</time>
      </trkpt>
      <trkpt lat="48.19952" lon="-2.85268">
        <ele>112.59999847412</ele>
        <time>2020-10-16T15:22:02.000Z</time>
      </trkpt>
      <trkpt lat="48.19951" lon="-2.85272">
        <ele>112.59999847412</ele>
        <time>2020-10-16T15:22:03.000Z</time>
      </trkpt>
      <trkpt lat="48.1995" lon="-2.85276">
        <ele>112.80000305176</ele>
        <time>2020-10-16T15:22:04.000Z</time>
      </trkpt>
      <trkpt lat="48.19948" lon="-2.8528">
        <ele>112.80000305176</ele>
        <time>2020-10-16T15:22:05.000Z</time>
      </trkpt>
      <trkpt lat="48.19947" lon="-2.85284">
        <ele>112.80000305176</ele>
        <time>2020-10-16T15:22:06.000Z</time>
      </trkpt>
      <trkpt lat="48.19946" lon="-2.85288">
        <ele>113</ele>
        <time>2020-10-16T15:22:07.000Z</time>
      </trkpt>
      <trkpt lat="48.19945" lon="-2.85292">
        <ele>113</ele>
        <time>2020-10-16T15:22:08.000Z</time>
      </trkpt>
      <trkpt lat="48.19943" lon="-2.85301">
        <ele>113.19999694824</ele>
        <time>2020-10-16T15:22:09.000Z</time>
      </trkpt>
      <trkpt lat="48.19943" lon="-2.85301">
        <ele>113.19999694824</ele>
        <time>2020-10-16T15:22:10.000Z</time>
      </trkpt>
      <trkpt lat="48.19942" lon="-2.85305">
        <ele>113.19999694824</ele>
        <time>2020-10-16T15:22:11.000Z</time>
      </trkpt>
      <trkpt lat="48.19941" lon="-2.8531">
        <ele>113.19999694824</ele>
        <time>2020-10-16T15:22:12.000Z</time>
      </trkpt>
      <trkpt lat="48.1994" lon="-2.85314">
        <ele>113.40000152588</ele>
        <time>2020-10-16T15:22:13.000Z</time>
      </trkpt>
      <trkpt lat="48.19938" lon="-2.85319">
        <ele>113.40000152588</ele>
        <time>2020-10-16T15:22:14.000Z</time>
      </trkpt>
      <trkpt lat="48.19936" lon="-2.85324">
        <ele>113.59999847412</ele>
        <time>2020-10-16T15:22:15.000Z</time>
      </trkpt>
      <trkpt lat="48.19935" lon="-2.85329">
        <ele>113.59999847412</ele>
        <time>2020-10-16T15:22:16.000Z</time>
      </trkpt>
      <trkpt lat="48.19934" lon="-2.85334">
        <ele>113.59999847412</ele>
        <time>2020-10-16T15:22:17.000Z</time>
      </trkpt>
      <trkpt lat="48.19932" lon="-2.85338">
        <ele>113.80000305176</ele>
        <time>2020-10-16T15:22:18.000Z</time>
      </trkpt>
      <trkpt lat="48.1993" lon="-2.85343">
        <ele>114</ele>
        <time>2020-10-16T15:22:19.000Z</time>
      </trkpt>
      <trkpt lat="48.19929" lon="-2.85348">
        <ele>114</ele>
        <time>2020-10-16T15:22:20.000Z</time>
      </trkpt>
      <trkpt lat="48.19927" lon="-2.85353">
        <ele>114.19999694824</ele>
        <time>2020-10-16T15:22:21.000Z</time>
      </trkpt>
      <trkpt lat="48.19925" lon="-2.85358">
        <ele>114.40000152588</ele>
        <time>2020-10-16T15:22:22.000Z</time>
      </trkpt>
      <trkpt lat="48.19923" lon="-2.85362">
        <ele>114.59999847412</ele>
        <time>2020-10-16T15:22:23.000Z</time>
      </trkpt>
      <trkpt lat="48.19921" lon="-2.85367">
        <ele>114.80000305176</ele>
        <time>2020-10-16T15:22:24.000Z</time>
      </trkpt>
      <trkpt lat="48.19919" lon="-2.85371">
        <ele>115</ele>
        <time>2020-10-16T15:22:25.000Z</time>
      </trkpt>
      <trkpt lat="48.19917" lon="-2.85376">
        <ele>115.19999694824</ele>
        <time>2020-10-16T15:22:26.000Z</time>
      </trkpt>
      <trkpt lat="48.19915" lon="-2.8538">
        <ele>115.19999694824</ele>
        <time>2020-10-16T15:22:27.000Z</time>
      </trkpt>
      <trkpt lat="48.19913" lon="-2.85384">
        <ele>115.40000152588</ele>
        <time>2020-10-16T15:22:28.000Z</time>
      </trkpt>
      <trkpt lat="48.1991" lon="-2.85387">
        <ele>115.59999847412</ele>
        <time>2020-10-16T15:22:29.000Z</time>
      </trkpt>
      <trkpt lat="48.19908" lon="-2.85391">
        <ele>115.80000305176</ele>
        <time>2020-10-16T15:22:30.000Z</time>
      </trkpt>
      <trkpt lat="48.19905" lon="-2.85395">
        <ele>116</ele>
        <time>2020-10-16T15:22:31.000Z</time>
      </trkpt>
      <trkpt lat="48.19903" lon="-2.85399">
        <ele>116.19999694824</ele>
        <time>2020-10-16T15:22:32.000Z</time>
      </trkpt>
      <trkpt lat="48.19901" lon="-2.85402">
        <ele>116.40000152588</ele>
        <time>2020-10-16T15:22:33.000Z</time>
      </trkpt>
      <trkpt lat="48.19899" lon="-2.85406">
        <ele>116.59999847412</ele>
        <time>2020-10-16T15:22:34.000Z</time>
      </trkpt>
      <trkpt lat="48.19897" lon="-2.8541">
        <ele>116.80000305176</ele>
        <time>2020-10-16T15:22:35.000Z</time>
      </trkpt>
      <trkpt lat="48.19895" lon="-2.85414">
        <ele>116.80000305176</ele>
        <time>2020-10-16T15:22:36.000Z</time>
      </trkpt>
      <trkpt lat="48.19893" lon="-2.85416">
        <ele>117</ele>
        <time>2020-10-16T15:22:37.000Z</time>
      </trkpt>
      <trkpt lat="48.1989" lon="-2.85419">
        <ele>117.19999694824</ele>
        <time>2020-10-16T15:22:38.000Z</time>
      </trkpt>
      <trkpt lat="48.19888" lon="-2.85421">
        <ele>117.40000152588</ele>
        <time>2020-10-16T15:22:39.000Z</time>
      </trkpt>
      <trkpt lat="48.19885" lon="-2.85422">
        <ele>117.59999847412</ele>
        <time>2020-10-16T15:22:40.000Z</time>
      </trkpt>
      <trkpt lat="48.19881" lon="-2.85423">
        <ele>117.80000305176</ele>
        <time>2020-10-16T15:22:41.000Z</time>
      </trkpt>
      <trkpt lat="48.19877" lon="-2.85423">
        <ele>118</ele>
        <time>2020-10-16T15:22:42.000Z</time>
      </trkpt>
      <trkpt lat="48.19874" lon="-2.85424">
        <ele>118.19999694824</ele>
        <time>2020-10-16T15:22:43.000Z</time>
      </trkpt>
      <trkpt lat="48.19871" lon="-2.85423">
        <ele>118.40000152588</ele>
        <time>2020-10-16T15:22:44.000Z</time>
      </trkpt>
      <trkpt lat="48.19867" lon="-2.85422">
        <ele>118.59999847412</ele>
        <time>2020-10-16T15:22:45.000Z</time>
      </trkpt>
      <trkpt lat="48.19864" lon="-2.85422">
        <ele>118.80000305176</ele>
        <time>2020-10-16T15:22:46.000Z</time>
      </trkpt>
      <trkpt lat="48.19861" lon="-2.85421">
        <ele>119</ele>
        <time>2020-10-16T15:22:47.000Z</time>
      </trkpt>
      <trkpt lat="48.19858" lon="-2.8542">
        <ele>119.19999694824</ele>
        <time>2020-10-16T15:22:48.000Z</time>
      </trkpt>
      <trkpt lat="48.19854" lon="-2.85419">
        <ele>119.40000152588</ele>
        <time>2020-10-16T15:22:49.000Z</time>
      </trkpt>
      <trkpt lat="48.19851" lon="-2.85419">
        <ele>119.59999847412</ele>
        <time>2020-10-16T15:22:50.000Z</time>
      </trkpt>
      <trkpt lat="48.19847" lon="-2.85418">
        <ele>119.80000305176</ele>
        <time>2020-10-16T15:22:51.000Z</time>
      </trkpt>
      <trkpt lat="48.19844" lon="-2.85418">
        <ele>120</ele>
        <time>2020-10-16T15:22:52.000Z</time>
      </trkpt>
      <trkpt lat="48.1984" lon="-2.85417">
        <ele>120.40000152588</ele>
        <time>2020-10-16T15:22:53.000Z</time>
      </trkpt>
      <trkpt lat="48.19837" lon="-2.85417">
        <ele>120.59999847412</ele>
        <time>2020-10-16T15:22:54.000Z</time>
      </trkpt>
      <trkpt lat="48.19834" lon="-2.85417">
        <ele>120.80000305176</ele>
        <time>2020-10-16T15:22:55.000Z</time>
      </trkpt>
      <trkpt lat="48.19831" lon="-2.85416">
        <ele>121</ele>
        <time>2020-10-16T15:22:56.000Z</time>
      </trkpt>
      <trkpt lat="48.19828" lon="-2.85416">
        <ele>121.40000152588</ele>
        <time>2020-10-16T15:22:57.000Z</time>
      </trkpt>
      <trkpt lat="48.19825" lon="-2.85415">
        <ele>121.59999847412</ele>
        <time>2020-10-16T15:22:58.000Z</time>
      </trkpt>
      <trkpt lat="48.19821" lon="-2.85415">
        <ele>121.80000305176</ele>
        <time>2020-10-16T15:22:59.000Z</time>
      </trkpt>
      <trkpt lat="48.19818" lon="-2.85415">
        <ele>122.19999694824</ele>
        <time>2020-10-16T15:23:00.000Z</time>
      </trkpt>
      <trkpt lat="48.19815" lon="-2.85415">
        <ele>122.40000152588</ele>
        <time>2020-10-16T15:23:01.000Z</time>
      </trkpt>
      <trkpt lat="48.19808" lon="-2.85416">
        <ele>123</ele>
        <time>2020-10-16T15:23:02.000Z</time>
      </trkpt>
      <trkpt lat="48.19808" lon="-2.85416">
        <ele>123</ele>
        <time>2020-10-16T15:23:03.000Z</time>
      </trkpt>
      <trkpt lat="48.19805" lon="-2.85417">
        <ele>123.40000152588</ele>
        <time>2020-10-16T15:23:04.000Z</time>
      </trkpt>
      <trkpt lat="48.19801" lon="-2.85418">
        <ele>123.59999847412</ele>
        <time>2020-10-16T15:23:05.000Z</time>
      </trkpt>
      <trkpt lat="48.19798" lon="-2.8542">
        <ele>124</ele>
        <time>2020-10-16T15:23:06.000Z</time>
      </trkpt>
      <trkpt lat="48.19795" lon="-2.85422">
        <ele>124.19999694824</ele>
        <time>2020-10-16T15:23:07.000Z</time>
      </trkpt>
      <trkpt lat="48.19792" lon="-2.85424">
        <ele>124.40000152588</ele>
        <time>2020-10-16T15:23:08.000Z</time>
      </trkpt>
      <trkpt lat="48.1979" lon="-2.85427">
        <ele>124.59999847412</ele>
        <time>2020-10-16T15:23:09.000Z</time>
      </trkpt>
      <trkpt lat="48.19786" lon="-2.85434">
        <ele>125.19999694824</ele>
        <time>2020-10-16T15:23:10.000Z</time>
      </trkpt>
      <trkpt lat="48.19786" lon="-2.85434">
        <ele>125.19999694824</ele>
        <time>2020-10-16T15:23:11.000Z</time>
      </trkpt>
      <trkpt lat="48.19784" lon="-2.85437">
        <ele>125.40000152588</ele>
        <time>2020-10-16T15:23:12.000Z</time>
      </trkpt>
      <trkpt lat="48.19783" lon="-2.85441">
        <ele>125.40000152588</ele>
        <time>2020-10-16T15:23:13.000Z</time>
      </trkpt>
      <trkpt lat="48.19781" lon="-2.85445">
        <ele>125.59999847412</ele>
        <time>2020-10-16T15:23:14.000Z</time>
      </trkpt>
      <trkpt lat="48.19779" lon="-2.85449">
        <ele>125.80000305176</ele>
        <time>2020-10-16T15:23:15.000Z</time>
      </trkpt>
      <trkpt lat="48.19777" lon="-2.85454">
        <ele>126</ele>
        <time>2020-10-16T15:23:16.000Z</time>
      </trkpt>
      <trkpt lat="48.19775" lon="-2.85458">
        <ele>126.19999694824</ele>
        <time>2020-10-16T15:23:17.000Z</time>
      </trkpt>
      <trkpt lat="48.19773" lon="-2.85462">
        <ele>126.59999847412</ele>
        <time>2020-10-16T15:23:18.000Z</time>
      </trkpt>
      <trkpt lat="48.19769" lon="-2.85471">
        <ele>127</ele>
        <time>2020-10-16T15:23:19.000Z</time>
      </trkpt>
      <trkpt lat="48.19769" lon="-2.85471">
        <ele>127</ele>
        <time>2020-10-16T15:23:20.000Z</time>
      </trkpt>
      <trkpt lat="48.19766" lon="-2.85475">
        <ele>127.19999694824</ele>
        <time>2020-10-16T15:23:21.000Z</time>
      </trkpt>
      <trkpt lat="48.19764" lon="-2.85478">
        <ele>127.40000152588</ele>
        <time>2020-10-16T15:23:22.000Z</time>
      </trkpt>
      <trkpt lat="48.19762" lon="-2.85482">
        <ele>127.59999847412</ele>
        <time>2020-10-16T15:23:23.000Z</time>
      </trkpt>
      <trkpt lat="48.1976" lon="-2.85486">
        <ele>127.80000305176</ele>
        <time>2020-10-16T15:23:24.000Z</time>
      </trkpt>
      <trkpt lat="48.19757" lon="-2.8549">
        <ele>128</ele>
        <time>2020-10-16T15:23:25.000Z</time>
      </trkpt>
      <trkpt lat="48.19755" lon="-2.85494">
        <ele>128</ele>
        <time>2020-10-16T15:23:26.000Z</time>
      </trkpt>
      <trkpt lat="48.19753" lon="-2.85497">
        <ele>128.19999694824</ele>
        <time>2020-10-16T15:23:27.000Z</time>
      </trkpt>
      <trkpt lat="48.1975" lon="-2.85501">
        <ele>128.39999389648</ele>
        <time>2020-10-16T15:23:28.000Z</time>
      </trkpt>
      <trkpt lat="48.19748" lon="-2.85504">
        <ele>128.39999389648</ele>
        <time>2020-10-16T15:23:29.000Z</time>
      </trkpt>
      <trkpt lat="48.19746" lon="-2.85508">
        <ele>128.60000610352</ele>
        <time>2020-10-16T15:23:30.000Z</time>
      </trkpt>
      <trkpt lat="48.19743" lon="-2.85512">
        <ele>128.80000305176</ele>
        <time>2020-10-16T15:23:31.000Z</time>
      </trkpt>
      <trkpt lat="48.19741" lon="-2.85515">
        <ele>129</ele>
        <time>2020-10-16T15:23:32.000Z</time>
      </trkpt>
      <trkpt lat="48.19738" lon="-2.85519">
        <ele>129.19999694824</ele>
        <time>2020-10-16T15:23:33.000Z</time>
      </trkpt>
      <trkpt lat="48.19735" lon="-2.85522">
        <ele>129.39999389648</ele>
        <time>2020-10-16T15:23:34.000Z</time>
      </trkpt>
      <trkpt lat="48.19733" lon="-2.85525">
        <ele>129.60000610352</ele>
        <time>2020-10-16T15:23:35.000Z</time>
      </trkpt>
      <trkpt lat="48.1973" lon="-2.85528">
        <ele>129.60000610352</ele>
        <time>2020-10-16T15:23:36.000Z</time>
      </trkpt>
      <trkpt lat="48.19727" lon="-2.85532">
        <ele>129.80000305176</ele>
        <time>2020-10-16T15:23:37.000Z</time>
      </trkpt>
      <trkpt lat="48.19724" lon="-2.85535">
        <ele>130</ele>
        <time>2020-10-16T15:23:38.000Z</time>
      </trkpt>
      <trkpt lat="48.19722" lon="-2.85538">
        <ele>130.19999694824</ele>
        <time>2020-10-16T15:23:39.000Z</time>
      </trkpt>
      <trkpt lat="48.19719" lon="-2.85541">
        <ele>130.39999389648</ele>
        <time>2020-10-16T15:23:40.000Z</time>
      </trkpt>
      <trkpt lat="48.19716" lon="-2.85544">
        <ele>130.60000610352</ele>
        <time>2020-10-16T15:23:41.000Z</time>
      </trkpt>
      <trkpt lat="48.19713" lon="-2.85547">
        <ele>130.80000305176</ele>
        <time>2020-10-16T15:23:42.000Z</time>
      </trkpt>
      <trkpt lat="48.19711" lon="-2.8555">
        <ele>131</ele>
        <time>2020-10-16T15:23:43.000Z</time>
      </trkpt>
      <trkpt lat="48.19708" lon="-2.85553">
        <ele>131</ele>
        <time>2020-10-16T15:23:44.000Z</time>
      </trkpt>
      <trkpt lat="48.19705" lon="-2.85556">
        <ele>131.19999694824</ele>
        <time>2020-10-16T15:23:45.000Z</time>
      </trkpt>
      <trkpt lat="48.19702" lon="-2.85559">
        <ele>131.39999389648</ele>
        <time>2020-10-16T15:23:46.000Z</time>
      </trkpt>
      <trkpt lat="48.19699" lon="-2.85562">
        <ele>131.60000610352</ele>
        <time>2020-10-16T15:23:47.000Z</time>
      </trkpt>
      <trkpt lat="48.19696" lon="-2.85565">
        <ele>131.80000305176</ele>
        <time>2020-10-16T15:23:48.000Z</time>
      </trkpt>
      <trkpt lat="48.19694" lon="-2.85568">
        <ele>132</ele>
        <time>2020-10-16T15:23:49.000Z</time>
      </trkpt>
      <trkpt lat="48.19691" lon="-2.8557">
        <ele>132</ele>
        <time>2020-10-16T15:23:50.000Z</time>
      </trkpt>
      <trkpt lat="48.19688" lon="-2.85573">
        <ele>132.19999694824</ele>
        <time>2020-10-16T15:23:51.000Z</time>
      </trkpt>
      <trkpt lat="48.19686" lon="-2.85575">
        <ele>132.39999389648</ele>
        <time>2020-10-16T15:23:52.000Z</time>
      </trkpt>
      <trkpt lat="48.19683" lon="-2.85578">
        <ele>132.60000610352</ele>
        <time>2020-10-16T15:23:53.000Z</time>
      </trkpt>
      <trkpt lat="48.1968" lon="-2.8558">
        <ele>132.80000305176</ele>
        <time>2020-10-16T15:23:54.000Z</time>
      </trkpt>
      <trkpt lat="48.19678" lon="-2.85583">
        <ele>132.80000305176</ele>
        <time>2020-10-16T15:23:55.000Z</time>
      </trkpt>
      <trkpt lat="48.19675" lon="-2.85585">
        <ele>133</ele>
        <time>2020-10-16T15:23:56.000Z</time>
      </trkpt>
      <trkpt lat="48.19672" lon="-2.85587">
        <ele>133.19999694824</ele>
        <time>2020-10-16T15:23:57.000Z</time>
      </trkpt>
      <trkpt lat="48.19669" lon="-2.8559">
        <ele>133.19999694824</ele>
        <time>2020-10-16T15:23:58.000Z</time>
      </trkpt>
      <trkpt lat="48.19667" lon="-2.85592">
        <ele>133.39999389648</ele>
        <time>2020-10-16T15:23:59.000Z</time>
      </trkpt>
      <trkpt lat="48.19664" lon="-2.85595">
        <ele>133.60000610352</ele>
        <time>2020-10-16T15:24:00.000Z</time>
      </trkpt>
      <trkpt lat="48.19661" lon="-2.85597">
        <ele>133.80000305176</ele>
        <time>2020-10-16T15:24:01.000Z</time>
      </trkpt>
      <trkpt lat="48.19656" lon="-2.85602">
        <ele>134.19999694824</ele>
        <time>2020-10-16T15:24:02.000Z</time>
      </trkpt>
      <trkpt lat="48.19653" lon="-2.85604">
        <ele>134.39999389648</ele>
        <time>2020-10-16T15:24:03.000Z</time>
      </trkpt>
      <trkpt lat="48.19653" lon="-2.85604">
        <ele>134.39999389648</ele>
        <time>2020-10-16T15:24:04.000Z</time>
      </trkpt>
      <trkpt lat="48.1965" lon="-2.85607">
        <ele>134.60000610352</ele>
        <time>2020-10-16T15:24:05.000Z</time>
      </trkpt>
      <trkpt lat="48.19647" lon="-2.85609">
        <ele>134.60000610352</ele>
        <time>2020-10-16T15:24:06.000Z</time>
      </trkpt>
      <trkpt lat="48.19645" lon="-2.85611">
        <ele>134.80000305176</ele>
        <time>2020-10-16T15:24:07.000Z</time>
      </trkpt>
      <trkpt lat="48.19642" lon="-2.85614">
        <ele>135</ele>
        <time>2020-10-16T15:24:08.000Z</time>
      </trkpt>
      <trkpt lat="48.19639" lon="-2.85616">
        <ele>135.19999694824</ele>
        <time>2020-10-16T15:24:09.000Z</time>
      </trkpt>
      <trkpt lat="48.19636" lon="-2.85618">
        <ele>135.39999389648</ele>
        <time>2020-10-16T15:24:10.000Z</time>
      </trkpt>
      <trkpt lat="48.19634" lon="-2.8562">
        <ele>135.60000610352</ele>
        <time>2020-10-16T15:24:11.000Z</time>
      </trkpt>
      <trkpt lat="48.19628" lon="-2.85625">
        <ele>135.80000305176</ele>
        <time>2020-10-16T15:24:12.000Z</time>
      </trkpt>
      <trkpt lat="48.19628" lon="-2.85625">
        <ele>135.80000305176</ele>
        <time>2020-10-16T15:24:13.000Z</time>
      </trkpt>
      <trkpt lat="48.19626" lon="-2.85627">
        <ele>136</ele>
        <time>2020-10-16T15:24:14.000Z</time>
      </trkpt>
      <trkpt lat="48.19623" lon="-2.85629">
        <ele>136.19999694824</ele>
        <time>2020-10-16T15:24:15.000Z</time>
      </trkpt>
      <trkpt lat="48.1962" lon="-2.85631">
        <ele>136.39999389648</ele>
        <time>2020-10-16T15:24:16.000Z</time>
      </trkpt>
      <trkpt lat="48.19618" lon="-2.85633">
        <ele>136.60000610352</ele>
        <time>2020-10-16T15:24:17.000Z</time>
      </trkpt>
      <trkpt lat="48.19615" lon="-2.85635">
        <ele>136.80000305176</ele>
        <time>2020-10-16T15:24:18.000Z</time>
      </trkpt>
      <trkpt lat="48.19613" lon="-2.85638">
        <ele>137</ele>
        <time>2020-10-16T15:24:19.000Z</time>
      </trkpt>
      <trkpt lat="48.1961" lon="-2.8564">
        <ele>137</ele>
        <time>2020-10-16T15:24:20.000Z</time>
      </trkpt>
      <trkpt lat="48.19608" lon="-2.85642">
        <ele>137.19999694824</ele>
        <time>2020-10-16T15:24:21.000Z</time>
      </trkpt>
      <trkpt lat="48.19606" lon="-2.85643">
        <ele>137.39999389648</ele>
        <time>2020-10-16T15:24:22.000Z</time>
      </trkpt>
      <trkpt lat="48.19604" lon="-2.85644">
        <ele>137.39999389648</ele>
        <time>2020-10-16T15:24:23.000Z</time>
      </trkpt>
      <trkpt lat="48.19602" lon="-2.85646">
        <ele>137.60000610352</ele>
        <time>2020-10-16T15:24:24.000Z</time>
      </trkpt>
      <trkpt lat="48.196" lon="-2.85648">
        <ele>137.80000305176</ele>
        <time>2020-10-16T15:24:25.000Z</time>
      </trkpt>
      <trkpt lat="48.19598" lon="-2.85651">
        <ele>137.80000305176</ele>
        <time>2020-10-16T15:24:26.000Z</time>
      </trkpt>
      <trkpt lat="48.19596" lon="-2.85653">
        <ele>138</ele>
        <time>2020-10-16T15:24:27.000Z</time>
      </trkpt>
      <trkpt lat="48.19595" lon="-2.85656">
        <ele>138.19999694824</ele>
        <time>2020-10-16T15:24:28.000Z</time>
      </trkpt>
      <trkpt lat="48.19594" lon="-2.85658">
        <ele>138.19999694824</ele>
        <time>2020-10-16T15:24:29.000Z</time>
      </trkpt>
      <trkpt lat="48.19594" lon="-2.8566">
        <ele>138.39999389648</ele>
        <time>2020-10-16T15:24:30.000Z</time>
      </trkpt>
      <trkpt lat="48.19592" lon="-2.85666">
        <ele>138.60000610352</ele>
        <time>2020-10-16T15:24:31.000Z</time>
      </trkpt>
      <trkpt lat="48.19592" lon="-2.85666">
        <ele>138.60000610352</ele>
        <time>2020-10-16T15:24:32.000Z</time>
      </trkpt>
      <trkpt lat="48.19592" lon="-2.8567">
        <ele>138.80000305176</ele>
        <time>2020-10-16T15:24:33.000Z</time>
      </trkpt>
      <trkpt lat="48.19592" lon="-2.85674">
        <ele>138.80000305176</ele>
        <time>2020-10-16T15:24:34.000Z</time>
      </trkpt>
      <trkpt lat="48.19592" lon="-2.85679">
        <ele>139</ele>
        <time>2020-10-16T15:24:35.000Z</time>
      </trkpt>
      <trkpt lat="48.19593" lon="-2.85683">
        <ele>139.19999694824</ele>
        <time>2020-10-16T15:24:36.000Z</time>
      </trkpt>
      <trkpt lat="48.19594" lon="-2.85688">
        <ele>139.39999389648</ele>
        <time>2020-10-16T15:24:37.000Z</time>
      </trkpt>
      <trkpt lat="48.19597" lon="-2.85696">
        <ele>139.80000305176</ele>
        <time>2020-10-16T15:24:38.000Z</time>
      </trkpt>
      <trkpt lat="48.19597" lon="-2.85696">
        <ele>139.80000305176</ele>
        <time>2020-10-16T15:24:39.000Z</time>
      </trkpt>
      <trkpt lat="48.19598" lon="-2.857">
        <ele>140</ele>
        <time>2020-10-16T15:24:40.000Z</time>
      </trkpt>
      <trkpt lat="48.19598" lon="-2.85704">
        <ele>140</ele>
        <time>2020-10-16T15:24:41.000Z</time>
      </trkpt>
      <trkpt lat="48.19598" lon="-2.85708">
        <ele>140.19999694824</ele>
        <time>2020-10-16T15:24:42.000Z</time>
      </trkpt>
      <trkpt lat="48.19597" lon="-2.8571">
        <ele>140.39999389648</ele>
        <time>2020-10-16T15:24:43.000Z</time>
      </trkpt>
      <trkpt lat="48.19596" lon="-2.85713">
        <ele>140.39999389648</ele>
        <time>2020-10-16T15:24:44.000Z</time>
      </trkpt>
      <trkpt lat="48.19594" lon="-2.85715">
        <ele>140.39999389648</ele>
        <time>2020-10-16T15:24:45.000Z</time>
      </trkpt>
      <trkpt lat="48.19592" lon="-2.85717">
        <ele>140.39999389648</ele>
        <time>2020-10-16T15:24:46.000Z</time>
      </trkpt>
      <trkpt lat="48.1959" lon="-2.8572">
        <ele>140.39999389648</ele>
        <time>2020-10-16T15:24:47.000Z</time>
      </trkpt>
      <trkpt lat="48.19587" lon="-2.85723">
        <ele>140.39999389648</ele>
        <time>2020-10-16T15:24:48.000Z</time>
      </trkpt>
      <trkpt lat="48.19584" lon="-2.85725">
        <ele>140.19999694824</ele>
        <time>2020-10-16T15:24:49.000Z</time>
      </trkpt>
      <trkpt lat="48.19582" lon="-2.85728">
        <ele>140.19999694824</ele>
        <time>2020-10-16T15:24:50.000Z</time>
      </trkpt>
      <trkpt lat="48.19579" lon="-2.85731">
        <ele>140.19999694824</ele>
        <time>2020-10-16T15:24:51.000Z</time>
      </trkpt>
      <trkpt lat="48.19576" lon="-2.85733">
        <ele>140</ele>
        <time>2020-10-16T15:24:52.000Z</time>
      </trkpt>
      <trkpt lat="48.19573" lon="-2.85736">
        <ele>140</ele>
        <time>2020-10-16T15:24:53.000Z</time>
      </trkpt>
      <trkpt lat="48.19569" lon="-2.85739">
        <ele>139.80000305176</ele>
        <time>2020-10-16T15:24:54.000Z</time>
      </trkpt>
      <trkpt lat="48.19566" lon="-2.85743">
        <ele>139.80000305176</ele>
        <time>2020-10-16T15:24:55.000Z</time>
      </trkpt>
      <trkpt lat="48.19562" lon="-2.85747">
        <ele>139.80000305176</ele>
        <time>2020-10-16T15:24:56.000Z</time>
      </trkpt>
      <trkpt lat="48.19559" lon="-2.85751">
        <ele>139.60000610352</ele>
        <time>2020-10-16T15:24:57.000Z</time>
      </trkpt>
      <trkpt lat="48.19555" lon="-2.85754">
        <ele>139.60000610352</ele>
        <time>2020-10-16T15:24:58.000Z</time>
      </trkpt>
      <trkpt lat="48.19551" lon="-2.85758">
        <ele>139.39999389648</ele>
        <time>2020-10-16T15:24:59.000Z</time>
      </trkpt>
      <trkpt lat="48.19548" lon="-2.85762">
        <ele>139.19999694824</ele>
        <time>2020-10-16T15:25:00.000Z</time>
      </trkpt>
      <trkpt lat="48.19544" lon="-2.85766">
        <ele>139</ele>
        <time>2020-10-16T15:25:01.000Z</time>
      </trkpt>
      <trkpt lat="48.19541" lon="-2.8577">
        <ele>139</ele>
        <time>2020-10-16T15:25:02.000Z</time>
      </trkpt>
      <trkpt lat="48.19537" lon="-2.85773">
        <ele>138.80000305176</ele>
        <time>2020-10-16T15:25:03.000Z</time>
      </trkpt>
      <trkpt lat="48.19534" lon="-2.85778">
        <ele>138.60000610352</ele>
        <time>2020-10-16T15:25:04.000Z</time>
      </trkpt>
      <trkpt lat="48.19532" lon="-2.85782">
        <ele>138.60000610352</ele>
        <time>2020-10-16T15:25:05.000Z</time>
      </trkpt>
      <trkpt lat="48.19529" lon="-2.85787">
        <ele>138.39999389648</ele>
        <time>2020-10-16T15:25:06.000Z</time>
      </trkpt>
      <trkpt lat="48.19524" lon="-2.85799">
        <ele>138.19999694824</ele>
        <time>2020-10-16T15:25:07.000Z</time>
      </trkpt>
      <trkpt lat="48.19524" lon="-2.85799">
        <ele>138.19999694824</ele>
        <time>2020-10-16T15:25:08.000Z</time>
      </trkpt>
      <trkpt lat="48.19522" lon="-2.85805">
        <ele>138.19999694824</ele>
        <time>2020-10-16T15:25:09.000Z</time>
      </trkpt>
      <trkpt lat="48.1952" lon="-2.85811">
        <ele>138.19999694824</ele>
        <time>2020-10-16T15:25:10.000Z</time>
      </trkpt>
      <trkpt lat="48.19519" lon="-2.85818">
        <ele>138.19999694824</ele>
        <time>2020-10-16T15:25:11.000Z</time>
      </trkpt>
      <trkpt lat="48.19517" lon="-2.85824">
        <ele>138.19999694824</ele>
        <time>2020-10-16T15:25:12.000Z</time>
      </trkpt>
      <trkpt lat="48.19515" lon="-2.8583">
        <ele>138.19999694824</ele>
        <time>2020-10-16T15:25:13.000Z</time>
      </trkpt>
      <trkpt lat="48.19514" lon="-2.85837">
        <ele>138.19999694824</ele>
        <time>2020-10-16T15:25:14.000Z</time>
      </trkpt>
      <trkpt lat="48.19512" lon="-2.85843">
        <ele>138.19999694824</ele>
        <time>2020-10-16T15:25:15.000Z</time>
      </trkpt>
      <trkpt lat="48.1951" lon="-2.8585">
        <ele>138.39999389648</ele>
        <time>2020-10-16T15:25:16.000Z</time>
      </trkpt>
      <trkpt lat="48.19507" lon="-2.85862">
        <ele>138.60000610352</ele>
        <time>2020-10-16T15:25:17.000Z</time>
      </trkpt>
      <trkpt lat="48.19507" lon="-2.85862">
        <ele>138.60000610352</ele>
        <time>2020-10-16T15:25:18.000Z</time>
      </trkpt>
      <trkpt lat="48.19507" lon="-2.85869">
        <ele>139</ele>
        <time>2020-10-16T15:25:19.000Z</time>
      </trkpt>
      <trkpt lat="48.19506" lon="-2.85876">
        <ele>139.19999694824</ele>
        <time>2020-10-16T15:25:20.000Z</time>
      </trkpt>
      <trkpt lat="48.19507" lon="-2.85884">
        <ele>139.60000610352</ele>
        <time>2020-10-16T15:25:21.000Z</time>
      </trkpt>
      <trkpt lat="48.19508" lon="-2.85891">
        <ele>140</ele>
        <time>2020-10-16T15:25:22.000Z</time>
      </trkpt>
      <trkpt lat="48.19508" lon="-2.85899">
        <ele>140.39999389648</ele>
        <time>2020-10-16T15:25:23.000Z</time>
      </trkpt>
      <trkpt lat="48.19507" lon="-2.85906">
        <ele>140.60000610352</ele>
        <time>2020-10-16T15:25:24.000Z</time>
      </trkpt>
      <trkpt lat="48.19506" lon="-2.85914">
        <ele>141</ele>
        <time>2020-10-16T15:25:25.000Z</time>
      </trkpt>
      <trkpt lat="48.19506" lon="-2.8592">
        <ele>141.39999389648</ele>
        <time>2020-10-16T15:25:26.000Z</time>
      </trkpt>
      <trkpt lat="48.19507" lon="-2.85927">
        <ele>141.60000610352</ele>
        <time>2020-10-16T15:25:27.000Z</time>
      </trkpt>
      <trkpt lat="48.19507" lon="-2.85933">
        <ele>141.60000610352</ele>
        <time>2020-10-16T15:25:28.000Z</time>
      </trkpt>
      <trkpt lat="48.19508" lon="-2.85941">
        <ele>141.80000305176</ele>
        <time>2020-10-16T15:25:29.000Z</time>
      </trkpt>
      <trkpt lat="48.19507" lon="-2.85948">
        <ele>141.80000305176</ele>
        <time>2020-10-16T15:25:30.000Z</time>
      </trkpt>
      <trkpt lat="48.19507" lon="-2.85955">
        <ele>142</ele>
        <time>2020-10-16T15:25:31.000Z</time>
      </trkpt>
      <trkpt lat="48.19508" lon="-2.85962">
        <ele>142</ele>
        <time>2020-10-16T15:25:32.000Z</time>
      </trkpt>
      <trkpt lat="48.19508" lon="-2.85969">
        <ele>142.19999694824</ele>
        <time>2020-10-16T15:25:33.000Z</time>
      </trkpt>
      <trkpt lat="48.19508" lon="-2.85976">
        <ele>142.19999694824</ele>
        <time>2020-10-16T15:25:34.000Z</time>
      </trkpt>
      <trkpt lat="48.19508" lon="-2.85984">
        <ele>142.39999389648</ele>
        <time>2020-10-16T15:25:35.000Z</time>
      </trkpt>
      <trkpt lat="48.19508" lon="-2.8599">
        <ele>142.39999389648</ele>
        <time>2020-10-16T15:25:36.000Z</time>
      </trkpt>
      <trkpt lat="48.19508" lon="-2.85997">
        <ele>142.60000610352</ele>
        <time>2020-10-16T15:25:37.000Z</time>
      </trkpt>
      <trkpt lat="48.19509" lon="-2.86004">
        <ele>142.60000610352</ele>
        <time>2020-10-16T15:25:38.000Z</time>
      </trkpt>
      <trkpt lat="48.19509" lon="-2.86011">
        <ele>142.80000305176</ele>
        <time>2020-10-16T15:25:39.000Z</time>
      </trkpt>
      <trkpt lat="48.1951" lon="-2.86018">
        <ele>142.80000305176</ele>
        <time>2020-10-16T15:25:40.000Z</time>
      </trkpt>
      <trkpt lat="48.1951" lon="-2.86024">
        <ele>142.80000305176</ele>
        <time>2020-10-16T15:25:41.000Z</time>
      </trkpt>
      <trkpt lat="48.19511" lon="-2.8603">
        <ele>142.60000610352</ele>
        <time>2020-10-16T15:25:42.000Z</time>
      </trkpt>
      <trkpt lat="48.19511" lon="-2.86035">
        <ele>142.60000610352</ele>
        <time>2020-10-16T15:25:43.000Z</time>
      </trkpt>
      <trkpt lat="48.19511" lon="-2.86039">
        <ele>142.60000610352</ele>
        <time>2020-10-16T15:25:44.000Z</time>
      </trkpt>
      <trkpt lat="48.19511" lon="-2.86043">
        <ele>142.39999389648</ele>
        <time>2020-10-16T15:25:45.000Z</time>
      </trkpt>
      <trkpt lat="48.1951" lon="-2.86047">
        <ele>142.39999389648</ele>
        <time>2020-10-16T15:25:46.000Z</time>
      </trkpt>
      <trkpt lat="48.19511" lon="-2.8605">
        <ele>142.39999389648</ele>
        <time>2020-10-16T15:25:47.000Z</time>
      </trkpt>
      <trkpt lat="48.1951" lon="-2.86053">
        <ele>142.39999389648</ele>
        <time>2020-10-16T15:25:48.000Z</time>
      </trkpt>
      <trkpt lat="48.1951" lon="-2.86057">
        <ele>142.19999694824</ele>
        <time>2020-10-16T15:25:49.000Z</time>
      </trkpt>
      <trkpt lat="48.19509" lon="-2.86061">
        <ele>142.19999694824</ele>
        <time>2020-10-16T15:25:50.000Z</time>
      </trkpt>
      <trkpt lat="48.19507" lon="-2.86065">
        <ele>142</ele>
        <time>2020-10-16T15:25:51.000Z</time>
      </trkpt>
      <trkpt lat="48.19507" lon="-2.86069">
        <ele>142</ele>
        <time>2020-10-16T15:25:52.000Z</time>
      </trkpt>
      <trkpt lat="48.19505" lon="-2.86074">
        <ele>141.80000305176</ele>
        <time>2020-10-16T15:25:53.000Z</time>
      </trkpt>
      <trkpt lat="48.19504" lon="-2.86079">
        <ele>141.60000610352</ele>
        <time>2020-10-16T15:25:54.000Z</time>
      </trkpt>
      <trkpt lat="48.19503" lon="-2.86084">
        <ele>141.60000610352</ele>
        <time>2020-10-16T15:25:55.000Z</time>
      </trkpt>
      <trkpt lat="48.19501" lon="-2.8609">
        <ele>141.39999389648</ele>
        <time>2020-10-16T15:25:56.000Z</time>
      </trkpt>
      <trkpt lat="48.19497" lon="-2.86102">
        <ele>141.19999694824</ele>
        <time>2020-10-16T15:25:57.000Z</time>
      </trkpt>
      <trkpt lat="48.19497" lon="-2.86102">
        <ele>141.19999694824</ele>
        <time>2020-10-16T15:25:58.000Z</time>
      </trkpt>
      <trkpt lat="48.19495" lon="-2.86107">
        <ele>141.19999694824</ele>
        <time>2020-10-16T15:25:59.000Z</time>
      </trkpt>
      <trkpt lat="48.19492" lon="-2.8612">
        <ele>141</ele>
        <time>2020-10-16T15:26:00.000Z</time>
      </trkpt>
      <trkpt lat="48.19492" lon="-2.8612">
        <ele>141</ele>
        <time>2020-10-16T15:26:01.000Z</time>
      </trkpt>
      <trkpt lat="48.1949" lon="-2.86126">
        <ele>141</ele>
        <time>2020-10-16T15:26:02.000Z</time>
      </trkpt>
      <trkpt lat="48.19488" lon="-2.86131">
        <ele>140.80000305176</ele>
        <time>2020-10-16T15:26:03.000Z</time>
      </trkpt>
      <trkpt lat="48.19487" lon="-2.86136">
        <ele>140.80000305176</ele>
        <time>2020-10-16T15:26:04.000Z</time>
      </trkpt>
      <trkpt lat="48.19485" lon="-2.86142">
        <ele>140.80000305176</ele>
        <time>2020-10-16T15:26:05.000Z</time>
      </trkpt>
      <trkpt lat="48.19484" lon="-2.86148">
        <ele>140.60000610352</ele>
        <time>2020-10-16T15:26:06.000Z</time>
      </trkpt>
      <trkpt lat="48.19484" lon="-2.86154">
        <ele>140.60000610352</ele>
        <time>2020-10-16T15:26:07.000Z</time>
      </trkpt>
      <trkpt lat="48.19484" lon="-2.8616">
        <ele>140.60000610352</ele>
        <time>2020-10-16T15:26:08.000Z</time>
      </trkpt>
      <trkpt lat="48.19484" lon="-2.86165">
        <ele>140.60000610352</ele>
        <time>2020-10-16T15:26:09.000Z</time>
      </trkpt>
      <trkpt lat="48.19485" lon="-2.86172">
        <ele>140.60000610352</ele>
        <time>2020-10-16T15:26:10.000Z</time>
      </trkpt>
      <trkpt lat="48.19485" lon="-2.86178">
        <ele>141</ele>
        <time>2020-10-16T15:26:11.000Z</time>
      </trkpt>
      <trkpt lat="48.19486" lon="-2.86184">
        <ele>141.19999694824</ele>
        <time>2020-10-16T15:26:12.000Z</time>
      </trkpt>
      <trkpt lat="48.19486" lon="-2.8619">
        <ele>141.39999389648</ele>
        <time>2020-10-16T15:26:13.000Z</time>
      </trkpt>
      <trkpt lat="48.19487" lon="-2.86196">
        <ele>141.60000610352</ele>
        <time>2020-10-16T15:26:14.000Z</time>
      </trkpt>
      <trkpt lat="48.19487" lon="-2.86202">
        <ele>141.80000305176</ele>
        <time>2020-10-16T15:26:15.000Z</time>
      </trkpt>
      <trkpt lat="48.19485" lon="-2.86214">
        <ele>142.19999694824</ele>
        <time>2020-10-16T15:26:16.000Z</time>
      </trkpt>
      <trkpt lat="48.19485" lon="-2.86214">
        <ele>142.19999694824</ele>
        <time>2020-10-16T15:26:17.000Z</time>
      </trkpt>
      <trkpt lat="48.19484" lon="-2.8622">
        <ele>142.39999389648</ele>
        <time>2020-10-16T15:26:18.000Z</time>
      </trkpt>
      <trkpt lat="48.19482" lon="-2.86225">
        <ele>142.39999389648</ele>
        <time>2020-10-16T15:26:19.000Z</time>
      </trkpt>
      <trkpt lat="48.19481" lon="-2.86231">
        <ele>142.60000610352</ele>
        <time>2020-10-16T15:26:20.000Z</time>
      </trkpt>
      <trkpt lat="48.19479" lon="-2.86236">
        <ele>142.80000305176</ele>
        <time>2020-10-16T15:26:21.000Z</time>
      </trkpt>
      <trkpt lat="48.19478" lon="-2.8624">
        <ele>142.80000305176</ele>
        <time>2020-10-16T15:26:22.000Z</time>
      </trkpt>
      <trkpt lat="48.19477" lon="-2.86245">
        <ele>143</ele>
        <time>2020-10-16T15:26:23.000Z</time>
      </trkpt>
      <trkpt lat="48.19475" lon="-2.86249">
        <ele>143</ele>
        <time>2020-10-16T15:26:24.000Z</time>
      </trkpt>
      <trkpt lat="48.19474" lon="-2.86253">
        <ele>143</ele>
        <time>2020-10-16T15:26:25.000Z</time>
      </trkpt>
      <trkpt lat="48.19472" lon="-2.86257">
        <ele>143.19999694824</ele>
        <time>2020-10-16T15:26:26.000Z</time>
      </trkpt>
      <trkpt lat="48.1947" lon="-2.86261">
        <ele>143</ele>
        <time>2020-10-16T15:26:27.000Z</time>
      </trkpt>
      <trkpt lat="48.19467" lon="-2.86264">
        <ele>143</ele>
        <time>2020-10-16T15:26:28.000Z</time>
      </trkpt>
      <trkpt lat="48.19465" lon="-2.86268">
        <ele>143</ele>
        <time>2020-10-16T15:26:29.000Z</time>
      </trkpt>
      <trkpt lat="48.19462" lon="-2.86271">
        <ele>143</ele>
        <time>2020-10-16T15:26:30.000Z</time>
      </trkpt>
      <trkpt lat="48.19461" lon="-2.86276">
        <ele>143</ele>
        <time>2020-10-16T15:26:31.000Z</time>
      </trkpt>
      <trkpt lat="48.19459" lon="-2.8628">
        <ele>143</ele>
        <time>2020-10-16T15:26:32.000Z</time>
      </trkpt>
      <trkpt lat="48.19457" lon="-2.86284">
        <ele>143</ele>
        <time>2020-10-16T15:26:33.000Z</time>
      </trkpt>
      <trkpt lat="48.19454" lon="-2.86288">
        <ele>143</ele>
        <time>2020-10-16T15:26:34.000Z</time>
      </trkpt>
      <trkpt lat="48.19452" lon="-2.86292">
        <ele>143</ele>
        <time>2020-10-16T15:26:35.000Z</time>
      </trkpt>
      <trkpt lat="48.19448" lon="-2.86299">
        <ele>143</ele>
        <time>2020-10-16T15:26:36.000Z</time>
      </trkpt>
      <trkpt lat="48.19448" lon="-2.86299">
        <ele>143</ele>
        <time>2020-10-16T15:26:37.000Z</time>
      </trkpt>
      <trkpt lat="48.19446" lon="-2.86302">
        <ele>143</ele>
        <time>2020-10-16T15:26:38.000Z</time>
      </trkpt>
      <trkpt lat="48.19444" lon="-2.86306">
        <ele>143</ele>
        <time>2020-10-16T15:26:39.000Z</time>
      </trkpt>
      <trkpt lat="48.19441" lon="-2.8631">
        <ele>143</ele>
        <time>2020-10-16T15:26:40.000Z</time>
      </trkpt>
      <trkpt lat="48.19437" lon="-2.86314">
        <ele>142.80000305176</ele>
        <time>2020-10-16T15:26:41.000Z</time>
      </trkpt>
      <trkpt lat="48.19434" lon="-2.86319">
        <ele>142.80000305176</ele>
        <time>2020-10-16T15:26:42.000Z</time>
      </trkpt>
      <trkpt lat="48.19432" lon="-2.86323">
        <ele>142.80000305176</ele>
        <time>2020-10-16T15:26:43.000Z</time>
      </trkpt>
      <trkpt lat="48.19431" lon="-2.86328">
        <ele>142.80000305176</ele>
        <time>2020-10-16T15:26:44.000Z</time>
      </trkpt>
      <trkpt lat="48.1943" lon="-2.86333">
        <ele>143</ele>
        <time>2020-10-16T15:26:45.000Z</time>
      </trkpt>
      <trkpt lat="48.19428" lon="-2.86337">
        <ele>143</ele>
        <time>2020-10-16T15:26:46.000Z</time>
      </trkpt>
      <trkpt lat="48.19427" lon="-2.86342">
        <ele>142.80000305176</ele>
        <time>2020-10-16T15:26:47.000Z</time>
      </trkpt>
      <trkpt lat="48.19426" lon="-2.86347">
        <ele>142.60000610352</ele>
        <time>2020-10-16T15:26:48.000Z</time>
      </trkpt>
      <trkpt lat="48.19425" lon="-2.86352">
        <ele>142.39999389648</ele>
        <time>2020-10-16T15:26:49.000Z</time>
      </trkpt>
      <trkpt lat="48.19423" lon="-2.86358">
        <ele>142.19999694824</ele>
        <time>2020-10-16T15:26:50.000Z</time>
      </trkpt>
      <trkpt lat="48.19422" lon="-2.86369">
        <ele>141.80000305176</ele>
        <time>2020-10-16T15:26:51.000Z</time>
      </trkpt>
      <trkpt lat="48.19422" lon="-2.86369">
        <ele>141.80000305176</ele>
        <time>2020-10-16T15:26:52.000Z</time>
      </trkpt>
      <trkpt lat="48.19422" lon="-2.86375">
        <ele>141.80000305176</ele>
        <time>2020-10-16T15:26:53.000Z</time>
      </trkpt>
      <trkpt lat="48.19422" lon="-2.86381">
        <ele>141.60000610352</ele>
        <time>2020-10-16T15:26:54.000Z</time>
      </trkpt>
      <trkpt lat="48.19423" lon="-2.86387">
        <ele>141.80000305176</ele>
        <time>2020-10-16T15:26:55.000Z</time>
      </trkpt>
      <trkpt lat="48.19425" lon="-2.86393">
        <ele>141.80000305176</ele>
        <time>2020-10-16T15:26:56.000Z</time>
      </trkpt>
      <trkpt lat="48.19427" lon="-2.86397">
        <ele>142.19999694824</ele>
        <time>2020-10-16T15:26:57.000Z</time>
      </trkpt>
      <trkpt lat="48.19429" lon="-2.86401">
        <ele>142.39999389648</ele>
        <time>2020-10-16T15:26:58.000Z</time>
      </trkpt>
      <trkpt lat="48.19432" lon="-2.86404">
        <ele>142.39999389648</ele>
        <time>2020-10-16T15:26:59.000Z</time>
      </trkpt>
      <trkpt lat="48.19435" lon="-2.86408">
        <ele>142.60000610352</ele>
        <time>2020-10-16T15:27:00.000Z</time>
      </trkpt>
      <trkpt lat="48.19439" lon="-2.86412">
        <ele>142.60000610352</ele>
        <time>2020-10-16T15:27:01.000Z</time>
      </trkpt>
      <trkpt lat="48.19442" lon="-2.86415">
        <ele>142.80000305176</ele>
        <time>2020-10-16T15:27:02.000Z</time>
      </trkpt>
      <trkpt lat="48.19446" lon="-2.86418">
        <ele>143</ele>
        <time>2020-10-16T15:27:03.000Z</time>
      </trkpt>
      <trkpt lat="48.19449" lon="-2.86422">
        <ele>143.19999694824</ele>
        <time>2020-10-16T15:27:04.000Z</time>
      </trkpt>
      <trkpt lat="48.19452" lon="-2.86426">
        <ele>143.39999389648</ele>
        <time>2020-10-16T15:27:05.000Z</time>
      </trkpt>
      <trkpt lat="48.19455" lon="-2.8643">
        <ele>143.39999389648</ele>
        <time>2020-10-16T15:27:06.000Z</time>
      </trkpt>
      <trkpt lat="48.19458" lon="-2.8644">
        <ele>143.39999389648</ele>
        <time>2020-10-16T15:27:07.000Z</time>
      </trkpt>
      <trkpt lat="48.19458" lon="-2.8644">
        <ele>143.39999389648</ele>
        <time>2020-10-16T15:27:08.000Z</time>
      </trkpt>
      <trkpt lat="48.19459" lon="-2.86446">
        <ele>143.19999694824</ele>
        <time>2020-10-16T15:27:09.000Z</time>
      </trkpt>
      <trkpt lat="48.1946" lon="-2.86452">
        <ele>143.19999694824</ele>
        <time>2020-10-16T15:27:10.000Z</time>
      </trkpt>
      <trkpt lat="48.19461" lon="-2.86458">
        <ele>143</ele>
        <time>2020-10-16T15:27:11.000Z</time>
      </trkpt>
      <trkpt lat="48.19461" lon="-2.86464">
        <ele>143</ele>
        <time>2020-10-16T15:27:12.000Z</time>
      </trkpt>
      <trkpt lat="48.19462" lon="-2.86469">
        <ele>143</ele>
        <time>2020-10-16T15:27:13.000Z</time>
      </trkpt>
      <trkpt lat="48.19463" lon="-2.86474">
        <ele>142.80000305176</ele>
        <time>2020-10-16T15:27:14.000Z</time>
      </trkpt>
      <trkpt lat="48.19467" lon="-2.86485">
        <ele>142.80000305176</ele>
        <time>2020-10-16T15:27:15.000Z</time>
      </trkpt>
      <trkpt lat="48.19467" lon="-2.86485">
        <ele>142.80000305176</ele>
        <time>2020-10-16T15:27:16.000Z</time>
      </trkpt>
      <trkpt lat="48.19469" lon="-2.8649">
        <ele>142.80000305176</ele>
        <time>2020-10-16T15:27:17.000Z</time>
      </trkpt>
      <trkpt lat="48.19472" lon="-2.86495">
        <ele>142.80000305176</ele>
        <time>2020-10-16T15:27:18.000Z</time>
      </trkpt>
      <trkpt lat="48.19474" lon="-2.86499">
        <ele>143</ele>
        <time>2020-10-16T15:27:19.000Z</time>
      </trkpt>
      <trkpt lat="48.19476" lon="-2.86503">
        <ele>143</ele>
        <time>2020-10-16T15:27:20.000Z</time>
      </trkpt>
      <trkpt lat="48.19478" lon="-2.86507">
        <ele>143</ele>
        <time>2020-10-16T15:27:21.000Z</time>
      </trkpt>
      <trkpt lat="48.1948" lon="-2.8651">
        <ele>143</ele>
        <time>2020-10-16T15:27:22.000Z</time>
      </trkpt>
      <trkpt lat="48.19481" lon="-2.86513">
        <ele>143.19999694824</ele>
        <time>2020-10-16T15:27:23.000Z</time>
      </trkpt>
      <trkpt lat="48.19482" lon="-2.86517">
        <ele>143.19999694824</ele>
        <time>2020-10-16T15:27:24.000Z</time>
      </trkpt>
      <trkpt lat="48.19482" lon="-2.86521">
        <ele>143.19999694824</ele>
        <time>2020-10-16T15:27:25.000Z</time>
      </trkpt>
      <trkpt lat="48.19482" lon="-2.86525">
        <ele>143.19999694824</ele>
        <time>2020-10-16T15:27:26.000Z</time>
      </trkpt>
      <trkpt lat="48.19482" lon="-2.8653">
        <ele>143.19999694824</ele>
        <time>2020-10-16T15:27:27.000Z</time>
      </trkpt>
      <trkpt lat="48.19481" lon="-2.86535">
        <ele>143.19999694824</ele>
        <time>2020-10-16T15:27:28.000Z</time>
      </trkpt>
      <trkpt lat="48.19479" lon="-2.86539">
        <ele>143</ele>
        <time>2020-10-16T15:27:29.000Z</time>
      </trkpt>
      <trkpt lat="48.19478" lon="-2.86542">
        <ele>143</ele>
        <time>2020-10-16T15:27:30.000Z</time>
      </trkpt>
      <trkpt lat="48.19476" lon="-2.86545">
        <ele>142.80000305176</ele>
        <time>2020-10-16T15:27:31.000Z</time>
      </trkpt>
      <trkpt lat="48.19475" lon="-2.86545">
        <ele>142.80000305176</ele>
        <time>2020-10-16T15:27:32.000Z</time>
      </trkpt>
      <trkpt lat="48.19475" lon="-2.86545">
        <ele>142.80000305176</ele>
        <time>2020-10-16T15:27:33.000Z</time>
      </trkpt>
      <trkpt lat="48.19473" lon="-2.86543">
        <ele>142.60000610352</ele>
        <time>2020-10-16T15:27:34.000Z</time>
      </trkpt>
      <trkpt lat="48.19469" lon="-2.86538">
        <ele>142.39999389648</ele>
        <time>2020-10-16T15:27:35.000Z</time>
      </trkpt>
      <trkpt lat="48.19469" lon="-2.86538">
        <ele>142.39999389648</ele>
        <time>2020-10-16T15:27:36.000Z</time>
      </trkpt>
      <trkpt lat="48.19467" lon="-2.86534">
        <ele>142.39999389648</ele>
        <time>2020-10-16T15:27:37.000Z</time>
      </trkpt>
      <trkpt lat="48.19464" lon="-2.86529">
        <ele>142.19999694824</ele>
        <time>2020-10-16T15:27:38.000Z</time>
      </trkpt>
      <trkpt lat="48.1946" lon="-2.86523">
        <ele>142</ele>
        <time>2020-10-16T15:27:39.000Z</time>
      </trkpt>
      <trkpt lat="48.19456" lon="-2.86517">
        <ele>141.60000610352</ele>
        <time>2020-10-16T15:27:40.000Z</time>
      </trkpt>
      <trkpt lat="48.19453" lon="-2.86511">
        <ele>141.39999389648</ele>
        <time>2020-10-16T15:27:41.000Z</time>
      </trkpt>
      <trkpt lat="48.19449" lon="-2.86506">
        <ele>141.19999694824</ele>
        <time>2020-10-16T15:27:42.000Z</time>
      </trkpt>
      <trkpt lat="48.19444" lon="-2.865">
        <ele>141.19999694824</ele>
        <time>2020-10-16T15:27:43.000Z</time>
      </trkpt>
      <trkpt lat="48.1944" lon="-2.86493">
        <ele>141</ele>
        <time>2020-10-16T15:27:44.000Z</time>
      </trkpt>
      <trkpt lat="48.19435" lon="-2.86487">
        <ele>140.80000305176</ele>
        <time>2020-10-16T15:27:45.000Z</time>
      </trkpt>
      <trkpt lat="48.19431" lon="-2.86481">
        <ele>140.80000305176</ele>
        <time>2020-10-16T15:27:46.000Z</time>
      </trkpt>
      <trkpt lat="48.19426" lon="-2.86475">
        <ele>140.39999389648</ele>
        <time>2020-10-16T15:27:47.000Z</time>
      </trkpt>
      <trkpt lat="48.19422" lon="-2.86469">
        <ele>140</ele>
        <time>2020-10-16T15:27:48.000Z</time>
      </trkpt>
      <trkpt lat="48.19418" lon="-2.86464">
        <ele>139.80000305176</ele>
        <time>2020-10-16T15:27:49.000Z</time>
      </trkpt>
      <trkpt lat="48.19413" lon="-2.86459">
        <ele>139.39999389648</ele>
        <time>2020-10-16T15:27:50.000Z</time>
      </trkpt>
      <trkpt lat="48.19409" lon="-2.86455">
        <ele>138.80000305176</ele>
        <time>2020-10-16T15:27:51.000Z</time>
      </trkpt>
      <trkpt lat="48.19404" lon="-2.86452">
        <ele>138.39999389648</ele>
        <time>2020-10-16T15:27:52.000Z</time>
      </trkpt>
      <trkpt lat="48.19399" lon="-2.8645">
        <ele>137.80000305176</ele>
        <time>2020-10-16T15:27:53.000Z</time>
      </trkpt>
      <trkpt lat="48.19394" lon="-2.86449">
        <ele>137.19999694824</ele>
        <time>2020-10-16T15:27:54.000Z</time>
      </trkpt>
      <trkpt lat="48.1939" lon="-2.86449">
        <ele>136.60000610352</ele>
        <time>2020-10-16T15:27:55.000Z</time>
      </trkpt>
      <trkpt lat="48.19386" lon="-2.86449">
        <ele>136</ele>
        <time>2020-10-16T15:27:56.000Z</time>
      </trkpt>
      <trkpt lat="48.19382" lon="-2.8645">
        <ele>135.60000610352</ele>
        <time>2020-10-16T15:27:57.000Z</time>
      </trkpt>
      <trkpt lat="48.1938" lon="-2.8645">
        <ele>135.19999694824</ele>
        <time>2020-10-16T15:27:58.000Z</time>
      </trkpt>
      <trkpt lat="48.19378" lon="-2.8645">
        <ele>135</ele>
        <time>2020-10-16T15:27:59.000Z</time>
      </trkpt>
      <trkpt lat="48.19375" lon="-2.8645">
        <ele>134.60000610352</ele>
        <time>2020-10-16T15:28:00.000Z</time>
      </trkpt>
      <trkpt lat="48.19375" lon="-2.8645">
        <ele>134.60000610352</ele>
        <time>2020-10-16T15:28:01.000Z</time>
      </trkpt>
      <trkpt lat="48.19373" lon="-2.8645">
        <ele>134.39999389648</ele>
        <time>2020-10-16T15:28:02.000Z</time>
      </trkpt>
      <trkpt lat="48.19371" lon="-2.86449">
        <ele>134.19999694824</ele>
        <time>2020-10-16T15:28:03.000Z</time>
      </trkpt>
      <trkpt lat="48.1937" lon="-2.86446">
        <ele>134</ele>
        <time>2020-10-16T15:28:04.000Z</time>
      </trkpt>
      <trkpt lat="48.19367" lon="-2.8644">
        <ele>133.80000305176</ele>
        <time>2020-10-16T15:28:05.000Z</time>
      </trkpt>
      <trkpt lat="48.19364" lon="-2.86425">
        <ele>133.39999389648</ele>
        <time>2020-10-16T15:28:06.000Z</time>
      </trkpt>
      <trkpt lat="48.19364" lon="-2.86425">
        <ele>133.39999389648</ele>
        <time>2020-10-16T15:28:07.000Z</time>
      </trkpt>
      <trkpt lat="48.19362" lon="-2.86417">
        <ele>133.39999389648</ele>
        <time>2020-10-16T15:28:08.000Z</time>
      </trkpt>
      <trkpt lat="48.19362" lon="-2.86409">
        <ele>133.39999389648</ele>
        <time>2020-10-16T15:28:09.000Z</time>
      </trkpt>
      <trkpt lat="48.19361" lon="-2.86401">
        <ele>133.39999389648</ele>
        <time>2020-10-16T15:28:10.000Z</time>
      </trkpt>
      <trkpt lat="48.1936" lon="-2.86393">
        <ele>133.60000610352</ele>
        <time>2020-10-16T15:28:11.000Z</time>
      </trkpt>
      <trkpt lat="48.19359" lon="-2.86386">
        <ele>133.60000610352</ele>
        <time>2020-10-16T15:28:12.000Z</time>
      </trkpt>
      <trkpt lat="48.19358" lon="-2.86378">
        <ele>133.60000610352</ele>
        <time>2020-10-16T15:28:13.000Z</time>
      </trkpt>
      <trkpt lat="48.19357" lon="-2.86371">
        <ele>133.60000610352</ele>
        <time>2020-10-16T15:28:14.000Z</time>
      </trkpt>
      <trkpt lat="48.19355" lon="-2.86365">
        <ele>133.60000610352</ele>
        <time>2020-10-16T15:28:15.000Z</time>
      </trkpt>
      <trkpt lat="48.19354" lon="-2.8636">
        <ele>133.60000610352</ele>
        <time>2020-10-16T15:28:16.000Z</time>
      </trkpt>
      <trkpt lat="48.19353" lon="-2.86355">
        <ele>133.60000610352</ele>
        <time>2020-10-16T15:28:17.000Z</time>
      </trkpt>
      <trkpt lat="48.19352" lon="-2.8635">
        <ele>133.60000610352</ele>
        <time>2020-10-16T15:28:18.000Z</time>
      </trkpt>
      <trkpt lat="48.19351" lon="-2.86346">
        <ele>133.60000610352</ele>
        <time>2020-10-16T15:28:19.000Z</time>
      </trkpt>
      <trkpt lat="48.19349" lon="-2.86343">
        <ele>133.39999389648</ele>
        <time>2020-10-16T15:28:20.000Z</time>
      </trkpt>
      <trkpt lat="48.19348" lon="-2.86341">
        <ele>133.39999389648</ele>
        <time>2020-10-16T15:28:21.000Z</time>
      </trkpt>
      <trkpt lat="48.19347" lon="-2.8634">
        <ele>133.19999694824</ele>
        <time>2020-10-16T15:28:22.000Z</time>
      </trkpt>
      <trkpt lat="48.19346" lon="-2.8634">
        <ele>133.19999694824</ele>
        <time>2020-10-16T15:28:23.000Z</time>
      </trkpt>
      <trkpt lat="48.19347" lon="-2.8634">
        <ele>133.19999694824</ele>
        <time>2020-10-16T15:28:24.000Z</time>
      </trkpt>
      <trkpt lat="48.19347" lon="-2.8634">
        <ele>133.19999694824</ele>
        <time>2020-10-16T15:28:25.000Z</time>
      </trkpt>
      <trkpt lat="48.19347" lon="-2.8634">
        <ele>133.19999694824</ele>
        <time>2020-10-16T15:28:26.000Z</time>
      </trkpt>
      <trkpt lat="48.19347" lon="-2.8634">
        <ele>133.19999694824</ele>
        <time>2020-10-16T15:28:27.000Z</time>
      </trkpt>
      <trkpt lat="48.19347" lon="-2.8634">
        <ele>133.19999694824</ele>
        <time>2020-10-16T15:28:28.000Z</time>
      </trkpt>
      <trkpt lat="48.19347" lon="-2.8634">
        <ele>133.19999694824</ele>
        <time>2020-10-16T15:28:29.000Z</time>
      </trkpt>
      <trkpt lat="48.19347" lon="-2.8634">
        <ele>133.19999694824</ele>
        <time>2020-10-16T15:28:30.000Z</time>
      </trkpt>
      <trkpt lat="48.19347" lon="-2.8634">
        <ele>133.19999694824</ele>
        <time>2020-10-16T15:28:31.000Z</time>
      </trkpt>
      <trkpt lat="48.19347" lon="-2.8634">
        <ele>133.19999694824</ele>
        <time>2020-10-16T15:28:32.000Z</time>
      </trkpt>
      <trkpt lat="48.19347" lon="-2.8634">
        <ele>133.19999694824</ele>
        <time>2020-10-16T15:28:33.000Z</time>
      </trkpt>
      <trkpt lat="48.19347" lon="-2.8634">
        <ele>133.19999694824</ele>
        <time>2020-10-16T15:28:34.000Z</time>
      </trkpt>
      <trkpt lat="48.19347" lon="-2.8634">
        <ele>133.19999694824</ele>
        <time>2020-10-16T15:28:35.000Z</time>
      </trkpt>
      <trkpt lat="48.19347" lon="-2.8634">
        <ele>133.19999694824</ele>
        <time>2020-10-16T15:28:36.000Z</time>
      </trkpt>
      <trkpt lat="48.19347" lon="-2.8634">
        <ele>133.19999694824</ele>
        <time>2020-10-16T15:28:37.000Z</time>
      </trkpt>
      <trkpt lat="48.19347" lon="-2.8634">
        <ele>133.19999694824</ele>
        <time>2020-10-16T15:28:38.000Z</time>
      </trkpt>
      <trkpt lat="48.19347" lon="-2.8634">
        <ele>133.19999694824</ele>
        <time>2020-10-16T15:28:39.000Z</time>
      </trkpt>
      <trkpt lat="48.19347" lon="-2.8634">
        <ele>133.19999694824</ele>
        <time>2020-10-16T15:28:40.000Z</time>
      </trkpt>
      <trkpt lat="48.19347" lon="-2.8634">
        <ele>133.19999694824</ele>
        <time>2020-10-16T15:28:41.000Z</time>
      </trkpt>
      <trkpt lat="48.19347" lon="-2.8634">
        <ele>133.19999694824</ele>
        <time>2020-10-16T15:28:42.000Z</time>
      </trkpt>
      <trkpt lat="48.19347" lon="-2.8634">
        <ele>133.19999694824</ele>
        <time>2020-10-16T15:28:43.000Z</time>
      </trkpt>
      <trkpt lat="48.19347" lon="-2.8634">
        <ele>133.19999694824</ele>
        <time>2020-10-16T15:28:44.000Z</time>
      </trkpt>
      <trkpt lat="48.19347" lon="-2.8634">
        <ele>133.19999694824</ele>
        <time>2020-10-16T15:28:45.000Z</time>
      </trkpt>
      <trkpt lat="48.19347" lon="-2.8634">
        <ele>133.19999694824</ele>
        <time>2020-10-16T15:28:46.000Z</time>
      </trkpt>
      <trkpt lat="48.19347" lon="-2.8634">
        <ele>133.19999694824</ele>
        <time>2020-10-16T15:28:47.000Z</time>
      </trkpt>
      <trkpt lat="48.19347" lon="-2.8634">
        <ele>133.19999694824</ele>
        <time>2020-10-16T15:28:48.000Z</time>
      </trkpt>
      <trkpt lat="48.19347" lon="-2.8634">
        <ele>133.19999694824</ele>
        <time>2020-10-16T15:28:49.000Z</time>
      </trkpt>
      <trkpt lat="48.19347" lon="-2.8634">
        <ele>133.19999694824</ele>
        <time>2020-10-16T15:28:50.000Z</time>
      </trkpt>
      <trkpt lat="48.19347" lon="-2.8634">
        <ele>133.19999694824</ele>
        <time>2020-10-16T15:28:51.000Z</time>
      </trkpt>
      <trkpt lat="48.19347" lon="-2.8634">
        <ele>133.19999694824</ele>
        <time>2020-10-16T15:28:52.000Z</time>
      </trkpt>
      <trkpt lat="48.19347" lon="-2.8634">
        <ele>133.19999694824</ele>
        <time>2020-10-16T15:28:53.000Z</time>
      </trkpt>
      <trkpt lat="48.19347" lon="-2.8634">
        <ele>133.19999694824</ele>
        <time>2020-10-16T15:28:54.000Z</time>
      </trkpt>
      <trkpt lat="48.19347" lon="-2.8634">
        <ele>133.19999694824</ele>
        <time>2020-10-16T15:28:55.000Z</time>
      </trkpt>
      <trkpt lat="48.19347" lon="-2.8634">
        <ele>133.19999694824</ele>
        <time>2020-10-16T15:28:56.000Z</time>
      </trkpt>
      <trkpt lat="48.19347" lon="-2.8634">
        <ele>133.19999694824</ele>
        <time>2020-10-16T15:28:57.000Z</time>
      </trkpt>
      <trkpt lat="48.19347" lon="-2.8634">
        <ele>133.19999694824</ele>
        <time>2020-10-16T15:28:58.000Z</time>
      </trkpt>
      <trkpt lat="48.19347" lon="-2.8634">
        <ele>133.19999694824</ele>
        <time>2020-10-16T15:28:59.000Z</time>
      </trkpt>
      <trkpt lat="48.19347" lon="-2.8634">
        <ele>133.19999694824</ele>
        <time>2020-10-16T15:29:00.000Z</time>
      </trkpt>
      <trkpt lat="48.19347" lon="-2.8634">
        <ele>133.19999694824</ele>
        <time>2020-10-16T15:29:01.000Z</time>
      </trkpt>
      <trkpt lat="48.19347" lon="-2.8634">
        <ele>133.19999694824</ele>
        <time>2020-10-16T15:29:02.000Z</time>
      </trkpt>
      <trkpt lat="48.19347" lon="-2.8634">
        <ele>133.19999694824</ele>
        <time>2020-10-16T15:29:03.000Z</time>
      </trkpt>
      <trkpt lat="48.19347" lon="-2.8634">
        <ele>133.19999694824</ele>
        <time>2020-10-16T15:29:04.000Z</time>
      </trkpt>
      <trkpt lat="48.19347" lon="-2.8634">
        <ele>133.19999694824</ele>
        <time>2020-10-16T15:29:05.000Z</time>
      </trkpt>
      <trkpt lat="48.19347" lon="-2.8634">
        <ele>133.19999694824</ele>
        <time>2020-10-16T15:29:06.000Z</time>
      </trkpt>
      <trkpt lat="48.19347" lon="-2.8634">
        <ele>133.19999694824</ele>
        <time>2020-10-16T15:29:07.000Z</time>
      </trkpt>
      <trkpt lat="48.19347" lon="-2.8634">
        <ele>133.19999694824</ele>
        <time>2020-10-16T15:29:08.000Z</time>
      </trkpt>
      <trkpt lat="48.19347" lon="-2.8634">
        <ele>133.19999694824</ele>
        <time>2020-10-16T15:29:09.000Z</time>
      </trkpt>
      <trkpt lat="48.19347" lon="-2.8634">
        <ele>133.19999694824</ele>
        <time>2020-10-16T15:29:10.000Z</time>
      </trkpt>
      <trkpt lat="48.19347" lon="-2.8634">
        <ele>133.19999694824</ele>
        <time>2020-10-16T15:29:11.000Z</time>
      </trkpt>
      <trkpt lat="48.19347" lon="-2.8634">
        <ele>133.19999694824</ele>
        <time>2020-10-16T15:29:12.000Z</time>
      </trkpt>
      <trkpt lat="48.19347" lon="-2.8634">
        <ele>133.19999694824</ele>
        <time>2020-10-16T15:29:13.000Z</time>
      </trkpt>
      <trkpt lat="48.19347" lon="-2.8634">
        <ele>133.19999694824</ele>
        <time>2020-10-16T15:29:14.000Z</time>
      </trkpt>
      <trkpt lat="48.19347" lon="-2.8634">
        <ele>133.19999694824</ele>
        <time>2020-10-16T15:29:15.000Z</time>
      </trkpt>
      <trkpt lat="48.19347" lon="-2.8634">
        <ele>133.19999694824</ele>
        <time>2020-10-16T15:29:16.000Z</time>
      </trkpt>
      <trkpt lat="48.19347" lon="-2.8634">
        <ele>133.19999694824</ele>
        <time>2020-10-16T15:29:17.000Z</time>
      </trkpt>
      <trkpt lat="48.19347" lon="-2.8634">
        <ele>133.19999694824</ele>
        <time>2020-10-16T15:29:18.000Z</time>
      </trkpt>
      <trkpt lat="48.19347" lon="-2.8634">
        <ele>133.19999694824</ele>
        <time>2020-10-16T15:29:19.000Z</time>
      </trkpt>
      <trkpt lat="48.19347" lon="-2.8634">
        <ele>133.19999694824</ele>
        <time>2020-10-16T15:29:20.000Z</time>
      </trkpt>
      <trkpt lat="48.19347" lon="-2.8634">
        <ele>133.19999694824</ele>
        <time>2020-10-16T15:29:21.000Z</time>
      </trkpt>
      <trkpt lat="48.19347" lon="-2.8634">
        <ele>133.19999694824</ele>
        <time>2020-10-16T15:29:22.000Z</time>
      </trkpt>
      <trkpt lat="48.19347" lon="-2.8634">
        <ele>133.19999694824</ele>
        <time>2020-10-16T15:29:23.000Z</time>
      </trkpt>
      <trkpt lat="48.19347" lon="-2.8634">
        <ele>133.19999694824</ele>
        <time>2020-10-16T15:29:24.000Z</time>
      </trkpt>
      <trkpt lat="48.19347" lon="-2.8634">
        <ele>133.19999694824</ele>
        <time>2020-10-16T15:29:25.000Z</time>
      </trkpt>
      <trkpt lat="48.19347" lon="-2.8634">
        <ele>133.19999694824</ele>
        <time>2020-10-16T15:29:26.000Z</time>
      </trkpt>
      <trkpt lat="48.19347" lon="-2.8634">
        <ele>133.19999694824</ele>
        <time>2020-10-16T15:29:27.000Z</time>
      </trkpt>
      <trkpt lat="48.19347" lon="-2.8634">
        <ele>133.19999694824</ele>
        <time>2020-10-16T15:29:28.000Z</time>
      </trkpt>
      <trkpt lat="48.19347" lon="-2.8634">
        <ele>133.19999694824</ele>
        <time>2020-10-16T15:29:29.000Z</time>
      </trkpt>
      <trkpt lat="48.19347" lon="-2.8634">
        <ele>133.19999694824</ele>
        <time>2020-10-16T15:29:30.000Z</time>
      </trkpt>
      <trkpt lat="48.19347" lon="-2.8634">
        <ele>133.19999694824</ele>
        <time>2020-10-16T15:29:31.000Z</time>
      </trkpt>
      <trkpt lat="48.19347" lon="-2.8634">
        <ele>133.19999694824</ele>
        <time>2020-10-16T15:29:32.000Z</time>
      </trkpt>
      <trkpt lat="48.19347" lon="-2.8634">
        <ele>133.19999694824</ele>
        <time>2020-10-16T15:29:33.000Z</time>
      </trkpt>
      <trkpt lat="48.19347" lon="-2.8634">
        <ele>133.19999694824</ele>
        <time>2020-10-16T15:29:34.000Z</time>
      </trkpt>
      <trkpt lat="48.19347" lon="-2.8634">
        <ele>133.19999694824</ele>
        <time>2020-10-16T15:29:35.000Z</time>
      </trkpt>
      <trkpt lat="48.19347" lon="-2.8634">
        <ele>133.19999694824</ele>
        <time>2020-10-16T15:29:36.000Z</time>
      </trkpt>
      <trkpt lat="48.19347" lon="-2.8634">
        <ele>133.19999694824</ele>
        <time>2020-10-16T15:29:37.000Z</time>
      </trkpt>
      <trkpt lat="48.19347" lon="-2.8634">
        <ele>133.19999694824</ele>
        <time>2020-10-16T15:29:38.000Z</time>
      </trkpt>
      <trkpt lat="48.19347" lon="-2.8634">
        <ele>133.19999694824</ele>
        <time>2020-10-16T15:29:39.000Z</time>
      </trkpt>
      <trkpt lat="48.19347" lon="-2.8634">
        <ele>133.19999694824</ele>
        <time>2020-10-16T15:29:40.000Z</time>
      </trkpt>
      <trkpt lat="48.19347" lon="-2.8634">
        <ele>133.19999694824</ele>
        <time>2020-10-16T15:29:41.000Z</time>
      </trkpt>
      <trkpt lat="48.19347" lon="-2.8634">
        <ele>133.19999694824</ele>
        <time>2020-10-16T15:29:42.000Z</time>
      </trkpt>
      <trkpt lat="48.19347" lon="-2.8634">
        <ele>133.19999694824</ele>
        <time>2020-10-16T15:29:43.000Z</time>
      </trkpt>
      <trkpt lat="48.19347" lon="-2.8634">
        <ele>133.19999694824</ele>
        <time>2020-10-16T15:29:44.000Z</time>
      </trkpt>
      <trkpt lat="48.19347" lon="-2.8634">
        <ele>133.19999694824</ele>
        <time>2020-10-16T15:29:45.000Z</time>
      </trkpt>
      <trkpt lat="48.19347" lon="-2.8634">
        <ele>133.19999694824</ele>
        <time>2020-10-16T15:29:46.000Z</time>
      </trkpt>
      <trkpt lat="48.19347" lon="-2.8634">
        <ele>133.19999694824</ele>
        <time>2020-10-16T15:29:47.000Z</time>
      </trkpt>
      <trkpt lat="48.19347" lon="-2.8634">
        <ele>133.19999694824</ele>
        <time>2020-10-16T15:29:48.000Z</time>
      </trkpt>
      <trkpt lat="48.19347" lon="-2.8634">
        <ele>133.19999694824</ele>
        <time>2020-10-16T15:29:49.000Z</time>
      </trkpt>
      <trkpt lat="48.19347" lon="-2.8634">
        <ele>133.19999694824</ele>
        <time>2020-10-16T15:29:50.000Z</time>
      </trkpt>
      <trkpt lat="48.19348" lon="-2.86339">
        <ele>133.39999389648</ele>
        <time>2020-10-16T15:29:51.000Z</time>
      </trkpt>
      <trkpt lat="48.19348" lon="-2.86339">
        <ele>133.39999389648</ele>
        <time>2020-10-16T15:29:52.000Z</time>
      </trkpt>
      <trkpt lat="48.19348" lon="-2.86339">
        <ele>133.39999389648</ele>
        <time>2020-10-16T15:29:53.000Z</time>
      </trkpt>
      <trkpt lat="48.19348" lon="-2.86339">
        <ele>133.39999389648</ele>
        <time>2020-10-16T15:29:54.000Z</time>
      </trkpt>
      <trkpt lat="48.19348" lon="-2.86339">
        <ele>133.39999389648</ele>
        <time>2020-10-16T15:29:55.000Z</time>
      </trkpt>
      <trkpt lat="48.19348" lon="-2.86339">
        <ele>133.39999389648</ele>
        <time>2020-10-16T15:29:56.000Z</time>
      </trkpt>
      <trkpt lat="48.19348" lon="-2.86339">
        <ele>133.39999389648</ele>
        <time>2020-10-16T15:29:57.000Z</time>
      </trkpt>
      <trkpt lat="48.19348" lon="-2.86339">
        <ele>133.39999389648</ele>
        <time>2020-10-16T15:29:58.000Z</time>
      </trkpt>
      <trkpt lat="48.19348" lon="-2.86339">
        <ele>133.39999389648</ele>
        <time>2020-10-16T15:29:59.000Z</time>
      </trkpt>
      <trkpt lat="48.19348" lon="-2.86339">
        <ele>133.39999389648</ele>
        <time>2020-10-16T15:30:00.000Z</time>
      </trkpt>
      <trkpt lat="48.19348" lon="-2.86339">
        <ele>133.39999389648</ele>
        <time>2020-10-16T15:30:01.000Z</time>
      </trkpt>
      <trkpt lat="48.19348" lon="-2.86339">
        <ele>133.39999389648</ele>
        <time>2020-10-16T15:30:02.000Z</time>
      </trkpt>
      <trkpt lat="48.19348" lon="-2.86339">
        <ele>133.39999389648</ele>
        <time>2020-10-16T15:30:03.000Z</time>
      </trkpt>
      <trkpt lat="48.19348" lon="-2.86339">
        <ele>133.39999389648</ele>
        <time>2020-10-16T15:30:04.000Z</time>
      </trkpt>
      <trkpt lat="48.19348" lon="-2.86339">
        <ele>133.39999389648</ele>
        <time>2020-10-16T15:30:05.000Z</time>
      </trkpt>
      <trkpt lat="48.19348" lon="-2.86339">
        <ele>133.39999389648</ele>
        <time>2020-10-16T15:30:06.000Z</time>
      </trkpt>
      <trkpt lat="48.19348" lon="-2.86339">
        <ele>133.39999389648</ele>
        <time>2020-10-16T15:30:07.000Z</time>
      </trkpt>
      <trkpt lat="48.19348" lon="-2.86339">
        <ele>133.39999389648</ele>
        <time>2020-10-16T15:30:08.000Z</time>
      </trkpt>
      <trkpt lat="48.19348" lon="-2.86339">
        <ele>133.39999389648</ele>
        <time>2020-10-16T15:30:09.000Z</time>
      </trkpt>
      <trkpt lat="48.19348" lon="-2.86339">
        <ele>133.39999389648</ele>
        <time>2020-10-16T15:30:10.000Z</time>
      </trkpt>
      <trkpt lat="48.19348" lon="-2.86339">
        <ele>133.39999389648</ele>
        <time>2020-10-16T15:30:11.000Z</time>
      </trkpt>
      <trkpt lat="48.19348" lon="-2.86339">
        <ele>133.39999389648</ele>
        <time>2020-10-16T15:30:12.000Z</time>
      </trkpt>
      <trkpt lat="48.19348" lon="-2.86339">
        <ele>133.39999389648</ele>
        <time>2020-10-16T15:30:13.000Z</time>
      </trkpt>
      <trkpt lat="48.19348" lon="-2.86339">
        <ele>133.39999389648</ele>
        <time>2020-10-16T15:30:14.000Z</time>
      </trkpt>
      <trkpt lat="48.19348" lon="-2.86339">
        <ele>133.39999389648</ele>
        <time>2020-10-16T15:30:15.000Z</time>
      </trkpt>
      <trkpt lat="48.19348" lon="-2.86339">
        <ele>133.39999389648</ele>
        <time>2020-10-16T15:30:16.000Z</time>
      </trkpt>
      <trkpt lat="48.19348" lon="-2.86339">
        <ele>133.39999389648</ele>
        <time>2020-10-16T15:30:17.000Z</time>
      </trkpt>
      <trkpt lat="48.19348" lon="-2.86339">
        <ele>133.39999389648</ele>
        <time>2020-10-16T15:30:18.000Z</time>
      </trkpt>
      <trkpt lat="48.19348" lon="-2.86339">
        <ele>133.39999389648</ele>
        <time>2020-10-16T15:30:19.000Z</time>
      </trkpt>
      <trkpt lat="48.19348" lon="-2.86339">
        <ele>133.39999389648</ele>
        <time>2020-10-16T15:30:20.000Z</time>
      </trkpt>
      <trkpt lat="48.19348" lon="-2.86339">
        <ele>133.39999389648</ele>
        <time>2020-10-16T15:30:21.000Z</time>
      </trkpt>
      <trkpt lat="48.19348" lon="-2.86339">
        <ele>133.39999389648</ele>
        <time>2020-10-16T15:30:22.000Z</time>
      </trkpt>
      <trkpt lat="48.19348" lon="-2.86339">
        <ele>133.39999389648</ele>
        <time>2020-10-16T15:30:23.000Z</time>
      </trkpt>
      <trkpt lat="48.19348" lon="-2.86339">
        <ele>133.39999389648</ele>
        <time>2020-10-16T15:30:24.000Z</time>
      </trkpt>
      <trkpt lat="48.19348" lon="-2.86339">
        <ele>133.39999389648</ele>
        <time>2020-10-16T15:30:25.000Z</time>
      </trkpt>
      <trkpt lat="48.19348" lon="-2.86339">
        <ele>133.39999389648</ele>
        <time>2020-10-16T15:30:26.000Z</time>
      </trkpt>
      <trkpt lat="48.19348" lon="-2.86339">
        <ele>133.39999389648</ele>
        <time>2020-10-16T15:30:27.000Z</time>
      </trkpt>
      <trkpt lat="48.19348" lon="-2.86339">
        <ele>133.39999389648</ele>
        <time>2020-10-16T15:30:28.000Z</time>
      </trkpt>
      <trkpt lat="48.19348" lon="-2.86339">
        <ele>133.39999389648</ele>
        <time>2020-10-16T15:30:29.000Z</time>
      </trkpt>
      <trkpt lat="48.19348" lon="-2.86339">
        <ele>133.39999389648</ele>
        <time>2020-10-16T15:30:30.000Z</time>
      </trkpt>
      <trkpt lat="48.19348" lon="-2.86339">
        <ele>133.39999389648</ele>
        <time>2020-10-16T15:30:31.000Z</time>
      </trkpt>
      <trkpt lat="48.19348" lon="-2.86339">
        <ele>133.39999389648</ele>
        <time>2020-10-16T15:30:32.000Z</time>
      </trkpt>
      <trkpt lat="48.19348" lon="-2.86339">
        <ele>133.39999389648</ele>
        <time>2020-10-16T15:30:33.000Z</time>
      </trkpt>
      <trkpt lat="48.19348" lon="-2.86339">
        <ele>133.39999389648</ele>
        <time>2020-10-16T15:30:34.000Z</time>
      </trkpt>
      <trkpt lat="48.19348" lon="-2.86339">
        <ele>133.39999389648</ele>
        <time>2020-10-16T15:30:35.000Z</time>
      </trkpt>
      <trkpt lat="48.19348" lon="-2.86339">
        <ele>133.39999389648</ele>
        <time>2020-10-16T15:30:36.000Z</time>
      </trkpt>
      <trkpt lat="48.19348" lon="-2.86339">
        <ele>133.39999389648</ele>
        <time>2020-10-16T15:30:37.000Z</time>
      </trkpt>
      <trkpt lat="48.19348" lon="-2.86339">
        <ele>133.39999389648</ele>
        <time>2020-10-16T15:30:38.000Z</time>
      </trkpt>
      <trkpt lat="48.19348" lon="-2.86339">
        <ele>133.39999389648</ele>
        <time>2020-10-16T15:30:39.000Z</time>
      </trkpt>
      <trkpt lat="48.19348" lon="-2.86339">
        <ele>133.39999389648</ele>
        <time>2020-10-16T15:30:40.000Z</time>
      </trkpt>
      <trkpt lat="48.19348" lon="-2.86339">
        <ele>133.39999389648</ele>
        <time>2020-10-16T15:30:41.000Z</time>
      </trkpt>
      <trkpt lat="48.19348" lon="-2.86339">
        <ele>133.39999389648</ele>
        <time>2020-10-16T15:30:42.000Z</time>
      </trkpt>
      <trkpt lat="48.19348" lon="-2.86339">
        <ele>133.39999389648</ele>
        <time>2020-10-16T15:30:43.000Z</time>
      </trkpt>
      <trkpt lat="48.19348" lon="-2.86339">
        <ele>133.39999389648</ele>
        <time>2020-10-16T15:30:44.000Z</time>
      </trkpt>
      <trkpt lat="48.19348" lon="-2.86339">
        <ele>133.39999389648</ele>
        <time>2020-10-16T15:30:45.000Z</time>
      </trkpt>
      <trkpt lat="48.19348" lon="-2.86339">
        <ele>133.39999389648</ele>
        <time>2020-10-16T15:30:46.000Z</time>
      </trkpt>
      <trkpt lat="48.19348" lon="-2.86339">
        <ele>133.39999389648</ele>
        <time>2020-10-16T15:30:47.000Z</time>
      </trkpt>
      <trkpt lat="48.19348" lon="-2.86339">
        <ele>133.39999389648</ele>
        <time>2020-10-16T15:30:48.000Z</time>
      </trkpt>
      <trkpt lat="48.19348" lon="-2.86339">
        <ele>133.39999389648</ele>
        <time>2020-10-16T15:30:49.000Z</time>
      </trkpt>
      <trkpt lat="48.19348" lon="-2.86339">
        <ele>133.39999389648</ele>
        <time>2020-10-16T15:30:50.000Z</time>
      </trkpt>
      <trkpt lat="48.19348" lon="-2.86339">
        <ele>133.39999389648</ele>
        <time>2020-10-16T15:30:51.000Z</time>
      </trkpt>
      <trkpt lat="48.19348" lon="-2.86339">
        <ele>133.39999389648</ele>
        <time>2020-10-16T15:30:52.000Z</time>
      </trkpt>
      <trkpt lat="48.19348" lon="-2.86339">
        <ele>133.39999389648</ele>
        <time>2020-10-16T15:30:53.000Z</time>
      </trkpt>
      <trkpt lat="48.19348" lon="-2.86339">
        <ele>133.39999389648</ele>
        <time>2020-10-16T15:30:54.000Z</time>
      </trkpt>
      <trkpt lat="48.19348" lon="-2.86339">
        <ele>133.39999389648</ele>
        <time>2020-10-16T15:30:55.000Z</time>
      </trkpt>
      <trkpt lat="48.19348" lon="-2.86339">
        <ele>133.39999389648</ele>
        <time>2020-10-16T15:30:56.000Z</time>
      </trkpt>
      <trkpt lat="48.19348" lon="-2.86339">
        <ele>133.39999389648</ele>
        <time>2020-10-16T15:30:57.000Z</time>
      </trkpt>
      <trkpt lat="48.19348" lon="-2.86339">
        <ele>133.39999389648</ele>
        <time>2020-10-16T15:30:58.000Z</time>
      </trkpt>
      <trkpt lat="48.19348" lon="-2.86339">
        <ele>133.39999389648</ele>
        <time>2020-10-16T15:30:59.000Z</time>
      </trkpt>
      <trkpt lat="48.19348" lon="-2.86339">
        <ele>133.39999389648</ele>
        <time>2020-10-16T15:31:00.000Z</time>
      </trkpt>
      <trkpt lat="48.19348" lon="-2.86339">
        <ele>133.39999389648</ele>
        <time>2020-10-16T15:31:01.000Z</time>
      </trkpt>
      <trkpt lat="48.19348" lon="-2.86339">
        <ele>133.39999389648</ele>
        <time>2020-10-16T15:31:02.000Z</time>
      </trkpt>
      <trkpt lat="48.19348" lon="-2.86339">
        <ele>133.39999389648</ele>
        <time>2020-10-16T15:31:03.000Z</time>
      </trkpt>
      <trkpt lat="48.19348" lon="-2.86339">
        <ele>133.39999389648</ele>
        <time>2020-10-16T15:31:04.000Z</time>
      </trkpt>
      <trkpt lat="48.19348" lon="-2.86339">
        <ele>133.39999389648</ele>
        <time>2020-10-16T15:31:05.000Z</time>
      </trkpt>
      <trkpt lat="48.19348" lon="-2.86339">
        <ele>133.39999389648</ele>
        <time>2020-10-16T15:31:06.000Z</time>
      </trkpt>
      <trkpt lat="48.19348" lon="-2.86339">
        <ele>133.39999389648</ele>
        <time>2020-10-16T15:31:07.000Z</time>
      </trkpt>
      <trkpt lat="48.19348" lon="-2.86339">
        <ele>133.39999389648</ele>
        <time>2020-10-16T15:31:08.000Z</time>
      </trkpt>
      <trkpt lat="48.19348" lon="-2.86339">
        <ele>133.39999389648</ele>
        <time>2020-10-16T15:31:09.000Z</time>
      </trkpt>
      <trkpt lat="48.19348" lon="-2.86339">
        <ele>133.39999389648</ele>
        <time>2020-10-16T15:31:10.000Z</time>
      </trkpt>
      <trkpt lat="48.19348" lon="-2.86339">
        <ele>133.39999389648</ele>
        <time>2020-10-16T15:31:11.000Z</time>
      </trkpt>
      <trkpt lat="48.19348" lon="-2.86339">
        <ele>133.39999389648</ele>
        <time>2020-10-16T15:31:12.000Z</time>
      </trkpt>
      <trkpt lat="48.19348" lon="-2.86339">
        <ele>133.39999389648</ele>
        <time>2020-10-16T15:31:13.000Z</time>
      </trkpt>
      <trkpt lat="48.19348" lon="-2.86339">
        <ele>133.39999389648</ele>
        <time>2020-10-16T15:31:14.000Z</time>
      </trkpt>
      <trkpt lat="48.19348" lon="-2.86339">
        <ele>133.39999389648</ele>
        <time>2020-10-16T15:31:15.000Z</time>
      </trkpt>
      <trkpt lat="48.19348" lon="-2.86339">
        <ele>133.39999389648</ele>
        <time>2020-10-16T15:31:16.000Z</time>
      </trkpt>
      <trkpt lat="48.19348" lon="-2.86339">
        <ele>133.39999389648</ele>
        <time>2020-10-16T15:31:17.000Z</time>
      </trkpt>
      <trkpt lat="48.19348" lon="-2.86339">
        <ele>133.39999389648</ele>
        <time>2020-10-16T15:31:18.000Z</time>
      </trkpt>
      <trkpt lat="48.19348" lon="-2.86339">
        <ele>133.39999389648</ele>
        <time>2020-10-16T15:31:19.000Z</time>
      </trkpt>
      <trkpt lat="48.19348" lon="-2.86339">
        <ele>133.39999389648</ele>
        <time>2020-10-16T15:31:20.000Z</time>
      </trkpt>
      <trkpt lat="48.19348" lon="-2.86339">
        <ele>133.39999389648</ele>
        <time>2020-10-16T15:31:21.000Z</time>
      </trkpt>
      <trkpt lat="48.19348" lon="-2.86339">
        <ele>133.39999389648</ele>
        <time>2020-10-16T15:31:22.000Z</time>
      </trkpt>
      <trkpt lat="48.19348" lon="-2.86339">
        <ele>133.39999389648</ele>
        <time>2020-10-16T15:31:23.000Z</time>
      </trkpt>
      <trkpt lat="48.19348" lon="-2.86339">
        <ele>133.39999389648</ele>
        <time>2020-10-16T15:31:24.000Z</time>
      </trkpt>
      <trkpt lat="48.19348" lon="-2.86339">
        <ele>133.39999389648</ele>
        <time>2020-10-16T15:31:25.000Z</time>
      </trkpt>
      <trkpt lat="48.19348" lon="-2.86339">
        <ele>133.39999389648</ele>
        <time>2020-10-16T15:31:26.000Z</time>
      </trkpt>
      <trkpt lat="48.19348" lon="-2.86339">
        <ele>133.39999389648</ele>
        <time>2020-10-16T15:31:27.000Z</time>
      </trkpt>
      <trkpt lat="48.19348" lon="-2.86339">
        <ele>133.39999389648</ele>
        <time>2020-10-16T15:31:28.000Z</time>
      </trkpt>
      <trkpt lat="48.19348" lon="-2.86339">
        <ele>133.39999389648</ele>
        <time>2020-10-16T15:31:29.000Z</time>
      </trkpt>
      <trkpt lat="48.19348" lon="-2.86339">
        <ele>133.39999389648</ele>
        <time>2020-10-16T15:31:30.000Z</time>
      </trkpt>
      <trkpt lat="48.19348" lon="-2.86339">
        <ele>133.39999389648</ele>
        <time>2020-10-16T15:31:31.000Z</time>
      </trkpt>
      <trkpt lat="48.19348" lon="-2.86339">
        <ele>133.39999389648</ele>
        <time>2020-10-16T15:31:32.000Z</time>
      </trkpt>
      <trkpt lat="48.19348" lon="-2.86339">
        <ele>133.39999389648</ele>
        <time>2020-10-16T15:31:33.000Z</time>
      </trkpt>
      <trkpt lat="48.19348" lon="-2.86339">
        <ele>133.39999389648</ele>
        <time>2020-10-16T15:31:34.000Z</time>
      </trkpt>
      <trkpt lat="48.19348" lon="-2.86339">
        <ele>133.39999389648</ele>
        <time>2020-10-16T15:31:35.000Z</time>
      </trkpt>
      <trkpt lat="48.19348" lon="-2.86339">
        <ele>133.39999389648</ele>
        <time>2020-10-16T15:31:36.000Z</time>
      </trkpt>
      <trkpt lat="48.19348" lon="-2.86339">
        <ele>133.39999389648</ele>
        <time>2020-10-16T15:31:37.000Z</time>
      </trkpt>
      <trkpt lat="48.19348" lon="-2.86339">
        <ele>133.39999389648</ele>
        <time>2020-10-16T15:31:38.000Z</time>
      </trkpt>
      <trkpt lat="48.19348" lon="-2.86339">
        <ele>133.39999389648</ele>
        <time>2020-10-16T15:31:39.000Z</time>
      </trkpt>
      <trkpt lat="48.19348" lon="-2.86339">
        <ele>133.39999389648</ele>
        <time>2020-10-16T15:31:40.000Z</time>
      </trkpt>
      <trkpt lat="48.19348" lon="-2.86339">
        <ele>133.39999389648</ele>
        <time>2020-10-16T15:31:41.000Z</time>
      </trkpt>
      <trkpt lat="48.19348" lon="-2.86339">
        <ele>133.39999389648</ele>
        <time>2020-10-16T15:31:42.000Z</time>
      </trkpt>
      <trkpt lat="48.19348" lon="-2.86339">
        <ele>133.39999389648</ele>
        <time>2020-10-16T15:31:43.000Z</time>
      </trkpt>
      <trkpt lat="48.19348" lon="-2.86339">
        <ele>133.39999389648</ele>
        <time>2020-10-16T15:31:44.000Z</time>
      </trkpt>
      <trkpt lat="48.19348" lon="-2.86339">
        <ele>133.39999389648</ele>
        <time>2020-10-16T15:31:45.000Z</time>
      </trkpt>
      <trkpt lat="48.19348" lon="-2.86339">
        <ele>133.39999389648</ele>
        <time>2020-10-16T15:31:46.000Z</time>
      </trkpt>
      <trkpt lat="48.19348" lon="-2.86339">
        <ele>133.39999389648</ele>
        <time>2020-10-16T15:31:47.000Z</time>
      </trkpt>
      <trkpt lat="48.19348" lon="-2.86339">
        <ele>133.39999389648</ele>
        <time>2020-10-16T15:31:48.000Z</time>
      </trkpt>
      <trkpt lat="48.19348" lon="-2.86339">
        <ele>133.39999389648</ele>
        <time>2020-10-16T15:31:49.000Z</time>
      </trkpt>
      <trkpt lat="48.19348" lon="-2.86339">
        <ele>133.39999389648</ele>
        <time>2020-10-16T15:31:50.000Z</time>
      </trkpt>
      <trkpt lat="48.19348" lon="-2.86339">
        <ele>133.39999389648</ele>
        <time>2020-10-16T15:31:51.000Z</time>
      </trkpt>
      <trkpt lat="48.19348" lon="-2.86339">
        <ele>133.39999389648</ele>
        <time>2020-10-16T15:31:52.000Z</time>
      </trkpt>
      <trkpt lat="48.19348" lon="-2.86339">
        <ele>133.39999389648</ele>
        <time>2020-10-16T15:31:53.000Z</time>
      </trkpt>
      <trkpt lat="48.19348" lon="-2.86339">
        <ele>133.39999389648</ele>
        <time>2020-10-16T15:31:54.000Z</time>
      </trkpt>
      <trkpt lat="48.19348" lon="-2.86339">
        <ele>133.39999389648</ele>
        <time>2020-10-16T15:31:55.000Z</time>
      </trkpt>
      <trkpt lat="48.19348" lon="-2.86339">
        <ele>133.39999389648</ele>
        <time>2020-10-16T15:31:56.000Z</time>
      </trkpt>
      <trkpt lat="48.19348" lon="-2.86339">
        <ele>133.39999389648</ele>
        <time>2020-10-16T15:31:57.000Z</time>
      </trkpt>
      <trkpt lat="48.19348" lon="-2.86339">
        <ele>133.39999389648</ele>
        <time>2020-10-16T15:31:58.000Z</time>
      </trkpt>
      <trkpt lat="48.19348" lon="-2.86339">
        <ele>133.39999389648</ele>
        <time>2020-10-16T15:31:59.000Z</time>
      </trkpt>
      <trkpt lat="48.19348" lon="-2.86339">
        <ele>133.39999389648</ele>
        <time>2020-10-16T15:32:00.000Z</time>
      </trkpt>
      <trkpt lat="48.19348" lon="-2.86339">
        <ele>133.39999389648</ele>
        <time>2020-10-16T15:32:01.000Z</time>
      </trkpt>
      <trkpt lat="48.19348" lon="-2.86339">
        <ele>133.39999389648</ele>
        <time>2020-10-16T15:32:02.000Z</time>
      </trkpt>
      <trkpt lat="48.19348" lon="-2.86339">
        <ele>133.39999389648</ele>
        <time>2020-10-16T15:32:03.000Z</time>
      </trkpt>
      <trkpt lat="48.19348" lon="-2.86339">
        <ele>133.39999389648</ele>
        <time>2020-10-16T15:32:04.000Z</time>
      </trkpt>
      <trkpt lat="48.19348" lon="-2.86339">
        <ele>133.39999389648</ele>
        <time>2020-10-16T15:32:05.000Z</time>
      </trkpt>
      <trkpt lat="48.19348" lon="-2.86339">
        <ele>133.39999389648</ele>
        <time>2020-10-16T15:32:06.000Z</time>
      </trkpt>
      <trkpt lat="48.19348" lon="-2.86339">
        <ele>133.39999389648</ele>
        <time>2020-10-16T15:32:07.000Z</time>
      </trkpt>
      <trkpt lat="48.19348" lon="-2.86339">
        <ele>133.39999389648</ele>
        <time>2020-10-16T15:32:08.000Z</time>
      </trkpt>
      <trkpt lat="48.19348" lon="-2.86339">
        <ele>133.39999389648</ele>
        <time>2020-10-16T15:32:09.000Z</time>
      </trkpt>
      <trkpt lat="48.19348" lon="-2.86339">
        <ele>133.39999389648</ele>
        <time>2020-10-16T15:32:10.000Z</time>
      </trkpt>
      <trkpt lat="48.19348" lon="-2.86339">
        <ele>133.39999389648</ele>
        <time>2020-10-16T15:32:11.000Z</time>
      </trkpt>
      <trkpt lat="48.19348" lon="-2.86339">
        <ele>133.39999389648</ele>
        <time>2020-10-16T15:32:12.000Z</time>
      </trkpt>
      <trkpt lat="48.19348" lon="-2.86339">
        <ele>133.39999389648</ele>
        <time>2020-10-16T15:32:13.000Z</time>
      </trkpt>
      <trkpt lat="48.19348" lon="-2.86339">
        <ele>133.39999389648</ele>
        <time>2020-10-16T15:32:14.000Z</time>
      </trkpt>
      <trkpt lat="48.19348" lon="-2.86339">
        <ele>133.39999389648</ele>
        <time>2020-10-16T15:32:15.000Z</time>
      </trkpt>
      <trkpt lat="48.19348" lon="-2.86339">
        <ele>133.39999389648</ele>
        <time>2020-10-16T15:32:16.000Z</time>
      </trkpt>
      <trkpt lat="48.19348" lon="-2.86339">
        <ele>133.39999389648</ele>
        <time>2020-10-16T15:32:17.000Z</time>
      </trkpt>
      <trkpt lat="48.19348" lon="-2.86339">
        <ele>133.39999389648</ele>
        <time>2020-10-16T15:32:18.000Z</time>
      </trkpt>
      <trkpt lat="48.19348" lon="-2.86339">
        <ele>133.39999389648</ele>
        <time>2020-10-16T15:32:19.000Z</time>
      </trkpt>
      <trkpt lat="48.19348" lon="-2.86339">
        <ele>133.39999389648</ele>
        <time>2020-10-16T15:32:20.000Z</time>
      </trkpt>
      <trkpt lat="48.19348" lon="-2.86339">
        <ele>133.39999389648</ele>
        <time>2020-10-16T15:32:21.000Z</time>
      </trkpt>
      <trkpt lat="48.19348" lon="-2.86339">
        <ele>133.39999389648</ele>
        <time>2020-10-16T15:32:22.000Z</time>
      </trkpt>
      <trkpt lat="48.19348" lon="-2.86339">
        <ele>133.39999389648</ele>
        <time>2020-10-16T15:32:23.000Z</time>
      </trkpt>
      <trkpt lat="48.19348" lon="-2.86339">
        <ele>133.39999389648</ele>
        <time>2020-10-16T15:32:24.000Z</time>
      </trkpt>
      <trkpt lat="48.19348" lon="-2.86339">
        <ele>133.39999389648</ele>
        <time>2020-10-16T15:32:25.000Z</time>
      </trkpt>
      <trkpt lat="48.19348" lon="-2.86339">
        <ele>133.39999389648</ele>
        <time>2020-10-16T15:32:26.000Z</time>
      </trkpt>
      <trkpt lat="48.19348" lon="-2.86339">
        <ele>133.39999389648</ele>
        <time>2020-10-16T15:32:27.000Z</time>
      </trkpt>
      <trkpt lat="48.19348" lon="-2.86339">
        <ele>133.39999389648</ele>
        <time>2020-10-16T15:32:28.000Z</time>
      </trkpt>
      <trkpt lat="48.19348" lon="-2.86339">
        <ele>133.39999389648</ele>
        <time>2020-10-16T15:32:29.000Z</time>
      </trkpt>
      <trkpt lat="48.19348" lon="-2.86338">
        <ele>133.39999389648</ele>
        <time>2020-10-16T15:32:30.000Z</time>
      </trkpt>
      <trkpt lat="48.19348" lon="-2.86338">
        <ele>133.39999389648</ele>
        <time>2020-10-16T15:32:31.000Z</time>
      </trkpt>
      <trkpt lat="48.19348" lon="-2.86338">
        <ele>133.39999389648</ele>
        <time>2020-10-16T15:32:32.000Z</time>
      </trkpt>
      <trkpt lat="48.19348" lon="-2.86338">
        <ele>133.39999389648</ele>
        <time>2020-10-16T15:32:33.000Z</time>
      </trkpt>
      <trkpt lat="48.19348" lon="-2.86338">
        <ele>133.39999389648</ele>
        <time>2020-10-16T15:32:34.000Z</time>
      </trkpt>
      <trkpt lat="48.19348" lon="-2.86338">
        <ele>133.39999389648</ele>
        <time>2020-10-16T15:32:35.000Z</time>
      </trkpt>
      <trkpt lat="48.19348" lon="-2.86338">
        <ele>133.39999389648</ele>
        <time>2020-10-16T15:32:36.000Z</time>
      </trkpt>
      <trkpt lat="48.19348" lon="-2.86338">
        <ele>133.39999389648</ele>
        <time>2020-10-16T15:32:37.000Z</time>
      </trkpt>
      <trkpt lat="48.19347" lon="-2.86338">
        <ele>133.19999694824</ele>
        <time>2020-10-16T15:32:38.000Z</time>
      </trkpt>
      <trkpt lat="48.19347" lon="-2.86338">
        <ele>133.19999694824</ele>
        <time>2020-10-16T15:32:39.000Z</time>
      </trkpt>
      <trkpt lat="48.19347" lon="-2.86338">
        <ele>133.19999694824</ele>
        <time>2020-10-16T15:32:40.000Z</time>
      </trkpt>
      <trkpt lat="48.19347" lon="-2.86338">
        <ele>133.19999694824</ele>
        <time>2020-10-16T15:32:41.000Z</time>
      </trkpt>
      <trkpt lat="48.19346" lon="-2.86338">
        <ele>133.19999694824</ele>
        <time>2020-10-16T15:32:42.000Z</time>
      </trkpt>
      <trkpt lat="48.19346" lon="-2.86338">
        <ele>133.19999694824</ele>
        <time>2020-10-16T15:32:43.000Z</time>
      </trkpt>
      <trkpt lat="48.19346" lon="-2.86338">
        <ele>133</ele>
        <time>2020-10-16T15:32:44.000Z</time>
      </trkpt>
      <trkpt lat="48.19346" lon="-2.86338">
        <ele>133</ele>
        <time>2020-10-16T15:32:45.000Z</time>
      </trkpt>
      <trkpt lat="48.19345" lon="-2.86339">
        <ele>133</ele>
        <time>2020-10-16T15:32:46.000Z</time>
      </trkpt>
      <trkpt lat="48.19346" lon="-2.86339">
        <ele>133</ele>
        <time>2020-10-16T15:32:47.000Z</time>
      </trkpt>
      <trkpt lat="48.19346" lon="-2.86339">
        <ele>133.19999694824</ele>
        <time>2020-10-16T15:32:48.000Z</time>
      </trkpt>
      <trkpt lat="48.19346" lon="-2.86339">
        <ele>133.19999694824</ele>
        <time>2020-10-16T15:32:49.000Z</time>
      </trkpt>
      <trkpt lat="48.19346" lon="-2.86338">
        <ele>133.19999694824</ele>
        <time>2020-10-16T15:32:50.000Z</time>
      </trkpt>
      <trkpt lat="48.19346" lon="-2.86338">
        <ele>133.19999694824</ele>
        <time>2020-10-16T15:32:51.000Z</time>
      </trkpt>
      <trkpt lat="48.19346" lon="-2.86339">
        <ele>133.19999694824</ele>
        <time>2020-10-16T15:32:52.000Z</time>
      </trkpt>
      <trkpt lat="48.19347" lon="-2.86338">
        <ele>133.19999694824</ele>
        <time>2020-10-16T15:32:53.000Z</time>
      </trkpt>
      <trkpt lat="48.19347" lon="-2.86338">
        <ele>133.19999694824</ele>
        <time>2020-10-16T15:32:54.000Z</time>
      </trkpt>
      <trkpt lat="48.19347" lon="-2.86338">
        <ele>133.19999694824</ele>
        <time>2020-10-16T15:32:55.000Z</time>
      </trkpt>
      <trkpt lat="48.19347" lon="-2.86338">
        <ele>133.19999694824</ele>
        <time>2020-10-16T15:32:56.000Z</time>
      </trkpt>
      <trkpt lat="48.19347" lon="-2.86339">
        <ele>133.19999694824</ele>
        <time>2020-10-16T15:32:57.000Z</time>
      </trkpt>
      <trkpt lat="48.19347" lon="-2.86339">
        <ele>133.19999694824</ele>
        <time>2020-10-16T15:32:58.000Z</time>
      </trkpt>
      <trkpt lat="48.19347" lon="-2.86339">
        <ele>133.19999694824</ele>
        <time>2020-10-16T15:32:59.000Z</time>
      </trkpt>
      <trkpt lat="48.19347" lon="-2.86339">
        <ele>133.19999694824</ele>
        <time>2020-10-16T15:33:00.000Z</time>
      </trkpt>
      <trkpt lat="48.19347" lon="-2.86339">
        <ele>133.19999694824</ele>
        <time>2020-10-16T15:33:01.000Z</time>
      </trkpt>
      <trkpt lat="48.19347" lon="-2.86339">
        <ele>133.19999694824</ele>
        <time>2020-10-16T15:33:02.000Z</time>
      </trkpt>
      <trkpt lat="48.19347" lon="-2.86339">
        <ele>133.19999694824</ele>
        <time>2020-10-16T15:33:03.000Z</time>
      </trkpt>
      <trkpt lat="48.19347" lon="-2.86339">
        <ele>133.19999694824</ele>
        <time>2020-10-16T15:33:04.000Z</time>
      </trkpt>
      <trkpt lat="48.19347" lon="-2.86339">
        <ele>133.19999694824</ele>
        <time>2020-10-16T15:33:05.000Z</time>
      </trkpt>
      <trkpt lat="48.19347" lon="-2.86339">
        <ele>133.19999694824</ele>
        <time>2020-10-16T15:33:06.000Z</time>
      </trkpt>
      <trkpt lat="48.19347" lon="-2.8634">
        <ele>133.19999694824</ele>
        <time>2020-10-16T15:33:07.000Z</time>
      </trkpt>
      <trkpt lat="48.19347" lon="-2.8634">
        <ele>133.19999694824</ele>
        <time>2020-10-16T15:33:08.000Z</time>
      </trkpt>
      <trkpt lat="48.19347" lon="-2.8634">
        <ele>133.19999694824</ele>
        <time>2020-10-16T15:33:09.000Z</time>
      </trkpt>
      <trkpt lat="48.19348" lon="-2.8634">
        <ele>133.19999694824</ele>
        <time>2020-10-16T15:33:10.000Z</time>
      </trkpt>
      <trkpt lat="48.19348" lon="-2.8634">
        <ele>133.39999389648</ele>
        <time>2020-10-16T15:33:11.000Z</time>
      </trkpt>
      <trkpt lat="48.19348" lon="-2.86341">
        <ele>133.39999389648</ele>
        <time>2020-10-16T15:33:12.000Z</time>
      </trkpt>
      <trkpt lat="48.19347" lon="-2.86341">
        <ele>133.19999694824</ele>
        <time>2020-10-16T15:33:13.000Z</time>
      </trkpt>
      <trkpt lat="48.1935" lon="-2.86341">
        <ele>133.60000610352</ele>
        <time>2020-10-16T15:33:14.000Z</time>
      </trkpt>
      <trkpt lat="48.19352" lon="-2.86342">
        <ele>133.80000305176</ele>
        <time>2020-10-16T15:33:15.000Z</time>
      </trkpt>
      <trkpt lat="48.19352" lon="-2.86342">
        <ele>133.80000305176</ele>
        <time>2020-10-16T15:33:16.000Z</time>
      </trkpt>
      <trkpt lat="48.19353" lon="-2.86343">
        <ele>134</ele>
        <time>2020-10-16T15:33:17.000Z</time>
      </trkpt>
      <trkpt lat="48.19353" lon="-2.86343">
        <ele>133.80000305176</ele>
        <time>2020-10-16T15:33:18.000Z</time>
      </trkpt>
      <trkpt lat="48.19352" lon="-2.86344">
        <ele>133.80000305176</ele>
        <time>2020-10-16T15:33:19.000Z</time>
      </trkpt>
      <trkpt lat="48.19353" lon="-2.86343">
        <ele>133.80000305176</ele>
        <time>2020-10-16T15:33:20.000Z</time>
      </trkpt>
      <trkpt lat="48.19353" lon="-2.86343">
        <ele>133.80000305176</ele>
        <time>2020-10-16T15:33:21.000Z</time>
      </trkpt>
      <trkpt lat="48.19352" lon="-2.86342">
        <ele>133.80000305176</ele>
        <time>2020-10-16T15:33:22.000Z</time>
      </trkpt>
      <trkpt lat="48.19352" lon="-2.86342">
        <ele>133.80000305176</ele>
        <time>2020-10-16T15:33:23.000Z</time>
      </trkpt>
      <trkpt lat="48.19352" lon="-2.86342">
        <ele>133.80000305176</ele>
        <time>2020-10-16T15:33:24.000Z</time>
      </trkpt>
      <trkpt lat="48.19351" lon="-2.86342">
        <ele>133.60000610352</ele>
        <time>2020-10-16T15:33:25.000Z</time>
      </trkpt>
      <trkpt lat="48.19351" lon="-2.86343">
        <ele>133.60000610352</ele>
        <time>2020-10-16T15:33:26.000Z</time>
      </trkpt>
      <trkpt lat="48.19349" lon="-2.86343">
        <ele>133.39999389648</ele>
        <time>2020-10-16T15:33:27.000Z</time>
      </trkpt>
      <trkpt lat="48.19349" lon="-2.86343">
        <ele>133.39999389648</ele>
        <time>2020-10-16T15:33:28.000Z</time>
      </trkpt>
      <trkpt lat="48.19348" lon="-2.86343">
        <ele>133.39999389648</ele>
        <time>2020-10-16T15:33:29.000Z</time>
      </trkpt>
      <trkpt lat="48.19349" lon="-2.86343">
        <ele>133.39999389648</ele>
        <time>2020-10-16T15:33:30.000Z</time>
      </trkpt>
      <trkpt lat="48.19348" lon="-2.86343">
        <ele>133.39999389648</ele>
        <time>2020-10-16T15:33:31.000Z</time>
      </trkpt>
      <trkpt lat="48.19348" lon="-2.86343">
        <ele>133.19999694824</ele>
        <time>2020-10-16T15:33:32.000Z</time>
      </trkpt>
      <trkpt lat="48.19347" lon="-2.86343">
        <ele>133.19999694824</ele>
        <time>2020-10-16T15:33:33.000Z</time>
      </trkpt>
      <trkpt lat="48.19347" lon="-2.86343">
        <ele>133.19999694824</ele>
        <time>2020-10-16T15:33:34.000Z</time>
      </trkpt>
      <trkpt lat="48.19347" lon="-2.86343">
        <ele>133.19999694824</ele>
        <time>2020-10-16T15:33:35.000Z</time>
      </trkpt>
      <trkpt lat="48.19347" lon="-2.86343">
        <ele>133.19999694824</ele>
        <time>2020-10-16T15:33:36.000Z</time>
      </trkpt>
      <trkpt lat="48.19347" lon="-2.86343">
        <ele>133.19999694824</ele>
        <time>2020-10-16T15:33:37.000Z</time>
      </trkpt>
      <trkpt lat="48.19347" lon="-2.86343">
        <ele>133.19999694824</ele>
        <time>2020-10-16T15:33:38.000Z</time>
      </trkpt>
      <trkpt lat="48.19347" lon="-2.86343">
        <ele>133.19999694824</ele>
        <time>2020-10-16T15:33:39.000Z</time>
      </trkpt>
      <trkpt lat="48.19347" lon="-2.86343">
        <ele>133.19999694824</ele>
        <time>2020-10-16T15:33:40.000Z</time>
      </trkpt>
      <trkpt lat="48.19347" lon="-2.86343">
        <ele>133.19999694824</ele>
        <time>2020-10-16T15:33:41.000Z</time>
      </trkpt>
      <trkpt lat="48.19347" lon="-2.86343">
        <ele>133.19999694824</ele>
        <time>2020-10-16T15:33:42.000Z</time>
      </trkpt>
      <trkpt lat="48.19347" lon="-2.86343">
        <ele>133.19999694824</ele>
        <time>2020-10-16T15:33:43.000Z</time>
      </trkpt>
      <trkpt lat="48.19347" lon="-2.86343">
        <ele>133.19999694824</ele>
        <time>2020-10-16T15:33:44.000Z</time>
      </trkpt>
      <trkpt lat="48.19347" lon="-2.86343">
        <ele>133.19999694824</ele>
        <time>2020-10-16T15:33:45.000Z</time>
      </trkpt>
      <trkpt lat="48.19347" lon="-2.86343">
        <ele>133.19999694824</ele>
        <time>2020-10-16T15:33:46.000Z</time>
      </trkpt>
      <trkpt lat="48.19347" lon="-2.86343">
        <ele>133.19999694824</ele>
        <time>2020-10-16T15:33:47.000Z</time>
      </trkpt>
      <trkpt lat="48.19347" lon="-2.86343">
        <ele>133.19999694824</ele>
        <time>2020-10-16T15:33:48.000Z</time>
      </trkpt>
      <trkpt lat="48.19347" lon="-2.86343">
        <ele>133.19999694824</ele>
        <time>2020-10-16T15:33:49.000Z</time>
      </trkpt>
      <trkpt lat="48.19347" lon="-2.86343">
        <ele>133.19999694824</ele>
        <time>2020-10-16T15:33:50.000Z</time>
      </trkpt>
      <trkpt lat="48.19347" lon="-2.86343">
        <ele>133.19999694824</ele>
        <time>2020-10-16T15:33:51.000Z</time>
      </trkpt>
      <trkpt lat="48.19347" lon="-2.86343">
        <ele>133.19999694824</ele>
        <time>2020-10-16T15:33:52.000Z</time>
      </trkpt>
      <trkpt lat="48.19347" lon="-2.86343">
        <ele>133.19999694824</ele>
        <time>2020-10-16T15:33:53.000Z</time>
      </trkpt>
      <trkpt lat="48.19347" lon="-2.86343">
        <ele>133.19999694824</ele>
        <time>2020-10-16T15:33:54.000Z</time>
      </trkpt>
      <trkpt lat="48.19347" lon="-2.86343">
        <ele>133.19999694824</ele>
        <time>2020-10-16T15:33:55.000Z</time>
      </trkpt>
      <trkpt lat="48.19347" lon="-2.86343">
        <ele>133.19999694824</ele>
        <time>2020-10-16T15:33:56.000Z</time>
      </trkpt>
      <trkpt lat="48.19347" lon="-2.86343">
        <ele>133.19999694824</ele>
        <time>2020-10-16T15:33:57.000Z</time>
      </trkpt>
      <trkpt lat="48.19347" lon="-2.86343">
        <ele>133.19999694824</ele>
        <time>2020-10-16T15:33:58.000Z</time>
      </trkpt>
      <trkpt lat="48.19347" lon="-2.86344">
        <ele>133.19999694824</ele>
        <time>2020-10-16T15:33:59.000Z</time>
      </trkpt>
      <trkpt lat="48.19347" lon="-2.86343">
        <ele>133.19999694824</ele>
        <time>2020-10-16T15:34:00.000Z</time>
      </trkpt>
      <trkpt lat="48.19347" lon="-2.86343">
        <ele>133.19999694824</ele>
        <time>2020-10-16T15:34:01.000Z</time>
      </trkpt>
      <trkpt lat="48.19347" lon="-2.86343">
        <ele>133.19999694824</ele>
        <time>2020-10-16T15:34:02.000Z</time>
      </trkpt>
      <trkpt lat="48.19347" lon="-2.86343">
        <ele>133.19999694824</ele>
        <time>2020-10-16T15:34:03.000Z</time>
      </trkpt>
      <trkpt lat="48.19347" lon="-2.86343">
        <ele>133.19999694824</ele>
        <time>2020-10-16T15:34:04.000Z</time>
      </trkpt>
      <trkpt lat="48.19347" lon="-2.86343">
        <ele>133.19999694824</ele>
        <time>2020-10-16T15:34:05.000Z</time>
      </trkpt>
      <trkpt lat="48.19347" lon="-2.86343">
        <ele>133.19999694824</ele>
        <time>2020-10-16T15:34:06.000Z</time>
      </trkpt>
      <trkpt lat="48.19347" lon="-2.86343">
        <ele>133.19999694824</ele>
        <time>2020-10-16T15:34:07.000Z</time>
      </trkpt>
      <trkpt lat="48.19347" lon="-2.86343">
        <ele>133.19999694824</ele>
        <time>2020-10-16T15:34:08.000Z</time>
      </trkpt>
      <trkpt lat="48.19347" lon="-2.86343">
        <ele>133.19999694824</ele>
        <time>2020-10-16T15:34:09.000Z</time>
      </trkpt>
      <trkpt lat="48.19347" lon="-2.86343">
        <ele>133.19999694824</ele>
        <time>2020-10-16T15:34:10.000Z</time>
      </trkpt>
      <trkpt lat="48.19347" lon="-2.86343">
        <ele>133.19999694824</ele>
        <time>2020-10-16T15:34:11.000Z</time>
      </trkpt>
      <trkpt lat="48.19347" lon="-2.86343">
        <ele>133.19999694824</ele>
        <time>2020-10-16T15:34:12.000Z</time>
      </trkpt>
      <trkpt lat="48.19347" lon="-2.86343">
        <ele>133.19999694824</ele>
        <time>2020-10-16T15:34:13.000Z</time>
      </trkpt>
      <trkpt lat="48.19347" lon="-2.86343">
        <ele>133.19999694824</ele>
        <time>2020-10-16T15:34:14.000Z</time>
      </trkpt>
      <trkpt lat="48.19347" lon="-2.86344">
        <ele>133.19999694824</ele>
        <time>2020-10-16T15:34:15.000Z</time>
      </trkpt>
      <trkpt lat="48.19347" lon="-2.86344">
        <ele>133.19999694824</ele>
        <time>2020-10-16T15:34:16.000Z</time>
      </trkpt>
      <trkpt lat="48.19347" lon="-2.86344">
        <ele>133.19999694824</ele>
        <time>2020-10-16T15:34:17.000Z</time>
      </trkpt>
      <trkpt lat="48.19347" lon="-2.86344">
        <ele>133.19999694824</ele>
        <time>2020-10-16T15:34:18.000Z</time>
      </trkpt>
      <trkpt lat="48.19347" lon="-2.86343">
        <ele>133.19999694824</ele>
        <time>2020-10-16T15:34:19.000Z</time>
      </trkpt>
      <trkpt lat="48.19347" lon="-2.86343">
        <ele>133.19999694824</ele>
        <time>2020-10-16T15:34:20.000Z</time>
      </trkpt>
      <trkpt lat="48.19347" lon="-2.86343">
        <ele>133.19999694824</ele>
        <time>2020-10-16T15:34:21.000Z</time>
      </trkpt>
      <trkpt lat="48.19347" lon="-2.86343">
        <ele>133.19999694824</ele>
        <time>2020-10-16T15:34:22.000Z</time>
      </trkpt>
      <trkpt lat="48.19347" lon="-2.86343">
        <ele>133.19999694824</ele>
        <time>2020-10-16T15:34:23.000Z</time>
      </trkpt>
      <trkpt lat="48.19347" lon="-2.86343">
        <ele>133.19999694824</ele>
        <time>2020-10-16T15:34:24.000Z</time>
      </trkpt>
      <trkpt lat="48.19347" lon="-2.86343">
        <ele>133.19999694824</ele>
        <time>2020-10-16T15:34:25.000Z</time>
      </trkpt>
      <trkpt lat="48.19347" lon="-2.86343">
        <ele>133.19999694824</ele>
        <time>2020-10-16T15:34:26.000Z</time>
      </trkpt>
      <trkpt lat="48.19347" lon="-2.86343">
        <ele>133.19999694824</ele>
        <time>2020-10-16T15:34:27.000Z</time>
      </trkpt>
      <trkpt lat="48.19347" lon="-2.86343">
        <ele>133.19999694824</ele>
        <time>2020-10-16T15:34:28.000Z</time>
      </trkpt>
      <trkpt lat="48.19347" lon="-2.86342">
        <ele>133.19999694824</ele>
        <time>2020-10-16T15:34:29.000Z</time>
      </trkpt>
      <trkpt lat="48.19347" lon="-2.86342">
        <ele>133.19999694824</ele>
        <time>2020-10-16T15:34:30.000Z</time>
      </trkpt>
      <trkpt lat="48.19347" lon="-2.86342">
        <ele>133.19999694824</ele>
        <time>2020-10-16T15:34:31.000Z</time>
      </trkpt>
      <trkpt lat="48.19347" lon="-2.86342">
        <ele>133.19999694824</ele>
        <time>2020-10-16T15:34:32.000Z</time>
      </trkpt>
      <trkpt lat="48.19347" lon="-2.86342">
        <ele>133.19999694824</ele>
        <time>2020-10-16T15:34:33.000Z</time>
      </trkpt>
      <trkpt lat="48.19347" lon="-2.86342">
        <ele>133.19999694824</ele>
        <time>2020-10-16T15:34:34.000Z</time>
      </trkpt>
      <trkpt lat="48.19347" lon="-2.86342">
        <ele>133.19999694824</ele>
        <time>2020-10-16T15:34:35.000Z</time>
      </trkpt>
      <trkpt lat="48.19347" lon="-2.86342">
        <ele>133.19999694824</ele>
        <time>2020-10-16T15:34:36.000Z</time>
      </trkpt>
      <trkpt lat="48.19347" lon="-2.86342">
        <ele>133.19999694824</ele>
        <time>2020-10-16T15:34:37.000Z</time>
      </trkpt>
      <trkpt lat="48.19347" lon="-2.86342">
        <ele>133.19999694824</ele>
        <time>2020-10-16T15:34:38.000Z</time>
      </trkpt>
      <trkpt lat="48.19347" lon="-2.86342">
        <ele>133.19999694824</ele>
        <time>2020-10-16T15:34:39.000Z</time>
      </trkpt>
      <trkpt lat="48.19347" lon="-2.86342">
        <ele>133.19999694824</ele>
        <time>2020-10-16T15:34:40.000Z</time>
      </trkpt>
      <trkpt lat="48.19347" lon="-2.86342">
        <ele>133.19999694824</ele>
        <time>2020-10-16T15:34:41.000Z</time>
      </trkpt>
      <trkpt lat="48.19347" lon="-2.86342">
        <ele>133.19999694824</ele>
        <time>2020-10-16T15:34:42.000Z</time>
      </trkpt>
      <trkpt lat="48.19347" lon="-2.86341">
        <ele>133.19999694824</ele>
        <time>2020-10-16T15:34:43.000Z</time>
      </trkpt>
      <trkpt lat="48.19348" lon="-2.86341">
        <ele>133.19999694824</ele>
        <time>2020-10-16T15:34:44.000Z</time>
      </trkpt>
      <trkpt lat="48.19348" lon="-2.86341">
        <ele>133.19999694824</ele>
        <time>2020-10-16T15:34:45.000Z</time>
      </trkpt>
      <trkpt lat="48.19348" lon="-2.86341">
        <ele>133.19999694824</ele>
        <time>2020-10-16T15:34:46.000Z</time>
      </trkpt>
      <trkpt lat="48.19348" lon="-2.86341">
        <ele>133.19999694824</ele>
        <time>2020-10-16T15:34:47.000Z</time>
      </trkpt>
      <trkpt lat="48.19348" lon="-2.86341">
        <ele>133.39999389648</ele>
        <time>2020-10-16T15:34:48.000Z</time>
      </trkpt>
      <trkpt lat="48.19348" lon="-2.86341">
        <ele>133.39999389648</ele>
        <time>2020-10-16T15:34:49.000Z</time>
      </trkpt>
      <trkpt lat="48.19348" lon="-2.86341">
        <ele>133.39999389648</ele>
        <time>2020-10-16T15:34:50.000Z</time>
      </trkpt>
      <trkpt lat="48.19348" lon="-2.86341">
        <ele>133.39999389648</ele>
        <time>2020-10-16T15:34:51.000Z</time>
      </trkpt>
      <trkpt lat="48.19348" lon="-2.86341">
        <ele>133.39999389648</ele>
        <time>2020-10-16T15:34:52.000Z</time>
      </trkpt>
      <trkpt lat="48.19348" lon="-2.86341">
        <ele>133.39999389648</ele>
        <time>2020-10-16T15:34:53.000Z</time>
      </trkpt>
      <trkpt lat="48.19348" lon="-2.86341">
        <ele>133.39999389648</ele>
        <time>2020-10-16T15:34:54.000Z</time>
      </trkpt>
      <trkpt lat="48.19348" lon="-2.86341">
        <ele>133.39999389648</ele>
        <time>2020-10-16T15:34:55.000Z</time>
      </trkpt>
      <trkpt lat="48.19348" lon="-2.8634">
        <ele>133.39999389648</ele>
        <time>2020-10-16T15:34:56.000Z</time>
      </trkpt>
      <trkpt lat="48.19348" lon="-2.8634">
        <ele>133.39999389648</ele>
        <time>2020-10-16T15:34:57.000Z</time>
      </trkpt>
      <trkpt lat="48.19348" lon="-2.86341">
        <ele>133.39999389648</ele>
        <time>2020-10-16T15:34:58.000Z</time>
      </trkpt>
      <trkpt lat="48.19348" lon="-2.86341">
        <ele>133.39999389648</ele>
        <time>2020-10-16T15:34:59.000Z</time>
      </trkpt>
      <trkpt lat="48.19348" lon="-2.86341">
        <ele>133.39999389648</ele>
        <time>2020-10-16T15:35:00.000Z</time>
      </trkpt>
      <trkpt lat="48.19348" lon="-2.86341">
        <ele>133.39999389648</ele>
        <time>2020-10-16T15:35:01.000Z</time>
      </trkpt>
      <trkpt lat="48.19349" lon="-2.86341">
        <ele>133.39999389648</ele>
        <time>2020-10-16T15:35:02.000Z</time>
      </trkpt>
      <trkpt lat="48.19349" lon="-2.86341">
        <ele>133.39999389648</ele>
        <time>2020-10-16T15:35:03.000Z</time>
      </trkpt>
      <trkpt lat="48.19349" lon="-2.86341">
        <ele>133.39999389648</ele>
        <time>2020-10-16T15:35:04.000Z</time>
      </trkpt>
      <trkpt lat="48.19349" lon="-2.86341">
        <ele>133.39999389648</ele>
        <time>2020-10-16T15:35:05.000Z</time>
      </trkpt>
      <trkpt lat="48.19349" lon="-2.86341">
        <ele>133.39999389648</ele>
        <time>2020-10-16T15:35:06.000Z</time>
      </trkpt>
      <trkpt lat="48.1935" lon="-2.86342">
        <ele>133.60000610352</ele>
        <time>2020-10-16T15:35:07.000Z</time>
      </trkpt>
      <trkpt lat="48.1935" lon="-2.86342">
        <ele>133.60000610352</ele>
        <time>2020-10-16T15:35:08.000Z</time>
      </trkpt>
      <trkpt lat="48.19352" lon="-2.86342">
        <ele>133.80000305176</ele>
        <time>2020-10-16T15:35:09.000Z</time>
      </trkpt>
      <trkpt lat="48.19353" lon="-2.86342">
        <ele>133.80000305176</ele>
        <time>2020-10-16T15:35:10.000Z</time>
      </trkpt>
      <trkpt lat="48.19354" lon="-2.86342">
        <ele>134</ele>
        <time>2020-10-16T15:35:11.000Z</time>
      </trkpt>
      <trkpt lat="48.19351" lon="-2.86342">
        <ele>133.60000610352</ele>
        <time>2020-10-16T15:35:12.000Z</time>
      </trkpt>
      <trkpt lat="48.19351" lon="-2.86342">
        <ele>133.60000610352</ele>
        <time>2020-10-16T15:35:13.000Z</time>
      </trkpt>
      <trkpt lat="48.1935" lon="-2.86342">
        <ele>133.60000610352</ele>
        <time>2020-10-16T15:35:14.000Z</time>
      </trkpt>
      <trkpt lat="48.19349" lon="-2.86342">
        <ele>133.39999389648</ele>
        <time>2020-10-16T15:35:15.000Z</time>
      </trkpt>
      <trkpt lat="48.19349" lon="-2.86342">
        <ele>133.39999389648</ele>
        <time>2020-10-16T15:35:16.000Z</time>
      </trkpt>
      <trkpt lat="48.19349" lon="-2.86342">
        <ele>133.39999389648</ele>
        <time>2020-10-16T15:35:17.000Z</time>
      </trkpt>
      <trkpt lat="48.19349" lon="-2.86342">
        <ele>133.39999389648</ele>
        <time>2020-10-16T15:35:18.000Z</time>
      </trkpt>
      <trkpt lat="48.19349" lon="-2.86342">
        <ele>133.39999389648</ele>
        <time>2020-10-16T15:35:19.000Z</time>
      </trkpt>
      <trkpt lat="48.19349" lon="-2.86342">
        <ele>133.39999389648</ele>
        <time>2020-10-16T15:35:20.000Z</time>
      </trkpt>
      <trkpt lat="48.19349" lon="-2.86342">
        <ele>133.39999389648</ele>
        <time>2020-10-16T15:35:21.000Z</time>
      </trkpt>
      <trkpt lat="48.19349" lon="-2.86342">
        <ele>133.39999389648</ele>
        <time>2020-10-16T15:35:22.000Z</time>
      </trkpt>
      <trkpt lat="48.19348" lon="-2.86342">
        <ele>133.39999389648</ele>
        <time>2020-10-16T15:35:23.000Z</time>
      </trkpt>
      <trkpt lat="48.19349" lon="-2.86342">
        <ele>133.39999389648</ele>
        <time>2020-10-16T15:35:24.000Z</time>
      </trkpt>
      <trkpt lat="48.19349" lon="-2.86341">
        <ele>133.39999389648</ele>
        <time>2020-10-16T15:35:25.000Z</time>
      </trkpt>
      <trkpt lat="48.19349" lon="-2.86341">
        <ele>133.39999389648</ele>
        <time>2020-10-16T15:35:26.000Z</time>
      </trkpt>
      <trkpt lat="48.19349" lon="-2.86341">
        <ele>133.39999389648</ele>
        <time>2020-10-16T15:35:27.000Z</time>
      </trkpt>
      <trkpt lat="48.19349" lon="-2.86341">
        <ele>133.39999389648</ele>
        <time>2020-10-16T15:35:28.000Z</time>
      </trkpt>
      <trkpt lat="48.19349" lon="-2.8634">
        <ele>133.39999389648</ele>
        <time>2020-10-16T15:35:29.000Z</time>
      </trkpt>
      <trkpt lat="48.19349" lon="-2.8634">
        <ele>133.39999389648</ele>
        <time>2020-10-16T15:35:30.000Z</time>
      </trkpt>
      <trkpt lat="48.19349" lon="-2.8634">
        <ele>133.39999389648</ele>
        <time>2020-10-16T15:35:31.000Z</time>
      </trkpt>
      <trkpt lat="48.19349" lon="-2.8634">
        <ele>133.39999389648</ele>
        <time>2020-10-16T15:35:32.000Z</time>
      </trkpt>
      <trkpt lat="48.19349" lon="-2.8634">
        <ele>133.39999389648</ele>
        <time>2020-10-16T15:35:33.000Z</time>
      </trkpt>
      <trkpt lat="48.19349" lon="-2.8634">
        <ele>133.39999389648</ele>
        <time>2020-10-16T15:35:34.000Z</time>
      </trkpt>
      <trkpt lat="48.19349" lon="-2.8634">
        <ele>133.39999389648</ele>
        <time>2020-10-16T15:35:35.000Z</time>
      </trkpt>
      <trkpt lat="48.19349" lon="-2.8634">
        <ele>133.39999389648</ele>
        <time>2020-10-16T15:35:36.000Z</time>
      </trkpt>
      <trkpt lat="48.19349" lon="-2.8634">
        <ele>133.39999389648</ele>
        <time>2020-10-16T15:35:37.000Z</time>
      </trkpt>
      <trkpt lat="48.19349" lon="-2.8634">
        <ele>133.39999389648</ele>
        <time>2020-10-16T15:35:38.000Z</time>
      </trkpt>
      <trkpt lat="48.19349" lon="-2.8634">
        <ele>133.39999389648</ele>
        <time>2020-10-16T15:35:39.000Z</time>
      </trkpt>
      <trkpt lat="48.19349" lon="-2.8634">
        <ele>133.39999389648</ele>
        <time>2020-10-16T15:35:40.000Z</time>
      </trkpt>
      <trkpt lat="48.19349" lon="-2.86341">
        <ele>133.39999389648</ele>
        <time>2020-10-16T15:35:41.000Z</time>
      </trkpt>
      <trkpt lat="48.19349" lon="-2.86341">
        <ele>133.39999389648</ele>
        <time>2020-10-16T15:35:42.000Z</time>
      </trkpt>
      <trkpt lat="48.19349" lon="-2.86341">
        <ele>133.39999389648</ele>
        <time>2020-10-16T15:35:43.000Z</time>
      </trkpt>
      <trkpt lat="48.19349" lon="-2.86341">
        <ele>133.39999389648</ele>
        <time>2020-10-16T15:35:44.000Z</time>
      </trkpt>
      <trkpt lat="48.19348" lon="-2.86341">
        <ele>133.39999389648</ele>
        <time>2020-10-16T15:35:45.000Z</time>
      </trkpt>
      <trkpt lat="48.19349" lon="-2.86341">
        <ele>133.39999389648</ele>
        <time>2020-10-16T15:35:46.000Z</time>
      </trkpt>
      <trkpt lat="48.19349" lon="-2.86341">
        <ele>133.39999389648</ele>
        <time>2020-10-16T15:35:47.000Z</time>
      </trkpt>
      <trkpt lat="48.19349" lon="-2.86341">
        <ele>133.39999389648</ele>
        <time>2020-10-16T15:35:48.000Z</time>
      </trkpt>
      <trkpt lat="48.19349" lon="-2.86341">
        <ele>133.39999389648</ele>
        <time>2020-10-16T15:35:49.000Z</time>
      </trkpt>
      <trkpt lat="48.19349" lon="-2.86341">
        <ele>133.39999389648</ele>
        <time>2020-10-16T15:35:50.000Z</time>
      </trkpt>
      <trkpt lat="48.19349" lon="-2.86341">
        <ele>133.39999389648</ele>
        <time>2020-10-16T15:35:51.000Z</time>
      </trkpt>
      <trkpt lat="48.19349" lon="-2.86341">
        <ele>133.39999389648</ele>
        <time>2020-10-16T15:35:52.000Z</time>
      </trkpt>
      <trkpt lat="48.19349" lon="-2.86341">
        <ele>133.39999389648</ele>
        <time>2020-10-16T15:35:53.000Z</time>
      </trkpt>
      <trkpt lat="48.19349" lon="-2.86341">
        <ele>133.39999389648</ele>
        <time>2020-10-16T15:35:54.000Z</time>
      </trkpt>
      <trkpt lat="48.19349" lon="-2.86341">
        <ele>133.39999389648</ele>
        <time>2020-10-16T15:35:55.000Z</time>
      </trkpt>
      <trkpt lat="48.19349" lon="-2.8634">
        <ele>133.39999389648</ele>
        <time>2020-10-16T15:35:56.000Z</time>
      </trkpt>
      <trkpt lat="48.19349" lon="-2.8634">
        <ele>133.39999389648</ele>
        <time>2020-10-16T15:35:57.000Z</time>
      </trkpt>
      <trkpt lat="48.19349" lon="-2.8634">
        <ele>133.39999389648</ele>
        <time>2020-10-16T15:35:58.000Z</time>
      </trkpt>
      <trkpt lat="48.19349" lon="-2.8634">
        <ele>133.39999389648</ele>
        <time>2020-10-16T15:35:59.000Z</time>
      </trkpt>
      <trkpt lat="48.19348" lon="-2.8634">
        <ele>133.39999389648</ele>
        <time>2020-10-16T15:36:00.000Z</time>
      </trkpt>
      <trkpt lat="48.19348" lon="-2.8634">
        <ele>133.39999389648</ele>
        <time>2020-10-16T15:36:01.000Z</time>
      </trkpt>
      <trkpt lat="48.19348" lon="-2.8634">
        <ele>133.39999389648</ele>
        <time>2020-10-16T15:36:02.000Z</time>
      </trkpt>
      <trkpt lat="48.19348" lon="-2.8634">
        <ele>133.39999389648</ele>
        <time>2020-10-16T15:36:03.000Z</time>
      </trkpt>
      <trkpt lat="48.19348" lon="-2.8634">
        <ele>133.39999389648</ele>
        <time>2020-10-16T15:36:04.000Z</time>
      </trkpt>
      <trkpt lat="48.19348" lon="-2.8634">
        <ele>133.39999389648</ele>
        <time>2020-10-16T15:36:05.000Z</time>
      </trkpt>
      <trkpt lat="48.19349" lon="-2.86341">
        <ele>133.39999389648</ele>
        <time>2020-10-16T15:36:06.000Z</time>
      </trkpt>
      <trkpt lat="48.19349" lon="-2.86341">
        <ele>133.39999389648</ele>
        <time>2020-10-16T15:36:07.000Z</time>
      </trkpt>
      <trkpt lat="48.19349" lon="-2.8634">
        <ele>133.39999389648</ele>
        <time>2020-10-16T15:36:08.000Z</time>
      </trkpt>
      <trkpt lat="48.19349" lon="-2.8634">
        <ele>133.39999389648</ele>
        <time>2020-10-16T15:36:09.000Z</time>
      </trkpt>
      <trkpt lat="48.19349" lon="-2.86341">
        <ele>133.39999389648</ele>
        <time>2020-10-16T15:36:10.000Z</time>
      </trkpt>
      <trkpt lat="48.19349" lon="-2.86341">
        <ele>133.39999389648</ele>
        <time>2020-10-16T15:36:11.000Z</time>
      </trkpt>
      <trkpt lat="48.19349" lon="-2.86341">
        <ele>133.39999389648</ele>
        <time>2020-10-16T15:36:12.000Z</time>
      </trkpt>
      <trkpt lat="48.19349" lon="-2.86341">
        <ele>133.39999389648</ele>
        <time>2020-10-16T15:36:13.000Z</time>
      </trkpt>
      <trkpt lat="48.19349" lon="-2.86341">
        <ele>133.39999389648</ele>
        <time>2020-10-16T15:36:14.000Z</time>
      </trkpt>
      <trkpt lat="48.19349" lon="-2.86341">
        <ele>133.39999389648</ele>
        <time>2020-10-16T15:36:15.000Z</time>
      </trkpt>
      <trkpt lat="48.19349" lon="-2.86342">
        <ele>133.39999389648</ele>
        <time>2020-10-16T15:36:16.000Z</time>
      </trkpt>
      <trkpt lat="48.19349" lon="-2.86342">
        <ele>133.39999389648</ele>
        <time>2020-10-16T15:36:17.000Z</time>
      </trkpt>
      <trkpt lat="48.19349" lon="-2.86342">
        <ele>133.39999389648</ele>
        <time>2020-10-16T15:36:18.000Z</time>
      </trkpt>
      <trkpt lat="48.19349" lon="-2.86342">
        <ele>133.39999389648</ele>
        <time>2020-10-16T15:36:19.000Z</time>
      </trkpt>
      <trkpt lat="48.19349" lon="-2.86342">
        <ele>133.39999389648</ele>
        <time>2020-10-16T15:36:20.000Z</time>
      </trkpt>
      <trkpt lat="48.19349" lon="-2.86342">
        <ele>133.39999389648</ele>
        <time>2020-10-16T15:36:21.000Z</time>
      </trkpt>
      <trkpt lat="48.19349" lon="-2.86342">
        <ele>133.39999389648</ele>
        <time>2020-10-16T15:36:22.000Z</time>
      </trkpt>
      <trkpt lat="48.19349" lon="-2.86342">
        <ele>133.39999389648</ele>
        <time>2020-10-16T15:36:23.000Z</time>
      </trkpt>
      <trkpt lat="48.19349" lon="-2.86342">
        <ele>133.39999389648</ele>
        <time>2020-10-16T15:36:24.000Z</time>
      </trkpt>
      <trkpt lat="48.19349" lon="-2.86342">
        <ele>133.39999389648</ele>
        <time>2020-10-16T15:36:25.000Z</time>
      </trkpt>
      <trkpt lat="48.19349" lon="-2.86342">
        <ele>133.39999389648</ele>
        <time>2020-10-16T15:36:26.000Z</time>
      </trkpt>
      <trkpt lat="48.19349" lon="-2.86342">
        <ele>133.39999389648</ele>
        <time>2020-10-16T15:36:27.000Z</time>
      </trkpt>
      <trkpt lat="48.19349" lon="-2.86342">
        <ele>133.39999389648</ele>
        <time>2020-10-16T15:36:28.000Z</time>
      </trkpt>
      <trkpt lat="48.19349" lon="-2.86342">
        <ele>133.39999389648</ele>
        <time>2020-10-16T15:36:29.000Z</time>
      </trkpt>
      <trkpt lat="48.19349" lon="-2.86342">
        <ele>133.39999389648</ele>
        <time>2020-10-16T15:36:30.000Z</time>
      </trkpt>
      <trkpt lat="48.19349" lon="-2.86342">
        <ele>133.39999389648</ele>
        <time>2020-10-16T15:36:31.000Z</time>
      </trkpt>
      <trkpt lat="48.19349" lon="-2.86342">
        <ele>133.39999389648</ele>
        <time>2020-10-16T15:36:32.000Z</time>
      </trkpt>
      <trkpt lat="48.19349" lon="-2.86341">
        <ele>133.39999389648</ele>
        <time>2020-10-16T15:36:33.000Z</time>
      </trkpt>
      <trkpt lat="48.19349" lon="-2.86341">
        <ele>133.39999389648</ele>
        <time>2020-10-16T15:36:34.000Z</time>
      </trkpt>
      <trkpt lat="48.19349" lon="-2.86341">
        <ele>133.39999389648</ele>
        <time>2020-10-16T15:36:35.000Z</time>
      </trkpt>
      <trkpt lat="48.19349" lon="-2.86341">
        <ele>133.39999389648</ele>
        <time>2020-10-16T15:36:36.000Z</time>
      </trkpt>
      <trkpt lat="48.19348" lon="-2.86341">
        <ele>133.39999389648</ele>
        <time>2020-10-16T15:36:37.000Z</time>
      </trkpt>
      <trkpt lat="48.19348" lon="-2.86341">
        <ele>133.39999389648</ele>
        <time>2020-10-16T15:36:38.000Z</time>
      </trkpt>
      <trkpt lat="48.19348" lon="-2.86341">
        <ele>133.19999694824</ele>
        <time>2020-10-16T15:36:39.000Z</time>
      </trkpt>
      <trkpt lat="48.19347" lon="-2.86341">
        <ele>133.19999694824</ele>
        <time>2020-10-16T15:36:40.000Z</time>
      </trkpt>
      <trkpt lat="48.19347" lon="-2.86341">
        <ele>133.19999694824</ele>
        <time>2020-10-16T15:36:41.000Z</time>
      </trkpt>
      <trkpt lat="48.19347" lon="-2.86341">
        <ele>133.19999694824</ele>
        <time>2020-10-16T15:36:42.000Z</time>
      </trkpt>
      <trkpt lat="48.19347" lon="-2.86341">
        <ele>133.19999694824</ele>
        <time>2020-10-16T15:36:43.000Z</time>
      </trkpt>
      <trkpt lat="48.19347" lon="-2.86341">
        <ele>133.19999694824</ele>
        <time>2020-10-16T15:36:44.000Z</time>
      </trkpt>
      <trkpt lat="48.19347" lon="-2.86341">
        <ele>133.19999694824</ele>
        <time>2020-10-16T15:36:45.000Z</time>
      </trkpt>
      <trkpt lat="48.19347" lon="-2.86341">
        <ele>133.19999694824</ele>
        <time>2020-10-16T15:36:46.000Z</time>
      </trkpt>
      <trkpt lat="48.19347" lon="-2.86341">
        <ele>133.19999694824</ele>
        <time>2020-10-16T15:36:47.000Z</time>
      </trkpt>
      <trkpt lat="48.19348" lon="-2.86341">
        <ele>133.19999694824</ele>
        <time>2020-10-16T15:36:48.000Z</time>
      </trkpt>
      <trkpt lat="48.19348" lon="-2.86342">
        <ele>133.19999694824</ele>
        <time>2020-10-16T15:36:49.000Z</time>
      </trkpt>
      <trkpt lat="48.19347" lon="-2.86342">
        <ele>133.19999694824</ele>
        <time>2020-10-16T15:36:50.000Z</time>
      </trkpt>
      <trkpt lat="48.19347" lon="-2.86342">
        <ele>133.19999694824</ele>
        <time>2020-10-16T15:36:51.000Z</time>
      </trkpt>
      <trkpt lat="48.19347" lon="-2.86342">
        <ele>133.19999694824</ele>
        <time>2020-10-16T15:36:52.000Z</time>
      </trkpt>
      <trkpt lat="48.19347" lon="-2.86341">
        <ele>133.19999694824</ele>
        <time>2020-10-16T15:36:53.000Z</time>
      </trkpt>
      <trkpt lat="48.19346" lon="-2.86341">
        <ele>133.19999694824</ele>
        <time>2020-10-16T15:36:54.000Z</time>
      </trkpt>
      <trkpt lat="48.19346" lon="-2.86341">
        <ele>133</ele>
        <time>2020-10-16T15:36:55.000Z</time>
      </trkpt>
      <trkpt lat="48.19345" lon="-2.8634">
        <ele>133</ele>
        <time>2020-10-16T15:36:56.000Z</time>
      </trkpt>
      <trkpt lat="48.19345" lon="-2.8634">
        <ele>133</ele>
        <time>2020-10-16T15:36:57.000Z</time>
      </trkpt>
      <trkpt lat="48.19345" lon="-2.86339">
        <ele>133</ele>
        <time>2020-10-16T15:36:58.000Z</time>
      </trkpt>
      <trkpt lat="48.19345" lon="-2.8634">
        <ele>133</ele>
        <time>2020-10-16T15:36:59.000Z</time>
      </trkpt>
      <trkpt lat="48.19346" lon="-2.86339">
        <ele>133</ele>
        <time>2020-10-16T15:37:00.000Z</time>
      </trkpt>
      <trkpt lat="48.19345" lon="-2.86339">
        <ele>133</ele>
        <time>2020-10-16T15:37:01.000Z</time>
      </trkpt>
      <trkpt lat="48.19345" lon="-2.86339">
        <ele>133</ele>
        <time>2020-10-16T15:37:02.000Z</time>
      </trkpt>
      <trkpt lat="48.19345" lon="-2.86339">
        <ele>133</ele>
        <time>2020-10-16T15:37:03.000Z</time>
      </trkpt>
      <trkpt lat="48.19345" lon="-2.86339">
        <ele>133</ele>
        <time>2020-10-16T15:37:04.000Z</time>
      </trkpt>
      <trkpt lat="48.19345" lon="-2.86339">
        <ele>133</ele>
        <time>2020-10-16T15:37:05.000Z</time>
      </trkpt>
      <trkpt lat="48.19345" lon="-2.86339">
        <ele>133</ele>
        <time>2020-10-16T15:37:06.000Z</time>
      </trkpt>
      <trkpt lat="48.19345" lon="-2.86339">
        <ele>133</ele>
        <time>2020-10-16T15:37:07.000Z</time>
      </trkpt>
      <trkpt lat="48.19345" lon="-2.86339">
        <ele>133</ele>
        <time>2020-10-16T15:37:08.000Z</time>
      </trkpt>
      <trkpt lat="48.19345" lon="-2.86339">
        <ele>133</ele>
        <time>2020-10-16T15:37:09.000Z</time>
      </trkpt>
      <trkpt lat="48.19345" lon="-2.86339">
        <ele>133</ele>
        <time>2020-10-16T15:37:10.000Z</time>
      </trkpt>
      <trkpt lat="48.19345" lon="-2.86339">
        <ele>133</ele>
        <time>2020-10-16T15:37:11.000Z</time>
      </trkpt>
      <trkpt lat="48.19345" lon="-2.86339">
        <ele>133</ele>
        <time>2020-10-16T15:37:12.000Z</time>
      </trkpt>
      <trkpt lat="48.19345" lon="-2.86339">
        <ele>133</ele>
        <time>2020-10-16T15:37:13.000Z</time>
      </trkpt>
      <trkpt lat="48.19345" lon="-2.86339">
        <ele>133</ele>
        <time>2020-10-16T15:37:14.000Z</time>
      </trkpt>
      <trkpt lat="48.19346" lon="-2.86339">
        <ele>133</ele>
        <time>2020-10-16T15:37:15.000Z</time>
      </trkpt>
      <trkpt lat="48.19345" lon="-2.86339">
        <ele>133</ele>
        <time>2020-10-16T15:37:16.000Z</time>
      </trkpt>
      <trkpt lat="48.19345" lon="-2.86339">
        <ele>133</ele>
        <time>2020-10-16T15:37:17.000Z</time>
      </trkpt>
      <trkpt lat="48.19345" lon="-2.86339">
        <ele>133</ele>
        <time>2020-10-16T15:37:18.000Z</time>
      </trkpt>
      <trkpt lat="48.19345" lon="-2.86339">
        <ele>133</ele>
        <time>2020-10-16T15:37:19.000Z</time>
      </trkpt>
      <trkpt lat="48.19345" lon="-2.86339">
        <ele>133</ele>
        <time>2020-10-16T15:37:20.000Z</time>
      </trkpt>
      <trkpt lat="48.19346" lon="-2.86339">
        <ele>133</ele>
        <time>2020-10-16T15:37:21.000Z</time>
      </trkpt>
      <trkpt lat="48.19346" lon="-2.86339">
        <ele>133</ele>
        <time>2020-10-16T15:37:22.000Z</time>
      </trkpt>
      <trkpt lat="48.19346" lon="-2.86339">
        <ele>133.19999694824</ele>
        <time>2020-10-16T15:37:23.000Z</time>
      </trkpt>
      <trkpt lat="48.19346" lon="-2.86338">
        <ele>133.19999694824</ele>
        <time>2020-10-16T15:37:24.000Z</time>
      </trkpt>
      <trkpt lat="48.19346" lon="-2.86338">
        <ele>133.19999694824</ele>
        <time>2020-10-16T15:37:25.000Z</time>
      </trkpt>
      <trkpt lat="48.19346" lon="-2.86338">
        <ele>133.19999694824</ele>
        <time>2020-10-16T15:37:26.000Z</time>
      </trkpt>
      <trkpt lat="48.19346" lon="-2.86338">
        <ele>133.19999694824</ele>
        <time>2020-10-16T15:37:27.000Z</time>
      </trkpt>
      <trkpt lat="48.19346" lon="-2.86338">
        <ele>133.19999694824</ele>
        <time>2020-10-16T15:37:28.000Z</time>
      </trkpt>
      <trkpt lat="48.19346" lon="-2.86338">
        <ele>133.19999694824</ele>
        <time>2020-10-16T15:37:29.000Z</time>
      </trkpt>
      <trkpt lat="48.19346" lon="-2.86338">
        <ele>133.19999694824</ele>
        <time>2020-10-16T15:37:30.000Z</time>
      </trkpt>
      <trkpt lat="48.19346" lon="-2.86338">
        <ele>133.19999694824</ele>
        <time>2020-10-16T15:37:31.000Z</time>
      </trkpt>
      <trkpt lat="48.19346" lon="-2.86338">
        <ele>133.19999694824</ele>
        <time>2020-10-16T15:37:32.000Z</time>
      </trkpt>
      <trkpt lat="48.19346" lon="-2.86338">
        <ele>133.19999694824</ele>
        <time>2020-10-16T15:37:33.000Z</time>
      </trkpt>
      <trkpt lat="48.19346" lon="-2.86339">
        <ele>133.19999694824</ele>
        <time>2020-10-16T15:37:34.000Z</time>
      </trkpt>
      <trkpt lat="48.19346" lon="-2.86338">
        <ele>133.19999694824</ele>
        <time>2020-10-16T15:37:35.000Z</time>
      </trkpt>
      <trkpt lat="48.19346" lon="-2.86338">
        <ele>133.19999694824</ele>
        <time>2020-10-16T15:37:36.000Z</time>
      </trkpt>
      <trkpt lat="48.19346" lon="-2.86339">
        <ele>133.19999694824</ele>
        <time>2020-10-16T15:37:37.000Z</time>
      </trkpt>
      <trkpt lat="48.19346" lon="-2.86339">
        <ele>133</ele>
        <time>2020-10-16T15:37:38.000Z</time>
      </trkpt>
      <trkpt lat="48.19346" lon="-2.86339">
        <ele>133</ele>
        <time>2020-10-16T15:37:39.000Z</time>
      </trkpt>
      <trkpt lat="48.19345" lon="-2.86339">
        <ele>133</ele>
        <time>2020-10-16T15:37:40.000Z</time>
      </trkpt>
      <trkpt lat="48.19345" lon="-2.86339">
        <ele>133</ele>
        <time>2020-10-16T15:37:41.000Z</time>
      </trkpt>
      <trkpt lat="48.19346" lon="-2.86338">
        <ele>133</ele>
        <time>2020-10-16T15:37:42.000Z</time>
      </trkpt>
      <trkpt lat="48.19346" lon="-2.86338">
        <ele>133</ele>
        <time>2020-10-16T15:37:43.000Z</time>
      </trkpt>
      <trkpt lat="48.19346" lon="-2.86338">
        <ele>133</ele>
        <time>2020-10-16T15:37:44.000Z</time>
      </trkpt>
      <trkpt lat="48.19346" lon="-2.86338">
        <ele>133</ele>
        <time>2020-10-16T15:37:45.000Z</time>
      </trkpt>
      <trkpt lat="48.19346" lon="-2.86338">
        <ele>133</ele>
        <time>2020-10-16T15:37:46.000Z</time>
      </trkpt>
      <trkpt lat="48.19346" lon="-2.86338">
        <ele>133</ele>
        <time>2020-10-16T15:37:47.000Z</time>
      </trkpt>
      <trkpt lat="48.19346" lon="-2.86338">
        <ele>133</ele>
        <time>2020-10-16T15:37:48.000Z</time>
      </trkpt>
      <trkpt lat="48.19346" lon="-2.86338">
        <ele>133</ele>
        <time>2020-10-16T15:37:49.000Z</time>
      </trkpt>
      <trkpt lat="48.19346" lon="-2.86338">
        <ele>133</ele>
        <time>2020-10-16T15:37:50.000Z</time>
      </trkpt>
      <trkpt lat="48.19346" lon="-2.86338">
        <ele>133</ele>
        <time>2020-10-16T15:37:51.000Z</time>
      </trkpt>
      <trkpt lat="48.19346" lon="-2.86338">
        <ele>133</ele>
        <time>2020-10-16T15:37:52.000Z</time>
      </trkpt>
      <trkpt lat="48.19346" lon="-2.86338">
        <ele>133</ele>
        <time>2020-10-16T15:37:53.000Z</time>
      </trkpt>
      <trkpt lat="48.19346" lon="-2.86338">
        <ele>133</ele>
        <time>2020-10-16T15:37:54.000Z</time>
      </trkpt>
      <trkpt lat="48.19345" lon="-2.86338">
        <ele>133</ele>
        <time>2020-10-16T15:37:55.000Z</time>
      </trkpt>
      <trkpt lat="48.19345" lon="-2.86338">
        <ele>133</ele>
        <time>2020-10-16T15:37:56.000Z</time>
      </trkpt>
      <trkpt lat="48.19345" lon="-2.86338">
        <ele>133</ele>
        <time>2020-10-16T15:37:57.000Z</time>
      </trkpt>
      <trkpt lat="48.19345" lon="-2.86338">
        <ele>133</ele>
        <time>2020-10-16T15:37:58.000Z</time>
      </trkpt>
      <trkpt lat="48.19344" lon="-2.86338">
        <ele>133</ele>
        <time>2020-10-16T15:37:59.000Z</time>
      </trkpt>
      <trkpt lat="48.19344" lon="-2.86338">
        <ele>133</ele>
        <time>2020-10-16T15:38:00.000Z</time>
      </trkpt>
      <trkpt lat="48.19344" lon="-2.86338">
        <ele>132.80000305176</ele>
        <time>2020-10-16T15:38:01.000Z</time>
      </trkpt>
      <trkpt lat="48.19344" lon="-2.86338">
        <ele>132.80000305176</ele>
        <time>2020-10-16T15:38:02.000Z</time>
      </trkpt>
      <trkpt lat="48.19344" lon="-2.86338">
        <ele>132.80000305176</ele>
        <time>2020-10-16T15:38:03.000Z</time>
      </trkpt>
      <trkpt lat="48.19343" lon="-2.86338">
        <ele>132.80000305176</ele>
        <time>2020-10-16T15:38:04.000Z</time>
      </trkpt>
      <trkpt lat="48.19343" lon="-2.86338">
        <ele>132.80000305176</ele>
        <time>2020-10-16T15:38:05.000Z</time>
      </trkpt>
      <trkpt lat="48.19343" lon="-2.86338">
        <ele>132.80000305176</ele>
        <time>2020-10-16T15:38:06.000Z</time>
      </trkpt>
      <trkpt lat="48.19343" lon="-2.86338">
        <ele>132.80000305176</ele>
        <time>2020-10-16T15:38:07.000Z</time>
      </trkpt>
      <trkpt lat="48.19343" lon="-2.86337">
        <ele>132.80000305176</ele>
        <time>2020-10-16T15:38:08.000Z</time>
      </trkpt>
      <trkpt lat="48.19343" lon="-2.86337">
        <ele>132.80000305176</ele>
        <time>2020-10-16T15:38:09.000Z</time>
      </trkpt>
      <trkpt lat="48.19343" lon="-2.86337">
        <ele>132.80000305176</ele>
        <time>2020-10-16T15:38:10.000Z</time>
      </trkpt>
      <trkpt lat="48.19343" lon="-2.86337">
        <ele>132.80000305176</ele>
        <time>2020-10-16T15:38:11.000Z</time>
      </trkpt>
      <trkpt lat="48.19343" lon="-2.86337">
        <ele>132.80000305176</ele>
        <time>2020-10-16T15:38:12.000Z</time>
      </trkpt>
      <trkpt lat="48.19343" lon="-2.86337">
        <ele>132.80000305176</ele>
        <time>2020-10-16T15:38:13.000Z</time>
      </trkpt>
      <trkpt lat="48.19343" lon="-2.86337">
        <ele>132.80000305176</ele>
        <time>2020-10-16T15:38:14.000Z</time>
      </trkpt>
      <trkpt lat="48.19343" lon="-2.86337">
        <ele>132.80000305176</ele>
        <time>2020-10-16T15:38:15.000Z</time>
      </trkpt>
      <trkpt lat="48.19343" lon="-2.86337">
        <ele>132.80000305176</ele>
        <time>2020-10-16T15:38:16.000Z</time>
      </trkpt>
      <trkpt lat="48.19343" lon="-2.86337">
        <ele>132.80000305176</ele>
        <time>2020-10-16T15:38:17.000Z</time>
      </trkpt>
      <trkpt lat="48.19343" lon="-2.86337">
        <ele>132.80000305176</ele>
        <time>2020-10-16T15:38:18.000Z</time>
      </trkpt>
      <trkpt lat="48.19344" lon="-2.86337">
        <ele>132.80000305176</ele>
        <time>2020-10-16T15:38:19.000Z</time>
      </trkpt>
      <trkpt lat="48.19344" lon="-2.86338">
        <ele>132.80000305176</ele>
        <time>2020-10-16T15:38:20.000Z</time>
      </trkpt>
      <trkpt lat="48.19344" lon="-2.86338">
        <ele>132.80000305176</ele>
        <time>2020-10-16T15:38:21.000Z</time>
      </trkpt>
      <trkpt lat="48.19344" lon="-2.86338">
        <ele>132.80000305176</ele>
        <time>2020-10-16T15:38:22.000Z</time>
      </trkpt>
      <trkpt lat="48.19344" lon="-2.86338">
        <ele>132.80000305176</ele>
        <time>2020-10-16T15:38:23.000Z</time>
      </trkpt>
      <trkpt lat="48.19344" lon="-2.86338">
        <ele>132.80000305176</ele>
        <time>2020-10-16T15:38:24.000Z</time>
      </trkpt>
      <trkpt lat="48.19344" lon="-2.86338">
        <ele>133</ele>
        <time>2020-10-16T15:38:25.000Z</time>
      </trkpt>
      <trkpt lat="48.19344" lon="-2.86338">
        <ele>133</ele>
        <time>2020-10-16T15:38:26.000Z</time>
      </trkpt>
      <trkpt lat="48.19344" lon="-2.86338">
        <ele>133</ele>
        <time>2020-10-16T15:38:27.000Z</time>
      </trkpt>
      <trkpt lat="48.19344" lon="-2.86338">
        <ele>133</ele>
        <time>2020-10-16T15:38:28.000Z</time>
      </trkpt>
      <trkpt lat="48.19344" lon="-2.86338">
        <ele>133</ele>
        <time>2020-10-16T15:38:29.000Z</time>
      </trkpt>
      <trkpt lat="48.19344" lon="-2.86338">
        <ele>133</ele>
        <time>2020-10-16T15:38:30.000Z</time>
      </trkpt>
      <trkpt lat="48.19344" lon="-2.86338">
        <ele>133</ele>
        <time>2020-10-16T15:38:31.000Z</time>
      </trkpt>
      <trkpt lat="48.19344" lon="-2.86338">
        <ele>133</ele>
        <time>2020-10-16T15:38:32.000Z</time>
      </trkpt>
      <trkpt lat="48.19344" lon="-2.86338">
        <ele>133</ele>
        <time>2020-10-16T15:38:33.000Z</time>
      </trkpt>
      <trkpt lat="48.19344" lon="-2.86338">
        <ele>133</ele>
        <time>2020-10-16T15:38:34.000Z</time>
      </trkpt>
      <trkpt lat="48.19344" lon="-2.86338">
        <ele>132.80000305176</ele>
        <time>2020-10-16T15:38:35.000Z</time>
      </trkpt>
      <trkpt lat="48.19344" lon="-2.86338">
        <ele>132.80000305176</ele>
        <time>2020-10-16T15:38:36.000Z</time>
      </trkpt>
      <trkpt lat="48.19344" lon="-2.86338">
        <ele>132.80000305176</ele>
        <time>2020-10-16T15:38:37.000Z</time>
      </trkpt>
      <trkpt lat="48.19344" lon="-2.86338">
        <ele>132.80000305176</ele>
        <time>2020-10-16T15:38:38.000Z</time>
      </trkpt>
    </trkseg>
  </trk>
</gpx>